<?xml version="1.0" encoding="UTF-8" standalone="no" ?>
<gpx xmlns="http://www.topografix.com/GPX/1/1" xmlns:xsi="http://www.w3.org/2001/XMLSchema-instance" xsi:schemaLocation="http://www.topografix.com/GPX/1/1 http://www.topografix.com/GPX/1/1/gpx.xsd" version="1.1" creator="VisuGPX - https://www.visugpx.com">
  <metadata>
    <name>Petit tour en vallée verte</name>
    <desc><![CDATA[Un peu de parc a vache mais sympa]]></desc>
  </metadata>
  <wpt lat="46.05951" lon="6.37355">
    <ele>483</ele>
  </wpt>
  <wpt lat="46.05951" lon="6.37357">
    <ele>475</ele>
  </wpt>
  <trk>
    <name><![CDATA[Petit tour en vallée verte_1]]></name>
    <trkseg>
      <trkpt lat="46.05951" lon="6.37355">
        <ele>483</ele>
        <time>2012-07-14T07:46:53Z</time>
      </trkpt>
      <trkpt lat="46.0596" lon="6.37342">
        <ele>496</ele>
        <time>2012-07-14T07:50:47Z</time>
      </trkpt>
      <trkpt lat="46.05971" lon="6.37336">
        <ele>496</ele>
        <time>2012-07-14T07:50:51Z</time>
      </trkpt>
      <trkpt lat="46.05985" lon="6.3734">
        <ele>496</ele>
        <time>2012-07-14T07:50:53Z</time>
      </trkpt>
      <trkpt lat="46.05994" lon="6.37343">
        <ele>496</ele>
        <time>2012-07-14T07:50:54Z</time>
      </trkpt>
      <trkpt lat="46.06011" lon="6.37348">
        <ele>496</ele>
        <time>2012-07-14T07:50:56Z</time>
      </trkpt>
      <trkpt lat="46.06022" lon="6.37352">
        <ele>496</ele>
        <time>2012-07-14T07:50:58Z</time>
      </trkpt>
      <trkpt lat="46.06026" lon="6.37367">
        <ele>496</ele>
        <time>2012-07-14T07:51:03Z</time>
      </trkpt>
      <trkpt lat="46.06024" lon="6.37385">
        <ele>490</ele>
        <time>2012-07-14T07:51:06Z</time>
      </trkpt>
      <trkpt lat="46.06022" lon="6.37403">
        <ele>490</ele>
        <time>2012-07-14T07:51:08Z</time>
      </trkpt>
      <trkpt lat="46.06019" lon="6.37426">
        <ele>490</ele>
        <time>2012-07-14T07:51:10Z</time>
      </trkpt>
      <trkpt lat="46.06016" lon="6.37451">
        <ele>490</ele>
        <time>2012-07-14T07:51:12Z</time>
      </trkpt>
      <trkpt lat="46.06014" lon="6.37474">
        <ele>490</ele>
        <time>2012-07-14T07:51:14Z</time>
      </trkpt>
      <trkpt lat="46.06011" lon="6.37495">
        <ele>485</ele>
        <time>2012-07-14T07:51:16Z</time>
      </trkpt>
      <trkpt lat="46.06009" lon="6.37513">
        <ele>485</ele>
        <time>2012-07-14T07:51:18Z</time>
      </trkpt>
      <trkpt lat="46.06007" lon="6.3753">
        <ele>485</ele>
        <time>2012-07-14T07:51:20Z</time>
      </trkpt>
      <trkpt lat="46.06005" lon="6.37545">
        <ele>485</ele>
        <time>2012-07-14T07:51:22Z</time>
      </trkpt>
      <trkpt lat="46.06003" lon="6.37563">
        <ele>485</ele>
        <time>2012-07-14T07:51:24Z</time>
      </trkpt>
      <trkpt lat="46.06001" lon="6.3758">
        <ele>485</ele>
        <time>2012-07-14T07:51:26Z</time>
      </trkpt>
      <trkpt lat="46.05998" lon="6.37595">
        <ele>485</ele>
        <time>2012-07-14T07:51:28Z</time>
      </trkpt>
      <trkpt lat="46.05993" lon="6.37606">
        <ele>485</ele>
        <time>2012-07-14T07:51:30Z</time>
      </trkpt>
      <trkpt lat="46.05986" lon="6.37616">
        <ele>485</ele>
        <time>2012-07-14T07:51:34Z</time>
      </trkpt>
      <trkpt lat="46.0599" lon="6.37633">
        <ele>485</ele>
        <time>2012-07-14T07:51:37Z</time>
      </trkpt>
      <trkpt lat="46.05998" lon="6.37651">
        <ele>485</ele>
        <time>2012-07-14T07:51:39Z</time>
      </trkpt>
      <trkpt lat="46.06008" lon="6.37674">
        <ele>480</ele>
        <time>2012-07-14T07:51:41Z</time>
      </trkpt>
      <trkpt lat="46.06015" lon="6.37687">
        <ele>480</ele>
        <time>2012-07-14T07:51:42Z</time>
      </trkpt>
      <trkpt lat="46.06022" lon="6.37704">
        <ele>480</ele>
        <time>2012-07-14T07:51:43Z</time>
      </trkpt>
      <trkpt lat="46.0603" lon="6.37726">
        <ele>480</ele>
        <time>2012-07-14T07:51:44Z</time>
      </trkpt>
      <trkpt lat="46.06041" lon="6.37748">
        <ele>480</ele>
        <time>2012-07-14T07:51:45Z</time>
      </trkpt>
      <trkpt lat="46.0605" lon="6.37771">
        <ele>480</ele>
        <time>2012-07-14T07:51:46Z</time>
      </trkpt>
      <trkpt lat="46.06059" lon="6.37792">
        <ele>480</ele>
        <time>2012-07-14T07:51:47Z</time>
      </trkpt>
      <trkpt lat="46.06068" lon="6.37814">
        <ele>480</ele>
        <time>2012-07-14T07:51:48Z</time>
      </trkpt>
      <trkpt lat="46.06075" lon="6.37835">
        <ele>480</ele>
        <time>2012-07-14T07:51:49Z</time>
      </trkpt>
      <trkpt lat="46.06082" lon="6.37855">
        <ele>480</ele>
        <time>2012-07-14T07:51:50Z</time>
      </trkpt>
      <trkpt lat="46.06088" lon="6.37876">
        <ele>480</ele>
        <time>2012-07-14T07:51:51Z</time>
      </trkpt>
      <trkpt lat="46.06095" lon="6.37897">
        <ele>480</ele>
        <time>2012-07-14T07:51:52Z</time>
      </trkpt>
      <trkpt lat="46.06101" lon="6.37919">
        <ele>480</ele>
        <time>2012-07-14T07:51:53Z</time>
      </trkpt>
      <trkpt lat="46.06108" lon="6.3794">
        <ele>480</ele>
        <time>2012-07-14T07:51:54Z</time>
      </trkpt>
      <trkpt lat="46.06114" lon="6.37963">
        <ele>480</ele>
        <time>2012-07-14T07:51:55Z</time>
      </trkpt>
      <trkpt lat="46.0612" lon="6.37984">
        <ele>480</ele>
        <time>2012-07-14T07:51:56Z</time>
      </trkpt>
      <trkpt lat="46.06127" lon="6.38008">
        <ele>480</ele>
        <time>2012-07-14T07:51:57Z</time>
      </trkpt>
      <trkpt lat="46.06132" lon="6.3803">
        <ele>474</ele>
        <time>2012-07-14T07:51:58Z</time>
      </trkpt>
      <trkpt lat="46.06137" lon="6.38053">
        <ele>474</ele>
        <time>2012-07-14T07:51:59Z</time>
      </trkpt>
      <trkpt lat="46.0614" lon="6.38076">
        <ele>474</ele>
        <time>2012-07-14T07:52:00Z</time>
      </trkpt>
      <trkpt lat="46.06144" lon="6.38099">
        <ele>474</ele>
        <time>2012-07-14T07:52:01Z</time>
      </trkpt>
      <trkpt lat="46.06147" lon="6.38123">
        <ele>474</ele>
        <time>2012-07-14T07:52:02Z</time>
      </trkpt>
      <trkpt lat="46.06149" lon="6.38147">
        <ele>474</ele>
        <time>2012-07-14T07:52:03Z</time>
      </trkpt>
      <trkpt lat="46.06151" lon="6.38171">
        <ele>474</ele>
        <time>2012-07-14T07:52:04Z</time>
      </trkpt>
      <trkpt lat="46.06153" lon="6.38194">
        <ele>474</ele>
        <time>2012-07-14T07:52:05Z</time>
      </trkpt>
      <trkpt lat="46.06155" lon="6.38214">
        <ele>474</ele>
        <time>2012-07-14T07:52:06Z</time>
      </trkpt>
      <trkpt lat="46.06155" lon="6.38232">
        <ele>474</ele>
        <time>2012-07-14T07:52:07Z</time>
      </trkpt>
      <trkpt lat="46.06156" lon="6.38249">
        <ele>474</ele>
        <time>2012-07-14T07:52:08Z</time>
      </trkpt>
      <trkpt lat="46.06156" lon="6.38267">
        <ele>474</ele>
        <time>2012-07-14T07:52:09Z</time>
      </trkpt>
      <trkpt lat="46.06156" lon="6.38283">
        <ele>474</ele>
        <time>2012-07-14T07:52:10Z</time>
      </trkpt>
      <trkpt lat="46.06157" lon="6.38298">
        <ele>474</ele>
        <time>2012-07-14T07:52:11Z</time>
      </trkpt>
      <trkpt lat="46.06157" lon="6.38311">
        <ele>474</ele>
        <time>2012-07-14T07:52:12Z</time>
      </trkpt>
      <trkpt lat="46.06157" lon="6.38326">
        <ele>474</ele>
        <time>2012-07-14T07:52:13Z</time>
      </trkpt>
      <trkpt lat="46.06158" lon="6.38339">
        <ele>474</ele>
        <time>2012-07-14T07:52:14Z</time>
      </trkpt>
      <trkpt lat="46.06158" lon="6.38361">
        <ele>474</ele>
        <time>2012-07-14T07:52:16Z</time>
      </trkpt>
      <trkpt lat="46.06157" lon="6.38379">
        <ele>474</ele>
        <time>2012-07-14T07:52:18Z</time>
      </trkpt>
      <trkpt lat="46.06155" lon="6.38393">
        <ele>474</ele>
        <time>2012-07-14T07:52:20Z</time>
      </trkpt>
      <trkpt lat="46.06154" lon="6.38408">
        <ele>474</ele>
        <time>2012-07-14T07:52:28Z</time>
      </trkpt>
      <trkpt lat="46.06162" lon="6.38419">
        <ele>474</ele>
        <time>2012-07-14T07:52:30Z</time>
      </trkpt>
      <trkpt lat="46.06175" lon="6.38435">
        <ele>474</ele>
        <time>2012-07-14T07:52:32Z</time>
      </trkpt>
      <trkpt lat="46.06184" lon="6.38444">
        <ele>474</ele>
        <time>2012-07-14T07:52:33Z</time>
      </trkpt>
      <trkpt lat="46.06194" lon="6.38453">
        <ele>474</ele>
        <time>2012-07-14T07:52:34Z</time>
      </trkpt>
      <trkpt lat="46.06205" lon="6.38465">
        <ele>474</ele>
        <time>2012-07-14T07:52:35Z</time>
      </trkpt>
      <trkpt lat="46.06217" lon="6.38477">
        <ele>474</ele>
        <time>2012-07-14T07:52:36Z</time>
      </trkpt>
      <trkpt lat="46.0623" lon="6.3849">
        <ele>474</ele>
        <time>2012-07-14T07:52:37Z</time>
      </trkpt>
      <trkpt lat="46.06244" lon="6.38504">
        <ele>474</ele>
        <time>2012-07-14T07:52:38Z</time>
      </trkpt>
      <trkpt lat="46.06257" lon="6.38518">
        <ele>474</ele>
        <time>2012-07-14T07:52:39Z</time>
      </trkpt>
      <trkpt lat="46.06272" lon="6.38532">
        <ele>474</ele>
        <time>2012-07-14T07:52:40Z</time>
      </trkpt>
      <trkpt lat="46.06285" lon="6.38546">
        <ele>474</ele>
        <time>2012-07-14T07:52:41Z</time>
      </trkpt>
      <trkpt lat="46.06298" lon="6.38558">
        <ele>474</ele>
        <time>2012-07-14T07:52:42Z</time>
      </trkpt>
      <trkpt lat="46.06311" lon="6.38572">
        <ele>474</ele>
        <time>2012-07-14T07:52:43Z</time>
      </trkpt>
      <trkpt lat="46.06325" lon="6.38585">
        <ele>474</ele>
        <time>2012-07-14T07:52:44Z</time>
      </trkpt>
      <trkpt lat="46.06339" lon="6.38598">
        <ele>474</ele>
        <time>2012-07-14T07:52:45Z</time>
      </trkpt>
      <trkpt lat="46.06353" lon="6.38611">
        <ele>474</ele>
        <time>2012-07-14T07:52:46Z</time>
      </trkpt>
      <trkpt lat="46.06368" lon="6.38626">
        <ele>474</ele>
        <time>2012-07-14T07:52:47Z</time>
      </trkpt>
      <trkpt lat="46.06382" lon="6.3864">
        <ele>474</ele>
        <time>2012-07-14T07:52:48Z</time>
      </trkpt>
      <trkpt lat="46.06397" lon="6.38655">
        <ele>469</ele>
        <time>2012-07-14T07:52:49Z</time>
      </trkpt>
      <trkpt lat="46.06412" lon="6.3867">
        <ele>469</ele>
        <time>2012-07-14T07:52:50Z</time>
      </trkpt>
      <trkpt lat="46.06427" lon="6.38684">
        <ele>469</ele>
        <time>2012-07-14T07:52:51Z</time>
      </trkpt>
      <trkpt lat="46.06442" lon="6.38699">
        <ele>469</ele>
        <time>2012-07-14T07:52:52Z</time>
      </trkpt>
      <trkpt lat="46.06457" lon="6.38713">
        <ele>469</ele>
        <time>2012-07-14T07:52:53Z</time>
      </trkpt>
      <trkpt lat="46.06471" lon="6.38726">
        <ele>469</ele>
        <time>2012-07-14T07:52:54Z</time>
      </trkpt>
      <trkpt lat="46.06486" lon="6.38741">
        <ele>469</ele>
        <time>2012-07-14T07:52:55Z</time>
      </trkpt>
      <trkpt lat="46.06501" lon="6.38755">
        <ele>469</ele>
        <time>2012-07-14T07:52:56Z</time>
      </trkpt>
      <trkpt lat="46.06516" lon="6.3877">
        <ele>469</ele>
        <time>2012-07-14T07:52:57Z</time>
      </trkpt>
      <trkpt lat="46.0653" lon="6.38783">
        <ele>469</ele>
        <time>2012-07-14T07:52:58Z</time>
      </trkpt>
      <trkpt lat="46.06544" lon="6.38797">
        <ele>469</ele>
        <time>2012-07-14T07:52:59Z</time>
      </trkpt>
      <trkpt lat="46.06559" lon="6.38813">
        <ele>469</ele>
        <time>2012-07-14T07:53:00Z</time>
      </trkpt>
      <trkpt lat="46.06575" lon="6.38827">
        <ele>469</ele>
        <time>2012-07-14T07:53:01Z</time>
      </trkpt>
      <trkpt lat="46.06591" lon="6.38842">
        <ele>469</ele>
        <time>2012-07-14T07:53:02Z</time>
      </trkpt>
      <trkpt lat="46.06606" lon="6.38857">
        <ele>464</ele>
        <time>2012-07-14T07:53:03Z</time>
      </trkpt>
      <trkpt lat="46.06622" lon="6.38871">
        <ele>464</ele>
        <time>2012-07-14T07:53:04Z</time>
      </trkpt>
      <trkpt lat="46.06637" lon="6.38885">
        <ele>464</ele>
        <time>2012-07-14T07:53:05Z</time>
      </trkpt>
      <trkpt lat="46.06652" lon="6.38899">
        <ele>464</ele>
        <time>2012-07-14T07:53:06Z</time>
      </trkpt>
      <trkpt lat="46.06666" lon="6.38912">
        <ele>464</ele>
        <time>2012-07-14T07:53:07Z</time>
      </trkpt>
      <trkpt lat="46.06679" lon="6.38926">
        <ele>464</ele>
        <time>2012-07-14T07:53:08Z</time>
      </trkpt>
      <trkpt lat="46.06694" lon="6.3894">
        <ele>464</ele>
        <time>2012-07-14T07:53:09Z</time>
      </trkpt>
      <trkpt lat="46.06708" lon="6.38954">
        <ele>464</ele>
        <time>2012-07-14T07:53:10Z</time>
      </trkpt>
      <trkpt lat="46.06723" lon="6.38968">
        <ele>464</ele>
        <time>2012-07-14T07:53:11Z</time>
      </trkpt>
      <trkpt lat="46.06738" lon="6.38982">
        <ele>464</ele>
        <time>2012-07-14T07:53:12Z</time>
      </trkpt>
      <trkpt lat="46.06752" lon="6.38998">
        <ele>464</ele>
        <time>2012-07-14T07:53:13Z</time>
      </trkpt>
      <trkpt lat="46.06768" lon="6.39013">
        <ele>464</ele>
        <time>2012-07-14T07:53:14Z</time>
      </trkpt>
      <trkpt lat="46.06784" lon="6.39028">
        <ele>464</ele>
        <time>2012-07-14T07:53:15Z</time>
      </trkpt>
      <trkpt lat="46.068" lon="6.39044">
        <ele>464</ele>
        <time>2012-07-14T07:53:16Z</time>
      </trkpt>
      <trkpt lat="46.06816" lon="6.39061">
        <ele>464</ele>
        <time>2012-07-14T07:53:17Z</time>
      </trkpt>
      <trkpt lat="46.06831" lon="6.39077">
        <ele>464</ele>
        <time>2012-07-14T07:53:18Z</time>
      </trkpt>
      <trkpt lat="46.06846" lon="6.39093">
        <ele>464</ele>
        <time>2012-07-14T07:53:19Z</time>
      </trkpt>
      <trkpt lat="46.06862" lon="6.39107">
        <ele>464</ele>
        <time>2012-07-14T07:53:20Z</time>
      </trkpt>
      <trkpt lat="46.06878" lon="6.39123">
        <ele>464</ele>
        <time>2012-07-14T07:53:21Z</time>
      </trkpt>
      <trkpt lat="46.06894" lon="6.39139">
        <ele>464</ele>
        <time>2012-07-14T07:53:22Z</time>
      </trkpt>
      <trkpt lat="46.06909" lon="6.39154">
        <ele>464</ele>
        <time>2012-07-14T07:53:23Z</time>
      </trkpt>
      <trkpt lat="46.06924" lon="6.39169">
        <ele>464</ele>
        <time>2012-07-14T07:53:24Z</time>
      </trkpt>
      <trkpt lat="46.0694" lon="6.39184">
        <ele>464</ele>
        <time>2012-07-14T07:53:25Z</time>
      </trkpt>
      <trkpt lat="46.06955" lon="6.39199">
        <ele>464</ele>
        <time>2012-07-14T07:53:26Z</time>
      </trkpt>
      <trkpt lat="46.0697" lon="6.39213">
        <ele>459</ele>
        <time>2012-07-14T07:53:27Z</time>
      </trkpt>
      <trkpt lat="46.06985" lon="6.39228">
        <ele>459</ele>
        <time>2012-07-14T07:53:28Z</time>
      </trkpt>
      <trkpt lat="46.07" lon="6.39242">
        <ele>459</ele>
        <time>2012-07-14T07:53:29Z</time>
      </trkpt>
      <trkpt lat="46.07015" lon="6.39256">
        <ele>459</ele>
        <time>2012-07-14T07:53:30Z</time>
      </trkpt>
      <trkpt lat="46.07029" lon="6.39271">
        <ele>459</ele>
        <time>2012-07-14T07:53:31Z</time>
      </trkpt>
      <trkpt lat="46.07043" lon="6.39285">
        <ele>459</ele>
        <time>2012-07-14T07:53:32Z</time>
      </trkpt>
      <trkpt lat="46.07058" lon="6.393">
        <ele>459</ele>
        <time>2012-07-14T07:53:33Z</time>
      </trkpt>
      <trkpt lat="46.07073" lon="6.39314">
        <ele>459</ele>
        <time>2012-07-14T07:53:34Z</time>
      </trkpt>
      <trkpt lat="46.07088" lon="6.39328">
        <ele>459</ele>
        <time>2012-07-14T07:53:35Z</time>
      </trkpt>
      <trkpt lat="46.07103" lon="6.39343">
        <ele>459</ele>
        <time>2012-07-14T07:53:36Z</time>
      </trkpt>
      <trkpt lat="46.07118" lon="6.39357">
        <ele>459</ele>
        <time>2012-07-14T07:53:37Z</time>
      </trkpt>
      <trkpt lat="46.07133" lon="6.39371">
        <ele>459</ele>
        <time>2012-07-14T07:53:38Z</time>
      </trkpt>
      <trkpt lat="46.07148" lon="6.39388">
        <ele>459</ele>
        <time>2012-07-14T07:53:39Z</time>
      </trkpt>
      <trkpt lat="46.07165" lon="6.39403">
        <ele>459</ele>
        <time>2012-07-14T07:53:40Z</time>
      </trkpt>
      <trkpt lat="46.0718" lon="6.39419">
        <ele>459</ele>
        <time>2012-07-14T07:53:41Z</time>
      </trkpt>
      <trkpt lat="46.07196" lon="6.39434">
        <ele>459</ele>
        <time>2012-07-14T07:53:42Z</time>
      </trkpt>
      <trkpt lat="46.07211" lon="6.39448">
        <ele>459</ele>
        <time>2012-07-14T07:53:43Z</time>
      </trkpt>
      <trkpt lat="46.07224" lon="6.39461">
        <ele>459</ele>
        <time>2012-07-14T07:53:44Z</time>
      </trkpt>
      <trkpt lat="46.07236" lon="6.39474">
        <ele>459</ele>
        <time>2012-07-14T07:53:45Z</time>
      </trkpt>
      <trkpt lat="46.07248" lon="6.39486">
        <ele>459</ele>
        <time>2012-07-14T07:53:46Z</time>
      </trkpt>
      <trkpt lat="46.0726" lon="6.39495">
        <ele>459</ele>
        <time>2012-07-14T07:53:47Z</time>
      </trkpt>
      <trkpt lat="46.0727" lon="6.39505">
        <ele>459</ele>
        <time>2012-07-14T07:53:48Z</time>
      </trkpt>
      <trkpt lat="46.0728" lon="6.39513">
        <ele>459</ele>
        <time>2012-07-14T07:53:49Z</time>
      </trkpt>
      <trkpt lat="46.07288" lon="6.39522">
        <ele>459</ele>
        <time>2012-07-14T07:53:50Z</time>
      </trkpt>
      <trkpt lat="46.07302" lon="6.39536">
        <ele>459</ele>
        <time>2012-07-14T07:53:52Z</time>
      </trkpt>
      <trkpt lat="46.07312" lon="6.39544">
        <ele>459</ele>
        <time>2012-07-14T07:53:54Z</time>
      </trkpt>
      <trkpt lat="46.07318" lon="6.39526">
        <ele>459</ele>
        <time>2012-07-14T07:54:07Z</time>
      </trkpt>
      <trkpt lat="46.07321" lon="6.39497">
        <ele>459</ele>
        <time>2012-07-14T07:54:09Z</time>
      </trkpt>
      <trkpt lat="46.0732" lon="6.39478">
        <ele>459</ele>
        <time>2012-07-14T07:54:10Z</time>
      </trkpt>
      <trkpt lat="46.0732" lon="6.39459">
        <ele>459</ele>
        <time>2012-07-14T07:54:11Z</time>
      </trkpt>
      <trkpt lat="46.07318" lon="6.3944">
        <ele>459</ele>
        <time>2012-07-14T07:54:12Z</time>
      </trkpt>
      <trkpt lat="46.07317" lon="6.39422">
        <ele>459</ele>
        <time>2012-07-14T07:54:13Z</time>
      </trkpt>
      <trkpt lat="46.07316" lon="6.39406">
        <ele>459</ele>
        <time>2012-07-14T07:54:14Z</time>
      </trkpt>
      <trkpt lat="46.07315" lon="6.39389">
        <ele>459</ele>
        <time>2012-07-14T07:54:15Z</time>
      </trkpt>
      <trkpt lat="46.07313" lon="6.39372">
        <ele>459</ele>
        <time>2012-07-14T07:54:16Z</time>
      </trkpt>
      <trkpt lat="46.07312" lon="6.39357">
        <ele>459</ele>
        <time>2012-07-14T07:54:17Z</time>
      </trkpt>
      <trkpt lat="46.07311" lon="6.39342">
        <ele>459</ele>
        <time>2012-07-14T07:54:18Z</time>
      </trkpt>
      <trkpt lat="46.0731" lon="6.39327">
        <ele>459</ele>
        <time>2012-07-14T07:54:19Z</time>
      </trkpt>
      <trkpt lat="46.07312" lon="6.39303">
        <ele>459</ele>
        <time>2012-07-14T07:54:21Z</time>
      </trkpt>
      <trkpt lat="46.07317" lon="6.39284">
        <ele>459</ele>
        <time>2012-07-14T07:54:23Z</time>
      </trkpt>
      <trkpt lat="46.0732" lon="6.3927">
        <ele>459</ele>
        <time>2012-07-14T07:54:25Z</time>
      </trkpt>
      <trkpt lat="46.0732" lon="6.39246">
        <ele>459</ele>
        <time>2012-07-14T07:54:30Z</time>
      </trkpt>
      <trkpt lat="46.0733" lon="6.39242">
        <ele>432</ele>
        <time>2012-07-14T07:54:53Z</time>
      </trkpt>
      <trkpt lat="46.0732" lon="6.39244">
        <ele>432</ele>
        <time>2012-07-14T07:55:18Z</time>
      </trkpt>
      <trkpt lat="46.07313" lon="6.39234">
        <ele>432</ele>
        <time>2012-07-14T07:56:09Z</time>
      </trkpt>
      <trkpt lat="46.07312" lon="6.39221">
        <ele>462</ele>
        <time>2012-07-14T07:57:31Z</time>
      </trkpt>
      <trkpt lat="46.07303" lon="6.39213">
        <ele>462</ele>
        <time>2012-07-14T07:57:35Z</time>
      </trkpt>
      <trkpt lat="46.073" lon="6.39226">
        <ele>456</ele>
        <time>2012-07-14T07:57:42Z</time>
      </trkpt>
      <trkpt lat="46.073" lon="6.39245">
        <ele>456</ele>
        <time>2012-07-14T07:57:44Z</time>
      </trkpt>
      <trkpt lat="46.07302" lon="6.39271">
        <ele>456</ele>
        <time>2012-07-14T07:57:46Z</time>
      </trkpt>
      <trkpt lat="46.07303" lon="6.39285">
        <ele>456</ele>
        <time>2012-07-14T07:57:47Z</time>
      </trkpt>
      <trkpt lat="46.07305" lon="6.39301">
        <ele>456</ele>
        <time>2012-07-14T07:57:48Z</time>
      </trkpt>
      <trkpt lat="46.07306" lon="6.39318">
        <ele>456</ele>
        <time>2012-07-14T07:57:49Z</time>
      </trkpt>
      <trkpt lat="46.07307" lon="6.39338">
        <ele>456</ele>
        <time>2012-07-14T07:57:50Z</time>
      </trkpt>
      <trkpt lat="46.07309" lon="6.39359">
        <ele>456</ele>
        <time>2012-07-14T07:57:51Z</time>
      </trkpt>
      <trkpt lat="46.0731" lon="6.39383">
        <ele>456</ele>
        <time>2012-07-14T07:57:52Z</time>
      </trkpt>
      <trkpt lat="46.07312" lon="6.39407">
        <ele>456</ele>
        <time>2012-07-14T07:57:53Z</time>
      </trkpt>
      <trkpt lat="46.07313" lon="6.39432">
        <ele>456</ele>
        <time>2012-07-14T07:57:54Z</time>
      </trkpt>
      <trkpt lat="46.07315" lon="6.39453">
        <ele>456</ele>
        <time>2012-07-14T07:57:55Z</time>
      </trkpt>
      <trkpt lat="46.07315" lon="6.39474">
        <ele>456</ele>
        <time>2012-07-14T07:57:56Z</time>
      </trkpt>
      <trkpt lat="46.07316" lon="6.39492">
        <ele>456</ele>
        <time>2012-07-14T07:57:57Z</time>
      </trkpt>
      <trkpt lat="46.07315" lon="6.39507">
        <ele>456</ele>
        <time>2012-07-14T07:57:58Z</time>
      </trkpt>
      <trkpt lat="46.07313" lon="6.3953">
        <ele>456</ele>
        <time>2012-07-14T07:58:00Z</time>
      </trkpt>
      <trkpt lat="46.07313" lon="6.39546">
        <ele>456</ele>
        <time>2012-07-14T07:58:02Z</time>
      </trkpt>
      <trkpt lat="46.07322" lon="6.39558">
        <ele>456</ele>
        <time>2012-07-14T07:58:04Z</time>
      </trkpt>
      <trkpt lat="46.07338" lon="6.39573">
        <ele>456</ele>
        <time>2012-07-14T07:58:06Z</time>
      </trkpt>
      <trkpt lat="46.07347" lon="6.39581">
        <ele>456</ele>
        <time>2012-07-14T07:58:07Z</time>
      </trkpt>
      <trkpt lat="46.07358" lon="6.39591">
        <ele>456</ele>
        <time>2012-07-14T07:58:08Z</time>
      </trkpt>
      <trkpt lat="46.07368" lon="6.396">
        <ele>456</ele>
        <time>2012-07-14T07:58:09Z</time>
      </trkpt>
      <trkpt lat="46.07378" lon="6.3961">
        <ele>456</ele>
        <time>2012-07-14T07:58:10Z</time>
      </trkpt>
      <trkpt lat="46.07388" lon="6.39618">
        <ele>456</ele>
        <time>2012-07-14T07:58:11Z</time>
      </trkpt>
      <trkpt lat="46.07398" lon="6.39627">
        <ele>456</ele>
        <time>2012-07-14T07:58:12Z</time>
      </trkpt>
      <trkpt lat="46.0741" lon="6.39636">
        <ele>456</ele>
        <time>2012-07-14T07:58:13Z</time>
      </trkpt>
      <trkpt lat="46.0742" lon="6.39645">
        <ele>456</ele>
        <time>2012-07-14T07:58:14Z</time>
      </trkpt>
      <trkpt lat="46.0743" lon="6.39654">
        <ele>456</ele>
        <time>2012-07-14T07:58:15Z</time>
      </trkpt>
      <trkpt lat="46.07439" lon="6.39662">
        <ele>456</ele>
        <time>2012-07-14T07:58:16Z</time>
      </trkpt>
      <trkpt lat="46.07447" lon="6.39669">
        <ele>456</ele>
        <time>2012-07-14T07:58:17Z</time>
      </trkpt>
      <trkpt lat="46.07462" lon="6.39681">
        <ele>456</ele>
        <time>2012-07-14T07:58:19Z</time>
      </trkpt>
      <trkpt lat="46.07473" lon="6.39692">
        <ele>456</ele>
        <time>2012-07-14T07:58:21Z</time>
      </trkpt>
      <trkpt lat="46.0748" lon="6.39701">
        <ele>456</ele>
        <time>2012-07-14T07:58:23Z</time>
      </trkpt>
      <trkpt lat="46.0749" lon="6.39708">
        <ele>456</ele>
        <time>2012-07-14T07:58:27Z</time>
      </trkpt>
      <trkpt lat="46.07502" lon="6.39718">
        <ele>456</ele>
        <time>2012-07-14T07:58:29Z</time>
      </trkpt>
      <trkpt lat="46.07514" lon="6.39727">
        <ele>456</ele>
        <time>2012-07-14T07:58:31Z</time>
      </trkpt>
      <trkpt lat="46.07523" lon="6.39733">
        <ele>456</ele>
        <time>2012-07-14T07:58:33Z</time>
      </trkpt>
      <trkpt lat="46.07525" lon="6.3975">
        <ele>456</ele>
        <time>2012-07-14T07:58:37Z</time>
      </trkpt>
      <trkpt lat="46.07531" lon="6.39764">
        <ele>456</ele>
        <time>2012-07-14T07:58:43Z</time>
      </trkpt>
      <trkpt lat="46.0754" lon="6.39771">
        <ele>456</ele>
        <time>2012-07-14T07:58:45Z</time>
      </trkpt>
      <trkpt lat="46.07551" lon="6.39781">
        <ele>456</ele>
        <time>2012-07-14T07:58:47Z</time>
      </trkpt>
      <trkpt lat="46.07563" lon="6.39791">
        <ele>456</ele>
        <time>2012-07-14T07:58:49Z</time>
      </trkpt>
      <trkpt lat="46.07575" lon="6.39802">
        <ele>456</ele>
        <time>2012-07-14T07:58:51Z</time>
      </trkpt>
      <trkpt lat="46.07588" lon="6.39813">
        <ele>456</ele>
        <time>2012-07-14T07:58:53Z</time>
      </trkpt>
      <trkpt lat="46.07599" lon="6.39826">
        <ele>456</ele>
        <time>2012-07-14T07:58:55Z</time>
      </trkpt>
      <trkpt lat="46.07609" lon="6.39837">
        <ele>456</ele>
        <time>2012-07-14T07:58:57Z</time>
      </trkpt>
      <trkpt lat="46.0762" lon="6.39848">
        <ele>456</ele>
        <time>2012-07-14T07:58:59Z</time>
      </trkpt>
      <trkpt lat="46.07632" lon="6.39859">
        <ele>456</ele>
        <time>2012-07-14T07:59:01Z</time>
      </trkpt>
      <trkpt lat="46.07645" lon="6.3987">
        <ele>456</ele>
        <time>2012-07-14T07:59:03Z</time>
      </trkpt>
      <trkpt lat="46.0766" lon="6.39881">
        <ele>456</ele>
        <time>2012-07-14T07:59:05Z</time>
      </trkpt>
      <trkpt lat="46.07673" lon="6.39892">
        <ele>456</ele>
        <time>2012-07-14T07:59:07Z</time>
      </trkpt>
      <trkpt lat="46.07685" lon="6.399">
        <ele>451</ele>
        <time>2012-07-14T07:59:09Z</time>
      </trkpt>
      <trkpt lat="46.07697" lon="6.3991">
        <ele>451</ele>
        <time>2012-07-14T07:59:11Z</time>
      </trkpt>
      <trkpt lat="46.0771" lon="6.39919">
        <ele>451</ele>
        <time>2012-07-14T07:59:13Z</time>
      </trkpt>
      <trkpt lat="46.07722" lon="6.39925">
        <ele>451</ele>
        <time>2012-07-14T07:59:15Z</time>
      </trkpt>
      <trkpt lat="46.07732" lon="6.39931">
        <ele>456</ele>
        <time>2012-07-14T07:59:17Z</time>
      </trkpt>
      <trkpt lat="46.07744" lon="6.39937">
        <ele>456</ele>
        <time>2012-07-14T07:59:20Z</time>
      </trkpt>
      <trkpt lat="46.07754" lon="6.3994">
        <ele>456</ele>
        <time>2012-07-14T07:59:22Z</time>
      </trkpt>
      <trkpt lat="46.07767" lon="6.39946">
        <ele>456</ele>
        <time>2012-07-14T07:59:24Z</time>
      </trkpt>
      <trkpt lat="46.07777" lon="6.3995">
        <ele>456</ele>
        <time>2012-07-14T07:59:25Z</time>
      </trkpt>
      <trkpt lat="46.07794" lon="6.39956">
        <ele>456</ele>
        <time>2012-07-14T07:59:27Z</time>
      </trkpt>
      <trkpt lat="46.0781" lon="6.39963">
        <ele>456</ele>
        <time>2012-07-14T07:59:29Z</time>
      </trkpt>
      <trkpt lat="46.07825" lon="6.39968">
        <ele>456</ele>
        <time>2012-07-14T07:59:31Z</time>
      </trkpt>
      <trkpt lat="46.07837" lon="6.39974">
        <ele>456</ele>
        <time>2012-07-14T07:59:33Z</time>
      </trkpt>
      <trkpt lat="46.0785" lon="6.39975">
        <ele>456</ele>
        <time>2012-07-14T07:59:35Z</time>
      </trkpt>
      <trkpt lat="46.07864" lon="6.39978">
        <ele>456</ele>
        <time>2012-07-14T07:59:37Z</time>
      </trkpt>
      <trkpt lat="46.07877" lon="6.3998">
        <ele>451</ele>
        <time>2012-07-14T07:59:39Z</time>
      </trkpt>
      <trkpt lat="46.0789" lon="6.39983">
        <ele>451</ele>
        <time>2012-07-14T07:59:41Z</time>
      </trkpt>
      <trkpt lat="46.07905" lon="6.39983">
        <ele>451</ele>
        <time>2012-07-14T07:59:43Z</time>
      </trkpt>
      <trkpt lat="46.07917" lon="6.39981">
        <ele>451</ele>
        <time>2012-07-14T07:59:45Z</time>
      </trkpt>
      <trkpt lat="46.07927" lon="6.39978">
        <ele>451</ele>
        <time>2012-07-14T07:59:47Z</time>
      </trkpt>
      <trkpt lat="46.0793" lon="6.3999">
        <ele>451</ele>
        <time>2012-07-14T07:59:52Z</time>
      </trkpt>
      <trkpt lat="46.07927" lon="6.40011">
        <ele>451</ele>
        <time>2012-07-14T07:59:54Z</time>
      </trkpt>
      <trkpt lat="46.07925" lon="6.40025">
        <ele>451</ele>
        <time>2012-07-14T07:59:55Z</time>
      </trkpt>
      <trkpt lat="46.07924" lon="6.40043">
        <ele>451</ele>
        <time>2012-07-14T07:59:56Z</time>
      </trkpt>
      <trkpt lat="46.07921" lon="6.4006">
        <ele>451</ele>
        <time>2012-07-14T07:59:57Z</time>
      </trkpt>
      <trkpt lat="46.07919" lon="6.40077">
        <ele>451</ele>
        <time>2012-07-14T07:59:58Z</time>
      </trkpt>
      <trkpt lat="46.07917" lon="6.40092">
        <ele>451</ele>
        <time>2012-07-14T07:59:59Z</time>
      </trkpt>
      <trkpt lat="46.07915" lon="6.40106">
        <ele>451</ele>
        <time>2012-07-14T08:00:00Z</time>
      </trkpt>
      <trkpt lat="46.07912" lon="6.40121">
        <ele>451</ele>
        <time>2012-07-14T08:00:01Z</time>
      </trkpt>
      <trkpt lat="46.07909" lon="6.40143">
        <ele>451</ele>
        <time>2012-07-14T08:00:03Z</time>
      </trkpt>
      <trkpt lat="46.07907" lon="6.40159">
        <ele>451</ele>
        <time>2012-07-14T08:00:05Z</time>
      </trkpt>
      <trkpt lat="46.07905" lon="6.40176">
        <ele>445</ele>
        <time>2012-07-14T08:00:46Z</time>
      </trkpt>
      <trkpt lat="46.0791" lon="6.40188">
        <ele>445</ele>
        <time>2012-07-14T08:00:48Z</time>
      </trkpt>
      <trkpt lat="46.0792" lon="6.40193">
        <ele>445</ele>
        <time>2012-07-14T08:00:50Z</time>
      </trkpt>
      <trkpt lat="46.07937" lon="6.40191">
        <ele>445</ele>
        <time>2012-07-14T08:00:52Z</time>
      </trkpt>
      <trkpt lat="46.07949" lon="6.40189">
        <ele>445</ele>
        <time>2012-07-14T08:00:53Z</time>
      </trkpt>
      <trkpt lat="46.0796" lon="6.40188">
        <ele>445</ele>
        <time>2012-07-14T08:00:54Z</time>
      </trkpt>
      <trkpt lat="46.07972" lon="6.40187">
        <ele>445</ele>
        <time>2012-07-14T08:00:55Z</time>
      </trkpt>
      <trkpt lat="46.07983" lon="6.40187">
        <ele>445</ele>
        <time>2012-07-14T08:00:56Z</time>
      </trkpt>
      <trkpt lat="46.07993" lon="6.40188">
        <ele>445</ele>
        <time>2012-07-14T08:00:57Z</time>
      </trkpt>
      <trkpt lat="46.08002" lon="6.40192">
        <ele>445</ele>
        <time>2012-07-14T08:00:58Z</time>
      </trkpt>
      <trkpt lat="46.08019" lon="6.40203">
        <ele>445</ele>
        <time>2012-07-14T08:01:00Z</time>
      </trkpt>
      <trkpt lat="46.08027" lon="6.40209">
        <ele>445</ele>
        <time>2012-07-14T08:01:01Z</time>
      </trkpt>
      <trkpt lat="46.08037" lon="6.40215">
        <ele>445</ele>
        <time>2012-07-14T08:01:02Z</time>
      </trkpt>
      <trkpt lat="46.08047" lon="6.40223">
        <ele>445</ele>
        <time>2012-07-14T08:01:03Z</time>
      </trkpt>
      <trkpt lat="46.08057" lon="6.40232">
        <ele>445</ele>
        <time>2012-07-14T08:01:04Z</time>
      </trkpt>
      <trkpt lat="46.08067" lon="6.40242">
        <ele>445</ele>
        <time>2012-07-14T08:01:05Z</time>
      </trkpt>
      <trkpt lat="46.08079" lon="6.40253">
        <ele>445</ele>
        <time>2012-07-14T08:01:06Z</time>
      </trkpt>
      <trkpt lat="46.0809" lon="6.40263">
        <ele>445</ele>
        <time>2012-07-14T08:01:07Z</time>
      </trkpt>
      <trkpt lat="46.08101" lon="6.40274">
        <ele>445</ele>
        <time>2012-07-14T08:01:08Z</time>
      </trkpt>
      <trkpt lat="46.08111" lon="6.40287">
        <ele>445</ele>
        <time>2012-07-14T08:01:09Z</time>
      </trkpt>
      <trkpt lat="46.08121" lon="6.403">
        <ele>445</ele>
        <time>2012-07-14T08:01:10Z</time>
      </trkpt>
      <trkpt lat="46.0813" lon="6.40313">
        <ele>445</ele>
        <time>2012-07-14T08:01:11Z</time>
      </trkpt>
      <trkpt lat="46.08139" lon="6.40325">
        <ele>445</ele>
        <time>2012-07-14T08:01:12Z</time>
      </trkpt>
      <trkpt lat="46.08147" lon="6.40335">
        <ele>445</ele>
        <time>2012-07-14T08:01:13Z</time>
      </trkpt>
      <trkpt lat="46.08155" lon="6.40347">
        <ele>445</ele>
        <time>2012-07-14T08:01:14Z</time>
      </trkpt>
      <trkpt lat="46.08163" lon="6.40358">
        <ele>445</ele>
        <time>2012-07-14T08:01:15Z</time>
      </trkpt>
      <trkpt lat="46.0817" lon="6.40367">
        <ele>445</ele>
        <time>2012-07-14T08:01:16Z</time>
      </trkpt>
      <trkpt lat="46.08182" lon="6.40383">
        <ele>445</ele>
        <time>2012-07-14T08:01:18Z</time>
      </trkpt>
      <trkpt lat="46.08192" lon="6.40397">
        <ele>445</ele>
        <time>2012-07-14T08:01:20Z</time>
      </trkpt>
      <trkpt lat="46.08203" lon="6.40402">
        <ele>445</ele>
        <time>2012-07-14T08:01:22Z</time>
      </trkpt>
      <trkpt lat="46.08218" lon="6.40393">
        <ele>445</ele>
        <time>2012-07-14T08:01:24Z</time>
      </trkpt>
      <trkpt lat="46.08226" lon="6.40387">
        <ele>445</ele>
        <time>2012-07-14T08:01:25Z</time>
      </trkpt>
      <trkpt lat="46.08236" lon="6.40378">
        <ele>445</ele>
        <time>2012-07-14T08:01:26Z</time>
      </trkpt>
      <trkpt lat="46.08246" lon="6.40369">
        <ele>445</ele>
        <time>2012-07-14T08:01:27Z</time>
      </trkpt>
      <trkpt lat="46.08256" lon="6.4036">
        <ele>445</ele>
        <time>2012-07-14T08:01:28Z</time>
      </trkpt>
      <trkpt lat="46.08267" lon="6.4035">
        <ele>445</ele>
        <time>2012-07-14T08:01:29Z</time>
      </trkpt>
      <trkpt lat="46.08278" lon="6.40339">
        <ele>445</ele>
        <time>2012-07-14T08:01:30Z</time>
      </trkpt>
      <trkpt lat="46.08289" lon="6.40327">
        <ele>445</ele>
        <time>2012-07-14T08:01:31Z</time>
      </trkpt>
      <trkpt lat="46.08301" lon="6.40317">
        <ele>445</ele>
        <time>2012-07-14T08:01:32Z</time>
      </trkpt>
      <trkpt lat="46.08312" lon="6.40307">
        <ele>445</ele>
        <time>2012-07-14T08:01:33Z</time>
      </trkpt>
      <trkpt lat="46.08324" lon="6.40296">
        <ele>445</ele>
        <time>2012-07-14T08:01:34Z</time>
      </trkpt>
      <trkpt lat="46.08336" lon="6.40285">
        <ele>445</ele>
        <time>2012-07-14T08:01:35Z</time>
      </trkpt>
      <trkpt lat="46.08349" lon="6.40274">
        <ele>445</ele>
        <time>2012-07-14T08:01:36Z</time>
      </trkpt>
      <trkpt lat="46.08361" lon="6.40264">
        <ele>445</ele>
        <time>2012-07-14T08:01:37Z</time>
      </trkpt>
      <trkpt lat="46.08372" lon="6.40255">
        <ele>445</ele>
        <time>2012-07-14T08:01:38Z</time>
      </trkpt>
      <trkpt lat="46.08384" lon="6.40246">
        <ele>445</ele>
        <time>2012-07-14T08:01:39Z</time>
      </trkpt>
      <trkpt lat="46.08396" lon="6.40235">
        <ele>445</ele>
        <time>2012-07-14T08:01:40Z</time>
      </trkpt>
      <trkpt lat="46.08406" lon="6.40225">
        <ele>445</ele>
        <time>2012-07-14T08:01:41Z</time>
      </trkpt>
      <trkpt lat="46.08417" lon="6.40215">
        <ele>445</ele>
        <time>2012-07-14T08:01:42Z</time>
      </trkpt>
      <trkpt lat="46.08429" lon="6.40204">
        <ele>445</ele>
        <time>2012-07-14T08:01:43Z</time>
      </trkpt>
      <trkpt lat="46.08442" lon="6.40193">
        <ele>445</ele>
        <time>2012-07-14T08:01:44Z</time>
      </trkpt>
      <trkpt lat="46.08453" lon="6.40184">
        <ele>445</ele>
        <time>2012-07-14T08:01:45Z</time>
      </trkpt>
      <trkpt lat="46.08465" lon="6.40172">
        <ele>445</ele>
        <time>2012-07-14T08:01:46Z</time>
      </trkpt>
      <trkpt lat="46.08477" lon="6.40161">
        <ele>445</ele>
        <time>2012-07-14T08:01:47Z</time>
      </trkpt>
      <trkpt lat="46.0849" lon="6.4015">
        <ele>445</ele>
        <time>2012-07-14T08:01:48Z</time>
      </trkpt>
      <trkpt lat="46.08501" lon="6.4014">
        <ele>445</ele>
        <time>2012-07-14T08:01:49Z</time>
      </trkpt>
      <trkpt lat="46.08513" lon="6.4013">
        <ele>445</ele>
        <time>2012-07-14T08:01:50Z</time>
      </trkpt>
      <trkpt lat="46.08525" lon="6.40118">
        <ele>445</ele>
        <time>2012-07-14T08:01:51Z</time>
      </trkpt>
      <trkpt lat="46.08537" lon="6.40108">
        <ele>445</ele>
        <time>2012-07-14T08:01:52Z</time>
      </trkpt>
      <trkpt lat="46.08549" lon="6.40097">
        <ele>445</ele>
        <time>2012-07-14T08:01:53Z</time>
      </trkpt>
      <trkpt lat="46.08559" lon="6.40087">
        <ele>445</ele>
        <time>2012-07-14T08:01:54Z</time>
      </trkpt>
      <trkpt lat="46.08571" lon="6.40077">
        <ele>445</ele>
        <time>2012-07-14T08:01:55Z</time>
      </trkpt>
      <trkpt lat="46.08582" lon="6.40066">
        <ele>445</ele>
        <time>2012-07-14T08:01:56Z</time>
      </trkpt>
      <trkpt lat="46.08594" lon="6.40056">
        <ele>445</ele>
        <time>2012-07-14T08:01:57Z</time>
      </trkpt>
      <trkpt lat="46.08607" lon="6.40045">
        <ele>445</ele>
        <time>2012-07-14T08:01:58Z</time>
      </trkpt>
      <trkpt lat="46.08618" lon="6.40034">
        <ele>445</ele>
        <time>2012-07-14T08:01:59Z</time>
      </trkpt>
      <trkpt lat="46.0863" lon="6.4002">
        <ele>445</ele>
        <time>2012-07-14T08:02:00Z</time>
      </trkpt>
      <trkpt lat="46.08641" lon="6.40006">
        <ele>445</ele>
        <time>2012-07-14T08:02:01Z</time>
      </trkpt>
      <trkpt lat="46.08651" lon="6.3999">
        <ele>445</ele>
        <time>2012-07-14T08:02:02Z</time>
      </trkpt>
      <trkpt lat="46.08659" lon="6.39973">
        <ele>445</ele>
        <time>2012-07-14T08:02:03Z</time>
      </trkpt>
      <trkpt lat="46.08667" lon="6.39955">
        <ele>445</ele>
        <time>2012-07-14T08:02:04Z</time>
      </trkpt>
      <trkpt lat="46.08674" lon="6.39937">
        <ele>445</ele>
        <time>2012-07-14T08:02:05Z</time>
      </trkpt>
      <trkpt lat="46.08678" lon="6.39917">
        <ele>445</ele>
        <time>2012-07-14T08:02:06Z</time>
      </trkpt>
      <trkpt lat="46.08681" lon="6.39895">
        <ele>445</ele>
        <time>2012-07-14T08:02:07Z</time>
      </trkpt>
      <trkpt lat="46.08684" lon="6.39875">
        <ele>445</ele>
        <time>2012-07-14T08:02:08Z</time>
      </trkpt>
      <trkpt lat="46.08686" lon="6.39852">
        <ele>445</ele>
        <time>2012-07-14T08:02:09Z</time>
      </trkpt>
      <trkpt lat="46.08687" lon="6.3983">
        <ele>445</ele>
        <time>2012-07-14T08:02:10Z</time>
      </trkpt>
      <trkpt lat="46.08687" lon="6.39804">
        <ele>451</ele>
        <time>2012-07-14T08:02:11Z</time>
      </trkpt>
      <trkpt lat="46.08687" lon="6.39781">
        <ele>451</ele>
        <time>2012-07-14T08:02:12Z</time>
      </trkpt>
      <trkpt lat="46.08685" lon="6.39757">
        <ele>451</ele>
        <time>2012-07-14T08:02:13Z</time>
      </trkpt>
      <trkpt lat="46.08684" lon="6.39733">
        <ele>451</ele>
        <time>2012-07-14T08:02:14Z</time>
      </trkpt>
      <trkpt lat="46.08684" lon="6.3971">
        <ele>451</ele>
        <time>2012-07-14T08:02:15Z</time>
      </trkpt>
      <trkpt lat="46.08682" lon="6.39687">
        <ele>451</ele>
        <time>2012-07-14T08:02:16Z</time>
      </trkpt>
      <trkpt lat="46.08681" lon="6.39664">
        <ele>451</ele>
        <time>2012-07-14T08:02:17Z</time>
      </trkpt>
      <trkpt lat="46.08677" lon="6.39642">
        <ele>456</ele>
        <time>2012-07-14T08:02:18Z</time>
      </trkpt>
      <trkpt lat="46.08674" lon="6.39621">
        <ele>456</ele>
        <time>2012-07-14T08:02:19Z</time>
      </trkpt>
      <trkpt lat="46.08672" lon="6.39601">
        <ele>456</ele>
        <time>2012-07-14T08:02:20Z</time>
      </trkpt>
      <trkpt lat="46.08668" lon="6.39582">
        <ele>456</ele>
        <time>2012-07-14T08:02:21Z</time>
      </trkpt>
      <trkpt lat="46.08666" lon="6.39563">
        <ele>456</ele>
        <time>2012-07-14T08:02:22Z</time>
      </trkpt>
      <trkpt lat="46.08664" lon="6.39545">
        <ele>456</ele>
        <time>2012-07-14T08:02:23Z</time>
      </trkpt>
      <trkpt lat="46.08662" lon="6.39528">
        <ele>456</ele>
        <time>2012-07-14T08:02:24Z</time>
      </trkpt>
      <trkpt lat="46.08662" lon="6.39512">
        <ele>462</ele>
        <time>2012-07-14T08:02:25Z</time>
      </trkpt>
      <trkpt lat="46.08662" lon="6.39499">
        <ele>462</ele>
        <time>2012-07-14T08:02:26Z</time>
      </trkpt>
      <trkpt lat="46.08664" lon="6.39477">
        <ele>462</ele>
        <time>2012-07-14T08:02:28Z</time>
      </trkpt>
      <trkpt lat="46.08666" lon="6.39459">
        <ele>462</ele>
        <time>2012-07-14T08:02:30Z</time>
      </trkpt>
      <trkpt lat="46.08669" lon="6.39443">
        <ele>462</ele>
        <time>2012-07-14T08:02:32Z</time>
      </trkpt>
      <trkpt lat="46.08673" lon="6.39426">
        <ele>462</ele>
        <time>2012-07-14T08:02:35Z</time>
      </trkpt>
      <trkpt lat="46.08665" lon="6.39448">
        <ele>462</ele>
        <time>2012-07-14T08:02:41Z</time>
      </trkpt>
      <trkpt lat="46.08662" lon="6.39474">
        <ele>462</ele>
        <time>2012-07-14T08:02:43Z</time>
      </trkpt>
      <trkpt lat="46.0866" lon="6.395">
        <ele>462</ele>
        <time>2012-07-14T08:02:45Z</time>
      </trkpt>
      <trkpt lat="46.08659" lon="6.39521">
        <ele>462</ele>
        <time>2012-07-14T08:02:47Z</time>
      </trkpt>
      <trkpt lat="46.08661" lon="6.39536">
        <ele>462</ele>
        <time>2012-07-14T08:02:49Z</time>
      </trkpt>
      <trkpt lat="46.08667" lon="6.39545">
        <ele>462</ele>
        <time>2012-07-14T08:02:52Z</time>
      </trkpt>
      <trkpt lat="46.08681" lon="6.39539">
        <ele>456</ele>
        <time>2012-07-14T08:02:55Z</time>
      </trkpt>
      <trkpt lat="46.08695" lon="6.39529">
        <ele>456</ele>
        <time>2012-07-14T08:02:57Z</time>
      </trkpt>
      <trkpt lat="46.08704" lon="6.39521">
        <ele>456</ele>
        <time>2012-07-14T08:02:58Z</time>
      </trkpt>
      <trkpt lat="46.08712" lon="6.39513">
        <ele>456</ele>
        <time>2012-07-14T08:02:59Z</time>
      </trkpt>
      <trkpt lat="46.08723" lon="6.395">
        <ele>456</ele>
        <time>2012-07-14T08:03:01Z</time>
      </trkpt>
      <trkpt lat="46.08731" lon="6.39489">
        <ele>464</ele>
        <time>2012-07-14T08:03:03Z</time>
      </trkpt>
      <trkpt lat="46.08738" lon="6.39479">
        <ele>464</ele>
        <time>2012-07-14T08:03:05Z</time>
      </trkpt>
      <trkpt lat="46.08746" lon="6.39465">
        <ele>470</ele>
        <time>2012-07-14T08:03:07Z</time>
      </trkpt>
      <trkpt lat="46.08758" lon="6.39451">
        <ele>470</ele>
        <time>2012-07-14T08:03:09Z</time>
      </trkpt>
      <trkpt lat="46.08767" lon="6.39444">
        <ele>476</ele>
        <time>2012-07-14T08:03:11Z</time>
      </trkpt>
      <trkpt lat="46.08781" lon="6.39444">
        <ele>476</ele>
        <time>2012-07-14T08:03:13Z</time>
      </trkpt>
      <trkpt lat="46.08792" lon="6.39446">
        <ele>483</ele>
        <time>2012-07-14T08:03:15Z</time>
      </trkpt>
      <trkpt lat="46.08804" lon="6.39452">
        <ele>483</ele>
        <time>2012-07-14T08:03:18Z</time>
      </trkpt>
      <trkpt lat="46.08812" lon="6.39459">
        <ele>483</ele>
        <time>2012-07-14T08:03:20Z</time>
      </trkpt>
      <trkpt lat="46.08821" lon="6.39463">
        <ele>488</ele>
        <time>2012-07-14T08:03:22Z</time>
      </trkpt>
      <trkpt lat="46.08829" lon="6.39469">
        <ele>488</ele>
        <time>2012-07-14T08:03:24Z</time>
      </trkpt>
      <trkpt lat="46.08837" lon="6.39477">
        <ele>488</ele>
        <time>2012-07-14T08:03:27Z</time>
      </trkpt>
      <trkpt lat="46.08842" lon="6.39489">
        <ele>497</ele>
        <time>2012-07-14T08:03:31Z</time>
      </trkpt>
      <trkpt lat="46.08849" lon="6.395">
        <ele>503</ele>
        <time>2012-07-14T08:03:34Z</time>
      </trkpt>
      <trkpt lat="46.08849" lon="6.3952">
        <ele>511</ele>
        <time>2012-07-14T08:03:38Z</time>
      </trkpt>
      <trkpt lat="46.08843" lon="6.39534">
        <ele>511</ele>
        <time>2012-07-14T08:03:40Z</time>
      </trkpt>
      <trkpt lat="46.08841" lon="6.39549">
        <ele>511</ele>
        <time>2012-07-14T08:03:42Z</time>
      </trkpt>
      <trkpt lat="46.0885" lon="6.39557">
        <ele>519</ele>
        <time>2012-07-14T08:03:46Z</time>
      </trkpt>
      <trkpt lat="46.08861" lon="6.39551">
        <ele>519</ele>
        <time>2012-07-14T08:03:48Z</time>
      </trkpt>
      <trkpt lat="46.08869" lon="6.39563">
        <ele>530</ele>
        <time>2012-07-14T08:03:57Z</time>
      </trkpt>
      <trkpt lat="46.08877" lon="6.39569">
        <ele>530</ele>
        <time>2012-07-14T08:04:00Z</time>
      </trkpt>
      <trkpt lat="46.08872" lon="6.39558">
        <ele>545</ele>
        <time>2012-07-14T08:04:54Z</time>
      </trkpt>
      <trkpt lat="46.08867" lon="6.39547">
        <ele>562</ele>
        <time>2012-07-14T08:05:10Z</time>
      </trkpt>
      <trkpt lat="46.08875" lon="6.39553">
        <ele>552</ele>
        <time>2012-07-14T08:05:32Z</time>
      </trkpt>
      <trkpt lat="46.08877" lon="6.39565">
        <ele>538</ele>
        <time>2012-07-14T08:07:40Z</time>
      </trkpt>
      <trkpt lat="46.08869" lon="6.39559">
        <ele>538</ele>
        <time>2012-07-14T08:08:29Z</time>
      </trkpt>
      <trkpt lat="46.08877" lon="6.39568">
        <ele>524</ele>
        <time>2012-07-14T08:09:23Z</time>
      </trkpt>
      <trkpt lat="46.0888" lon="6.39556">
        <ele>524</ele>
        <time>2012-07-14T08:10:01Z</time>
      </trkpt>
      <trkpt lat="46.08885" lon="6.39539">
        <ele>529</ele>
        <time>2012-07-14T08:10:03Z</time>
      </trkpt>
      <trkpt lat="46.08891" lon="6.39515">
        <ele>529</ele>
        <time>2012-07-14T08:10:05Z</time>
      </trkpt>
      <trkpt lat="46.08894" lon="6.39502">
        <ele>529</ele>
        <time>2012-07-14T08:10:06Z</time>
      </trkpt>
      <trkpt lat="46.08897" lon="6.39487">
        <ele>529</ele>
        <time>2012-07-14T08:10:07Z</time>
      </trkpt>
      <trkpt lat="46.08901" lon="6.39473">
        <ele>529</ele>
        <time>2012-07-14T08:10:08Z</time>
      </trkpt>
      <trkpt lat="46.08903" lon="6.39458">
        <ele>529</ele>
        <time>2012-07-14T08:10:09Z</time>
      </trkpt>
      <trkpt lat="46.08906" lon="6.39443">
        <ele>523</ele>
        <time>2012-07-14T08:10:10Z</time>
      </trkpt>
      <trkpt lat="46.08909" lon="6.39427">
        <ele>523</ele>
        <time>2012-07-14T08:10:11Z</time>
      </trkpt>
      <trkpt lat="46.08912" lon="6.39411">
        <ele>523</ele>
        <time>2012-07-14T08:10:12Z</time>
      </trkpt>
      <trkpt lat="46.08917" lon="6.39397">
        <ele>518</ele>
        <time>2012-07-14T08:10:13Z</time>
      </trkpt>
      <trkpt lat="46.08921" lon="6.39381">
        <ele>518</ele>
        <time>2012-07-14T08:10:14Z</time>
      </trkpt>
      <trkpt lat="46.08925" lon="6.39365">
        <ele>518</ele>
        <time>2012-07-14T08:10:15Z</time>
      </trkpt>
      <trkpt lat="46.08927" lon="6.3935">
        <ele>518</ele>
        <time>2012-07-14T08:10:16Z</time>
      </trkpt>
      <trkpt lat="46.08929" lon="6.39336">
        <ele>518</ele>
        <time>2012-07-14T08:10:17Z</time>
      </trkpt>
      <trkpt lat="46.08931" lon="6.39322">
        <ele>518</ele>
        <time>2012-07-14T08:10:18Z</time>
      </trkpt>
      <trkpt lat="46.08934" lon="6.39297">
        <ele>518</ele>
        <time>2012-07-14T08:10:20Z</time>
      </trkpt>
      <trkpt lat="46.08937" lon="6.39284">
        <ele>518</ele>
        <time>2012-07-14T08:10:21Z</time>
      </trkpt>
      <trkpt lat="46.08939" lon="6.39267">
        <ele>526</ele>
        <time>2012-07-14T08:10:22Z</time>
      </trkpt>
      <trkpt lat="46.08942" lon="6.39252">
        <ele>526</ele>
        <time>2012-07-14T08:10:23Z</time>
      </trkpt>
      <trkpt lat="46.08946" lon="6.3923">
        <ele>534</ele>
        <time>2012-07-14T08:10:25Z</time>
      </trkpt>
      <trkpt lat="46.08953" lon="6.39208">
        <ele>534</ele>
        <time>2012-07-14T08:10:27Z</time>
      </trkpt>
      <trkpt lat="46.0896" lon="6.39188">
        <ele>534</ele>
        <time>2012-07-14T08:10:29Z</time>
      </trkpt>
      <trkpt lat="46.08964" lon="6.39168">
        <ele>541</ele>
        <time>2012-07-14T08:10:31Z</time>
      </trkpt>
      <trkpt lat="46.08968" lon="6.39155">
        <ele>541</ele>
        <time>2012-07-14T08:10:32Z</time>
      </trkpt>
      <trkpt lat="46.08981" lon="6.39132">
        <ele>548</ele>
        <time>2012-07-14T08:10:34Z</time>
      </trkpt>
      <trkpt lat="46.08986" lon="6.39119">
        <ele>548</ele>
        <time>2012-07-14T08:10:35Z</time>
      </trkpt>
      <trkpt lat="46.08991" lon="6.39107">
        <ele>548</ele>
        <time>2012-07-14T08:10:36Z</time>
      </trkpt>
      <trkpt lat="46.08997" lon="6.39086">
        <ele>554</ele>
        <time>2012-07-14T08:10:38Z</time>
      </trkpt>
      <trkpt lat="46.09004" lon="6.39068">
        <ele>554</ele>
        <time>2012-07-14T08:10:40Z</time>
      </trkpt>
      <trkpt lat="46.09011" lon="6.39048">
        <ele>554</ele>
        <time>2012-07-14T08:10:42Z</time>
      </trkpt>
      <trkpt lat="46.09014" lon="6.39034">
        <ele>554</ele>
        <time>2012-07-14T08:10:43Z</time>
      </trkpt>
      <trkpt lat="46.09016" lon="6.39018">
        <ele>554</ele>
        <time>2012-07-14T08:10:44Z</time>
      </trkpt>
      <trkpt lat="46.09017" lon="6.39003">
        <ele>560</ele>
        <time>2012-07-14T08:10:45Z</time>
      </trkpt>
      <trkpt lat="46.09017" lon="6.38988">
        <ele>560</ele>
        <time>2012-07-14T08:10:46Z</time>
      </trkpt>
      <trkpt lat="46.09014" lon="6.3896">
        <ele>560</ele>
        <time>2012-07-14T08:10:48Z</time>
      </trkpt>
      <trkpt lat="46.09013" lon="6.38946">
        <ele>560</ele>
        <time>2012-07-14T08:10:49Z</time>
      </trkpt>
      <trkpt lat="46.09014" lon="6.38926">
        <ele>565</ele>
        <time>2012-07-14T08:10:51Z</time>
      </trkpt>
      <trkpt lat="46.09025" lon="6.38915">
        <ele>559</ele>
        <time>2012-07-14T08:10:58Z</time>
      </trkpt>
      <trkpt lat="46.09032" lon="6.38898">
        <ele>559</ele>
        <time>2012-07-14T08:11:00Z</time>
      </trkpt>
      <trkpt lat="46.09037" lon="6.38878">
        <ele>559</ele>
        <time>2012-07-14T08:11:02Z</time>
      </trkpt>
      <trkpt lat="46.09041" lon="6.38845">
        <ele>559</ele>
        <time>2012-07-14T08:11:05Z</time>
      </trkpt>
      <trkpt lat="46.09044" lon="6.38828">
        <ele>559</ele>
        <time>2012-07-14T08:11:07Z</time>
      </trkpt>
      <trkpt lat="46.09039" lon="6.38814">
        <ele>559</ele>
        <time>2012-07-14T08:11:11Z</time>
      </trkpt>
      <trkpt lat="46.0904" lon="6.38796">
        <ele>559</ele>
        <time>2012-07-14T08:11:16Z</time>
      </trkpt>
      <trkpt lat="46.09041" lon="6.38777">
        <ele>559</ele>
        <time>2012-07-14T08:11:18Z</time>
      </trkpt>
      <trkpt lat="46.09044" lon="6.38755">
        <ele>559</ele>
        <time>2012-07-14T08:11:20Z</time>
      </trkpt>
      <trkpt lat="46.09046" lon="6.38735">
        <ele>559</ele>
        <time>2012-07-14T08:11:22Z</time>
      </trkpt>
      <trkpt lat="46.09046" lon="6.38714">
        <ele>559</ele>
        <time>2012-07-14T08:11:24Z</time>
      </trkpt>
      <trkpt lat="46.09049" lon="6.38694">
        <ele>559</ele>
        <time>2012-07-14T08:11:26Z</time>
      </trkpt>
      <trkpt lat="46.09056" lon="6.38676">
        <ele>559</ele>
        <time>2012-07-14T08:11:28Z</time>
      </trkpt>
      <trkpt lat="46.09065" lon="6.3866">
        <ele>559</ele>
        <time>2012-07-14T08:11:30Z</time>
      </trkpt>
      <trkpt lat="46.09075" lon="6.38643">
        <ele>559</ele>
        <time>2012-07-14T08:11:32Z</time>
      </trkpt>
      <trkpt lat="46.09084" lon="6.38627">
        <ele>559</ele>
        <time>2012-07-14T08:11:34Z</time>
      </trkpt>
      <trkpt lat="46.09087" lon="6.3861">
        <ele>553</ele>
        <time>2012-07-14T08:11:36Z</time>
      </trkpt>
      <trkpt lat="46.09086" lon="6.38594">
        <ele>553</ele>
        <time>2012-07-14T08:11:38Z</time>
      </trkpt>
      <trkpt lat="46.09084" lon="6.38579">
        <ele>553</ele>
        <time>2012-07-14T08:11:41Z</time>
      </trkpt>
      <trkpt lat="46.09086" lon="6.38561">
        <ele>553</ele>
        <time>2012-07-14T08:11:44Z</time>
      </trkpt>
      <trkpt lat="46.09094" lon="6.38549">
        <ele>553</ele>
        <time>2012-07-14T08:11:47Z</time>
      </trkpt>
      <trkpt lat="46.09106" lon="6.3855">
        <ele>553</ele>
        <time>2012-07-14T08:11:49Z</time>
      </trkpt>
      <trkpt lat="46.09119" lon="6.38549">
        <ele>553</ele>
        <time>2012-07-14T08:11:51Z</time>
      </trkpt>
      <trkpt lat="46.09134" lon="6.38545">
        <ele>553</ele>
        <time>2012-07-14T08:11:54Z</time>
      </trkpt>
      <trkpt lat="46.09147" lon="6.38538">
        <ele>558</ele>
        <time>2012-07-14T08:11:56Z</time>
      </trkpt>
      <trkpt lat="46.09158" lon="6.38532">
        <ele>558</ele>
        <time>2012-07-14T08:11:58Z</time>
      </trkpt>
      <trkpt lat="46.09169" lon="6.38522">
        <ele>558</ele>
        <time>2012-07-14T08:12:00Z</time>
      </trkpt>
      <trkpt lat="46.09179" lon="6.38506">
        <ele>567</ele>
        <time>2012-07-14T08:12:02Z</time>
      </trkpt>
      <trkpt lat="46.09187" lon="6.38488">
        <ele>567</ele>
        <time>2012-07-14T08:12:04Z</time>
      </trkpt>
      <trkpt lat="46.09199" lon="6.3847">
        <ele>575</ele>
        <time>2012-07-14T08:12:06Z</time>
      </trkpt>
      <trkpt lat="46.09217" lon="6.38462">
        <ele>575</ele>
        <time>2012-07-14T08:12:09Z</time>
      </trkpt>
      <trkpt lat="46.09227" lon="6.38454">
        <ele>581</ele>
        <time>2012-07-14T08:12:11Z</time>
      </trkpt>
      <trkpt lat="46.09231" lon="6.38437">
        <ele>587</ele>
        <time>2012-07-14T08:12:13Z</time>
      </trkpt>
      <trkpt lat="46.09237" lon="6.38425">
        <ele>587</ele>
        <time>2012-07-14T08:12:15Z</time>
      </trkpt>
      <trkpt lat="46.09245" lon="6.38417">
        <ele>587</ele>
        <time>2012-07-14T08:12:17Z</time>
      </trkpt>
      <trkpt lat="46.09259" lon="6.3841">
        <ele>593</ele>
        <time>2012-07-14T08:12:19Z</time>
      </trkpt>
      <trkpt lat="46.09269" lon="6.38408">
        <ele>593</ele>
        <time>2012-07-14T08:12:20Z</time>
      </trkpt>
      <trkpt lat="46.09285" lon="6.38398">
        <ele>593</ele>
        <time>2012-07-14T08:12:22Z</time>
      </trkpt>
      <trkpt lat="46.09294" lon="6.38392">
        <ele>593</ele>
        <time>2012-07-14T08:12:23Z</time>
      </trkpt>
      <trkpt lat="46.09302" lon="6.38385">
        <ele>593</ele>
        <time>2012-07-14T08:12:24Z</time>
      </trkpt>
      <trkpt lat="46.09316" lon="6.38373">
        <ele>600</ele>
        <time>2012-07-14T08:12:26Z</time>
      </trkpt>
      <trkpt lat="46.09327" lon="6.38362">
        <ele>600</ele>
        <time>2012-07-14T08:12:28Z</time>
      </trkpt>
      <trkpt lat="46.09343" lon="6.38342">
        <ele>600</ele>
        <time>2012-07-14T08:12:31Z</time>
      </trkpt>
      <trkpt lat="46.09352" lon="6.38325">
        <ele>608</ele>
        <time>2012-07-14T08:12:33Z</time>
      </trkpt>
      <trkpt lat="46.09361" lon="6.38307">
        <ele>608</ele>
        <time>2012-07-14T08:12:35Z</time>
      </trkpt>
      <trkpt lat="46.09367" lon="6.38288">
        <ele>615</ele>
        <time>2012-07-14T08:12:37Z</time>
      </trkpt>
      <trkpt lat="46.09372" lon="6.38273">
        <ele>615</ele>
        <time>2012-07-14T08:12:39Z</time>
      </trkpt>
      <trkpt lat="46.0938" lon="6.38263">
        <ele>620</ele>
        <time>2012-07-14T08:12:41Z</time>
      </trkpt>
      <trkpt lat="46.09386" lon="6.38251">
        <ele>620</ele>
        <time>2012-07-14T08:12:43Z</time>
      </trkpt>
      <trkpt lat="46.09392" lon="6.38238">
        <ele>627</ele>
        <time>2012-07-14T08:12:45Z</time>
      </trkpt>
      <trkpt lat="46.09399" lon="6.38223">
        <ele>627</ele>
        <time>2012-07-14T08:12:48Z</time>
      </trkpt>
      <trkpt lat="46.09407" lon="6.38214">
        <ele>627</ele>
        <time>2012-07-14T08:12:50Z</time>
      </trkpt>
      <trkpt lat="46.09418" lon="6.38199">
        <ele>627</ele>
        <time>2012-07-14T08:12:52Z</time>
      </trkpt>
      <trkpt lat="46.09429" lon="6.38183">
        <ele>632</ele>
        <time>2012-07-14T08:12:54Z</time>
      </trkpt>
      <trkpt lat="46.0944" lon="6.3817">
        <ele>632</ele>
        <time>2012-07-14T08:12:56Z</time>
      </trkpt>
      <trkpt lat="46.09452" lon="6.38159">
        <ele>632</ele>
        <time>2012-07-14T08:12:58Z</time>
      </trkpt>
      <trkpt lat="46.09463" lon="6.38146">
        <ele>632</ele>
        <time>2012-07-14T08:13:00Z</time>
      </trkpt>
      <trkpt lat="46.09473" lon="6.38136">
        <ele>632</ele>
        <time>2012-07-14T08:13:02Z</time>
      </trkpt>
      <trkpt lat="46.09482" lon="6.38125">
        <ele>632</ele>
        <time>2012-07-14T08:13:04Z</time>
      </trkpt>
      <trkpt lat="46.09496" lon="6.3811">
        <ele>632</ele>
        <time>2012-07-14T08:13:06Z</time>
      </trkpt>
      <trkpt lat="46.09504" lon="6.38093">
        <ele>632</ele>
        <time>2012-07-14T08:13:08Z</time>
      </trkpt>
      <trkpt lat="46.09509" lon="6.38076">
        <ele>632</ele>
        <time>2012-07-14T08:13:10Z</time>
      </trkpt>
      <trkpt lat="46.09514" lon="6.38059">
        <ele>632</ele>
        <time>2012-07-14T08:13:12Z</time>
      </trkpt>
      <trkpt lat="46.09521" lon="6.38044">
        <ele>632</ele>
        <time>2012-07-14T08:13:14Z</time>
      </trkpt>
      <trkpt lat="46.0953" lon="6.38028">
        <ele>632</ele>
        <time>2012-07-14T08:13:16Z</time>
      </trkpt>
      <trkpt lat="46.09536" lon="6.38013">
        <ele>632</ele>
        <time>2012-07-14T08:13:18Z</time>
      </trkpt>
      <trkpt lat="46.09542" lon="6.38003">
        <ele>632</ele>
        <time>2012-07-14T08:13:20Z</time>
      </trkpt>
      <trkpt lat="46.09553" lon="6.37989">
        <ele>632</ele>
        <time>2012-07-14T08:13:23Z</time>
      </trkpt>
      <trkpt lat="46.09558" lon="6.37975">
        <ele>638</ele>
        <time>2012-07-14T08:13:25Z</time>
      </trkpt>
      <trkpt lat="46.09562" lon="6.37961">
        <ele>638</ele>
        <time>2012-07-14T08:13:27Z</time>
      </trkpt>
      <trkpt lat="46.09567" lon="6.37949">
        <ele>638</ele>
        <time>2012-07-14T08:13:29Z</time>
      </trkpt>
      <trkpt lat="46.09574" lon="6.3794">
        <ele>631</ele>
        <time>2012-07-14T08:13:31Z</time>
      </trkpt>
      <trkpt lat="46.09583" lon="6.37934">
        <ele>631</ele>
        <time>2012-07-14T08:13:33Z</time>
      </trkpt>
      <trkpt lat="46.09597" lon="6.37927">
        <ele>631</ele>
        <time>2012-07-14T08:13:35Z</time>
      </trkpt>
      <trkpt lat="46.09606" lon="6.37922">
        <ele>631</ele>
        <time>2012-07-14T08:13:36Z</time>
      </trkpt>
      <trkpt lat="46.09616" lon="6.37914">
        <ele>631</ele>
        <time>2012-07-14T08:13:37Z</time>
      </trkpt>
      <trkpt lat="46.09624" lon="6.37905">
        <ele>631</ele>
        <time>2012-07-14T08:13:38Z</time>
      </trkpt>
      <trkpt lat="46.09633" lon="6.37896">
        <ele>631</ele>
        <time>2012-07-14T08:13:39Z</time>
      </trkpt>
      <trkpt lat="46.09643" lon="6.37887">
        <ele>631</ele>
        <time>2012-07-14T08:13:40Z</time>
      </trkpt>
      <trkpt lat="46.09652" lon="6.37878">
        <ele>631</ele>
        <time>2012-07-14T08:13:41Z</time>
      </trkpt>
      <trkpt lat="46.09661" lon="6.37869">
        <ele>631</ele>
        <time>2012-07-14T08:13:42Z</time>
      </trkpt>
      <trkpt lat="46.09671" lon="6.3786">
        <ele>637</ele>
        <time>2012-07-14T08:13:43Z</time>
      </trkpt>
      <trkpt lat="46.09679" lon="6.37854">
        <ele>637</ele>
        <time>2012-07-14T08:13:44Z</time>
      </trkpt>
      <trkpt lat="46.09689" lon="6.37846">
        <ele>637</ele>
        <time>2012-07-14T08:13:45Z</time>
      </trkpt>
      <trkpt lat="46.09697" lon="6.37838">
        <ele>637</ele>
        <time>2012-07-14T08:13:46Z</time>
      </trkpt>
      <trkpt lat="46.09706" lon="6.37828">
        <ele>637</ele>
        <time>2012-07-14T08:13:47Z</time>
      </trkpt>
      <trkpt lat="46.09714" lon="6.37819">
        <ele>642</ele>
        <time>2012-07-14T08:13:48Z</time>
      </trkpt>
      <trkpt lat="46.09722" lon="6.37812">
        <ele>642</ele>
        <time>2012-07-14T08:13:49Z</time>
      </trkpt>
      <trkpt lat="46.09732" lon="6.37807">
        <ele>642</ele>
        <time>2012-07-14T08:13:50Z</time>
      </trkpt>
      <trkpt lat="46.09742" lon="6.37803">
        <ele>642</ele>
        <time>2012-07-14T08:13:51Z</time>
      </trkpt>
      <trkpt lat="46.09754" lon="6.378">
        <ele>649</ele>
        <time>2012-07-14T08:13:52Z</time>
      </trkpt>
      <trkpt lat="46.09764" lon="6.378">
        <ele>649</ele>
        <time>2012-07-14T08:13:53Z</time>
      </trkpt>
      <trkpt lat="46.09782" lon="6.37797">
        <ele>654</ele>
        <time>2012-07-14T08:13:55Z</time>
      </trkpt>
      <trkpt lat="46.098" lon="6.37793">
        <ele>654</ele>
        <time>2012-07-14T08:13:57Z</time>
      </trkpt>
      <trkpt lat="46.09809" lon="6.3779">
        <ele>654</ele>
        <time>2012-07-14T08:13:58Z</time>
      </trkpt>
      <trkpt lat="46.09822" lon="6.37772">
        <ele>654</ele>
        <time>2012-07-14T08:14:00Z</time>
      </trkpt>
      <trkpt lat="46.09827" lon="6.3776">
        <ele>660</ele>
        <time>2012-07-14T08:14:01Z</time>
      </trkpt>
      <trkpt lat="46.09832" lon="6.37746">
        <ele>660</ele>
        <time>2012-07-14T08:14:02Z</time>
      </trkpt>
      <trkpt lat="46.09836" lon="6.37731">
        <ele>668</ele>
        <time>2012-07-14T08:14:03Z</time>
      </trkpt>
      <trkpt lat="46.0984" lon="6.37717">
        <ele>668</ele>
        <time>2012-07-14T08:14:04Z</time>
      </trkpt>
      <trkpt lat="46.09847" lon="6.37704">
        <ele>668</ele>
        <time>2012-07-14T08:14:05Z</time>
      </trkpt>
      <trkpt lat="46.09856" lon="6.37693">
        <ele>674</ele>
        <time>2012-07-14T08:14:06Z</time>
      </trkpt>
      <trkpt lat="46.09862" lon="6.37677">
        <ele>674</ele>
        <time>2012-07-14T08:14:07Z</time>
      </trkpt>
      <trkpt lat="46.09869" lon="6.37663">
        <ele>674</ele>
        <time>2012-07-14T08:14:08Z</time>
      </trkpt>
      <trkpt lat="46.09876" lon="6.37648">
        <ele>680</ele>
        <time>2012-07-14T08:14:09Z</time>
      </trkpt>
      <trkpt lat="46.09884" lon="6.37636">
        <ele>680</ele>
        <time>2012-07-14T08:14:10Z</time>
      </trkpt>
      <trkpt lat="46.09891" lon="6.37623">
        <ele>680</ele>
        <time>2012-07-14T08:14:11Z</time>
      </trkpt>
      <trkpt lat="46.09899" lon="6.37613">
        <ele>680</ele>
        <time>2012-07-14T08:14:12Z</time>
      </trkpt>
      <trkpt lat="46.09906" lon="6.37602">
        <ele>680</ele>
        <time>2012-07-14T08:14:13Z</time>
      </trkpt>
      <trkpt lat="46.09916" lon="6.37593">
        <ele>686</ele>
        <time>2012-07-14T08:14:14Z</time>
      </trkpt>
      <trkpt lat="46.09925" lon="6.37584">
        <ele>686</ele>
        <time>2012-07-14T08:14:15Z</time>
      </trkpt>
      <trkpt lat="46.09935" lon="6.37575">
        <ele>686</ele>
        <time>2012-07-14T08:14:16Z</time>
      </trkpt>
      <trkpt lat="46.09945" lon="6.37565">
        <ele>686</ele>
        <time>2012-07-14T08:14:17Z</time>
      </trkpt>
      <trkpt lat="46.09954" lon="6.37556">
        <ele>686</ele>
        <time>2012-07-14T08:14:18Z</time>
      </trkpt>
      <trkpt lat="46.09962" lon="6.37547">
        <ele>692</ele>
        <time>2012-07-14T08:14:19Z</time>
      </trkpt>
      <trkpt lat="46.09969" lon="6.37538">
        <ele>692</ele>
        <time>2012-07-14T08:14:20Z</time>
      </trkpt>
      <trkpt lat="46.09979" lon="6.37529">
        <ele>692</ele>
        <time>2012-07-14T08:14:22Z</time>
      </trkpt>
      <trkpt lat="46.0999" lon="6.3753">
        <ele>697</ele>
        <time>2012-07-14T08:14:24Z</time>
      </trkpt>
      <trkpt lat="46.09999" lon="6.3754">
        <ele>697</ele>
        <time>2012-07-14T08:14:26Z</time>
      </trkpt>
      <trkpt lat="46.10001" lon="6.37562">
        <ele>697</ele>
        <time>2012-07-14T08:14:28Z</time>
      </trkpt>
      <trkpt lat="46.09996" lon="6.37586">
        <ele>697</ele>
        <time>2012-07-14T08:14:30Z</time>
      </trkpt>
      <trkpt lat="46.09991" lon="6.37607">
        <ele>697</ele>
        <time>2012-07-14T08:14:32Z</time>
      </trkpt>
      <trkpt lat="46.09989" lon="6.37621">
        <ele>697</ele>
        <time>2012-07-14T08:14:33Z</time>
      </trkpt>
      <trkpt lat="46.09986" lon="6.37634">
        <ele>697</ele>
        <time>2012-07-14T08:14:34Z</time>
      </trkpt>
      <trkpt lat="46.09983" lon="6.37648">
        <ele>697</ele>
        <time>2012-07-14T08:14:35Z</time>
      </trkpt>
      <trkpt lat="46.0998" lon="6.37662">
        <ele>702</ele>
        <time>2012-07-14T08:14:36Z</time>
      </trkpt>
      <trkpt lat="46.09976" lon="6.37677">
        <ele>702</ele>
        <time>2012-07-14T08:14:37Z</time>
      </trkpt>
      <trkpt lat="46.09971" lon="6.37693">
        <ele>702</ele>
        <time>2012-07-14T08:14:38Z</time>
      </trkpt>
      <trkpt lat="46.09967" lon="6.37708">
        <ele>702</ele>
        <time>2012-07-14T08:14:39Z</time>
      </trkpt>
      <trkpt lat="46.09963" lon="6.37722">
        <ele>702</ele>
        <time>2012-07-14T08:14:40Z</time>
      </trkpt>
      <trkpt lat="46.09959" lon="6.37736">
        <ele>708</ele>
        <time>2012-07-14T08:14:41Z</time>
      </trkpt>
      <trkpt lat="46.09957" lon="6.37759">
        <ele>708</ele>
        <time>2012-07-14T08:14:43Z</time>
      </trkpt>
      <trkpt lat="46.09956" lon="6.37773">
        <ele>708</ele>
        <time>2012-07-14T08:14:44Z</time>
      </trkpt>
      <trkpt lat="46.09955" lon="6.37797">
        <ele>719</ele>
        <time>2012-07-14T08:14:46Z</time>
      </trkpt>
      <trkpt lat="46.09952" lon="6.37811">
        <ele>719</ele>
        <time>2012-07-14T08:14:47Z</time>
      </trkpt>
      <trkpt lat="46.09947" lon="6.37824">
        <ele>725</ele>
        <time>2012-07-14T08:14:48Z</time>
      </trkpt>
      <trkpt lat="46.09942" lon="6.37836">
        <ele>725</ele>
        <time>2012-07-14T08:14:49Z</time>
      </trkpt>
      <trkpt lat="46.09937" lon="6.37849">
        <ele>725</ele>
        <time>2012-07-14T08:14:50Z</time>
      </trkpt>
      <trkpt lat="46.09929" lon="6.3786">
        <ele>733</ele>
        <time>2012-07-14T08:14:51Z</time>
      </trkpt>
      <trkpt lat="46.09924" lon="6.37873">
        <ele>733</ele>
        <time>2012-07-14T08:14:52Z</time>
      </trkpt>
      <trkpt lat="46.09919" lon="6.37886">
        <ele>733</ele>
        <time>2012-07-14T08:14:53Z</time>
      </trkpt>
      <trkpt lat="46.09915" lon="6.37897">
        <ele>733</ele>
        <time>2012-07-14T08:14:54Z</time>
      </trkpt>
      <trkpt lat="46.09912" lon="6.37912">
        <ele>733</ele>
        <time>2012-07-14T08:14:55Z</time>
      </trkpt>
      <trkpt lat="46.0991" lon="6.37924">
        <ele>733</ele>
        <time>2012-07-14T08:14:56Z</time>
      </trkpt>
      <trkpt lat="46.0991" lon="6.37938">
        <ele>733</ele>
        <time>2012-07-14T08:14:57Z</time>
      </trkpt>
      <trkpt lat="46.09912" lon="6.37963">
        <ele>733</ele>
        <time>2012-07-14T08:14:59Z</time>
      </trkpt>
      <trkpt lat="46.09916" lon="6.37975">
        <ele>733</ele>
        <time>2012-07-14T08:15:00Z</time>
      </trkpt>
      <trkpt lat="46.09923" lon="6.37997">
        <ele>733</ele>
        <time>2012-07-14T08:15:02Z</time>
      </trkpt>
      <trkpt lat="46.09926" lon="6.38017">
        <ele>733</ele>
        <time>2012-07-14T08:15:04Z</time>
      </trkpt>
      <trkpt lat="46.09924" lon="6.38034">
        <ele>733</ele>
        <time>2012-07-14T08:15:06Z</time>
      </trkpt>
      <trkpt lat="46.09916" lon="6.38048">
        <ele>733</ele>
        <time>2012-07-14T08:15:08Z</time>
      </trkpt>
      <trkpt lat="46.09906" lon="6.38058">
        <ele>733</ele>
        <time>2012-07-14T08:15:10Z</time>
      </trkpt>
      <trkpt lat="46.09895" lon="6.38069">
        <ele>733</ele>
        <time>2012-07-14T08:15:12Z</time>
      </trkpt>
      <trkpt lat="46.09883" lon="6.38077">
        <ele>738</ele>
        <time>2012-07-14T08:15:14Z</time>
      </trkpt>
      <trkpt lat="46.0987" lon="6.38088">
        <ele>738</ele>
        <time>2012-07-14T08:15:16Z</time>
      </trkpt>
      <trkpt lat="46.09859" lon="6.381">
        <ele>738</ele>
        <time>2012-07-14T08:15:18Z</time>
      </trkpt>
      <trkpt lat="46.09858" lon="6.3812">
        <ele>744</ele>
        <time>2012-07-14T08:15:20Z</time>
      </trkpt>
      <trkpt lat="46.09859" lon="6.38142">
        <ele>744</ele>
        <time>2012-07-14T08:15:22Z</time>
      </trkpt>
      <trkpt lat="46.09849" lon="6.38161">
        <ele>750</ele>
        <time>2012-07-14T08:15:24Z</time>
      </trkpt>
      <trkpt lat="46.09836" lon="6.38174">
        <ele>750</ele>
        <time>2012-07-14T08:15:26Z</time>
      </trkpt>
      <trkpt lat="46.09827" lon="6.38181">
        <ele>750</ele>
        <time>2012-07-14T08:15:27Z</time>
      </trkpt>
      <trkpt lat="46.09819" lon="6.38187">
        <ele>756</ele>
        <time>2012-07-14T08:15:28Z</time>
      </trkpt>
      <trkpt lat="46.09811" lon="6.38194">
        <ele>756</ele>
        <time>2012-07-14T08:15:29Z</time>
      </trkpt>
      <trkpt lat="46.09802" lon="6.38201">
        <ele>756</ele>
        <time>2012-07-14T08:15:30Z</time>
      </trkpt>
      <trkpt lat="46.09793" lon="6.38208">
        <ele>756</ele>
        <time>2012-07-14T08:15:31Z</time>
      </trkpt>
      <trkpt lat="46.09782" lon="6.38213">
        <ele>756</ele>
        <time>2012-07-14T08:15:32Z</time>
      </trkpt>
      <trkpt lat="46.09767" lon="6.38222">
        <ele>763</ele>
        <time>2012-07-14T08:15:34Z</time>
      </trkpt>
      <trkpt lat="46.09753" lon="6.38237">
        <ele>763</ele>
        <time>2012-07-14T08:15:36Z</time>
      </trkpt>
      <trkpt lat="46.0974" lon="6.38251">
        <ele>763</ele>
        <time>2012-07-14T08:15:38Z</time>
      </trkpt>
      <trkpt lat="46.09732" lon="6.38266">
        <ele>769</ele>
        <time>2012-07-14T08:15:40Z</time>
      </trkpt>
      <trkpt lat="46.09732" lon="6.38284">
        <ele>769</ele>
        <time>2012-07-14T08:15:42Z</time>
      </trkpt>
      <trkpt lat="46.09734" lon="6.38299">
        <ele>769</ele>
        <time>2012-07-14T08:15:44Z</time>
      </trkpt>
      <trkpt lat="46.09741" lon="6.38313">
        <ele>769</ele>
        <time>2012-07-14T08:15:46Z</time>
      </trkpt>
      <trkpt lat="46.09752" lon="6.3833">
        <ele>769</ele>
        <time>2012-07-14T08:15:48Z</time>
      </trkpt>
      <trkpt lat="46.09758" lon="6.38347">
        <ele>769</ele>
        <time>2012-07-14T08:15:50Z</time>
      </trkpt>
      <trkpt lat="46.09761" lon="6.38361">
        <ele>769</ele>
        <time>2012-07-14T08:15:52Z</time>
      </trkpt>
      <trkpt lat="46.09757" lon="6.38376">
        <ele>769</ele>
        <time>2012-07-14T08:16:54Z</time>
      </trkpt>
      <trkpt lat="46.09752" lon="6.3839">
        <ele>769</ele>
        <time>2012-07-14T08:16:56Z</time>
      </trkpt>
      <trkpt lat="46.09746" lon="6.38399">
        <ele>769</ele>
        <time>2012-07-14T08:16:59Z</time>
      </trkpt>
      <trkpt lat="46.09744" lon="6.38416">
        <ele>775</ele>
        <time>2012-07-14T08:17:02Z</time>
      </trkpt>
      <trkpt lat="46.09746" lon="6.38434">
        <ele>775</ele>
        <time>2012-07-14T08:17:05Z</time>
      </trkpt>
      <trkpt lat="46.09746" lon="6.38449">
        <ele>775</ele>
        <time>2012-07-14T08:17:07Z</time>
      </trkpt>
      <trkpt lat="46.09746" lon="6.38462">
        <ele>775</ele>
        <time>2012-07-14T08:17:09Z</time>
      </trkpt>
      <trkpt lat="46.09747" lon="6.38476">
        <ele>781</ele>
        <time>2012-07-14T08:17:11Z</time>
      </trkpt>
      <trkpt lat="46.09749" lon="6.38489">
        <ele>781</ele>
        <time>2012-07-14T08:17:13Z</time>
      </trkpt>
      <trkpt lat="46.09755" lon="6.38506">
        <ele>787</ele>
        <time>2012-07-14T08:17:16Z</time>
      </trkpt>
      <trkpt lat="46.09762" lon="6.38516">
        <ele>787</ele>
        <time>2012-07-14T08:17:18Z</time>
      </trkpt>
      <trkpt lat="46.0977" lon="6.38527">
        <ele>787</ele>
        <time>2012-07-14T08:17:20Z</time>
      </trkpt>
      <trkpt lat="46.09777" lon="6.38536">
        <ele>796</ele>
        <time>2012-07-14T08:17:22Z</time>
      </trkpt>
      <trkpt lat="46.0979" lon="6.38548">
        <ele>796</ele>
        <time>2012-07-14T08:17:25Z</time>
      </trkpt>
      <trkpt lat="46.09799" lon="6.38558">
        <ele>796</ele>
        <time>2012-07-14T08:17:27Z</time>
      </trkpt>
      <trkpt lat="46.09809" lon="6.3857">
        <ele>796</ele>
        <time>2012-07-14T08:17:29Z</time>
      </trkpt>
      <trkpt lat="46.09824" lon="6.38582">
        <ele>796</ele>
        <time>2012-07-14T08:17:31Z</time>
      </trkpt>
      <trkpt lat="46.09834" lon="6.38592">
        <ele>796</ele>
        <time>2012-07-14T08:17:33Z</time>
      </trkpt>
      <trkpt lat="46.09842" lon="6.38604">
        <ele>804</ele>
        <time>2012-07-14T08:17:35Z</time>
      </trkpt>
      <trkpt lat="46.09852" lon="6.38617">
        <ele>804</ele>
        <time>2012-07-14T08:17:37Z</time>
      </trkpt>
      <trkpt lat="46.09862" lon="6.3863">
        <ele>809</ele>
        <time>2012-07-14T08:17:39Z</time>
      </trkpt>
      <trkpt lat="46.09872" lon="6.38638">
        <ele>818</ele>
        <time>2012-07-14T08:17:42Z</time>
      </trkpt>
      <trkpt lat="46.09882" lon="6.38644">
        <ele>823</ele>
        <time>2012-07-14T08:17:44Z</time>
      </trkpt>
      <trkpt lat="46.09892" lon="6.38647">
        <ele>823</ele>
        <time>2012-07-14T08:17:46Z</time>
      </trkpt>
      <trkpt lat="46.099" lon="6.38658">
        <ele>833</ele>
        <time>2012-07-14T08:17:49Z</time>
      </trkpt>
      <trkpt lat="46.09904" lon="6.38672">
        <ele>833</ele>
        <time>2012-07-14T08:17:51Z</time>
      </trkpt>
      <trkpt lat="46.09914" lon="6.38684">
        <ele>842</ele>
        <time>2012-07-14T08:17:53Z</time>
      </trkpt>
      <trkpt lat="46.09922" lon="6.38695">
        <ele>842</ele>
        <time>2012-07-14T08:17:55Z</time>
      </trkpt>
      <trkpt lat="46.09931" lon="6.38694">
        <ele>842</ele>
        <time>2012-07-14T08:18:08Z</time>
      </trkpt>
      <trkpt lat="46.09939" lon="6.38701">
        <ele>848</ele>
        <time>2012-07-14T08:18:16Z</time>
      </trkpt>
      <trkpt lat="46.09948" lon="6.38709">
        <ele>854</ele>
        <time>2012-07-14T08:18:21Z</time>
      </trkpt>
      <trkpt lat="46.09959" lon="6.38719">
        <ele>854</ele>
        <time>2012-07-14T08:18:24Z</time>
      </trkpt>
      <trkpt lat="46.09967" lon="6.38732">
        <ele>854</ele>
        <time>2012-07-14T08:18:26Z</time>
      </trkpt>
      <trkpt lat="46.09978" lon="6.38742">
        <ele>861</ele>
        <time>2012-07-14T08:18:28Z</time>
      </trkpt>
      <trkpt lat="46.09992" lon="6.38752">
        <ele>861</ele>
        <time>2012-07-14T08:18:31Z</time>
      </trkpt>
      <trkpt lat="46.10002" lon="6.38755">
        <ele>861</ele>
        <time>2012-07-14T08:18:33Z</time>
      </trkpt>
      <trkpt lat="46.10011" lon="6.38762">
        <ele>867</ele>
        <time>2012-07-14T08:18:35Z</time>
      </trkpt>
      <trkpt lat="46.10023" lon="6.38771">
        <ele>867</ele>
        <time>2012-07-14T08:18:38Z</time>
      </trkpt>
      <trkpt lat="46.10033" lon="6.38776">
        <ele>872</ele>
        <time>2012-07-14T08:18:40Z</time>
      </trkpt>
      <trkpt lat="46.10045" lon="6.38788">
        <ele>872</ele>
        <time>2012-07-14T08:18:43Z</time>
      </trkpt>
      <trkpt lat="46.10054" lon="6.38798">
        <ele>872</ele>
        <time>2012-07-14T08:18:45Z</time>
      </trkpt>
      <trkpt lat="46.10063" lon="6.38808">
        <ele>877</ele>
        <time>2012-07-14T08:18:47Z</time>
      </trkpt>
      <trkpt lat="46.10071" lon="6.38815">
        <ele>877</ele>
        <time>2012-07-14T08:18:49Z</time>
      </trkpt>
      <trkpt lat="46.10079" lon="6.38809">
        <ele>888</ele>
        <time>2012-07-14T08:19:07Z</time>
      </trkpt>
      <trkpt lat="46.1007" lon="6.38809">
        <ele>888</ele>
        <time>2012-07-14T08:19:26Z</time>
      </trkpt>
      <trkpt lat="46.10062" lon="6.38817">
        <ele>895</ele>
        <time>2012-07-14T08:19:56Z</time>
      </trkpt>
      <trkpt lat="46.10071" lon="6.38818">
        <ele>895</ele>
        <time>2012-07-14T08:20:23Z</time>
      </trkpt>
      <trkpt lat="46.1008" lon="6.38815">
        <ele>878</ele>
        <time>2012-07-14T08:20:44Z</time>
      </trkpt>
      <trkpt lat="46.10074" lon="6.38804">
        <ele>891</ele>
        <time>2012-07-14T08:21:16Z</time>
      </trkpt>
      <trkpt lat="46.10067" lon="6.38793">
        <ele>898</ele>
        <time>2012-07-14T08:21:24Z</time>
      </trkpt>
      <trkpt lat="46.10077" lon="6.38796">
        <ele>882</ele>
        <time>2012-07-14T08:23:21Z</time>
      </trkpt>
      <trkpt lat="46.10078" lon="6.38809">
        <ele>895</ele>
        <time>2012-07-14T08:24:23Z</time>
      </trkpt>
      <trkpt lat="46.10073" lon="6.38821">
        <ele>895</ele>
        <time>2012-07-14T08:25:13Z</time>
      </trkpt>
      <trkpt lat="46.10072" lon="6.38807">
        <ele>915</ele>
        <time>2012-07-14T08:25:33Z</time>
      </trkpt>
      <trkpt lat="46.1007" lon="6.38821">
        <ele>887</ele>
        <time>2012-07-14T08:26:32Z</time>
      </trkpt>
      <trkpt lat="46.10071" lon="6.38807">
        <ele>887</ele>
        <time>2012-07-14T08:27:52Z</time>
      </trkpt>
      <trkpt lat="46.10066" lon="6.38819">
        <ele>887</ele>
        <time>2012-07-14T08:29:46Z</time>
      </trkpt>
      <trkpt lat="46.10071" lon="6.38806">
        <ele>894</ele>
        <time>2012-07-14T08:30:22Z</time>
      </trkpt>
      <trkpt lat="46.10077" lon="6.38817">
        <ele>894</ele>
        <time>2012-07-14T08:32:24Z</time>
      </trkpt>
      <trkpt lat="46.10078" lon="6.38832">
        <ele>907</ele>
        <time>2012-07-14T08:33:36Z</time>
      </trkpt>
      <trkpt lat="46.10084" lon="6.38841">
        <ele>907</ele>
        <time>2012-07-14T08:33:48Z</time>
      </trkpt>
      <trkpt lat="46.10091" lon="6.38851">
        <ele>907</ele>
        <time>2012-07-14T08:33:53Z</time>
      </trkpt>
      <trkpt lat="46.10099" lon="6.38859">
        <ele>913</ele>
        <time>2012-07-14T08:34:08Z</time>
      </trkpt>
      <trkpt lat="46.10106" lon="6.38869">
        <ele>913</ele>
        <time>2012-07-14T08:34:20Z</time>
      </trkpt>
      <trkpt lat="46.10101" lon="6.38858">
        <ele>913</ele>
        <time>2012-07-14T08:35:29Z</time>
      </trkpt>
      <trkpt lat="46.10107" lon="6.38868">
        <ele>905</ele>
        <time>2012-07-14T08:35:49Z</time>
      </trkpt>
      <trkpt lat="46.10116" lon="6.38873">
        <ele>927</ele>
        <time>2012-07-14T08:38:39Z</time>
      </trkpt>
      <trkpt lat="46.10107" lon="6.38875">
        <ele>927</ele>
        <time>2012-07-14T08:39:14Z</time>
      </trkpt>
      <trkpt lat="46.10116" lon="6.38876">
        <ele>911</ele>
        <time>2012-07-14T08:39:54Z</time>
      </trkpt>
      <trkpt lat="46.10112" lon="6.38863">
        <ele>918</ele>
        <time>2012-07-14T08:40:17Z</time>
      </trkpt>
      <trkpt lat="46.10105" lon="6.38853">
        <ele>940</ele>
        <time>2012-07-14T08:40:36Z</time>
      </trkpt>
      <trkpt lat="46.10109" lon="6.38867">
        <ele>940</ele>
        <time>2012-07-14T08:41:03Z</time>
      </trkpt>
      <trkpt lat="46.101" lon="6.3886">
        <ele>910</ele>
        <time>2012-07-14T08:45:10Z</time>
      </trkpt>
      <trkpt lat="46.10109" lon="6.38864">
        <ele>925</ele>
        <time>2012-07-14T08:45:55Z</time>
      </trkpt>
      <trkpt lat="46.10113" lon="6.38851">
        <ele>920</ele>
        <time>2012-07-14T08:47:10Z</time>
      </trkpt>
      <trkpt lat="46.10104" lon="6.38854">
        <ele>920</ele>
        <time>2012-07-14T08:47:40Z</time>
      </trkpt>
      <trkpt lat="46.10106" lon="6.38868">
        <ele>920</ele>
        <time>2012-07-14T08:49:13Z</time>
      </trkpt>
      <trkpt lat="46.10112" lon="6.38879">
        <ele>920</ele>
        <time>2012-07-14T08:49:26Z</time>
      </trkpt>
      <trkpt lat="46.1012" lon="6.38889">
        <ele>920</ele>
        <time>2012-07-14T08:49:32Z</time>
      </trkpt>
      <trkpt lat="46.10131" lon="6.38896">
        <ele>920</ele>
        <time>2012-07-14T08:50:12Z</time>
      </trkpt>
      <trkpt lat="46.10141" lon="6.3891">
        <ele>920</ele>
        <time>2012-07-14T08:50:14Z</time>
      </trkpt>
      <trkpt lat="46.1015" lon="6.38923">
        <ele>920</ele>
        <time>2012-07-14T08:50:16Z</time>
      </trkpt>
      <trkpt lat="46.1016" lon="6.38938">
        <ele>920</ele>
        <time>2012-07-14T08:50:18Z</time>
      </trkpt>
      <trkpt lat="46.10169" lon="6.3895">
        <ele>920</ele>
        <time>2012-07-14T08:50:20Z</time>
      </trkpt>
      <trkpt lat="46.10174" lon="6.38962">
        <ele>920</ele>
        <time>2012-07-14T08:50:22Z</time>
      </trkpt>
      <trkpt lat="46.1018" lon="6.38978">
        <ele>928</ele>
        <time>2012-07-14T08:50:24Z</time>
      </trkpt>
      <trkpt lat="46.10185" lon="6.38997">
        <ele>928</ele>
        <time>2012-07-14T08:50:26Z</time>
      </trkpt>
      <trkpt lat="46.10188" lon="6.39017">
        <ele>933</ele>
        <time>2012-07-14T08:50:28Z</time>
      </trkpt>
      <trkpt lat="46.10194" lon="6.39034">
        <ele>933</ele>
        <time>2012-07-14T08:50:30Z</time>
      </trkpt>
      <trkpt lat="46.10204" lon="6.39051">
        <ele>933</ele>
        <time>2012-07-14T08:50:32Z</time>
      </trkpt>
      <trkpt lat="46.10218" lon="6.3907">
        <ele>933</ele>
        <time>2012-07-14T08:50:34Z</time>
      </trkpt>
      <trkpt lat="46.10225" lon="6.39079">
        <ele>933</ele>
        <time>2012-07-14T08:50:35Z</time>
      </trkpt>
      <trkpt lat="46.10232" lon="6.39088">
        <ele>933</ele>
        <time>2012-07-14T08:50:36Z</time>
      </trkpt>
      <trkpt lat="46.10244" lon="6.39105">
        <ele>940</ele>
        <time>2012-07-14T08:50:38Z</time>
      </trkpt>
      <trkpt lat="46.10252" lon="6.39127">
        <ele>940</ele>
        <time>2012-07-14T08:50:41Z</time>
      </trkpt>
      <trkpt lat="46.10252" lon="6.39144">
        <ele>940</ele>
        <time>2012-07-14T08:50:43Z</time>
      </trkpt>
      <trkpt lat="46.10263" lon="6.39154">
        <ele>940</ele>
        <time>2012-07-14T08:50:45Z</time>
      </trkpt>
      <trkpt lat="46.10278" lon="6.39162">
        <ele>940</ele>
        <time>2012-07-14T08:50:47Z</time>
      </trkpt>
      <trkpt lat="46.1029" lon="6.39167">
        <ele>940</ele>
        <time>2012-07-14T08:50:49Z</time>
      </trkpt>
      <trkpt lat="46.10298" lon="6.39174">
        <ele>940</ele>
        <time>2012-07-14T08:50:55Z</time>
      </trkpt>
      <trkpt lat="46.10307" lon="6.3916">
        <ele>940</ele>
        <time>2012-07-14T08:51:10Z</time>
      </trkpt>
      <trkpt lat="46.10313" lon="6.3915">
        <ele>940</ele>
        <time>2012-07-14T08:51:12Z</time>
      </trkpt>
      <trkpt lat="46.10319" lon="6.39139">
        <ele>940</ele>
        <time>2012-07-14T08:51:14Z</time>
      </trkpt>
      <trkpt lat="46.10325" lon="6.39126">
        <ele>940</ele>
        <time>2012-07-14T08:51:16Z</time>
      </trkpt>
      <trkpt lat="46.10334" lon="6.39114">
        <ele>940</ele>
        <time>2012-07-14T08:51:18Z</time>
      </trkpt>
      <trkpt lat="46.10342" lon="6.39105">
        <ele>940</ele>
        <time>2012-07-14T08:51:20Z</time>
      </trkpt>
      <trkpt lat="46.10352" lon="6.39097">
        <ele>940</ele>
        <time>2012-07-14T08:51:23Z</time>
      </trkpt>
      <trkpt lat="46.10361" lon="6.3909">
        <ele>940</ele>
        <time>2012-07-14T08:51:26Z</time>
      </trkpt>
      <trkpt lat="46.10372" lon="6.39087">
        <ele>940</ele>
        <time>2012-07-14T08:51:29Z</time>
      </trkpt>
      <trkpt lat="46.10381" lon="6.39081">
        <ele>940</ele>
        <time>2012-07-14T08:51:31Z</time>
      </trkpt>
      <trkpt lat="46.1039" lon="6.39071">
        <ele>940</ele>
        <time>2012-07-14T08:51:34Z</time>
      </trkpt>
      <trkpt lat="46.10396" lon="6.39057">
        <ele>940</ele>
        <time>2012-07-14T08:51:37Z</time>
      </trkpt>
      <trkpt lat="46.10399" lon="6.39042">
        <ele>950</ele>
        <time>2012-07-14T08:51:42Z</time>
      </trkpt>
      <trkpt lat="46.10397" lon="6.39025">
        <ele>957</ele>
        <time>2012-07-14T08:51:45Z</time>
      </trkpt>
      <trkpt lat="46.104" lon="6.39007">
        <ele>957</ele>
        <time>2012-07-14T08:51:48Z</time>
      </trkpt>
      <trkpt lat="46.10399" lon="6.38991">
        <ele>957</ele>
        <time>2012-07-14T08:51:51Z</time>
      </trkpt>
      <trkpt lat="46.10396" lon="6.38975">
        <ele>963</ele>
        <time>2012-07-14T08:51:54Z</time>
      </trkpt>
      <trkpt lat="46.10392" lon="6.38962">
        <ele>963</ele>
        <time>2012-07-14T08:51:57Z</time>
      </trkpt>
      <trkpt lat="46.10391" lon="6.38943">
        <ele>963</ele>
        <time>2012-07-14T08:52:00Z</time>
      </trkpt>
      <trkpt lat="46.10389" lon="6.38925">
        <ele>963</ele>
        <time>2012-07-14T08:52:03Z</time>
      </trkpt>
      <trkpt lat="46.10386" lon="6.38912">
        <ele>963</ele>
        <time>2012-07-14T08:52:05Z</time>
      </trkpt>
      <trkpt lat="46.10381" lon="6.38894">
        <ele>963</ele>
        <time>2012-07-14T08:52:08Z</time>
      </trkpt>
      <trkpt lat="46.10379" lon="6.38876">
        <ele>963</ele>
        <time>2012-07-14T08:52:11Z</time>
      </trkpt>
      <trkpt lat="46.1038" lon="6.38861">
        <ele>963</ele>
        <time>2012-07-14T08:52:13Z</time>
      </trkpt>
      <trkpt lat="46.10384" lon="6.38847">
        <ele>963</ele>
        <time>2012-07-14T08:52:15Z</time>
      </trkpt>
      <trkpt lat="46.10389" lon="6.38829">
        <ele>963</ele>
        <time>2012-07-14T08:52:18Z</time>
      </trkpt>
      <trkpt lat="46.10392" lon="6.38815">
        <ele>963</ele>
        <time>2012-07-14T08:52:20Z</time>
      </trkpt>
      <trkpt lat="46.10393" lon="6.38797">
        <ele>957</ele>
        <time>2012-07-14T08:52:23Z</time>
      </trkpt>
      <trkpt lat="46.10392" lon="6.38779">
        <ele>957</ele>
        <time>2012-07-14T08:52:26Z</time>
      </trkpt>
      <trkpt lat="46.10395" lon="6.38767">
        <ele>957</ele>
        <time>2012-07-14T08:52:29Z</time>
      </trkpt>
      <trkpt lat="46.10394" lon="6.38746">
        <ele>950</ele>
        <time>2012-07-14T08:52:32Z</time>
      </trkpt>
      <trkpt lat="46.10394" lon="6.38731">
        <ele>950</ele>
        <time>2012-07-14T08:52:34Z</time>
      </trkpt>
      <trkpt lat="46.10402" lon="6.38725">
        <ele>950</ele>
        <time>2012-07-14T08:52:39Z</time>
      </trkpt>
      <trkpt lat="46.104" lon="6.38712">
        <ele>928</ele>
        <time>2012-07-14T08:54:22Z</time>
      </trkpt>
      <trkpt lat="46.10407" lon="6.38724">
        <ele>945</ele>
        <time>2012-07-14T08:57:20Z</time>
      </trkpt>
      <trkpt lat="46.10418" lon="6.38726">
        <ele>945</ele>
        <time>2012-07-14T08:57:23Z</time>
      </trkpt>
      <trkpt lat="46.10429" lon="6.38724">
        <ele>945</ele>
        <time>2012-07-14T08:57:26Z</time>
      </trkpt>
      <trkpt lat="46.10438" lon="6.38728">
        <ele>945</ele>
        <time>2012-07-14T08:57:28Z</time>
      </trkpt>
      <trkpt lat="46.10447" lon="6.38735">
        <ele>945</ele>
        <time>2012-07-14T08:57:30Z</time>
      </trkpt>
      <trkpt lat="46.10455" lon="6.38743">
        <ele>945</ele>
        <time>2012-07-14T08:57:32Z</time>
      </trkpt>
      <trkpt lat="46.10464" lon="6.38747">
        <ele>939</ele>
        <time>2012-07-14T08:57:34Z</time>
      </trkpt>
      <trkpt lat="46.10483" lon="6.3876">
        <ele>939</ele>
        <time>2012-07-14T08:57:39Z</time>
      </trkpt>
      <trkpt lat="46.10492" lon="6.38764">
        <ele>939</ele>
        <time>2012-07-14T08:57:40Z</time>
      </trkpt>
      <trkpt lat="46.10504" lon="6.3877">
        <ele>939</ele>
        <time>2012-07-14T08:57:42Z</time>
      </trkpt>
      <trkpt lat="46.10517" lon="6.38778">
        <ele>931</ele>
        <time>2012-07-14T08:57:44Z</time>
      </trkpt>
      <trkpt lat="46.1053" lon="6.38784">
        <ele>931</ele>
        <time>2012-07-14T08:57:46Z</time>
      </trkpt>
      <trkpt lat="46.10542" lon="6.38792">
        <ele>931</ele>
        <time>2012-07-14T08:57:48Z</time>
      </trkpt>
      <trkpt lat="46.10552" lon="6.38798">
        <ele>931</ele>
        <time>2012-07-14T08:57:50Z</time>
      </trkpt>
      <trkpt lat="46.10563" lon="6.38801">
        <ele>919</ele>
        <time>2012-07-14T08:57:53Z</time>
      </trkpt>
      <trkpt lat="46.10573" lon="6.38801">
        <ele>919</ele>
        <time>2012-07-14T08:57:55Z</time>
      </trkpt>
      <trkpt lat="46.10585" lon="6.38799">
        <ele>908</ele>
        <time>2012-07-14T08:57:58Z</time>
      </trkpt>
      <trkpt lat="46.10596" lon="6.38801">
        <ele>908</ele>
        <time>2012-07-14T08:58:00Z</time>
      </trkpt>
      <trkpt lat="46.10609" lon="6.38806">
        <ele>908</ele>
        <time>2012-07-14T08:58:02Z</time>
      </trkpt>
      <trkpt lat="46.10621" lon="6.3881">
        <ele>908</ele>
        <time>2012-07-14T08:58:04Z</time>
      </trkpt>
      <trkpt lat="46.10631" lon="6.38809">
        <ele>908</ele>
        <time>2012-07-14T08:58:06Z</time>
      </trkpt>
      <trkpt lat="46.1064" lon="6.38803">
        <ele>908</ele>
        <time>2012-07-14T08:58:08Z</time>
      </trkpt>
      <trkpt lat="46.10649" lon="6.38792">
        <ele>908</ele>
        <time>2012-07-14T08:58:11Z</time>
      </trkpt>
      <trkpt lat="46.10652" lon="6.38779">
        <ele>908</ele>
        <time>2012-07-14T08:58:14Z</time>
      </trkpt>
      <trkpt lat="46.10652" lon="6.38759">
        <ele>903</ele>
        <time>2012-07-14T08:58:17Z</time>
      </trkpt>
      <trkpt lat="46.10655" lon="6.38744">
        <ele>903</ele>
        <time>2012-07-14T08:58:19Z</time>
      </trkpt>
      <trkpt lat="46.10661" lon="6.3873">
        <ele>903</ele>
        <time>2012-07-14T08:58:21Z</time>
      </trkpt>
      <trkpt lat="46.10665" lon="6.38715">
        <ele>903</ele>
        <time>2012-07-14T08:58:23Z</time>
      </trkpt>
      <trkpt lat="46.1067" lon="6.38701">
        <ele>903</ele>
        <time>2012-07-14T08:58:25Z</time>
      </trkpt>
      <trkpt lat="46.10679" lon="6.38688">
        <ele>903</ele>
        <time>2012-07-14T08:58:27Z</time>
      </trkpt>
      <trkpt lat="46.1069" lon="6.38673">
        <ele>903</ele>
        <time>2012-07-14T08:58:29Z</time>
      </trkpt>
      <trkpt lat="46.10702" lon="6.38656">
        <ele>903</ele>
        <time>2012-07-14T08:58:31Z</time>
      </trkpt>
      <trkpt lat="46.10714" lon="6.38635">
        <ele>903</ele>
        <time>2012-07-14T08:58:33Z</time>
      </trkpt>
      <trkpt lat="46.10719" lon="6.38623">
        <ele>903</ele>
        <time>2012-07-14T08:58:34Z</time>
      </trkpt>
      <trkpt lat="46.10725" lon="6.38611">
        <ele>903</ele>
        <time>2012-07-14T08:58:35Z</time>
      </trkpt>
      <trkpt lat="46.10734" lon="6.38591">
        <ele>903</ele>
        <time>2012-07-14T08:58:37Z</time>
      </trkpt>
      <trkpt lat="46.10738" lon="6.38574">
        <ele>903</ele>
        <time>2012-07-14T08:58:39Z</time>
      </trkpt>
      <trkpt lat="46.10739" lon="6.38557">
        <ele>903</ele>
        <time>2012-07-14T08:58:42Z</time>
      </trkpt>
      <trkpt lat="46.1074" lon="6.3854">
        <ele>903</ele>
        <time>2012-07-14T08:58:44Z</time>
      </trkpt>
      <trkpt lat="46.10742" lon="6.38516">
        <ele>903</ele>
        <time>2012-07-14T08:58:46Z</time>
      </trkpt>
      <trkpt lat="46.10745" lon="6.38494">
        <ele>903</ele>
        <time>2012-07-14T08:58:48Z</time>
      </trkpt>
      <trkpt lat="46.10749" lon="6.38472">
        <ele>903</ele>
        <time>2012-07-14T08:58:50Z</time>
      </trkpt>
      <trkpt lat="46.10752" lon="6.38456">
        <ele>903</ele>
        <time>2012-07-14T08:58:52Z</time>
      </trkpt>
      <trkpt lat="46.1075" lon="6.38443">
        <ele>903</ele>
        <time>2012-07-14T08:58:55Z</time>
      </trkpt>
      <trkpt lat="46.1074" lon="6.38431">
        <ele>903</ele>
        <time>2012-07-14T08:58:58Z</time>
      </trkpt>
      <trkpt lat="46.10731" lon="6.38416">
        <ele>903</ele>
        <time>2012-07-14T08:59:01Z</time>
      </trkpt>
      <trkpt lat="46.10722" lon="6.38404">
        <ele>903</ele>
        <time>2012-07-14T08:59:03Z</time>
      </trkpt>
      <trkpt lat="46.10711" lon="6.38392">
        <ele>903</ele>
        <time>2012-07-14T08:59:05Z</time>
      </trkpt>
      <trkpt lat="46.107" lon="6.38381">
        <ele>903</ele>
        <time>2012-07-14T08:59:07Z</time>
      </trkpt>
      <trkpt lat="46.10694" lon="6.3837">
        <ele>903</ele>
        <time>2012-07-14T08:59:09Z</time>
      </trkpt>
      <trkpt lat="46.10697" lon="6.38349">
        <ele>903</ele>
        <time>2012-07-14T08:59:12Z</time>
      </trkpt>
      <trkpt lat="46.10702" lon="6.3833">
        <ele>903</ele>
        <time>2012-07-14T08:59:14Z</time>
      </trkpt>
      <trkpt lat="46.10708" lon="6.38308">
        <ele>903</ele>
        <time>2012-07-14T08:59:16Z</time>
      </trkpt>
      <trkpt lat="46.10713" lon="6.38286">
        <ele>903</ele>
        <time>2012-07-14T08:59:18Z</time>
      </trkpt>
      <trkpt lat="46.10717" lon="6.38265">
        <ele>903</ele>
        <time>2012-07-14T08:59:20Z</time>
      </trkpt>
      <trkpt lat="46.10721" lon="6.38244">
        <ele>903</ele>
        <time>2012-07-14T08:59:22Z</time>
      </trkpt>
      <trkpt lat="46.10723" lon="6.38223">
        <ele>903</ele>
        <time>2012-07-14T08:59:24Z</time>
      </trkpt>
      <trkpt lat="46.10724" lon="6.382">
        <ele>903</ele>
        <time>2012-07-14T08:59:26Z</time>
      </trkpt>
      <trkpt lat="46.10723" lon="6.38176">
        <ele>903</ele>
        <time>2012-07-14T08:59:28Z</time>
      </trkpt>
      <trkpt lat="46.10722" lon="6.38152">
        <ele>903</ele>
        <time>2012-07-14T08:59:30Z</time>
      </trkpt>
      <trkpt lat="46.1072" lon="6.38126">
        <ele>903</ele>
        <time>2012-07-14T08:59:32Z</time>
      </trkpt>
      <trkpt lat="46.10719" lon="6.38102">
        <ele>903</ele>
        <time>2012-07-14T08:59:34Z</time>
      </trkpt>
      <trkpt lat="46.1072" lon="6.38082">
        <ele>903</ele>
        <time>2012-07-14T08:59:36Z</time>
      </trkpt>
      <trkpt lat="46.10722" lon="6.38063">
        <ele>903</ele>
        <time>2012-07-14T08:59:38Z</time>
      </trkpt>
      <trkpt lat="46.10725" lon="6.38044">
        <ele>903</ele>
        <time>2012-07-14T08:59:40Z</time>
      </trkpt>
      <trkpt lat="46.10729" lon="6.3803">
        <ele>897</ele>
        <time>2012-07-14T08:59:42Z</time>
      </trkpt>
      <trkpt lat="46.10739" lon="6.38019">
        <ele>897</ele>
        <time>2012-07-14T08:59:45Z</time>
      </trkpt>
      <trkpt lat="46.10751" lon="6.38015">
        <ele>897</ele>
        <time>2012-07-14T08:59:48Z</time>
      </trkpt>
      <trkpt lat="46.10762" lon="6.38009">
        <ele>897</ele>
        <time>2012-07-14T08:59:51Z</time>
      </trkpt>
      <trkpt lat="46.10772" lon="6.38002">
        <ele>897</ele>
        <time>2012-07-14T08:59:54Z</time>
      </trkpt>
      <trkpt lat="46.10782" lon="6.37996">
        <ele>897</ele>
        <time>2012-07-14T08:59:58Z</time>
      </trkpt>
      <trkpt lat="46.10792" lon="6.37988">
        <ele>897</ele>
        <time>2012-07-14T09:00:00Z</time>
      </trkpt>
      <trkpt lat="46.108" lon="6.37975">
        <ele>897</ele>
        <time>2012-07-14T09:00:03Z</time>
      </trkpt>
      <trkpt lat="46.1081" lon="6.37966">
        <ele>897</ele>
        <time>2012-07-14T09:00:06Z</time>
      </trkpt>
      <trkpt lat="46.10821" lon="6.37958">
        <ele>889</ele>
        <time>2012-07-14T09:00:09Z</time>
      </trkpt>
      <trkpt lat="46.10828" lon="6.37948">
        <ele>889</ele>
        <time>2012-07-14T09:00:11Z</time>
      </trkpt>
      <trkpt lat="46.10835" lon="6.37936">
        <ele>882</ele>
        <time>2012-07-14T09:00:13Z</time>
      </trkpt>
      <trkpt lat="46.10842" lon="6.37922">
        <ele>882</ele>
        <time>2012-07-14T09:00:15Z</time>
      </trkpt>
      <trkpt lat="46.10849" lon="6.37909">
        <ele>882</ele>
        <time>2012-07-14T09:00:17Z</time>
      </trkpt>
      <trkpt lat="46.10854" lon="6.37896">
        <ele>874</ele>
        <time>2012-07-14T09:00:19Z</time>
      </trkpt>
      <trkpt lat="46.1086" lon="6.37882">
        <ele>874</ele>
        <time>2012-07-14T09:00:21Z</time>
      </trkpt>
      <trkpt lat="46.10867" lon="6.37868">
        <ele>874</ele>
        <time>2012-07-14T09:00:23Z</time>
      </trkpt>
      <trkpt lat="46.10873" lon="6.37855">
        <ele>869</ele>
        <time>2012-07-14T09:00:25Z</time>
      </trkpt>
      <trkpt lat="46.1088" lon="6.37843">
        <ele>869</ele>
        <time>2012-07-14T09:00:28Z</time>
      </trkpt>
      <trkpt lat="46.10886" lon="6.37831">
        <ele>869</ele>
        <time>2012-07-14T09:00:32Z</time>
      </trkpt>
      <trkpt lat="46.10894" lon="6.37818">
        <ele>869</ele>
        <time>2012-07-14T09:00:35Z</time>
      </trkpt>
      <trkpt lat="46.10902" lon="6.37807">
        <ele>863</ele>
        <time>2012-07-14T09:00:37Z</time>
      </trkpt>
      <trkpt lat="46.10912" lon="6.37798">
        <ele>863</ele>
        <time>2012-07-14T09:00:39Z</time>
      </trkpt>
      <trkpt lat="46.10927" lon="6.37792">
        <ele>863</ele>
        <time>2012-07-14T09:00:41Z</time>
      </trkpt>
      <trkpt lat="46.10943" lon="6.37786">
        <ele>863</ele>
        <time>2012-07-14T09:00:43Z</time>
      </trkpt>
      <trkpt lat="46.1096" lon="6.37781">
        <ele>863</ele>
        <time>2012-07-14T09:00:45Z</time>
      </trkpt>
      <trkpt lat="46.10974" lon="6.37775">
        <ele>858</ele>
        <time>2012-07-14T09:00:47Z</time>
      </trkpt>
      <trkpt lat="46.10988" lon="6.37772">
        <ele>858</ele>
        <time>2012-07-14T09:00:49Z</time>
      </trkpt>
      <trkpt lat="46.11002" lon="6.37772">
        <ele>858</ele>
        <time>2012-07-14T09:00:51Z</time>
      </trkpt>
      <trkpt lat="46.11012" lon="6.37773">
        <ele>858</ele>
        <time>2012-07-14T09:00:53Z</time>
      </trkpt>
      <trkpt lat="46.11023" lon="6.37768">
        <ele>858</ele>
        <time>2012-07-14T09:00:56Z</time>
      </trkpt>
      <trkpt lat="46.11032" lon="6.37763">
        <ele>858</ele>
        <time>2012-07-14T09:00:58Z</time>
      </trkpt>
      <trkpt lat="46.11041" lon="6.3776">
        <ele>858</ele>
        <time>2012-07-14T09:01:00Z</time>
      </trkpt>
      <trkpt lat="46.1105" lon="6.37757">
        <ele>858</ele>
        <time>2012-07-14T09:01:11Z</time>
      </trkpt>
      <trkpt lat="46.11053" lon="6.37772">
        <ele>858</ele>
        <time>2012-07-14T09:01:15Z</time>
      </trkpt>
      <trkpt lat="46.11062" lon="6.3779">
        <ele>852</ele>
        <time>2012-07-14T09:01:17Z</time>
      </trkpt>
      <trkpt lat="46.11072" lon="6.37811">
        <ele>852</ele>
        <time>2012-07-14T09:01:19Z</time>
      </trkpt>
      <trkpt lat="46.11082" lon="6.37832">
        <ele>852</ele>
        <time>2012-07-14T09:01:21Z</time>
      </trkpt>
      <trkpt lat="46.11092" lon="6.37846">
        <ele>852</ele>
        <time>2012-07-14T09:01:23Z</time>
      </trkpt>
      <trkpt lat="46.111" lon="6.37853">
        <ele>852</ele>
        <time>2012-07-14T09:01:25Z</time>
      </trkpt>
      <trkpt lat="46.11109" lon="6.37862">
        <ele>852</ele>
        <time>2012-07-14T09:01:27Z</time>
      </trkpt>
      <trkpt lat="46.11118" lon="6.37874">
        <ele>852</ele>
        <time>2012-07-14T09:01:29Z</time>
      </trkpt>
      <trkpt lat="46.11127" lon="6.37887">
        <ele>852</ele>
        <time>2012-07-14T09:01:31Z</time>
      </trkpt>
      <trkpt lat="46.11134" lon="6.37898">
        <ele>859</ele>
        <time>2012-07-14T09:01:33Z</time>
      </trkpt>
      <trkpt lat="46.1114" lon="6.37908">
        <ele>859</ele>
        <time>2012-07-14T09:01:35Z</time>
      </trkpt>
      <trkpt lat="46.11151" lon="6.37914">
        <ele>859</ele>
        <time>2012-07-14T09:01:37Z</time>
      </trkpt>
      <trkpt lat="46.11168" lon="6.37921">
        <ele>859</ele>
        <time>2012-07-14T09:01:39Z</time>
      </trkpt>
      <trkpt lat="46.11182" lon="6.37926">
        <ele>852</ele>
        <time>2012-07-14T09:01:41Z</time>
      </trkpt>
      <trkpt lat="46.11193" lon="6.3793">
        <ele>852</ele>
        <time>2012-07-14T09:01:43Z</time>
      </trkpt>
      <trkpt lat="46.11206" lon="6.37932">
        <ele>852</ele>
        <time>2012-07-14T09:01:46Z</time>
      </trkpt>
      <trkpt lat="46.11216" lon="6.37931">
        <ele>852</ele>
        <time>2012-07-14T09:01:48Z</time>
      </trkpt>
      <trkpt lat="46.11226" lon="6.37929">
        <ele>852</ele>
        <time>2012-07-14T09:01:50Z</time>
      </trkpt>
      <trkpt lat="46.11236" lon="6.37929">
        <ele>858</ele>
        <time>2012-07-14T09:01:54Z</time>
      </trkpt>
      <trkpt lat="46.11242" lon="6.37916">
        <ele>863</ele>
        <time>2012-07-14T09:04:23Z</time>
      </trkpt>
      <trkpt lat="46.1125" lon="6.37906">
        <ele>863</ele>
        <time>2012-07-14T09:04:25Z</time>
      </trkpt>
      <trkpt lat="46.11258" lon="6.37897">
        <ele>856</ele>
        <time>2012-07-14T09:04:27Z</time>
      </trkpt>
      <trkpt lat="46.11267" lon="6.37886">
        <ele>850</ele>
        <time>2012-07-14T09:04:29Z</time>
      </trkpt>
      <trkpt lat="46.11278" lon="6.3787">
        <ele>850</ele>
        <time>2012-07-14T09:04:31Z</time>
      </trkpt>
      <trkpt lat="46.11285" lon="6.3786">
        <ele>850</ele>
        <time>2012-07-14T09:04:32Z</time>
      </trkpt>
      <trkpt lat="46.11296" lon="6.37841">
        <ele>843</ele>
        <time>2012-07-14T09:04:34Z</time>
      </trkpt>
      <trkpt lat="46.11306" lon="6.37824">
        <ele>843</ele>
        <time>2012-07-14T09:04:36Z</time>
      </trkpt>
      <trkpt lat="46.11316" lon="6.37804">
        <ele>838</ele>
        <time>2012-07-14T09:04:38Z</time>
      </trkpt>
      <trkpt lat="46.11328" lon="6.37784">
        <ele>838</ele>
        <time>2012-07-14T09:04:40Z</time>
      </trkpt>
      <trkpt lat="46.11338" lon="6.37767">
        <ele>831</ele>
        <time>2012-07-14T09:04:42Z</time>
      </trkpt>
      <trkpt lat="46.1135" lon="6.37748">
        <ele>831</ele>
        <time>2012-07-14T09:04:44Z</time>
      </trkpt>
      <trkpt lat="46.11359" lon="6.37728">
        <ele>831</ele>
        <time>2012-07-14T09:04:46Z</time>
      </trkpt>
      <trkpt lat="46.11368" lon="6.3771">
        <ele>824</ele>
        <time>2012-07-14T09:04:48Z</time>
      </trkpt>
      <trkpt lat="46.11376" lon="6.37699">
        <ele>824</ele>
        <time>2012-07-14T09:04:50Z</time>
      </trkpt>
      <trkpt lat="46.11386" lon="6.37691">
        <ele>824</ele>
        <time>2012-07-14T09:04:52Z</time>
      </trkpt>
      <trkpt lat="46.11396" lon="6.37685">
        <ele>824</ele>
        <time>2012-07-14T09:04:54Z</time>
      </trkpt>
      <trkpt lat="46.11403" lon="6.37675">
        <ele>818</ele>
        <time>2012-07-14T09:04:58Z</time>
      </trkpt>
      <trkpt lat="46.11409" lon="6.37663">
        <ele>824</ele>
        <time>2012-07-14T09:05:10Z</time>
      </trkpt>
      <trkpt lat="46.1142" lon="6.37655">
        <ele>824</ele>
        <time>2012-07-14T09:05:12Z</time>
      </trkpt>
      <trkpt lat="46.11431" lon="6.37648">
        <ele>824</ele>
        <time>2012-07-14T09:05:14Z</time>
      </trkpt>
      <trkpt lat="46.11445" lon="6.37648">
        <ele>824</ele>
        <time>2012-07-14T09:05:17Z</time>
      </trkpt>
      <trkpt lat="46.11457" lon="6.37655">
        <ele>818</ele>
        <time>2012-07-14T09:05:19Z</time>
      </trkpt>
      <trkpt lat="46.1147" lon="6.37658">
        <ele>818</ele>
        <time>2012-07-14T09:05:21Z</time>
      </trkpt>
      <trkpt lat="46.11483" lon="6.37658">
        <ele>818</ele>
        <time>2012-07-14T09:05:23Z</time>
      </trkpt>
      <trkpt lat="46.11496" lon="6.37657">
        <ele>812</ele>
        <time>2012-07-14T09:05:25Z</time>
      </trkpt>
      <trkpt lat="46.11508" lon="6.37661">
        <ele>812</ele>
        <time>2012-07-14T09:05:27Z</time>
      </trkpt>
      <trkpt lat="46.11517" lon="6.37674">
        <ele>812</ele>
        <time>2012-07-14T09:05:29Z</time>
      </trkpt>
      <trkpt lat="46.11525" lon="6.37684">
        <ele>812</ele>
        <time>2012-07-14T09:05:31Z</time>
      </trkpt>
      <trkpt lat="46.11535" lon="6.37684">
        <ele>806</ele>
        <time>2012-07-14T09:05:34Z</time>
      </trkpt>
      <trkpt lat="46.11541" lon="6.37666">
        <ele>800</ele>
        <time>2012-07-14T09:05:37Z</time>
      </trkpt>
      <trkpt lat="46.11544" lon="6.37648">
        <ele>800</ele>
        <time>2012-07-14T09:05:39Z</time>
      </trkpt>
      <trkpt lat="46.11547" lon="6.37629">
        <ele>800</ele>
        <time>2012-07-14T09:05:41Z</time>
      </trkpt>
      <trkpt lat="46.11549" lon="6.37604">
        <ele>794</ele>
        <time>2012-07-14T09:05:43Z</time>
      </trkpt>
      <trkpt lat="46.11551" lon="6.37578">
        <ele>794</ele>
        <time>2012-07-14T09:05:45Z</time>
      </trkpt>
      <trkpt lat="46.11554" lon="6.37555">
        <ele>794</ele>
        <time>2012-07-14T09:05:47Z</time>
      </trkpt>
      <trkpt lat="46.11558" lon="6.37534">
        <ele>794</ele>
        <time>2012-07-14T09:05:49Z</time>
      </trkpt>
      <trkpt lat="46.11566" lon="6.37517">
        <ele>794</ele>
        <time>2012-07-14T09:05:51Z</time>
      </trkpt>
      <trkpt lat="46.11574" lon="6.375">
        <ele>789</ele>
        <time>2012-07-14T09:05:53Z</time>
      </trkpt>
      <trkpt lat="46.11581" lon="6.37485">
        <ele>789</ele>
        <time>2012-07-14T09:05:55Z</time>
      </trkpt>
      <trkpt lat="46.11586" lon="6.3747">
        <ele>789</ele>
        <time>2012-07-14T09:05:57Z</time>
      </trkpt>
      <trkpt lat="46.11588" lon="6.37453">
        <ele>789</ele>
        <time>2012-07-14T09:05:59Z</time>
      </trkpt>
      <trkpt lat="46.11588" lon="6.37436">
        <ele>782</ele>
        <time>2012-07-14T09:06:01Z</time>
      </trkpt>
      <trkpt lat="46.11585" lon="6.37419">
        <ele>782</ele>
        <time>2012-07-14T09:06:03Z</time>
      </trkpt>
      <trkpt lat="46.11583" lon="6.37406">
        <ele>782</ele>
        <time>2012-07-14T09:06:05Z</time>
      </trkpt>
      <trkpt lat="46.11581" lon="6.37392">
        <ele>777</ele>
        <time>2012-07-14T09:06:07Z</time>
      </trkpt>
      <trkpt lat="46.11582" lon="6.37379">
        <ele>777</ele>
        <time>2012-07-14T09:06:10Z</time>
      </trkpt>
      <trkpt lat="46.11589" lon="6.37366">
        <ele>777</ele>
        <time>2012-07-14T09:06:13Z</time>
      </trkpt>
      <trkpt lat="46.11601" lon="6.37357">
        <ele>777</ele>
        <time>2012-07-14T09:06:15Z</time>
      </trkpt>
      <trkpt lat="46.11615" lon="6.37346">
        <ele>772</ele>
        <time>2012-07-14T09:06:17Z</time>
      </trkpt>
      <trkpt lat="46.11623" lon="6.37338">
        <ele>772</ele>
        <time>2012-07-14T09:06:18Z</time>
      </trkpt>
      <trkpt lat="46.11639" lon="6.37322">
        <ele>772</ele>
        <time>2012-07-14T09:06:20Z</time>
      </trkpt>
      <trkpt lat="46.11648" lon="6.37315">
        <ele>772</ele>
        <time>2012-07-14T09:06:21Z</time>
      </trkpt>
      <trkpt lat="46.11659" lon="6.3731">
        <ele>772</ele>
        <time>2012-07-14T09:06:22Z</time>
      </trkpt>
      <trkpt lat="46.1167" lon="6.37304">
        <ele>772</ele>
        <time>2012-07-14T09:06:23Z</time>
      </trkpt>
      <trkpt lat="46.11683" lon="6.37299">
        <ele>772</ele>
        <time>2012-07-14T09:06:24Z</time>
      </trkpt>
      <trkpt lat="46.11695" lon="6.37294">
        <ele>765</ele>
        <time>2012-07-14T09:06:25Z</time>
      </trkpt>
      <trkpt lat="46.11707" lon="6.37289">
        <ele>765</ele>
        <time>2012-07-14T09:06:26Z</time>
      </trkpt>
      <trkpt lat="46.11718" lon="6.37284">
        <ele>765</ele>
        <time>2012-07-14T09:06:27Z</time>
      </trkpt>
      <trkpt lat="46.11729" lon="6.37279">
        <ele>765</ele>
        <time>2012-07-14T09:06:28Z</time>
      </trkpt>
      <trkpt lat="46.11739" lon="6.37276">
        <ele>765</ele>
        <time>2012-07-14T09:06:29Z</time>
      </trkpt>
      <trkpt lat="46.11749" lon="6.37271">
        <ele>760</ele>
        <time>2012-07-14T09:06:30Z</time>
      </trkpt>
      <trkpt lat="46.1176" lon="6.37267">
        <ele>760</ele>
        <time>2012-07-14T09:06:31Z</time>
      </trkpt>
      <trkpt lat="46.11771" lon="6.37262">
        <ele>760</ele>
        <time>2012-07-14T09:06:32Z</time>
      </trkpt>
      <trkpt lat="46.11781" lon="6.37258">
        <ele>760</ele>
        <time>2012-07-14T09:06:33Z</time>
      </trkpt>
      <trkpt lat="46.11792" lon="6.37255">
        <ele>760</ele>
        <time>2012-07-14T09:06:34Z</time>
      </trkpt>
      <trkpt lat="46.11804" lon="6.37255">
        <ele>754</ele>
        <time>2012-07-14T09:06:35Z</time>
      </trkpt>
      <trkpt lat="46.11816" lon="6.37259">
        <ele>754</ele>
        <time>2012-07-14T09:06:36Z</time>
      </trkpt>
      <trkpt lat="46.11827" lon="6.37263">
        <ele>754</ele>
        <time>2012-07-14T09:06:37Z</time>
      </trkpt>
      <trkpt lat="46.11838" lon="6.37269">
        <ele>754</ele>
        <time>2012-07-14T09:06:38Z</time>
      </trkpt>
      <trkpt lat="46.11849" lon="6.37274">
        <ele>754</ele>
        <time>2012-07-14T09:06:39Z</time>
      </trkpt>
      <trkpt lat="46.11859" lon="6.37278">
        <ele>754</ele>
        <time>2012-07-14T09:06:40Z</time>
      </trkpt>
      <trkpt lat="46.11869" lon="6.37283">
        <ele>749</ele>
        <time>2012-07-14T09:06:41Z</time>
      </trkpt>
      <trkpt lat="46.11879" lon="6.37286">
        <ele>749</ele>
        <time>2012-07-14T09:06:42Z</time>
      </trkpt>
      <trkpt lat="46.1189" lon="6.37286">
        <ele>749</ele>
        <time>2012-07-14T09:06:43Z</time>
      </trkpt>
      <trkpt lat="46.11899" lon="6.37286">
        <ele>749</ele>
        <time>2012-07-14T09:06:44Z</time>
      </trkpt>
      <trkpt lat="46.11909" lon="6.37286">
        <ele>749</ele>
        <time>2012-07-14T09:06:45Z</time>
      </trkpt>
      <trkpt lat="46.11922" lon="6.37283">
        <ele>749</ele>
        <time>2012-07-14T09:06:47Z</time>
      </trkpt>
      <trkpt lat="46.11934" lon="6.37278">
        <ele>749</ele>
        <time>2012-07-14T09:06:49Z</time>
      </trkpt>
      <trkpt lat="46.11944" lon="6.37277">
        <ele>749</ele>
        <time>2012-07-14T09:06:51Z</time>
      </trkpt>
      <trkpt lat="46.11961" lon="6.37271">
        <ele>749</ele>
        <time>2012-07-14T09:06:53Z</time>
      </trkpt>
      <trkpt lat="46.11971" lon="6.37269">
        <ele>743</ele>
        <time>2012-07-14T09:06:54Z</time>
      </trkpt>
      <trkpt lat="46.11982" lon="6.37269">
        <ele>743</ele>
        <time>2012-07-14T09:06:55Z</time>
      </trkpt>
      <trkpt lat="46.11993" lon="6.37269">
        <ele>743</ele>
        <time>2012-07-14T09:06:56Z</time>
      </trkpt>
      <trkpt lat="46.12004" lon="6.37269">
        <ele>743</ele>
        <time>2012-07-14T09:06:57Z</time>
      </trkpt>
      <trkpt lat="46.12016" lon="6.37269">
        <ele>743</ele>
        <time>2012-07-14T09:06:58Z</time>
      </trkpt>
      <trkpt lat="46.12028" lon="6.3727">
        <ele>738</ele>
        <time>2012-07-14T09:06:59Z</time>
      </trkpt>
      <trkpt lat="46.12042" lon="6.37269">
        <ele>738</ele>
        <time>2012-07-14T09:07:00Z</time>
      </trkpt>
      <trkpt lat="46.12054" lon="6.37269">
        <ele>738</ele>
        <time>2012-07-14T09:07:01Z</time>
      </trkpt>
      <trkpt lat="46.12068" lon="6.37263">
        <ele>738</ele>
        <time>2012-07-14T09:07:02Z</time>
      </trkpt>
      <trkpt lat="46.1208" lon="6.37252">
        <ele>733</ele>
        <time>2012-07-14T09:07:03Z</time>
      </trkpt>
      <trkpt lat="46.12092" lon="6.3724">
        <ele>733</ele>
        <time>2012-07-14T09:07:04Z</time>
      </trkpt>
      <trkpt lat="46.12103" lon="6.37227">
        <ele>733</ele>
        <time>2012-07-14T09:07:05Z</time>
      </trkpt>
      <trkpt lat="46.12113" lon="6.37216">
        <ele>733</ele>
        <time>2012-07-14T09:07:06Z</time>
      </trkpt>
      <trkpt lat="46.12121" lon="6.37206">
        <ele>733</ele>
        <time>2012-07-14T09:07:07Z</time>
      </trkpt>
      <trkpt lat="46.12129" lon="6.37197">
        <ele>733</ele>
        <time>2012-07-14T09:07:08Z</time>
      </trkpt>
      <trkpt lat="46.12142" lon="6.37181">
        <ele>733</ele>
        <time>2012-07-14T09:07:10Z</time>
      </trkpt>
      <trkpt lat="46.12155" lon="6.37169">
        <ele>733</ele>
        <time>2012-07-14T09:07:12Z</time>
      </trkpt>
      <trkpt lat="46.12168" lon="6.37156">
        <ele>733</ele>
        <time>2012-07-14T09:07:14Z</time>
      </trkpt>
      <trkpt lat="46.12182" lon="6.37145">
        <ele>733</ele>
        <time>2012-07-14T09:07:16Z</time>
      </trkpt>
      <trkpt lat="46.12191" lon="6.37141">
        <ele>733</ele>
        <time>2012-07-14T09:07:17Z</time>
      </trkpt>
      <trkpt lat="46.122" lon="6.37139">
        <ele>728</ele>
        <time>2012-07-14T09:07:18Z</time>
      </trkpt>
      <trkpt lat="46.1221" lon="6.37137">
        <ele>728</ele>
        <time>2012-07-14T09:07:19Z</time>
      </trkpt>
      <trkpt lat="46.1222" lon="6.37139">
        <ele>728</ele>
        <time>2012-07-14T09:07:20Z</time>
      </trkpt>
      <trkpt lat="46.12232" lon="6.37143">
        <ele>728</ele>
        <time>2012-07-14T09:07:21Z</time>
      </trkpt>
      <trkpt lat="46.12244" lon="6.37149">
        <ele>728</ele>
        <time>2012-07-14T09:07:22Z</time>
      </trkpt>
      <trkpt lat="46.12256" lon="6.37156">
        <ele>728</ele>
        <time>2012-07-14T09:07:23Z</time>
      </trkpt>
      <trkpt lat="46.12267" lon="6.37164">
        <ele>728</ele>
        <time>2012-07-14T09:07:24Z</time>
      </trkpt>
      <trkpt lat="46.12277" lon="6.3717">
        <ele>728</ele>
        <time>2012-07-14T09:07:25Z</time>
      </trkpt>
      <trkpt lat="46.12288" lon="6.37175">
        <ele>728</ele>
        <time>2012-07-14T09:07:26Z</time>
      </trkpt>
      <trkpt lat="46.12299" lon="6.37179">
        <ele>728</ele>
        <time>2012-07-14T09:07:27Z</time>
      </trkpt>
      <trkpt lat="46.12311" lon="6.37182">
        <ele>728</ele>
        <time>2012-07-14T09:07:28Z</time>
      </trkpt>
      <trkpt lat="46.12323" lon="6.37188">
        <ele>728</ele>
        <time>2012-07-14T09:07:29Z</time>
      </trkpt>
      <trkpt lat="46.12336" lon="6.37194">
        <ele>728</ele>
        <time>2012-07-14T09:07:30Z</time>
      </trkpt>
      <trkpt lat="46.12347" lon="6.37198">
        <ele>728</ele>
        <time>2012-07-14T09:07:31Z</time>
      </trkpt>
      <trkpt lat="46.12358" lon="6.37202">
        <ele>728</ele>
        <time>2012-07-14T09:07:32Z</time>
      </trkpt>
      <trkpt lat="46.12374" lon="6.37208">
        <ele>728</ele>
        <time>2012-07-14T09:07:34Z</time>
      </trkpt>
      <trkpt lat="46.12387" lon="6.37216">
        <ele>728</ele>
        <time>2012-07-14T09:07:36Z</time>
      </trkpt>
      <trkpt lat="46.12396" lon="6.37219">
        <ele>728</ele>
        <time>2012-07-14T09:07:38Z</time>
      </trkpt>
      <trkpt lat="46.12407" lon="6.37223">
        <ele>734</ele>
        <time>2012-07-14T09:07:41Z</time>
      </trkpt>
      <trkpt lat="46.12422" lon="6.37228">
        <ele>734</ele>
        <time>2012-07-14T09:07:44Z</time>
      </trkpt>
      <trkpt lat="46.12435" lon="6.37234">
        <ele>734</ele>
        <time>2012-07-14T09:07:46Z</time>
      </trkpt>
      <trkpt lat="46.12448" lon="6.37241">
        <ele>734</ele>
        <time>2012-07-14T09:07:48Z</time>
      </trkpt>
      <trkpt lat="46.1246" lon="6.37245">
        <ele>734</ele>
        <time>2012-07-14T09:07:50Z</time>
      </trkpt>
      <trkpt lat="46.12472" lon="6.37249">
        <ele>734</ele>
        <time>2012-07-14T09:07:52Z</time>
      </trkpt>
      <trkpt lat="46.12482" lon="6.3725">
        <ele>734</ele>
        <time>2012-07-14T09:07:54Z</time>
      </trkpt>
      <trkpt lat="46.12494" lon="6.3725">
        <ele>734</ele>
        <time>2012-07-14T09:07:56Z</time>
      </trkpt>
      <trkpt lat="46.12505" lon="6.37254">
        <ele>734</ele>
        <time>2012-07-14T09:07:58Z</time>
      </trkpt>
      <trkpt lat="46.12515" lon="6.37266">
        <ele>734</ele>
        <time>2012-07-14T09:08:00Z</time>
      </trkpt>
      <trkpt lat="46.12526" lon="6.37276">
        <ele>734</ele>
        <time>2012-07-14T09:08:02Z</time>
      </trkpt>
      <trkpt lat="46.12541" lon="6.37284">
        <ele>734</ele>
        <time>2012-07-14T09:08:04Z</time>
      </trkpt>
      <trkpt lat="46.12556" lon="6.37292">
        <ele>728</ele>
        <time>2012-07-14T09:08:06Z</time>
      </trkpt>
      <trkpt lat="46.12566" lon="6.37297">
        <ele>728</ele>
        <time>2012-07-14T09:08:07Z</time>
      </trkpt>
      <trkpt lat="46.12576" lon="6.37303">
        <ele>728</ele>
        <time>2012-07-14T09:08:08Z</time>
      </trkpt>
      <trkpt lat="46.12587" lon="6.37308">
        <ele>728</ele>
        <time>2012-07-14T09:08:09Z</time>
      </trkpt>
      <trkpt lat="46.12597" lon="6.37313">
        <ele>728</ele>
        <time>2012-07-14T09:08:10Z</time>
      </trkpt>
      <trkpt lat="46.12606" lon="6.37318">
        <ele>728</ele>
        <time>2012-07-14T09:08:11Z</time>
      </trkpt>
      <trkpt lat="46.12615" lon="6.37322">
        <ele>728</ele>
        <time>2012-07-14T09:08:12Z</time>
      </trkpt>
      <trkpt lat="46.12623" lon="6.37325">
        <ele>723</ele>
        <time>2012-07-14T09:08:13Z</time>
      </trkpt>
      <trkpt lat="46.12641" lon="6.37329">
        <ele>723</ele>
        <time>2012-07-14T09:08:15Z</time>
      </trkpt>
      <trkpt lat="46.1265" lon="6.37329">
        <ele>723</ele>
        <time>2012-07-14T09:08:16Z</time>
      </trkpt>
      <trkpt lat="46.1266" lon="6.37328">
        <ele>723</ele>
        <time>2012-07-14T09:08:17Z</time>
      </trkpt>
      <trkpt lat="46.12671" lon="6.37327">
        <ele>723</ele>
        <time>2012-07-14T09:08:18Z</time>
      </trkpt>
      <trkpt lat="46.12681" lon="6.37326">
        <ele>723</ele>
        <time>2012-07-14T09:08:19Z</time>
      </trkpt>
      <trkpt lat="46.12692" lon="6.37325">
        <ele>723</ele>
        <time>2012-07-14T09:08:20Z</time>
      </trkpt>
      <trkpt lat="46.12703" lon="6.37325">
        <ele>723</ele>
        <time>2012-07-14T09:08:21Z</time>
      </trkpt>
      <trkpt lat="46.12714" lon="6.37323">
        <ele>723</ele>
        <time>2012-07-14T09:08:22Z</time>
      </trkpt>
      <trkpt lat="46.12724" lon="6.37322">
        <ele>723</ele>
        <time>2012-07-14T09:08:23Z</time>
      </trkpt>
      <trkpt lat="46.12734" lon="6.37322">
        <ele>723</ele>
        <time>2012-07-14T09:08:24Z</time>
      </trkpt>
      <trkpt lat="46.12743" lon="6.37321">
        <ele>723</ele>
        <time>2012-07-14T09:08:25Z</time>
      </trkpt>
      <trkpt lat="46.12753" lon="6.37319">
        <ele>723</ele>
        <time>2012-07-14T09:08:26Z</time>
      </trkpt>
      <trkpt lat="46.12761" lon="6.37314">
        <ele>723</ele>
        <time>2012-07-14T09:08:27Z</time>
      </trkpt>
      <trkpt lat="46.12771" lon="6.37309">
        <ele>723</ele>
        <time>2012-07-14T09:08:28Z</time>
      </trkpt>
      <trkpt lat="46.12779" lon="6.37303">
        <ele>723</ele>
        <time>2012-07-14T09:08:29Z</time>
      </trkpt>
      <trkpt lat="46.12792" lon="6.37292">
        <ele>723</ele>
        <time>2012-07-14T09:08:31Z</time>
      </trkpt>
      <trkpt lat="46.12803" lon="6.37286">
        <ele>723</ele>
        <time>2012-07-14T09:08:33Z</time>
      </trkpt>
      <trkpt lat="46.12814" lon="6.3728">
        <ele>723</ele>
        <time>2012-07-14T09:08:35Z</time>
      </trkpt>
      <trkpt lat="46.12826" lon="6.37276">
        <ele>723</ele>
        <time>2012-07-14T09:08:37Z</time>
      </trkpt>
      <trkpt lat="46.12836" lon="6.37272">
        <ele>723</ele>
        <time>2012-07-14T09:08:39Z</time>
      </trkpt>
      <trkpt lat="46.12846" lon="6.37268">
        <ele>723</ele>
        <time>2012-07-14T09:08:41Z</time>
      </trkpt>
      <trkpt lat="46.12858" lon="6.37266">
        <ele>723</ele>
        <time>2012-07-14T09:08:43Z</time>
      </trkpt>
      <trkpt lat="46.12868" lon="6.37263">
        <ele>723</ele>
        <time>2012-07-14T09:08:45Z</time>
      </trkpt>
      <trkpt lat="46.12881" lon="6.3726">
        <ele>723</ele>
        <time>2012-07-14T09:08:47Z</time>
      </trkpt>
      <trkpt lat="46.12898" lon="6.37257">
        <ele>723</ele>
        <time>2012-07-14T09:08:49Z</time>
      </trkpt>
      <trkpt lat="46.12917" lon="6.37256">
        <ele>723</ele>
        <time>2012-07-14T09:08:51Z</time>
      </trkpt>
      <trkpt lat="46.12927" lon="6.37255">
        <ele>723</ele>
        <time>2012-07-14T09:08:52Z</time>
      </trkpt>
      <trkpt lat="46.12944" lon="6.37254">
        <ele>723</ele>
        <time>2012-07-14T09:08:54Z</time>
      </trkpt>
      <trkpt lat="46.12959" lon="6.37251">
        <ele>723</ele>
        <time>2012-07-14T09:08:56Z</time>
      </trkpt>
      <trkpt lat="46.12972" lon="6.3724">
        <ele>723</ele>
        <time>2012-07-14T09:08:58Z</time>
      </trkpt>
      <trkpt lat="46.12983" lon="6.37231">
        <ele>723</ele>
        <time>2012-07-14T09:09:00Z</time>
      </trkpt>
      <trkpt lat="46.12996" lon="6.3723">
        <ele>723</ele>
        <time>2012-07-14T09:09:03Z</time>
      </trkpt>
      <trkpt lat="46.13007" lon="6.37242">
        <ele>723</ele>
        <time>2012-07-14T09:09:05Z</time>
      </trkpt>
      <trkpt lat="46.13019" lon="6.3726">
        <ele>718</ele>
        <time>2012-07-14T09:09:07Z</time>
      </trkpt>
      <trkpt lat="46.13028" lon="6.37281">
        <ele>718</ele>
        <time>2012-07-14T09:09:09Z</time>
      </trkpt>
      <trkpt lat="46.13033" lon="6.37293">
        <ele>718</ele>
        <time>2012-07-14T09:09:10Z</time>
      </trkpt>
      <trkpt lat="46.13043" lon="6.37314">
        <ele>718</ele>
        <time>2012-07-14T09:09:12Z</time>
      </trkpt>
      <trkpt lat="46.13054" lon="6.37334">
        <ele>712</ele>
        <time>2012-07-14T09:09:14Z</time>
      </trkpt>
      <trkpt lat="46.13063" lon="6.37354">
        <ele>712</ele>
        <time>2012-07-14T09:09:16Z</time>
      </trkpt>
      <trkpt lat="46.13069" lon="6.37365">
        <ele>712</ele>
        <time>2012-07-14T09:09:17Z</time>
      </trkpt>
      <trkpt lat="46.13074" lon="6.37376">
        <ele>712</ele>
        <time>2012-07-14T09:09:18Z</time>
      </trkpt>
      <trkpt lat="46.1308" lon="6.374">
        <ele>706</ele>
        <time>2012-07-14T09:09:20Z</time>
      </trkpt>
      <trkpt lat="46.13087" lon="6.37422">
        <ele>706</ele>
        <time>2012-07-14T09:09:22Z</time>
      </trkpt>
      <trkpt lat="46.13097" lon="6.37443">
        <ele>706</ele>
        <time>2012-07-14T09:09:24Z</time>
      </trkpt>
      <trkpt lat="46.1311" lon="6.37458">
        <ele>706</ele>
        <time>2012-07-14T09:09:26Z</time>
      </trkpt>
      <trkpt lat="46.13124" lon="6.37471">
        <ele>706</ele>
        <time>2012-07-14T09:09:28Z</time>
      </trkpt>
      <trkpt lat="46.13135" lon="6.37486">
        <ele>699</ele>
        <time>2012-07-14T09:09:30Z</time>
      </trkpt>
      <trkpt lat="46.13145" lon="6.37506">
        <ele>699</ele>
        <time>2012-07-14T09:09:32Z</time>
      </trkpt>
      <trkpt lat="46.13152" lon="6.37523">
        <ele>699</ele>
        <time>2012-07-14T09:09:34Z</time>
      </trkpt>
      <trkpt lat="46.13157" lon="6.37537">
        <ele>699</ele>
        <time>2012-07-14T09:09:36Z</time>
      </trkpt>
      <trkpt lat="46.13159" lon="6.37555">
        <ele>694</ele>
        <time>2012-07-14T09:09:39Z</time>
      </trkpt>
      <trkpt lat="46.13154" lon="6.37573">
        <ele>694</ele>
        <time>2012-07-14T09:09:42Z</time>
      </trkpt>
      <trkpt lat="46.13157" lon="6.37587">
        <ele>694</ele>
        <time>2012-07-14T09:09:44Z</time>
      </trkpt>
      <trkpt lat="46.13167" lon="6.37607">
        <ele>694</ele>
        <time>2012-07-14T09:09:46Z</time>
      </trkpt>
      <trkpt lat="46.13172" lon="6.3762">
        <ele>694</ele>
        <time>2012-07-14T09:09:47Z</time>
      </trkpt>
      <trkpt lat="46.13176" lon="6.37635">
        <ele>694</ele>
        <time>2012-07-14T09:09:48Z</time>
      </trkpt>
      <trkpt lat="46.1318" lon="6.3765">
        <ele>689</ele>
        <time>2012-07-14T09:09:49Z</time>
      </trkpt>
      <trkpt lat="46.13183" lon="6.37666">
        <ele>689</ele>
        <time>2012-07-14T09:09:50Z</time>
      </trkpt>
      <trkpt lat="46.13186" lon="6.3768">
        <ele>689</ele>
        <time>2012-07-14T09:09:51Z</time>
      </trkpt>
      <trkpt lat="46.13189" lon="6.37694">
        <ele>689</ele>
        <time>2012-07-14T09:09:52Z</time>
      </trkpt>
      <trkpt lat="46.13193" lon="6.37707">
        <ele>689</ele>
        <time>2012-07-14T09:09:53Z</time>
      </trkpt>
      <trkpt lat="46.13196" lon="6.37719">
        <ele>689</ele>
        <time>2012-07-14T09:09:54Z</time>
      </trkpt>
      <trkpt lat="46.13201" lon="6.37744">
        <ele>689</ele>
        <time>2012-07-14T09:09:56Z</time>
      </trkpt>
      <trkpt lat="46.13204" lon="6.37769">
        <ele>689</ele>
        <time>2012-07-14T09:09:58Z</time>
      </trkpt>
      <trkpt lat="46.13204" lon="6.37793">
        <ele>689</ele>
        <time>2012-07-14T09:10:00Z</time>
      </trkpt>
      <trkpt lat="46.13204" lon="6.37807">
        <ele>689</ele>
        <time>2012-07-14T09:10:01Z</time>
      </trkpt>
      <trkpt lat="46.13202" lon="6.3782">
        <ele>689</ele>
        <time>2012-07-14T09:10:02Z</time>
      </trkpt>
      <trkpt lat="46.13201" lon="6.37834">
        <ele>689</ele>
        <time>2012-07-14T09:10:03Z</time>
      </trkpt>
      <trkpt lat="46.132" lon="6.37847">
        <ele>689</ele>
        <time>2012-07-14T09:10:04Z</time>
      </trkpt>
      <trkpt lat="46.132" lon="6.37861">
        <ele>689</ele>
        <time>2012-07-14T09:10:05Z</time>
      </trkpt>
      <trkpt lat="46.13202" lon="6.37875">
        <ele>689</ele>
        <time>2012-07-14T09:10:06Z</time>
      </trkpt>
      <trkpt lat="46.13205" lon="6.37887">
        <ele>689</ele>
        <time>2012-07-14T09:10:07Z</time>
      </trkpt>
      <trkpt lat="46.13209" lon="6.37902">
        <ele>689</ele>
        <time>2012-07-14T09:10:08Z</time>
      </trkpt>
      <trkpt lat="46.13214" lon="6.37915">
        <ele>689</ele>
        <time>2012-07-14T09:10:09Z</time>
      </trkpt>
      <trkpt lat="46.13219" lon="6.37929">
        <ele>689</ele>
        <time>2012-07-14T09:10:10Z</time>
      </trkpt>
      <trkpt lat="46.13224" lon="6.37941">
        <ele>689</ele>
        <time>2012-07-14T09:10:11Z</time>
      </trkpt>
      <trkpt lat="46.1323" lon="6.37966">
        <ele>682</ele>
        <time>2012-07-14T09:10:13Z</time>
      </trkpt>
      <trkpt lat="46.13231" lon="6.37988">
        <ele>682</ele>
        <time>2012-07-14T09:10:15Z</time>
      </trkpt>
      <trkpt lat="46.13224" lon="6.3801">
        <ele>682</ele>
        <time>2012-07-14T09:10:17Z</time>
      </trkpt>
      <trkpt lat="46.13209" lon="6.38024">
        <ele>677</ele>
        <time>2012-07-14T09:10:19Z</time>
      </trkpt>
      <trkpt lat="46.132" lon="6.38028">
        <ele>677</ele>
        <time>2012-07-14T09:10:20Z</time>
      </trkpt>
      <trkpt lat="46.1319" lon="6.3803">
        <ele>677</ele>
        <time>2012-07-14T09:10:21Z</time>
      </trkpt>
      <trkpt lat="46.13179" lon="6.38033">
        <ele>671</ele>
        <time>2012-07-14T09:10:22Z</time>
      </trkpt>
      <trkpt lat="46.1317" lon="6.38037">
        <ele>671</ele>
        <time>2012-07-14T09:10:23Z</time>
      </trkpt>
      <trkpt lat="46.1316" lon="6.38042">
        <ele>671</ele>
        <time>2012-07-14T09:10:24Z</time>
      </trkpt>
      <trkpt lat="46.13152" lon="6.38049">
        <ele>671</ele>
        <time>2012-07-14T09:10:25Z</time>
      </trkpt>
      <trkpt lat="46.13139" lon="6.38066">
        <ele>666</ele>
        <time>2012-07-14T09:10:27Z</time>
      </trkpt>
      <trkpt lat="46.13133" lon="6.38077">
        <ele>666</ele>
        <time>2012-07-14T09:10:28Z</time>
      </trkpt>
      <trkpt lat="46.13128" lon="6.38089">
        <ele>666</ele>
        <time>2012-07-14T09:10:29Z</time>
      </trkpt>
      <trkpt lat="46.13122" lon="6.38099">
        <ele>666</ele>
        <time>2012-07-14T09:10:30Z</time>
      </trkpt>
      <trkpt lat="46.13118" lon="6.38111">
        <ele>666</ele>
        <time>2012-07-14T09:10:31Z</time>
      </trkpt>
      <trkpt lat="46.13109" lon="6.38132">
        <ele>659</ele>
        <time>2012-07-14T09:10:33Z</time>
      </trkpt>
      <trkpt lat="46.131" lon="6.38152">
        <ele>659</ele>
        <time>2012-07-14T09:10:35Z</time>
      </trkpt>
      <trkpt lat="46.13093" lon="6.3817">
        <ele>659</ele>
        <time>2012-07-14T09:10:37Z</time>
      </trkpt>
      <trkpt lat="46.13087" lon="6.38185">
        <ele>659</ele>
        <time>2012-07-14T09:10:39Z</time>
      </trkpt>
      <trkpt lat="46.13088" lon="6.38204">
        <ele>659</ele>
        <time>2012-07-14T09:10:42Z</time>
      </trkpt>
      <trkpt lat="46.13097" lon="6.38218">
        <ele>659</ele>
        <time>2012-07-14T09:10:44Z</time>
      </trkpt>
      <trkpt lat="46.13111" lon="6.38231">
        <ele>659</ele>
        <time>2012-07-14T09:10:46Z</time>
      </trkpt>
      <trkpt lat="46.13123" lon="6.38242">
        <ele>659</ele>
        <time>2012-07-14T09:10:48Z</time>
      </trkpt>
      <trkpt lat="46.13133" lon="6.3825">
        <ele>653</ele>
        <time>2012-07-14T09:10:50Z</time>
      </trkpt>
      <trkpt lat="46.1314" lon="6.38261">
        <ele>653</ele>
        <time>2012-07-14T09:10:52Z</time>
      </trkpt>
      <trkpt lat="46.13147" lon="6.38272">
        <ele>653</ele>
        <time>2012-07-14T09:10:54Z</time>
      </trkpt>
      <trkpt lat="46.13155" lon="6.38282">
        <ele>653</ele>
        <time>2012-07-14T09:10:56Z</time>
      </trkpt>
      <trkpt lat="46.13162" lon="6.38293">
        <ele>653</ele>
        <time>2012-07-14T09:10:58Z</time>
      </trkpt>
      <trkpt lat="46.13171" lon="6.38306">
        <ele>646</ele>
        <time>2012-07-14T09:11:00Z</time>
      </trkpt>
      <trkpt lat="46.13178" lon="6.38318">
        <ele>646</ele>
        <time>2012-07-14T09:11:02Z</time>
      </trkpt>
      <trkpt lat="46.13184" lon="6.38332">
        <ele>646</ele>
        <time>2012-07-14T09:11:04Z</time>
      </trkpt>
      <trkpt lat="46.13189" lon="6.38344">
        <ele>646</ele>
        <time>2012-07-14T09:11:06Z</time>
      </trkpt>
      <trkpt lat="46.13195" lon="6.38356">
        <ele>646</ele>
        <time>2012-07-14T09:11:08Z</time>
      </trkpt>
      <trkpt lat="46.13203" lon="6.38367">
        <ele>646</ele>
        <time>2012-07-14T09:11:10Z</time>
      </trkpt>
      <trkpt lat="46.13212" lon="6.38381">
        <ele>646</ele>
        <time>2012-07-14T09:11:12Z</time>
      </trkpt>
      <trkpt lat="46.13219" lon="6.38391">
        <ele>641</ele>
        <time>2012-07-14T09:11:14Z</time>
      </trkpt>
      <trkpt lat="46.13228" lon="6.384">
        <ele>641</ele>
        <time>2012-07-14T09:11:16Z</time>
      </trkpt>
      <trkpt lat="46.13239" lon="6.3841">
        <ele>641</ele>
        <time>2012-07-14T09:11:18Z</time>
      </trkpt>
      <trkpt lat="46.13247" lon="6.38422">
        <ele>641</ele>
        <time>2012-07-14T09:11:20Z</time>
      </trkpt>
      <trkpt lat="46.13255" lon="6.38435">
        <ele>641</ele>
        <time>2012-07-14T09:11:22Z</time>
      </trkpt>
      <trkpt lat="46.13263" lon="6.38448">
        <ele>641</ele>
        <time>2012-07-14T09:11:24Z</time>
      </trkpt>
      <trkpt lat="46.1327" lon="6.38461">
        <ele>632</ele>
        <time>2012-07-14T09:11:26Z</time>
      </trkpt>
      <trkpt lat="46.13277" lon="6.38478">
        <ele>632</ele>
        <time>2012-07-14T09:11:28Z</time>
      </trkpt>
      <trkpt lat="46.13284" lon="6.38489">
        <ele>632</ele>
        <time>2012-07-14T09:11:30Z</time>
      </trkpt>
      <trkpt lat="46.13295" lon="6.38498">
        <ele>632</ele>
        <time>2012-07-14T09:11:32Z</time>
      </trkpt>
      <trkpt lat="46.13303" lon="6.38507">
        <ele>626</ele>
        <time>2012-07-14T09:11:34Z</time>
      </trkpt>
      <trkpt lat="46.13311" lon="6.38519">
        <ele>626</ele>
        <time>2012-07-14T09:11:36Z</time>
      </trkpt>
      <trkpt lat="46.13315" lon="6.38532">
        <ele>626</ele>
        <time>2012-07-14T09:11:38Z</time>
      </trkpt>
      <trkpt lat="46.13319" lon="6.38545">
        <ele>619</ele>
        <time>2012-07-14T09:11:40Z</time>
      </trkpt>
      <trkpt lat="46.13323" lon="6.38558">
        <ele>619</ele>
        <time>2012-07-14T09:11:42Z</time>
      </trkpt>
      <trkpt lat="46.13328" lon="6.38574">
        <ele>619</ele>
        <time>2012-07-14T09:11:44Z</time>
      </trkpt>
      <trkpt lat="46.13333" lon="6.38588">
        <ele>612</ele>
        <time>2012-07-14T09:11:46Z</time>
      </trkpt>
      <trkpt lat="46.13338" lon="6.38603">
        <ele>612</ele>
        <time>2012-07-14T09:11:48Z</time>
      </trkpt>
      <trkpt lat="46.13347" lon="6.38617">
        <ele>606</ele>
        <time>2012-07-14T09:11:50Z</time>
      </trkpt>
      <trkpt lat="46.13354" lon="6.38631">
        <ele>606</ele>
        <time>2012-07-14T09:11:52Z</time>
      </trkpt>
      <trkpt lat="46.13362" lon="6.38648">
        <ele>600</ele>
        <time>2012-07-14T09:11:54Z</time>
      </trkpt>
      <trkpt lat="46.13368" lon="6.38663">
        <ele>600</ele>
        <time>2012-07-14T09:11:56Z</time>
      </trkpt>
      <trkpt lat="46.13374" lon="6.38675">
        <ele>600</ele>
        <time>2012-07-14T09:11:58Z</time>
      </trkpt>
      <trkpt lat="46.13378" lon="6.38687">
        <ele>600</ele>
        <time>2012-07-14T09:12:00Z</time>
      </trkpt>
      <trkpt lat="46.13389" lon="6.38699">
        <ele>600</ele>
        <time>2012-07-14T09:12:03Z</time>
      </trkpt>
      <trkpt lat="46.134" lon="6.38699">
        <ele>600</ele>
        <time>2012-07-14T09:12:05Z</time>
      </trkpt>
      <trkpt lat="46.1341" lon="6.38699">
        <ele>594</ele>
        <time>2012-07-14T09:12:07Z</time>
      </trkpt>
      <trkpt lat="46.13426" lon="6.387">
        <ele>594</ele>
        <time>2012-07-14T09:12:09Z</time>
      </trkpt>
      <trkpt lat="46.13441" lon="6.38704">
        <ele>594</ele>
        <time>2012-07-14T09:12:11Z</time>
      </trkpt>
      <trkpt lat="46.13455" lon="6.38709">
        <ele>594</ele>
        <time>2012-07-14T09:12:13Z</time>
      </trkpt>
      <trkpt lat="46.13466" lon="6.38715">
        <ele>594</ele>
        <time>2012-07-14T09:12:15Z</time>
      </trkpt>
      <trkpt lat="46.13476" lon="6.38722">
        <ele>594</ele>
        <time>2012-07-14T09:12:18Z</time>
      </trkpt>
      <trkpt lat="46.1349" lon="6.38726">
        <ele>594</ele>
        <time>2012-07-14T09:12:22Z</time>
      </trkpt>
      <trkpt lat="46.13506" lon="6.38726">
        <ele>589</ele>
        <time>2012-07-14T09:12:24Z</time>
      </trkpt>
      <trkpt lat="46.13523" lon="6.38726">
        <ele>589</ele>
        <time>2012-07-14T09:12:26Z</time>
      </trkpt>
      <trkpt lat="46.13536" lon="6.38726">
        <ele>589</ele>
        <time>2012-07-14T09:12:28Z</time>
      </trkpt>
      <trkpt lat="46.13548" lon="6.38728">
        <ele>589</ele>
        <time>2012-07-14T09:12:31Z</time>
      </trkpt>
      <trkpt lat="46.13563" lon="6.38726">
        <ele>589</ele>
        <time>2012-07-14T09:14:48Z</time>
      </trkpt>
      <trkpt lat="46.13581" lon="6.38724">
        <ele>589</ele>
        <time>2012-07-14T09:14:50Z</time>
      </trkpt>
      <trkpt lat="46.13599" lon="6.38727">
        <ele>589</ele>
        <time>2012-07-14T09:14:52Z</time>
      </trkpt>
      <trkpt lat="46.13609" lon="6.38733">
        <ele>589</ele>
        <time>2012-07-14T09:14:53Z</time>
      </trkpt>
      <trkpt lat="46.13618" lon="6.3874">
        <ele>589</ele>
        <time>2012-07-14T09:14:54Z</time>
      </trkpt>
      <trkpt lat="46.13633" lon="6.3875">
        <ele>589</ele>
        <time>2012-07-14T09:14:56Z</time>
      </trkpt>
      <trkpt lat="46.13646" lon="6.38754">
        <ele>589</ele>
        <time>2012-07-14T09:14:58Z</time>
      </trkpt>
      <trkpt lat="46.13661" lon="6.38749">
        <ele>589</ele>
        <time>2012-07-14T09:15:00Z</time>
      </trkpt>
      <trkpt lat="46.13676" lon="6.38738">
        <ele>589</ele>
        <time>2012-07-14T09:15:02Z</time>
      </trkpt>
      <trkpt lat="46.13689" lon="6.38727">
        <ele>589</ele>
        <time>2012-07-14T09:15:04Z</time>
      </trkpt>
      <trkpt lat="46.13703" lon="6.38727">
        <ele>589</ele>
        <time>2012-07-14T09:15:06Z</time>
      </trkpt>
      <trkpt lat="46.13721" lon="6.38728">
        <ele>583</ele>
        <time>2012-07-14T09:15:08Z</time>
      </trkpt>
      <trkpt lat="46.13736" lon="6.38727">
        <ele>583</ele>
        <time>2012-07-14T09:15:10Z</time>
      </trkpt>
      <trkpt lat="46.13754" lon="6.38725">
        <ele>583</ele>
        <time>2012-07-14T09:15:12Z</time>
      </trkpt>
      <trkpt lat="46.13763" lon="6.38722">
        <ele>583</ele>
        <time>2012-07-14T09:15:13Z</time>
      </trkpt>
      <trkpt lat="46.13778" lon="6.38707">
        <ele>583</ele>
        <time>2012-07-14T09:15:15Z</time>
      </trkpt>
      <trkpt lat="46.13786" lon="6.38697">
        <ele>583</ele>
        <time>2012-07-14T09:15:16Z</time>
      </trkpt>
      <trkpt lat="46.13794" lon="6.38688">
        <ele>583</ele>
        <time>2012-07-14T09:15:17Z</time>
      </trkpt>
      <trkpt lat="46.13804" lon="6.38681">
        <ele>583</ele>
        <time>2012-07-14T09:15:18Z</time>
      </trkpt>
      <trkpt lat="46.13814" lon="6.38674">
        <ele>583</ele>
        <time>2012-07-14T09:15:19Z</time>
      </trkpt>
      <trkpt lat="46.13824" lon="6.38669">
        <ele>583</ele>
        <time>2012-07-14T09:15:20Z</time>
      </trkpt>
      <trkpt lat="46.13834" lon="6.38664">
        <ele>583</ele>
        <time>2012-07-14T09:15:21Z</time>
      </trkpt>
      <trkpt lat="46.13844" lon="6.38659">
        <ele>583</ele>
        <time>2012-07-14T09:15:22Z</time>
      </trkpt>
      <trkpt lat="46.13854" lon="6.38655">
        <ele>583</ele>
        <time>2012-07-14T09:15:23Z</time>
      </trkpt>
      <trkpt lat="46.13864" lon="6.38651">
        <ele>583</ele>
        <time>2012-07-14T09:15:24Z</time>
      </trkpt>
      <trkpt lat="46.13874" lon="6.38647">
        <ele>583</ele>
        <time>2012-07-14T09:15:25Z</time>
      </trkpt>
      <trkpt lat="46.13885" lon="6.38646">
        <ele>583</ele>
        <time>2012-07-14T09:15:26Z</time>
      </trkpt>
      <trkpt lat="46.13896" lon="6.38643">
        <ele>583</ele>
        <time>2012-07-14T09:15:27Z</time>
      </trkpt>
      <trkpt lat="46.13908" lon="6.3864">
        <ele>583</ele>
        <time>2012-07-14T09:15:28Z</time>
      </trkpt>
      <trkpt lat="46.1392" lon="6.38637">
        <ele>583</ele>
        <time>2012-07-14T09:15:29Z</time>
      </trkpt>
      <trkpt lat="46.13932" lon="6.38632">
        <ele>583</ele>
        <time>2012-07-14T09:15:30Z</time>
      </trkpt>
      <trkpt lat="46.13944" lon="6.38628">
        <ele>583</ele>
        <time>2012-07-14T09:15:31Z</time>
      </trkpt>
      <trkpt lat="46.13955" lon="6.38623">
        <ele>583</ele>
        <time>2012-07-14T09:15:32Z</time>
      </trkpt>
      <trkpt lat="46.13967" lon="6.3862">
        <ele>583</ele>
        <time>2012-07-14T09:15:33Z</time>
      </trkpt>
      <trkpt lat="46.13977" lon="6.38614">
        <ele>583</ele>
        <time>2012-07-14T09:15:34Z</time>
      </trkpt>
      <trkpt lat="46.13988" lon="6.38608">
        <ele>583</ele>
        <time>2012-07-14T09:15:35Z</time>
      </trkpt>
      <trkpt lat="46.13997" lon="6.38603">
        <ele>583</ele>
        <time>2012-07-14T09:15:36Z</time>
      </trkpt>
      <trkpt lat="46.14007" lon="6.38597">
        <ele>583</ele>
        <time>2012-07-14T09:15:37Z</time>
      </trkpt>
      <trkpt lat="46.14017" lon="6.38594">
        <ele>583</ele>
        <time>2012-07-14T09:15:38Z</time>
      </trkpt>
      <trkpt lat="46.14028" lon="6.38593">
        <ele>583</ele>
        <time>2012-07-14T09:15:39Z</time>
      </trkpt>
      <trkpt lat="46.14039" lon="6.38593">
        <ele>583</ele>
        <time>2012-07-14T09:15:40Z</time>
      </trkpt>
      <trkpt lat="46.1405" lon="6.38594">
        <ele>583</ele>
        <time>2012-07-14T09:15:41Z</time>
      </trkpt>
      <trkpt lat="46.14059" lon="6.38596">
        <ele>583</ele>
        <time>2012-07-14T09:15:42Z</time>
      </trkpt>
      <trkpt lat="46.14075" lon="6.38598">
        <ele>583</ele>
        <time>2012-07-14T09:15:44Z</time>
      </trkpt>
      <trkpt lat="46.14084" lon="6.38595">
        <ele>583</ele>
        <time>2012-07-14T09:15:45Z</time>
      </trkpt>
      <trkpt lat="46.14095" lon="6.38591">
        <ele>583</ele>
        <time>2012-07-14T09:15:46Z</time>
      </trkpt>
      <trkpt lat="46.14107" lon="6.38584">
        <ele>583</ele>
        <time>2012-07-14T09:15:47Z</time>
      </trkpt>
      <trkpt lat="46.14121" lon="6.38579">
        <ele>583</ele>
        <time>2012-07-14T09:15:48Z</time>
      </trkpt>
      <trkpt lat="46.14132" lon="6.38578">
        <ele>583</ele>
        <time>2012-07-14T09:15:49Z</time>
      </trkpt>
      <trkpt lat="46.14145" lon="6.38577">
        <ele>583</ele>
        <time>2012-07-14T09:15:50Z</time>
      </trkpt>
      <trkpt lat="46.14159" lon="6.38577">
        <ele>583</ele>
        <time>2012-07-14T09:15:51Z</time>
      </trkpt>
      <trkpt lat="46.14171" lon="6.38578">
        <ele>578</ele>
        <time>2012-07-14T09:15:52Z</time>
      </trkpt>
      <trkpt lat="46.14181" lon="6.38578">
        <ele>578</ele>
        <time>2012-07-14T09:15:53Z</time>
      </trkpt>
      <trkpt lat="46.14191" lon="6.38581">
        <ele>578</ele>
        <time>2012-07-14T09:15:54Z</time>
      </trkpt>
      <trkpt lat="46.142" lon="6.38582">
        <ele>578</ele>
        <time>2012-07-14T09:15:55Z</time>
      </trkpt>
      <trkpt lat="46.14211" lon="6.38582">
        <ele>578</ele>
        <time>2012-07-14T09:15:56Z</time>
      </trkpt>
      <trkpt lat="46.14221" lon="6.3858">
        <ele>578</ele>
        <time>2012-07-14T09:15:57Z</time>
      </trkpt>
      <trkpt lat="46.14231" lon="6.38575">
        <ele>578</ele>
        <time>2012-07-14T09:15:58Z</time>
      </trkpt>
      <trkpt lat="46.14241" lon="6.38568">
        <ele>578</ele>
        <time>2012-07-14T09:15:59Z</time>
      </trkpt>
      <trkpt lat="46.14251" lon="6.38562">
        <ele>578</ele>
        <time>2012-07-14T09:16:00Z</time>
      </trkpt>
      <trkpt lat="46.1426" lon="6.38558">
        <ele>578</ele>
        <time>2012-07-14T09:16:01Z</time>
      </trkpt>
      <trkpt lat="46.14278" lon="6.38555">
        <ele>578</ele>
        <time>2012-07-14T09:16:03Z</time>
      </trkpt>
      <trkpt lat="46.14292" lon="6.3856">
        <ele>578</ele>
        <time>2012-07-14T09:16:05Z</time>
      </trkpt>
      <trkpt lat="46.14306" lon="6.38563">
        <ele>578</ele>
        <time>2012-07-14T09:16:07Z</time>
      </trkpt>
      <trkpt lat="46.1432" lon="6.38556">
        <ele>578</ele>
        <time>2012-07-14T09:16:09Z</time>
      </trkpt>
      <trkpt lat="46.14327" lon="6.38546">
        <ele>578</ele>
        <time>2012-07-14T09:16:10Z</time>
      </trkpt>
      <trkpt lat="46.14333" lon="6.38535">
        <ele>578</ele>
        <time>2012-07-14T09:16:11Z</time>
      </trkpt>
      <trkpt lat="46.14342" lon="6.38516">
        <ele>578</ele>
        <time>2012-07-14T09:16:13Z</time>
      </trkpt>
      <trkpt lat="46.14352" lon="6.38502">
        <ele>578</ele>
        <time>2012-07-14T09:16:15Z</time>
      </trkpt>
      <trkpt lat="46.14362" lon="6.3849">
        <ele>578</ele>
        <time>2012-07-14T09:16:17Z</time>
      </trkpt>
      <trkpt lat="46.14371" lon="6.38478">
        <ele>578</ele>
        <time>2012-07-14T09:16:19Z</time>
      </trkpt>
      <trkpt lat="46.14378" lon="6.38466">
        <ele>578</ele>
        <time>2012-07-14T09:16:21Z</time>
      </trkpt>
      <trkpt lat="46.14386" lon="6.38456">
        <ele>583</ele>
        <time>2012-07-14T09:16:26Z</time>
      </trkpt>
      <trkpt lat="46.14398" lon="6.38457">
        <ele>583</ele>
        <time>2012-07-14T09:16:30Z</time>
      </trkpt>
      <trkpt lat="46.14406" lon="6.38464">
        <ele>590</ele>
        <time>2012-07-14T09:16:32Z</time>
      </trkpt>
      <trkpt lat="46.14418" lon="6.38469">
        <ele>590</ele>
        <time>2012-07-14T09:16:34Z</time>
      </trkpt>
      <trkpt lat="46.1443" lon="6.38472">
        <ele>590</ele>
        <time>2012-07-14T09:16:36Z</time>
      </trkpt>
      <trkpt lat="46.14438" lon="6.38483">
        <ele>590</ele>
        <time>2012-07-14T09:16:38Z</time>
      </trkpt>
      <trkpt lat="46.14449" lon="6.38497">
        <ele>590</ele>
        <time>2012-07-14T09:16:40Z</time>
      </trkpt>
      <trkpt lat="46.14461" lon="6.3851">
        <ele>590</ele>
        <time>2012-07-14T09:16:42Z</time>
      </trkpt>
      <trkpt lat="46.14469" lon="6.38514">
        <ele>590</ele>
        <time>2012-07-14T09:16:43Z</time>
      </trkpt>
      <trkpt lat="46.14481" lon="6.38519">
        <ele>590</ele>
        <time>2012-07-14T09:16:44Z</time>
      </trkpt>
      <trkpt lat="46.14494" lon="6.38523">
        <ele>590</ele>
        <time>2012-07-14T09:16:45Z</time>
      </trkpt>
      <trkpt lat="46.14506" lon="6.38526">
        <ele>590</ele>
        <time>2012-07-14T09:16:46Z</time>
      </trkpt>
      <trkpt lat="46.14518" lon="6.38531">
        <ele>590</ele>
        <time>2012-07-14T09:16:47Z</time>
      </trkpt>
      <trkpt lat="46.14529" lon="6.38535">
        <ele>590</ele>
        <time>2012-07-14T09:16:48Z</time>
      </trkpt>
      <trkpt lat="46.14539" lon="6.38542">
        <ele>590</ele>
        <time>2012-07-14T09:16:49Z</time>
      </trkpt>
      <trkpt lat="46.14547" lon="6.38552">
        <ele>590</ele>
        <time>2012-07-14T09:16:50Z</time>
      </trkpt>
      <trkpt lat="46.14555" lon="6.38565">
        <ele>585</ele>
        <time>2012-07-14T09:16:51Z</time>
      </trkpt>
      <trkpt lat="46.14562" lon="6.38577">
        <ele>585</ele>
        <time>2012-07-14T09:16:52Z</time>
      </trkpt>
      <trkpt lat="46.14567" lon="6.38591">
        <ele>585</ele>
        <time>2012-07-14T09:16:53Z</time>
      </trkpt>
      <trkpt lat="46.14575" lon="6.38609">
        <ele>585</ele>
        <time>2012-07-14T09:16:55Z</time>
      </trkpt>
      <trkpt lat="46.1458" lon="6.3862">
        <ele>585</ele>
        <time>2012-07-14T09:16:58Z</time>
      </trkpt>
      <trkpt lat="46.14587" lon="6.38636">
        <ele>585</ele>
        <time>2012-07-14T09:17:03Z</time>
      </trkpt>
      <trkpt lat="46.14595" lon="6.38659">
        <ele>585</ele>
        <time>2012-07-14T09:17:05Z</time>
      </trkpt>
      <trkpt lat="46.146" lon="6.38673">
        <ele>585</ele>
        <time>2012-07-14T09:17:06Z</time>
      </trkpt>
      <trkpt lat="46.14605" lon="6.38685">
        <ele>585</ele>
        <time>2012-07-14T09:17:07Z</time>
      </trkpt>
      <trkpt lat="46.1461" lon="6.38699">
        <ele>585</ele>
        <time>2012-07-14T09:17:08Z</time>
      </trkpt>
      <trkpt lat="46.14615" lon="6.38713">
        <ele>590</ele>
        <time>2012-07-14T09:17:09Z</time>
      </trkpt>
      <trkpt lat="46.14622" lon="6.38727">
        <ele>590</ele>
        <time>2012-07-14T09:17:10Z</time>
      </trkpt>
      <trkpt lat="46.14628" lon="6.38743">
        <ele>590</ele>
        <time>2012-07-14T09:17:11Z</time>
      </trkpt>
      <trkpt lat="46.14635" lon="6.38759">
        <ele>590</ele>
        <time>2012-07-14T09:17:12Z</time>
      </trkpt>
      <trkpt lat="46.14642" lon="6.38775">
        <ele>590</ele>
        <time>2012-07-14T09:17:13Z</time>
      </trkpt>
      <trkpt lat="46.14649" lon="6.38791">
        <ele>595</ele>
        <time>2012-07-14T09:17:14Z</time>
      </trkpt>
      <trkpt lat="46.14656" lon="6.38807">
        <ele>595</ele>
        <time>2012-07-14T09:17:15Z</time>
      </trkpt>
      <trkpt lat="46.14664" lon="6.38824">
        <ele>595</ele>
        <time>2012-07-14T09:17:16Z</time>
      </trkpt>
      <trkpt lat="46.14671" lon="6.38841">
        <ele>595</ele>
        <time>2012-07-14T09:17:17Z</time>
      </trkpt>
      <trkpt lat="46.14678" lon="6.38859">
        <ele>595</ele>
        <time>2012-07-14T09:17:18Z</time>
      </trkpt>
      <trkpt lat="46.14685" lon="6.38877">
        <ele>601</ele>
        <time>2012-07-14T09:17:19Z</time>
      </trkpt>
      <trkpt lat="46.14692" lon="6.38894">
        <ele>601</ele>
        <time>2012-07-14T09:17:20Z</time>
      </trkpt>
      <trkpt lat="46.14698" lon="6.38909">
        <ele>601</ele>
        <time>2012-07-14T09:17:21Z</time>
      </trkpt>
      <trkpt lat="46.14706" lon="6.38923">
        <ele>601</ele>
        <time>2012-07-14T09:17:22Z</time>
      </trkpt>
      <trkpt lat="46.14715" lon="6.38938">
        <ele>601</ele>
        <time>2012-07-14T09:17:23Z</time>
      </trkpt>
      <trkpt lat="46.14724" lon="6.38954">
        <ele>601</ele>
        <time>2012-07-14T09:17:24Z</time>
      </trkpt>
      <trkpt lat="46.14733" lon="6.38969">
        <ele>601</ele>
        <time>2012-07-14T09:17:25Z</time>
      </trkpt>
      <trkpt lat="46.14743" lon="6.38984">
        <ele>601</ele>
        <time>2012-07-14T09:17:26Z</time>
      </trkpt>
      <trkpt lat="46.14752" lon="6.38998">
        <ele>601</ele>
        <time>2012-07-14T09:17:27Z</time>
      </trkpt>
      <trkpt lat="46.14761" lon="6.39011">
        <ele>606</ele>
        <time>2012-07-14T09:17:28Z</time>
      </trkpt>
      <trkpt lat="46.14771" lon="6.39024">
        <ele>606</ele>
        <time>2012-07-14T09:17:29Z</time>
      </trkpt>
      <trkpt lat="46.14781" lon="6.39035">
        <ele>606</ele>
        <time>2012-07-14T09:17:30Z</time>
      </trkpt>
      <trkpt lat="46.1479" lon="6.39046">
        <ele>606</ele>
        <time>2012-07-14T09:17:31Z</time>
      </trkpt>
      <trkpt lat="46.148" lon="6.39055">
        <ele>606</ele>
        <time>2012-07-14T09:17:32Z</time>
      </trkpt>
      <trkpt lat="46.1481" lon="6.39063">
        <ele>606</ele>
        <time>2012-07-14T09:17:33Z</time>
      </trkpt>
      <trkpt lat="46.14819" lon="6.39071">
        <ele>606</ele>
        <time>2012-07-14T09:17:34Z</time>
      </trkpt>
      <trkpt lat="46.14827" lon="6.39079">
        <ele>612</ele>
        <time>2012-07-14T09:17:35Z</time>
      </trkpt>
      <trkpt lat="46.14835" lon="6.39086">
        <ele>612</ele>
        <time>2012-07-14T09:17:36Z</time>
      </trkpt>
      <trkpt lat="46.14848" lon="6.39097">
        <ele>612</ele>
        <time>2012-07-14T09:17:38Z</time>
      </trkpt>
      <trkpt lat="46.14856" lon="6.39106">
        <ele>612</ele>
        <time>2012-07-14T09:17:40Z</time>
      </trkpt>
      <trkpt lat="46.14865" lon="6.39112">
        <ele>620</ele>
        <time>2012-07-14T09:17:45Z</time>
      </trkpt>
      <trkpt lat="46.14873" lon="6.39106">
        <ele>620</ele>
        <time>2012-07-14T09:17:51Z</time>
      </trkpt>
      <trkpt lat="46.1488" lon="6.39091">
        <ele>620</ele>
        <time>2012-07-14T09:17:53Z</time>
      </trkpt>
      <trkpt lat="46.14891" lon="6.3907">
        <ele>620</ele>
        <time>2012-07-14T09:17:55Z</time>
      </trkpt>
      <trkpt lat="46.14897" lon="6.39056">
        <ele>620</ele>
        <time>2012-07-14T09:17:56Z</time>
      </trkpt>
      <trkpt lat="46.14904" lon="6.39042">
        <ele>620</ele>
        <time>2012-07-14T09:17:57Z</time>
      </trkpt>
      <trkpt lat="46.14911" lon="6.39027">
        <ele>620</ele>
        <time>2012-07-14T09:17:58Z</time>
      </trkpt>
      <trkpt lat="46.14919" lon="6.39011">
        <ele>620</ele>
        <time>2012-07-14T09:17:59Z</time>
      </trkpt>
      <trkpt lat="46.14926" lon="6.38995">
        <ele>620</ele>
        <time>2012-07-14T09:18:00Z</time>
      </trkpt>
      <trkpt lat="46.14934" lon="6.3898">
        <ele>620</ele>
        <time>2012-07-14T09:18:01Z</time>
      </trkpt>
      <trkpt lat="46.14941" lon="6.38964">
        <ele>620</ele>
        <time>2012-07-14T09:18:02Z</time>
      </trkpt>
      <trkpt lat="46.1495" lon="6.38948">
        <ele>620</ele>
        <time>2012-07-14T09:18:03Z</time>
      </trkpt>
      <trkpt lat="46.14958" lon="6.38932">
        <ele>620</ele>
        <time>2012-07-14T09:18:04Z</time>
      </trkpt>
      <trkpt lat="46.14966" lon="6.38917">
        <ele>620</ele>
        <time>2012-07-14T09:18:05Z</time>
      </trkpt>
      <trkpt lat="46.14973" lon="6.38902">
        <ele>620</ele>
        <time>2012-07-14T09:18:06Z</time>
      </trkpt>
      <trkpt lat="46.1498" lon="6.38886">
        <ele>620</ele>
        <time>2012-07-14T09:18:07Z</time>
      </trkpt>
      <trkpt lat="46.14986" lon="6.3887">
        <ele>620</ele>
        <time>2012-07-14T09:18:08Z</time>
      </trkpt>
      <trkpt lat="46.14991" lon="6.38853">
        <ele>620</ele>
        <time>2012-07-14T09:18:09Z</time>
      </trkpt>
      <trkpt lat="46.14994" lon="6.38834">
        <ele>620</ele>
        <time>2012-07-14T09:18:10Z</time>
      </trkpt>
      <trkpt lat="46.14996" lon="6.38815">
        <ele>626</ele>
        <time>2012-07-14T09:18:11Z</time>
      </trkpt>
      <trkpt lat="46.14998" lon="6.38798">
        <ele>626</ele>
        <time>2012-07-14T09:18:12Z</time>
      </trkpt>
      <trkpt lat="46.15001" lon="6.38781">
        <ele>626</ele>
        <time>2012-07-14T09:18:13Z</time>
      </trkpt>
      <trkpt lat="46.15003" lon="6.38765">
        <ele>626</ele>
        <time>2012-07-14T09:18:14Z</time>
      </trkpt>
      <trkpt lat="46.15008" lon="6.38749">
        <ele>626</ele>
        <time>2012-07-14T09:18:15Z</time>
      </trkpt>
      <trkpt lat="46.15013" lon="6.38733">
        <ele>626</ele>
        <time>2012-07-14T09:18:16Z</time>
      </trkpt>
      <trkpt lat="46.15019" lon="6.38717">
        <ele>626</ele>
        <time>2012-07-14T09:18:17Z</time>
      </trkpt>
      <trkpt lat="46.15025" lon="6.38701">
        <ele>626</ele>
        <time>2012-07-14T09:18:18Z</time>
      </trkpt>
      <trkpt lat="46.15031" lon="6.38685">
        <ele>631</ele>
        <time>2012-07-14T09:18:19Z</time>
      </trkpt>
      <trkpt lat="46.15038" lon="6.38668">
        <ele>631</ele>
        <time>2012-07-14T09:18:20Z</time>
      </trkpt>
      <trkpt lat="46.15044" lon="6.38651">
        <ele>631</ele>
        <time>2012-07-14T09:18:21Z</time>
      </trkpt>
      <trkpt lat="46.15051" lon="6.38633">
        <ele>631</ele>
        <time>2012-07-14T09:18:22Z</time>
      </trkpt>
      <trkpt lat="46.15059" lon="6.38614">
        <ele>631</ele>
        <time>2012-07-14T09:18:23Z</time>
      </trkpt>
      <trkpt lat="46.15067" lon="6.38594">
        <ele>631</ele>
        <time>2012-07-14T09:18:24Z</time>
      </trkpt>
      <trkpt lat="46.15074" lon="6.38575">
        <ele>637</ele>
        <time>2012-07-14T09:18:25Z</time>
      </trkpt>
      <trkpt lat="46.15082" lon="6.38556">
        <ele>637</ele>
        <time>2012-07-14T09:18:26Z</time>
      </trkpt>
      <trkpt lat="46.1509" lon="6.38538">
        <ele>637</ele>
        <time>2012-07-14T09:18:27Z</time>
      </trkpt>
      <trkpt lat="46.15097" lon="6.3852">
        <ele>637</ele>
        <time>2012-07-14T09:18:28Z</time>
      </trkpt>
      <trkpt lat="46.15104" lon="6.38503">
        <ele>637</ele>
        <time>2012-07-14T09:18:29Z</time>
      </trkpt>
      <trkpt lat="46.1511" lon="6.38486">
        <ele>637</ele>
        <time>2012-07-14T09:18:30Z</time>
      </trkpt>
      <trkpt lat="46.15116" lon="6.3847">
        <ele>637</ele>
        <time>2012-07-14T09:18:31Z</time>
      </trkpt>
      <trkpt lat="46.15121" lon="6.38457">
        <ele>642</ele>
        <time>2012-07-14T09:18:32Z</time>
      </trkpt>
      <trkpt lat="46.15127" lon="6.38444">
        <ele>642</ele>
        <time>2012-07-14T09:18:33Z</time>
      </trkpt>
      <trkpt lat="46.15134" lon="6.38432">
        <ele>642</ele>
        <time>2012-07-14T09:18:34Z</time>
      </trkpt>
      <trkpt lat="46.15141" lon="6.3842">
        <ele>642</ele>
        <time>2012-07-14T09:18:35Z</time>
      </trkpt>
      <trkpt lat="46.15147" lon="6.38408">
        <ele>642</ele>
        <time>2012-07-14T09:18:36Z</time>
      </trkpt>
      <trkpt lat="46.15154" lon="6.38397">
        <ele>642</ele>
        <time>2012-07-14T09:18:37Z</time>
      </trkpt>
      <trkpt lat="46.1516" lon="6.38384">
        <ele>642</ele>
        <time>2012-07-14T09:18:38Z</time>
      </trkpt>
      <trkpt lat="46.15165" lon="6.3837">
        <ele>648</ele>
        <time>2012-07-14T09:18:39Z</time>
      </trkpt>
      <trkpt lat="46.15171" lon="6.38355">
        <ele>648</ele>
        <time>2012-07-14T09:18:40Z</time>
      </trkpt>
      <trkpt lat="46.15177" lon="6.38338">
        <ele>648</ele>
        <time>2012-07-14T09:18:41Z</time>
      </trkpt>
      <trkpt lat="46.15183" lon="6.38321">
        <ele>648</ele>
        <time>2012-07-14T09:18:42Z</time>
      </trkpt>
      <trkpt lat="46.15189" lon="6.38304">
        <ele>648</ele>
        <time>2012-07-14T09:18:43Z</time>
      </trkpt>
      <trkpt lat="46.15195" lon="6.38287">
        <ele>648</ele>
        <time>2012-07-14T09:18:44Z</time>
      </trkpt>
      <trkpt lat="46.15199" lon="6.3827">
        <ele>648</ele>
        <time>2012-07-14T09:18:45Z</time>
      </trkpt>
      <trkpt lat="46.15202" lon="6.38252">
        <ele>653</ele>
        <time>2012-07-14T09:18:46Z</time>
      </trkpt>
      <trkpt lat="46.15205" lon="6.38233">
        <ele>653</ele>
        <time>2012-07-14T09:18:47Z</time>
      </trkpt>
      <trkpt lat="46.15207" lon="6.38215">
        <ele>653</ele>
        <time>2012-07-14T09:18:48Z</time>
      </trkpt>
      <trkpt lat="46.1521" lon="6.38197">
        <ele>653</ele>
        <time>2012-07-14T09:18:49Z</time>
      </trkpt>
      <trkpt lat="46.15212" lon="6.38181">
        <ele>653</ele>
        <time>2012-07-14T09:18:50Z</time>
      </trkpt>
      <trkpt lat="46.15215" lon="6.38166">
        <ele>653</ele>
        <time>2012-07-14T09:18:51Z</time>
      </trkpt>
      <trkpt lat="46.15219" lon="6.38152">
        <ele>653</ele>
        <time>2012-07-14T09:18:52Z</time>
      </trkpt>
      <trkpt lat="46.15224" lon="6.3814">
        <ele>653</ele>
        <time>2012-07-14T09:18:53Z</time>
      </trkpt>
      <trkpt lat="46.1523" lon="6.38128">
        <ele>653</ele>
        <time>2012-07-14T09:18:54Z</time>
      </trkpt>
      <trkpt lat="46.15237" lon="6.38117">
        <ele>653</ele>
        <time>2012-07-14T09:18:55Z</time>
      </trkpt>
      <trkpt lat="46.15243" lon="6.38107">
        <ele>653</ele>
        <time>2012-07-14T09:18:56Z</time>
      </trkpt>
      <trkpt lat="46.15254" lon="6.38091">
        <ele>653</ele>
        <time>2012-07-14T09:18:58Z</time>
      </trkpt>
      <trkpt lat="46.15266" lon="6.38085">
        <ele>653</ele>
        <time>2012-07-14T09:19:00Z</time>
      </trkpt>
      <trkpt lat="46.15274" lon="6.38064">
        <ele>653</ele>
        <time>2012-07-14T09:19:50Z</time>
      </trkpt>
      <trkpt lat="46.1528" lon="6.38055">
        <ele>653</ele>
        <time>2012-07-14T09:19:51Z</time>
      </trkpt>
      <trkpt lat="46.15287" lon="6.38043">
        <ele>653</ele>
        <time>2012-07-14T09:19:52Z</time>
      </trkpt>
      <trkpt lat="46.15293" lon="6.3803">
        <ele>653</ele>
        <time>2012-07-14T09:19:53Z</time>
      </trkpt>
      <trkpt lat="46.15299" lon="6.38018">
        <ele>653</ele>
        <time>2012-07-14T09:19:54Z</time>
      </trkpt>
      <trkpt lat="46.15305" lon="6.38006">
        <ele>653</ele>
        <time>2012-07-14T09:19:55Z</time>
      </trkpt>
      <trkpt lat="46.15315" lon="6.37985">
        <ele>653</ele>
        <time>2012-07-14T09:19:57Z</time>
      </trkpt>
      <trkpt lat="46.15327" lon="6.37971">
        <ele>653</ele>
        <time>2012-07-14T09:19:59Z</time>
      </trkpt>
      <trkpt lat="46.15343" lon="6.37963">
        <ele>653</ele>
        <time>2012-07-14T09:20:01Z</time>
      </trkpt>
      <trkpt lat="46.15353" lon="6.37958">
        <ele>653</ele>
        <time>2012-07-14T09:20:02Z</time>
      </trkpt>
      <trkpt lat="46.15363" lon="6.37955">
        <ele>653</ele>
        <time>2012-07-14T09:20:03Z</time>
      </trkpt>
      <trkpt lat="46.15372" lon="6.37951">
        <ele>653</ele>
        <time>2012-07-14T09:20:04Z</time>
      </trkpt>
      <trkpt lat="46.15387" lon="6.37942">
        <ele>653</ele>
        <time>2012-07-14T09:20:06Z</time>
      </trkpt>
      <trkpt lat="46.154" lon="6.37938">
        <ele>653</ele>
        <time>2012-07-14T09:20:08Z</time>
      </trkpt>
      <trkpt lat="46.1541" lon="6.37944">
        <ele>653</ele>
        <time>2012-07-14T09:20:10Z</time>
      </trkpt>
      <trkpt lat="46.15412" lon="6.37961">
        <ele>653</ele>
        <time>2012-07-14T09:20:12Z</time>
      </trkpt>
      <trkpt lat="46.1541" lon="6.3798">
        <ele>647</ele>
        <time>2012-07-14T09:20:14Z</time>
      </trkpt>
      <trkpt lat="46.15397" lon="6.38006">
        <ele>647</ele>
        <time>2012-07-14T09:20:16Z</time>
      </trkpt>
      <trkpt lat="46.15388" lon="6.38025">
        <ele>647</ele>
        <time>2012-07-14T09:20:17Z</time>
      </trkpt>
      <trkpt lat="46.1538" lon="6.38039">
        <ele>641</ele>
        <time>2012-07-14T09:20:18Z</time>
      </trkpt>
      <trkpt lat="46.15371" lon="6.38055">
        <ele>641</ele>
        <time>2012-07-14T09:20:19Z</time>
      </trkpt>
      <trkpt lat="46.15363" lon="6.3807">
        <ele>641</ele>
        <time>2012-07-14T09:20:20Z</time>
      </trkpt>
      <trkpt lat="46.15355" lon="6.38083">
        <ele>641</ele>
        <time>2012-07-14T09:20:21Z</time>
      </trkpt>
      <trkpt lat="46.15348" lon="6.38097">
        <ele>641</ele>
        <time>2012-07-14T09:20:22Z</time>
      </trkpt>
      <trkpt lat="46.15342" lon="6.3811">
        <ele>641</ele>
        <time>2012-07-14T09:20:23Z</time>
      </trkpt>
      <trkpt lat="46.15337" lon="6.38125">
        <ele>641</ele>
        <time>2012-07-14T09:20:24Z</time>
      </trkpt>
      <trkpt lat="46.15332" lon="6.38138">
        <ele>650</ele>
        <time>2012-07-14T09:20:25Z</time>
      </trkpt>
      <trkpt lat="46.15327" lon="6.38151">
        <ele>650</ele>
        <time>2012-07-14T09:20:26Z</time>
      </trkpt>
      <trkpt lat="46.15322" lon="6.38164">
        <ele>658</ele>
        <time>2012-07-14T09:20:27Z</time>
      </trkpt>
      <trkpt lat="46.15315" lon="6.38188">
        <ele>664</ele>
        <time>2012-07-14T09:20:29Z</time>
      </trkpt>
      <trkpt lat="46.15314" lon="6.38208">
        <ele>664</ele>
        <time>2012-07-14T09:20:31Z</time>
      </trkpt>
      <trkpt lat="46.15316" lon="6.38225">
        <ele>670</ele>
        <time>2012-07-14T09:20:33Z</time>
      </trkpt>
      <trkpt lat="46.15318" lon="6.38246">
        <ele>670</ele>
        <time>2012-07-14T09:20:35Z</time>
      </trkpt>
      <trkpt lat="46.15317" lon="6.38263">
        <ele>670</ele>
        <time>2012-07-14T09:20:37Z</time>
      </trkpt>
      <trkpt lat="46.15314" lon="6.38279">
        <ele>676</ele>
        <time>2012-07-14T09:20:39Z</time>
      </trkpt>
      <trkpt lat="46.1531" lon="6.38295">
        <ele>676</ele>
        <time>2012-07-14T09:20:41Z</time>
      </trkpt>
      <trkpt lat="46.15304" lon="6.38306">
        <ele>676</ele>
        <time>2012-07-14T09:20:43Z</time>
      </trkpt>
      <trkpt lat="46.15298" lon="6.3832">
        <ele>676</ele>
        <time>2012-07-14T09:20:46Z</time>
      </trkpt>
      <trkpt lat="46.15294" lon="6.38335">
        <ele>676</ele>
        <time>2012-07-14T09:20:49Z</time>
      </trkpt>
      <trkpt lat="46.15294" lon="6.38353">
        <ele>676</ele>
        <time>2012-07-14T09:20:51Z</time>
      </trkpt>
      <trkpt lat="46.15296" lon="6.38375">
        <ele>676</ele>
        <time>2012-07-14T09:20:53Z</time>
      </trkpt>
      <trkpt lat="46.15298" lon="6.38399">
        <ele>676</ele>
        <time>2012-07-14T09:20:55Z</time>
      </trkpt>
      <trkpt lat="46.15298" lon="6.38422">
        <ele>676</ele>
        <time>2012-07-14T09:20:57Z</time>
      </trkpt>
      <trkpt lat="46.15298" lon="6.38443">
        <ele>676</ele>
        <time>2012-07-14T09:20:59Z</time>
      </trkpt>
      <trkpt lat="46.15298" lon="6.38458">
        <ele>676</ele>
        <time>2012-07-14T09:21:01Z</time>
      </trkpt>
      <trkpt lat="46.15293" lon="6.38472">
        <ele>676</ele>
        <time>2012-07-14T09:21:03Z</time>
      </trkpt>
      <trkpt lat="46.1529" lon="6.38488">
        <ele>676</ele>
        <time>2012-07-14T09:21:05Z</time>
      </trkpt>
      <trkpt lat="46.15287" lon="6.38506">
        <ele>676</ele>
        <time>2012-07-14T09:21:07Z</time>
      </trkpt>
      <trkpt lat="46.15285" lon="6.38528">
        <ele>676</ele>
        <time>2012-07-14T09:21:09Z</time>
      </trkpt>
      <trkpt lat="46.15283" lon="6.38548">
        <ele>676</ele>
        <time>2012-07-14T09:21:11Z</time>
      </trkpt>
      <trkpt lat="46.15283" lon="6.38571">
        <ele>676</ele>
        <time>2012-07-14T09:21:13Z</time>
      </trkpt>
      <trkpt lat="46.15282" lon="6.38593">
        <ele>676</ele>
        <time>2012-07-14T09:21:15Z</time>
      </trkpt>
      <trkpt lat="46.15281" lon="6.38614">
        <ele>676</ele>
        <time>2012-07-14T09:21:17Z</time>
      </trkpt>
      <trkpt lat="46.1528" lon="6.38629">
        <ele>676</ele>
        <time>2012-07-14T09:21:19Z</time>
      </trkpt>
      <trkpt lat="46.1528" lon="6.38646">
        <ele>676</ele>
        <time>2012-07-14T09:21:22Z</time>
      </trkpt>
      <trkpt lat="46.15278" lon="6.38662">
        <ele>676</ele>
        <time>2012-07-14T09:21:25Z</time>
      </trkpt>
      <trkpt lat="46.15277" lon="6.38677">
        <ele>676</ele>
        <time>2012-07-14T09:21:28Z</time>
      </trkpt>
      <trkpt lat="46.15275" lon="6.38697">
        <ele>676</ele>
        <time>2012-07-14T09:21:31Z</time>
      </trkpt>
      <trkpt lat="46.15274" lon="6.38716">
        <ele>676</ele>
        <time>2012-07-14T09:21:33Z</time>
      </trkpt>
      <trkpt lat="46.15273" lon="6.38738">
        <ele>676</ele>
        <time>2012-07-14T09:21:35Z</time>
      </trkpt>
      <trkpt lat="46.15271" lon="6.3876">
        <ele>676</ele>
        <time>2012-07-14T09:21:37Z</time>
      </trkpt>
      <trkpt lat="46.1527" lon="6.38779">
        <ele>676</ele>
        <time>2012-07-14T09:21:39Z</time>
      </trkpt>
      <trkpt lat="46.15268" lon="6.38797">
        <ele>676</ele>
        <time>2012-07-14T09:21:41Z</time>
      </trkpt>
      <trkpt lat="46.15266" lon="6.38815">
        <ele>676</ele>
        <time>2012-07-14T09:21:43Z</time>
      </trkpt>
      <trkpt lat="46.1526" lon="6.3883">
        <ele>676</ele>
        <time>2012-07-14T09:21:45Z</time>
      </trkpt>
      <trkpt lat="46.15255" lon="6.38843">
        <ele>671</ele>
        <time>2012-07-14T09:21:48Z</time>
      </trkpt>
      <trkpt lat="46.15249" lon="6.38853">
        <ele>671</ele>
        <time>2012-07-14T09:21:51Z</time>
      </trkpt>
      <trkpt lat="46.15241" lon="6.38865">
        <ele>671</ele>
        <time>2012-07-14T09:21:55Z</time>
      </trkpt>
      <trkpt lat="46.15235" lon="6.38878">
        <ele>671</ele>
        <time>2012-07-14T09:22:01Z</time>
      </trkpt>
      <trkpt lat="46.1523" lon="6.38892">
        <ele>671</ele>
        <time>2012-07-14T09:22:05Z</time>
      </trkpt>
      <trkpt lat="46.15224" lon="6.38905">
        <ele>671</ele>
        <time>2012-07-14T09:22:09Z</time>
      </trkpt>
      <trkpt lat="46.1522" lon="6.38919">
        <ele>671</ele>
        <time>2012-07-14T09:22:11Z</time>
      </trkpt>
      <trkpt lat="46.15215" lon="6.38937">
        <ele>671</ele>
        <time>2012-07-14T09:22:14Z</time>
      </trkpt>
      <trkpt lat="46.15208" lon="6.38949">
        <ele>671</ele>
        <time>2012-07-14T09:22:16Z</time>
      </trkpt>
      <trkpt lat="46.152" lon="6.38959">
        <ele>671</ele>
        <time>2012-07-14T09:22:18Z</time>
      </trkpt>
      <trkpt lat="46.15192" lon="6.38974">
        <ele>671</ele>
        <time>2012-07-14T09:22:20Z</time>
      </trkpt>
      <trkpt lat="46.15186" lon="6.38988">
        <ele>671</ele>
        <time>2012-07-14T09:22:22Z</time>
      </trkpt>
      <trkpt lat="46.1518" lon="6.39001">
        <ele>671</ele>
        <time>2012-07-14T09:22:24Z</time>
      </trkpt>
      <trkpt lat="46.15172" lon="6.39017">
        <ele>671</ele>
        <time>2012-07-14T09:22:26Z</time>
      </trkpt>
      <trkpt lat="46.15164" lon="6.39031">
        <ele>671</ele>
        <time>2012-07-14T09:22:28Z</time>
      </trkpt>
      <trkpt lat="46.15157" lon="6.39047">
        <ele>671</ele>
        <time>2012-07-14T09:22:30Z</time>
      </trkpt>
      <trkpt lat="46.15151" lon="6.39064">
        <ele>671</ele>
        <time>2012-07-14T09:22:32Z</time>
      </trkpt>
      <trkpt lat="46.15147" lon="6.39083">
        <ele>671</ele>
        <time>2012-07-14T09:22:34Z</time>
      </trkpt>
      <trkpt lat="46.15143" lon="6.39105">
        <ele>665</ele>
        <time>2012-07-14T09:22:36Z</time>
      </trkpt>
      <trkpt lat="46.15141" lon="6.39124">
        <ele>665</ele>
        <time>2012-07-14T09:22:38Z</time>
      </trkpt>
      <trkpt lat="46.15141" lon="6.39145">
        <ele>665</ele>
        <time>2012-07-14T09:22:40Z</time>
      </trkpt>
      <trkpt lat="46.1514" lon="6.39163">
        <ele>665</ele>
        <time>2012-07-14T09:22:42Z</time>
      </trkpt>
      <trkpt lat="46.15138" lon="6.39184">
        <ele>665</ele>
        <time>2012-07-14T09:22:44Z</time>
      </trkpt>
      <trkpt lat="46.15135" lon="6.39203">
        <ele>665</ele>
        <time>2012-07-14T09:22:46Z</time>
      </trkpt>
      <trkpt lat="46.15134" lon="6.39223">
        <ele>665</ele>
        <time>2012-07-14T09:22:48Z</time>
      </trkpt>
      <trkpt lat="46.15132" lon="6.3924">
        <ele>665</ele>
        <time>2012-07-14T09:22:50Z</time>
      </trkpt>
      <trkpt lat="46.15131" lon="6.39255">
        <ele>665</ele>
        <time>2012-07-14T09:22:52Z</time>
      </trkpt>
      <trkpt lat="46.15129" lon="6.39274">
        <ele>659</ele>
        <time>2012-07-14T09:22:54Z</time>
      </trkpt>
      <trkpt lat="46.15124" lon="6.39298">
        <ele>659</ele>
        <time>2012-07-14T09:22:56Z</time>
      </trkpt>
      <trkpt lat="46.15119" lon="6.39321">
        <ele>659</ele>
        <time>2012-07-14T09:22:58Z</time>
      </trkpt>
      <trkpt lat="46.15116" lon="6.39341">
        <ele>659</ele>
        <time>2012-07-14T09:23:00Z</time>
      </trkpt>
      <trkpt lat="46.15112" lon="6.3936">
        <ele>651</ele>
        <time>2012-07-14T09:23:02Z</time>
      </trkpt>
      <trkpt lat="46.15109" lon="6.39374">
        <ele>651</ele>
        <time>2012-07-14T09:23:04Z</time>
      </trkpt>
      <trkpt lat="46.15104" lon="6.39386">
        <ele>651</ele>
        <time>2012-07-14T09:23:41Z</time>
      </trkpt>
      <trkpt lat="46.15109" lon="6.39398">
        <ele>651</ele>
        <time>2012-07-14T09:23:53Z</time>
      </trkpt>
      <trkpt lat="46.15117" lon="6.39406">
        <ele>651</ele>
        <time>2012-07-14T09:23:55Z</time>
      </trkpt>
      <trkpt lat="46.15129" lon="6.39417">
        <ele>651</ele>
        <time>2012-07-14T09:23:57Z</time>
      </trkpt>
      <trkpt lat="46.15141" lon="6.39431">
        <ele>651</ele>
        <time>2012-07-14T09:23:59Z</time>
      </trkpt>
      <trkpt lat="46.15151" lon="6.39442">
        <ele>656</ele>
        <time>2012-07-14T09:24:01Z</time>
      </trkpt>
      <trkpt lat="46.1516" lon="6.39452">
        <ele>656</ele>
        <time>2012-07-14T09:24:03Z</time>
      </trkpt>
      <trkpt lat="46.15172" lon="6.39466">
        <ele>656</ele>
        <time>2012-07-14T09:24:05Z</time>
      </trkpt>
      <trkpt lat="46.15186" lon="6.39474">
        <ele>656</ele>
        <time>2012-07-14T09:24:07Z</time>
      </trkpt>
      <trkpt lat="46.15198" lon="6.39481">
        <ele>656</ele>
        <time>2012-07-14T09:24:09Z</time>
      </trkpt>
      <trkpt lat="46.15206" lon="6.3949">
        <ele>656</ele>
        <time>2012-07-14T09:24:11Z</time>
      </trkpt>
      <trkpt lat="46.15214" lon="6.39501">
        <ele>656</ele>
        <time>2012-07-14T09:24:13Z</time>
      </trkpt>
      <trkpt lat="46.15222" lon="6.39512">
        <ele>656</ele>
        <time>2012-07-14T09:24:15Z</time>
      </trkpt>
      <trkpt lat="46.1523" lon="6.39523">
        <ele>656</ele>
        <time>2012-07-14T09:24:17Z</time>
      </trkpt>
      <trkpt lat="46.15238" lon="6.39532">
        <ele>656</ele>
        <time>2012-07-14T09:24:19Z</time>
      </trkpt>
      <trkpt lat="46.15247" lon="6.39541">
        <ele>656</ele>
        <time>2012-07-14T09:24:21Z</time>
      </trkpt>
      <trkpt lat="46.15259" lon="6.39556">
        <ele>656</ele>
        <time>2012-07-14T09:24:23Z</time>
      </trkpt>
      <trkpt lat="46.15269" lon="6.39573">
        <ele>650</ele>
        <time>2012-07-14T09:24:25Z</time>
      </trkpt>
      <trkpt lat="46.15273" lon="6.39591">
        <ele>650</ele>
        <time>2012-07-14T09:24:27Z</time>
      </trkpt>
      <trkpt lat="46.15277" lon="6.3961">
        <ele>650</ele>
        <time>2012-07-14T09:24:29Z</time>
      </trkpt>
      <trkpt lat="46.15283" lon="6.39631">
        <ele>650</ele>
        <time>2012-07-14T09:24:31Z</time>
      </trkpt>
      <trkpt lat="46.15292" lon="6.39651">
        <ele>650</ele>
        <time>2012-07-14T09:24:33Z</time>
      </trkpt>
      <trkpt lat="46.15301" lon="6.3967">
        <ele>650</ele>
        <time>2012-07-14T09:24:35Z</time>
      </trkpt>
      <trkpt lat="46.15314" lon="6.39683">
        <ele>650</ele>
        <time>2012-07-14T09:24:37Z</time>
      </trkpt>
      <trkpt lat="46.15323" lon="6.39687">
        <ele>650</ele>
        <time>2012-07-14T09:24:38Z</time>
      </trkpt>
      <trkpt lat="46.15337" lon="6.39697">
        <ele>650</ele>
        <time>2012-07-14T09:24:40Z</time>
      </trkpt>
      <trkpt lat="46.15351" lon="6.39714">
        <ele>650</ele>
        <time>2012-07-14T09:24:42Z</time>
      </trkpt>
      <trkpt lat="46.15359" lon="6.39722">
        <ele>650</ele>
        <time>2012-07-14T09:24:43Z</time>
      </trkpt>
      <trkpt lat="46.15368" lon="6.3973">
        <ele>650</ele>
        <time>2012-07-14T09:24:44Z</time>
      </trkpt>
      <trkpt lat="46.15377" lon="6.3974">
        <ele>650</ele>
        <time>2012-07-14T09:24:45Z</time>
      </trkpt>
      <trkpt lat="46.15386" lon="6.39751">
        <ele>650</ele>
        <time>2012-07-14T09:24:46Z</time>
      </trkpt>
      <trkpt lat="46.15396" lon="6.39761">
        <ele>650</ele>
        <time>2012-07-14T09:24:47Z</time>
      </trkpt>
      <trkpt lat="46.15407" lon="6.39772">
        <ele>650</ele>
        <time>2012-07-14T09:24:48Z</time>
      </trkpt>
      <trkpt lat="46.15417" lon="6.39783">
        <ele>650</ele>
        <time>2012-07-14T09:24:49Z</time>
      </trkpt>
      <trkpt lat="46.15429" lon="6.39794">
        <ele>650</ele>
        <time>2012-07-14T09:24:50Z</time>
      </trkpt>
      <trkpt lat="46.15441" lon="6.39804">
        <ele>650</ele>
        <time>2012-07-14T09:24:51Z</time>
      </trkpt>
      <trkpt lat="46.15454" lon="6.39814">
        <ele>650</ele>
        <time>2012-07-14T09:24:52Z</time>
      </trkpt>
      <trkpt lat="46.15467" lon="6.39825">
        <ele>650</ele>
        <time>2012-07-14T09:24:53Z</time>
      </trkpt>
      <trkpt lat="46.1548" lon="6.39836">
        <ele>650</ele>
        <time>2012-07-14T09:24:54Z</time>
      </trkpt>
      <trkpt lat="46.15494" lon="6.39848">
        <ele>650</ele>
        <time>2012-07-14T09:24:55Z</time>
      </trkpt>
      <trkpt lat="46.15508" lon="6.39858">
        <ele>650</ele>
        <time>2012-07-14T09:24:56Z</time>
      </trkpt>
      <trkpt lat="46.15522" lon="6.3987">
        <ele>650</ele>
        <time>2012-07-14T09:24:57Z</time>
      </trkpt>
      <trkpt lat="46.15538" lon="6.39881">
        <ele>655</ele>
        <time>2012-07-14T09:24:58Z</time>
      </trkpt>
      <trkpt lat="46.15553" lon="6.39892">
        <ele>655</ele>
        <time>2012-07-14T09:24:59Z</time>
      </trkpt>
      <trkpt lat="46.15569" lon="6.39902">
        <ele>655</ele>
        <time>2012-07-14T09:25:00Z</time>
      </trkpt>
      <trkpt lat="46.15586" lon="6.39914">
        <ele>655</ele>
        <time>2012-07-14T09:25:01Z</time>
      </trkpt>
      <trkpt lat="46.15601" lon="6.39925">
        <ele>655</ele>
        <time>2012-07-14T09:25:02Z</time>
      </trkpt>
      <trkpt lat="46.15615" lon="6.39934">
        <ele>655</ele>
        <time>2012-07-14T09:25:03Z</time>
      </trkpt>
      <trkpt lat="46.15627" lon="6.39943">
        <ele>655</ele>
        <time>2012-07-14T09:25:04Z</time>
      </trkpt>
      <trkpt lat="46.15638" lon="6.3995">
        <ele>655</ele>
        <time>2012-07-14T09:25:05Z</time>
      </trkpt>
      <trkpt lat="46.15648" lon="6.39957">
        <ele>661</ele>
        <time>2012-07-14T09:25:06Z</time>
      </trkpt>
      <trkpt lat="46.15656" lon="6.39963">
        <ele>661</ele>
        <time>2012-07-14T09:25:07Z</time>
      </trkpt>
      <trkpt lat="46.15671" lon="6.39973">
        <ele>661</ele>
        <time>2012-07-14T09:25:09Z</time>
      </trkpt>
      <trkpt lat="46.15682" lon="6.3998">
        <ele>661</ele>
        <time>2012-07-14T09:25:11Z</time>
      </trkpt>
      <trkpt lat="46.15691" lon="6.39975">
        <ele>669</ele>
        <time>2012-07-14T09:25:28Z</time>
      </trkpt>
      <trkpt lat="46.15702" lon="6.39982">
        <ele>669</ele>
        <time>2012-07-14T09:25:31Z</time>
      </trkpt>
      <trkpt lat="46.15715" lon="6.39982">
        <ele>669</ele>
        <time>2012-07-14T09:25:33Z</time>
      </trkpt>
      <trkpt lat="46.15732" lon="6.39979">
        <ele>669</ele>
        <time>2012-07-14T09:25:35Z</time>
      </trkpt>
      <trkpt lat="46.15741" lon="6.39975">
        <ele>669</ele>
        <time>2012-07-14T09:25:36Z</time>
      </trkpt>
      <trkpt lat="46.1575" lon="6.39971">
        <ele>669</ele>
        <time>2012-07-14T09:25:37Z</time>
      </trkpt>
      <trkpt lat="46.15767" lon="6.39963">
        <ele>669</ele>
        <time>2012-07-14T09:25:39Z</time>
      </trkpt>
      <trkpt lat="46.15781" lon="6.3996">
        <ele>669</ele>
        <time>2012-07-14T09:25:41Z</time>
      </trkpt>
      <trkpt lat="46.15794" lon="6.39967">
        <ele>669</ele>
        <time>2012-07-14T09:25:43Z</time>
      </trkpt>
      <trkpt lat="46.15802" lon="6.3998">
        <ele>669</ele>
        <time>2012-07-14T09:25:45Z</time>
      </trkpt>
      <trkpt lat="46.1581" lon="6.3999">
        <ele>669</ele>
        <time>2012-07-14T09:25:48Z</time>
      </trkpt>
      <trkpt lat="46.15822" lon="6.3998">
        <ele>669</ele>
        <time>2012-07-14T09:25:51Z</time>
      </trkpt>
      <trkpt lat="46.1583" lon="6.39963">
        <ele>669</ele>
        <time>2012-07-14T09:25:53Z</time>
      </trkpt>
      <trkpt lat="46.15837" lon="6.39953">
        <ele>669</ele>
        <time>2012-07-14T09:25:54Z</time>
      </trkpt>
      <trkpt lat="46.15843" lon="6.39943">
        <ele>675</ele>
        <time>2012-07-14T09:25:55Z</time>
      </trkpt>
      <trkpt lat="46.15858" lon="6.39928">
        <ele>675</ele>
        <time>2012-07-14T09:25:57Z</time>
      </trkpt>
      <trkpt lat="46.15868" lon="6.39921">
        <ele>680</ele>
        <time>2012-07-14T09:25:58Z</time>
      </trkpt>
      <trkpt lat="46.15878" lon="6.39916">
        <ele>680</ele>
        <time>2012-07-14T09:25:59Z</time>
      </trkpt>
      <trkpt lat="46.15889" lon="6.39911">
        <ele>686</ele>
        <time>2012-07-14T09:26:00Z</time>
      </trkpt>
      <trkpt lat="46.15903" lon="6.39907">
        <ele>686</ele>
        <time>2012-07-14T09:26:01Z</time>
      </trkpt>
      <trkpt lat="46.15917" lon="6.39904">
        <ele>686</ele>
        <time>2012-07-14T09:26:02Z</time>
      </trkpt>
      <trkpt lat="46.15929" lon="6.39903">
        <ele>691</ele>
        <time>2012-07-14T09:26:03Z</time>
      </trkpt>
      <trkpt lat="46.1594" lon="6.39902">
        <ele>691</ele>
        <time>2012-07-14T09:26:04Z</time>
      </trkpt>
      <trkpt lat="46.1595" lon="6.39899">
        <ele>691</ele>
        <time>2012-07-14T09:26:05Z</time>
      </trkpt>
      <trkpt lat="46.1596" lon="6.39896">
        <ele>691</ele>
        <time>2012-07-14T09:26:06Z</time>
      </trkpt>
      <trkpt lat="46.15975" lon="6.39892">
        <ele>698</ele>
        <time>2012-07-14T09:26:08Z</time>
      </trkpt>
      <trkpt lat="46.1599" lon="6.3989">
        <ele>698</ele>
        <time>2012-07-14T09:26:11Z</time>
      </trkpt>
      <trkpt lat="46.16" lon="6.39888">
        <ele>704</ele>
        <time>2012-07-14T09:26:13Z</time>
      </trkpt>
      <trkpt lat="46.1601" lon="6.39885">
        <ele>704</ele>
        <time>2012-07-14T09:26:15Z</time>
      </trkpt>
      <trkpt lat="46.16019" lon="6.3988">
        <ele>704</ele>
        <time>2012-07-14T09:26:17Z</time>
      </trkpt>
      <trkpt lat="46.16027" lon="6.39873">
        <ele>712</ele>
        <time>2012-07-14T09:26:19Z</time>
      </trkpt>
      <trkpt lat="46.16034" lon="6.39864">
        <ele>712</ele>
        <time>2012-07-14T09:26:21Z</time>
      </trkpt>
      <trkpt lat="46.16044" lon="6.39849">
        <ele>718</ele>
        <time>2012-07-14T09:26:23Z</time>
      </trkpt>
      <trkpt lat="46.16054" lon="6.39833">
        <ele>718</ele>
        <time>2012-07-14T09:26:25Z</time>
      </trkpt>
      <trkpt lat="46.16065" lon="6.39819">
        <ele>718</ele>
        <time>2012-07-14T09:26:27Z</time>
      </trkpt>
      <trkpt lat="46.16077" lon="6.39804">
        <ele>718</ele>
        <time>2012-07-14T09:26:29Z</time>
      </trkpt>
      <trkpt lat="46.16084" lon="6.39795">
        <ele>718</ele>
        <time>2012-07-14T09:26:30Z</time>
      </trkpt>
      <trkpt lat="46.161" lon="6.39783">
        <ele>725</ele>
        <time>2012-07-14T09:26:32Z</time>
      </trkpt>
      <trkpt lat="46.16109" lon="6.39778">
        <ele>725</ele>
        <time>2012-07-14T09:26:33Z</time>
      </trkpt>
      <trkpt lat="46.16125" lon="6.39777">
        <ele>730</ele>
        <time>2012-07-14T09:26:35Z</time>
      </trkpt>
      <trkpt lat="46.16135" lon="6.39776">
        <ele>730</ele>
        <time>2012-07-14T09:26:37Z</time>
      </trkpt>
      <trkpt lat="46.16146" lon="6.39776">
        <ele>738</ele>
        <time>2012-07-14T09:26:51Z</time>
      </trkpt>
      <trkpt lat="46.16158" lon="6.39781">
        <ele>738</ele>
        <time>2012-07-14T09:26:53Z</time>
      </trkpt>
      <trkpt lat="46.16174" lon="6.39786">
        <ele>738</ele>
        <time>2012-07-14T09:26:55Z</time>
      </trkpt>
      <trkpt lat="46.16184" lon="6.39786">
        <ele>738</ele>
        <time>2012-07-14T09:26:56Z</time>
      </trkpt>
      <trkpt lat="46.16194" lon="6.39784">
        <ele>738</ele>
        <time>2012-07-14T09:26:57Z</time>
      </trkpt>
      <trkpt lat="46.16204" lon="6.3978">
        <ele>738</ele>
        <time>2012-07-14T09:26:58Z</time>
      </trkpt>
      <trkpt lat="46.16216" lon="6.39777">
        <ele>744</ele>
        <time>2012-07-14T09:26:59Z</time>
      </trkpt>
      <trkpt lat="46.16226" lon="6.39774">
        <ele>744</ele>
        <time>2012-07-14T09:27:00Z</time>
      </trkpt>
      <trkpt lat="46.16238" lon="6.3977">
        <ele>744</ele>
        <time>2012-07-14T09:27:01Z</time>
      </trkpt>
      <trkpt lat="46.16249" lon="6.3977">
        <ele>744</ele>
        <time>2012-07-14T09:27:02Z</time>
      </trkpt>
      <trkpt lat="46.1626" lon="6.3977">
        <ele>751</ele>
        <time>2012-07-14T09:27:03Z</time>
      </trkpt>
      <trkpt lat="46.16272" lon="6.39771">
        <ele>751</ele>
        <time>2012-07-14T09:27:04Z</time>
      </trkpt>
      <trkpt lat="46.16283" lon="6.3977">
        <ele>751</ele>
        <time>2012-07-14T09:27:05Z</time>
      </trkpt>
      <trkpt lat="46.16294" lon="6.39769">
        <ele>751</ele>
        <time>2012-07-14T09:27:06Z</time>
      </trkpt>
      <trkpt lat="46.16304" lon="6.39765">
        <ele>751</ele>
        <time>2012-07-14T09:27:07Z</time>
      </trkpt>
      <trkpt lat="46.16314" lon="6.3976">
        <ele>756</ele>
        <time>2012-07-14T09:27:08Z</time>
      </trkpt>
      <trkpt lat="46.16324" lon="6.39756">
        <ele>756</ele>
        <time>2012-07-14T09:27:09Z</time>
      </trkpt>
      <trkpt lat="46.16334" lon="6.39753">
        <ele>756</ele>
        <time>2012-07-14T09:27:10Z</time>
      </trkpt>
      <trkpt lat="46.16352" lon="6.39752">
        <ele>764</ele>
        <time>2012-07-14T09:27:12Z</time>
      </trkpt>
      <trkpt lat="46.16367" lon="6.39758">
        <ele>764</ele>
        <time>2012-07-14T09:27:14Z</time>
      </trkpt>
      <trkpt lat="46.16379" lon="6.39766">
        <ele>771</ele>
        <time>2012-07-14T09:27:16Z</time>
      </trkpt>
      <trkpt lat="46.16388" lon="6.39761">
        <ele>777</ele>
        <time>2012-07-14T09:27:21Z</time>
      </trkpt>
      <trkpt lat="46.16392" lon="6.39747">
        <ele>777</ele>
        <time>2012-07-14T09:27:24Z</time>
      </trkpt>
      <trkpt lat="46.16397" lon="6.39733">
        <ele>777</ele>
        <time>2012-07-14T09:27:26Z</time>
      </trkpt>
      <trkpt lat="46.16406" lon="6.39716">
        <ele>777</ele>
        <time>2012-07-14T09:27:28Z</time>
      </trkpt>
      <trkpt lat="46.16416" lon="6.39695">
        <ele>777</ele>
        <time>2012-07-14T09:27:30Z</time>
      </trkpt>
      <trkpt lat="46.1642" lon="6.39682">
        <ele>777</ele>
        <time>2012-07-14T09:27:31Z</time>
      </trkpt>
      <trkpt lat="46.16423" lon="6.39668">
        <ele>777</ele>
        <time>2012-07-14T09:27:32Z</time>
      </trkpt>
      <trkpt lat="46.16426" lon="6.39654">
        <ele>772</ele>
        <time>2012-07-14T09:27:33Z</time>
      </trkpt>
      <trkpt lat="46.16428" lon="6.39637">
        <ele>772</ele>
        <time>2012-07-14T09:27:34Z</time>
      </trkpt>
      <trkpt lat="46.1643" lon="6.39623">
        <ele>772</ele>
        <time>2012-07-14T09:27:35Z</time>
      </trkpt>
      <trkpt lat="46.16431" lon="6.3961">
        <ele>772</ele>
        <time>2012-07-14T09:27:36Z</time>
      </trkpt>
      <trkpt lat="46.1643" lon="6.3959">
        <ele>772</ele>
        <time>2012-07-14T09:27:38Z</time>
      </trkpt>
      <trkpt lat="46.16427" lon="6.39571">
        <ele>772</ele>
        <time>2012-07-14T09:27:40Z</time>
      </trkpt>
      <trkpt lat="46.16425" lon="6.39545">
        <ele>772</ele>
        <time>2012-07-14T09:27:42Z</time>
      </trkpt>
      <trkpt lat="46.16425" lon="6.39531">
        <ele>772</ele>
        <time>2012-07-14T09:27:43Z</time>
      </trkpt>
      <trkpt lat="46.16429" lon="6.39507">
        <ele>772</ele>
        <time>2012-07-14T09:27:45Z</time>
      </trkpt>
      <trkpt lat="46.16441" lon="6.39486">
        <ele>772</ele>
        <time>2012-07-14T09:27:47Z</time>
      </trkpt>
      <trkpt lat="46.16449" lon="6.39477">
        <ele>772</ele>
        <time>2012-07-14T09:27:48Z</time>
      </trkpt>
      <trkpt lat="46.16456" lon="6.39467">
        <ele>778</ele>
        <time>2012-07-14T09:27:49Z</time>
      </trkpt>
      <trkpt lat="46.16465" lon="6.39457">
        <ele>778</ele>
        <time>2012-07-14T09:27:50Z</time>
      </trkpt>
      <trkpt lat="46.16471" lon="6.39446">
        <ele>778</ele>
        <time>2012-07-14T09:27:51Z</time>
      </trkpt>
      <trkpt lat="46.16479" lon="6.39436">
        <ele>778</ele>
        <time>2012-07-14T09:27:52Z</time>
      </trkpt>
      <trkpt lat="46.16486" lon="6.39427">
        <ele>778</ele>
        <time>2012-07-14T09:27:53Z</time>
      </trkpt>
      <trkpt lat="46.16494" lon="6.39419">
        <ele>784</ele>
        <time>2012-07-14T09:27:54Z</time>
      </trkpt>
      <trkpt lat="46.16503" lon="6.39414">
        <ele>784</ele>
        <time>2012-07-14T09:27:55Z</time>
      </trkpt>
      <trkpt lat="46.16512" lon="6.39409">
        <ele>784</ele>
        <time>2012-07-14T09:27:56Z</time>
      </trkpt>
      <trkpt lat="46.16521" lon="6.39407">
        <ele>784</ele>
        <time>2012-07-14T09:27:57Z</time>
      </trkpt>
      <trkpt lat="46.16531" lon="6.39406">
        <ele>789</ele>
        <time>2012-07-14T09:27:58Z</time>
      </trkpt>
      <trkpt lat="46.16548" lon="6.39405">
        <ele>789</ele>
        <time>2012-07-14T09:28:00Z</time>
      </trkpt>
      <trkpt lat="46.16556" lon="6.39401">
        <ele>796</ele>
        <time>2012-07-14T09:28:02Z</time>
      </trkpt>
      <trkpt lat="46.16559" lon="6.39385">
        <ele>796</ele>
        <time>2012-07-14T09:28:13Z</time>
      </trkpt>
      <trkpt lat="46.16564" lon="6.39364">
        <ele>796</ele>
        <time>2012-07-14T09:28:15Z</time>
      </trkpt>
      <trkpt lat="46.16575" lon="6.39343">
        <ele>801</ele>
        <time>2012-07-14T09:28:17Z</time>
      </trkpt>
      <trkpt lat="46.16584" lon="6.39333">
        <ele>801</ele>
        <time>2012-07-14T09:28:18Z</time>
      </trkpt>
      <trkpt lat="46.16594" lon="6.39322">
        <ele>801</ele>
        <time>2012-07-14T09:28:19Z</time>
      </trkpt>
      <trkpt lat="46.16606" lon="6.39309">
        <ele>801</ele>
        <time>2012-07-14T09:28:20Z</time>
      </trkpt>
      <trkpt lat="46.16619" lon="6.39293">
        <ele>807</ele>
        <time>2012-07-14T09:28:21Z</time>
      </trkpt>
      <trkpt lat="46.16634" lon="6.39277">
        <ele>807</ele>
        <time>2012-07-14T09:28:22Z</time>
      </trkpt>
      <trkpt lat="46.16649" lon="6.3926">
        <ele>807</ele>
        <time>2012-07-14T09:28:23Z</time>
      </trkpt>
      <trkpt lat="46.16662" lon="6.39245">
        <ele>813</ele>
        <time>2012-07-14T09:28:24Z</time>
      </trkpt>
      <trkpt lat="46.16675" lon="6.39231">
        <ele>813</ele>
        <time>2012-07-14T09:28:25Z</time>
      </trkpt>
      <trkpt lat="46.16687" lon="6.39218">
        <ele>813</ele>
        <time>2012-07-14T09:28:26Z</time>
      </trkpt>
      <trkpt lat="46.16699" lon="6.39206">
        <ele>820</ele>
        <time>2012-07-14T09:28:27Z</time>
      </trkpt>
      <trkpt lat="46.16712" lon="6.39194">
        <ele>820</ele>
        <time>2012-07-14T09:28:28Z</time>
      </trkpt>
      <trkpt lat="46.16724" lon="6.39185">
        <ele>820</ele>
        <time>2012-07-14T09:28:29Z</time>
      </trkpt>
      <trkpt lat="46.16735" lon="6.39178">
        <ele>827</ele>
        <time>2012-07-14T09:28:30Z</time>
      </trkpt>
      <trkpt lat="46.16747" lon="6.39172">
        <ele>827</ele>
        <time>2012-07-14T09:28:31Z</time>
      </trkpt>
      <trkpt lat="46.16755" lon="6.39168">
        <ele>827</ele>
        <time>2012-07-14T09:28:32Z</time>
      </trkpt>
      <trkpt lat="46.1677" lon="6.39158">
        <ele>834</ele>
        <time>2012-07-14T09:28:34Z</time>
      </trkpt>
      <trkpt lat="46.16784" lon="6.39149">
        <ele>834</ele>
        <time>2012-07-14T09:28:36Z</time>
      </trkpt>
      <trkpt lat="46.16795" lon="6.39135">
        <ele>841</ele>
        <time>2012-07-14T09:28:38Z</time>
      </trkpt>
      <trkpt lat="46.16804" lon="6.39121">
        <ele>841</ele>
        <time>2012-07-14T09:28:40Z</time>
      </trkpt>
      <trkpt lat="46.16817" lon="6.39111">
        <ele>841</ele>
        <time>2012-07-14T09:28:42Z</time>
      </trkpt>
      <trkpt lat="46.16832" lon="6.39102">
        <ele>848</ele>
        <time>2012-07-14T09:28:44Z</time>
      </trkpt>
      <trkpt lat="46.16845" lon="6.39095">
        <ele>848</ele>
        <time>2012-07-14T09:28:46Z</time>
      </trkpt>
      <trkpt lat="46.16856" lon="6.39095">
        <ele>853</ele>
        <time>2012-07-14T09:28:48Z</time>
      </trkpt>
      <trkpt lat="46.16868" lon="6.39099">
        <ele>853</ele>
        <time>2012-07-14T09:28:50Z</time>
      </trkpt>
      <trkpt lat="46.1688" lon="6.39097">
        <ele>853</ele>
        <time>2012-07-14T09:28:52Z</time>
      </trkpt>
      <trkpt lat="46.16888" lon="6.39081">
        <ele>853</ele>
        <time>2012-07-14T09:28:54Z</time>
      </trkpt>
      <trkpt lat="46.16896" lon="6.3907">
        <ele>853</ele>
        <time>2012-07-14T09:28:56Z</time>
      </trkpt>
      <trkpt lat="46.16901" lon="6.39058">
        <ele>859</ele>
        <time>2012-07-14T09:28:59Z</time>
      </trkpt>
      <trkpt lat="46.16904" lon="6.39042">
        <ele>859</ele>
        <time>2012-07-14T09:29:01Z</time>
      </trkpt>
      <trkpt lat="46.16906" lon="6.3902">
        <ele>859</ele>
        <time>2012-07-14T09:29:03Z</time>
      </trkpt>
      <trkpt lat="46.16907" lon="6.38996">
        <ele>859</ele>
        <time>2012-07-14T09:29:05Z</time>
      </trkpt>
      <trkpt lat="46.16905" lon="6.38974">
        <ele>859</ele>
        <time>2012-07-14T09:29:07Z</time>
      </trkpt>
      <trkpt lat="46.169" lon="6.38956">
        <ele>853</ele>
        <time>2012-07-14T09:29:09Z</time>
      </trkpt>
      <trkpt lat="46.16891" lon="6.38944">
        <ele>853</ele>
        <time>2012-07-14T09:29:11Z</time>
      </trkpt>
      <trkpt lat="46.16875" lon="6.38941">
        <ele>853</ele>
        <time>2012-07-14T09:29:13Z</time>
      </trkpt>
      <trkpt lat="46.16865" lon="6.38947">
        <ele>853</ele>
        <time>2012-07-14T09:29:14Z</time>
      </trkpt>
      <trkpt lat="46.16853" lon="6.38953">
        <ele>848</ele>
        <time>2012-07-14T09:29:15Z</time>
      </trkpt>
      <trkpt lat="46.16842" lon="6.38959">
        <ele>848</ele>
        <time>2012-07-14T09:29:16Z</time>
      </trkpt>
      <trkpt lat="46.16833" lon="6.38964">
        <ele>848</ele>
        <time>2012-07-14T09:29:17Z</time>
      </trkpt>
      <trkpt lat="46.16823" lon="6.38968">
        <ele>848</ele>
        <time>2012-07-14T09:29:18Z</time>
      </trkpt>
      <trkpt lat="46.16813" lon="6.38972">
        <ele>848</ele>
        <time>2012-07-14T09:29:19Z</time>
      </trkpt>
      <trkpt lat="46.16804" lon="6.38976">
        <ele>848</ele>
        <time>2012-07-14T09:29:20Z</time>
      </trkpt>
      <trkpt lat="46.16795" lon="6.38979">
        <ele>848</ele>
        <time>2012-07-14T09:29:21Z</time>
      </trkpt>
      <trkpt lat="46.16785" lon="6.38982">
        <ele>843</ele>
        <time>2012-07-14T09:29:22Z</time>
      </trkpt>
      <trkpt lat="46.16776" lon="6.38983">
        <ele>843</ele>
        <time>2012-07-14T09:29:23Z</time>
      </trkpt>
      <trkpt lat="46.16766" lon="6.38984">
        <ele>843</ele>
        <time>2012-07-14T09:29:24Z</time>
      </trkpt>
      <trkpt lat="46.16757" lon="6.38985">
        <ele>843</ele>
        <time>2012-07-14T09:29:25Z</time>
      </trkpt>
      <trkpt lat="46.1674" lon="6.38987">
        <ele>843</ele>
        <time>2012-07-14T09:29:27Z</time>
      </trkpt>
      <trkpt lat="46.16729" lon="6.38986">
        <ele>837</ele>
        <time>2012-07-14T09:29:29Z</time>
      </trkpt>
      <trkpt lat="46.16743" lon="6.38985">
        <ele>837</ele>
        <time>2012-07-14T09:29:40Z</time>
      </trkpt>
      <trkpt lat="46.16754" lon="6.38982">
        <ele>832</ele>
        <time>2012-07-14T09:29:42Z</time>
      </trkpt>
      <trkpt lat="46.16764" lon="6.38973">
        <ele>832</ele>
        <time>2012-07-14T09:29:44Z</time>
      </trkpt>
      <trkpt lat="46.16774" lon="6.3897">
        <ele>832</ele>
        <time>2012-07-14T09:29:46Z</time>
      </trkpt>
      <trkpt lat="46.16782" lon="6.38962">
        <ele>832</ele>
        <time>2012-07-14T09:29:48Z</time>
      </trkpt>
      <trkpt lat="46.16793" lon="6.38948">
        <ele>832</ele>
        <time>2012-07-14T09:29:50Z</time>
      </trkpt>
      <trkpt lat="46.16803" lon="6.38939">
        <ele>840</ele>
        <time>2012-07-14T09:29:52Z</time>
      </trkpt>
      <trkpt lat="46.1681" lon="6.3893">
        <ele>840</ele>
        <time>2012-07-14T09:29:54Z</time>
      </trkpt>
      <trkpt lat="46.1682" lon="6.3892">
        <ele>849</ele>
        <time>2012-07-14T09:29:56Z</time>
      </trkpt>
      <trkpt lat="46.16831" lon="6.38909">
        <ele>849</ele>
        <time>2012-07-14T09:29:58Z</time>
      </trkpt>
      <trkpt lat="46.1684" lon="6.389">
        <ele>856</ele>
        <time>2012-07-14T09:30:01Z</time>
      </trkpt>
      <trkpt lat="46.16833" lon="6.38886">
        <ele>856</ele>
        <time>2012-07-14T09:30:05Z</time>
      </trkpt>
      <trkpt lat="46.16827" lon="6.38876">
        <ele>863</ele>
        <time>2012-07-14T09:30:07Z</time>
      </trkpt>
      <trkpt lat="46.1682" lon="6.38867">
        <ele>863</ele>
        <time>2012-07-14T09:30:09Z</time>
      </trkpt>
      <trkpt lat="46.16828" lon="6.38856">
        <ele>874</ele>
        <time>2012-07-14T09:30:15Z</time>
      </trkpt>
      <trkpt lat="46.1684" lon="6.38855">
        <ele>874</ele>
        <time>2012-07-14T09:30:17Z</time>
      </trkpt>
      <trkpt lat="46.16853" lon="6.38852">
        <ele>880</ele>
        <time>2012-07-14T09:30:19Z</time>
      </trkpt>
      <trkpt lat="46.16867" lon="6.38845">
        <ele>880</ele>
        <time>2012-07-14T09:30:21Z</time>
      </trkpt>
      <trkpt lat="46.1688" lon="6.38837">
        <ele>888</ele>
        <time>2012-07-14T09:30:23Z</time>
      </trkpt>
      <trkpt lat="46.16888" lon="6.38828">
        <ele>888</ele>
        <time>2012-07-14T09:30:25Z</time>
      </trkpt>
      <trkpt lat="46.16896" lon="6.38817">
        <ele>896</ele>
        <time>2012-07-14T09:30:28Z</time>
      </trkpt>
      <trkpt lat="46.16886" lon="6.38806">
        <ele>896</ele>
        <time>2012-07-14T09:30:31Z</time>
      </trkpt>
      <trkpt lat="46.16876" lon="6.38797">
        <ele>905</ele>
        <time>2012-07-14T09:30:33Z</time>
      </trkpt>
      <trkpt lat="46.16867" lon="6.38789">
        <ele>905</ele>
        <time>2012-07-14T09:30:35Z</time>
      </trkpt>
      <trkpt lat="46.1686" lon="6.38779">
        <ele>913</ele>
        <time>2012-07-14T09:30:37Z</time>
      </trkpt>
      <trkpt lat="46.16853" lon="6.38767">
        <ele>913</ele>
        <time>2012-07-14T09:30:39Z</time>
      </trkpt>
      <trkpt lat="46.16845" lon="6.38758">
        <ele>919</ele>
        <time>2012-07-14T09:30:41Z</time>
      </trkpt>
      <trkpt lat="46.16835" lon="6.38749">
        <ele>919</ele>
        <time>2012-07-14T09:30:44Z</time>
      </trkpt>
      <trkpt lat="46.16825" lon="6.38742">
        <ele>927</ele>
        <time>2012-07-14T09:30:47Z</time>
      </trkpt>
      <trkpt lat="46.16817" lon="6.38733">
        <ele>927</ele>
        <time>2012-07-14T09:31:12Z</time>
      </trkpt>
      <trkpt lat="46.16809" lon="6.3872">
        <ele>927</ele>
        <time>2012-07-14T09:31:14Z</time>
      </trkpt>
      <trkpt lat="46.16802" lon="6.38708">
        <ele>927</ele>
        <time>2012-07-14T09:31:16Z</time>
      </trkpt>
      <trkpt lat="46.16795" lon="6.38697">
        <ele>940</ele>
        <time>2012-07-14T09:39:36Z</time>
      </trkpt>
      <trkpt lat="46.16807" lon="6.38702">
        <ele>940</ele>
        <time>2012-07-14T09:39:51Z</time>
      </trkpt>
      <trkpt lat="46.16816" lon="6.38706">
        <ele>940</ele>
        <time>2012-07-14T09:39:54Z</time>
      </trkpt>
      <trkpt lat="46.16826" lon="6.38705">
        <ele>940</ele>
        <time>2012-07-14T09:39:57Z</time>
      </trkpt>
      <trkpt lat="46.16837" lon="6.38703">
        <ele>946</ele>
        <time>2012-07-14T09:40:01Z</time>
      </trkpt>
      <trkpt lat="46.16846" lon="6.38705">
        <ele>946</ele>
        <time>2012-07-14T09:40:08Z</time>
      </trkpt>
      <trkpt lat="46.16855" lon="6.38701">
        <ele>946</ele>
        <time>2012-07-14T09:40:14Z</time>
      </trkpt>
      <trkpt lat="46.16865" lon="6.38696">
        <ele>946</ele>
        <time>2012-07-14T09:40:19Z</time>
      </trkpt>
      <trkpt lat="46.16874" lon="6.38691">
        <ele>946</ele>
        <time>2012-07-14T09:40:23Z</time>
      </trkpt>
      <trkpt lat="46.16885" lon="6.3869">
        <ele>946</ele>
        <time>2012-07-14T09:40:27Z</time>
      </trkpt>
      <trkpt lat="46.16894" lon="6.3869">
        <ele>946</ele>
        <time>2012-07-14T09:40:32Z</time>
      </trkpt>
      <trkpt lat="46.16903" lon="6.38698">
        <ele>946</ele>
        <time>2012-07-14T09:40:37Z</time>
      </trkpt>
      <trkpt lat="46.16911" lon="6.38701">
        <ele>946</ele>
        <time>2012-07-14T09:40:42Z</time>
      </trkpt>
      <trkpt lat="46.16923" lon="6.38701">
        <ele>940</ele>
        <time>2012-07-14T09:40:47Z</time>
      </trkpt>
      <trkpt lat="46.16932" lon="6.38702">
        <ele>940</ele>
        <time>2012-07-14T09:40:51Z</time>
      </trkpt>
      <trkpt lat="46.16941" lon="6.38701">
        <ele>940</ele>
        <time>2012-07-14T09:41:46Z</time>
      </trkpt>
      <trkpt lat="46.16945" lon="6.38714">
        <ele>940</ele>
        <time>2012-07-14T09:42:45Z</time>
      </trkpt>
      <trkpt lat="46.16955" lon="6.38718">
        <ele>932</ele>
        <time>2012-07-14T09:43:33Z</time>
      </trkpt>
      <trkpt lat="46.1696" lon="6.38729">
        <ele>932</ele>
        <time>2012-07-14T09:43:39Z</time>
      </trkpt>
      <trkpt lat="46.16969" lon="6.38723">
        <ele>938</ele>
        <time>2012-07-14T09:44:13Z</time>
      </trkpt>
      <trkpt lat="46.16965" lon="6.38738">
        <ele>929</ele>
        <time>2012-07-14T09:45:01Z</time>
      </trkpt>
      <trkpt lat="46.16972" lon="6.38752">
        <ele>929</ele>
        <time>2012-07-14T09:45:05Z</time>
      </trkpt>
      <trkpt lat="46.16981" lon="6.38759">
        <ele>920</ele>
        <time>2012-07-14T09:45:27Z</time>
      </trkpt>
      <trkpt lat="46.16993" lon="6.38759">
        <ele>920</ele>
        <time>2012-07-14T09:45:31Z</time>
      </trkpt>
      <trkpt lat="46.17003" lon="6.38754">
        <ele>920</ele>
        <time>2012-07-14T09:45:34Z</time>
      </trkpt>
      <trkpt lat="46.17013" lon="6.38751">
        <ele>920</ele>
        <time>2012-07-14T09:45:37Z</time>
      </trkpt>
      <trkpt lat="46.17024" lon="6.38753">
        <ele>920</ele>
        <time>2012-07-14T09:45:40Z</time>
      </trkpt>
      <trkpt lat="46.17038" lon="6.38749">
        <ele>920</ele>
        <time>2012-07-14T09:45:43Z</time>
      </trkpt>
      <trkpt lat="46.17048" lon="6.38744">
        <ele>920</ele>
        <time>2012-07-14T09:45:45Z</time>
      </trkpt>
      <trkpt lat="46.17057" lon="6.3874">
        <ele>920</ele>
        <time>2012-07-14T09:45:47Z</time>
      </trkpt>
      <trkpt lat="46.17069" lon="6.38732">
        <ele>927</ele>
        <time>2012-07-14T09:45:50Z</time>
      </trkpt>
      <trkpt lat="46.17079" lon="6.38726">
        <ele>927</ele>
        <time>2012-07-14T09:45:53Z</time>
      </trkpt>
      <trkpt lat="46.17089" lon="6.38722">
        <ele>933</ele>
        <time>2012-07-14T09:45:58Z</time>
      </trkpt>
      <trkpt lat="46.17099" lon="6.38723">
        <ele>933</ele>
        <time>2012-07-14T09:46:02Z</time>
      </trkpt>
      <trkpt lat="46.17109" lon="6.38725">
        <ele>933</ele>
        <time>2012-07-14T09:46:05Z</time>
      </trkpt>
      <trkpt lat="46.17121" lon="6.38727">
        <ele>933</ele>
        <time>2012-07-14T09:46:08Z</time>
      </trkpt>
      <trkpt lat="46.17134" lon="6.38726">
        <ele>933</ele>
        <time>2012-07-14T09:46:11Z</time>
      </trkpt>
      <trkpt lat="46.17145" lon="6.38724">
        <ele>933</ele>
        <time>2012-07-14T09:46:15Z</time>
      </trkpt>
      <trkpt lat="46.17155" lon="6.38719">
        <ele>933</ele>
        <time>2012-07-14T09:46:17Z</time>
      </trkpt>
      <trkpt lat="46.17165" lon="6.38716">
        <ele>938</ele>
        <time>2012-07-14T09:46:19Z</time>
      </trkpt>
      <trkpt lat="46.17174" lon="6.3871">
        <ele>938</ele>
        <time>2012-07-14T09:46:21Z</time>
      </trkpt>
      <trkpt lat="46.17183" lon="6.38707">
        <ele>938</ele>
        <time>2012-07-14T09:46:24Z</time>
      </trkpt>
      <trkpt lat="46.17194" lon="6.38706">
        <ele>938</ele>
        <time>2012-07-14T09:46:28Z</time>
      </trkpt>
      <trkpt lat="46.17208" lon="6.38706">
        <ele>938</ele>
        <time>2012-07-14T09:46:31Z</time>
      </trkpt>
      <trkpt lat="46.1722" lon="6.38705">
        <ele>943</ele>
        <time>2012-07-14T09:46:34Z</time>
      </trkpt>
      <trkpt lat="46.17232" lon="6.38705">
        <ele>943</ele>
        <time>2012-07-14T09:46:37Z</time>
      </trkpt>
      <trkpt lat="46.17241" lon="6.38705">
        <ele>943</ele>
        <time>2012-07-14T09:46:40Z</time>
      </trkpt>
      <trkpt lat="46.1725" lon="6.38706">
        <ele>943</ele>
        <time>2012-07-14T09:46:45Z</time>
      </trkpt>
      <trkpt lat="46.1726" lon="6.38706">
        <ele>943</ele>
        <time>2012-07-14T09:46:49Z</time>
      </trkpt>
      <trkpt lat="46.17269" lon="6.38711">
        <ele>943</ele>
        <time>2012-07-14T09:46:54Z</time>
      </trkpt>
      <trkpt lat="46.17281" lon="6.38715">
        <ele>934</ele>
        <time>2012-07-14T09:46:58Z</time>
      </trkpt>
      <trkpt lat="46.17294" lon="6.38715">
        <ele>934</ele>
        <time>2012-07-14T09:47:01Z</time>
      </trkpt>
      <trkpt lat="46.17308" lon="6.3872">
        <ele>929</ele>
        <time>2012-07-14T09:47:04Z</time>
      </trkpt>
      <trkpt lat="46.17326" lon="6.38726">
        <ele>929</ele>
        <time>2012-07-14T09:47:08Z</time>
      </trkpt>
      <trkpt lat="46.1734" lon="6.3873">
        <ele>929</ele>
        <time>2012-07-14T09:47:10Z</time>
      </trkpt>
      <trkpt lat="46.17351" lon="6.38729">
        <ele>929</ele>
        <time>2012-07-14T09:47:18Z</time>
      </trkpt>
      <trkpt lat="46.17361" lon="6.38727">
        <ele>929</ele>
        <time>2012-07-14T09:47:20Z</time>
      </trkpt>
      <trkpt lat="46.17373" lon="6.38728">
        <ele>929</ele>
        <time>2012-07-14T09:47:22Z</time>
      </trkpt>
      <trkpt lat="46.17383" lon="6.38737">
        <ele>929</ele>
        <time>2012-07-14T09:47:25Z</time>
      </trkpt>
      <trkpt lat="46.17392" lon="6.38748">
        <ele>934</ele>
        <time>2012-07-14T09:47:28Z</time>
      </trkpt>
      <trkpt lat="46.17403" lon="6.38752">
        <ele>964</ele>
        <time>2012-07-14T09:47:47Z</time>
      </trkpt>
      <trkpt lat="46.17412" lon="6.38758">
        <ele>957</ele>
        <time>2012-07-14T09:47:50Z</time>
      </trkpt>
      <trkpt lat="46.17419" lon="6.38768">
        <ele>949</ele>
        <time>2012-07-14T09:47:53Z</time>
      </trkpt>
      <trkpt lat="46.17423" lon="6.3878">
        <ele>940</ele>
        <time>2012-07-14T09:47:58Z</time>
      </trkpt>
      <trkpt lat="46.17424" lon="6.38796">
        <ele>940</ele>
        <time>2012-07-14T09:48:03Z</time>
      </trkpt>
      <trkpt lat="46.17426" lon="6.3881">
        <ele>927</ele>
        <time>2012-07-14T09:48:12Z</time>
      </trkpt>
      <trkpt lat="46.17427" lon="6.38828">
        <ele>927</ele>
        <time>2012-07-14T09:48:17Z</time>
      </trkpt>
      <trkpt lat="46.17428" lon="6.38845">
        <ele>920</ele>
        <time>2012-07-14T09:48:20Z</time>
      </trkpt>
      <trkpt lat="46.1743" lon="6.38859">
        <ele>920</ele>
        <time>2012-07-14T09:48:23Z</time>
      </trkpt>
      <trkpt lat="46.17431" lon="6.38878">
        <ele>920</ele>
        <time>2012-07-14T09:48:26Z</time>
      </trkpt>
      <trkpt lat="46.17436" lon="6.38892">
        <ele>920</ele>
        <time>2012-07-14T09:48:28Z</time>
      </trkpt>
      <trkpt lat="46.17441" lon="6.38909">
        <ele>920</ele>
        <time>2012-07-14T09:48:31Z</time>
      </trkpt>
      <trkpt lat="46.17445" lon="6.38921">
        <ele>920</ele>
        <time>2012-07-14T09:48:35Z</time>
      </trkpt>
      <trkpt lat="46.17448" lon="6.38907">
        <ele>929</ele>
        <time>2012-07-14T09:49:01Z</time>
      </trkpt>
      <trkpt lat="46.17458" lon="6.38904">
        <ele>929</ele>
        <time>2012-07-14T09:49:06Z</time>
      </trkpt>
      <trkpt lat="46.17468" lon="6.38898">
        <ele>929</ele>
        <time>2012-07-14T09:49:10Z</time>
      </trkpt>
      <trkpt lat="46.17477" lon="6.38896">
        <ele>929</ele>
        <time>2012-07-14T09:49:15Z</time>
      </trkpt>
      <trkpt lat="46.17477" lon="6.3888">
        <ele>929</ele>
        <time>2012-07-14T09:50:28Z</time>
      </trkpt>
      <trkpt lat="46.17469" lon="6.38873">
        <ele>929</ele>
        <time>2012-07-14T09:50:38Z</time>
      </trkpt>
      <trkpt lat="46.17459" lon="6.38879">
        <ele>929</ele>
        <time>2012-07-14T09:50:41Z</time>
      </trkpt>
      <trkpt lat="46.17449" lon="6.38878">
        <ele>935</ele>
        <time>2012-07-14T09:50:45Z</time>
      </trkpt>
      <trkpt lat="46.17439" lon="6.3887">
        <ele>935</ele>
        <time>2012-07-14T09:50:49Z</time>
      </trkpt>
      <trkpt lat="46.17433" lon="6.38861">
        <ele>935</ele>
        <time>2012-07-14T09:50:53Z</time>
      </trkpt>
      <trkpt lat="46.17431" lon="6.38847">
        <ele>935</ele>
        <time>2012-07-14T09:50:56Z</time>
      </trkpt>
      <trkpt lat="46.17429" lon="6.38829">
        <ele>935</ele>
        <time>2012-07-14T09:50:59Z</time>
      </trkpt>
      <trkpt lat="46.17428" lon="6.38815">
        <ele>935</ele>
        <time>2012-07-14T09:51:01Z</time>
      </trkpt>
      <trkpt lat="46.17427" lon="6.38799">
        <ele>935</ele>
        <time>2012-07-14T09:51:05Z</time>
      </trkpt>
      <trkpt lat="46.17424" lon="6.38784">
        <ele>929</ele>
        <time>2012-07-14T09:51:09Z</time>
      </trkpt>
      <trkpt lat="46.17419" lon="6.3877">
        <ele>929</ele>
        <time>2012-07-14T09:51:14Z</time>
      </trkpt>
      <trkpt lat="46.17414" lon="6.38757">
        <ele>929</ele>
        <time>2012-07-14T09:51:17Z</time>
      </trkpt>
      <trkpt lat="46.17406" lon="6.38747">
        <ele>929</ele>
        <time>2012-07-14T09:51:21Z</time>
      </trkpt>
      <trkpt lat="46.17397" lon="6.38747">
        <ele>929</ele>
        <time>2012-07-14T09:51:28Z</time>
      </trkpt>
      <trkpt lat="46.17388" lon="6.38751">
        <ele>937</ele>
        <time>2012-07-14T09:51:32Z</time>
      </trkpt>
      <trkpt lat="46.17379" lon="6.3876">
        <ele>937</ele>
        <time>2012-07-14T09:51:35Z</time>
      </trkpt>
      <trkpt lat="46.17368" lon="6.38768">
        <ele>937</ele>
        <time>2012-07-14T09:51:38Z</time>
      </trkpt>
      <trkpt lat="46.17358" lon="6.38773">
        <ele>937</ele>
        <time>2012-07-14T09:51:40Z</time>
      </trkpt>
      <trkpt lat="46.17347" lon="6.38772">
        <ele>937</ele>
        <time>2012-07-14T09:51:42Z</time>
      </trkpt>
      <trkpt lat="46.17336" lon="6.3877">
        <ele>929</ele>
        <time>2012-07-14T09:51:44Z</time>
      </trkpt>
      <trkpt lat="46.17324" lon="6.38768">
        <ele>929</ele>
        <time>2012-07-14T09:51:46Z</time>
      </trkpt>
      <trkpt lat="46.17313" lon="6.38766">
        <ele>923</ele>
        <time>2012-07-14T09:51:48Z</time>
      </trkpt>
      <trkpt lat="46.17301" lon="6.38763">
        <ele>923</ele>
        <time>2012-07-14T09:51:50Z</time>
      </trkpt>
      <trkpt lat="46.1729" lon="6.38767">
        <ele>923</ele>
        <time>2012-07-14T09:51:52Z</time>
      </trkpt>
      <trkpt lat="46.1728" lon="6.3877">
        <ele>917</ele>
        <time>2012-07-14T09:51:54Z</time>
      </trkpt>
      <trkpt lat="46.17268" lon="6.38777">
        <ele>917</ele>
        <time>2012-07-14T09:51:56Z</time>
      </trkpt>
      <trkpt lat="46.17259" lon="6.38785">
        <ele>917</ele>
        <time>2012-07-14T09:51:58Z</time>
      </trkpt>
      <trkpt lat="46.17249" lon="6.38791">
        <ele>917</ele>
        <time>2012-07-14T09:52:00Z</time>
      </trkpt>
      <trkpt lat="46.17239" lon="6.38794">
        <ele>910</ele>
        <time>2012-07-14T09:52:02Z</time>
      </trkpt>
      <trkpt lat="46.1723" lon="6.388">
        <ele>910</ele>
        <time>2012-07-14T09:52:04Z</time>
      </trkpt>
      <trkpt lat="46.17217" lon="6.38805">
        <ele>910</ele>
        <time>2012-07-14T09:52:07Z</time>
      </trkpt>
      <trkpt lat="46.17204" lon="6.3881">
        <ele>910</ele>
        <time>2012-07-14T09:52:09Z</time>
      </trkpt>
      <trkpt lat="46.1719" lon="6.38816">
        <ele>910</ele>
        <time>2012-07-14T09:52:11Z</time>
      </trkpt>
      <trkpt lat="46.17178" lon="6.38825">
        <ele>903</ele>
        <time>2012-07-14T09:52:13Z</time>
      </trkpt>
      <trkpt lat="46.17166" lon="6.38832">
        <ele>903</ele>
        <time>2012-07-14T09:52:15Z</time>
      </trkpt>
      <trkpt lat="46.17156" lon="6.38835">
        <ele>903</ele>
        <time>2012-07-14T09:52:17Z</time>
      </trkpt>
      <trkpt lat="46.17143" lon="6.38841">
        <ele>903</ele>
        <time>2012-07-14T09:52:20Z</time>
      </trkpt>
      <trkpt lat="46.17132" lon="6.38847">
        <ele>903</ele>
        <time>2012-07-14T09:52:22Z</time>
      </trkpt>
      <trkpt lat="46.17119" lon="6.38857">
        <ele>903</ele>
        <time>2012-07-14T09:52:24Z</time>
      </trkpt>
      <trkpt lat="46.17107" lon="6.38867">
        <ele>903</ele>
        <time>2012-07-14T09:52:26Z</time>
      </trkpt>
      <trkpt lat="46.17096" lon="6.38869">
        <ele>903</ele>
        <time>2012-07-14T09:52:29Z</time>
      </trkpt>
      <trkpt lat="46.17082" lon="6.38869">
        <ele>903</ele>
        <time>2012-07-14T09:52:32Z</time>
      </trkpt>
      <trkpt lat="46.1707" lon="6.38872">
        <ele>897</ele>
        <time>2012-07-14T09:52:34Z</time>
      </trkpt>
      <trkpt lat="46.1706" lon="6.38875">
        <ele>897</ele>
        <time>2012-07-14T09:52:37Z</time>
      </trkpt>
      <trkpt lat="46.17051" lon="6.38877">
        <ele>892</ele>
        <time>2012-07-14T09:52:39Z</time>
      </trkpt>
      <trkpt lat="46.1704" lon="6.38882">
        <ele>884</ele>
        <time>2012-07-14T09:52:43Z</time>
      </trkpt>
      <trkpt lat="46.17031" lon="6.38885">
        <ele>884</ele>
        <time>2012-07-14T09:52:46Z</time>
      </trkpt>
      <trkpt lat="46.17021" lon="6.38887">
        <ele>884</ele>
        <time>2012-07-14T09:52:49Z</time>
      </trkpt>
      <trkpt lat="46.17013" lon="6.38892">
        <ele>884</ele>
        <time>2012-07-14T09:52:51Z</time>
      </trkpt>
      <trkpt lat="46.17003" lon="6.38898">
        <ele>884</ele>
        <time>2012-07-14T09:52:53Z</time>
      </trkpt>
      <trkpt lat="46.16993" lon="6.38906">
        <ele>884</ele>
        <time>2012-07-14T09:52:56Z</time>
      </trkpt>
      <trkpt lat="46.16981" lon="6.38912">
        <ele>878</ele>
        <time>2012-07-14T09:52:59Z</time>
      </trkpt>
      <trkpt lat="46.16974" lon="6.3892">
        <ele>878</ele>
        <time>2012-07-14T09:53:01Z</time>
      </trkpt>
      <trkpt lat="46.16962" lon="6.38929">
        <ele>878</ele>
        <time>2012-07-14T09:53:04Z</time>
      </trkpt>
      <trkpt lat="46.16953" lon="6.38934">
        <ele>873</ele>
        <time>2012-07-14T09:53:06Z</time>
      </trkpt>
      <trkpt lat="46.16941" lon="6.38938">
        <ele>873</ele>
        <time>2012-07-14T09:53:09Z</time>
      </trkpt>
      <trkpt lat="46.16931" lon="6.38945">
        <ele>866</ele>
        <time>2012-07-14T09:53:12Z</time>
      </trkpt>
      <trkpt lat="46.1692" lon="6.3895">
        <ele>866</ele>
        <time>2012-07-14T09:53:14Z</time>
      </trkpt>
      <trkpt lat="46.1691" lon="6.38956">
        <ele>858</ele>
        <time>2012-07-14T09:53:17Z</time>
      </trkpt>
      <trkpt lat="46.16904" lon="6.38968">
        <ele>852</ele>
        <time>2012-07-14T09:53:21Z</time>
      </trkpt>
      <trkpt lat="46.16903" lon="6.38982">
        <ele>852</ele>
        <time>2012-07-14T09:53:23Z</time>
      </trkpt>
      <trkpt lat="46.16905" lon="6.38998">
        <ele>852</ele>
        <time>2012-07-14T09:53:25Z</time>
      </trkpt>
      <trkpt lat="46.16906" lon="6.39014">
        <ele>852</ele>
        <time>2012-07-14T09:53:46Z</time>
      </trkpt>
      <trkpt lat="46.16903" lon="6.39033">
        <ele>852</ele>
        <time>2012-07-14T09:53:48Z</time>
      </trkpt>
      <trkpt lat="46.169" lon="6.39059">
        <ele>852</ele>
        <time>2012-07-14T09:53:50Z</time>
      </trkpt>
      <trkpt lat="46.169" lon="6.39074">
        <ele>852</ele>
        <time>2012-07-14T09:53:51Z</time>
      </trkpt>
      <trkpt lat="46.169" lon="6.3909">
        <ele>852</ele>
        <time>2012-07-14T09:53:52Z</time>
      </trkpt>
      <trkpt lat="46.16899" lon="6.39107">
        <ele>852</ele>
        <time>2012-07-14T09:53:53Z</time>
      </trkpt>
      <trkpt lat="46.16898" lon="6.39125">
        <ele>852</ele>
        <time>2012-07-14T09:53:54Z</time>
      </trkpt>
      <trkpt lat="46.16895" lon="6.39146">
        <ele>852</ele>
        <time>2012-07-14T09:53:55Z</time>
      </trkpt>
      <trkpt lat="46.16892" lon="6.39167">
        <ele>852</ele>
        <time>2012-07-14T09:53:56Z</time>
      </trkpt>
      <trkpt lat="46.16889" lon="6.39188">
        <ele>852</ele>
        <time>2012-07-14T09:53:57Z</time>
      </trkpt>
      <trkpt lat="46.16886" lon="6.39209">
        <ele>858</ele>
        <time>2012-07-14T09:53:58Z</time>
      </trkpt>
      <trkpt lat="46.16883" lon="6.39232">
        <ele>858</ele>
        <time>2012-07-14T09:53:59Z</time>
      </trkpt>
      <trkpt lat="46.1688" lon="6.39255">
        <ele>858</ele>
        <time>2012-07-14T09:54:00Z</time>
      </trkpt>
      <trkpt lat="46.16878" lon="6.39274">
        <ele>858</ele>
        <time>2012-07-14T09:54:01Z</time>
      </trkpt>
      <trkpt lat="46.16876" lon="6.39293">
        <ele>858</ele>
        <time>2012-07-14T09:54:02Z</time>
      </trkpt>
      <trkpt lat="46.16876" lon="6.3931">
        <ele>863</ele>
        <time>2012-07-14T09:54:03Z</time>
      </trkpt>
      <trkpt lat="46.16879" lon="6.39327">
        <ele>863</ele>
        <time>2012-07-14T09:54:04Z</time>
      </trkpt>
      <trkpt lat="46.16882" lon="6.39345">
        <ele>863</ele>
        <time>2012-07-14T09:54:05Z</time>
      </trkpt>
      <trkpt lat="46.16887" lon="6.39362">
        <ele>863</ele>
        <time>2012-07-14T09:54:06Z</time>
      </trkpt>
      <trkpt lat="46.16893" lon="6.39379">
        <ele>863</ele>
        <time>2012-07-14T09:54:07Z</time>
      </trkpt>
      <trkpt lat="46.169" lon="6.39395">
        <ele>863</ele>
        <time>2012-07-14T09:54:08Z</time>
      </trkpt>
      <trkpt lat="46.16906" lon="6.39411">
        <ele>869</ele>
        <time>2012-07-14T09:54:09Z</time>
      </trkpt>
      <trkpt lat="46.16914" lon="6.39426">
        <ele>869</ele>
        <time>2012-07-14T09:54:10Z</time>
      </trkpt>
      <trkpt lat="46.16921" lon="6.3944">
        <ele>869</ele>
        <time>2012-07-14T09:54:11Z</time>
      </trkpt>
      <trkpt lat="46.16928" lon="6.39452">
        <ele>869</ele>
        <time>2012-07-14T09:54:12Z</time>
      </trkpt>
      <trkpt lat="46.16936" lon="6.39462">
        <ele>869</ele>
        <time>2012-07-14T09:54:13Z</time>
      </trkpt>
      <trkpt lat="46.16945" lon="6.39471">
        <ele>869</ele>
        <time>2012-07-14T09:54:14Z</time>
      </trkpt>
      <trkpt lat="46.16954" lon="6.39482">
        <ele>874</ele>
        <time>2012-07-14T09:54:15Z</time>
      </trkpt>
      <trkpt lat="46.16963" lon="6.39494">
        <ele>874</ele>
        <time>2012-07-14T09:54:16Z</time>
      </trkpt>
      <trkpt lat="46.1697" lon="6.39507">
        <ele>874</ele>
        <time>2012-07-14T09:54:17Z</time>
      </trkpt>
      <trkpt lat="46.16976" lon="6.39523">
        <ele>874</ele>
        <time>2012-07-14T09:54:18Z</time>
      </trkpt>
      <trkpt lat="46.16979" lon="6.3954">
        <ele>874</ele>
        <time>2012-07-14T09:54:19Z</time>
      </trkpt>
      <trkpt lat="46.16983" lon="6.39557">
        <ele>874</ele>
        <time>2012-07-14T09:54:20Z</time>
      </trkpt>
      <trkpt lat="46.16989" lon="6.39574">
        <ele>874</ele>
        <time>2012-07-14T09:54:21Z</time>
      </trkpt>
      <trkpt lat="46.16996" lon="6.39589">
        <ele>880</ele>
        <time>2012-07-14T09:54:22Z</time>
      </trkpt>
      <trkpt lat="46.17004" lon="6.39604">
        <ele>880</ele>
        <time>2012-07-14T09:54:23Z</time>
      </trkpt>
      <trkpt lat="46.17011" lon="6.39619">
        <ele>880</ele>
        <time>2012-07-14T09:54:24Z</time>
      </trkpt>
      <trkpt lat="46.17016" lon="6.39635">
        <ele>880</ele>
        <time>2012-07-14T09:54:25Z</time>
      </trkpt>
      <trkpt lat="46.17018" lon="6.3965">
        <ele>880</ele>
        <time>2012-07-14T09:54:26Z</time>
      </trkpt>
      <trkpt lat="46.17016" lon="6.39663">
        <ele>880</ele>
        <time>2012-07-14T09:54:27Z</time>
      </trkpt>
      <trkpt lat="46.17017" lon="6.39684">
        <ele>880</ele>
        <time>2012-07-14T09:54:29Z</time>
      </trkpt>
      <trkpt lat="46.17026" lon="6.39699">
        <ele>885</ele>
        <time>2012-07-14T09:54:31Z</time>
      </trkpt>
      <trkpt lat="46.1704" lon="6.39713">
        <ele>885</ele>
        <time>2012-07-14T09:54:33Z</time>
      </trkpt>
      <trkpt lat="46.17054" lon="6.39724">
        <ele>885</ele>
        <time>2012-07-14T09:54:35Z</time>
      </trkpt>
      <trkpt lat="46.17066" lon="6.39733">
        <ele>885</ele>
        <time>2012-07-14T09:54:37Z</time>
      </trkpt>
      <trkpt lat="46.17078" lon="6.39743">
        <ele>885</ele>
        <time>2012-07-14T09:54:39Z</time>
      </trkpt>
      <trkpt lat="46.17094" lon="6.39757">
        <ele>890</ele>
        <time>2012-07-14T09:54:41Z</time>
      </trkpt>
      <trkpt lat="46.17102" lon="6.39765">
        <ele>890</ele>
        <time>2012-07-14T09:54:42Z</time>
      </trkpt>
      <trkpt lat="46.17112" lon="6.39772">
        <ele>890</ele>
        <time>2012-07-14T09:54:43Z</time>
      </trkpt>
      <trkpt lat="46.17123" lon="6.39781">
        <ele>890</ele>
        <time>2012-07-14T09:54:44Z</time>
      </trkpt>
      <trkpt lat="46.17133" lon="6.39789">
        <ele>890</ele>
        <time>2012-07-14T09:54:45Z</time>
      </trkpt>
      <trkpt lat="46.17143" lon="6.39798">
        <ele>890</ele>
        <time>2012-07-14T09:54:46Z</time>
      </trkpt>
      <trkpt lat="46.17154" lon="6.39807">
        <ele>895</ele>
        <time>2012-07-14T09:54:47Z</time>
      </trkpt>
      <trkpt lat="46.17164" lon="6.39818">
        <ele>895</ele>
        <time>2012-07-14T09:54:48Z</time>
      </trkpt>
      <trkpt lat="46.17173" lon="6.39831">
        <ele>895</ele>
        <time>2012-07-14T09:54:49Z</time>
      </trkpt>
      <trkpt lat="46.17183" lon="6.39843">
        <ele>895</ele>
        <time>2012-07-14T09:54:50Z</time>
      </trkpt>
      <trkpt lat="46.17192" lon="6.39855">
        <ele>895</ele>
        <time>2012-07-14T09:54:51Z</time>
      </trkpt>
      <trkpt lat="46.17199" lon="6.39865">
        <ele>895</ele>
        <time>2012-07-14T09:54:52Z</time>
      </trkpt>
      <trkpt lat="46.17209" lon="6.39884">
        <ele>902</ele>
        <time>2012-07-14T09:54:54Z</time>
      </trkpt>
      <trkpt lat="46.17214" lon="6.39896">
        <ele>902</ele>
        <time>2012-07-14T09:54:56Z</time>
      </trkpt>
      <trkpt lat="46.17227" lon="6.39901">
        <ele>902</ele>
        <time>2012-07-14T09:55:09Z</time>
      </trkpt>
      <trkpt lat="46.17244" lon="6.39911">
        <ele>902</ele>
        <time>2012-07-14T09:55:11Z</time>
      </trkpt>
      <trkpt lat="46.17255" lon="6.39916">
        <ele>902</ele>
        <time>2012-07-14T09:55:12Z</time>
      </trkpt>
      <trkpt lat="46.17267" lon="6.39919">
        <ele>902</ele>
        <time>2012-07-14T09:55:13Z</time>
      </trkpt>
      <trkpt lat="46.1728" lon="6.3992">
        <ele>902</ele>
        <time>2012-07-14T09:55:14Z</time>
      </trkpt>
      <trkpt lat="46.17292" lon="6.39921">
        <ele>908</ele>
        <time>2012-07-14T09:55:15Z</time>
      </trkpt>
      <trkpt lat="46.17305" lon="6.3992">
        <ele>908</ele>
        <time>2012-07-14T09:55:16Z</time>
      </trkpt>
      <trkpt lat="46.17318" lon="6.39919">
        <ele>908</ele>
        <time>2012-07-14T09:55:17Z</time>
      </trkpt>
      <trkpt lat="46.17331" lon="6.39918">
        <ele>908</ele>
        <time>2012-07-14T09:55:18Z</time>
      </trkpt>
      <trkpt lat="46.17343" lon="6.39919">
        <ele>908</ele>
        <time>2012-07-14T09:55:19Z</time>
      </trkpt>
      <trkpt lat="46.17356" lon="6.39923">
        <ele>908</ele>
        <time>2012-07-14T09:55:20Z</time>
      </trkpt>
      <trkpt lat="46.17369" lon="6.39929">
        <ele>908</ele>
        <time>2012-07-14T09:55:21Z</time>
      </trkpt>
      <trkpt lat="46.1738" lon="6.3994">
        <ele>908</ele>
        <time>2012-07-14T09:55:22Z</time>
      </trkpt>
      <trkpt lat="46.17391" lon="6.39951">
        <ele>914</ele>
        <time>2012-07-14T09:55:23Z</time>
      </trkpt>
      <trkpt lat="46.17401" lon="6.39961">
        <ele>914</ele>
        <time>2012-07-14T09:55:24Z</time>
      </trkpt>
      <trkpt lat="46.17409" lon="6.3997">
        <ele>914</ele>
        <time>2012-07-14T09:55:25Z</time>
      </trkpt>
      <trkpt lat="46.17418" lon="6.39989">
        <ele>914</ele>
        <time>2012-07-14T09:55:27Z</time>
      </trkpt>
      <trkpt lat="46.17423" lon="6.40009">
        <ele>914</ele>
        <time>2012-07-14T09:55:29Z</time>
      </trkpt>
      <trkpt lat="46.17433" lon="6.40031">
        <ele>920</ele>
        <time>2012-07-14T09:55:31Z</time>
      </trkpt>
      <trkpt lat="46.17439" lon="6.40041">
        <ele>920</ele>
        <time>2012-07-14T09:55:32Z</time>
      </trkpt>
      <trkpt lat="46.17445" lon="6.40051">
        <ele>920</ele>
        <time>2012-07-14T09:55:33Z</time>
      </trkpt>
      <trkpt lat="46.17451" lon="6.40061">
        <ele>920</ele>
        <time>2012-07-14T09:55:34Z</time>
      </trkpt>
      <trkpt lat="46.1746" lon="6.40078">
        <ele>920</ele>
        <time>2012-07-14T09:55:36Z</time>
      </trkpt>
      <trkpt lat="46.1747" lon="6.40095">
        <ele>920</ele>
        <time>2012-07-14T09:55:38Z</time>
      </trkpt>
      <trkpt lat="46.1748" lon="6.40109">
        <ele>927</ele>
        <time>2012-07-14T09:55:40Z</time>
      </trkpt>
      <trkpt lat="46.17488" lon="6.40125">
        <ele>927</ele>
        <time>2012-07-14T09:55:42Z</time>
      </trkpt>
      <trkpt lat="46.17496" lon="6.40141">
        <ele>927</ele>
        <time>2012-07-14T09:55:44Z</time>
      </trkpt>
      <trkpt lat="46.17502" lon="6.40163">
        <ele>927</ele>
        <time>2012-07-14T09:55:46Z</time>
      </trkpt>
      <trkpt lat="46.17507" lon="6.40184">
        <ele>927</ele>
        <time>2012-07-14T09:55:48Z</time>
      </trkpt>
      <trkpt lat="46.17512" lon="6.40201">
        <ele>932</ele>
        <time>2012-07-14T09:55:50Z</time>
      </trkpt>
      <trkpt lat="46.17516" lon="6.40217">
        <ele>932</ele>
        <time>2012-07-14T09:55:53Z</time>
      </trkpt>
      <trkpt lat="46.1752" lon="6.4023">
        <ele>932</ele>
        <time>2012-07-14T09:55:55Z</time>
      </trkpt>
      <trkpt lat="46.17526" lon="6.40244">
        <ele>932</ele>
        <time>2012-07-14T09:55:57Z</time>
      </trkpt>
      <trkpt lat="46.17534" lon="6.40256">
        <ele>932</ele>
        <time>2012-07-14T09:56:00Z</time>
      </trkpt>
      <trkpt lat="46.17544" lon="6.40268">
        <ele>932</ele>
        <time>2012-07-14T09:56:03Z</time>
      </trkpt>
      <trkpt lat="46.17553" lon="6.40274">
        <ele>932</ele>
        <time>2012-07-14T09:56:05Z</time>
      </trkpt>
      <trkpt lat="46.17559" lon="6.40286">
        <ele>932</ele>
        <time>2012-07-14T09:56:09Z</time>
      </trkpt>
      <trkpt lat="46.17561" lon="6.403">
        <ele>968</ele>
        <time>2012-07-14T09:56:31Z</time>
      </trkpt>
      <trkpt lat="46.17565" lon="6.40315">
        <ele>955</ele>
        <time>2012-07-14T09:56:38Z</time>
      </trkpt>
      <trkpt lat="46.17565" lon="6.4033">
        <ele>955</ele>
        <time>2012-07-14T09:56:42Z</time>
      </trkpt>
      <trkpt lat="46.17566" lon="6.40348">
        <ele>948</ele>
        <time>2012-07-14T09:56:45Z</time>
      </trkpt>
      <trkpt lat="46.17567" lon="6.40365">
        <ele>948</ele>
        <time>2012-07-14T09:56:48Z</time>
      </trkpt>
      <trkpt lat="46.17569" lon="6.4038">
        <ele>939</ele>
        <time>2012-07-14T09:56:51Z</time>
      </trkpt>
      <trkpt lat="46.17571" lon="6.40393">
        <ele>939</ele>
        <time>2012-07-14T09:56:56Z</time>
      </trkpt>
      <trkpt lat="46.17575" lon="6.40406">
        <ele>939</ele>
        <time>2012-07-14T09:57:02Z</time>
      </trkpt>
      <trkpt lat="46.17579" lon="6.40422">
        <ele>939</ele>
        <time>2012-07-14T09:57:06Z</time>
      </trkpt>
      <trkpt lat="46.17582" lon="6.40435">
        <ele>932</ele>
        <time>2012-07-14T09:57:10Z</time>
      </trkpt>
      <trkpt lat="46.1758" lon="6.4045">
        <ele>932</ele>
        <time>2012-07-14T09:57:15Z</time>
      </trkpt>
      <trkpt lat="46.17575" lon="6.40462">
        <ele>932</ele>
        <time>2012-07-14T09:57:19Z</time>
      </trkpt>
      <trkpt lat="46.17574" lon="6.40475">
        <ele>932</ele>
        <time>2012-07-14T09:57:23Z</time>
      </trkpt>
      <trkpt lat="46.17569" lon="6.40487">
        <ele>932</ele>
        <time>2012-07-14T09:57:27Z</time>
      </trkpt>
      <trkpt lat="46.17564" lon="6.405">
        <ele>937</ele>
        <time>2012-07-14T09:57:32Z</time>
      </trkpt>
      <trkpt lat="46.17567" lon="6.40513">
        <ele>937</ele>
        <time>2012-07-14T09:57:43Z</time>
      </trkpt>
      <trkpt lat="46.17576" lon="6.40518">
        <ele>937</ele>
        <time>2012-07-14T09:57:47Z</time>
      </trkpt>
      <trkpt lat="46.17586" lon="6.40518">
        <ele>937</ele>
        <time>2012-07-14T09:57:53Z</time>
      </trkpt>
      <trkpt lat="46.17596" lon="6.40523">
        <ele>937</ele>
        <time>2012-07-14T09:57:57Z</time>
      </trkpt>
      <trkpt lat="46.17603" lon="6.40532">
        <ele>931</ele>
        <time>2012-07-14T09:58:08Z</time>
      </trkpt>
      <trkpt lat="46.17604" lon="6.40546">
        <ele>931</ele>
        <time>2012-07-14T09:58:13Z</time>
      </trkpt>
      <trkpt lat="46.17603" lon="6.40564">
        <ele>926</ele>
        <time>2012-07-14T09:58:18Z</time>
      </trkpt>
      <trkpt lat="46.17602" lon="6.40577">
        <ele>926</ele>
        <time>2012-07-14T09:58:21Z</time>
      </trkpt>
      <trkpt lat="46.17605" lon="6.40591">
        <ele>926</ele>
        <time>2012-07-14T09:58:24Z</time>
      </trkpt>
      <trkpt lat="46.17604" lon="6.4061">
        <ele>926</ele>
        <time>2012-07-14T09:58:28Z</time>
      </trkpt>
      <trkpt lat="46.17602" lon="6.40626">
        <ele>926</ele>
        <time>2012-07-14T09:58:30Z</time>
      </trkpt>
      <trkpt lat="46.176" lon="6.40639">
        <ele>918</ele>
        <time>2012-07-14T09:58:32Z</time>
      </trkpt>
      <trkpt lat="46.17599" lon="6.40653">
        <ele>918</ele>
        <time>2012-07-14T09:58:34Z</time>
      </trkpt>
      <trkpt lat="46.176" lon="6.4067">
        <ele>918</ele>
        <time>2012-07-14T09:58:36Z</time>
      </trkpt>
      <trkpt lat="46.17601" lon="6.40688">
        <ele>908</ele>
        <time>2012-07-14T09:58:39Z</time>
      </trkpt>
      <trkpt lat="46.17605" lon="6.40705">
        <ele>908</ele>
        <time>2012-07-14T09:58:42Z</time>
      </trkpt>
      <trkpt lat="46.17613" lon="6.40716">
        <ele>902</ele>
        <time>2012-07-14T09:58:45Z</time>
      </trkpt>
      <trkpt lat="46.17617" lon="6.40729">
        <ele>893</ele>
        <time>2012-07-14T09:58:54Z</time>
      </trkpt>
      <trkpt lat="46.17624" lon="6.4074">
        <ele>907</ele>
        <time>2012-07-14T09:59:13Z</time>
      </trkpt>
      <trkpt lat="46.17623" lon="6.40727">
        <ele>907</ele>
        <time>2012-07-14T09:59:19Z</time>
      </trkpt>
      <trkpt lat="46.17634" lon="6.40726">
        <ele>907</ele>
        <time>2012-07-14T09:59:26Z</time>
      </trkpt>
      <trkpt lat="46.17643" lon="6.4073">
        <ele>907</ele>
        <time>2012-07-14T09:59:29Z</time>
      </trkpt>
      <trkpt lat="46.17654" lon="6.40733">
        <ele>907</ele>
        <time>2012-07-14T09:59:32Z</time>
      </trkpt>
      <trkpt lat="46.17663" lon="6.40733">
        <ele>907</ele>
        <time>2012-07-14T09:59:34Z</time>
      </trkpt>
      <trkpt lat="46.17673" lon="6.40733">
        <ele>907</ele>
        <time>2012-07-14T09:59:37Z</time>
      </trkpt>
      <trkpt lat="46.17682" lon="6.4074">
        <ele>907</ele>
        <time>2012-07-14T09:59:46Z</time>
      </trkpt>
      <trkpt lat="46.17692" lon="6.4074">
        <ele>902</ele>
        <time>2012-07-14T09:59:48Z</time>
      </trkpt>
      <trkpt lat="46.17703" lon="6.4074">
        <ele>902</ele>
        <time>2012-07-14T09:59:50Z</time>
      </trkpt>
      <trkpt lat="46.17714" lon="6.40741">
        <ele>902</ele>
        <time>2012-07-14T09:59:54Z</time>
      </trkpt>
      <trkpt lat="46.17713" lon="6.40757">
        <ele>902</ele>
        <time>2012-07-14T10:00:04Z</time>
      </trkpt>
      <trkpt lat="46.17708" lon="6.40769">
        <ele>902</ele>
        <time>2012-07-14T10:00:07Z</time>
      </trkpt>
      <trkpt lat="46.17705" lon="6.40784">
        <ele>902</ele>
        <time>2012-07-14T10:00:11Z</time>
      </trkpt>
      <trkpt lat="46.177" lon="6.40798">
        <ele>893</ele>
        <time>2012-07-14T10:00:14Z</time>
      </trkpt>
      <trkpt lat="46.17698" lon="6.40813">
        <ele>893</ele>
        <time>2012-07-14T10:00:17Z</time>
      </trkpt>
      <trkpt lat="46.1769" lon="6.40825">
        <ele>893</ele>
        <time>2012-07-14T10:00:21Z</time>
      </trkpt>
      <trkpt lat="46.17685" lon="6.40838">
        <ele>887</ele>
        <time>2012-07-14T10:00:24Z</time>
      </trkpt>
      <trkpt lat="46.1768" lon="6.4085">
        <ele>887</ele>
        <time>2012-07-14T10:00:27Z</time>
      </trkpt>
      <trkpt lat="46.1768" lon="6.40864">
        <ele>881</ele>
        <time>2012-07-14T10:00:30Z</time>
      </trkpt>
      <trkpt lat="46.17677" lon="6.40878">
        <ele>881</ele>
        <time>2012-07-14T10:00:33Z</time>
      </trkpt>
      <trkpt lat="46.17673" lon="6.4089">
        <ele>881</ele>
        <time>2012-07-14T10:00:36Z</time>
      </trkpt>
      <trkpt lat="46.17673" lon="6.40903">
        <ele>875</ele>
        <time>2012-07-14T10:00:40Z</time>
      </trkpt>
      <trkpt lat="46.17688" lon="6.40908">
        <ele>875</ele>
        <time>2012-07-14T10:00:43Z</time>
      </trkpt>
      <trkpt lat="46.17704" lon="6.40914">
        <ele>875</ele>
        <time>2012-07-14T10:00:45Z</time>
      </trkpt>
      <trkpt lat="46.17713" lon="6.40917">
        <ele>875</ele>
        <time>2012-07-14T10:00:46Z</time>
      </trkpt>
      <trkpt lat="46.17722" lon="6.40921">
        <ele>875</ele>
        <time>2012-07-14T10:00:47Z</time>
      </trkpt>
      <trkpt lat="46.17733" lon="6.40925">
        <ele>875</ele>
        <time>2012-07-14T10:00:48Z</time>
      </trkpt>
      <trkpt lat="46.17743" lon="6.40928">
        <ele>875</ele>
        <time>2012-07-14T10:00:49Z</time>
      </trkpt>
      <trkpt lat="46.17755" lon="6.40933">
        <ele>875</ele>
        <time>2012-07-14T10:00:50Z</time>
      </trkpt>
      <trkpt lat="46.17765" lon="6.40937">
        <ele>875</ele>
        <time>2012-07-14T10:00:51Z</time>
      </trkpt>
      <trkpt lat="46.17776" lon="6.40942">
        <ele>875</ele>
        <time>2012-07-14T10:00:52Z</time>
      </trkpt>
      <trkpt lat="46.17787" lon="6.40948">
        <ele>875</ele>
        <time>2012-07-14T10:00:53Z</time>
      </trkpt>
      <trkpt lat="46.17797" lon="6.40955">
        <ele>875</ele>
        <time>2012-07-14T10:00:54Z</time>
      </trkpt>
      <trkpt lat="46.17806" lon="6.40963">
        <ele>875</ele>
        <time>2012-07-14T10:00:55Z</time>
      </trkpt>
      <trkpt lat="46.17813" lon="6.40973">
        <ele>875</ele>
        <time>2012-07-14T10:00:56Z</time>
      </trkpt>
      <trkpt lat="46.1782" lon="6.40986">
        <ele>875</ele>
        <time>2012-07-14T10:00:57Z</time>
      </trkpt>
      <trkpt lat="46.17826" lon="6.40998">
        <ele>875</ele>
        <time>2012-07-14T10:00:58Z</time>
      </trkpt>
      <trkpt lat="46.17833" lon="6.41011">
        <ele>875</ele>
        <time>2012-07-14T10:00:59Z</time>
      </trkpt>
      <trkpt lat="46.1784" lon="6.41023">
        <ele>875</ele>
        <time>2012-07-14T10:01:00Z</time>
      </trkpt>
      <trkpt lat="46.17848" lon="6.41035">
        <ele>875</ele>
        <time>2012-07-14T10:01:01Z</time>
      </trkpt>
      <trkpt lat="46.17858" lon="6.41047">
        <ele>875</ele>
        <time>2012-07-14T10:01:02Z</time>
      </trkpt>
      <trkpt lat="46.17868" lon="6.41058">
        <ele>881</ele>
        <time>2012-07-14T10:01:03Z</time>
      </trkpt>
      <trkpt lat="46.17878" lon="6.4107">
        <ele>881</ele>
        <time>2012-07-14T10:01:04Z</time>
      </trkpt>
      <trkpt lat="46.17888" lon="6.41082">
        <ele>881</ele>
        <time>2012-07-14T10:01:05Z</time>
      </trkpt>
      <trkpt lat="46.17899" lon="6.41094">
        <ele>881</ele>
        <time>2012-07-14T10:01:06Z</time>
      </trkpt>
      <trkpt lat="46.1791" lon="6.41104">
        <ele>881</ele>
        <time>2012-07-14T10:01:07Z</time>
      </trkpt>
      <trkpt lat="46.17921" lon="6.41117">
        <ele>881</ele>
        <time>2012-07-14T10:01:08Z</time>
      </trkpt>
      <trkpt lat="46.17932" lon="6.41129">
        <ele>881</ele>
        <time>2012-07-14T10:01:09Z</time>
      </trkpt>
      <trkpt lat="46.17942" lon="6.41139">
        <ele>881</ele>
        <time>2012-07-14T10:01:10Z</time>
      </trkpt>
      <trkpt lat="46.17951" lon="6.41149">
        <ele>881</ele>
        <time>2012-07-14T10:01:11Z</time>
      </trkpt>
      <trkpt lat="46.1796" lon="6.41157">
        <ele>881</ele>
        <time>2012-07-14T10:01:12Z</time>
      </trkpt>
      <trkpt lat="46.17969" lon="6.41164">
        <ele>881</ele>
        <time>2012-07-14T10:01:13Z</time>
      </trkpt>
      <trkpt lat="46.17977" lon="6.41171">
        <ele>881</ele>
        <time>2012-07-14T10:01:14Z</time>
      </trkpt>
      <trkpt lat="46.17986" lon="6.41177">
        <ele>881</ele>
        <time>2012-07-14T10:01:15Z</time>
      </trkpt>
      <trkpt lat="46.17997" lon="6.41182">
        <ele>886</ele>
        <time>2012-07-14T10:01:16Z</time>
      </trkpt>
      <trkpt lat="46.18009" lon="6.41188">
        <ele>886</ele>
        <time>2012-07-14T10:01:17Z</time>
      </trkpt>
      <trkpt lat="46.18021" lon="6.41192">
        <ele>886</ele>
        <time>2012-07-14T10:01:18Z</time>
      </trkpt>
      <trkpt lat="46.18034" lon="6.41198">
        <ele>886</ele>
        <time>2012-07-14T10:01:19Z</time>
      </trkpt>
      <trkpt lat="46.18045" lon="6.41203">
        <ele>886</ele>
        <time>2012-07-14T10:01:20Z</time>
      </trkpt>
      <trkpt lat="46.18058" lon="6.41209">
        <ele>886</ele>
        <time>2012-07-14T10:01:21Z</time>
      </trkpt>
      <trkpt lat="46.18071" lon="6.41214">
        <ele>886</ele>
        <time>2012-07-14T10:01:22Z</time>
      </trkpt>
      <trkpt lat="46.18082" lon="6.4122">
        <ele>886</ele>
        <time>2012-07-14T10:01:23Z</time>
      </trkpt>
      <trkpt lat="46.18093" lon="6.41226">
        <ele>886</ele>
        <time>2012-07-14T10:01:24Z</time>
      </trkpt>
      <trkpt lat="46.18103" lon="6.4123">
        <ele>891</ele>
        <time>2012-07-14T10:01:25Z</time>
      </trkpt>
      <trkpt lat="46.18118" lon="6.41238">
        <ele>891</ele>
        <time>2012-07-14T10:01:27Z</time>
      </trkpt>
      <trkpt lat="46.18124" lon="6.4125">
        <ele>891</ele>
        <time>2012-07-14T10:01:29Z</time>
      </trkpt>
      <trkpt lat="46.18126" lon="6.41265">
        <ele>891</ele>
        <time>2012-07-14T10:01:31Z</time>
      </trkpt>
      <trkpt lat="46.18133" lon="6.41284">
        <ele>891</ele>
        <time>2012-07-14T10:01:33Z</time>
      </trkpt>
      <trkpt lat="46.18141" lon="6.41306">
        <ele>891</ele>
        <time>2012-07-14T10:01:35Z</time>
      </trkpt>
      <trkpt lat="46.18146" lon="6.41317">
        <ele>891</ele>
        <time>2012-07-14T10:01:36Z</time>
      </trkpt>
      <trkpt lat="46.18149" lon="6.41331">
        <ele>891</ele>
        <time>2012-07-14T10:01:37Z</time>
      </trkpt>
      <trkpt lat="46.18151" lon="6.41344">
        <ele>891</ele>
        <time>2012-07-14T10:01:38Z</time>
      </trkpt>
      <trkpt lat="46.18153" lon="6.41359">
        <ele>886</ele>
        <time>2012-07-14T10:01:39Z</time>
      </trkpt>
      <trkpt lat="46.18155" lon="6.41373">
        <ele>886</ele>
        <time>2012-07-14T10:01:40Z</time>
      </trkpt>
      <trkpt lat="46.18156" lon="6.41387">
        <ele>886</ele>
        <time>2012-07-14T10:01:41Z</time>
      </trkpt>
      <trkpt lat="46.18158" lon="6.41402">
        <ele>886</ele>
        <time>2012-07-14T10:01:42Z</time>
      </trkpt>
      <trkpt lat="46.18159" lon="6.41416">
        <ele>886</ele>
        <time>2012-07-14T10:01:43Z</time>
      </trkpt>
      <trkpt lat="46.1816" lon="6.4143">
        <ele>886</ele>
        <time>2012-07-14T10:01:44Z</time>
      </trkpt>
      <trkpt lat="46.18161" lon="6.41443">
        <ele>881</ele>
        <time>2012-07-14T10:01:45Z</time>
      </trkpt>
      <trkpt lat="46.18163" lon="6.41456">
        <ele>881</ele>
        <time>2012-07-14T10:01:46Z</time>
      </trkpt>
      <trkpt lat="46.18163" lon="6.41471">
        <ele>881</ele>
        <time>2012-07-14T10:01:47Z</time>
      </trkpt>
      <trkpt lat="46.18165" lon="6.41485">
        <ele>881</ele>
        <time>2012-07-14T10:01:48Z</time>
      </trkpt>
      <trkpt lat="46.18166" lon="6.415">
        <ele>881</ele>
        <time>2012-07-14T10:01:49Z</time>
      </trkpt>
      <trkpt lat="46.18168" lon="6.41516">
        <ele>881</ele>
        <time>2012-07-14T10:01:50Z</time>
      </trkpt>
      <trkpt lat="46.18171" lon="6.41531">
        <ele>881</ele>
        <time>2012-07-14T10:01:51Z</time>
      </trkpt>
      <trkpt lat="46.18173" lon="6.41545">
        <ele>875</ele>
        <time>2012-07-14T10:01:52Z</time>
      </trkpt>
      <trkpt lat="46.18177" lon="6.41559">
        <ele>875</ele>
        <time>2012-07-14T10:01:53Z</time>
      </trkpt>
      <trkpt lat="46.18185" lon="6.41581">
        <ele>875</ele>
        <time>2012-07-14T10:01:55Z</time>
      </trkpt>
      <trkpt lat="46.18194" lon="6.41597">
        <ele>875</ele>
        <time>2012-07-14T10:01:57Z</time>
      </trkpt>
      <trkpt lat="46.18201" lon="6.41612">
        <ele>875</ele>
        <time>2012-07-14T10:01:59Z</time>
      </trkpt>
      <trkpt lat="46.18204" lon="6.41625">
        <ele>875</ele>
        <time>2012-07-14T10:02:01Z</time>
      </trkpt>
      <trkpt lat="46.18199" lon="6.41637">
        <ele>870</ele>
        <time>2012-07-14T10:02:03Z</time>
      </trkpt>
      <trkpt lat="46.18193" lon="6.4165">
        <ele>870</ele>
        <time>2012-07-14T10:02:06Z</time>
      </trkpt>
      <trkpt lat="46.18193" lon="6.41668">
        <ele>870</ele>
        <time>2012-07-14T10:02:09Z</time>
      </trkpt>
      <trkpt lat="46.18197" lon="6.41679">
        <ele>870</ele>
        <time>2012-07-14T10:02:11Z</time>
      </trkpt>
      <trkpt lat="46.18205" lon="6.41691">
        <ele>870</ele>
        <time>2012-07-14T10:02:13Z</time>
      </trkpt>
      <trkpt lat="46.18215" lon="6.41703">
        <ele>870</ele>
        <time>2012-07-14T10:02:15Z</time>
      </trkpt>
      <trkpt lat="46.18227" lon="6.41717">
        <ele>870</ele>
        <time>2012-07-14T10:02:17Z</time>
      </trkpt>
      <trkpt lat="46.18239" lon="6.41731">
        <ele>870</ele>
        <time>2012-07-14T10:02:19Z</time>
      </trkpt>
      <trkpt lat="46.1825" lon="6.41745">
        <ele>870</ele>
        <time>2012-07-14T10:02:21Z</time>
      </trkpt>
      <trkpt lat="46.18257" lon="6.41763">
        <ele>870</ele>
        <time>2012-07-14T10:02:23Z</time>
      </trkpt>
      <trkpt lat="46.18261" lon="6.41782">
        <ele>870</ele>
        <time>2012-07-14T10:02:25Z</time>
      </trkpt>
      <trkpt lat="46.18263" lon="6.41801">
        <ele>870</ele>
        <time>2012-07-14T10:02:27Z</time>
      </trkpt>
      <trkpt lat="46.18262" lon="6.4182">
        <ele>870</ele>
        <time>2012-07-14T10:02:29Z</time>
      </trkpt>
      <trkpt lat="46.18261" lon="6.41841">
        <ele>864</ele>
        <time>2012-07-14T10:02:31Z</time>
      </trkpt>
      <trkpt lat="46.18258" lon="6.41859">
        <ele>864</ele>
        <time>2012-07-14T10:02:33Z</time>
      </trkpt>
      <trkpt lat="46.18252" lon="6.41873">
        <ele>864</ele>
        <time>2012-07-14T10:02:35Z</time>
      </trkpt>
      <trkpt lat="46.18248" lon="6.41889">
        <ele>857</ele>
        <time>2012-07-14T10:02:38Z</time>
      </trkpt>
      <trkpt lat="46.18241" lon="6.41906">
        <ele>857</ele>
        <time>2012-07-14T10:02:43Z</time>
      </trkpt>
      <trkpt lat="46.18231" lon="6.41914">
        <ele>857</ele>
        <time>2012-07-14T10:02:46Z</time>
      </trkpt>
      <trkpt lat="46.18231" lon="6.41927">
        <ele>850</ele>
        <time>2012-07-14T10:02:51Z</time>
      </trkpt>
      <trkpt lat="46.18242" lon="6.4194">
        <ele>850</ele>
        <time>2012-07-14T10:02:54Z</time>
      </trkpt>
      <trkpt lat="46.18251" lon="6.41949">
        <ele>850</ele>
        <time>2012-07-14T10:02:56Z</time>
      </trkpt>
      <trkpt lat="46.18259" lon="6.41959">
        <ele>850</ele>
        <time>2012-07-14T10:02:58Z</time>
      </trkpt>
      <trkpt lat="46.18268" lon="6.41967">
        <ele>850</ele>
        <time>2012-07-14T10:03:00Z</time>
      </trkpt>
      <trkpt lat="46.18277" lon="6.41977">
        <ele>845</ele>
        <time>2012-07-14T10:03:02Z</time>
      </trkpt>
      <trkpt lat="46.18283" lon="6.41987">
        <ele>845</ele>
        <time>2012-07-14T10:03:04Z</time>
      </trkpt>
      <trkpt lat="46.18288" lon="6.42004">
        <ele>845</ele>
        <time>2012-07-14T10:03:07Z</time>
      </trkpt>
      <trkpt lat="46.18296" lon="6.42025">
        <ele>845</ele>
        <time>2012-07-14T10:03:11Z</time>
      </trkpt>
      <trkpt lat="46.18304" lon="6.42032">
        <ele>845</ele>
        <time>2012-07-14T10:03:15Z</time>
      </trkpt>
      <trkpt lat="46.18296" lon="6.42039">
        <ele>845</ele>
        <time>2012-07-14T10:03:23Z</time>
      </trkpt>
      <trkpt lat="46.18284" lon="6.42044">
        <ele>838</ele>
        <time>2012-07-14T10:03:27Z</time>
      </trkpt>
      <trkpt lat="46.18281" lon="6.42057">
        <ele>827</ele>
        <time>2012-07-14T10:03:38Z</time>
      </trkpt>
      <trkpt lat="46.18284" lon="6.4207">
        <ele>820</ele>
        <time>2012-07-14T10:03:43Z</time>
      </trkpt>
      <trkpt lat="46.18286" lon="6.42083">
        <ele>820</ele>
        <time>2012-07-14T10:03:49Z</time>
      </trkpt>
      <trkpt lat="46.18279" lon="6.42098">
        <ele>834</ele>
        <time>2012-07-14T10:03:55Z</time>
      </trkpt>
      <trkpt lat="46.18276" lon="6.42115">
        <ele>840</ele>
        <time>2012-07-14T10:03:58Z</time>
      </trkpt>
      <trkpt lat="46.18272" lon="6.4213">
        <ele>852</ele>
        <time>2012-07-14T10:04:06Z</time>
      </trkpt>
      <trkpt lat="46.18271" lon="6.42145">
        <ele>852</ele>
        <time>2012-07-14T10:04:09Z</time>
      </trkpt>
      <trkpt lat="46.18273" lon="6.42163">
        <ele>852</ele>
        <time>2012-07-14T10:04:12Z</time>
      </trkpt>
      <trkpt lat="46.18274" lon="6.42182">
        <ele>858</ele>
        <time>2012-07-14T10:04:15Z</time>
      </trkpt>
      <trkpt lat="46.18274" lon="6.422">
        <ele>858</ele>
        <time>2012-07-14T10:04:18Z</time>
      </trkpt>
      <trkpt lat="46.18275" lon="6.42218">
        <ele>858</ele>
        <time>2012-07-14T10:04:21Z</time>
      </trkpt>
      <trkpt lat="46.18275" lon="6.42233">
        <ele>858</ele>
        <time>2012-07-14T10:04:23Z</time>
      </trkpt>
      <trkpt lat="46.18272" lon="6.42246">
        <ele>858</ele>
        <time>2012-07-14T10:04:25Z</time>
      </trkpt>
      <trkpt lat="46.18267" lon="6.42264">
        <ele>858</ele>
        <time>2012-07-14T10:04:28Z</time>
      </trkpt>
      <trkpt lat="46.18261" lon="6.42276">
        <ele>864</ele>
        <time>2012-07-14T10:04:30Z</time>
      </trkpt>
      <trkpt lat="46.18251" lon="6.42288">
        <ele>864</ele>
        <time>2012-07-14T10:04:33Z</time>
      </trkpt>
      <trkpt lat="46.18241" lon="6.423">
        <ele>864</ele>
        <time>2012-07-14T10:04:36Z</time>
      </trkpt>
      <trkpt lat="46.18235" lon="6.42312">
        <ele>864</ele>
        <time>2012-07-14T10:04:38Z</time>
      </trkpt>
      <trkpt lat="46.18228" lon="6.42322">
        <ele>870</ele>
        <time>2012-07-14T10:04:40Z</time>
      </trkpt>
      <trkpt lat="46.18222" lon="6.42332">
        <ele>870</ele>
        <time>2012-07-14T10:04:43Z</time>
      </trkpt>
      <trkpt lat="46.18221" lon="6.42347">
        <ele>862</ele>
        <time>2012-07-14T10:05:18Z</time>
      </trkpt>
      <trkpt lat="46.18226" lon="6.42368">
        <ele>862</ele>
        <time>2012-07-14T10:05:21Z</time>
      </trkpt>
      <trkpt lat="46.18238" lon="6.42392">
        <ele>862</ele>
        <time>2012-07-14T10:05:23Z</time>
      </trkpt>
      <trkpt lat="46.18246" lon="6.42405">
        <ele>862</ele>
        <time>2012-07-14T10:05:24Z</time>
      </trkpt>
      <trkpt lat="46.18253" lon="6.42419">
        <ele>862</ele>
        <time>2012-07-14T10:05:25Z</time>
      </trkpt>
      <trkpt lat="46.18258" lon="6.42436">
        <ele>862</ele>
        <time>2012-07-14T10:05:26Z</time>
      </trkpt>
      <trkpt lat="46.18263" lon="6.4245">
        <ele>862</ele>
        <time>2012-07-14T10:05:27Z</time>
      </trkpt>
      <trkpt lat="46.18265" lon="6.42463">
        <ele>862</ele>
        <time>2012-07-14T10:05:28Z</time>
      </trkpt>
      <trkpt lat="46.18268" lon="6.42487">
        <ele>862</ele>
        <time>2012-07-14T10:05:30Z</time>
      </trkpt>
      <trkpt lat="46.18269" lon="6.42501">
        <ele>862</ele>
        <time>2012-07-14T10:05:31Z</time>
      </trkpt>
      <trkpt lat="46.1827" lon="6.42516">
        <ele>862</ele>
        <time>2012-07-14T10:05:32Z</time>
      </trkpt>
      <trkpt lat="46.1827" lon="6.42532">
        <ele>862</ele>
        <time>2012-07-14T10:05:33Z</time>
      </trkpt>
      <trkpt lat="46.1827" lon="6.42547">
        <ele>862</ele>
        <time>2012-07-14T10:05:34Z</time>
      </trkpt>
      <trkpt lat="46.1827" lon="6.4256">
        <ele>862</ele>
        <time>2012-07-14T10:05:35Z</time>
      </trkpt>
      <trkpt lat="46.18269" lon="6.42583">
        <ele>862</ele>
        <time>2012-07-14T10:05:37Z</time>
      </trkpt>
      <trkpt lat="46.18269" lon="6.42602">
        <ele>862</ele>
        <time>2012-07-14T10:05:39Z</time>
      </trkpt>
      <trkpt lat="46.18271" lon="6.42615">
        <ele>869</ele>
        <time>2012-07-14T10:05:41Z</time>
      </trkpt>
      <trkpt lat="46.18263" lon="6.4263">
        <ele>869</ele>
        <time>2012-07-14T10:05:44Z</time>
      </trkpt>
      <trkpt lat="46.18253" lon="6.42636">
        <ele>875</ele>
        <time>2012-07-14T10:05:46Z</time>
      </trkpt>
      <trkpt lat="46.18243" lon="6.42642">
        <ele>875</ele>
        <time>2012-07-14T10:05:48Z</time>
      </trkpt>
      <trkpt lat="46.18231" lon="6.42648">
        <ele>880</ele>
        <time>2012-07-14T10:05:51Z</time>
      </trkpt>
      <trkpt lat="46.18221" lon="6.42649">
        <ele>880</ele>
        <time>2012-07-14T10:05:53Z</time>
      </trkpt>
      <trkpt lat="46.18208" lon="6.42652">
        <ele>880</ele>
        <time>2012-07-14T10:05:55Z</time>
      </trkpt>
      <trkpt lat="46.18196" lon="6.42654">
        <ele>886</ele>
        <time>2012-07-14T10:05:57Z</time>
      </trkpt>
      <trkpt lat="46.18186" lon="6.42654">
        <ele>886</ele>
        <time>2012-07-14T10:05:59Z</time>
      </trkpt>
      <trkpt lat="46.18176" lon="6.42656">
        <ele>897</ele>
        <time>2012-07-14T10:06:01Z</time>
      </trkpt>
      <trkpt lat="46.18166" lon="6.42663">
        <ele>897</ele>
        <time>2012-07-14T10:06:04Z</time>
      </trkpt>
      <trkpt lat="46.18156" lon="6.42662">
        <ele>897</ele>
        <time>2012-07-14T10:06:06Z</time>
      </trkpt>
      <trkpt lat="46.18145" lon="6.42656">
        <ele>897</ele>
        <time>2012-07-14T10:06:10Z</time>
      </trkpt>
      <trkpt lat="46.18136" lon="6.42651">
        <ele>903</ele>
        <time>2012-07-14T10:06:12Z</time>
      </trkpt>
      <trkpt lat="46.18126" lon="6.42647">
        <ele>903</ele>
        <time>2012-07-14T10:06:14Z</time>
      </trkpt>
      <trkpt lat="46.18114" lon="6.42641">
        <ele>903</ele>
        <time>2012-07-14T10:06:16Z</time>
      </trkpt>
      <trkpt lat="46.18103" lon="6.42637">
        <ele>903</ele>
        <time>2012-07-14T10:06:18Z</time>
      </trkpt>
      <trkpt lat="46.18093" lon="6.42633">
        <ele>903</ele>
        <time>2012-07-14T10:06:20Z</time>
      </trkpt>
      <trkpt lat="46.18084" lon="6.4263">
        <ele>903</ele>
        <time>2012-07-14T10:06:24Z</time>
      </trkpt>
      <trkpt lat="46.18073" lon="6.4264">
        <ele>903</ele>
        <time>2012-07-14T10:06:28Z</time>
      </trkpt>
      <trkpt lat="46.18065" lon="6.42657">
        <ele>903</ele>
        <time>2012-07-14T10:06:31Z</time>
      </trkpt>
      <trkpt lat="46.18057" lon="6.42675">
        <ele>903</ele>
        <time>2012-07-14T10:06:33Z</time>
      </trkpt>
      <trkpt lat="46.18049" lon="6.42693">
        <ele>903</ele>
        <time>2012-07-14T10:06:35Z</time>
      </trkpt>
      <trkpt lat="46.18038" lon="6.4271">
        <ele>903</ele>
        <time>2012-07-14T10:06:37Z</time>
      </trkpt>
      <trkpt lat="46.18032" lon="6.42721">
        <ele>903</ele>
        <time>2012-07-14T10:06:38Z</time>
      </trkpt>
      <trkpt lat="46.18022" lon="6.42741">
        <ele>903</ele>
        <time>2012-07-14T10:06:40Z</time>
      </trkpt>
      <trkpt lat="46.18011" lon="6.42759">
        <ele>909</ele>
        <time>2012-07-14T10:06:42Z</time>
      </trkpt>
      <trkpt lat="46.17999" lon="6.42779">
        <ele>909</ele>
        <time>2012-07-14T10:06:44Z</time>
      </trkpt>
      <trkpt lat="46.17993" lon="6.4279">
        <ele>909</ele>
        <time>2012-07-14T10:06:45Z</time>
      </trkpt>
      <trkpt lat="46.17987" lon="6.428">
        <ele>914</ele>
        <time>2012-07-14T10:06:46Z</time>
      </trkpt>
      <trkpt lat="46.17979" lon="6.42819">
        <ele>914</ele>
        <time>2012-07-14T10:06:48Z</time>
      </trkpt>
      <trkpt lat="46.17968" lon="6.42836">
        <ele>925</ele>
        <time>2012-07-14T10:06:50Z</time>
      </trkpt>
      <trkpt lat="46.1796" lon="6.42855">
        <ele>925</ele>
        <time>2012-07-14T10:06:52Z</time>
      </trkpt>
      <trkpt lat="46.17954" lon="6.42866">
        <ele>933</ele>
        <time>2012-07-14T10:06:53Z</time>
      </trkpt>
      <trkpt lat="46.17947" lon="6.42876">
        <ele>933</ele>
        <time>2012-07-14T10:06:54Z</time>
      </trkpt>
      <trkpt lat="46.17935" lon="6.42888">
        <ele>941</ele>
        <time>2012-07-14T10:06:56Z</time>
      </trkpt>
      <trkpt lat="46.17927" lon="6.42899">
        <ele>967</ele>
        <time>2012-07-14T10:07:06Z</time>
      </trkpt>
      <trkpt lat="46.17921" lon="6.42914">
        <ele>967</ele>
        <time>2012-07-14T10:07:10Z</time>
      </trkpt>
      <trkpt lat="46.17916" lon="6.42927">
        <ele>967</ele>
        <time>2012-07-14T10:07:12Z</time>
      </trkpt>
      <trkpt lat="46.17907" lon="6.42943">
        <ele>967</ele>
        <time>2012-07-14T10:07:14Z</time>
      </trkpt>
      <trkpt lat="46.17896" lon="6.42959">
        <ele>975</ele>
        <time>2012-07-14T10:07:16Z</time>
      </trkpt>
      <trkpt lat="46.17883" lon="6.42976">
        <ele>975</ele>
        <time>2012-07-14T10:07:18Z</time>
      </trkpt>
      <trkpt lat="46.17871" lon="6.42989">
        <ele>975</ele>
        <time>2012-07-14T10:07:20Z</time>
      </trkpt>
      <trkpt lat="46.17864" lon="6.43">
        <ele>981</ele>
        <time>2012-07-14T10:07:22Z</time>
      </trkpt>
      <trkpt lat="46.17859" lon="6.43013">
        <ele>981</ele>
        <time>2012-07-14T10:07:25Z</time>
      </trkpt>
      <trkpt lat="46.17851" lon="6.43023">
        <ele>981</ele>
        <time>2012-07-14T10:07:28Z</time>
      </trkpt>
      <trkpt lat="46.17845" lon="6.43033">
        <ele>988</ele>
        <time>2012-07-14T10:07:30Z</time>
      </trkpt>
      <trkpt lat="46.17839" lon="6.43045">
        <ele>988</ele>
        <time>2012-07-14T10:07:32Z</time>
      </trkpt>
      <trkpt lat="46.17833" lon="6.43056">
        <ele>996</ele>
        <time>2012-07-14T10:07:34Z</time>
      </trkpt>
      <trkpt lat="46.17824" lon="6.43067">
        <ele>996</ele>
        <time>2012-07-14T10:07:36Z</time>
      </trkpt>
      <trkpt lat="46.17819" lon="6.4308">
        <ele>1010</ele>
        <time>2012-07-14T10:07:44Z</time>
      </trkpt>
      <trkpt lat="46.17812" lon="6.43094">
        <ele>1010</ele>
        <time>2012-07-14T10:07:46Z</time>
      </trkpt>
      <trkpt lat="46.17803" lon="6.43111">
        <ele>1010</ele>
        <time>2012-07-14T10:07:48Z</time>
      </trkpt>
      <trkpt lat="46.17791" lon="6.4313">
        <ele>1010</ele>
        <time>2012-07-14T10:07:50Z</time>
      </trkpt>
      <trkpt lat="46.17781" lon="6.43147">
        <ele>1010</ele>
        <time>2012-07-14T10:07:52Z</time>
      </trkpt>
      <trkpt lat="46.17771" lon="6.43162">
        <ele>1010</ele>
        <time>2012-07-14T10:07:54Z</time>
      </trkpt>
      <trkpt lat="46.17765" lon="6.43178">
        <ele>1010</ele>
        <time>2012-07-14T10:07:56Z</time>
      </trkpt>
      <trkpt lat="46.17756" lon="6.43193">
        <ele>1010</ele>
        <time>2012-07-14T10:07:58Z</time>
      </trkpt>
      <trkpt lat="46.17748" lon="6.43207">
        <ele>1016</ele>
        <time>2012-07-14T10:08:00Z</time>
      </trkpt>
      <trkpt lat="46.17741" lon="6.43222">
        <ele>1016</ele>
        <time>2012-07-14T10:08:03Z</time>
      </trkpt>
      <trkpt lat="46.17735" lon="6.43232">
        <ele>1016</ele>
        <time>2012-07-14T10:08:05Z</time>
      </trkpt>
      <trkpt lat="46.17728" lon="6.43246">
        <ele>1023</ele>
        <time>2012-07-14T10:08:07Z</time>
      </trkpt>
      <trkpt lat="46.17723" lon="6.43262">
        <ele>1023</ele>
        <time>2012-07-14T10:08:09Z</time>
      </trkpt>
      <trkpt lat="46.17714" lon="6.43279">
        <ele>1028</ele>
        <time>2012-07-14T10:08:11Z</time>
      </trkpt>
      <trkpt lat="46.17703" lon="6.43294">
        <ele>1034</ele>
        <time>2012-07-14T10:08:13Z</time>
      </trkpt>
      <trkpt lat="46.17697" lon="6.43305">
        <ele>1041</ele>
        <time>2012-07-14T10:08:15Z</time>
      </trkpt>
      <trkpt lat="46.17687" lon="6.43311">
        <ele>1049</ele>
        <time>2012-07-14T10:08:17Z</time>
      </trkpt>
      <trkpt lat="46.17676" lon="6.4331">
        <ele>1049</ele>
        <time>2012-07-14T10:08:33Z</time>
      </trkpt>
      <trkpt lat="46.17661" lon="6.43304">
        <ele>1049</ele>
        <time>2012-07-14T10:08:35Z</time>
      </trkpt>
      <trkpt lat="46.1765" lon="6.43299">
        <ele>1049</ele>
        <time>2012-07-14T10:08:36Z</time>
      </trkpt>
      <trkpt lat="46.17641" lon="6.43294">
        <ele>1049</ele>
        <time>2012-07-14T10:08:37Z</time>
      </trkpt>
      <trkpt lat="46.17629" lon="6.43278">
        <ele>1054</ele>
        <time>2012-07-14T10:08:39Z</time>
      </trkpt>
      <trkpt lat="46.17622" lon="6.43267">
        <ele>1054</ele>
        <time>2012-07-14T10:08:40Z</time>
      </trkpt>
      <trkpt lat="46.17615" lon="6.43255">
        <ele>1054</ele>
        <time>2012-07-14T10:08:41Z</time>
      </trkpt>
      <trkpt lat="46.1761" lon="6.43243">
        <ele>1059</ele>
        <time>2012-07-14T10:08:42Z</time>
      </trkpt>
      <trkpt lat="46.17608" lon="6.43229">
        <ele>1059</ele>
        <time>2012-07-14T10:08:43Z</time>
      </trkpt>
      <trkpt lat="46.17604" lon="6.43206">
        <ele>1059</ele>
        <time>2012-07-14T10:08:45Z</time>
      </trkpt>
      <trkpt lat="46.17597" lon="6.43187">
        <ele>1065</ele>
        <time>2012-07-14T10:08:47Z</time>
      </trkpt>
      <trkpt lat="46.17588" lon="6.43171">
        <ele>1065</ele>
        <time>2012-07-14T10:08:49Z</time>
      </trkpt>
      <trkpt lat="46.17575" lon="6.43155">
        <ele>1065</ele>
        <time>2012-07-14T10:08:51Z</time>
      </trkpt>
      <trkpt lat="46.17562" lon="6.43141">
        <ele>1065</ele>
        <time>2012-07-14T10:08:53Z</time>
      </trkpt>
      <trkpt lat="46.17549" lon="6.43127">
        <ele>1059</ele>
        <time>2012-07-14T10:08:55Z</time>
      </trkpt>
      <trkpt lat="46.17534" lon="6.43115">
        <ele>1059</ele>
        <time>2012-07-14T10:08:57Z</time>
      </trkpt>
      <trkpt lat="46.17523" lon="6.43104">
        <ele>1059</ele>
        <time>2012-07-14T10:08:59Z</time>
      </trkpt>
      <trkpt lat="46.17513" lon="6.43093">
        <ele>1059</ele>
        <time>2012-07-14T10:09:01Z</time>
      </trkpt>
      <trkpt lat="46.17507" lon="6.43082">
        <ele>1059</ele>
        <time>2012-07-14T10:09:03Z</time>
      </trkpt>
      <trkpt lat="46.17501" lon="6.43072">
        <ele>1059</ele>
        <time>2012-07-14T10:09:05Z</time>
      </trkpt>
      <trkpt lat="46.17492" lon="6.43061">
        <ele>1059</ele>
        <time>2012-07-14T10:09:08Z</time>
      </trkpt>
      <trkpt lat="46.17483" lon="6.43051">
        <ele>1059</ele>
        <time>2012-07-14T10:09:11Z</time>
      </trkpt>
      <trkpt lat="46.17474" lon="6.43038">
        <ele>1059</ele>
        <time>2012-07-14T10:09:14Z</time>
      </trkpt>
      <trkpt lat="46.17466" lon="6.4303">
        <ele>1059</ele>
        <time>2012-07-14T10:09:16Z</time>
      </trkpt>
      <trkpt lat="46.17458" lon="6.43021">
        <ele>1052</ele>
        <time>2012-07-14T10:09:18Z</time>
      </trkpt>
      <trkpt lat="46.17447" lon="6.43014">
        <ele>1052</ele>
        <time>2012-07-14T10:09:20Z</time>
      </trkpt>
      <trkpt lat="46.17436" lon="6.43009">
        <ele>1052</ele>
        <time>2012-07-14T10:09:22Z</time>
      </trkpt>
      <trkpt lat="46.17424" lon="6.43003">
        <ele>1052</ele>
        <time>2012-07-14T10:09:24Z</time>
      </trkpt>
      <trkpt lat="46.17411" lon="6.42999">
        <ele>1052</ele>
        <time>2012-07-14T10:09:26Z</time>
      </trkpt>
      <trkpt lat="46.17396" lon="6.42993">
        <ele>1052</ele>
        <time>2012-07-14T10:09:28Z</time>
      </trkpt>
      <trkpt lat="46.17382" lon="6.42989">
        <ele>1052</ele>
        <time>2012-07-14T10:09:30Z</time>
      </trkpt>
      <trkpt lat="46.17368" lon="6.42981">
        <ele>1052</ele>
        <time>2012-07-14T10:09:32Z</time>
      </trkpt>
      <trkpt lat="46.17355" lon="6.42972">
        <ele>1052</ele>
        <time>2012-07-14T10:09:34Z</time>
      </trkpt>
      <trkpt lat="46.17344" lon="6.42967">
        <ele>1052</ele>
        <time>2012-07-14T10:09:36Z</time>
      </trkpt>
      <trkpt lat="46.1733" lon="6.42961">
        <ele>1052</ele>
        <time>2012-07-14T10:09:38Z</time>
      </trkpt>
      <trkpt lat="46.17316" lon="6.42956">
        <ele>1052</ele>
        <time>2012-07-14T10:09:40Z</time>
      </trkpt>
      <trkpt lat="46.17304" lon="6.42945">
        <ele>1057</ele>
        <time>2012-07-14T10:09:42Z</time>
      </trkpt>
      <trkpt lat="46.17293" lon="6.42937">
        <ele>1057</ele>
        <time>2012-07-14T10:09:44Z</time>
      </trkpt>
      <trkpt lat="46.17281" lon="6.42927">
        <ele>1057</ele>
        <time>2012-07-14T10:09:46Z</time>
      </trkpt>
      <trkpt lat="46.1727" lon="6.42922">
        <ele>1057</ele>
        <time>2012-07-14T10:09:48Z</time>
      </trkpt>
      <trkpt lat="46.17257" lon="6.42923">
        <ele>1057</ele>
        <time>2012-07-14T10:09:50Z</time>
      </trkpt>
      <trkpt lat="46.17245" lon="6.42929">
        <ele>1063</ele>
        <time>2012-07-14T10:09:52Z</time>
      </trkpt>
      <trkpt lat="46.17235" lon="6.42935">
        <ele>1063</ele>
        <time>2012-07-14T10:09:54Z</time>
      </trkpt>
      <trkpt lat="46.17222" lon="6.42938">
        <ele>1063</ele>
        <time>2012-07-14T10:09:56Z</time>
      </trkpt>
      <trkpt lat="46.17207" lon="6.4294">
        <ele>1063</ele>
        <time>2012-07-14T10:09:58Z</time>
      </trkpt>
      <trkpt lat="46.17196" lon="6.42945">
        <ele>1063</ele>
        <time>2012-07-14T10:10:00Z</time>
      </trkpt>
      <trkpt lat="46.17185" lon="6.4295">
        <ele>1063</ele>
        <time>2012-07-14T10:10:02Z</time>
      </trkpt>
      <trkpt lat="46.17172" lon="6.42961">
        <ele>1069</ele>
        <time>2012-07-14T10:10:04Z</time>
      </trkpt>
      <trkpt lat="46.17164" lon="6.42972">
        <ele>1069</ele>
        <time>2012-07-14T10:10:06Z</time>
      </trkpt>
      <trkpt lat="46.17155" lon="6.42979">
        <ele>1079</ele>
        <time>2012-07-14T10:10:09Z</time>
      </trkpt>
      <trkpt lat="46.17146" lon="6.42975">
        <ele>1090</ele>
        <time>2012-07-14T10:10:11Z</time>
      </trkpt>
      <trkpt lat="46.17154" lon="6.42967">
        <ele>1107</ele>
        <time>2012-07-14T10:11:17Z</time>
      </trkpt>
      <trkpt lat="46.17158" lon="6.42979">
        <ele>1077</ele>
        <time>2012-07-14T10:11:59Z</time>
      </trkpt>
      <trkpt lat="46.17147" lon="6.42968">
        <ele>1095</ele>
        <time>2012-07-14T10:14:13Z</time>
      </trkpt>
      <trkpt lat="46.17137" lon="6.42958">
        <ele>1095</ele>
        <time>2012-07-14T10:14:15Z</time>
      </trkpt>
      <trkpt lat="46.17121" lon="6.42948">
        <ele>1095</ele>
        <time>2012-07-14T10:14:17Z</time>
      </trkpt>
      <trkpt lat="46.1711" lon="6.42943">
        <ele>1095</ele>
        <time>2012-07-14T10:14:18Z</time>
      </trkpt>
      <trkpt lat="46.17101" lon="6.42938">
        <ele>1095</ele>
        <time>2012-07-14T10:14:19Z</time>
      </trkpt>
      <trkpt lat="46.17084" lon="6.42927">
        <ele>1095</ele>
        <time>2012-07-14T10:14:21Z</time>
      </trkpt>
      <trkpt lat="46.17069" lon="6.42918">
        <ele>1095</ele>
        <time>2012-07-14T10:14:23Z</time>
      </trkpt>
      <trkpt lat="46.17052" lon="6.42911">
        <ele>1095</ele>
        <time>2012-07-14T10:14:25Z</time>
      </trkpt>
      <trkpt lat="46.17041" lon="6.42907">
        <ele>1089</ele>
        <time>2012-07-14T10:14:27Z</time>
      </trkpt>
      <trkpt lat="46.1703" lon="6.42908">
        <ele>1089</ele>
        <time>2012-07-14T10:14:34Z</time>
      </trkpt>
      <trkpt lat="46.17019" lon="6.42904">
        <ele>1089</ele>
        <time>2012-07-14T10:14:37Z</time>
      </trkpt>
      <trkpt lat="46.17008" lon="6.42904">
        <ele>1089</ele>
        <time>2012-07-14T10:14:39Z</time>
      </trkpt>
      <trkpt lat="46.16995" lon="6.42906">
        <ele>1084</ele>
        <time>2012-07-14T10:14:41Z</time>
      </trkpt>
      <trkpt lat="46.16983" lon="6.42905">
        <ele>1084</ele>
        <time>2012-07-14T10:14:42Z</time>
      </trkpt>
      <trkpt lat="46.16972" lon="6.42904">
        <ele>1084</ele>
        <time>2012-07-14T10:14:43Z</time>
      </trkpt>
      <trkpt lat="46.16962" lon="6.42901">
        <ele>1084</ele>
        <time>2012-07-14T10:14:44Z</time>
      </trkpt>
      <trkpt lat="46.16953" lon="6.42899">
        <ele>1084</ele>
        <time>2012-07-14T10:14:45Z</time>
      </trkpt>
      <trkpt lat="46.16936" lon="6.42897">
        <ele>1084</ele>
        <time>2012-07-14T10:14:47Z</time>
      </trkpt>
      <trkpt lat="46.16921" lon="6.42899">
        <ele>1084</ele>
        <time>2012-07-14T10:14:49Z</time>
      </trkpt>
      <trkpt lat="46.16908" lon="6.42905">
        <ele>1084</ele>
        <time>2012-07-14T10:14:51Z</time>
      </trkpt>
      <trkpt lat="46.16895" lon="6.42911">
        <ele>1084</ele>
        <time>2012-07-14T10:14:53Z</time>
      </trkpt>
      <trkpt lat="46.16881" lon="6.4292">
        <ele>1084</ele>
        <time>2012-07-14T10:14:55Z</time>
      </trkpt>
      <trkpt lat="46.1687" lon="6.42929">
        <ele>1084</ele>
        <time>2012-07-14T10:14:57Z</time>
      </trkpt>
      <trkpt lat="46.16863" lon="6.42941">
        <ele>1084</ele>
        <time>2012-07-14T10:15:00Z</time>
      </trkpt>
      <trkpt lat="46.16866" lon="6.42958">
        <ele>1084</ele>
        <time>2012-07-14T10:15:03Z</time>
      </trkpt>
      <trkpt lat="46.16862" lon="6.42973">
        <ele>1084</ele>
        <time>2012-07-14T10:15:06Z</time>
      </trkpt>
      <trkpt lat="46.16865" lon="6.4299">
        <ele>1092</ele>
        <time>2012-07-14T10:15:10Z</time>
      </trkpt>
      <trkpt lat="46.16871" lon="6.43001">
        <ele>1092</ele>
        <time>2012-07-14T10:15:13Z</time>
      </trkpt>
      <trkpt lat="46.16881" lon="6.43007">
        <ele>1106</ele>
        <time>2012-07-14T10:15:23Z</time>
      </trkpt>
      <trkpt lat="46.16892" lon="6.43011">
        <ele>1112</ele>
        <time>2012-07-14T10:15:26Z</time>
      </trkpt>
      <trkpt lat="46.16904" lon="6.43021">
        <ele>1117</ele>
        <time>2012-07-14T10:15:29Z</time>
      </trkpt>
      <trkpt lat="46.16913" lon="6.43027">
        <ele>1117</ele>
        <time>2012-07-14T10:15:30Z</time>
      </trkpt>
      <trkpt lat="46.16925" lon="6.43037">
        <ele>1123</ele>
        <time>2012-07-14T10:15:32Z</time>
      </trkpt>
      <trkpt lat="46.16941" lon="6.43046">
        <ele>1129</ele>
        <time>2012-07-14T10:15:34Z</time>
      </trkpt>
      <trkpt lat="46.16953" lon="6.43056">
        <ele>1134</ele>
        <time>2012-07-14T10:15:36Z</time>
      </trkpt>
      <trkpt lat="46.16966" lon="6.43065">
        <ele>1134</ele>
        <time>2012-07-14T10:15:38Z</time>
      </trkpt>
      <trkpt lat="46.16976" lon="6.43079">
        <ele>1143</ele>
        <time>2012-07-14T10:15:40Z</time>
      </trkpt>
      <trkpt lat="46.16986" lon="6.43088">
        <ele>1143</ele>
        <time>2012-07-14T10:15:42Z</time>
      </trkpt>
      <trkpt lat="46.16996" lon="6.43092">
        <ele>1153</ele>
        <time>2012-07-14T10:15:50Z</time>
      </trkpt>
      <trkpt lat="46.17004" lon="6.43099">
        <ele>1153</ele>
        <time>2012-07-14T10:15:53Z</time>
      </trkpt>
      <trkpt lat="46.17013" lon="6.43101">
        <ele>1160</ele>
        <time>2012-07-14T10:15:56Z</time>
      </trkpt>
      <trkpt lat="46.17023" lon="6.43103">
        <ele>1160</ele>
        <time>2012-07-14T10:15:58Z</time>
      </trkpt>
      <trkpt lat="46.17033" lon="6.43107">
        <ele>1160</ele>
        <time>2012-07-14T10:16:00Z</time>
      </trkpt>
      <trkpt lat="46.17043" lon="6.43117">
        <ele>1160</ele>
        <time>2012-07-14T10:16:02Z</time>
      </trkpt>
      <trkpt lat="46.17054" lon="6.43128">
        <ele>1160</ele>
        <time>2012-07-14T10:16:04Z</time>
      </trkpt>
      <trkpt lat="46.17067" lon="6.43141">
        <ele>1160</ele>
        <time>2012-07-14T10:16:06Z</time>
      </trkpt>
      <trkpt lat="46.17077" lon="6.43148">
        <ele>1160</ele>
        <time>2012-07-14T10:16:08Z</time>
      </trkpt>
      <trkpt lat="46.17087" lon="6.43152">
        <ele>1160</ele>
        <time>2012-07-14T10:16:17Z</time>
      </trkpt>
      <trkpt lat="46.17096" lon="6.43158">
        <ele>1160</ele>
        <time>2012-07-14T10:16:19Z</time>
      </trkpt>
      <trkpt lat="46.17106" lon="6.43166">
        <ele>1160</ele>
        <time>2012-07-14T10:16:21Z</time>
      </trkpt>
      <trkpt lat="46.17115" lon="6.43176">
        <ele>1160</ele>
        <time>2012-07-14T10:16:23Z</time>
      </trkpt>
      <trkpt lat="46.17122" lon="6.43188">
        <ele>1160</ele>
        <time>2012-07-14T10:16:25Z</time>
      </trkpt>
      <trkpt lat="46.17129" lon="6.43203">
        <ele>1166</ele>
        <time>2012-07-14T10:16:27Z</time>
      </trkpt>
      <trkpt lat="46.17134" lon="6.43217">
        <ele>1166</ele>
        <time>2012-07-14T10:16:29Z</time>
      </trkpt>
      <trkpt lat="46.1714" lon="6.43232">
        <ele>1166</ele>
        <time>2012-07-14T10:16:31Z</time>
      </trkpt>
      <trkpt lat="46.17147" lon="6.43247">
        <ele>1166</ele>
        <time>2012-07-14T10:16:33Z</time>
      </trkpt>
      <trkpt lat="46.17155" lon="6.43262">
        <ele>1166</ele>
        <time>2012-07-14T10:16:35Z</time>
      </trkpt>
      <trkpt lat="46.1716" lon="6.43275">
        <ele>1166</ele>
        <time>2012-07-14T10:16:37Z</time>
      </trkpt>
      <trkpt lat="46.17166" lon="6.43285">
        <ele>1166</ele>
        <time>2012-07-14T10:16:39Z</time>
      </trkpt>
      <trkpt lat="46.17172" lon="6.43298">
        <ele>1172</ele>
        <time>2012-07-14T10:16:42Z</time>
      </trkpt>
      <trkpt lat="46.1718" lon="6.43311">
        <ele>1178</ele>
        <time>2012-07-14T10:16:45Z</time>
      </trkpt>
      <trkpt lat="46.17185" lon="6.43323">
        <ele>1178</ele>
        <time>2012-07-14T10:16:47Z</time>
      </trkpt>
      <trkpt lat="46.1719" lon="6.43336">
        <ele>1188</ele>
        <time>2012-07-14T10:16:50Z</time>
      </trkpt>
      <trkpt lat="46.17199" lon="6.4335">
        <ele>1188</ele>
        <time>2012-07-14T10:16:53Z</time>
      </trkpt>
      <trkpt lat="46.17205" lon="6.43364">
        <ele>1195</ele>
        <time>2012-07-14T10:16:55Z</time>
      </trkpt>
      <trkpt lat="46.17215" lon="6.43377">
        <ele>1195</ele>
        <time>2012-07-14T10:16:57Z</time>
      </trkpt>
      <trkpt lat="46.17221" lon="6.43388">
        <ele>1195</ele>
        <time>2012-07-14T10:16:59Z</time>
      </trkpt>
      <trkpt lat="46.1723" lon="6.434">
        <ele>1205</ele>
        <time>2012-07-14T10:17:02Z</time>
      </trkpt>
      <trkpt lat="46.17238" lon="6.43412">
        <ele>1205</ele>
        <time>2012-07-14T10:17:04Z</time>
      </trkpt>
      <trkpt lat="46.17248" lon="6.43426">
        <ele>1205</ele>
        <time>2012-07-14T10:17:06Z</time>
      </trkpt>
      <trkpt lat="46.17256" lon="6.43438">
        <ele>1211</ele>
        <time>2012-07-14T10:17:08Z</time>
      </trkpt>
      <trkpt lat="46.17265" lon="6.43451">
        <ele>1211</ele>
        <time>2012-07-14T10:17:11Z</time>
      </trkpt>
      <trkpt lat="46.17273" lon="6.43463">
        <ele>1211</ele>
        <time>2012-07-14T10:17:13Z</time>
      </trkpt>
      <trkpt lat="46.17278" lon="6.43478">
        <ele>1211</ele>
        <time>2012-07-14T10:17:15Z</time>
      </trkpt>
      <trkpt lat="46.17284" lon="6.4349">
        <ele>1211</ele>
        <time>2012-07-14T10:17:17Z</time>
      </trkpt>
      <trkpt lat="46.17287" lon="6.43503">
        <ele>1211</ele>
        <time>2012-07-14T10:17:20Z</time>
      </trkpt>
      <trkpt lat="46.17278" lon="6.43507">
        <ele>1211</ele>
        <time>2012-07-14T10:17:47Z</time>
      </trkpt>
      <trkpt lat="46.17284" lon="6.43497">
        <ele>1221</ele>
        <time>2012-07-14T10:18:11Z</time>
      </trkpt>
      <trkpt lat="46.17293" lon="6.43494">
        <ele>1221</ele>
        <time>2012-07-14T10:18:36Z</time>
      </trkpt>
      <trkpt lat="46.17301" lon="6.43503">
        <ele>1214</ele>
        <time>2012-07-14T10:19:07Z</time>
      </trkpt>
      <trkpt lat="46.17301" lon="6.43519">
        <ele>1220</ele>
        <time>2012-07-14T10:19:29Z</time>
      </trkpt>
      <trkpt lat="46.17302" lon="6.43538">
        <ele>1220</ele>
        <time>2012-07-14T10:19:31Z</time>
      </trkpt>
      <trkpt lat="46.17306" lon="6.43556">
        <ele>1214</ele>
        <time>2012-07-14T10:19:33Z</time>
      </trkpt>
      <trkpt lat="46.1731" lon="6.43569">
        <ele>1214</ele>
        <time>2012-07-14T10:19:35Z</time>
      </trkpt>
      <trkpt lat="46.17316" lon="6.43583">
        <ele>1214</ele>
        <time>2012-07-14T10:19:37Z</time>
      </trkpt>
      <trkpt lat="46.17321" lon="6.43596">
        <ele>1214</ele>
        <time>2012-07-14T10:19:39Z</time>
      </trkpt>
      <trkpt lat="46.17324" lon="6.43611">
        <ele>1214</ele>
        <time>2012-07-14T10:19:41Z</time>
      </trkpt>
      <trkpt lat="46.17323" lon="6.43625">
        <ele>1214</ele>
        <time>2012-07-14T10:19:43Z</time>
      </trkpt>
      <trkpt lat="46.1732" lon="6.43641">
        <ele>1214</ele>
        <time>2012-07-14T10:19:45Z</time>
      </trkpt>
      <trkpt lat="46.17318" lon="6.43659">
        <ele>1214</ele>
        <time>2012-07-14T10:19:47Z</time>
      </trkpt>
      <trkpt lat="46.17321" lon="6.43676">
        <ele>1222</ele>
        <time>2012-07-14T10:19:49Z</time>
      </trkpt>
      <trkpt lat="46.17323" lon="6.43693">
        <ele>1222</ele>
        <time>2012-07-14T10:19:51Z</time>
      </trkpt>
      <trkpt lat="46.17318" lon="6.43707">
        <ele>1230</ele>
        <time>2012-07-14T10:19:54Z</time>
      </trkpt>
      <trkpt lat="46.17305" lon="6.43703">
        <ele>1230</ele>
        <time>2012-07-14T10:19:57Z</time>
      </trkpt>
      <trkpt lat="46.17292" lon="6.43695">
        <ele>1238</ele>
        <time>2012-07-14T10:19:59Z</time>
      </trkpt>
      <trkpt lat="46.17279" lon="6.43687">
        <ele>1238</ele>
        <time>2012-07-14T10:20:01Z</time>
      </trkpt>
      <trkpt lat="46.17265" lon="6.4368">
        <ele>1245</ele>
        <time>2012-07-14T10:20:03Z</time>
      </trkpt>
      <trkpt lat="46.17255" lon="6.43672">
        <ele>1245</ele>
        <time>2012-07-14T10:20:05Z</time>
      </trkpt>
      <trkpt lat="46.17246" lon="6.43664">
        <ele>1255</ele>
        <time>2012-07-14T10:20:07Z</time>
      </trkpt>
      <trkpt lat="46.17227" lon="6.43654">
        <ele>1255</ele>
        <time>2012-07-14T10:20:10Z</time>
      </trkpt>
      <trkpt lat="46.17209" lon="6.43645">
        <ele>1266</ele>
        <time>2012-07-14T10:20:12Z</time>
      </trkpt>
      <trkpt lat="46.17199" lon="6.43642">
        <ele>1266</ele>
        <time>2012-07-14T10:20:13Z</time>
      </trkpt>
      <trkpt lat="46.17185" lon="6.43637">
        <ele>1272</ele>
        <time>2012-07-14T10:20:15Z</time>
      </trkpt>
      <trkpt lat="46.17172" lon="6.43631">
        <ele>1272</ele>
        <time>2012-07-14T10:20:17Z</time>
      </trkpt>
      <trkpt lat="46.1716" lon="6.43622">
        <ele>1272</ele>
        <time>2012-07-14T10:20:19Z</time>
      </trkpt>
      <trkpt lat="46.17149" lon="6.43612">
        <ele>1272</ele>
        <time>2012-07-14T10:20:21Z</time>
      </trkpt>
      <trkpt lat="46.17139" lon="6.43602">
        <ele>1278</ele>
        <time>2012-07-14T10:20:23Z</time>
      </trkpt>
      <trkpt lat="46.17129" lon="6.43589">
        <ele>1278</ele>
        <time>2012-07-14T10:20:25Z</time>
      </trkpt>
      <trkpt lat="46.17119" lon="6.43576">
        <ele>1278</ele>
        <time>2012-07-14T10:20:27Z</time>
      </trkpt>
      <trkpt lat="46.17121" lon="6.43589">
        <ele>1278</ele>
        <time>2012-07-14T10:20:41Z</time>
      </trkpt>
      <trkpt lat="46.1713" lon="6.43603">
        <ele>1278</ele>
        <time>2012-07-14T10:20:43Z</time>
      </trkpt>
      <trkpt lat="46.17139" lon="6.4362">
        <ele>1278</ele>
        <time>2012-07-14T10:20:45Z</time>
      </trkpt>
      <trkpt lat="46.1715" lon="6.43638">
        <ele>1278</ele>
        <time>2012-07-14T10:20:47Z</time>
      </trkpt>
      <trkpt lat="46.1716" lon="6.43659">
        <ele>1278</ele>
        <time>2012-07-14T10:20:49Z</time>
      </trkpt>
      <trkpt lat="46.17166" lon="6.43671">
        <ele>1278</ele>
        <time>2012-07-14T10:20:50Z</time>
      </trkpt>
      <trkpt lat="46.17172" lon="6.43682">
        <ele>1278</ele>
        <time>2012-07-14T10:20:51Z</time>
      </trkpt>
      <trkpt lat="46.17179" lon="6.43694">
        <ele>1278</ele>
        <time>2012-07-14T10:20:52Z</time>
      </trkpt>
      <trkpt lat="46.17186" lon="6.43705">
        <ele>1278</ele>
        <time>2012-07-14T10:20:53Z</time>
      </trkpt>
      <trkpt lat="46.17194" lon="6.43715">
        <ele>1278</ele>
        <time>2012-07-14T10:20:54Z</time>
      </trkpt>
      <trkpt lat="46.172" lon="6.43724">
        <ele>1278</ele>
        <time>2012-07-14T10:20:55Z</time>
      </trkpt>
      <trkpt lat="46.17207" lon="6.43734">
        <ele>1283</ele>
        <time>2012-07-14T10:20:56Z</time>
      </trkpt>
      <trkpt lat="46.17213" lon="6.43744">
        <ele>1283</ele>
        <time>2012-07-14T10:20:57Z</time>
      </trkpt>
      <trkpt lat="46.17219" lon="6.43753">
        <ele>1283</ele>
        <time>2012-07-14T10:20:58Z</time>
      </trkpt>
      <trkpt lat="46.17226" lon="6.43765">
        <ele>1283</ele>
        <time>2012-07-14T10:20:59Z</time>
      </trkpt>
      <trkpt lat="46.17232" lon="6.43775">
        <ele>1283</ele>
        <time>2012-07-14T10:21:00Z</time>
      </trkpt>
      <trkpt lat="46.17243" lon="6.43795">
        <ele>1283</ele>
        <time>2012-07-14T10:21:02Z</time>
      </trkpt>
      <trkpt lat="46.17256" lon="6.43815">
        <ele>1289</ele>
        <time>2012-07-14T10:21:04Z</time>
      </trkpt>
      <trkpt lat="46.17262" lon="6.43826">
        <ele>1289</ele>
        <time>2012-07-14T10:21:05Z</time>
      </trkpt>
      <trkpt lat="46.17273" lon="6.43845">
        <ele>1289</ele>
        <time>2012-07-14T10:21:07Z</time>
      </trkpt>
      <trkpt lat="46.17285" lon="6.43861">
        <ele>1294</ele>
        <time>2012-07-14T10:21:09Z</time>
      </trkpt>
      <trkpt lat="46.17295" lon="6.43874">
        <ele>1294</ele>
        <time>2012-07-14T10:21:11Z</time>
      </trkpt>
      <trkpt lat="46.17305" lon="6.4388">
        <ele>1303</ele>
        <time>2012-07-14T10:21:14Z</time>
      </trkpt>
      <trkpt lat="46.17315" lon="6.4389">
        <ele>1303</ele>
        <time>2012-07-14T10:21:16Z</time>
      </trkpt>
      <trkpt lat="46.17323" lon="6.43898">
        <ele>1303</ele>
        <time>2012-07-14T10:21:18Z</time>
      </trkpt>
      <trkpt lat="46.17338" lon="6.43903">
        <ele>1303</ele>
        <time>2012-07-14T10:21:20Z</time>
      </trkpt>
      <trkpt lat="46.17354" lon="6.4391">
        <ele>1303</ele>
        <time>2012-07-14T10:21:22Z</time>
      </trkpt>
      <trkpt lat="46.17371" lon="6.43914">
        <ele>1311</ele>
        <time>2012-07-14T10:21:24Z</time>
      </trkpt>
      <trkpt lat="46.17381" lon="6.43921">
        <ele>1311</ele>
        <time>2012-07-14T10:21:26Z</time>
      </trkpt>
      <trkpt lat="46.17391" lon="6.43937">
        <ele>1311</ele>
        <time>2012-07-14T10:21:28Z</time>
      </trkpt>
      <trkpt lat="46.17397" lon="6.43958">
        <ele>1311</ele>
        <time>2012-07-14T10:21:30Z</time>
      </trkpt>
      <trkpt lat="46.17399" lon="6.43975">
        <ele>1311</ele>
        <time>2012-07-14T10:21:32Z</time>
      </trkpt>
      <trkpt lat="46.17397" lon="6.43992">
        <ele>1311</ele>
        <time>2012-07-14T10:21:34Z</time>
      </trkpt>
      <trkpt lat="46.17393" lon="6.44008">
        <ele>1311</ele>
        <time>2012-07-14T10:21:36Z</time>
      </trkpt>
      <trkpt lat="46.17388" lon="6.44023">
        <ele>1311</ele>
        <time>2012-07-14T10:21:38Z</time>
      </trkpt>
      <trkpt lat="46.17383" lon="6.4404">
        <ele>1305</ele>
        <time>2012-07-14T10:21:40Z</time>
      </trkpt>
      <trkpt lat="46.17378" lon="6.4406">
        <ele>1305</ele>
        <time>2012-07-14T10:21:42Z</time>
      </trkpt>
      <trkpt lat="46.17372" lon="6.4408">
        <ele>1297</ele>
        <time>2012-07-14T10:21:44Z</time>
      </trkpt>
      <trkpt lat="46.17366" lon="6.44097">
        <ele>1297</ele>
        <time>2012-07-14T10:21:46Z</time>
      </trkpt>
      <trkpt lat="46.17361" lon="6.44109">
        <ele>1297</ele>
        <time>2012-07-14T10:21:48Z</time>
      </trkpt>
      <trkpt lat="46.17353" lon="6.44117">
        <ele>1297</ele>
        <time>2012-07-14T10:21:50Z</time>
      </trkpt>
      <trkpt lat="46.17342" lon="6.44124">
        <ele>1297</ele>
        <time>2012-07-14T10:21:52Z</time>
      </trkpt>
      <trkpt lat="46.17328" lon="6.4413">
        <ele>1297</ele>
        <time>2012-07-14T10:21:54Z</time>
      </trkpt>
      <trkpt lat="46.17311" lon="6.44137">
        <ele>1297</ele>
        <time>2012-07-14T10:21:56Z</time>
      </trkpt>
      <trkpt lat="46.17295" lon="6.44147">
        <ele>1297</ele>
        <time>2012-07-14T10:21:58Z</time>
      </trkpt>
      <trkpt lat="46.17283" lon="6.44159">
        <ele>1297</ele>
        <time>2012-07-14T10:22:00Z</time>
      </trkpt>
      <trkpt lat="46.17274" lon="6.44174">
        <ele>1297</ele>
        <time>2012-07-14T10:22:02Z</time>
      </trkpt>
      <trkpt lat="46.17268" lon="6.44188">
        <ele>1297</ele>
        <time>2012-07-14T10:22:04Z</time>
      </trkpt>
      <trkpt lat="46.17265" lon="6.44204">
        <ele>1297</ele>
        <time>2012-07-14T10:22:06Z</time>
      </trkpt>
      <trkpt lat="46.17258" lon="6.44217">
        <ele>1297</ele>
        <time>2012-07-14T10:22:09Z</time>
      </trkpt>
      <trkpt lat="46.17253" lon="6.44229">
        <ele>1307</ele>
        <time>2012-07-14T10:35:35Z</time>
      </trkpt>
      <trkpt lat="46.17244" lon="6.44238">
        <ele>1307</ele>
        <time>2012-07-14T10:35:38Z</time>
      </trkpt>
      <trkpt lat="46.17235" lon="6.44248">
        <ele>1307</ele>
        <time>2012-07-14T10:35:40Z</time>
      </trkpt>
      <trkpt lat="46.17223" lon="6.44258">
        <ele>1307</ele>
        <time>2012-07-14T10:35:42Z</time>
      </trkpt>
      <trkpt lat="46.17212" lon="6.44268">
        <ele>1307</ele>
        <time>2012-07-14T10:35:44Z</time>
      </trkpt>
      <trkpt lat="46.17202" lon="6.44278">
        <ele>1307</ele>
        <time>2012-07-14T10:35:46Z</time>
      </trkpt>
      <trkpt lat="46.17193" lon="6.44288">
        <ele>1307</ele>
        <time>2012-07-14T10:35:48Z</time>
      </trkpt>
      <trkpt lat="46.1719" lon="6.44301">
        <ele>1307</ele>
        <time>2012-07-14T10:35:50Z</time>
      </trkpt>
      <trkpt lat="46.17194" lon="6.44315">
        <ele>1307</ele>
        <time>2012-07-14T10:35:54Z</time>
      </trkpt>
      <trkpt lat="46.17207" lon="6.44319">
        <ele>1307</ele>
        <time>2012-07-14T10:35:57Z</time>
      </trkpt>
      <trkpt lat="46.1722" lon="6.44319">
        <ele>1301</ele>
        <time>2012-07-14T10:35:59Z</time>
      </trkpt>
      <trkpt lat="46.17237" lon="6.44318">
        <ele>1301</ele>
        <time>2012-07-14T10:36:01Z</time>
      </trkpt>
      <trkpt lat="46.17253" lon="6.44317">
        <ele>1301</ele>
        <time>2012-07-14T10:36:03Z</time>
      </trkpt>
      <trkpt lat="46.1727" lon="6.4431">
        <ele>1301</ele>
        <time>2012-07-14T10:36:05Z</time>
      </trkpt>
      <trkpt lat="46.17278" lon="6.44304">
        <ele>1301</ele>
        <time>2012-07-14T10:36:06Z</time>
      </trkpt>
      <trkpt lat="46.17286" lon="6.44295">
        <ele>1301</ele>
        <time>2012-07-14T10:36:07Z</time>
      </trkpt>
      <trkpt lat="46.17297" lon="6.44289">
        <ele>1301</ele>
        <time>2012-07-14T10:36:08Z</time>
      </trkpt>
      <trkpt lat="46.17307" lon="6.44284">
        <ele>1301</ele>
        <time>2012-07-14T10:36:09Z</time>
      </trkpt>
      <trkpt lat="46.17327" lon="6.44274">
        <ele>1294</ele>
        <time>2012-07-14T10:36:11Z</time>
      </trkpt>
      <trkpt lat="46.17338" lon="6.4427">
        <ele>1294</ele>
        <time>2012-07-14T10:36:12Z</time>
      </trkpt>
      <trkpt lat="46.17348" lon="6.44265">
        <ele>1294</ele>
        <time>2012-07-14T10:36:13Z</time>
      </trkpt>
      <trkpt lat="46.17356" lon="6.44259">
        <ele>1294</ele>
        <time>2012-07-14T10:36:14Z</time>
      </trkpt>
      <trkpt lat="46.17363" lon="6.44248">
        <ele>1294</ele>
        <time>2012-07-14T10:36:15Z</time>
      </trkpt>
      <trkpt lat="46.17368" lon="6.44235">
        <ele>1287</ele>
        <time>2012-07-14T10:36:16Z</time>
      </trkpt>
      <trkpt lat="46.17375" lon="6.44222">
        <ele>1287</ele>
        <time>2012-07-14T10:36:17Z</time>
      </trkpt>
      <trkpt lat="46.17383" lon="6.44212">
        <ele>1282</ele>
        <time>2012-07-14T10:36:18Z</time>
      </trkpt>
      <trkpt lat="46.17398" lon="6.44199">
        <ele>1282</ele>
        <time>2012-07-14T10:36:20Z</time>
      </trkpt>
      <trkpt lat="46.17408" lon="6.44195">
        <ele>1275</ele>
        <time>2012-07-14T10:36:21Z</time>
      </trkpt>
      <trkpt lat="46.17419" lon="6.44193">
        <ele>1275</ele>
        <time>2012-07-14T10:36:22Z</time>
      </trkpt>
      <trkpt lat="46.17436" lon="6.4419">
        <ele>1275</ele>
        <time>2012-07-14T10:36:23Z</time>
      </trkpt>
      <trkpt lat="46.17449" lon="6.44186">
        <ele>1275</ele>
        <time>2012-07-14T10:36:24Z</time>
      </trkpt>
      <trkpt lat="46.17463" lon="6.44182">
        <ele>1275</ele>
        <time>2012-07-14T10:36:25Z</time>
      </trkpt>
      <trkpt lat="46.17474" lon="6.44178">
        <ele>1268</ele>
        <time>2012-07-14T10:36:26Z</time>
      </trkpt>
      <trkpt lat="46.17484" lon="6.44176">
        <ele>1268</ele>
        <time>2012-07-14T10:36:27Z</time>
      </trkpt>
      <trkpt lat="46.17496" lon="6.44174">
        <ele>1268</ele>
        <time>2012-07-14T10:36:28Z</time>
      </trkpt>
      <trkpt lat="46.17512" lon="6.44176">
        <ele>1268</ele>
        <time>2012-07-14T10:36:30Z</time>
      </trkpt>
      <trkpt lat="46.17521" lon="6.44187">
        <ele>1260</ele>
        <time>2012-07-14T10:36:32Z</time>
      </trkpt>
      <trkpt lat="46.17525" lon="6.44203">
        <ele>1260</ele>
        <time>2012-07-14T10:36:34Z</time>
      </trkpt>
      <trkpt lat="46.17522" lon="6.44217">
        <ele>1260</ele>
        <time>2012-07-14T10:36:36Z</time>
      </trkpt>
      <trkpt lat="46.17516" lon="6.4423">
        <ele>1260</ele>
        <time>2012-07-14T10:36:38Z</time>
      </trkpt>
      <trkpt lat="46.17509" lon="6.44241">
        <ele>1253</ele>
        <time>2012-07-14T10:36:40Z</time>
      </trkpt>
      <trkpt lat="46.17502" lon="6.4425">
        <ele>1253</ele>
        <time>2012-07-14T10:36:42Z</time>
      </trkpt>
      <trkpt lat="46.17493" lon="6.44254">
        <ele>1253</ele>
        <time>2012-07-14T10:36:54Z</time>
      </trkpt>
      <trkpt lat="46.17484" lon="6.44267">
        <ele>1253</ele>
        <time>2012-07-14T10:36:57Z</time>
      </trkpt>
      <trkpt lat="46.17474" lon="6.44279">
        <ele>1253</ele>
        <time>2012-07-14T10:36:59Z</time>
      </trkpt>
      <trkpt lat="46.17461" lon="6.44295">
        <ele>1253</ele>
        <time>2012-07-14T10:37:01Z</time>
      </trkpt>
      <trkpt lat="46.17453" lon="6.44305">
        <ele>1248</ele>
        <time>2012-07-14T10:37:02Z</time>
      </trkpt>
      <trkpt lat="46.17446" lon="6.44318">
        <ele>1248</ele>
        <time>2012-07-14T10:37:03Z</time>
      </trkpt>
      <trkpt lat="46.1744" lon="6.44331">
        <ele>1248</ele>
        <time>2012-07-14T10:37:04Z</time>
      </trkpt>
      <trkpt lat="46.17435" lon="6.44347">
        <ele>1248</ele>
        <time>2012-07-14T10:37:05Z</time>
      </trkpt>
      <trkpt lat="46.17431" lon="6.44363">
        <ele>1248</ele>
        <time>2012-07-14T10:37:06Z</time>
      </trkpt>
      <trkpt lat="46.17428" lon="6.4438">
        <ele>1248</ele>
        <time>2012-07-14T10:37:07Z</time>
      </trkpt>
      <trkpt lat="46.17423" lon="6.44394">
        <ele>1243</ele>
        <time>2012-07-14T10:37:08Z</time>
      </trkpt>
      <trkpt lat="46.1742" lon="6.44409">
        <ele>1243</ele>
        <time>2012-07-14T10:37:09Z</time>
      </trkpt>
      <trkpt lat="46.17416" lon="6.44423">
        <ele>1243</ele>
        <time>2012-07-14T10:37:10Z</time>
      </trkpt>
      <trkpt lat="46.17413" lon="6.44436">
        <ele>1243</ele>
        <time>2012-07-14T10:37:11Z</time>
      </trkpt>
      <trkpt lat="46.17409" lon="6.44449">
        <ele>1243</ele>
        <time>2012-07-14T10:37:12Z</time>
      </trkpt>
      <trkpt lat="46.17407" lon="6.44462">
        <ele>1243</ele>
        <time>2012-07-14T10:37:13Z</time>
      </trkpt>
      <trkpt lat="46.17404" lon="6.44486">
        <ele>1243</ele>
        <time>2012-07-14T10:37:15Z</time>
      </trkpt>
      <trkpt lat="46.17404" lon="6.44507">
        <ele>1243</ele>
        <time>2012-07-14T10:37:17Z</time>
      </trkpt>
      <trkpt lat="46.17417" lon="6.44521">
        <ele>1237</ele>
        <time>2012-07-14T10:37:20Z</time>
      </trkpt>
      <trkpt lat="46.17431" lon="6.44522">
        <ele>1237</ele>
        <time>2012-07-14T10:37:22Z</time>
      </trkpt>
      <trkpt lat="46.17443" lon="6.44521">
        <ele>1237</ele>
        <time>2012-07-14T10:37:23Z</time>
      </trkpt>
      <trkpt lat="46.17456" lon="6.44522">
        <ele>1237</ele>
        <time>2012-07-14T10:37:24Z</time>
      </trkpt>
      <trkpt lat="46.17469" lon="6.44522">
        <ele>1237</ele>
        <time>2012-07-14T10:37:25Z</time>
      </trkpt>
      <trkpt lat="46.17484" lon="6.44526">
        <ele>1237</ele>
        <time>2012-07-14T10:37:26Z</time>
      </trkpt>
      <trkpt lat="46.17501" lon="6.44532">
        <ele>1237</ele>
        <time>2012-07-14T10:37:27Z</time>
      </trkpt>
      <trkpt lat="46.17516" lon="6.44538">
        <ele>1237</ele>
        <time>2012-07-14T10:37:28Z</time>
      </trkpt>
      <trkpt lat="46.1753" lon="6.44541">
        <ele>1237</ele>
        <time>2012-07-14T10:37:29Z</time>
      </trkpt>
      <trkpt lat="46.17544" lon="6.44546">
        <ele>1237</ele>
        <time>2012-07-14T10:37:30Z</time>
      </trkpt>
      <trkpt lat="46.17557" lon="6.44548">
        <ele>1237</ele>
        <time>2012-07-14T10:37:31Z</time>
      </trkpt>
      <trkpt lat="46.1757" lon="6.44551">
        <ele>1237</ele>
        <time>2012-07-14T10:37:32Z</time>
      </trkpt>
      <trkpt lat="46.17583" lon="6.44556">
        <ele>1237</ele>
        <time>2012-07-14T10:37:33Z</time>
      </trkpt>
      <trkpt lat="46.17596" lon="6.44562">
        <ele>1237</ele>
        <time>2012-07-14T10:37:34Z</time>
      </trkpt>
      <trkpt lat="46.17609" lon="6.44566">
        <ele>1237</ele>
        <time>2012-07-14T10:37:35Z</time>
      </trkpt>
      <trkpt lat="46.17622" lon="6.44573">
        <ele>1237</ele>
        <time>2012-07-14T10:37:36Z</time>
      </trkpt>
      <trkpt lat="46.17635" lon="6.44578">
        <ele>1237</ele>
        <time>2012-07-14T10:37:37Z</time>
      </trkpt>
      <trkpt lat="46.17647" lon="6.44586">
        <ele>1237</ele>
        <time>2012-07-14T10:37:38Z</time>
      </trkpt>
      <trkpt lat="46.17658" lon="6.44595">
        <ele>1237</ele>
        <time>2012-07-14T10:37:39Z</time>
      </trkpt>
      <trkpt lat="46.17668" lon="6.44601">
        <ele>1237</ele>
        <time>2012-07-14T10:37:40Z</time>
      </trkpt>
      <trkpt lat="46.17677" lon="6.44607">
        <ele>1237</ele>
        <time>2012-07-14T10:37:41Z</time>
      </trkpt>
      <trkpt lat="46.17691" lon="6.44623">
        <ele>1231</ele>
        <time>2012-07-14T10:37:43Z</time>
      </trkpt>
      <trkpt lat="46.17699" lon="6.44646">
        <ele>1231</ele>
        <time>2012-07-14T10:37:45Z</time>
      </trkpt>
      <trkpt lat="46.17702" lon="6.44659">
        <ele>1225</ele>
        <time>2012-07-14T10:37:46Z</time>
      </trkpt>
      <trkpt lat="46.17705" lon="6.44674">
        <ele>1225</ele>
        <time>2012-07-14T10:37:47Z</time>
      </trkpt>
      <trkpt lat="46.17708" lon="6.44689">
        <ele>1225</ele>
        <time>2012-07-14T10:37:48Z</time>
      </trkpt>
      <trkpt lat="46.17711" lon="6.44704">
        <ele>1225</ele>
        <time>2012-07-14T10:37:49Z</time>
      </trkpt>
      <trkpt lat="46.17715" lon="6.44716">
        <ele>1219</ele>
        <time>2012-07-14T10:37:50Z</time>
      </trkpt>
      <trkpt lat="46.17718" lon="6.44729">
        <ele>1219</ele>
        <time>2012-07-14T10:37:51Z</time>
      </trkpt>
      <trkpt lat="46.17728" lon="6.44749">
        <ele>1219</ele>
        <time>2012-07-14T10:37:53Z</time>
      </trkpt>
      <trkpt lat="46.17735" lon="6.44758">
        <ele>1219</ele>
        <time>2012-07-14T10:37:54Z</time>
      </trkpt>
      <trkpt lat="46.17744" lon="6.44764">
        <ele>1213</ele>
        <time>2012-07-14T10:37:55Z</time>
      </trkpt>
      <trkpt lat="46.17755" lon="6.44768">
        <ele>1213</ele>
        <time>2012-07-14T10:37:56Z</time>
      </trkpt>
      <trkpt lat="46.17769" lon="6.44767">
        <ele>1213</ele>
        <time>2012-07-14T10:37:57Z</time>
      </trkpt>
      <trkpt lat="46.17781" lon="6.4477">
        <ele>1213</ele>
        <time>2012-07-14T10:37:58Z</time>
      </trkpt>
      <trkpt lat="46.17795" lon="6.44772">
        <ele>1213</ele>
        <time>2012-07-14T10:37:59Z</time>
      </trkpt>
      <trkpt lat="46.17808" lon="6.44775">
        <ele>1213</ele>
        <time>2012-07-14T10:38:00Z</time>
      </trkpt>
      <trkpt lat="46.17821" lon="6.44778">
        <ele>1213</ele>
        <time>2012-07-14T10:38:01Z</time>
      </trkpt>
      <trkpt lat="46.17833" lon="6.4478">
        <ele>1208</ele>
        <time>2012-07-14T10:38:02Z</time>
      </trkpt>
      <trkpt lat="46.17846" lon="6.44783">
        <ele>1208</ele>
        <time>2012-07-14T10:38:03Z</time>
      </trkpt>
      <trkpt lat="46.17859" lon="6.44786">
        <ele>1208</ele>
        <time>2012-07-14T10:38:04Z</time>
      </trkpt>
      <trkpt lat="46.17873" lon="6.44788">
        <ele>1208</ele>
        <time>2012-07-14T10:38:05Z</time>
      </trkpt>
      <trkpt lat="46.17886" lon="6.4479">
        <ele>1208</ele>
        <time>2012-07-14T10:38:06Z</time>
      </trkpt>
      <trkpt lat="46.17898" lon="6.44792">
        <ele>1208</ele>
        <time>2012-07-14T10:38:07Z</time>
      </trkpt>
      <trkpt lat="46.17911" lon="6.44795">
        <ele>1208</ele>
        <time>2012-07-14T10:38:08Z</time>
      </trkpt>
      <trkpt lat="46.17922" lon="6.44796">
        <ele>1208</ele>
        <time>2012-07-14T10:38:09Z</time>
      </trkpt>
      <trkpt lat="46.17935" lon="6.44799">
        <ele>1208</ele>
        <time>2012-07-14T10:38:10Z</time>
      </trkpt>
      <trkpt lat="46.17946" lon="6.44802">
        <ele>1201</ele>
        <time>2012-07-14T10:38:11Z</time>
      </trkpt>
      <trkpt lat="46.17957" lon="6.44804">
        <ele>1201</ele>
        <time>2012-07-14T10:38:12Z</time>
      </trkpt>
      <trkpt lat="46.17968" lon="6.44807">
        <ele>1201</ele>
        <time>2012-07-14T10:38:13Z</time>
      </trkpt>
      <trkpt lat="46.17978" lon="6.44812">
        <ele>1201</ele>
        <time>2012-07-14T10:38:14Z</time>
      </trkpt>
      <trkpt lat="46.17987" lon="6.44818">
        <ele>1195</ele>
        <time>2012-07-14T10:38:15Z</time>
      </trkpt>
      <trkpt lat="46.17995" lon="6.44825">
        <ele>1195</ele>
        <time>2012-07-14T10:38:16Z</time>
      </trkpt>
      <trkpt lat="46.18002" lon="6.44835">
        <ele>1195</ele>
        <time>2012-07-14T10:38:17Z</time>
      </trkpt>
      <trkpt lat="46.18009" lon="6.44845">
        <ele>1195</ele>
        <time>2012-07-14T10:38:18Z</time>
      </trkpt>
      <trkpt lat="46.18015" lon="6.44856">
        <ele>1190</ele>
        <time>2012-07-14T10:38:19Z</time>
      </trkpt>
      <trkpt lat="46.18026" lon="6.44875">
        <ele>1190</ele>
        <time>2012-07-14T10:38:21Z</time>
      </trkpt>
      <trkpt lat="46.18039" lon="6.44893">
        <ele>1190</ele>
        <time>2012-07-14T10:38:23Z</time>
      </trkpt>
      <trkpt lat="46.18048" lon="6.44901">
        <ele>1185</ele>
        <time>2012-07-14T10:38:24Z</time>
      </trkpt>
      <trkpt lat="46.18058" lon="6.44908">
        <ele>1185</ele>
        <time>2012-07-14T10:38:25Z</time>
      </trkpt>
      <trkpt lat="46.18068" lon="6.44912">
        <ele>1185</ele>
        <time>2012-07-14T10:38:26Z</time>
      </trkpt>
      <trkpt lat="46.1808" lon="6.44915">
        <ele>1185</ele>
        <time>2012-07-14T10:38:27Z</time>
      </trkpt>
      <trkpt lat="46.1809" lon="6.44915">
        <ele>1185</ele>
        <time>2012-07-14T10:38:28Z</time>
      </trkpt>
      <trkpt lat="46.181" lon="6.44915">
        <ele>1185</ele>
        <time>2012-07-14T10:38:29Z</time>
      </trkpt>
      <trkpt lat="46.18114" lon="6.44917">
        <ele>1185</ele>
        <time>2012-07-14T10:38:31Z</time>
      </trkpt>
      <trkpt lat="46.18124" lon="6.44921">
        <ele>1185</ele>
        <time>2012-07-14T10:38:34Z</time>
      </trkpt>
      <trkpt lat="46.18134" lon="6.44919">
        <ele>1185</ele>
        <time>2012-07-14T10:38:39Z</time>
      </trkpt>
      <trkpt lat="46.18123" lon="6.44915">
        <ele>1185</ele>
        <time>2012-07-14T10:38:50Z</time>
      </trkpt>
      <trkpt lat="46.18116" lon="6.44928">
        <ele>1185</ele>
        <time>2012-07-14T10:38:52Z</time>
      </trkpt>
      <trkpt lat="46.1811" lon="6.44943">
        <ele>1185</ele>
        <time>2012-07-14T10:38:54Z</time>
      </trkpt>
      <trkpt lat="46.18103" lon="6.44958">
        <ele>1185</ele>
        <time>2012-07-14T10:38:56Z</time>
      </trkpt>
      <trkpt lat="46.18094" lon="6.44971">
        <ele>1185</ele>
        <time>2012-07-14T10:38:58Z</time>
      </trkpt>
      <trkpt lat="46.18084" lon="6.44987">
        <ele>1185</ele>
        <time>2012-07-14T10:39:00Z</time>
      </trkpt>
      <trkpt lat="46.18072" lon="6.45006">
        <ele>1185</ele>
        <time>2012-07-14T10:39:02Z</time>
      </trkpt>
      <trkpt lat="46.1806" lon="6.45025">
        <ele>1185</ele>
        <time>2012-07-14T10:39:04Z</time>
      </trkpt>
      <trkpt lat="46.18053" lon="6.45037">
        <ele>1185</ele>
        <time>2012-07-14T10:39:05Z</time>
      </trkpt>
      <trkpt lat="46.18046" lon="6.45048">
        <ele>1185</ele>
        <time>2012-07-14T10:39:06Z</time>
      </trkpt>
      <trkpt lat="46.1804" lon="6.4506">
        <ele>1191</ele>
        <time>2012-07-14T10:39:07Z</time>
      </trkpt>
      <trkpt lat="46.18034" lon="6.45072">
        <ele>1191</ele>
        <time>2012-07-14T10:39:08Z</time>
      </trkpt>
      <trkpt lat="46.18026" lon="6.45084">
        <ele>1191</ele>
        <time>2012-07-14T10:39:09Z</time>
      </trkpt>
      <trkpt lat="46.18015" lon="6.45094">
        <ele>1191</ele>
        <time>2012-07-14T10:39:10Z</time>
      </trkpt>
      <trkpt lat="46.18005" lon="6.45104">
        <ele>1191</ele>
        <time>2012-07-14T10:39:11Z</time>
      </trkpt>
      <trkpt lat="46.17995" lon="6.45113">
        <ele>1196</ele>
        <time>2012-07-14T10:39:12Z</time>
      </trkpt>
      <trkpt lat="46.17985" lon="6.45122">
        <ele>1196</ele>
        <time>2012-07-14T10:39:13Z</time>
      </trkpt>
      <trkpt lat="46.17977" lon="6.45132">
        <ele>1196</ele>
        <time>2012-07-14T10:39:14Z</time>
      </trkpt>
      <trkpt lat="46.17969" lon="6.45143">
        <ele>1196</ele>
        <time>2012-07-14T10:39:15Z</time>
      </trkpt>
      <trkpt lat="46.17963" lon="6.45153">
        <ele>1196</ele>
        <time>2012-07-14T10:39:16Z</time>
      </trkpt>
      <trkpt lat="46.17954" lon="6.45169">
        <ele>1203</ele>
        <time>2012-07-14T10:39:18Z</time>
      </trkpt>
      <trkpt lat="46.17946" lon="6.4518">
        <ele>1203</ele>
        <time>2012-07-14T10:39:20Z</time>
      </trkpt>
      <trkpt lat="46.17939" lon="6.4519">
        <ele>1203</ele>
        <time>2012-07-14T10:39:22Z</time>
      </trkpt>
      <trkpt lat="46.17932" lon="6.45202">
        <ele>1203</ele>
        <time>2012-07-14T10:39:24Z</time>
      </trkpt>
      <trkpt lat="46.17926" lon="6.45211">
        <ele>1203</ele>
        <time>2012-07-14T10:39:27Z</time>
      </trkpt>
      <trkpt lat="46.17913" lon="6.45214">
        <ele>1216</ele>
        <time>2012-07-14T10:39:41Z</time>
      </trkpt>
      <trkpt lat="46.17901" lon="6.45213">
        <ele>1216</ele>
        <time>2012-07-14T10:39:44Z</time>
      </trkpt>
      <trkpt lat="46.17887" lon="6.45213">
        <ele>1216</ele>
        <time>2012-07-14T10:39:46Z</time>
      </trkpt>
      <trkpt lat="46.17868" lon="6.45214">
        <ele>1216</ele>
        <time>2012-07-14T10:39:49Z</time>
      </trkpt>
      <trkpt lat="46.17854" lon="6.45218">
        <ele>1216</ele>
        <time>2012-07-14T10:39:51Z</time>
      </trkpt>
      <trkpt lat="46.17837" lon="6.45222">
        <ele>1216</ele>
        <time>2012-07-14T10:39:53Z</time>
      </trkpt>
      <trkpt lat="46.17821" lon="6.45226">
        <ele>1216</ele>
        <time>2012-07-14T10:39:55Z</time>
      </trkpt>
      <trkpt lat="46.17807" lon="6.45231">
        <ele>1216</ele>
        <time>2012-07-14T10:39:57Z</time>
      </trkpt>
      <trkpt lat="46.17786" lon="6.45237">
        <ele>1216</ele>
        <time>2012-07-14T10:39:59Z</time>
      </trkpt>
      <trkpt lat="46.17775" lon="6.45241">
        <ele>1211</ele>
        <time>2012-07-14T10:40:00Z</time>
      </trkpt>
      <trkpt lat="46.17763" lon="6.45246">
        <ele>1211</ele>
        <time>2012-07-14T10:40:01Z</time>
      </trkpt>
      <trkpt lat="46.17755" lon="6.45255">
        <ele>1211</ele>
        <time>2012-07-14T10:40:02Z</time>
      </trkpt>
      <trkpt lat="46.17745" lon="6.45261">
        <ele>1211</ele>
        <time>2012-07-14T10:40:03Z</time>
      </trkpt>
      <trkpt lat="46.17736" lon="6.45267">
        <ele>1211</ele>
        <time>2012-07-14T10:40:04Z</time>
      </trkpt>
      <trkpt lat="46.17726" lon="6.45274">
        <ele>1211</ele>
        <time>2012-07-14T10:40:05Z</time>
      </trkpt>
      <trkpt lat="46.17717" lon="6.45282">
        <ele>1211</ele>
        <time>2012-07-14T10:40:06Z</time>
      </trkpt>
      <trkpt lat="46.17707" lon="6.4529">
        <ele>1211</ele>
        <time>2012-07-14T10:40:07Z</time>
      </trkpt>
      <trkpt lat="46.17698" lon="6.453">
        <ele>1205</ele>
        <time>2012-07-14T10:40:08Z</time>
      </trkpt>
      <trkpt lat="46.17689" lon="6.45309">
        <ele>1205</ele>
        <time>2012-07-14T10:40:09Z</time>
      </trkpt>
      <trkpt lat="46.1768" lon="6.45319">
        <ele>1205</ele>
        <time>2012-07-14T10:40:10Z</time>
      </trkpt>
      <trkpt lat="46.1767" lon="6.45327">
        <ele>1205</ele>
        <time>2012-07-14T10:40:11Z</time>
      </trkpt>
      <trkpt lat="46.17661" lon="6.45334">
        <ele>1205</ele>
        <time>2012-07-14T10:40:12Z</time>
      </trkpt>
      <trkpt lat="46.17651" lon="6.4534">
        <ele>1205</ele>
        <time>2012-07-14T10:40:13Z</time>
      </trkpt>
      <trkpt lat="46.17642" lon="6.45344">
        <ele>1205</ele>
        <time>2012-07-14T10:40:14Z</time>
      </trkpt>
      <trkpt lat="46.17625" lon="6.45349">
        <ele>1205</ele>
        <time>2012-07-14T10:40:16Z</time>
      </trkpt>
      <trkpt lat="46.17614" lon="6.45351">
        <ele>1205</ele>
        <time>2012-07-14T10:40:18Z</time>
      </trkpt>
      <trkpt lat="46.17608" lon="6.45361">
        <ele>1198</ele>
        <time>2012-07-14T10:40:33Z</time>
      </trkpt>
      <trkpt lat="46.176" lon="6.45372">
        <ele>1198</ele>
        <time>2012-07-14T10:40:35Z</time>
      </trkpt>
      <trkpt lat="46.17592" lon="6.45388">
        <ele>1198</ele>
        <time>2012-07-14T10:40:37Z</time>
      </trkpt>
      <trkpt lat="46.17579" lon="6.45402">
        <ele>1198</ele>
        <time>2012-07-14T10:40:39Z</time>
      </trkpt>
      <trkpt lat="46.17566" lon="6.45414">
        <ele>1205</ele>
        <time>2012-07-14T10:40:41Z</time>
      </trkpt>
      <trkpt lat="46.17557" lon="6.45429">
        <ele>1205</ele>
        <time>2012-07-14T10:40:43Z</time>
      </trkpt>
      <trkpt lat="46.17552" lon="6.45449">
        <ele>1216</ele>
        <time>2012-07-14T10:40:45Z</time>
      </trkpt>
      <trkpt lat="46.17551" lon="6.4547">
        <ele>1216</ele>
        <time>2012-07-14T10:40:47Z</time>
      </trkpt>
      <trkpt lat="46.17551" lon="6.45488">
        <ele>1216</ele>
        <time>2012-07-14T10:40:49Z</time>
      </trkpt>
      <trkpt lat="46.17556" lon="6.45507">
        <ele>1222</ele>
        <time>2012-07-14T10:40:51Z</time>
      </trkpt>
      <trkpt lat="46.17562" lon="6.45527">
        <ele>1222</ele>
        <time>2012-07-14T10:40:53Z</time>
      </trkpt>
      <trkpt lat="46.1757" lon="6.45545">
        <ele>1222</ele>
        <time>2012-07-14T10:40:55Z</time>
      </trkpt>
      <trkpt lat="46.17582" lon="6.45561">
        <ele>1222</ele>
        <time>2012-07-14T10:40:57Z</time>
      </trkpt>
      <trkpt lat="46.17592" lon="6.45574">
        <ele>1222</ele>
        <time>2012-07-14T10:40:59Z</time>
      </trkpt>
      <trkpt lat="46.17603" lon="6.4559">
        <ele>1222</ele>
        <time>2012-07-14T10:41:01Z</time>
      </trkpt>
      <trkpt lat="46.17613" lon="6.45604">
        <ele>1222</ele>
        <time>2012-07-14T10:41:03Z</time>
      </trkpt>
      <trkpt lat="46.17622" lon="6.45623">
        <ele>1222</ele>
        <time>2012-07-14T10:41:05Z</time>
      </trkpt>
      <trkpt lat="46.17627" lon="6.45645">
        <ele>1222</ele>
        <time>2012-07-14T10:41:07Z</time>
      </trkpt>
      <trkpt lat="46.17635" lon="6.45667">
        <ele>1222</ele>
        <time>2012-07-14T10:41:09Z</time>
      </trkpt>
      <trkpt lat="46.17643" lon="6.4568">
        <ele>1222</ele>
        <time>2012-07-14T10:41:11Z</time>
      </trkpt>
      <trkpt lat="46.17653" lon="6.45684">
        <ele>1227</ele>
        <time>2012-07-14T10:41:14Z</time>
      </trkpt>
      <trkpt lat="46.17661" lon="6.45677">
        <ele>1233</ele>
        <time>2012-07-14T10:42:22Z</time>
      </trkpt>
      <trkpt lat="46.1767" lon="6.45677">
        <ele>1233</ele>
        <time>2012-07-14T10:42:24Z</time>
      </trkpt>
      <trkpt lat="46.17681" lon="6.45675">
        <ele>1233</ele>
        <time>2012-07-14T10:42:26Z</time>
      </trkpt>
      <trkpt lat="46.17694" lon="6.45675">
        <ele>1233</ele>
        <time>2012-07-14T10:42:28Z</time>
      </trkpt>
      <trkpt lat="46.17708" lon="6.45679">
        <ele>1233</ele>
        <time>2012-07-14T10:42:30Z</time>
      </trkpt>
      <trkpt lat="46.17725" lon="6.45684">
        <ele>1233</ele>
        <time>2012-07-14T10:42:32Z</time>
      </trkpt>
      <trkpt lat="46.1774" lon="6.45689">
        <ele>1233</ele>
        <time>2012-07-14T10:42:34Z</time>
      </trkpt>
      <trkpt lat="46.17755" lon="6.45696">
        <ele>1233</ele>
        <time>2012-07-14T10:42:36Z</time>
      </trkpt>
      <trkpt lat="46.17768" lon="6.457">
        <ele>1233</ele>
        <time>2012-07-14T10:42:38Z</time>
      </trkpt>
      <trkpt lat="46.17778" lon="6.45706">
        <ele>1233</ele>
        <time>2012-07-14T10:42:44Z</time>
      </trkpt>
      <trkpt lat="46.1778" lon="6.45724">
        <ele>1238</ele>
        <time>2012-07-14T10:42:47Z</time>
      </trkpt>
      <trkpt lat="46.17774" lon="6.45739">
        <ele>1238</ele>
        <time>2012-07-14T10:42:49Z</time>
      </trkpt>
      <trkpt lat="46.17763" lon="6.4575">
        <ele>1238</ele>
        <time>2012-07-14T10:42:51Z</time>
      </trkpt>
      <trkpt lat="46.1775" lon="6.45758">
        <ele>1244</ele>
        <time>2012-07-14T10:42:53Z</time>
      </trkpt>
      <trkpt lat="46.17741" lon="6.45769">
        <ele>1244</ele>
        <time>2012-07-14T10:42:55Z</time>
      </trkpt>
      <trkpt lat="46.17741" lon="6.45784">
        <ele>1244</ele>
        <time>2012-07-14T10:42:57Z</time>
      </trkpt>
      <trkpt lat="46.17747" lon="6.45795">
        <ele>1249</ele>
        <time>2012-07-14T10:42:59Z</time>
      </trkpt>
      <trkpt lat="46.17755" lon="6.45807">
        <ele>1249</ele>
        <time>2012-07-14T10:43:01Z</time>
      </trkpt>
      <trkpt lat="46.17759" lon="6.45824">
        <ele>1249</ele>
        <time>2012-07-14T10:43:04Z</time>
      </trkpt>
      <trkpt lat="46.17758" lon="6.45839">
        <ele>1249</ele>
        <time>2012-07-14T10:43:06Z</time>
      </trkpt>
      <trkpt lat="46.17756" lon="6.45856">
        <ele>1249</ele>
        <time>2012-07-14T10:43:08Z</time>
      </trkpt>
      <trkpt lat="46.17755" lon="6.4587">
        <ele>1249</ele>
        <time>2012-07-14T10:43:10Z</time>
      </trkpt>
      <trkpt lat="46.17755" lon="6.45883">
        <ele>1254</ele>
        <time>2012-07-14T10:43:21Z</time>
      </trkpt>
      <trkpt lat="46.1776" lon="6.45896">
        <ele>1254</ele>
        <time>2012-07-14T10:43:41Z</time>
      </trkpt>
      <trkpt lat="46.17765" lon="6.45911">
        <ele>1254</ele>
        <time>2012-07-14T10:44:31Z</time>
      </trkpt>
      <trkpt lat="46.1777" lon="6.45927">
        <ele>1254</ele>
        <time>2012-07-14T10:44:34Z</time>
      </trkpt>
      <trkpt lat="46.17775" lon="6.45941">
        <ele>1254</ele>
        <time>2012-07-14T10:44:36Z</time>
      </trkpt>
      <trkpt lat="46.17781" lon="6.45953">
        <ele>1249</ele>
        <time>2012-07-14T10:44:38Z</time>
      </trkpt>
      <trkpt lat="46.17781" lon="6.45973">
        <ele>1249</ele>
        <time>2012-07-14T10:44:41Z</time>
      </trkpt>
      <trkpt lat="46.17778" lon="6.45987">
        <ele>1249</ele>
        <time>2012-07-14T10:44:43Z</time>
      </trkpt>
      <trkpt lat="46.17776" lon="6.46001">
        <ele>1249</ele>
        <time>2012-07-14T10:44:45Z</time>
      </trkpt>
      <trkpt lat="46.17773" lon="6.46018">
        <ele>1249</ele>
        <time>2012-07-14T10:44:47Z</time>
      </trkpt>
      <trkpt lat="46.17768" lon="6.46035">
        <ele>1249</ele>
        <time>2012-07-14T10:44:49Z</time>
      </trkpt>
      <trkpt lat="46.17761" lon="6.46053">
        <ele>1249</ele>
        <time>2012-07-14T10:44:51Z</time>
      </trkpt>
      <trkpt lat="46.17753" lon="6.46068">
        <ele>1249</ele>
        <time>2012-07-14T10:44:53Z</time>
      </trkpt>
      <trkpt lat="46.17741" lon="6.46081">
        <ele>1243</ele>
        <time>2012-07-14T10:44:55Z</time>
      </trkpt>
      <trkpt lat="46.1773" lon="6.46094">
        <ele>1243</ele>
        <time>2012-07-14T10:44:57Z</time>
      </trkpt>
      <trkpt lat="46.1772" lon="6.46107">
        <ele>1243</ele>
        <time>2012-07-14T10:44:59Z</time>
      </trkpt>
      <trkpt lat="46.17712" lon="6.46114">
        <ele>1243</ele>
        <time>2012-07-14T10:45:01Z</time>
      </trkpt>
      <trkpt lat="46.17703" lon="6.46118">
        <ele>1243</ele>
        <time>2012-07-14T10:45:46Z</time>
      </trkpt>
      <trkpt lat="46.17697" lon="6.46105">
        <ele>1243</ele>
        <time>2012-07-14T10:46:36Z</time>
      </trkpt>
      <trkpt lat="46.17692" lon="6.46094">
        <ele>1243</ele>
        <time>2012-07-14T10:46:39Z</time>
      </trkpt>
      <trkpt lat="46.17695" lon="6.46108">
        <ele>1243</ele>
        <time>2012-07-14T10:46:53Z</time>
      </trkpt>
      <trkpt lat="46.17697" lon="6.46121">
        <ele>1243</ele>
        <time>2012-07-14T10:46:55Z</time>
      </trkpt>
      <trkpt lat="46.17695" lon="6.46138">
        <ele>1243</ele>
        <time>2012-07-14T10:46:57Z</time>
      </trkpt>
      <trkpt lat="46.17696" lon="6.46155">
        <ele>1243</ele>
        <time>2012-07-14T10:46:59Z</time>
      </trkpt>
      <trkpt lat="46.17697" lon="6.46173">
        <ele>1243</ele>
        <time>2012-07-14T10:47:02Z</time>
      </trkpt>
      <trkpt lat="46.177" lon="6.46188">
        <ele>1243</ele>
        <time>2012-07-14T10:47:06Z</time>
      </trkpt>
      <trkpt lat="46.1771" lon="6.46188">
        <ele>1243</ele>
        <time>2012-07-14T10:47:13Z</time>
      </trkpt>
      <trkpt lat="46.1772" lon="6.46185">
        <ele>1243</ele>
        <time>2012-07-14T10:47:15Z</time>
      </trkpt>
      <trkpt lat="46.17731" lon="6.46185">
        <ele>1243</ele>
        <time>2012-07-14T10:47:17Z</time>
      </trkpt>
      <trkpt lat="46.17743" lon="6.46187">
        <ele>1243</ele>
        <time>2012-07-14T10:47:19Z</time>
      </trkpt>
      <trkpt lat="46.17754" lon="6.46186">
        <ele>1243</ele>
        <time>2012-07-14T10:47:21Z</time>
      </trkpt>
      <trkpt lat="46.17766" lon="6.46183">
        <ele>1243</ele>
        <time>2012-07-14T10:47:23Z</time>
      </trkpt>
      <trkpt lat="46.17775" lon="6.46178">
        <ele>1243</ele>
        <time>2012-07-14T10:47:25Z</time>
      </trkpt>
      <trkpt lat="46.17785" lon="6.46173">
        <ele>1243</ele>
        <time>2012-07-14T10:47:27Z</time>
      </trkpt>
      <trkpt lat="46.17795" lon="6.46165">
        <ele>1243</ele>
        <time>2012-07-14T10:47:29Z</time>
      </trkpt>
      <trkpt lat="46.17808" lon="6.46161">
        <ele>1243</ele>
        <time>2012-07-14T10:47:31Z</time>
      </trkpt>
      <trkpt lat="46.17823" lon="6.46156">
        <ele>1243</ele>
        <time>2012-07-14T10:47:33Z</time>
      </trkpt>
      <trkpt lat="46.17834" lon="6.46148">
        <ele>1243</ele>
        <time>2012-07-14T10:47:35Z</time>
      </trkpt>
      <trkpt lat="46.17846" lon="6.46138">
        <ele>1243</ele>
        <time>2012-07-14T10:47:37Z</time>
      </trkpt>
      <trkpt lat="46.17857" lon="6.46123">
        <ele>1243</ele>
        <time>2012-07-14T10:47:39Z</time>
      </trkpt>
      <trkpt lat="46.17868" lon="6.46108">
        <ele>1243</ele>
        <time>2012-07-14T10:47:41Z</time>
      </trkpt>
      <trkpt lat="46.17875" lon="6.46095">
        <ele>1243</ele>
        <time>2012-07-14T10:47:43Z</time>
      </trkpt>
      <trkpt lat="46.17881" lon="6.46085">
        <ele>1249</ele>
        <time>2012-07-14T10:47:47Z</time>
      </trkpt>
      <trkpt lat="46.17891" lon="6.46076">
        <ele>1249</ele>
        <time>2012-07-14T10:48:28Z</time>
      </trkpt>
      <trkpt lat="46.17902" lon="6.46071">
        <ele>1249</ele>
        <time>2012-07-14T10:48:30Z</time>
      </trkpt>
      <trkpt lat="46.17916" lon="6.46067">
        <ele>1249</ele>
        <time>2012-07-14T10:48:32Z</time>
      </trkpt>
      <trkpt lat="46.17931" lon="6.4606">
        <ele>1249</ele>
        <time>2012-07-14T10:48:34Z</time>
      </trkpt>
      <trkpt lat="46.17945" lon="6.46057">
        <ele>1249</ele>
        <time>2012-07-14T10:48:36Z</time>
      </trkpt>
      <trkpt lat="46.17954" lon="6.46053">
        <ele>1249</ele>
        <time>2012-07-14T10:48:38Z</time>
      </trkpt>
      <trkpt lat="46.17946" lon="6.46061">
        <ele>1249</ele>
        <time>2012-07-14T10:48:51Z</time>
      </trkpt>
      <trkpt lat="46.17956" lon="6.46065">
        <ele>1249</ele>
        <time>2012-07-14T10:48:58Z</time>
      </trkpt>
      <trkpt lat="46.17965" lon="6.46067">
        <ele>1249</ele>
        <time>2012-07-14T10:49:00Z</time>
      </trkpt>
      <trkpt lat="46.17973" lon="6.46083">
        <ele>1258</ele>
        <time>2012-07-14T10:49:02Z</time>
      </trkpt>
      <trkpt lat="46.1798" lon="6.46104">
        <ele>1258</ele>
        <time>2012-07-14T10:49:04Z</time>
      </trkpt>
      <trkpt lat="46.17989" lon="6.46122">
        <ele>1258</ele>
        <time>2012-07-14T10:49:06Z</time>
      </trkpt>
      <trkpt lat="46.17997" lon="6.46134">
        <ele>1263</ele>
        <time>2012-07-14T10:49:08Z</time>
      </trkpt>
      <trkpt lat="46.18004" lon="6.46143">
        <ele>1263</ele>
        <time>2012-07-14T10:49:11Z</time>
      </trkpt>
      <trkpt lat="46.18013" lon="6.46148">
        <ele>1278</ele>
        <time>2012-07-14T10:49:28Z</time>
      </trkpt>
      <trkpt lat="46.18027" lon="6.46155">
        <ele>1278</ele>
        <time>2012-07-14T10:49:30Z</time>
      </trkpt>
      <trkpt lat="46.18036" lon="6.46157">
        <ele>1278</ele>
        <time>2012-07-14T10:49:31Z</time>
      </trkpt>
      <trkpt lat="46.18053" lon="6.46162">
        <ele>1284</ele>
        <time>2012-07-14T10:49:33Z</time>
      </trkpt>
      <trkpt lat="46.18068" lon="6.46171">
        <ele>1284</ele>
        <time>2012-07-14T10:49:35Z</time>
      </trkpt>
      <trkpt lat="46.1808" lon="6.46183">
        <ele>1284</ele>
        <time>2012-07-14T10:49:37Z</time>
      </trkpt>
      <trkpt lat="46.18091" lon="6.46197">
        <ele>1284</ele>
        <time>2012-07-14T10:49:39Z</time>
      </trkpt>
      <trkpt lat="46.181" lon="6.46208">
        <ele>1284</ele>
        <time>2012-07-14T10:49:41Z</time>
      </trkpt>
      <trkpt lat="46.1811" lon="6.46215">
        <ele>1289</ele>
        <time>2012-07-14T10:49:43Z</time>
      </trkpt>
      <trkpt lat="46.1812" lon="6.46218">
        <ele>1289</ele>
        <time>2012-07-14T10:49:45Z</time>
      </trkpt>
      <trkpt lat="46.18132" lon="6.4622">
        <ele>1289</ele>
        <time>2012-07-14T10:49:48Z</time>
      </trkpt>
      <trkpt lat="46.18142" lon="6.46223">
        <ele>1289</ele>
        <time>2012-07-14T10:49:50Z</time>
      </trkpt>
      <trkpt lat="46.18155" lon="6.46226">
        <ele>1289</ele>
        <time>2012-07-14T10:49:52Z</time>
      </trkpt>
      <trkpt lat="46.18166" lon="6.46227">
        <ele>1289</ele>
        <time>2012-07-14T10:49:54Z</time>
      </trkpt>
      <trkpt lat="46.18176" lon="6.46227">
        <ele>1289</ele>
        <time>2012-07-14T10:49:58Z</time>
      </trkpt>
      <trkpt lat="46.18187" lon="6.46235">
        <ele>1289</ele>
        <time>2012-07-14T10:50:01Z</time>
      </trkpt>
      <trkpt lat="46.18199" lon="6.46245">
        <ele>1283</ele>
        <time>2012-07-14T10:50:03Z</time>
      </trkpt>
      <trkpt lat="46.18213" lon="6.46256">
        <ele>1283</ele>
        <time>2012-07-14T10:50:05Z</time>
      </trkpt>
      <trkpt lat="46.18226" lon="6.46267">
        <ele>1283</ele>
        <time>2012-07-14T10:50:07Z</time>
      </trkpt>
      <trkpt lat="46.18238" lon="6.46278">
        <ele>1283</ele>
        <time>2012-07-14T10:50:09Z</time>
      </trkpt>
      <trkpt lat="46.18247" lon="6.46284">
        <ele>1283</ele>
        <time>2012-07-14T10:50:11Z</time>
      </trkpt>
      <trkpt lat="46.18258" lon="6.46283">
        <ele>1283</ele>
        <time>2012-07-14T10:50:20Z</time>
      </trkpt>
      <trkpt lat="46.18267" lon="6.4628">
        <ele>1283</ele>
        <time>2012-07-14T10:50:22Z</time>
      </trkpt>
      <trkpt lat="46.18276" lon="6.46276">
        <ele>1283</ele>
        <time>2012-07-14T10:50:24Z</time>
      </trkpt>
      <trkpt lat="46.18284" lon="6.46262">
        <ele>1283</ele>
        <time>2012-07-14T10:50:27Z</time>
      </trkpt>
      <trkpt lat="46.18289" lon="6.4625">
        <ele>1283</ele>
        <time>2012-07-14T10:50:29Z</time>
      </trkpt>
      <trkpt lat="46.18297" lon="6.46235">
        <ele>1283</ele>
        <time>2012-07-14T10:50:31Z</time>
      </trkpt>
      <trkpt lat="46.18304" lon="6.46219">
        <ele>1283</ele>
        <time>2012-07-14T10:50:33Z</time>
      </trkpt>
      <trkpt lat="46.18314" lon="6.462">
        <ele>1283</ele>
        <time>2012-07-14T10:50:35Z</time>
      </trkpt>
      <trkpt lat="46.18324" lon="6.4618">
        <ele>1283</ele>
        <time>2012-07-14T10:50:37Z</time>
      </trkpt>
      <trkpt lat="46.18335" lon="6.46163">
        <ele>1283</ele>
        <time>2012-07-14T10:50:39Z</time>
      </trkpt>
      <trkpt lat="46.18341" lon="6.46153">
        <ele>1283</ele>
        <time>2012-07-14T10:50:41Z</time>
      </trkpt>
      <trkpt lat="46.18344" lon="6.46139">
        <ele>1295</ele>
        <time>2012-07-14T10:50:59Z</time>
      </trkpt>
      <trkpt lat="46.18352" lon="6.46127">
        <ele>1295</ele>
        <time>2012-07-14T10:51:02Z</time>
      </trkpt>
      <trkpt lat="46.18363" lon="6.46114">
        <ele>1295</ele>
        <time>2012-07-14T10:51:04Z</time>
      </trkpt>
      <trkpt lat="46.18374" lon="6.46101">
        <ele>1295</ele>
        <time>2012-07-14T10:51:06Z</time>
      </trkpt>
      <trkpt lat="46.18384" lon="6.46087">
        <ele>1301</ele>
        <time>2012-07-14T10:51:08Z</time>
      </trkpt>
      <trkpt lat="46.18395" lon="6.46077">
        <ele>1301</ele>
        <time>2012-07-14T10:51:10Z</time>
      </trkpt>
      <trkpt lat="46.18405" lon="6.46067">
        <ele>1308</ele>
        <time>2012-07-14T10:51:12Z</time>
      </trkpt>
      <trkpt lat="46.18415" lon="6.46058">
        <ele>1313</ele>
        <time>2012-07-14T10:51:15Z</time>
      </trkpt>
      <trkpt lat="46.18427" lon="6.46052">
        <ele>1313</ele>
        <time>2012-07-14T10:51:19Z</time>
      </trkpt>
      <trkpt lat="46.18437" lon="6.46048">
        <ele>1319</ele>
        <time>2012-07-14T10:51:21Z</time>
      </trkpt>
      <trkpt lat="46.18449" lon="6.46041">
        <ele>1319</ele>
        <time>2012-07-14T10:51:23Z</time>
      </trkpt>
      <trkpt lat="46.18465" lon="6.46032">
        <ele>1319</ele>
        <time>2012-07-14T10:51:25Z</time>
      </trkpt>
      <trkpt lat="46.18477" lon="6.46023">
        <ele>1319</ele>
        <time>2012-07-14T10:51:27Z</time>
      </trkpt>
      <trkpt lat="46.18486" lon="6.46017">
        <ele>1319</ele>
        <time>2012-07-14T10:51:29Z</time>
      </trkpt>
      <trkpt lat="46.18493" lon="6.46008">
        <ele>1319</ele>
        <time>2012-07-14T10:51:32Z</time>
      </trkpt>
      <trkpt lat="46.18498" lon="6.45995">
        <ele>1319</ele>
        <time>2012-07-14T10:51:36Z</time>
      </trkpt>
      <trkpt lat="46.18508" lon="6.46002">
        <ele>1319</ele>
        <time>2012-07-14T10:51:43Z</time>
      </trkpt>
      <trkpt lat="46.18517" lon="6.46016">
        <ele>1319</ele>
        <time>2012-07-14T10:51:47Z</time>
      </trkpt>
      <trkpt lat="46.18524" lon="6.46027">
        <ele>1319</ele>
        <time>2012-07-14T10:51:49Z</time>
      </trkpt>
      <trkpt lat="46.18528" lon="6.46042">
        <ele>1319</ele>
        <time>2012-07-14T10:51:51Z</time>
      </trkpt>
      <trkpt lat="46.18534" lon="6.46053">
        <ele>1319</ele>
        <time>2012-07-14T10:51:53Z</time>
      </trkpt>
      <trkpt lat="46.1854" lon="6.46068">
        <ele>1319</ele>
        <time>2012-07-14T10:51:56Z</time>
      </trkpt>
      <trkpt lat="46.18546" lon="6.46078">
        <ele>1319</ele>
        <time>2012-07-14T10:51:58Z</time>
      </trkpt>
      <trkpt lat="46.18552" lon="6.46095">
        <ele>1319</ele>
        <time>2012-07-14T10:52:01Z</time>
      </trkpt>
      <trkpt lat="46.18558" lon="6.46112">
        <ele>1319</ele>
        <time>2012-07-14T10:52:04Z</time>
      </trkpt>
      <trkpt lat="46.18561" lon="6.46126">
        <ele>1319</ele>
        <time>2012-07-14T10:52:17Z</time>
      </trkpt>
      <trkpt lat="46.18566" lon="6.4614">
        <ele>1319</ele>
        <time>2012-07-14T10:52:52Z</time>
      </trkpt>
      <trkpt lat="46.18576" lon="6.46146">
        <ele>1319</ele>
        <time>2012-07-14T10:52:54Z</time>
      </trkpt>
      <trkpt lat="46.18585" lon="6.46152">
        <ele>1319</ele>
        <time>2012-07-14T10:52:56Z</time>
      </trkpt>
      <trkpt lat="46.18594" lon="6.46156">
        <ele>1319</ele>
        <time>2012-07-14T10:52:58Z</time>
      </trkpt>
      <trkpt lat="46.18606" lon="6.46158">
        <ele>1319</ele>
        <time>2012-07-14T10:53:00Z</time>
      </trkpt>
      <trkpt lat="46.18617" lon="6.46158">
        <ele>1319</ele>
        <time>2012-07-14T10:53:02Z</time>
      </trkpt>
      <trkpt lat="46.18626" lon="6.46156">
        <ele>1325</ele>
        <time>2012-07-14T10:53:06Z</time>
      </trkpt>
      <trkpt lat="46.18616" lon="6.46162">
        <ele>1345</ele>
        <time>2012-07-14T10:53:29Z</time>
      </trkpt>
      <trkpt lat="46.18609" lon="6.46174">
        <ele>1345</ele>
        <time>2012-07-14T10:53:31Z</time>
      </trkpt>
      <trkpt lat="46.18603" lon="6.46189">
        <ele>1345</ele>
        <time>2012-07-14T10:53:33Z</time>
      </trkpt>
      <trkpt lat="46.18596" lon="6.46203">
        <ele>1345</ele>
        <time>2012-07-14T10:53:35Z</time>
      </trkpt>
      <trkpt lat="46.18589" lon="6.46215">
        <ele>1340</ele>
        <time>2012-07-14T10:53:37Z</time>
      </trkpt>
      <trkpt lat="46.18582" lon="6.46226">
        <ele>1340</ele>
        <time>2012-07-14T10:53:39Z</time>
      </trkpt>
      <trkpt lat="46.18581" lon="6.46241">
        <ele>1340</ele>
        <time>2012-07-14T10:53:41Z</time>
      </trkpt>
      <trkpt lat="46.18582" lon="6.46261">
        <ele>1340</ele>
        <time>2012-07-14T10:53:43Z</time>
      </trkpt>
      <trkpt lat="46.18584" lon="6.46277">
        <ele>1340</ele>
        <time>2012-07-14T10:53:45Z</time>
      </trkpt>
      <trkpt lat="46.18587" lon="6.46289">
        <ele>1335</ele>
        <time>2012-07-14T10:53:48Z</time>
      </trkpt>
      <trkpt lat="46.18596" lon="6.463">
        <ele>1335</ele>
        <time>2012-07-14T10:53:56Z</time>
      </trkpt>
      <trkpt lat="46.18606" lon="6.46306">
        <ele>1335</ele>
        <time>2012-07-14T10:53:58Z</time>
      </trkpt>
      <trkpt lat="46.18617" lon="6.4631">
        <ele>1335</ele>
        <time>2012-07-14T10:54:00Z</time>
      </trkpt>
      <trkpt lat="46.18629" lon="6.46315">
        <ele>1335</ele>
        <time>2012-07-14T10:54:02Z</time>
      </trkpt>
      <trkpt lat="46.18643" lon="6.46322">
        <ele>1335</ele>
        <time>2012-07-14T10:54:04Z</time>
      </trkpt>
      <trkpt lat="46.18655" lon="6.46325">
        <ele>1335</ele>
        <time>2012-07-14T10:54:06Z</time>
      </trkpt>
      <trkpt lat="46.18667" lon="6.46328">
        <ele>1335</ele>
        <time>2012-07-14T10:54:08Z</time>
      </trkpt>
      <trkpt lat="46.18678" lon="6.46333">
        <ele>1329</ele>
        <time>2012-07-14T10:54:10Z</time>
      </trkpt>
      <trkpt lat="46.18687" lon="6.46339">
        <ele>1329</ele>
        <time>2012-07-14T10:54:12Z</time>
      </trkpt>
      <trkpt lat="46.18697" lon="6.46345">
        <ele>1329</ele>
        <time>2012-07-14T10:54:14Z</time>
      </trkpt>
      <trkpt lat="46.18705" lon="6.46358">
        <ele>1329</ele>
        <time>2012-07-14T10:54:17Z</time>
      </trkpt>
      <trkpt lat="46.18705" lon="6.46371">
        <ele>1329</ele>
        <time>2012-07-14T10:54:19Z</time>
      </trkpt>
      <trkpt lat="46.18704" lon="6.46386">
        <ele>1329</ele>
        <time>2012-07-14T10:54:21Z</time>
      </trkpt>
      <trkpt lat="46.18701" lon="6.46403">
        <ele>1329</ele>
        <time>2012-07-14T10:54:23Z</time>
      </trkpt>
      <trkpt lat="46.18699" lon="6.46418">
        <ele>1329</ele>
        <time>2012-07-14T10:54:25Z</time>
      </trkpt>
      <trkpt lat="46.18702" lon="6.46437">
        <ele>1329</ele>
        <time>2012-07-14T10:54:28Z</time>
      </trkpt>
      <trkpt lat="46.18709" lon="6.46448">
        <ele>1329</ele>
        <time>2012-07-14T10:54:30Z</time>
      </trkpt>
      <trkpt lat="46.18715" lon="6.46461">
        <ele>1329</ele>
        <time>2012-07-14T10:54:33Z</time>
      </trkpt>
      <trkpt lat="46.18721" lon="6.4648">
        <ele>1329</ele>
        <time>2012-07-14T10:54:36Z</time>
      </trkpt>
      <trkpt lat="46.18724" lon="6.46497">
        <ele>1329</ele>
        <time>2012-07-14T10:54:38Z</time>
      </trkpt>
      <trkpt lat="46.18727" lon="6.4651">
        <ele>1329</ele>
        <time>2012-07-14T10:54:40Z</time>
      </trkpt>
      <trkpt lat="46.1873" lon="6.46526">
        <ele>1329</ele>
        <time>2012-07-14T10:54:51Z</time>
      </trkpt>
      <trkpt lat="46.18725" lon="6.46539">
        <ele>1329</ele>
        <time>2012-07-14T10:54:53Z</time>
      </trkpt>
      <trkpt lat="46.18718" lon="6.4655">
        <ele>1329</ele>
        <time>2012-07-14T10:54:56Z</time>
      </trkpt>
      <trkpt lat="46.18708" lon="6.46551">
        <ele>1329</ele>
        <time>2012-07-14T10:55:17Z</time>
      </trkpt>
      <trkpt lat="46.18698" lon="6.4656">
        <ele>1329</ele>
        <time>2012-07-14T10:55:20Z</time>
      </trkpt>
      <trkpt lat="46.1871" lon="6.46552">
        <ele>1340</ele>
        <time>2012-07-14T10:55:51Z</time>
      </trkpt>
      <trkpt lat="46.18719" lon="6.46546">
        <ele>1340</ele>
        <time>2012-07-14T10:55:54Z</time>
      </trkpt>
      <trkpt lat="46.18727" lon="6.46535">
        <ele>1340</ele>
        <time>2012-07-14T10:55:58Z</time>
      </trkpt>
      <trkpt lat="46.1873" lon="6.46518">
        <ele>1340</ele>
        <time>2012-07-14T10:56:01Z</time>
      </trkpt>
      <trkpt lat="46.18727" lon="6.465">
        <ele>1340</ele>
        <time>2012-07-14T10:56:04Z</time>
      </trkpt>
      <trkpt lat="46.18724" lon="6.46487">
        <ele>1335</ele>
        <time>2012-07-14T10:56:06Z</time>
      </trkpt>
      <trkpt lat="46.18734" lon="6.46491">
        <ele>1335</ele>
        <time>2012-07-14T10:56:12Z</time>
      </trkpt>
      <trkpt lat="46.18739" lon="6.46505">
        <ele>1335</ele>
        <time>2012-07-14T10:56:14Z</time>
      </trkpt>
      <trkpt lat="46.18745" lon="6.46516">
        <ele>1335</ele>
        <time>2012-07-14T10:56:16Z</time>
      </trkpt>
      <trkpt lat="46.18754" lon="6.4652">
        <ele>1329</ele>
        <time>2012-07-14T10:56:19Z</time>
      </trkpt>
      <trkpt lat="46.18765" lon="6.46523">
        <ele>1329</ele>
        <time>2012-07-14T10:56:23Z</time>
      </trkpt>
      <trkpt lat="46.18772" lon="6.46532">
        <ele>1329</ele>
        <time>2012-07-14T10:56:26Z</time>
      </trkpt>
      <trkpt lat="46.18781" lon="6.46541">
        <ele>1323</ele>
        <time>2012-07-14T10:56:28Z</time>
      </trkpt>
      <trkpt lat="46.1879" lon="6.46551">
        <ele>1323</ele>
        <time>2012-07-14T10:56:30Z</time>
      </trkpt>
      <trkpt lat="46.18798" lon="6.46559">
        <ele>1323</ele>
        <time>2012-07-14T10:56:32Z</time>
      </trkpt>
      <trkpt lat="46.18808" lon="6.46561">
        <ele>1314</ele>
        <time>2012-07-14T10:56:36Z</time>
      </trkpt>
      <trkpt lat="46.18815" lon="6.46551">
        <ele>1314</ele>
        <time>2012-07-14T10:56:39Z</time>
      </trkpt>
      <trkpt lat="46.18825" lon="6.46548">
        <ele>1314</ele>
        <time>2012-07-14T10:56:42Z</time>
      </trkpt>
      <trkpt lat="46.18837" lon="6.46549">
        <ele>1314</ele>
        <time>2012-07-14T10:56:44Z</time>
      </trkpt>
      <trkpt lat="46.18848" lon="6.46551">
        <ele>1309</ele>
        <time>2012-07-14T10:56:46Z</time>
      </trkpt>
      <trkpt lat="46.18857" lon="6.46553">
        <ele>1309</ele>
        <time>2012-07-14T10:56:48Z</time>
      </trkpt>
      <trkpt lat="46.18869" lon="6.46558">
        <ele>1309</ele>
        <time>2012-07-14T10:56:50Z</time>
      </trkpt>
      <trkpt lat="46.18883" lon="6.46562">
        <ele>1309</ele>
        <time>2012-07-14T10:56:52Z</time>
      </trkpt>
      <trkpt lat="46.18898" lon="6.46562">
        <ele>1309</ele>
        <time>2012-07-14T10:56:54Z</time>
      </trkpt>
      <trkpt lat="46.1891" lon="6.46561">
        <ele>1309</ele>
        <time>2012-07-14T10:56:56Z</time>
      </trkpt>
      <trkpt lat="46.18919" lon="6.46562">
        <ele>1309</ele>
        <time>2012-07-14T10:56:58Z</time>
      </trkpt>
      <trkpt lat="46.18928" lon="6.4657">
        <ele>1309</ele>
        <time>2012-07-14T10:57:03Z</time>
      </trkpt>
      <trkpt lat="46.18937" lon="6.46572">
        <ele>1309</ele>
        <time>2012-07-14T10:57:26Z</time>
      </trkpt>
      <trkpt lat="46.18928" lon="6.46571">
        <ele>1294</ele>
        <time>2012-07-14T10:57:38Z</time>
      </trkpt>
      <trkpt lat="46.18938" lon="6.46575">
        <ele>1300</ele>
        <time>2012-07-14T10:57:51Z</time>
      </trkpt>
      <trkpt lat="46.18949" lon="6.46577">
        <ele>1300</ele>
        <time>2012-07-14T10:57:58Z</time>
      </trkpt>
      <trkpt lat="46.18956" lon="6.46586">
        <ele>1300</ele>
        <time>2012-07-14T10:58:01Z</time>
      </trkpt>
      <trkpt lat="46.18961" lon="6.46603">
        <ele>1295</ele>
        <time>2012-07-14T10:58:04Z</time>
      </trkpt>
      <trkpt lat="46.18964" lon="6.46619">
        <ele>1295</ele>
        <time>2012-07-14T10:58:06Z</time>
      </trkpt>
      <trkpt lat="46.18968" lon="6.46633">
        <ele>1295</ele>
        <time>2012-07-14T10:58:08Z</time>
      </trkpt>
      <trkpt lat="46.18969" lon="6.46646">
        <ele>1279</ele>
        <time>2012-07-14T10:58:11Z</time>
      </trkpt>
      <trkpt lat="46.18978" lon="6.46648">
        <ele>1270</ele>
        <time>2012-07-14T10:58:17Z</time>
      </trkpt>
      <trkpt lat="46.18989" lon="6.46646">
        <ele>1270</ele>
        <time>2012-07-14T10:58:22Z</time>
      </trkpt>
      <trkpt lat="46.18994" lon="6.46659">
        <ele>1261</ele>
        <time>2012-07-14T10:58:26Z</time>
      </trkpt>
      <trkpt lat="46.18996" lon="6.46673">
        <ele>1261</ele>
        <time>2012-07-14T10:58:41Z</time>
      </trkpt>
      <trkpt lat="46.18988" lon="6.46667">
        <ele>1261</ele>
        <time>2012-07-14T10:59:25Z</time>
      </trkpt>
      <trkpt lat="46.18984" lon="6.46682">
        <ele>1261</ele>
        <time>2012-07-14T11:00:14Z</time>
      </trkpt>
      <trkpt lat="46.18976" lon="6.46691">
        <ele>1261</ele>
        <time>2012-07-14T11:00:19Z</time>
      </trkpt>
      <trkpt lat="46.18971" lon="6.46706">
        <ele>1261</ele>
        <time>2012-07-14T11:00:24Z</time>
      </trkpt>
      <trkpt lat="46.18974" lon="6.46721">
        <ele>1253</ele>
        <time>2012-07-14T11:00:28Z</time>
      </trkpt>
      <trkpt lat="46.18983" lon="6.46731">
        <ele>1253</ele>
        <time>2012-07-14T11:00:42Z</time>
      </trkpt>
      <trkpt lat="46.1899" lon="6.46742">
        <ele>1253</ele>
        <time>2012-07-14T11:00:44Z</time>
      </trkpt>
      <trkpt lat="46.19" lon="6.46754">
        <ele>1248</ele>
        <time>2012-07-14T11:00:46Z</time>
      </trkpt>
      <trkpt lat="46.19011" lon="6.4676">
        <ele>1248</ele>
        <time>2012-07-14T11:00:48Z</time>
      </trkpt>
      <trkpt lat="46.19022" lon="6.46762">
        <ele>1248</ele>
        <time>2012-07-14T11:00:50Z</time>
      </trkpt>
      <trkpt lat="46.19034" lon="6.46756">
        <ele>1248</ele>
        <time>2012-07-14T11:00:53Z</time>
      </trkpt>
      <trkpt lat="46.19037" lon="6.46773">
        <ele>1242</ele>
        <time>2012-07-14T11:00:57Z</time>
      </trkpt>
      <trkpt lat="46.19029" lon="6.4679">
        <ele>1242</ele>
        <time>2012-07-14T11:00:59Z</time>
      </trkpt>
      <trkpt lat="46.19017" lon="6.46806">
        <ele>1242</ele>
        <time>2012-07-14T11:01:01Z</time>
      </trkpt>
      <trkpt lat="46.19012" lon="6.46821">
        <ele>1242</ele>
        <time>2012-07-14T11:01:03Z</time>
      </trkpt>
      <trkpt lat="46.19011" lon="6.46841">
        <ele>1242</ele>
        <time>2012-07-14T11:01:06Z</time>
      </trkpt>
      <trkpt lat="46.19012" lon="6.46855">
        <ele>1242</ele>
        <time>2012-07-14T11:01:08Z</time>
      </trkpt>
      <trkpt lat="46.19012" lon="6.4687">
        <ele>1242</ele>
        <time>2012-07-14T11:01:26Z</time>
      </trkpt>
      <trkpt lat="46.19012" lon="6.46885">
        <ele>1237</ele>
        <time>2012-07-14T11:01:29Z</time>
      </trkpt>
      <trkpt lat="46.19008" lon="6.46901">
        <ele>1237</ele>
        <time>2012-07-14T11:01:31Z</time>
      </trkpt>
      <trkpt lat="46.18999" lon="6.46916">
        <ele>1237</ele>
        <time>2012-07-14T11:01:33Z</time>
      </trkpt>
      <trkpt lat="46.18991" lon="6.46928">
        <ele>1237</ele>
        <time>2012-07-14T11:01:35Z</time>
      </trkpt>
      <trkpt lat="46.1899" lon="6.46942">
        <ele>1237</ele>
        <time>2012-07-14T11:01:37Z</time>
      </trkpt>
      <trkpt lat="46.18997" lon="6.46958">
        <ele>1237</ele>
        <time>2012-07-14T11:01:39Z</time>
      </trkpt>
      <trkpt lat="46.19003" lon="6.46969">
        <ele>1237</ele>
        <time>2012-07-14T11:01:40Z</time>
      </trkpt>
      <trkpt lat="46.1901" lon="6.46981">
        <ele>1237</ele>
        <time>2012-07-14T11:01:41Z</time>
      </trkpt>
      <trkpt lat="46.19017" lon="6.46995">
        <ele>1237</ele>
        <time>2012-07-14T11:01:42Z</time>
      </trkpt>
      <trkpt lat="46.19022" lon="6.47009">
        <ele>1237</ele>
        <time>2012-07-14T11:01:43Z</time>
      </trkpt>
      <trkpt lat="46.19028" lon="6.47024">
        <ele>1237</ele>
        <time>2012-07-14T11:01:44Z</time>
      </trkpt>
      <trkpt lat="46.19032" lon="6.47039">
        <ele>1237</ele>
        <time>2012-07-14T11:01:45Z</time>
      </trkpt>
      <trkpt lat="46.19036" lon="6.47053">
        <ele>1237</ele>
        <time>2012-07-14T11:01:46Z</time>
      </trkpt>
      <trkpt lat="46.1904" lon="6.47066">
        <ele>1237</ele>
        <time>2012-07-14T11:01:47Z</time>
      </trkpt>
      <trkpt lat="46.19044" lon="6.47077">
        <ele>1237</ele>
        <time>2012-07-14T11:01:48Z</time>
      </trkpt>
      <trkpt lat="46.19055" lon="6.47098">
        <ele>1237</ele>
        <time>2012-07-14T11:01:50Z</time>
      </trkpt>
      <trkpt lat="46.19064" lon="6.47116">
        <ele>1232</ele>
        <time>2012-07-14T11:01:52Z</time>
      </trkpt>
      <trkpt lat="46.19067" lon="6.47134">
        <ele>1232</ele>
        <time>2012-07-14T11:01:54Z</time>
      </trkpt>
      <trkpt lat="46.19064" lon="6.47154">
        <ele>1232</ele>
        <time>2012-07-14T11:01:56Z</time>
      </trkpt>
      <trkpt lat="46.19057" lon="6.47174">
        <ele>1232</ele>
        <time>2012-07-14T11:01:58Z</time>
      </trkpt>
      <trkpt lat="46.19054" lon="6.47187">
        <ele>1232</ele>
        <time>2012-07-14T11:01:59Z</time>
      </trkpt>
      <trkpt lat="46.19052" lon="6.47201">
        <ele>1232</ele>
        <time>2012-07-14T11:02:00Z</time>
      </trkpt>
      <trkpt lat="46.1905" lon="6.47216">
        <ele>1232</ele>
        <time>2012-07-14T11:02:01Z</time>
      </trkpt>
      <trkpt lat="46.19048" lon="6.47231">
        <ele>1232</ele>
        <time>2012-07-14T11:02:02Z</time>
      </trkpt>
      <trkpt lat="46.19046" lon="6.47247">
        <ele>1232</ele>
        <time>2012-07-14T11:02:03Z</time>
      </trkpt>
      <trkpt lat="46.19044" lon="6.47261">
        <ele>1232</ele>
        <time>2012-07-14T11:02:04Z</time>
      </trkpt>
      <trkpt lat="46.19042" lon="6.47285">
        <ele>1232</ele>
        <time>2012-07-14T11:02:06Z</time>
      </trkpt>
      <trkpt lat="46.1904" lon="6.47306">
        <ele>1232</ele>
        <time>2012-07-14T11:02:08Z</time>
      </trkpt>
      <trkpt lat="46.19034" lon="6.47327">
        <ele>1232</ele>
        <time>2012-07-14T11:02:10Z</time>
      </trkpt>
      <trkpt lat="46.19031" lon="6.47347">
        <ele>1237</ele>
        <time>2012-07-14T11:02:12Z</time>
      </trkpt>
      <trkpt lat="46.1903" lon="6.47362">
        <ele>1237</ele>
        <time>2012-07-14T11:02:15Z</time>
      </trkpt>
      <trkpt lat="46.1904" lon="6.47365">
        <ele>1237</ele>
        <time>2012-07-14T11:02:56Z</time>
      </trkpt>
      <trkpt lat="46.19054" lon="6.47378">
        <ele>1237</ele>
        <time>2012-07-14T11:02:58Z</time>
      </trkpt>
      <trkpt lat="46.19068" lon="6.4739">
        <ele>1237</ele>
        <time>2012-07-14T11:03:00Z</time>
      </trkpt>
      <trkpt lat="46.19077" lon="6.47393">
        <ele>1237</ele>
        <time>2012-07-14T11:03:01Z</time>
      </trkpt>
      <trkpt lat="46.19095" lon="6.47395">
        <ele>1237</ele>
        <time>2012-07-14T11:03:03Z</time>
      </trkpt>
      <trkpt lat="46.19104" lon="6.47394">
        <ele>1237</ele>
        <time>2012-07-14T11:03:04Z</time>
      </trkpt>
      <trkpt lat="46.19114" lon="6.47393">
        <ele>1237</ele>
        <time>2012-07-14T11:03:05Z</time>
      </trkpt>
      <trkpt lat="46.19124" lon="6.47393">
        <ele>1237</ele>
        <time>2012-07-14T11:03:06Z</time>
      </trkpt>
      <trkpt lat="46.1914" lon="6.47397">
        <ele>1237</ele>
        <time>2012-07-14T11:03:08Z</time>
      </trkpt>
      <trkpt lat="46.19153" lon="6.47402">
        <ele>1242</ele>
        <time>2012-07-14T11:03:10Z</time>
      </trkpt>
      <trkpt lat="46.19162" lon="6.4741">
        <ele>1242</ele>
        <time>2012-07-14T11:03:12Z</time>
      </trkpt>
      <trkpt lat="46.19171" lon="6.47419">
        <ele>1242</ele>
        <time>2012-07-14T11:03:14Z</time>
      </trkpt>
      <trkpt lat="46.19178" lon="6.47427">
        <ele>1242</ele>
        <time>2012-07-14T11:03:16Z</time>
      </trkpt>
      <trkpt lat="46.19185" lon="6.47437">
        <ele>1242</ele>
        <time>2012-07-14T11:03:48Z</time>
      </trkpt>
      <trkpt lat="46.19178" lon="6.47427">
        <ele>1250</ele>
        <time>2012-07-14T11:03:58Z</time>
      </trkpt>
      <trkpt lat="46.19168" lon="6.47418">
        <ele>1250</ele>
        <time>2012-07-14T11:04:00Z</time>
      </trkpt>
      <trkpt lat="46.19158" lon="6.47409">
        <ele>1250</ele>
        <time>2012-07-14T11:04:02Z</time>
      </trkpt>
      <trkpt lat="46.19147" lon="6.47402">
        <ele>1250</ele>
        <time>2012-07-14T11:04:04Z</time>
      </trkpt>
      <trkpt lat="46.19135" lon="6.47397">
        <ele>1250</ele>
        <time>2012-07-14T11:04:06Z</time>
      </trkpt>
      <trkpt lat="46.19121" lon="6.47393">
        <ele>1243</ele>
        <time>2012-07-14T11:04:08Z</time>
      </trkpt>
      <trkpt lat="46.19104" lon="6.47395">
        <ele>1243</ele>
        <time>2012-07-14T11:04:10Z</time>
      </trkpt>
      <trkpt lat="46.19087" lon="6.47397">
        <ele>1243</ele>
        <time>2012-07-14T11:04:12Z</time>
      </trkpt>
      <trkpt lat="46.19071" lon="6.47393">
        <ele>1243</ele>
        <time>2012-07-14T11:04:14Z</time>
      </trkpt>
      <trkpt lat="46.19054" lon="6.47382">
        <ele>1237</ele>
        <time>2012-07-14T11:04:16Z</time>
      </trkpt>
      <trkpt lat="46.19045" lon="6.47374">
        <ele>1237</ele>
        <time>2012-07-14T11:04:17Z</time>
      </trkpt>
      <trkpt lat="46.19036" lon="6.47366">
        <ele>1237</ele>
        <time>2012-07-14T11:04:18Z</time>
      </trkpt>
      <trkpt lat="46.19027" lon="6.47359">
        <ele>1237</ele>
        <time>2012-07-14T11:04:19Z</time>
      </trkpt>
      <trkpt lat="46.19017" lon="6.47346">
        <ele>1237</ele>
        <time>2012-07-14T11:04:21Z</time>
      </trkpt>
      <trkpt lat="46.19022" lon="6.47326">
        <ele>1237</ele>
        <time>2012-07-14T11:04:23Z</time>
      </trkpt>
      <trkpt lat="46.19028" lon="6.47314">
        <ele>1232</ele>
        <time>2012-07-14T11:04:24Z</time>
      </trkpt>
      <trkpt lat="46.19034" lon="6.47293">
        <ele>1232</ele>
        <time>2012-07-14T11:04:26Z</time>
      </trkpt>
      <trkpt lat="46.19037" lon="6.47269">
        <ele>1232</ele>
        <time>2012-07-14T11:04:28Z</time>
      </trkpt>
      <trkpt lat="46.1904" lon="6.47243">
        <ele>1232</ele>
        <time>2012-07-14T11:04:30Z</time>
      </trkpt>
      <trkpt lat="46.19042" lon="6.47229">
        <ele>1232</ele>
        <time>2012-07-14T11:04:31Z</time>
      </trkpt>
      <trkpt lat="46.19045" lon="6.47214">
        <ele>1232</ele>
        <time>2012-07-14T11:04:32Z</time>
      </trkpt>
      <trkpt lat="46.19047" lon="6.47198">
        <ele>1232</ele>
        <time>2012-07-14T11:04:33Z</time>
      </trkpt>
      <trkpt lat="46.19049" lon="6.47183">
        <ele>1232</ele>
        <time>2012-07-14T11:04:34Z</time>
      </trkpt>
      <trkpt lat="46.19054" lon="6.4717">
        <ele>1232</ele>
        <time>2012-07-14T11:04:35Z</time>
      </trkpt>
      <trkpt lat="46.19058" lon="6.47158">
        <ele>1232</ele>
        <time>2012-07-14T11:04:36Z</time>
      </trkpt>
      <trkpt lat="46.19064" lon="6.47136">
        <ele>1232</ele>
        <time>2012-07-14T11:04:38Z</time>
      </trkpt>
      <trkpt lat="46.19065" lon="6.47119">
        <ele>1232</ele>
        <time>2012-07-14T11:04:40Z</time>
      </trkpt>
      <trkpt lat="46.19062" lon="6.47106">
        <ele>1232</ele>
        <time>2012-07-14T11:04:42Z</time>
      </trkpt>
      <trkpt lat="46.19052" lon="6.47089">
        <ele>1232</ele>
        <time>2012-07-14T11:04:44Z</time>
      </trkpt>
      <trkpt lat="46.19044" lon="6.47071">
        <ele>1232</ele>
        <time>2012-07-14T11:04:46Z</time>
      </trkpt>
      <trkpt lat="46.19037" lon="6.47051">
        <ele>1232</ele>
        <time>2012-07-14T11:04:48Z</time>
      </trkpt>
      <trkpt lat="46.19031" lon="6.47031">
        <ele>1232</ele>
        <time>2012-07-14T11:04:50Z</time>
      </trkpt>
      <trkpt lat="46.19024" lon="6.47012">
        <ele>1232</ele>
        <time>2012-07-14T11:04:52Z</time>
      </trkpt>
      <trkpt lat="46.19016" lon="6.46991">
        <ele>1232</ele>
        <time>2012-07-14T11:04:54Z</time>
      </trkpt>
      <trkpt lat="46.19006" lon="6.46969">
        <ele>1232</ele>
        <time>2012-07-14T11:04:56Z</time>
      </trkpt>
      <trkpt lat="46.18996" lon="6.46951">
        <ele>1232</ele>
        <time>2012-07-14T11:04:58Z</time>
      </trkpt>
      <trkpt lat="46.18988" lon="6.46938">
        <ele>1232</ele>
        <time>2012-07-14T11:05:00Z</time>
      </trkpt>
      <trkpt lat="46.18988" lon="6.46922">
        <ele>1232</ele>
        <time>2012-07-14T11:05:03Z</time>
      </trkpt>
      <trkpt lat="46.18996" lon="6.46908">
        <ele>1232</ele>
        <time>2012-07-14T11:05:05Z</time>
      </trkpt>
      <trkpt lat="46.19006" lon="6.46893">
        <ele>1232</ele>
        <time>2012-07-14T11:05:07Z</time>
      </trkpt>
      <trkpt lat="46.19008" lon="6.46876">
        <ele>1232</ele>
        <time>2012-07-14T11:05:09Z</time>
      </trkpt>
      <trkpt lat="46.19009" lon="6.46861">
        <ele>1237</ele>
        <time>2012-07-14T11:05:12Z</time>
      </trkpt>
      <trkpt lat="46.19019" lon="6.46858">
        <ele>1237</ele>
        <time>2012-07-14T11:05:15Z</time>
      </trkpt>
      <trkpt lat="46.19032" lon="6.46859">
        <ele>1237</ele>
        <time>2012-07-14T11:05:17Z</time>
      </trkpt>
      <trkpt lat="46.19048" lon="6.46859">
        <ele>1237</ele>
        <time>2012-07-14T11:05:19Z</time>
      </trkpt>
      <trkpt lat="46.19066" lon="6.4686">
        <ele>1237</ele>
        <time>2012-07-14T11:05:21Z</time>
      </trkpt>
      <trkpt lat="46.19076" lon="6.4686">
        <ele>1237</ele>
        <time>2012-07-14T11:05:22Z</time>
      </trkpt>
      <trkpt lat="46.19088" lon="6.4686">
        <ele>1237</ele>
        <time>2012-07-14T11:05:23Z</time>
      </trkpt>
      <trkpt lat="46.191" lon="6.4686">
        <ele>1237</ele>
        <time>2012-07-14T11:05:24Z</time>
      </trkpt>
      <trkpt lat="46.19112" lon="6.46859">
        <ele>1237</ele>
        <time>2012-07-14T11:05:25Z</time>
      </trkpt>
      <trkpt lat="46.19127" lon="6.46859">
        <ele>1237</ele>
        <time>2012-07-14T11:05:26Z</time>
      </trkpt>
      <trkpt lat="46.1914" lon="6.46859">
        <ele>1237</ele>
        <time>2012-07-14T11:05:27Z</time>
      </trkpt>
      <trkpt lat="46.19154" lon="6.4686">
        <ele>1243</ele>
        <time>2012-07-14T11:05:28Z</time>
      </trkpt>
      <trkpt lat="46.19168" lon="6.46862">
        <ele>1243</ele>
        <time>2012-07-14T11:05:29Z</time>
      </trkpt>
      <trkpt lat="46.19183" lon="6.46866">
        <ele>1243</ele>
        <time>2012-07-14T11:05:30Z</time>
      </trkpt>
      <trkpt lat="46.19198" lon="6.46871">
        <ele>1243</ele>
        <time>2012-07-14T11:05:31Z</time>
      </trkpt>
      <trkpt lat="46.19213" lon="6.46878">
        <ele>1243</ele>
        <time>2012-07-14T11:05:32Z</time>
      </trkpt>
      <trkpt lat="46.19226" lon="6.46885">
        <ele>1243</ele>
        <time>2012-07-14T11:05:33Z</time>
      </trkpt>
      <trkpt lat="46.19238" lon="6.46893">
        <ele>1243</ele>
        <time>2012-07-14T11:05:34Z</time>
      </trkpt>
      <trkpt lat="46.19249" lon="6.469">
        <ele>1243</ele>
        <time>2012-07-14T11:05:35Z</time>
      </trkpt>
      <trkpt lat="46.1926" lon="6.46908">
        <ele>1243</ele>
        <time>2012-07-14T11:05:36Z</time>
      </trkpt>
      <trkpt lat="46.1927" lon="6.46915">
        <ele>1243</ele>
        <time>2012-07-14T11:05:37Z</time>
      </trkpt>
      <trkpt lat="46.1928" lon="6.46919">
        <ele>1248</ele>
        <time>2012-07-14T11:05:38Z</time>
      </trkpt>
      <trkpt lat="46.1929" lon="6.46924">
        <ele>1248</ele>
        <time>2012-07-14T11:05:39Z</time>
      </trkpt>
      <trkpt lat="46.19301" lon="6.46926">
        <ele>1248</ele>
        <time>2012-07-14T11:05:40Z</time>
      </trkpt>
      <trkpt lat="46.19312" lon="6.46929">
        <ele>1248</ele>
        <time>2012-07-14T11:05:41Z</time>
      </trkpt>
      <trkpt lat="46.19323" lon="6.46931">
        <ele>1248</ele>
        <time>2012-07-14T11:05:42Z</time>
      </trkpt>
      <trkpt lat="46.19335" lon="6.46933">
        <ele>1248</ele>
        <time>2012-07-14T11:05:43Z</time>
      </trkpt>
      <trkpt lat="46.19347" lon="6.46934">
        <ele>1248</ele>
        <time>2012-07-14T11:05:44Z</time>
      </trkpt>
      <trkpt lat="46.19359" lon="6.46935">
        <ele>1248</ele>
        <time>2012-07-14T11:05:45Z</time>
      </trkpt>
      <trkpt lat="46.19372" lon="6.46937">
        <ele>1248</ele>
        <time>2012-07-14T11:05:46Z</time>
      </trkpt>
      <trkpt lat="46.19384" lon="6.46938">
        <ele>1248</ele>
        <time>2012-07-14T11:05:47Z</time>
      </trkpt>
      <trkpt lat="46.19396" lon="6.4694">
        <ele>1248</ele>
        <time>2012-07-14T11:05:48Z</time>
      </trkpt>
      <trkpt lat="46.19405" lon="6.46941">
        <ele>1248</ele>
        <time>2012-07-14T11:05:49Z</time>
      </trkpt>
      <trkpt lat="46.19415" lon="6.46942">
        <ele>1248</ele>
        <time>2012-07-14T11:05:50Z</time>
      </trkpt>
      <trkpt lat="46.19429" lon="6.46944">
        <ele>1254</ele>
        <time>2012-07-14T11:05:52Z</time>
      </trkpt>
      <trkpt lat="46.19439" lon="6.46944">
        <ele>1254</ele>
        <time>2012-07-14T11:05:56Z</time>
      </trkpt>
      <trkpt lat="46.19447" lon="6.46937">
        <ele>1254</ele>
        <time>2012-07-14T11:06:05Z</time>
      </trkpt>
      <trkpt lat="46.19463" lon="6.46929">
        <ele>1254</ele>
        <time>2012-07-14T11:06:07Z</time>
      </trkpt>
      <trkpt lat="46.19472" lon="6.46924">
        <ele>1254</ele>
        <time>2012-07-14T11:06:08Z</time>
      </trkpt>
      <trkpt lat="46.19483" lon="6.46919">
        <ele>1254</ele>
        <time>2012-07-14T11:06:09Z</time>
      </trkpt>
      <trkpt lat="46.19494" lon="6.46913">
        <ele>1254</ele>
        <time>2012-07-14T11:06:10Z</time>
      </trkpt>
      <trkpt lat="46.19507" lon="6.46907">
        <ele>1254</ele>
        <time>2012-07-14T11:06:11Z</time>
      </trkpt>
      <trkpt lat="46.19521" lon="6.46901">
        <ele>1254</ele>
        <time>2012-07-14T11:06:12Z</time>
      </trkpt>
      <trkpt lat="46.19537" lon="6.46895">
        <ele>1254</ele>
        <time>2012-07-14T11:06:13Z</time>
      </trkpt>
      <trkpt lat="46.19552" lon="6.4689">
        <ele>1254</ele>
        <time>2012-07-14T11:06:14Z</time>
      </trkpt>
      <trkpt lat="46.19568" lon="6.46886">
        <ele>1254</ele>
        <time>2012-07-14T11:06:15Z</time>
      </trkpt>
      <trkpt lat="46.19586" lon="6.46882">
        <ele>1254</ele>
        <time>2012-07-14T11:06:16Z</time>
      </trkpt>
      <trkpt lat="46.19603" lon="6.46879">
        <ele>1249</ele>
        <time>2012-07-14T11:06:17Z</time>
      </trkpt>
      <trkpt lat="46.1962" lon="6.46874">
        <ele>1249</ele>
        <time>2012-07-14T11:06:18Z</time>
      </trkpt>
      <trkpt lat="46.19636" lon="6.46871">
        <ele>1249</ele>
        <time>2012-07-14T11:06:19Z</time>
      </trkpt>
      <trkpt lat="46.1965" lon="6.46865">
        <ele>1249</ele>
        <time>2012-07-14T11:06:20Z</time>
      </trkpt>
      <trkpt lat="46.19661" lon="6.4686">
        <ele>1249</ele>
        <time>2012-07-14T11:06:21Z</time>
      </trkpt>
      <trkpt lat="46.19675" lon="6.46855">
        <ele>1249</ele>
        <time>2012-07-14T11:06:23Z</time>
      </trkpt>
      <trkpt lat="46.19682" lon="6.46863">
        <ele>1249</ele>
        <time>2012-07-14T11:06:26Z</time>
      </trkpt>
      <trkpt lat="46.19692" lon="6.46877">
        <ele>1249</ele>
        <time>2012-07-14T11:06:28Z</time>
      </trkpt>
      <trkpt lat="46.197" lon="6.46885">
        <ele>1249</ele>
        <time>2012-07-14T11:06:29Z</time>
      </trkpt>
      <trkpt lat="46.19708" lon="6.46893">
        <ele>1249</ele>
        <time>2012-07-14T11:06:30Z</time>
      </trkpt>
      <trkpt lat="46.19718" lon="6.46901">
        <ele>1249</ele>
        <time>2012-07-14T11:06:31Z</time>
      </trkpt>
      <trkpt lat="46.19728" lon="6.46908">
        <ele>1249</ele>
        <time>2012-07-14T11:06:32Z</time>
      </trkpt>
      <trkpt lat="46.19738" lon="6.46916">
        <ele>1254</ele>
        <time>2012-07-14T11:06:33Z</time>
      </trkpt>
      <trkpt lat="46.19748" lon="6.46924">
        <ele>1254</ele>
        <time>2012-07-14T11:06:34Z</time>
      </trkpt>
      <trkpt lat="46.19757" lon="6.46931">
        <ele>1254</ele>
        <time>2012-07-14T11:06:35Z</time>
      </trkpt>
      <trkpt lat="46.19765" lon="6.46937">
        <ele>1254</ele>
        <time>2012-07-14T11:06:36Z</time>
      </trkpt>
      <trkpt lat="46.19774" lon="6.4695">
        <ele>1261</ele>
        <time>2012-07-14T11:06:38Z</time>
      </trkpt>
      <trkpt lat="46.19768" lon="6.46966">
        <ele>1261</ele>
        <time>2012-07-14T11:06:41Z</time>
      </trkpt>
      <trkpt lat="46.19751" lon="6.46969">
        <ele>1261</ele>
        <time>2012-07-14T11:06:43Z</time>
      </trkpt>
      <trkpt lat="46.19739" lon="6.46969">
        <ele>1261</ele>
        <time>2012-07-14T11:06:44Z</time>
      </trkpt>
      <trkpt lat="46.19729" lon="6.46972">
        <ele>1267</ele>
        <time>2012-07-14T11:06:45Z</time>
      </trkpt>
      <trkpt lat="46.19718" lon="6.46975">
        <ele>1267</ele>
        <time>2012-07-14T11:06:46Z</time>
      </trkpt>
      <trkpt lat="46.19707" lon="6.46977">
        <ele>1267</ele>
        <time>2012-07-14T11:06:47Z</time>
      </trkpt>
      <trkpt lat="46.19696" lon="6.4698">
        <ele>1267</ele>
        <time>2012-07-14T11:06:48Z</time>
      </trkpt>
      <trkpt lat="46.19678" lon="6.46986">
        <ele>1273</ele>
        <time>2012-07-14T11:06:50Z</time>
      </trkpt>
      <trkpt lat="46.19665" lon="6.46997">
        <ele>1273</ele>
        <time>2012-07-14T11:06:52Z</time>
      </trkpt>
      <trkpt lat="46.19656" lon="6.47009">
        <ele>1273</ele>
        <time>2012-07-14T11:06:54Z</time>
      </trkpt>
      <trkpt lat="46.19648" lon="6.47022">
        <ele>1273</ele>
        <time>2012-07-14T11:06:56Z</time>
      </trkpt>
      <trkpt lat="46.1964" lon="6.47033">
        <ele>1273</ele>
        <time>2012-07-14T11:06:58Z</time>
      </trkpt>
      <trkpt lat="46.19631" lon="6.47046">
        <ele>1273</ele>
        <time>2012-07-14T11:07:00Z</time>
      </trkpt>
      <trkpt lat="46.1962" lon="6.47057">
        <ele>1273</ele>
        <time>2012-07-14T11:07:02Z</time>
      </trkpt>
      <trkpt lat="46.19609" lon="6.47069">
        <ele>1273</ele>
        <time>2012-07-14T11:07:04Z</time>
      </trkpt>
      <trkpt lat="46.19599" lon="6.47079">
        <ele>1273</ele>
        <time>2012-07-14T11:07:06Z</time>
      </trkpt>
      <trkpt lat="46.19593" lon="6.4709">
        <ele>1273</ele>
        <time>2012-07-14T11:07:08Z</time>
      </trkpt>
      <trkpt lat="46.1959" lon="6.47104">
        <ele>1273</ele>
        <time>2012-07-14T11:07:10Z</time>
      </trkpt>
      <trkpt lat="46.19591" lon="6.4712">
        <ele>1273</ele>
        <time>2012-07-14T11:07:12Z</time>
      </trkpt>
      <trkpt lat="46.19593" lon="6.47135">
        <ele>1273</ele>
        <time>2012-07-14T11:07:14Z</time>
      </trkpt>
      <trkpt lat="46.19593" lon="6.4715">
        <ele>1273</ele>
        <time>2012-07-14T11:07:16Z</time>
      </trkpt>
      <trkpt lat="46.19595" lon="6.47166">
        <ele>1273</ele>
        <time>2012-07-14T11:07:18Z</time>
      </trkpt>
      <trkpt lat="46.19598" lon="6.47184">
        <ele>1273</ele>
        <time>2012-07-14T11:07:20Z</time>
      </trkpt>
      <trkpt lat="46.19603" lon="6.47207">
        <ele>1278</ele>
        <time>2012-07-14T11:07:22Z</time>
      </trkpt>
      <trkpt lat="46.19609" lon="6.4723">
        <ele>1278</ele>
        <time>2012-07-14T11:07:24Z</time>
      </trkpt>
      <trkpt lat="46.19613" lon="6.47243">
        <ele>1278</ele>
        <time>2012-07-14T11:07:25Z</time>
      </trkpt>
      <trkpt lat="46.19616" lon="6.47256">
        <ele>1278</ele>
        <time>2012-07-14T11:07:26Z</time>
      </trkpt>
      <trkpt lat="46.19619" lon="6.47269">
        <ele>1278</ele>
        <time>2012-07-14T11:07:27Z</time>
      </trkpt>
      <trkpt lat="46.19623" lon="6.47282">
        <ele>1278</ele>
        <time>2012-07-14T11:07:28Z</time>
      </trkpt>
      <trkpt lat="46.19627" lon="6.47295">
        <ele>1278</ele>
        <time>2012-07-14T11:07:29Z</time>
      </trkpt>
      <trkpt lat="46.19631" lon="6.47307">
        <ele>1278</ele>
        <time>2012-07-14T11:07:30Z</time>
      </trkpt>
      <trkpt lat="46.19636" lon="6.4732">
        <ele>1284</ele>
        <time>2012-07-14T11:07:31Z</time>
      </trkpt>
      <trkpt lat="46.19641" lon="6.47333">
        <ele>1284</ele>
        <time>2012-07-14T11:07:32Z</time>
      </trkpt>
      <trkpt lat="46.19644" lon="6.47346">
        <ele>1284</ele>
        <time>2012-07-14T11:07:33Z</time>
      </trkpt>
      <trkpt lat="46.19648" lon="6.4737">
        <ele>1284</ele>
        <time>2012-07-14T11:07:35Z</time>
      </trkpt>
      <trkpt lat="46.19651" lon="6.47391">
        <ele>1284</ele>
        <time>2012-07-14T11:07:37Z</time>
      </trkpt>
      <trkpt lat="46.19651" lon="6.47414">
        <ele>1284</ele>
        <time>2012-07-14T11:07:39Z</time>
      </trkpt>
      <trkpt lat="46.19648" lon="6.47437">
        <ele>1290</ele>
        <time>2012-07-14T11:07:41Z</time>
      </trkpt>
      <trkpt lat="46.19644" lon="6.47457">
        <ele>1290</ele>
        <time>2012-07-14T11:07:43Z</time>
      </trkpt>
      <trkpt lat="46.19641" lon="6.47477">
        <ele>1290</ele>
        <time>2012-07-14T11:07:45Z</time>
      </trkpt>
      <trkpt lat="46.19641" lon="6.47492">
        <ele>1297</ele>
        <time>2012-07-14T11:07:47Z</time>
      </trkpt>
      <trkpt lat="46.19643" lon="6.47509">
        <ele>1297</ele>
        <time>2012-07-14T11:07:50Z</time>
      </trkpt>
      <trkpt lat="46.19646" lon="6.47525">
        <ele>1297</ele>
        <time>2012-07-14T11:07:53Z</time>
      </trkpt>
      <trkpt lat="46.19651" lon="6.47541">
        <ele>1297</ele>
        <time>2012-07-14T11:07:56Z</time>
      </trkpt>
      <trkpt lat="46.19653" lon="6.47556">
        <ele>1297</ele>
        <time>2012-07-14T11:07:59Z</time>
      </trkpt>
      <trkpt lat="46.19657" lon="6.47569">
        <ele>1297</ele>
        <time>2012-07-14T11:08:03Z</time>
      </trkpt>
      <trkpt lat="46.19664" lon="6.47585">
        <ele>1304</ele>
        <time>2012-07-14T11:08:14Z</time>
      </trkpt>
      <trkpt lat="46.19673" lon="6.476">
        <ele>1304</ele>
        <time>2012-07-14T11:08:16Z</time>
      </trkpt>
      <trkpt lat="46.19682" lon="6.47619">
        <ele>1304</ele>
        <time>2012-07-14T11:08:18Z</time>
      </trkpt>
      <trkpt lat="46.19689" lon="6.47641">
        <ele>1304</ele>
        <time>2012-07-14T11:08:20Z</time>
      </trkpt>
      <trkpt lat="46.19692" lon="6.47654">
        <ele>1304</ele>
        <time>2012-07-14T11:08:21Z</time>
      </trkpt>
      <trkpt lat="46.19694" lon="6.47667">
        <ele>1304</ele>
        <time>2012-07-14T11:08:22Z</time>
      </trkpt>
      <trkpt lat="46.197" lon="6.47686">
        <ele>1309</ele>
        <time>2012-07-14T11:08:24Z</time>
      </trkpt>
      <trkpt lat="46.19706" lon="6.47704">
        <ele>1309</ele>
        <time>2012-07-14T11:08:26Z</time>
      </trkpt>
      <trkpt lat="46.19712" lon="6.47718">
        <ele>1309</ele>
        <time>2012-07-14T11:08:28Z</time>
      </trkpt>
      <trkpt lat="46.19721" lon="6.47727">
        <ele>1309</ele>
        <time>2012-07-14T11:08:30Z</time>
      </trkpt>
      <trkpt lat="46.1973" lon="6.47735">
        <ele>1309</ele>
        <time>2012-07-14T11:08:32Z</time>
      </trkpt>
      <trkpt lat="46.19741" lon="6.47744">
        <ele>1309</ele>
        <time>2012-07-14T11:08:34Z</time>
      </trkpt>
      <trkpt lat="46.19752" lon="6.4776">
        <ele>1309</ele>
        <time>2012-07-14T11:08:36Z</time>
      </trkpt>
      <trkpt lat="46.19762" lon="6.47773">
        <ele>1309</ele>
        <time>2012-07-14T11:08:38Z</time>
      </trkpt>
      <trkpt lat="46.19774" lon="6.47783">
        <ele>1309</ele>
        <time>2012-07-14T11:08:40Z</time>
      </trkpt>
      <trkpt lat="46.19786" lon="6.47792">
        <ele>1309</ele>
        <time>2012-07-14T11:08:42Z</time>
      </trkpt>
      <trkpt lat="46.19797" lon="6.47802">
        <ele>1309</ele>
        <time>2012-07-14T11:08:44Z</time>
      </trkpt>
      <trkpt lat="46.19807" lon="6.47811">
        <ele>1309</ele>
        <time>2012-07-14T11:08:46Z</time>
      </trkpt>
      <trkpt lat="46.19818" lon="6.47822">
        <ele>1309</ele>
        <time>2012-07-14T11:08:48Z</time>
      </trkpt>
      <trkpt lat="46.19828" lon="6.47831">
        <ele>1309</ele>
        <time>2012-07-14T11:08:50Z</time>
      </trkpt>
      <trkpt lat="46.19837" lon="6.47838">
        <ele>1309</ele>
        <time>2012-07-14T11:08:52Z</time>
      </trkpt>
      <trkpt lat="46.19845" lon="6.47845">
        <ele>1309</ele>
        <time>2012-07-14T11:08:54Z</time>
      </trkpt>
      <trkpt lat="46.19855" lon="6.47853">
        <ele>1309</ele>
        <time>2012-07-14T11:08:56Z</time>
      </trkpt>
      <trkpt lat="46.19864" lon="6.4786">
        <ele>1309</ele>
        <time>2012-07-14T11:09:41Z</time>
      </trkpt>
      <trkpt lat="46.19872" lon="6.47872">
        <ele>1309</ele>
        <time>2012-07-14T11:09:52Z</time>
      </trkpt>
      <trkpt lat="46.19877" lon="6.47885">
        <ele>1309</ele>
        <time>2012-07-14T11:09:54Z</time>
      </trkpt>
      <trkpt lat="46.19883" lon="6.479">
        <ele>1309</ele>
        <time>2012-07-14T11:09:56Z</time>
      </trkpt>
      <trkpt lat="46.1989" lon="6.47913">
        <ele>1309</ele>
        <time>2012-07-14T11:09:58Z</time>
      </trkpt>
      <trkpt lat="46.19896" lon="6.47925">
        <ele>1309</ele>
        <time>2012-07-14T11:10:00Z</time>
      </trkpt>
      <trkpt lat="46.19903" lon="6.4794">
        <ele>1309</ele>
        <time>2012-07-14T11:10:03Z</time>
      </trkpt>
      <trkpt lat="46.19908" lon="6.47952">
        <ele>1309</ele>
        <time>2012-07-14T11:10:12Z</time>
      </trkpt>
      <trkpt lat="46.19912" lon="6.47967">
        <ele>1309</ele>
        <time>2012-07-14T11:10:50Z</time>
      </trkpt>
      <trkpt lat="46.19916" lon="6.47979">
        <ele>1309</ele>
        <time>2012-07-14T11:10:52Z</time>
      </trkpt>
      <trkpt lat="46.19921" lon="6.47992">
        <ele>1309</ele>
        <time>2012-07-14T11:10:54Z</time>
      </trkpt>
      <trkpt lat="46.19925" lon="6.48005">
        <ele>1309</ele>
        <time>2012-07-14T11:10:56Z</time>
      </trkpt>
      <trkpt lat="46.1993" lon="6.48021">
        <ele>1314</ele>
        <time>2012-07-14T11:10:59Z</time>
      </trkpt>
      <trkpt lat="46.19935" lon="6.48039">
        <ele>1314</ele>
        <time>2012-07-14T11:11:02Z</time>
      </trkpt>
      <trkpt lat="46.19938" lon="6.48053">
        <ele>1314</ele>
        <time>2012-07-14T11:11:04Z</time>
      </trkpt>
      <trkpt lat="46.19942" lon="6.48067">
        <ele>1314</ele>
        <time>2012-07-14T11:11:06Z</time>
      </trkpt>
      <trkpt lat="46.19949" lon="6.48083">
        <ele>1314</ele>
        <time>2012-07-14T11:11:08Z</time>
      </trkpt>
      <trkpt lat="46.19956" lon="6.481">
        <ele>1319</ele>
        <time>2012-07-14T11:11:10Z</time>
      </trkpt>
      <trkpt lat="46.19963" lon="6.48117">
        <ele>1319</ele>
        <time>2012-07-14T11:11:12Z</time>
      </trkpt>
      <trkpt lat="46.19971" lon="6.48131">
        <ele>1319</ele>
        <time>2012-07-14T11:11:14Z</time>
      </trkpt>
      <trkpt lat="46.19982" lon="6.48136">
        <ele>1319</ele>
        <time>2012-07-14T11:11:16Z</time>
      </trkpt>
      <trkpt lat="46.19996" lon="6.48143">
        <ele>1325</ele>
        <time>2012-07-14T11:11:18Z</time>
      </trkpt>
      <trkpt lat="46.20009" lon="6.48152">
        <ele>1325</ele>
        <time>2012-07-14T11:11:20Z</time>
      </trkpt>
      <trkpt lat="46.20022" lon="6.48162">
        <ele>1325</ele>
        <time>2012-07-14T11:11:22Z</time>
      </trkpt>
      <trkpt lat="46.20034" lon="6.4817">
        <ele>1325</ele>
        <time>2012-07-14T11:11:24Z</time>
      </trkpt>
      <trkpt lat="46.20047" lon="6.48175">
        <ele>1332</ele>
        <time>2012-07-14T11:11:26Z</time>
      </trkpt>
      <trkpt lat="46.20062" lon="6.48182">
        <ele>1332</ele>
        <time>2012-07-14T11:11:28Z</time>
      </trkpt>
      <trkpt lat="46.20074" lon="6.48195">
        <ele>1332</ele>
        <time>2012-07-14T11:11:30Z</time>
      </trkpt>
      <trkpt lat="46.20084" lon="6.48209">
        <ele>1332</ele>
        <time>2012-07-14T11:11:32Z</time>
      </trkpt>
      <trkpt lat="46.20094" lon="6.48223">
        <ele>1338</ele>
        <time>2012-07-14T11:11:34Z</time>
      </trkpt>
      <trkpt lat="46.20107" lon="6.48232">
        <ele>1338</ele>
        <time>2012-07-14T11:11:36Z</time>
      </trkpt>
      <trkpt lat="46.20121" lon="6.48241">
        <ele>1338</ele>
        <time>2012-07-14T11:11:38Z</time>
      </trkpt>
      <trkpt lat="46.20133" lon="6.48247">
        <ele>1345</ele>
        <time>2012-07-14T11:11:40Z</time>
      </trkpt>
      <trkpt lat="46.20143" lon="6.48249">
        <ele>1345</ele>
        <time>2012-07-14T11:11:42Z</time>
      </trkpt>
      <trkpt lat="46.20147" lon="6.48236">
        <ele>1345</ele>
        <time>2012-07-14T11:12:26Z</time>
      </trkpt>
      <trkpt lat="46.2016" lon="6.48234">
        <ele>1345</ele>
        <time>2012-07-14T11:12:29Z</time>
      </trkpt>
      <trkpt lat="46.2017" lon="6.48231">
        <ele>1345</ele>
        <time>2012-07-14T11:12:31Z</time>
      </trkpt>
      <trkpt lat="46.20179" lon="6.48225">
        <ele>1345</ele>
        <time>2012-07-14T11:12:33Z</time>
      </trkpt>
      <trkpt lat="46.20185" lon="6.48208">
        <ele>1350</ele>
        <time>2012-07-14T11:12:36Z</time>
      </trkpt>
      <trkpt lat="46.20187" lon="6.48192">
        <ele>1350</ele>
        <time>2012-07-14T11:12:38Z</time>
      </trkpt>
      <trkpt lat="46.20191" lon="6.48177">
        <ele>1350</ele>
        <time>2012-07-14T11:12:40Z</time>
      </trkpt>
      <trkpt lat="46.20196" lon="6.48162">
        <ele>1350</ele>
        <time>2012-07-14T11:12:42Z</time>
      </trkpt>
      <trkpt lat="46.20205" lon="6.48153">
        <ele>1357</ele>
        <time>2012-07-14T11:12:44Z</time>
      </trkpt>
      <trkpt lat="46.20215" lon="6.48148">
        <ele>1357</ele>
        <time>2012-07-14T11:12:46Z</time>
      </trkpt>
      <trkpt lat="46.20225" lon="6.48144">
        <ele>1357</ele>
        <time>2012-07-14T11:12:48Z</time>
      </trkpt>
      <trkpt lat="46.20233" lon="6.48135">
        <ele>1357</ele>
        <time>2012-07-14T11:12:51Z</time>
      </trkpt>
      <trkpt lat="46.20238" lon="6.48121">
        <ele>1362</ele>
        <time>2012-07-14T11:12:55Z</time>
      </trkpt>
      <trkpt lat="46.2024" lon="6.48106">
        <ele>1362</ele>
        <time>2012-07-14T11:14:03Z</time>
      </trkpt>
      <trkpt lat="46.20243" lon="6.48091">
        <ele>1362</ele>
        <time>2012-07-14T11:14:07Z</time>
      </trkpt>
      <trkpt lat="46.2024" lon="6.48077">
        <ele>1369</ele>
        <time>2012-07-14T11:14:17Z</time>
      </trkpt>
      <trkpt lat="46.20231" lon="6.48068">
        <ele>1369</ele>
        <time>2012-07-14T11:14:20Z</time>
      </trkpt>
      <trkpt lat="46.2022" lon="6.48057">
        <ele>1369</ele>
        <time>2012-07-14T11:14:23Z</time>
      </trkpt>
      <trkpt lat="46.20213" lon="6.48049">
        <ele>1369</ele>
        <time>2012-07-14T11:14:29Z</time>
      </trkpt>
      <trkpt lat="46.20218" lon="6.48037">
        <ele>1369</ele>
        <time>2012-07-14T11:14:54Z</time>
      </trkpt>
      <trkpt lat="46.2023" lon="6.48032">
        <ele>1375</ele>
        <time>2012-07-14T11:14:57Z</time>
      </trkpt>
      <trkpt lat="46.20242" lon="6.48028">
        <ele>1375</ele>
        <time>2012-07-14T11:15:00Z</time>
      </trkpt>
      <trkpt lat="46.20253" lon="6.48024">
        <ele>1375</ele>
        <time>2012-07-14T11:15:03Z</time>
      </trkpt>
      <trkpt lat="46.20263" lon="6.48022">
        <ele>1375</ele>
        <time>2012-07-14T11:15:30Z</time>
      </trkpt>
      <trkpt lat="46.20259" lon="6.48035">
        <ele>1375</ele>
        <time>2012-07-14T11:21:15Z</time>
      </trkpt>
      <trkpt lat="46.20251" lon="6.48039">
        <ele>1375</ele>
        <time>2012-07-14T11:21:51Z</time>
      </trkpt>
      <trkpt lat="46.20243" lon="6.48046">
        <ele>1375</ele>
        <time>2012-07-14T11:21:56Z</time>
      </trkpt>
      <trkpt lat="46.20233" lon="6.48046">
        <ele>1375</ele>
        <time>2012-07-14T11:21:59Z</time>
      </trkpt>
      <trkpt lat="46.20242" lon="6.48052">
        <ele>1375</ele>
        <time>2012-07-14T11:22:19Z</time>
      </trkpt>
      <trkpt lat="46.20232" lon="6.48043">
        <ele>1375</ele>
        <time>2012-07-14T11:23:37Z</time>
      </trkpt>
      <trkpt lat="46.20226" lon="6.48033">
        <ele>1375</ele>
        <time>2012-07-14T11:23:40Z</time>
      </trkpt>
      <trkpt lat="46.20237" lon="6.48027">
        <ele>1375</ele>
        <time>2012-07-14T11:23:53Z</time>
      </trkpt>
      <trkpt lat="46.20246" lon="6.48023">
        <ele>1375</ele>
        <time>2012-07-14T11:25:02Z</time>
      </trkpt>
      <trkpt lat="46.20238" lon="6.48029">
        <ele>1375</ele>
        <time>2012-07-14T11:26:11Z</time>
      </trkpt>
      <trkpt lat="46.20229" lon="6.48036">
        <ele>1375</ele>
        <time>2012-07-14T11:26:15Z</time>
      </trkpt>
      <trkpt lat="46.20218" lon="6.48038">
        <ele>1375</ele>
        <time>2012-07-14T11:26:19Z</time>
      </trkpt>
      <trkpt lat="46.20221" lon="6.48053">
        <ele>1375</ele>
        <time>2012-07-14T11:26:52Z</time>
      </trkpt>
      <trkpt lat="46.20229" lon="6.48063">
        <ele>1368</ele>
        <time>2012-07-14T11:26:56Z</time>
      </trkpt>
      <trkpt lat="46.20236" lon="6.48073">
        <ele>1368</ele>
        <time>2012-07-14T11:27:00Z</time>
      </trkpt>
      <trkpt lat="46.20245" lon="6.48073">
        <ele>1368</ele>
        <time>2012-07-14T11:27:04Z</time>
      </trkpt>
      <trkpt lat="46.20256" lon="6.48063">
        <ele>1368</ele>
        <time>2012-07-14T11:27:08Z</time>
      </trkpt>
      <trkpt lat="46.20265" lon="6.48055">
        <ele>1368</ele>
        <time>2012-07-14T11:27:11Z</time>
      </trkpt>
      <trkpt lat="46.20278" lon="6.48052">
        <ele>1368</ele>
        <time>2012-07-14T11:27:14Z</time>
      </trkpt>
      <trkpt lat="46.20288" lon="6.48045">
        <ele>1368</ele>
        <time>2012-07-14T11:27:17Z</time>
      </trkpt>
      <trkpt lat="46.20298" lon="6.48039">
        <ele>1375</ele>
        <time>2012-07-14T11:27:20Z</time>
      </trkpt>
      <trkpt lat="46.20308" lon="6.48037">
        <ele>1375</ele>
        <time>2012-07-14T11:27:23Z</time>
      </trkpt>
      <trkpt lat="46.2032" lon="6.48038">
        <ele>1375</ele>
        <time>2012-07-14T11:27:26Z</time>
      </trkpt>
      <trkpt lat="46.20331" lon="6.48041">
        <ele>1380</ele>
        <time>2012-07-14T11:27:29Z</time>
      </trkpt>
      <trkpt lat="46.20323" lon="6.48025">
        <ele>1380</ele>
        <time>2012-07-14T11:27:54Z</time>
      </trkpt>
      <trkpt lat="46.20319" lon="6.48011">
        <ele>1386</ele>
        <time>2012-07-14T11:27:56Z</time>
      </trkpt>
      <trkpt lat="46.20319" lon="6.47998">
        <ele>1386</ele>
        <time>2012-07-14T11:27:58Z</time>
      </trkpt>
      <trkpt lat="46.20323" lon="6.47982">
        <ele>1386</ele>
        <time>2012-07-14T11:28:01Z</time>
      </trkpt>
      <trkpt lat="46.20331" lon="6.47976">
        <ele>1386</ele>
        <time>2012-07-14T11:33:08Z</time>
      </trkpt>
      <trkpt lat="46.20344" lon="6.47978">
        <ele>1386</ele>
        <time>2012-07-14T11:33:11Z</time>
      </trkpt>
      <trkpt lat="46.20356" lon="6.4798">
        <ele>1386</ele>
        <time>2012-07-14T11:33:14Z</time>
      </trkpt>
      <trkpt lat="46.20367" lon="6.47978">
        <ele>1386</ele>
        <time>2012-07-14T11:33:22Z</time>
      </trkpt>
      <trkpt lat="46.20377" lon="6.47978">
        <ele>1386</ele>
        <time>2012-07-14T11:33:26Z</time>
      </trkpt>
      <trkpt lat="46.20387" lon="6.47979">
        <ele>1386</ele>
        <time>2012-07-14T11:35:10Z</time>
      </trkpt>
      <trkpt lat="46.20397" lon="6.47979">
        <ele>1386</ele>
        <time>2012-07-14T11:35:17Z</time>
      </trkpt>
      <trkpt lat="46.20408" lon="6.47976">
        <ele>1386</ele>
        <time>2012-07-14T11:35:19Z</time>
      </trkpt>
      <trkpt lat="46.20417" lon="6.47967">
        <ele>1386</ele>
        <time>2012-07-14T11:35:21Z</time>
      </trkpt>
      <trkpt lat="46.20426" lon="6.47952">
        <ele>1386</ele>
        <time>2012-07-14T11:35:23Z</time>
      </trkpt>
      <trkpt lat="46.20436" lon="6.4794">
        <ele>1386</ele>
        <time>2012-07-14T11:35:25Z</time>
      </trkpt>
      <trkpt lat="46.20451" lon="6.47933">
        <ele>1386</ele>
        <time>2012-07-14T11:35:27Z</time>
      </trkpt>
      <trkpt lat="46.20468" lon="6.47933">
        <ele>1386</ele>
        <time>2012-07-14T11:35:29Z</time>
      </trkpt>
      <trkpt lat="46.20487" lon="6.47932">
        <ele>1386</ele>
        <time>2012-07-14T11:35:31Z</time>
      </trkpt>
      <trkpt lat="46.20497" lon="6.4793">
        <ele>1386</ele>
        <time>2012-07-14T11:35:32Z</time>
      </trkpt>
      <trkpt lat="46.20508" lon="6.47928">
        <ele>1386</ele>
        <time>2012-07-14T11:35:33Z</time>
      </trkpt>
      <trkpt lat="46.20519" lon="6.47927">
        <ele>1386</ele>
        <time>2012-07-14T11:35:34Z</time>
      </trkpt>
      <trkpt lat="46.20529" lon="6.47926">
        <ele>1386</ele>
        <time>2012-07-14T11:35:35Z</time>
      </trkpt>
      <trkpt lat="46.20539" lon="6.47926">
        <ele>1386</ele>
        <time>2012-07-14T11:35:36Z</time>
      </trkpt>
      <trkpt lat="46.20548" lon="6.47926">
        <ele>1386</ele>
        <time>2012-07-14T11:35:37Z</time>
      </trkpt>
      <trkpt lat="46.20563" lon="6.47929">
        <ele>1386</ele>
        <time>2012-07-14T11:35:39Z</time>
      </trkpt>
      <trkpt lat="46.20572" lon="6.47938">
        <ele>1386</ele>
        <time>2012-07-14T11:35:41Z</time>
      </trkpt>
      <trkpt lat="46.2058" lon="6.47955">
        <ele>1386</ele>
        <time>2012-07-14T11:35:44Z</time>
      </trkpt>
      <trkpt lat="46.20585" lon="6.47976">
        <ele>1386</ele>
        <time>2012-07-14T11:35:46Z</time>
      </trkpt>
      <trkpt lat="46.20591" lon="6.48001">
        <ele>1386</ele>
        <time>2012-07-14T11:35:48Z</time>
      </trkpt>
      <trkpt lat="46.20601" lon="6.48022">
        <ele>1380</ele>
        <time>2012-07-14T11:35:50Z</time>
      </trkpt>
      <trkpt lat="46.20607" lon="6.48032">
        <ele>1380</ele>
        <time>2012-07-14T11:35:51Z</time>
      </trkpt>
      <trkpt lat="46.20615" lon="6.48041">
        <ele>1380</ele>
        <time>2012-07-14T11:35:52Z</time>
      </trkpt>
      <trkpt lat="46.20622" lon="6.48051">
        <ele>1380</ele>
        <time>2012-07-14T11:35:53Z</time>
      </trkpt>
      <trkpt lat="46.20631" lon="6.48059">
        <ele>1380</ele>
        <time>2012-07-14T11:35:54Z</time>
      </trkpt>
      <trkpt lat="46.20639" lon="6.48067">
        <ele>1375</ele>
        <time>2012-07-14T11:35:55Z</time>
      </trkpt>
      <trkpt lat="46.20647" lon="6.48075">
        <ele>1375</ele>
        <time>2012-07-14T11:35:56Z</time>
      </trkpt>
      <trkpt lat="46.20654" lon="6.48084">
        <ele>1375</ele>
        <time>2012-07-14T11:35:57Z</time>
      </trkpt>
      <trkpt lat="46.20662" lon="6.48092">
        <ele>1375</ele>
        <time>2012-07-14T11:35:58Z</time>
      </trkpt>
      <trkpt lat="46.20669" lon="6.48101">
        <ele>1370</ele>
        <time>2012-07-14T11:35:59Z</time>
      </trkpt>
      <trkpt lat="46.20683" lon="6.48118">
        <ele>1370</ele>
        <time>2012-07-14T11:36:01Z</time>
      </trkpt>
      <trkpt lat="46.20693" lon="6.4814">
        <ele>1365</ele>
        <time>2012-07-14T11:36:03Z</time>
      </trkpt>
      <trkpt lat="46.20697" lon="6.48153">
        <ele>1365</ele>
        <time>2012-07-14T11:36:04Z</time>
      </trkpt>
      <trkpt lat="46.207" lon="6.48167">
        <ele>1365</ele>
        <time>2012-07-14T11:36:05Z</time>
      </trkpt>
      <trkpt lat="46.20702" lon="6.48179">
        <ele>1365</ele>
        <time>2012-07-14T11:36:06Z</time>
      </trkpt>
      <trkpt lat="46.20705" lon="6.48193">
        <ele>1365</ele>
        <time>2012-07-14T11:36:07Z</time>
      </trkpt>
      <trkpt lat="46.20708" lon="6.48205">
        <ele>1365</ele>
        <time>2012-07-14T11:36:08Z</time>
      </trkpt>
      <trkpt lat="46.20711" lon="6.48218">
        <ele>1359</ele>
        <time>2012-07-14T11:36:09Z</time>
      </trkpt>
      <trkpt lat="46.20719" lon="6.48238">
        <ele>1359</ele>
        <time>2012-07-14T11:36:11Z</time>
      </trkpt>
      <trkpt lat="46.20727" lon="6.48252">
        <ele>1359</ele>
        <time>2012-07-14T11:36:13Z</time>
      </trkpt>
      <trkpt lat="46.20737" lon="6.48262">
        <ele>1359</ele>
        <time>2012-07-14T11:36:15Z</time>
      </trkpt>
      <trkpt lat="46.2075" lon="6.48269">
        <ele>1353</ele>
        <time>2012-07-14T11:36:17Z</time>
      </trkpt>
      <trkpt lat="46.20764" lon="6.48274">
        <ele>1353</ele>
        <time>2012-07-14T11:36:19Z</time>
      </trkpt>
      <trkpt lat="46.20779" lon="6.48276">
        <ele>1353</ele>
        <time>2012-07-14T11:36:21Z</time>
      </trkpt>
      <trkpt lat="46.20793" lon="6.48277">
        <ele>1353</ele>
        <time>2012-07-14T11:36:23Z</time>
      </trkpt>
      <trkpt lat="46.20807" lon="6.48282">
        <ele>1353</ele>
        <time>2012-07-14T11:36:25Z</time>
      </trkpt>
      <trkpt lat="46.2082" lon="6.48292">
        <ele>1353</ele>
        <time>2012-07-14T11:36:27Z</time>
      </trkpt>
      <trkpt lat="46.20829" lon="6.48309">
        <ele>1347</ele>
        <time>2012-07-14T11:36:29Z</time>
      </trkpt>
      <trkpt lat="46.20835" lon="6.48332">
        <ele>1347</ele>
        <time>2012-07-14T11:36:31Z</time>
      </trkpt>
      <trkpt lat="46.20836" lon="6.48352">
        <ele>1347</ele>
        <time>2012-07-14T11:36:33Z</time>
      </trkpt>
      <trkpt lat="46.2083" lon="6.48364">
        <ele>1347</ele>
        <time>2012-07-14T11:36:35Z</time>
      </trkpt>
      <trkpt lat="46.20815" lon="6.48367">
        <ele>1347</ele>
        <time>2012-07-14T11:36:37Z</time>
      </trkpt>
      <trkpt lat="46.20798" lon="6.48365">
        <ele>1347</ele>
        <time>2012-07-14T11:36:39Z</time>
      </trkpt>
      <trkpt lat="46.20783" lon="6.48361">
        <ele>1347</ele>
        <time>2012-07-14T11:36:41Z</time>
      </trkpt>
      <trkpt lat="46.20765" lon="6.48353">
        <ele>1341</ele>
        <time>2012-07-14T11:36:43Z</time>
      </trkpt>
      <trkpt lat="46.20756" lon="6.4835">
        <ele>1341</ele>
        <time>2012-07-14T11:36:44Z</time>
      </trkpt>
      <trkpt lat="46.20746" lon="6.48348">
        <ele>1341</ele>
        <time>2012-07-14T11:36:45Z</time>
      </trkpt>
      <trkpt lat="46.20735" lon="6.48347">
        <ele>1341</ele>
        <time>2012-07-14T11:36:46Z</time>
      </trkpt>
      <trkpt lat="46.20726" lon="6.48345">
        <ele>1335</ele>
        <time>2012-07-14T11:36:47Z</time>
      </trkpt>
      <trkpt lat="46.20709" lon="6.48344">
        <ele>1335</ele>
        <time>2012-07-14T11:36:49Z</time>
      </trkpt>
      <trkpt lat="46.20694" lon="6.48348">
        <ele>1335</ele>
        <time>2012-07-14T11:36:51Z</time>
      </trkpt>
      <trkpt lat="46.20681" lon="6.48361">
        <ele>1329</ele>
        <time>2012-07-14T11:36:53Z</time>
      </trkpt>
      <trkpt lat="46.20671" lon="6.48375">
        <ele>1329</ele>
        <time>2012-07-14T11:36:55Z</time>
      </trkpt>
      <trkpt lat="46.20665" lon="6.48388">
        <ele>1329</ele>
        <time>2012-07-14T11:36:57Z</time>
      </trkpt>
      <trkpt lat="46.20662" lon="6.48401">
        <ele>1329</ele>
        <time>2012-07-14T11:37:00Z</time>
      </trkpt>
      <trkpt lat="46.20665" lon="6.48417">
        <ele>1322</ele>
        <time>2012-07-14T11:37:04Z</time>
      </trkpt>
      <trkpt lat="46.20669" lon="6.48431">
        <ele>1322</ele>
        <time>2012-07-14T11:37:06Z</time>
      </trkpt>
      <trkpt lat="46.20674" lon="6.48444">
        <ele>1322</ele>
        <time>2012-07-14T11:37:09Z</time>
      </trkpt>
      <trkpt lat="46.20681" lon="6.48458">
        <ele>1322</ele>
        <time>2012-07-14T11:37:22Z</time>
      </trkpt>
      <trkpt lat="46.20691" lon="6.48471">
        <ele>1322</ele>
        <time>2012-07-14T11:37:24Z</time>
      </trkpt>
      <trkpt lat="46.20703" lon="6.48488">
        <ele>1322</ele>
        <time>2012-07-14T11:37:26Z</time>
      </trkpt>
      <trkpt lat="46.20717" lon="6.48504">
        <ele>1322</ele>
        <time>2012-07-14T11:37:28Z</time>
      </trkpt>
      <trkpt lat="46.2073" lon="6.48516">
        <ele>1317</ele>
        <time>2012-07-14T11:37:30Z</time>
      </trkpt>
      <trkpt lat="46.20745" lon="6.48527">
        <ele>1317</ele>
        <time>2012-07-14T11:37:32Z</time>
      </trkpt>
      <trkpt lat="46.2076" lon="6.48537">
        <ele>1317</ele>
        <time>2012-07-14T11:37:34Z</time>
      </trkpt>
      <trkpt lat="46.20775" lon="6.48543">
        <ele>1317</ele>
        <time>2012-07-14T11:37:36Z</time>
      </trkpt>
      <trkpt lat="46.2079" lon="6.48541">
        <ele>1317</ele>
        <time>2012-07-14T11:37:38Z</time>
      </trkpt>
      <trkpt lat="46.20806" lon="6.48537">
        <ele>1309</ele>
        <time>2012-07-14T11:37:40Z</time>
      </trkpt>
      <trkpt lat="46.20813" lon="6.48528">
        <ele>1309</ele>
        <time>2012-07-14T11:37:41Z</time>
      </trkpt>
      <trkpt lat="46.2082" lon="6.48518">
        <ele>1309</ele>
        <time>2012-07-14T11:37:42Z</time>
      </trkpt>
      <trkpt lat="46.20826" lon="6.48506">
        <ele>1303</ele>
        <time>2012-07-14T11:37:43Z</time>
      </trkpt>
      <trkpt lat="46.20832" lon="6.48493">
        <ele>1303</ele>
        <time>2012-07-14T11:37:44Z</time>
      </trkpt>
      <trkpt lat="46.2084" lon="6.48483">
        <ele>1303</ele>
        <time>2012-07-14T11:37:45Z</time>
      </trkpt>
      <trkpt lat="46.20849" lon="6.48475">
        <ele>1303</ele>
        <time>2012-07-14T11:37:46Z</time>
      </trkpt>
      <trkpt lat="46.20859" lon="6.48467">
        <ele>1303</ele>
        <time>2012-07-14T11:37:47Z</time>
      </trkpt>
      <trkpt lat="46.20869" lon="6.4846">
        <ele>1303</ele>
        <time>2012-07-14T11:37:48Z</time>
      </trkpt>
      <trkpt lat="46.20879" lon="6.48453">
        <ele>1303</ele>
        <time>2012-07-14T11:37:49Z</time>
      </trkpt>
      <trkpt lat="46.20889" lon="6.48445">
        <ele>1297</ele>
        <time>2012-07-14T11:37:50Z</time>
      </trkpt>
      <trkpt lat="46.20899" lon="6.4844">
        <ele>1297</ele>
        <time>2012-07-14T11:37:51Z</time>
      </trkpt>
      <trkpt lat="46.20911" lon="6.48435">
        <ele>1297</ele>
        <time>2012-07-14T11:37:52Z</time>
      </trkpt>
      <trkpt lat="46.20921" lon="6.48431">
        <ele>1297</ele>
        <time>2012-07-14T11:37:53Z</time>
      </trkpt>
      <trkpt lat="46.20934" lon="6.48428">
        <ele>1297</ele>
        <time>2012-07-14T11:37:54Z</time>
      </trkpt>
      <trkpt lat="46.20945" lon="6.48428">
        <ele>1297</ele>
        <time>2012-07-14T11:37:55Z</time>
      </trkpt>
      <trkpt lat="46.20957" lon="6.48428">
        <ele>1291</ele>
        <time>2012-07-14T11:37:56Z</time>
      </trkpt>
      <trkpt lat="46.20967" lon="6.4843">
        <ele>1291</ele>
        <time>2012-07-14T11:37:57Z</time>
      </trkpt>
      <trkpt lat="46.20978" lon="6.48431">
        <ele>1291</ele>
        <time>2012-07-14T11:37:58Z</time>
      </trkpt>
      <trkpt lat="46.20989" lon="6.48435">
        <ele>1291</ele>
        <time>2012-07-14T11:37:59Z</time>
      </trkpt>
      <trkpt lat="46.20999" lon="6.48439">
        <ele>1291</ele>
        <time>2012-07-14T11:38:00Z</time>
      </trkpt>
      <trkpt lat="46.21009" lon="6.48443">
        <ele>1291</ele>
        <time>2012-07-14T11:38:01Z</time>
      </trkpt>
      <trkpt lat="46.21027" lon="6.48448">
        <ele>1291</ele>
        <time>2012-07-14T11:38:03Z</time>
      </trkpt>
      <trkpt lat="46.21043" lon="6.48449">
        <ele>1284</ele>
        <time>2012-07-14T11:38:05Z</time>
      </trkpt>
      <trkpt lat="46.21054" lon="6.48446">
        <ele>1284</ele>
        <time>2012-07-14T11:38:07Z</time>
      </trkpt>
      <trkpt lat="46.21065" lon="6.48444">
        <ele>1278</ele>
        <time>2012-07-14T11:38:09Z</time>
      </trkpt>
      <trkpt lat="46.21075" lon="6.48444">
        <ele>1278</ele>
        <time>2012-07-14T11:38:11Z</time>
      </trkpt>
      <trkpt lat="46.21085" lon="6.48447">
        <ele>1278</ele>
        <time>2012-07-14T11:38:14Z</time>
      </trkpt>
      <trkpt lat="46.21096" lon="6.48443">
        <ele>1278</ele>
        <time>2012-07-14T11:38:18Z</time>
      </trkpt>
      <trkpt lat="46.21108" lon="6.48431">
        <ele>1272</ele>
        <time>2012-07-14T11:38:21Z</time>
      </trkpt>
      <trkpt lat="46.2112" lon="6.48426">
        <ele>1272</ele>
        <time>2012-07-14T11:38:23Z</time>
      </trkpt>
      <trkpt lat="46.21133" lon="6.48418">
        <ele>1272</ele>
        <time>2012-07-14T11:38:25Z</time>
      </trkpt>
      <trkpt lat="46.21149" lon="6.48413">
        <ele>1272</ele>
        <time>2012-07-14T11:38:27Z</time>
      </trkpt>
      <trkpt lat="46.21166" lon="6.48412">
        <ele>1272</ele>
        <time>2012-07-14T11:38:29Z</time>
      </trkpt>
      <trkpt lat="46.21183" lon="6.48412">
        <ele>1272</ele>
        <time>2012-07-14T11:38:31Z</time>
      </trkpt>
      <trkpt lat="46.21192" lon="6.48412">
        <ele>1272</ele>
        <time>2012-07-14T11:38:32Z</time>
      </trkpt>
      <trkpt lat="46.21202" lon="6.48413">
        <ele>1272</ele>
        <time>2012-07-14T11:38:33Z</time>
      </trkpt>
      <trkpt lat="46.21212" lon="6.48414">
        <ele>1272</ele>
        <time>2012-07-14T11:38:34Z</time>
      </trkpt>
      <trkpt lat="46.21229" lon="6.48415">
        <ele>1272</ele>
        <time>2012-07-14T11:38:36Z</time>
      </trkpt>
      <trkpt lat="46.21242" lon="6.48415">
        <ele>1272</ele>
        <time>2012-07-14T11:38:38Z</time>
      </trkpt>
      <trkpt lat="46.21257" lon="6.4841">
        <ele>1272</ele>
        <time>2012-07-14T11:38:40Z</time>
      </trkpt>
      <trkpt lat="46.21272" lon="6.48401">
        <ele>1272</ele>
        <time>2012-07-14T11:38:42Z</time>
      </trkpt>
      <trkpt lat="46.21288" lon="6.48392">
        <ele>1272</ele>
        <time>2012-07-14T11:38:44Z</time>
      </trkpt>
      <trkpt lat="46.21302" lon="6.48387">
        <ele>1272</ele>
        <time>2012-07-14T11:38:46Z</time>
      </trkpt>
      <trkpt lat="46.21311" lon="6.48383">
        <ele>1272</ele>
        <time>2012-07-14T11:38:48Z</time>
      </trkpt>
      <trkpt lat="46.21299" lon="6.48387">
        <ele>1272</ele>
        <time>2012-07-14T11:39:25Z</time>
      </trkpt>
      <trkpt lat="46.21289" lon="6.48391">
        <ele>1272</ele>
        <time>2012-07-14T11:39:27Z</time>
      </trkpt>
      <trkpt lat="46.21277" lon="6.48395">
        <ele>1272</ele>
        <time>2012-07-14T11:39:29Z</time>
      </trkpt>
      <trkpt lat="46.21264" lon="6.48402">
        <ele>1272</ele>
        <time>2012-07-14T11:39:31Z</time>
      </trkpt>
      <trkpt lat="46.2125" lon="6.48409">
        <ele>1272</ele>
        <time>2012-07-14T11:39:33Z</time>
      </trkpt>
      <trkpt lat="46.21236" lon="6.48413">
        <ele>1272</ele>
        <time>2012-07-14T11:39:35Z</time>
      </trkpt>
      <trkpt lat="46.21222" lon="6.48413">
        <ele>1272</ele>
        <time>2012-07-14T11:39:37Z</time>
      </trkpt>
      <trkpt lat="46.21209" lon="6.48413">
        <ele>1272</ele>
        <time>2012-07-14T11:39:39Z</time>
      </trkpt>
      <trkpt lat="46.21199" lon="6.48411">
        <ele>1272</ele>
        <time>2012-07-14T11:39:41Z</time>
      </trkpt>
      <trkpt lat="46.21189" lon="6.48411">
        <ele>1272</ele>
        <time>2012-07-14T11:39:43Z</time>
      </trkpt>
      <trkpt lat="46.21178" lon="6.48412">
        <ele>1272</ele>
        <time>2012-07-14T11:39:45Z</time>
      </trkpt>
      <trkpt lat="46.21165" lon="6.48413">
        <ele>1272</ele>
        <time>2012-07-14T11:39:47Z</time>
      </trkpt>
      <trkpt lat="46.21151" lon="6.48414">
        <ele>1272</ele>
        <time>2012-07-14T11:39:49Z</time>
      </trkpt>
      <trkpt lat="46.21138" lon="6.48417">
        <ele>1272</ele>
        <time>2012-07-14T11:39:51Z</time>
      </trkpt>
      <trkpt lat="46.21126" lon="6.48422">
        <ele>1272</ele>
        <time>2012-07-14T11:39:53Z</time>
      </trkpt>
      <trkpt lat="46.21115" lon="6.48426">
        <ele>1272</ele>
        <time>2012-07-14T11:39:55Z</time>
      </trkpt>
      <trkpt lat="46.21105" lon="6.48431">
        <ele>1272</ele>
        <time>2012-07-14T11:39:58Z</time>
      </trkpt>
      <trkpt lat="46.21095" lon="6.48437">
        <ele>1272</ele>
        <time>2012-07-14T11:40:01Z</time>
      </trkpt>
      <trkpt lat="46.21088" lon="6.48449">
        <ele>1272</ele>
        <time>2012-07-14T11:40:04Z</time>
      </trkpt>
      <trkpt lat="46.21083" lon="6.48462">
        <ele>1272</ele>
        <time>2012-07-14T11:40:07Z</time>
      </trkpt>
      <trkpt lat="46.21075" lon="6.4847">
        <ele>1272</ele>
        <time>2012-07-14T11:40:38Z</time>
      </trkpt>
      <trkpt lat="46.21065" lon="6.4847">
        <ele>1272</ele>
        <time>2012-07-14T11:40:40Z</time>
      </trkpt>
      <trkpt lat="46.2105" lon="6.48469">
        <ele>1272</ele>
        <time>2012-07-14T11:40:42Z</time>
      </trkpt>
      <trkpt lat="46.21033" lon="6.48468">
        <ele>1272</ele>
        <time>2012-07-14T11:40:44Z</time>
      </trkpt>
      <trkpt lat="46.21016" lon="6.48465">
        <ele>1272</ele>
        <time>2012-07-14T11:40:46Z</time>
      </trkpt>
      <trkpt lat="46.21007" lon="6.48464">
        <ele>1272</ele>
        <time>2012-07-14T11:40:47Z</time>
      </trkpt>
      <trkpt lat="46.20989" lon="6.48464">
        <ele>1272</ele>
        <time>2012-07-14T11:40:49Z</time>
      </trkpt>
      <trkpt lat="46.2098" lon="6.48468">
        <ele>1272</ele>
        <time>2012-07-14T11:40:50Z</time>
      </trkpt>
      <trkpt lat="46.2097" lon="6.4847">
        <ele>1272</ele>
        <time>2012-07-14T11:40:51Z</time>
      </trkpt>
      <trkpt lat="46.20961" lon="6.48475">
        <ele>1272</ele>
        <time>2012-07-14T11:40:52Z</time>
      </trkpt>
      <trkpt lat="46.20949" lon="6.48492">
        <ele>1267</ele>
        <time>2012-07-14T11:40:54Z</time>
      </trkpt>
      <trkpt lat="46.20946" lon="6.48506">
        <ele>1267</ele>
        <time>2012-07-14T11:40:55Z</time>
      </trkpt>
      <trkpt lat="46.20944" lon="6.4852">
        <ele>1267</ele>
        <time>2012-07-14T11:40:56Z</time>
      </trkpt>
      <trkpt lat="46.20945" lon="6.48533">
        <ele>1267</ele>
        <time>2012-07-14T11:40:57Z</time>
      </trkpt>
      <trkpt lat="46.20948" lon="6.48547">
        <ele>1267</ele>
        <time>2012-07-14T11:40:58Z</time>
      </trkpt>
      <trkpt lat="46.20952" lon="6.48559">
        <ele>1267</ele>
        <time>2012-07-14T11:40:59Z</time>
      </trkpt>
      <trkpt lat="46.20959" lon="6.48571">
        <ele>1267</ele>
        <time>2012-07-14T11:41:00Z</time>
      </trkpt>
      <trkpt lat="46.20965" lon="6.48583">
        <ele>1267</ele>
        <time>2012-07-14T11:41:01Z</time>
      </trkpt>
      <trkpt lat="46.20973" lon="6.48594">
        <ele>1267</ele>
        <time>2012-07-14T11:41:02Z</time>
      </trkpt>
      <trkpt lat="46.2098" lon="6.48603">
        <ele>1267</ele>
        <time>2012-07-14T11:41:03Z</time>
      </trkpt>
      <trkpt lat="46.2099" lon="6.48612">
        <ele>1267</ele>
        <time>2012-07-14T11:41:04Z</time>
      </trkpt>
      <trkpt lat="46.20999" lon="6.48621">
        <ele>1267</ele>
        <time>2012-07-14T11:41:05Z</time>
      </trkpt>
      <trkpt lat="46.21009" lon="6.48629">
        <ele>1267</ele>
        <time>2012-07-14T11:41:06Z</time>
      </trkpt>
      <trkpt lat="46.21019" lon="6.48636">
        <ele>1267</ele>
        <time>2012-07-14T11:41:07Z</time>
      </trkpt>
      <trkpt lat="46.21036" lon="6.48647">
        <ele>1267</ele>
        <time>2012-07-14T11:41:09Z</time>
      </trkpt>
      <trkpt lat="46.21045" lon="6.48654">
        <ele>1267</ele>
        <time>2012-07-14T11:41:10Z</time>
      </trkpt>
      <trkpt lat="46.21056" lon="6.48667">
        <ele>1267</ele>
        <time>2012-07-14T11:41:12Z</time>
      </trkpt>
      <trkpt lat="46.21054" lon="6.48685">
        <ele>1267</ele>
        <time>2012-07-14T11:41:14Z</time>
      </trkpt>
      <trkpt lat="46.21042" lon="6.48702">
        <ele>1260</ele>
        <time>2012-07-14T11:41:16Z</time>
      </trkpt>
      <trkpt lat="46.21032" lon="6.48714">
        <ele>1260</ele>
        <time>2012-07-14T11:41:18Z</time>
      </trkpt>
      <trkpt lat="46.21019" lon="6.48714">
        <ele>1260</ele>
        <time>2012-07-14T11:41:19Z</time>
      </trkpt>
      <trkpt lat="46.21005" lon="6.48714">
        <ele>1260</ele>
        <time>2012-07-14T11:41:20Z</time>
      </trkpt>
      <trkpt lat="46.20992" lon="6.48714">
        <ele>1260</ele>
        <time>2012-07-14T11:41:21Z</time>
      </trkpt>
      <trkpt lat="46.20977" lon="6.48716">
        <ele>1260</ele>
        <time>2012-07-14T11:41:22Z</time>
      </trkpt>
      <trkpt lat="46.20963" lon="6.48718">
        <ele>1260</ele>
        <time>2012-07-14T11:41:23Z</time>
      </trkpt>
      <trkpt lat="46.20951" lon="6.48721">
        <ele>1260</ele>
        <time>2012-07-14T11:41:24Z</time>
      </trkpt>
      <trkpt lat="46.20939" lon="6.48721">
        <ele>1260</ele>
        <time>2012-07-14T11:41:25Z</time>
      </trkpt>
      <trkpt lat="46.20927" lon="6.48724">
        <ele>1260</ele>
        <time>2012-07-14T11:41:26Z</time>
      </trkpt>
      <trkpt lat="46.20918" lon="6.48729">
        <ele>1260</ele>
        <time>2012-07-14T11:41:27Z</time>
      </trkpt>
      <trkpt lat="46.20908" lon="6.48736">
        <ele>1260</ele>
        <time>2012-07-14T11:41:28Z</time>
      </trkpt>
      <trkpt lat="46.20899" lon="6.48744">
        <ele>1260</ele>
        <time>2012-07-14T11:41:29Z</time>
      </trkpt>
      <trkpt lat="46.20889" lon="6.48754">
        <ele>1260</ele>
        <time>2012-07-14T11:41:30Z</time>
      </trkpt>
      <trkpt lat="46.20882" lon="6.48771">
        <ele>1260</ele>
        <time>2012-07-14T11:41:31Z</time>
      </trkpt>
      <trkpt lat="46.20874" lon="6.48785">
        <ele>1260</ele>
        <time>2012-07-14T11:41:32Z</time>
      </trkpt>
      <trkpt lat="46.20865" lon="6.48798">
        <ele>1260</ele>
        <time>2012-07-14T11:41:33Z</time>
      </trkpt>
      <trkpt lat="46.20858" lon="6.48813">
        <ele>1260</ele>
        <time>2012-07-14T11:41:34Z</time>
      </trkpt>
      <trkpt lat="46.20851" lon="6.48825">
        <ele>1260</ele>
        <time>2012-07-14T11:41:35Z</time>
      </trkpt>
      <trkpt lat="46.20845" lon="6.48838">
        <ele>1260</ele>
        <time>2012-07-14T11:41:36Z</time>
      </trkpt>
      <trkpt lat="46.20838" lon="6.48849">
        <ele>1260</ele>
        <time>2012-07-14T11:41:37Z</time>
      </trkpt>
      <trkpt lat="46.20827" lon="6.48865">
        <ele>1253</ele>
        <time>2012-07-14T11:41:39Z</time>
      </trkpt>
      <trkpt lat="46.20816" lon="6.48874">
        <ele>1253</ele>
        <time>2012-07-14T11:41:41Z</time>
      </trkpt>
      <trkpt lat="46.20803" lon="6.48879">
        <ele>1253</ele>
        <time>2012-07-14T11:41:43Z</time>
      </trkpt>
      <trkpt lat="46.20785" lon="6.48883">
        <ele>1246</ele>
        <time>2012-07-14T11:41:45Z</time>
      </trkpt>
      <trkpt lat="46.20775" lon="6.48886">
        <ele>1246</ele>
        <time>2012-07-14T11:41:46Z</time>
      </trkpt>
      <trkpt lat="46.20765" lon="6.48888">
        <ele>1246</ele>
        <time>2012-07-14T11:41:47Z</time>
      </trkpt>
      <trkpt lat="46.20755" lon="6.48891">
        <ele>1246</ele>
        <time>2012-07-14T11:41:48Z</time>
      </trkpt>
      <trkpt lat="46.20746" lon="6.48894">
        <ele>1240</ele>
        <time>2012-07-14T11:41:49Z</time>
      </trkpt>
      <trkpt lat="46.20736" lon="6.48896">
        <ele>1240</ele>
        <time>2012-07-14T11:41:50Z</time>
      </trkpt>
      <trkpt lat="46.20725" lon="6.48898">
        <ele>1240</ele>
        <time>2012-07-14T11:41:51Z</time>
      </trkpt>
      <trkpt lat="46.20715" lon="6.48899">
        <ele>1234</ele>
        <time>2012-07-14T11:41:52Z</time>
      </trkpt>
      <trkpt lat="46.20706" lon="6.489">
        <ele>1234</ele>
        <time>2012-07-14T11:41:53Z</time>
      </trkpt>
      <trkpt lat="46.20697" lon="6.48901">
        <ele>1234</ele>
        <time>2012-07-14T11:41:54Z</time>
      </trkpt>
      <trkpt lat="46.2068" lon="6.48904">
        <ele>1227</ele>
        <time>2012-07-14T11:41:56Z</time>
      </trkpt>
      <trkpt lat="46.20664" lon="6.48908">
        <ele>1227</ele>
        <time>2012-07-14T11:41:58Z</time>
      </trkpt>
      <trkpt lat="46.20654" lon="6.48922">
        <ele>1227</ele>
        <time>2012-07-14T11:42:00Z</time>
      </trkpt>
      <trkpt lat="46.20644" lon="6.48941">
        <ele>1221</ele>
        <time>2012-07-14T11:42:02Z</time>
      </trkpt>
      <trkpt lat="46.20636" lon="6.48963">
        <ele>1221</ele>
        <time>2012-07-14T11:42:04Z</time>
      </trkpt>
      <trkpt lat="46.20624" lon="6.48978">
        <ele>1221</ele>
        <time>2012-07-14T11:42:06Z</time>
      </trkpt>
      <trkpt lat="46.20615" lon="6.48983">
        <ele>1221</ele>
        <time>2012-07-14T11:42:07Z</time>
      </trkpt>
      <trkpt lat="46.20605" lon="6.48985">
        <ele>1221</ele>
        <time>2012-07-14T11:42:08Z</time>
      </trkpt>
      <trkpt lat="46.20594" lon="6.48986">
        <ele>1221</ele>
        <time>2012-07-14T11:42:09Z</time>
      </trkpt>
      <trkpt lat="46.20583" lon="6.48987">
        <ele>1221</ele>
        <time>2012-07-14T11:42:10Z</time>
      </trkpt>
      <trkpt lat="46.20572" lon="6.48988">
        <ele>1221</ele>
        <time>2012-07-14T11:42:11Z</time>
      </trkpt>
      <trkpt lat="46.20541" lon="6.48987">
        <ele>1221</ele>
        <time>2012-07-14T11:42:14Z</time>
      </trkpt>
      <trkpt lat="46.20532" lon="6.48981">
        <ele>1221</ele>
        <time>2012-07-14T11:42:15Z</time>
      </trkpt>
      <trkpt lat="46.20512" lon="6.48964">
        <ele>1206</ele>
        <time>2012-07-14T11:42:17Z</time>
      </trkpt>
      <trkpt lat="46.20501" lon="6.48955">
        <ele>1206</ele>
        <time>2012-07-14T11:42:18Z</time>
      </trkpt>
      <trkpt lat="46.2049" lon="6.48946">
        <ele>1206</ele>
        <time>2012-07-14T11:42:19Z</time>
      </trkpt>
      <trkpt lat="46.20479" lon="6.48937">
        <ele>1200</ele>
        <time>2012-07-14T11:42:20Z</time>
      </trkpt>
      <trkpt lat="46.2047" lon="6.48925">
        <ele>1200</ele>
        <time>2012-07-14T11:42:21Z</time>
      </trkpt>
      <trkpt lat="46.20463" lon="6.48912">
        <ele>1200</ele>
        <time>2012-07-14T11:42:22Z</time>
      </trkpt>
      <trkpt lat="46.20456" lon="6.48898">
        <ele>1193</ele>
        <time>2012-07-14T11:42:23Z</time>
      </trkpt>
      <trkpt lat="46.20448" lon="6.48886">
        <ele>1193</ele>
        <time>2012-07-14T11:42:24Z</time>
      </trkpt>
      <trkpt lat="46.20441" lon="6.48878">
        <ele>1193</ele>
        <time>2012-07-14T11:42:25Z</time>
      </trkpt>
      <trkpt lat="46.20427" lon="6.48867">
        <ele>1193</ele>
        <time>2012-07-14T11:42:27Z</time>
      </trkpt>
      <trkpt lat="46.20409" lon="6.48872">
        <ele>1186</ele>
        <time>2012-07-14T11:42:29Z</time>
      </trkpt>
      <trkpt lat="46.204" lon="6.48877">
        <ele>1186</ele>
        <time>2012-07-14T11:42:30Z</time>
      </trkpt>
      <trkpt lat="46.20392" lon="6.48883">
        <ele>1186</ele>
        <time>2012-07-14T11:42:31Z</time>
      </trkpt>
      <trkpt lat="46.20382" lon="6.4889">
        <ele>1186</ele>
        <time>2012-07-14T11:42:32Z</time>
      </trkpt>
      <trkpt lat="46.20373" lon="6.48895">
        <ele>1186</ele>
        <time>2012-07-14T11:42:33Z</time>
      </trkpt>
      <trkpt lat="46.20364" lon="6.48901">
        <ele>1186</ele>
        <time>2012-07-14T11:42:34Z</time>
      </trkpt>
      <trkpt lat="46.20348" lon="6.4891">
        <ele>1186</ele>
        <time>2012-07-14T11:42:36Z</time>
      </trkpt>
      <trkpt lat="46.20337" lon="6.48921">
        <ele>1180</ele>
        <time>2012-07-14T11:42:38Z</time>
      </trkpt>
      <trkpt lat="46.20334" lon="6.48933">
        <ele>1180</ele>
        <time>2012-07-14T11:42:40Z</time>
      </trkpt>
      <trkpt lat="46.20339" lon="6.48948">
        <ele>1180</ele>
        <time>2012-07-14T11:42:42Z</time>
      </trkpt>
      <trkpt lat="46.2035" lon="6.48954">
        <ele>1180</ele>
        <time>2012-07-14T11:42:44Z</time>
      </trkpt>
      <trkpt lat="46.20365" lon="6.48949">
        <ele>1180</ele>
        <time>2012-07-14T11:42:46Z</time>
      </trkpt>
      <trkpt lat="46.2038" lon="6.48947">
        <ele>1180</ele>
        <time>2012-07-14T11:42:48Z</time>
      </trkpt>
      <trkpt lat="46.20389" lon="6.48951">
        <ele>1175</ele>
        <time>2012-07-14T11:42:49Z</time>
      </trkpt>
      <trkpt lat="46.20399" lon="6.48957">
        <ele>1175</ele>
        <time>2012-07-14T11:42:50Z</time>
      </trkpt>
      <trkpt lat="46.20406" lon="6.48968">
        <ele>1175</ele>
        <time>2012-07-14T11:42:51Z</time>
      </trkpt>
      <trkpt lat="46.20412" lon="6.4898">
        <ele>1175</ele>
        <time>2012-07-14T11:42:52Z</time>
      </trkpt>
      <trkpt lat="46.20419" lon="6.4899">
        <ele>1175</ele>
        <time>2012-07-14T11:42:53Z</time>
      </trkpt>
      <trkpt lat="46.20433" lon="6.49005">
        <ele>1175</ele>
        <time>2012-07-14T11:42:55Z</time>
      </trkpt>
      <trkpt lat="46.2045" lon="6.49011">
        <ele>1175</ele>
        <time>2012-07-14T11:42:57Z</time>
      </trkpt>
      <trkpt lat="46.20459" lon="6.49011">
        <ele>1175</ele>
        <time>2012-07-14T11:42:58Z</time>
      </trkpt>
      <trkpt lat="46.20468" lon="6.49011">
        <ele>1175</ele>
        <time>2012-07-14T11:42:59Z</time>
      </trkpt>
      <trkpt lat="46.20487" lon="6.49019">
        <ele>1175</ele>
        <time>2012-07-14T11:43:01Z</time>
      </trkpt>
      <trkpt lat="46.20499" lon="6.49038">
        <ele>1175</ele>
        <time>2012-07-14T11:43:03Z</time>
      </trkpt>
      <trkpt lat="46.20504" lon="6.49053">
        <ele>1175</ele>
        <time>2012-07-14T11:43:04Z</time>
      </trkpt>
      <trkpt lat="46.20511" lon="6.49064">
        <ele>1168</ele>
        <time>2012-07-14T11:43:05Z</time>
      </trkpt>
      <trkpt lat="46.20518" lon="6.49076">
        <ele>1168</ele>
        <time>2012-07-14T11:43:06Z</time>
      </trkpt>
      <trkpt lat="46.20523" lon="6.49088">
        <ele>1168</ele>
        <time>2012-07-14T11:43:07Z</time>
      </trkpt>
      <trkpt lat="46.2053" lon="6.49099">
        <ele>1168</ele>
        <time>2012-07-14T11:43:08Z</time>
      </trkpt>
      <trkpt lat="46.20545" lon="6.49115">
        <ele>1168</ele>
        <time>2012-07-14T11:43:10Z</time>
      </trkpt>
      <trkpt lat="46.20553" lon="6.4912">
        <ele>1168</ele>
        <time>2012-07-14T11:43:11Z</time>
      </trkpt>
      <trkpt lat="46.20563" lon="6.49124">
        <ele>1168</ele>
        <time>2012-07-14T11:43:12Z</time>
      </trkpt>
      <trkpt lat="46.20572" lon="6.49127">
        <ele>1168</ele>
        <time>2012-07-14T11:43:13Z</time>
      </trkpt>
      <trkpt lat="46.20582" lon="6.49129">
        <ele>1163</ele>
        <time>2012-07-14T11:43:14Z</time>
      </trkpt>
      <trkpt lat="46.20593" lon="6.49128">
        <ele>1163</ele>
        <time>2012-07-14T11:43:15Z</time>
      </trkpt>
      <trkpt lat="46.20603" lon="6.49126">
        <ele>1163</ele>
        <time>2012-07-14T11:43:16Z</time>
      </trkpt>
      <trkpt lat="46.20615" lon="6.49124">
        <ele>1163</ele>
        <time>2012-07-14T11:43:17Z</time>
      </trkpt>
      <trkpt lat="46.20626" lon="6.49122">
        <ele>1163</ele>
        <time>2012-07-14T11:43:18Z</time>
      </trkpt>
      <trkpt lat="46.20637" lon="6.4912">
        <ele>1163</ele>
        <time>2012-07-14T11:43:19Z</time>
      </trkpt>
      <trkpt lat="46.20649" lon="6.49119">
        <ele>1163</ele>
        <time>2012-07-14T11:43:20Z</time>
      </trkpt>
      <trkpt lat="46.20659" lon="6.49121">
        <ele>1163</ele>
        <time>2012-07-14T11:43:21Z</time>
      </trkpt>
      <trkpt lat="46.2067" lon="6.49124">
        <ele>1163</ele>
        <time>2012-07-14T11:43:22Z</time>
      </trkpt>
      <trkpt lat="46.20679" lon="6.49126">
        <ele>1163</ele>
        <time>2012-07-14T11:43:23Z</time>
      </trkpt>
      <trkpt lat="46.20688" lon="6.49131">
        <ele>1163</ele>
        <time>2012-07-14T11:43:24Z</time>
      </trkpt>
      <trkpt lat="46.207" lon="6.49137">
        <ele>1163</ele>
        <time>2012-07-14T11:43:26Z</time>
      </trkpt>
      <trkpt lat="46.20712" lon="6.49139">
        <ele>1168</ele>
        <time>2012-07-14T11:43:28Z</time>
      </trkpt>
      <trkpt lat="46.20725" lon="6.49137">
        <ele>1168</ele>
        <time>2012-07-14T11:43:30Z</time>
      </trkpt>
      <trkpt lat="46.20735" lon="6.49134">
        <ele>1168</ele>
        <time>2012-07-14T11:43:31Z</time>
      </trkpt>
      <trkpt lat="46.20745" lon="6.49134">
        <ele>1168</ele>
        <time>2012-07-14T11:43:32Z</time>
      </trkpt>
      <trkpt lat="46.20755" lon="6.49134">
        <ele>1168</ele>
        <time>2012-07-14T11:43:33Z</time>
      </trkpt>
      <trkpt lat="46.20767" lon="6.49133">
        <ele>1168</ele>
        <time>2012-07-14T11:43:34Z</time>
      </trkpt>
      <trkpt lat="46.20776" lon="6.4913">
        <ele>1168</ele>
        <time>2012-07-14T11:43:35Z</time>
      </trkpt>
      <trkpt lat="46.20786" lon="6.4913">
        <ele>1168</ele>
        <time>2012-07-14T11:43:36Z</time>
      </trkpt>
      <trkpt lat="46.20796" lon="6.49131">
        <ele>1168</ele>
        <time>2012-07-14T11:43:37Z</time>
      </trkpt>
      <trkpt lat="46.20806" lon="6.49132">
        <ele>1168</ele>
        <time>2012-07-14T11:43:38Z</time>
      </trkpt>
      <trkpt lat="46.20817" lon="6.49133">
        <ele>1168</ele>
        <time>2012-07-14T11:43:39Z</time>
      </trkpt>
      <trkpt lat="46.20828" lon="6.49133">
        <ele>1168</ele>
        <time>2012-07-14T11:43:40Z</time>
      </trkpt>
      <trkpt lat="46.20843" lon="6.49142">
        <ele>1168</ele>
        <time>2012-07-14T11:43:42Z</time>
      </trkpt>
      <trkpt lat="46.2086" lon="6.49149">
        <ele>1159</ele>
        <time>2012-07-14T11:43:44Z</time>
      </trkpt>
      <trkpt lat="46.20869" lon="6.49152">
        <ele>1159</ele>
        <time>2012-07-14T11:43:45Z</time>
      </trkpt>
      <trkpt lat="46.20878" lon="6.49156">
        <ele>1159</ele>
        <time>2012-07-14T11:43:46Z</time>
      </trkpt>
      <trkpt lat="46.20888" lon="6.49158">
        <ele>1153</ele>
        <time>2012-07-14T11:43:47Z</time>
      </trkpt>
      <trkpt lat="46.20904" lon="6.49159">
        <ele>1146</ele>
        <time>2012-07-14T11:43:49Z</time>
      </trkpt>
      <trkpt lat="46.20921" lon="6.49155">
        <ele>1141</ele>
        <time>2012-07-14T11:43:51Z</time>
      </trkpt>
      <trkpt lat="46.20931" lon="6.49153">
        <ele>1141</ele>
        <time>2012-07-14T11:43:52Z</time>
      </trkpt>
      <trkpt lat="46.20947" lon="6.49149">
        <ele>1134</ele>
        <time>2012-07-14T11:43:54Z</time>
      </trkpt>
      <trkpt lat="46.20964" lon="6.49144">
        <ele>1134</ele>
        <time>2012-07-14T11:43:56Z</time>
      </trkpt>
      <trkpt lat="46.20981" lon="6.49136">
        <ele>1127</ele>
        <time>2012-07-14T11:43:58Z</time>
      </trkpt>
      <trkpt lat="46.20997" lon="6.49124">
        <ele>1121</ele>
        <time>2012-07-14T11:44:00Z</time>
      </trkpt>
      <trkpt lat="46.21006" lon="6.4912">
        <ele>1121</ele>
        <time>2012-07-14T11:44:01Z</time>
      </trkpt>
      <trkpt lat="46.21015" lon="6.49115">
        <ele>1121</ele>
        <time>2012-07-14T11:44:02Z</time>
      </trkpt>
      <trkpt lat="46.21031" lon="6.49104">
        <ele>1114</ele>
        <time>2012-07-14T11:44:04Z</time>
      </trkpt>
      <trkpt lat="46.2104" lon="6.49098">
        <ele>1114</ele>
        <time>2012-07-14T11:44:05Z</time>
      </trkpt>
      <trkpt lat="46.21048" lon="6.49091">
        <ele>1114</ele>
        <time>2012-07-14T11:44:06Z</time>
      </trkpt>
      <trkpt lat="46.21065" lon="6.49085">
        <ele>1114</ele>
        <time>2012-07-14T11:44:08Z</time>
      </trkpt>
      <trkpt lat="46.21074" lon="6.49085">
        <ele>1114</ele>
        <time>2012-07-14T11:44:09Z</time>
      </trkpt>
      <trkpt lat="46.21089" lon="6.49082">
        <ele>1114</ele>
        <time>2012-07-14T11:44:11Z</time>
      </trkpt>
      <trkpt lat="46.211" lon="6.49081">
        <ele>1109</ele>
        <time>2012-07-14T11:44:13Z</time>
      </trkpt>
      <trkpt lat="46.21116" lon="6.49088">
        <ele>1109</ele>
        <time>2012-07-14T11:44:15Z</time>
      </trkpt>
      <trkpt lat="46.21126" lon="6.49095">
        <ele>1109</ele>
        <time>2012-07-14T11:44:16Z</time>
      </trkpt>
      <trkpt lat="46.21134" lon="6.49101">
        <ele>1109</ele>
        <time>2012-07-14T11:44:17Z</time>
      </trkpt>
      <trkpt lat="46.21153" lon="6.49107">
        <ele>1103</ele>
        <time>2012-07-14T11:44:19Z</time>
      </trkpt>
      <trkpt lat="46.21163" lon="6.49111">
        <ele>1103</ele>
        <time>2012-07-14T11:44:20Z</time>
      </trkpt>
      <trkpt lat="46.21173" lon="6.49117">
        <ele>1103</ele>
        <time>2012-07-14T11:44:21Z</time>
      </trkpt>
      <trkpt lat="46.21181" lon="6.49123">
        <ele>1103</ele>
        <time>2012-07-14T11:44:22Z</time>
      </trkpt>
      <trkpt lat="46.2119" lon="6.49129">
        <ele>1103</ele>
        <time>2012-07-14T11:44:23Z</time>
      </trkpt>
      <trkpt lat="46.21199" lon="6.49135">
        <ele>1103</ele>
        <time>2012-07-14T11:44:24Z</time>
      </trkpt>
      <trkpt lat="46.21212" lon="6.49145">
        <ele>1103</ele>
        <time>2012-07-14T11:44:26Z</time>
      </trkpt>
      <trkpt lat="46.21221" lon="6.4914">
        <ele>1112</ele>
        <time>2012-07-14T11:44:44Z</time>
      </trkpt>
      <trkpt lat="46.21211" lon="6.49142">
        <ele>1105</ele>
        <time>2012-07-14T11:44:52Z</time>
      </trkpt>
      <trkpt lat="46.212" lon="6.49145">
        <ele>1095</ele>
        <time>2012-07-14T11:44:57Z</time>
      </trkpt>
      <trkpt lat="46.21191" lon="6.4915">
        <ele>1089</ele>
        <time>2012-07-14T11:45:02Z</time>
      </trkpt>
      <trkpt lat="46.21182" lon="6.49152">
        <ele>1083</ele>
        <time>2012-07-14T11:45:08Z</time>
      </trkpt>
      <trkpt lat="46.21173" lon="6.49161">
        <ele>1083</ele>
        <time>2012-07-14T11:45:12Z</time>
      </trkpt>
      <trkpt lat="46.21164" lon="6.49168">
        <ele>1083</ele>
        <time>2012-07-14T11:45:21Z</time>
      </trkpt>
      <trkpt lat="46.21154" lon="6.49168">
        <ele>1077</ele>
        <time>2012-07-14T11:45:29Z</time>
      </trkpt>
      <trkpt lat="46.21145" lon="6.49172">
        <ele>1077</ele>
        <time>2012-07-14T11:45:33Z</time>
      </trkpt>
      <trkpt lat="46.21135" lon="6.49177">
        <ele>1077</ele>
        <time>2012-07-14T11:45:36Z</time>
      </trkpt>
      <trkpt lat="46.21126" lon="6.49182">
        <ele>1077</ele>
        <time>2012-07-14T11:45:39Z</time>
      </trkpt>
      <trkpt lat="46.21118" lon="6.49189">
        <ele>1069</ele>
        <time>2012-07-14T11:45:43Z</time>
      </trkpt>
      <trkpt lat="46.2112" lon="6.49204">
        <ele>1078</ele>
        <time>2012-07-14T11:45:46Z</time>
      </trkpt>
      <trkpt lat="46.21118" lon="6.4922">
        <ele>1084</ele>
        <time>2012-07-14T11:45:49Z</time>
      </trkpt>
      <trkpt lat="46.21116" lon="6.49233">
        <ele>1089</ele>
        <time>2012-07-14T11:45:51Z</time>
      </trkpt>
      <trkpt lat="46.21109" lon="6.49244">
        <ele>1089</ele>
        <time>2012-07-14T11:45:54Z</time>
      </trkpt>
      <trkpt lat="46.21107" lon="6.4923">
        <ele>1089</ele>
        <time>2012-07-14T11:46:31Z</time>
      </trkpt>
      <trkpt lat="46.21098" lon="6.49225">
        <ele>1083</ele>
        <time>2012-07-14T11:46:38Z</time>
      </trkpt>
      <trkpt lat="46.2109" lon="6.49215">
        <ele>1062</ele>
        <time>2012-07-14T11:46:53Z</time>
      </trkpt>
      <trkpt lat="46.21091" lon="6.49229">
        <ele>1062</ele>
        <time>2012-07-14T11:47:14Z</time>
      </trkpt>
      <trkpt lat="46.21088" lon="6.49243">
        <ele>1062</ele>
        <time>2012-07-14T11:47:18Z</time>
      </trkpt>
      <trkpt lat="46.21093" lon="6.49258">
        <ele>1062</ele>
        <time>2012-07-14T11:47:23Z</time>
      </trkpt>
      <trkpt lat="46.21091" lon="6.49276">
        <ele>1071</ele>
        <time>2012-07-14T11:47:26Z</time>
      </trkpt>
      <trkpt lat="46.21085" lon="6.49291">
        <ele>1071</ele>
        <time>2012-07-14T11:47:29Z</time>
      </trkpt>
      <trkpt lat="46.2108" lon="6.49304">
        <ele>1071</ele>
        <time>2012-07-14T11:47:32Z</time>
      </trkpt>
      <trkpt lat="46.21075" lon="6.49315">
        <ele>1071</ele>
        <time>2012-07-14T11:47:35Z</time>
      </trkpt>
      <trkpt lat="46.21065" lon="6.49318">
        <ele>1064</ele>
        <time>2012-07-14T11:47:45Z</time>
      </trkpt>
      <trkpt lat="46.21056" lon="6.49328">
        <ele>1072</ele>
        <time>2012-07-14T11:47:47Z</time>
      </trkpt>
      <trkpt lat="46.21042" lon="6.49333">
        <ele>1072</ele>
        <time>2012-07-14T11:47:49Z</time>
      </trkpt>
      <trkpt lat="46.21029" lon="6.49338">
        <ele>1072</ele>
        <time>2012-07-14T11:47:51Z</time>
      </trkpt>
      <trkpt lat="46.21019" lon="6.49335">
        <ele>1072</ele>
        <time>2012-07-14T11:47:52Z</time>
      </trkpt>
      <trkpt lat="46.2101" lon="6.49332">
        <ele>1072</ele>
        <time>2012-07-14T11:47:53Z</time>
      </trkpt>
      <trkpt lat="46.21" lon="6.49329">
        <ele>1072</ele>
        <time>2012-07-14T11:47:54Z</time>
      </trkpt>
      <trkpt lat="46.20991" lon="6.49327">
        <ele>1072</ele>
        <time>2012-07-14T11:47:55Z</time>
      </trkpt>
      <trkpt lat="46.20971" lon="6.49323">
        <ele>1072</ele>
        <time>2012-07-14T11:47:57Z</time>
      </trkpt>
      <trkpt lat="46.2096" lon="6.49318">
        <ele>1078</ele>
        <time>2012-07-14T11:47:58Z</time>
      </trkpt>
      <trkpt lat="46.20949" lon="6.49315">
        <ele>1078</ele>
        <time>2012-07-14T11:47:59Z</time>
      </trkpt>
      <trkpt lat="46.20937" lon="6.49313">
        <ele>1078</ele>
        <time>2012-07-14T11:48:00Z</time>
      </trkpt>
      <trkpt lat="46.20926" lon="6.4931">
        <ele>1078</ele>
        <time>2012-07-14T11:48:01Z</time>
      </trkpt>
      <trkpt lat="46.20914" lon="6.49304">
        <ele>1078</ele>
        <time>2012-07-14T11:48:02Z</time>
      </trkpt>
      <trkpt lat="46.20904" lon="6.49301">
        <ele>1078</ele>
        <time>2012-07-14T11:48:03Z</time>
      </trkpt>
      <trkpt lat="46.20894" lon="6.49297">
        <ele>1078</ele>
        <time>2012-07-14T11:48:04Z</time>
      </trkpt>
      <trkpt lat="46.20884" lon="6.49292">
        <ele>1071</ele>
        <time>2012-07-14T11:48:05Z</time>
      </trkpt>
      <trkpt lat="46.20875" lon="6.49288">
        <ele>1071</ele>
        <time>2012-07-14T11:48:06Z</time>
      </trkpt>
      <trkpt lat="46.20864" lon="6.49283">
        <ele>1071</ele>
        <time>2012-07-14T11:48:07Z</time>
      </trkpt>
      <trkpt lat="46.20852" lon="6.4928">
        <ele>1071</ele>
        <time>2012-07-14T11:48:08Z</time>
      </trkpt>
      <trkpt lat="46.20841" lon="6.49276">
        <ele>1071</ele>
        <time>2012-07-14T11:48:09Z</time>
      </trkpt>
      <trkpt lat="46.2083" lon="6.49274">
        <ele>1071</ele>
        <time>2012-07-14T11:48:10Z</time>
      </trkpt>
      <trkpt lat="46.2082" lon="6.49271">
        <ele>1071</ele>
        <time>2012-07-14T11:48:11Z</time>
      </trkpt>
      <trkpt lat="46.20809" lon="6.49268">
        <ele>1071</ele>
        <time>2012-07-14T11:48:12Z</time>
      </trkpt>
      <trkpt lat="46.20797" lon="6.49264">
        <ele>1071</ele>
        <time>2012-07-14T11:48:13Z</time>
      </trkpt>
      <trkpt lat="46.20788" lon="6.49258">
        <ele>1077</ele>
        <time>2012-07-14T11:48:14Z</time>
      </trkpt>
      <trkpt lat="46.20778" lon="6.49253">
        <ele>1077</ele>
        <time>2012-07-14T11:48:15Z</time>
      </trkpt>
      <trkpt lat="46.20768" lon="6.49251">
        <ele>1077</ele>
        <time>2012-07-14T11:48:16Z</time>
      </trkpt>
      <trkpt lat="46.20752" lon="6.49252">
        <ele>1077</ele>
        <time>2012-07-14T11:48:18Z</time>
      </trkpt>
      <trkpt lat="46.20738" lon="6.49265">
        <ele>1084</ele>
        <time>2012-07-14T11:48:20Z</time>
      </trkpt>
      <trkpt lat="46.20722" lon="6.49276">
        <ele>1084</ele>
        <time>2012-07-14T11:48:22Z</time>
      </trkpt>
      <trkpt lat="46.20709" lon="6.49283">
        <ele>1084</ele>
        <time>2012-07-14T11:48:24Z</time>
      </trkpt>
      <trkpt lat="46.20699" lon="6.49283">
        <ele>1084</ele>
        <time>2012-07-14T11:48:26Z</time>
      </trkpt>
      <trkpt lat="46.20689" lon="6.49283">
        <ele>1084</ele>
        <time>2012-07-14T11:48:29Z</time>
      </trkpt>
      <trkpt lat="46.20679" lon="6.49289">
        <ele>1092</ele>
        <time>2012-07-14T11:48:45Z</time>
      </trkpt>
      <trkpt lat="46.20669" lon="6.49292">
        <ele>1092</ele>
        <time>2012-07-14T11:48:54Z</time>
      </trkpt>
      <trkpt lat="46.20679" lon="6.49292">
        <ele>1099</ele>
        <time>2012-07-14T11:49:12Z</time>
      </trkpt>
      <trkpt lat="46.20693" lon="6.4929">
        <ele>1099</ele>
        <time>2012-07-14T11:49:14Z</time>
      </trkpt>
      <trkpt lat="46.20705" lon="6.49288">
        <ele>1099</ele>
        <time>2012-07-14T11:49:16Z</time>
      </trkpt>
      <trkpt lat="46.20715" lon="6.49283">
        <ele>1099</ele>
        <time>2012-07-14T11:49:18Z</time>
      </trkpt>
      <trkpt lat="46.20727" lon="6.49277">
        <ele>1092</ele>
        <time>2012-07-14T11:49:20Z</time>
      </trkpt>
      <trkpt lat="46.2074" lon="6.4927">
        <ele>1092</ele>
        <time>2012-07-14T11:49:22Z</time>
      </trkpt>
      <trkpt lat="46.20753" lon="6.4926">
        <ele>1092</ele>
        <time>2012-07-14T11:49:24Z</time>
      </trkpt>
      <trkpt lat="46.20767" lon="6.49256">
        <ele>1092</ele>
        <time>2012-07-14T11:49:26Z</time>
      </trkpt>
      <trkpt lat="46.20783" lon="6.4926">
        <ele>1087</ele>
        <time>2012-07-14T11:49:28Z</time>
      </trkpt>
      <trkpt lat="46.20799" lon="6.49265">
        <ele>1087</ele>
        <time>2012-07-14T11:49:30Z</time>
      </trkpt>
      <trkpt lat="46.20817" lon="6.49269">
        <ele>1082</ele>
        <time>2012-07-14T11:49:32Z</time>
      </trkpt>
      <trkpt lat="46.20826" lon="6.49271">
        <ele>1082</ele>
        <time>2012-07-14T11:49:33Z</time>
      </trkpt>
      <trkpt lat="46.20836" lon="6.49274">
        <ele>1082</ele>
        <time>2012-07-14T11:49:34Z</time>
      </trkpt>
      <trkpt lat="46.20846" lon="6.49278">
        <ele>1082</ele>
        <time>2012-07-14T11:49:35Z</time>
      </trkpt>
      <trkpt lat="46.20855" lon="6.49282">
        <ele>1082</ele>
        <time>2012-07-14T11:49:36Z</time>
      </trkpt>
      <trkpt lat="46.20864" lon="6.49285">
        <ele>1082</ele>
        <time>2012-07-14T11:49:37Z</time>
      </trkpt>
      <trkpt lat="46.20881" lon="6.49292">
        <ele>1082</ele>
        <time>2012-07-14T11:49:39Z</time>
      </trkpt>
      <trkpt lat="46.20896" lon="6.49298">
        <ele>1075</ele>
        <time>2012-07-14T11:49:41Z</time>
      </trkpt>
      <trkpt lat="46.20905" lon="6.49301">
        <ele>1075</ele>
        <time>2012-07-14T11:49:43Z</time>
      </trkpt>
      <trkpt lat="46.20917" lon="6.49301">
        <ele>1075</ele>
        <time>2012-07-14T11:49:46Z</time>
      </trkpt>
      <trkpt lat="46.20927" lon="6.49301">
        <ele>1069</ele>
        <time>2012-07-14T11:49:48Z</time>
      </trkpt>
      <trkpt lat="46.20936" lon="6.49302">
        <ele>1069</ele>
        <time>2012-07-14T11:49:50Z</time>
      </trkpt>
      <trkpt lat="46.20949" lon="6.49306">
        <ele>1063</ele>
        <time>2012-07-14T11:49:53Z</time>
      </trkpt>
      <trkpt lat="46.20961" lon="6.49309">
        <ele>1063</ele>
        <time>2012-07-14T11:49:55Z</time>
      </trkpt>
      <trkpt lat="46.20975" lon="6.49312">
        <ele>1063</ele>
        <time>2012-07-14T11:49:57Z</time>
      </trkpt>
      <trkpt lat="46.2099" lon="6.49315">
        <ele>1056</ele>
        <time>2012-07-14T11:49:59Z</time>
      </trkpt>
      <trkpt lat="46.21003" lon="6.4932">
        <ele>1056</ele>
        <time>2012-07-14T11:50:01Z</time>
      </trkpt>
      <trkpt lat="46.21016" lon="6.49325">
        <ele>1056</ele>
        <time>2012-07-14T11:50:03Z</time>
      </trkpt>
      <trkpt lat="46.21028" lon="6.49329">
        <ele>1056</ele>
        <time>2012-07-14T11:50:05Z</time>
      </trkpt>
      <trkpt lat="46.21038" lon="6.49333">
        <ele>1056</ele>
        <time>2012-07-14T11:50:07Z</time>
      </trkpt>
      <trkpt lat="46.21051" lon="6.49331">
        <ele>1056</ele>
        <time>2012-07-14T11:50:10Z</time>
      </trkpt>
      <trkpt lat="46.21063" lon="6.49329">
        <ele>1056</ele>
        <time>2012-07-14T11:50:13Z</time>
      </trkpt>
      <trkpt lat="46.21073" lon="6.49325">
        <ele>1056</ele>
        <time>2012-07-14T11:50:16Z</time>
      </trkpt>
      <trkpt lat="46.21083" lon="6.4932">
        <ele>1056</ele>
        <time>2012-07-14T11:50:19Z</time>
      </trkpt>
      <trkpt lat="46.21093" lon="6.4931">
        <ele>1062</ele>
        <time>2012-07-14T11:50:22Z</time>
      </trkpt>
      <trkpt lat="46.21101" lon="6.493">
        <ele>1062</ele>
        <time>2012-07-14T11:50:26Z</time>
      </trkpt>
      <trkpt lat="46.21106" lon="6.49315">
        <ele>1062</ele>
        <time>2012-07-14T11:50:31Z</time>
      </trkpt>
      <trkpt lat="46.21108" lon="6.49331">
        <ele>1056</ele>
        <time>2012-07-14T11:50:34Z</time>
      </trkpt>
      <trkpt lat="46.21098" lon="6.49345">
        <ele>1056</ele>
        <time>2012-07-14T11:50:36Z</time>
      </trkpt>
      <trkpt lat="46.21088" lon="6.49361">
        <ele>1045</ele>
        <time>2012-07-14T11:50:38Z</time>
      </trkpt>
      <trkpt lat="46.21077" lon="6.4937">
        <ele>1045</ele>
        <time>2012-07-14T11:50:40Z</time>
      </trkpt>
      <trkpt lat="46.2107" lon="6.49379">
        <ele>1045</ele>
        <time>2012-07-14T11:50:42Z</time>
      </trkpt>
      <trkpt lat="46.21062" lon="6.4939">
        <ele>1045</ele>
        <time>2012-07-14T11:50:45Z</time>
      </trkpt>
      <trkpt lat="46.21053" lon="6.49401">
        <ele>1037</ele>
        <time>2012-07-14T11:50:47Z</time>
      </trkpt>
      <trkpt lat="46.21043" lon="6.49409">
        <ele>1037</ele>
        <time>2012-07-14T11:50:49Z</time>
      </trkpt>
      <trkpt lat="46.21033" lon="6.49417">
        <ele>1031</ele>
        <time>2012-07-14T11:50:52Z</time>
      </trkpt>
      <trkpt lat="46.21025" lon="6.49425">
        <ele>1031</ele>
        <time>2012-07-14T11:50:55Z</time>
      </trkpt>
      <trkpt lat="46.21014" lon="6.49431">
        <ele>1031</ele>
        <time>2012-07-14T11:50:58Z</time>
      </trkpt>
      <trkpt lat="46.21004" lon="6.49437">
        <ele>1025</ele>
        <time>2012-07-14T11:51:00Z</time>
      </trkpt>
      <trkpt lat="46.20995" lon="6.49442">
        <ele>1025</ele>
        <time>2012-07-14T11:51:02Z</time>
      </trkpt>
      <trkpt lat="46.2098" lon="6.49444">
        <ele>1025</ele>
        <time>2012-07-14T11:51:04Z</time>
      </trkpt>
      <trkpt lat="46.2097" lon="6.49448">
        <ele>1025</ele>
        <time>2012-07-14T11:51:06Z</time>
      </trkpt>
      <trkpt lat="46.20959" lon="6.49455">
        <ele>1025</ele>
        <time>2012-07-14T11:51:09Z</time>
      </trkpt>
      <trkpt lat="46.2095" lon="6.49458">
        <ele>1025</ele>
        <time>2012-07-14T11:51:11Z</time>
      </trkpt>
      <trkpt lat="46.20938" lon="6.49457">
        <ele>1025</ele>
        <time>2012-07-14T11:51:14Z</time>
      </trkpt>
      <trkpt lat="46.20927" lon="6.49454">
        <ele>1025</ele>
        <time>2012-07-14T11:51:16Z</time>
      </trkpt>
      <trkpt lat="46.20917" lon="6.49457">
        <ele>1032</ele>
        <time>2012-07-14T11:51:19Z</time>
      </trkpt>
      <trkpt lat="46.20907" lon="6.49469">
        <ele>1047</ele>
        <time>2012-07-14T11:51:36Z</time>
      </trkpt>
      <trkpt lat="46.20899" lon="6.49476">
        <ele>1041</ele>
        <time>2012-07-14T11:51:39Z</time>
      </trkpt>
      <trkpt lat="46.20886" lon="6.49481">
        <ele>1028</ele>
        <time>2012-07-14T11:51:42Z</time>
      </trkpt>
      <trkpt lat="46.20878" lon="6.49487">
        <ele>1015</ele>
        <time>2012-07-14T11:51:45Z</time>
      </trkpt>
      <trkpt lat="46.2087" lon="6.49498">
        <ele>1006</ele>
        <time>2012-07-14T11:51:48Z</time>
      </trkpt>
      <trkpt lat="46.20858" lon="6.49508">
        <ele>998</ele>
        <time>2012-07-14T11:51:51Z</time>
      </trkpt>
      <trkpt lat="46.2085" lon="6.49514">
        <ele>993</ele>
        <time>2012-07-14T11:51:53Z</time>
      </trkpt>
      <trkpt lat="46.20838" lon="6.4952">
        <ele>993</ele>
        <time>2012-07-14T11:51:56Z</time>
      </trkpt>
      <trkpt lat="46.20826" lon="6.49521">
        <ele>986</ele>
        <time>2012-07-14T11:51:59Z</time>
      </trkpt>
      <trkpt lat="46.20814" lon="6.49522">
        <ele>986</ele>
        <time>2012-07-14T11:52:02Z</time>
      </trkpt>
      <trkpt lat="46.20804" lon="6.49522">
        <ele>986</ele>
        <time>2012-07-14T11:52:04Z</time>
      </trkpt>
      <trkpt lat="46.20786" lon="6.49521">
        <ele>986</ele>
        <time>2012-07-14T11:52:08Z</time>
      </trkpt>
      <trkpt lat="46.20778" lon="6.49524">
        <ele>981</ele>
        <time>2012-07-14T11:52:10Z</time>
      </trkpt>
      <trkpt lat="46.20768" lon="6.4953">
        <ele>981</ele>
        <time>2012-07-14T11:52:12Z</time>
      </trkpt>
      <trkpt lat="46.20761" lon="6.49538">
        <ele>991</ele>
        <time>2012-07-14T11:52:15Z</time>
      </trkpt>
      <trkpt lat="46.20752" lon="6.49531">
        <ele>999</ele>
        <time>2012-07-14T11:52:19Z</time>
      </trkpt>
      <trkpt lat="46.20745" lon="6.49522">
        <ele>1005</ele>
        <time>2012-07-14T11:52:23Z</time>
      </trkpt>
      <trkpt lat="46.20733" lon="6.49522">
        <ele>1005</ele>
        <time>2012-07-14T11:52:26Z</time>
      </trkpt>
      <trkpt lat="46.20726" lon="6.49531">
        <ele>1013</ele>
        <time>2012-07-14T11:52:29Z</time>
      </trkpt>
      <trkpt lat="46.20715" lon="6.49541">
        <ele>1013</ele>
        <time>2012-07-14T11:52:33Z</time>
      </trkpt>
      <trkpt lat="46.2071" lon="6.49553">
        <ele>1013</ele>
        <time>2012-07-14T11:52:36Z</time>
      </trkpt>
      <trkpt lat="46.20702" lon="6.49563">
        <ele>1013</ele>
        <time>2012-07-14T11:52:39Z</time>
      </trkpt>
      <trkpt lat="46.20694" lon="6.49575">
        <ele>1007</ele>
        <time>2012-07-14T11:52:42Z</time>
      </trkpt>
      <trkpt lat="46.20686" lon="6.49581">
        <ele>1007</ele>
        <time>2012-07-14T11:52:44Z</time>
      </trkpt>
      <trkpt lat="46.20678" lon="6.49587">
        <ele>1000</ele>
        <time>2012-07-14T11:52:46Z</time>
      </trkpt>
      <trkpt lat="46.20667" lon="6.49596">
        <ele>1000</ele>
        <time>2012-07-14T11:52:49Z</time>
      </trkpt>
      <trkpt lat="46.20661" lon="6.4961">
        <ele>979</ele>
        <time>2012-07-14T11:53:05Z</time>
      </trkpt>
      <trkpt lat="46.20655" lon="6.49621">
        <ele>974</ele>
        <time>2012-07-14T11:53:08Z</time>
      </trkpt>
      <trkpt lat="46.20647" lon="6.49629">
        <ele>969</ele>
        <time>2012-07-14T11:53:11Z</time>
      </trkpt>
      <trkpt lat="46.20636" lon="6.49628">
        <ele>963</ele>
        <time>2012-07-14T11:53:17Z</time>
      </trkpt>
      <trkpt lat="46.20627" lon="6.49634">
        <ele>963</ele>
        <time>2012-07-14T11:53:21Z</time>
      </trkpt>
      <trkpt lat="46.20617" lon="6.49638">
        <ele>963</ele>
        <time>2012-07-14T11:53:25Z</time>
      </trkpt>
      <trkpt lat="46.20608" lon="6.49637">
        <ele>953</ele>
        <time>2012-07-14T11:53:31Z</time>
      </trkpt>
      <trkpt lat="46.20598" lon="6.49634">
        <ele>945</ele>
        <time>2012-07-14T11:53:35Z</time>
      </trkpt>
      <trkpt lat="46.20584" lon="6.4964">
        <ele>945</ele>
        <time>2012-07-14T11:53:38Z</time>
      </trkpt>
      <trkpt lat="46.20576" lon="6.49646">
        <ele>945</ele>
        <time>2012-07-14T11:53:42Z</time>
      </trkpt>
      <trkpt lat="46.20566" lon="6.49644">
        <ele>938</ele>
        <time>2012-07-14T11:53:47Z</time>
      </trkpt>
      <trkpt lat="46.20554" lon="6.49641">
        <ele>932</ele>
        <time>2012-07-14T11:53:49Z</time>
      </trkpt>
      <trkpt lat="46.2054" lon="6.4964">
        <ele>932</ele>
        <time>2012-07-14T11:53:51Z</time>
      </trkpt>
      <trkpt lat="46.20525" lon="6.49644">
        <ele>932</ele>
        <time>2012-07-14T11:53:53Z</time>
      </trkpt>
      <trkpt lat="46.20515" lon="6.49645">
        <ele>927</ele>
        <time>2012-07-14T11:53:54Z</time>
      </trkpt>
      <trkpt lat="46.20505" lon="6.49644">
        <ele>927</ele>
        <time>2012-07-14T11:53:55Z</time>
      </trkpt>
      <trkpt lat="46.20494" lon="6.49645">
        <ele>919</ele>
        <time>2012-07-14T11:53:56Z</time>
      </trkpt>
      <trkpt lat="46.20485" lon="6.49648">
        <ele>919</ele>
        <time>2012-07-14T11:53:57Z</time>
      </trkpt>
      <trkpt lat="46.20475" lon="6.49651">
        <ele>919</ele>
        <time>2012-07-14T11:53:58Z</time>
      </trkpt>
      <trkpt lat="46.20466" lon="6.49654">
        <ele>919</ele>
        <time>2012-07-14T11:53:59Z</time>
      </trkpt>
      <trkpt lat="46.20448" lon="6.49657">
        <ele>919</ele>
        <time>2012-07-14T11:54:01Z</time>
      </trkpt>
      <trkpt lat="46.20432" lon="6.49656">
        <ele>919</ele>
        <time>2012-07-14T11:54:03Z</time>
      </trkpt>
      <trkpt lat="46.2042" lon="6.49652">
        <ele>919</ele>
        <time>2012-07-14T11:54:05Z</time>
      </trkpt>
      <trkpt lat="46.20411" lon="6.49651">
        <ele>919</ele>
        <time>2012-07-14T11:54:07Z</time>
      </trkpt>
      <trkpt lat="46.20404" lon="6.49663">
        <ele>919</ele>
        <time>2012-07-14T11:54:10Z</time>
      </trkpt>
      <trkpt lat="46.20397" lon="6.49678">
        <ele>919</ele>
        <time>2012-07-14T11:54:13Z</time>
      </trkpt>
      <trkpt lat="46.20384" lon="6.49681">
        <ele>919</ele>
        <time>2012-07-14T11:54:15Z</time>
      </trkpt>
      <trkpt lat="46.2037" lon="6.49679">
        <ele>919</ele>
        <time>2012-07-14T11:54:17Z</time>
      </trkpt>
      <trkpt lat="46.20357" lon="6.49678">
        <ele>919</ele>
        <time>2012-07-14T11:54:19Z</time>
      </trkpt>
      <trkpt lat="46.20344" lon="6.49675">
        <ele>919</ele>
        <time>2012-07-14T11:54:21Z</time>
      </trkpt>
      <trkpt lat="46.20332" lon="6.49675">
        <ele>919</ele>
        <time>2012-07-14T11:54:23Z</time>
      </trkpt>
      <trkpt lat="46.20322" lon="6.4968">
        <ele>919</ele>
        <time>2012-07-14T11:54:25Z</time>
      </trkpt>
      <trkpt lat="46.20321" lon="6.49698">
        <ele>919</ele>
        <time>2012-07-14T11:54:28Z</time>
      </trkpt>
      <trkpt lat="46.2033" lon="6.49715">
        <ele>919</ele>
        <time>2012-07-14T11:54:30Z</time>
      </trkpt>
      <trkpt lat="46.20344" lon="6.49725">
        <ele>913</ele>
        <time>2012-07-14T11:54:32Z</time>
      </trkpt>
      <trkpt lat="46.20359" lon="6.49731">
        <ele>913</ele>
        <time>2012-07-14T11:54:34Z</time>
      </trkpt>
      <trkpt lat="46.2037" lon="6.49738">
        <ele>913</ele>
        <time>2012-07-14T11:54:36Z</time>
      </trkpt>
      <trkpt lat="46.20374" lon="6.49751">
        <ele>913</ele>
        <time>2012-07-14T11:54:38Z</time>
      </trkpt>
      <trkpt lat="46.20366" lon="6.49762">
        <ele>907</ele>
        <time>2012-07-14T11:54:40Z</time>
      </trkpt>
      <trkpt lat="46.20352" lon="6.4977">
        <ele>907</ele>
        <time>2012-07-14T11:54:42Z</time>
      </trkpt>
      <trkpt lat="46.20337" lon="6.49779">
        <ele>900</ele>
        <time>2012-07-14T11:54:44Z</time>
      </trkpt>
      <trkpt lat="46.20322" lon="6.49789">
        <ele>900</ele>
        <time>2012-07-14T11:54:46Z</time>
      </trkpt>
      <trkpt lat="46.20309" lon="6.49798">
        <ele>900</ele>
        <time>2012-07-14T11:54:48Z</time>
      </trkpt>
      <trkpt lat="46.20296" lon="6.49807">
        <ele>895</ele>
        <time>2012-07-14T11:54:50Z</time>
      </trkpt>
      <trkpt lat="46.20281" lon="6.49816">
        <ele>895</ele>
        <time>2012-07-14T11:54:52Z</time>
      </trkpt>
      <trkpt lat="46.20264" lon="6.49823">
        <ele>895</ele>
        <time>2012-07-14T11:54:54Z</time>
      </trkpt>
      <trkpt lat="46.20248" lon="6.49827">
        <ele>895</ele>
        <time>2012-07-14T11:54:56Z</time>
      </trkpt>
      <trkpt lat="46.20234" lon="6.49831">
        <ele>895</ele>
        <time>2012-07-14T11:54:58Z</time>
      </trkpt>
      <trkpt lat="46.20221" lon="6.49836">
        <ele>888</ele>
        <time>2012-07-14T11:55:00Z</time>
      </trkpt>
      <trkpt lat="46.2021" lon="6.49844">
        <ele>888</ele>
        <time>2012-07-14T11:55:02Z</time>
      </trkpt>
      <trkpt lat="46.20201" lon="6.49853">
        <ele>888</ele>
        <time>2012-07-14T11:55:04Z</time>
      </trkpt>
      <trkpt lat="46.20191" lon="6.49862">
        <ele>888</ele>
        <time>2012-07-14T11:55:07Z</time>
      </trkpt>
      <trkpt lat="46.2018" lon="6.49869">
        <ele>888</ele>
        <time>2012-07-14T11:56:33Z</time>
      </trkpt>
      <trkpt lat="46.20166" lon="6.49865">
        <ele>888</ele>
        <time>2012-07-14T11:56:35Z</time>
      </trkpt>
      <trkpt lat="46.20149" lon="6.49858">
        <ele>888</ele>
        <time>2012-07-14T11:56:37Z</time>
      </trkpt>
      <trkpt lat="46.2014" lon="6.49855">
        <ele>888</ele>
        <time>2012-07-14T11:56:38Z</time>
      </trkpt>
      <trkpt lat="46.2013" lon="6.49851">
        <ele>888</ele>
        <time>2012-07-14T11:56:39Z</time>
      </trkpt>
      <trkpt lat="46.2012" lon="6.49848">
        <ele>888</ele>
        <time>2012-07-14T11:56:40Z</time>
      </trkpt>
      <trkpt lat="46.2011" lon="6.49845">
        <ele>888</ele>
        <time>2012-07-14T11:56:41Z</time>
      </trkpt>
      <trkpt lat="46.201" lon="6.49841">
        <ele>888</ele>
        <time>2012-07-14T11:56:42Z</time>
      </trkpt>
      <trkpt lat="46.2009" lon="6.49839">
        <ele>888</ele>
        <time>2012-07-14T11:56:43Z</time>
      </trkpt>
      <trkpt lat="46.2008" lon="6.49835">
        <ele>888</ele>
        <time>2012-07-14T11:56:44Z</time>
      </trkpt>
      <trkpt lat="46.20071" lon="6.49831">
        <ele>888</ele>
        <time>2012-07-14T11:56:45Z</time>
      </trkpt>
      <trkpt lat="46.20062" lon="6.49829">
        <ele>888</ele>
        <time>2012-07-14T11:56:46Z</time>
      </trkpt>
      <trkpt lat="46.20052" lon="6.49826">
        <ele>888</ele>
        <time>2012-07-14T11:56:47Z</time>
      </trkpt>
      <trkpt lat="46.20044" lon="6.49822">
        <ele>888</ele>
        <time>2012-07-14T11:56:48Z</time>
      </trkpt>
      <trkpt lat="46.20028" lon="6.49818">
        <ele>888</ele>
        <time>2012-07-14T11:56:50Z</time>
      </trkpt>
      <trkpt lat="46.20014" lon="6.49814">
        <ele>888</ele>
        <time>2012-07-14T11:56:52Z</time>
      </trkpt>
      <trkpt lat="46.20001" lon="6.49811">
        <ele>888</ele>
        <time>2012-07-14T11:56:54Z</time>
      </trkpt>
      <trkpt lat="46.19989" lon="6.49805">
        <ele>888</ele>
        <time>2012-07-14T11:56:56Z</time>
      </trkpt>
      <trkpt lat="46.19977" lon="6.49799">
        <ele>888</ele>
        <time>2012-07-14T11:56:58Z</time>
      </trkpt>
      <trkpt lat="46.19965" lon="6.49794">
        <ele>888</ele>
        <time>2012-07-14T11:57:00Z</time>
      </trkpt>
      <trkpt lat="46.19953" lon="6.49789">
        <ele>888</ele>
        <time>2012-07-14T11:57:02Z</time>
      </trkpt>
      <trkpt lat="46.19942" lon="6.49785">
        <ele>888</ele>
        <time>2012-07-14T11:57:04Z</time>
      </trkpt>
      <trkpt lat="46.19931" lon="6.4978">
        <ele>888</ele>
        <time>2012-07-14T11:57:07Z</time>
      </trkpt>
      <trkpt lat="46.19922" lon="6.49776">
        <ele>888</ele>
        <time>2012-07-14T11:57:10Z</time>
      </trkpt>
      <trkpt lat="46.19912" lon="6.49773">
        <ele>888</ele>
        <time>2012-07-14T11:57:13Z</time>
      </trkpt>
      <trkpt lat="46.19903" lon="6.49778">
        <ele>888</ele>
        <time>2012-07-14T11:57:17Z</time>
      </trkpt>
      <trkpt lat="46.19913" lon="6.49784">
        <ele>888</ele>
        <time>2012-07-14T11:57:28Z</time>
      </trkpt>
      <trkpt lat="46.19923" lon="6.49785">
        <ele>888</ele>
        <time>2012-07-14T11:57:30Z</time>
      </trkpt>
      <trkpt lat="46.19935" lon="6.49787">
        <ele>888</ele>
        <time>2012-07-14T11:57:33Z</time>
      </trkpt>
      <trkpt lat="46.19945" lon="6.4979">
        <ele>888</ele>
        <time>2012-07-14T11:57:38Z</time>
      </trkpt>
      <trkpt lat="46.19955" lon="6.49793">
        <ele>888</ele>
        <time>2012-07-14T11:58:36Z</time>
      </trkpt>
      <trkpt lat="46.19966" lon="6.49799">
        <ele>888</ele>
        <time>2012-07-14T11:58:41Z</time>
      </trkpt>
      <trkpt lat="46.19976" lon="6.49804">
        <ele>888</ele>
        <time>2012-07-14T11:59:14Z</time>
      </trkpt>
      <trkpt lat="46.19975" lon="6.49822">
        <ele>888</ele>
        <time>2012-07-14T11:59:17Z</time>
      </trkpt>
      <trkpt lat="46.19968" lon="6.49839">
        <ele>888</ele>
        <time>2012-07-14T11:59:19Z</time>
      </trkpt>
      <trkpt lat="46.19956" lon="6.49855">
        <ele>888</ele>
        <time>2012-07-14T11:59:21Z</time>
      </trkpt>
      <trkpt lat="46.19944" lon="6.49871">
        <ele>882</ele>
        <time>2012-07-14T11:59:23Z</time>
      </trkpt>
      <trkpt lat="46.19931" lon="6.49887">
        <ele>882</ele>
        <time>2012-07-14T11:59:25Z</time>
      </trkpt>
      <trkpt lat="46.19918" lon="6.49903">
        <ele>882</ele>
        <time>2012-07-14T11:59:27Z</time>
      </trkpt>
      <trkpt lat="46.19911" lon="6.49912">
        <ele>882</ele>
        <time>2012-07-14T11:59:28Z</time>
      </trkpt>
      <trkpt lat="46.19898" lon="6.49928">
        <ele>882</ele>
        <time>2012-07-14T11:59:30Z</time>
      </trkpt>
      <trkpt lat="46.19886" lon="6.49946">
        <ele>882</ele>
        <time>2012-07-14T11:59:32Z</time>
      </trkpt>
      <trkpt lat="46.19877" lon="6.49967">
        <ele>877</ele>
        <time>2012-07-14T11:59:34Z</time>
      </trkpt>
      <trkpt lat="46.19873" lon="6.4998">
        <ele>877</ele>
        <time>2012-07-14T11:59:35Z</time>
      </trkpt>
      <trkpt lat="46.19871" lon="6.49993">
        <ele>877</ele>
        <time>2012-07-14T11:59:36Z</time>
      </trkpt>
      <trkpt lat="46.19869" lon="6.50007">
        <ele>877</ele>
        <time>2012-07-14T11:59:37Z</time>
      </trkpt>
      <trkpt lat="46.19868" lon="6.5002">
        <ele>877</ele>
        <time>2012-07-14T11:59:38Z</time>
      </trkpt>
      <trkpt lat="46.19868" lon="6.50035">
        <ele>877</ele>
        <time>2012-07-14T11:59:39Z</time>
      </trkpt>
      <trkpt lat="46.19869" lon="6.50052">
        <ele>877</ele>
        <time>2012-07-14T11:59:40Z</time>
      </trkpt>
      <trkpt lat="46.19869" lon="6.50074">
        <ele>877</ele>
        <time>2012-07-14T11:59:41Z</time>
      </trkpt>
      <trkpt lat="46.1987" lon="6.50096">
        <ele>877</ele>
        <time>2012-07-14T11:59:42Z</time>
      </trkpt>
      <trkpt lat="46.1987" lon="6.5012">
        <ele>877</ele>
        <time>2012-07-14T11:59:43Z</time>
      </trkpt>
      <trkpt lat="46.19871" lon="6.50141">
        <ele>877</ele>
        <time>2012-07-14T11:59:44Z</time>
      </trkpt>
      <trkpt lat="46.19871" lon="6.5016">
        <ele>877</ele>
        <time>2012-07-14T11:59:45Z</time>
      </trkpt>
      <trkpt lat="46.19871" lon="6.50177">
        <ele>877</ele>
        <time>2012-07-14T11:59:46Z</time>
      </trkpt>
      <trkpt lat="46.19871" lon="6.50193">
        <ele>882</ele>
        <time>2012-07-14T11:59:47Z</time>
      </trkpt>
      <trkpt lat="46.19871" lon="6.50209">
        <ele>882</ele>
        <time>2012-07-14T11:59:48Z</time>
      </trkpt>
      <trkpt lat="46.19871" lon="6.50222">
        <ele>882</ele>
        <time>2012-07-14T11:59:49Z</time>
      </trkpt>
      <trkpt lat="46.19866" lon="6.50246">
        <ele>882</ele>
        <time>2012-07-14T11:59:51Z</time>
      </trkpt>
      <trkpt lat="46.19861" lon="6.50258">
        <ele>882</ele>
        <time>2012-07-14T11:59:52Z</time>
      </trkpt>
      <trkpt lat="46.19854" lon="6.50268">
        <ele>882</ele>
        <time>2012-07-14T11:59:53Z</time>
      </trkpt>
      <trkpt lat="46.19845" lon="6.50276">
        <ele>887</ele>
        <time>2012-07-14T11:59:54Z</time>
      </trkpt>
      <trkpt lat="46.19835" lon="6.50282">
        <ele>887</ele>
        <time>2012-07-14T11:59:55Z</time>
      </trkpt>
      <trkpt lat="46.19824" lon="6.50288">
        <ele>887</ele>
        <time>2012-07-14T11:59:56Z</time>
      </trkpt>
      <trkpt lat="46.19813" lon="6.50292">
        <ele>887</ele>
        <time>2012-07-14T11:59:57Z</time>
      </trkpt>
      <trkpt lat="46.19802" lon="6.50298">
        <ele>887</ele>
        <time>2012-07-14T11:59:58Z</time>
      </trkpt>
      <trkpt lat="46.1979" lon="6.50302">
        <ele>887</ele>
        <time>2012-07-14T11:59:59Z</time>
      </trkpt>
      <trkpt lat="46.19778" lon="6.50308">
        <ele>887</ele>
        <time>2012-07-14T12:00:00Z</time>
      </trkpt>
      <trkpt lat="46.19767" lon="6.50313">
        <ele>893</ele>
        <time>2012-07-14T12:00:01Z</time>
      </trkpt>
      <trkpt lat="46.19755" lon="6.50317">
        <ele>893</ele>
        <time>2012-07-14T12:00:02Z</time>
      </trkpt>
      <trkpt lat="46.19743" lon="6.50321">
        <ele>893</ele>
        <time>2012-07-14T12:00:03Z</time>
      </trkpt>
      <trkpt lat="46.19732" lon="6.50325">
        <ele>893</ele>
        <time>2012-07-14T12:00:04Z</time>
      </trkpt>
      <trkpt lat="46.19721" lon="6.50327">
        <ele>893</ele>
        <time>2012-07-14T12:00:05Z</time>
      </trkpt>
      <trkpt lat="46.19709" lon="6.50329">
        <ele>893</ele>
        <time>2012-07-14T12:00:06Z</time>
      </trkpt>
      <trkpt lat="46.19697" lon="6.50331">
        <ele>893</ele>
        <time>2012-07-14T12:00:07Z</time>
      </trkpt>
      <trkpt lat="46.19686" lon="6.50334">
        <ele>893</ele>
        <time>2012-07-14T12:00:08Z</time>
      </trkpt>
      <trkpt lat="46.19674" lon="6.50336">
        <ele>893</ele>
        <time>2012-07-14T12:00:09Z</time>
      </trkpt>
      <trkpt lat="46.19663" lon="6.50339">
        <ele>893</ele>
        <time>2012-07-14T12:00:10Z</time>
      </trkpt>
      <trkpt lat="46.19651" lon="6.50341">
        <ele>893</ele>
        <time>2012-07-14T12:00:11Z</time>
      </trkpt>
      <trkpt lat="46.19641" lon="6.50343">
        <ele>899</ele>
        <time>2012-07-14T12:00:12Z</time>
      </trkpt>
      <trkpt lat="46.19631" lon="6.50345">
        <ele>899</ele>
        <time>2012-07-14T12:00:13Z</time>
      </trkpt>
      <trkpt lat="46.19621" lon="6.50347">
        <ele>899</ele>
        <time>2012-07-14T12:00:14Z</time>
      </trkpt>
      <trkpt lat="46.19612" lon="6.50348">
        <ele>899</ele>
        <time>2012-07-14T12:00:15Z</time>
      </trkpt>
      <trkpt lat="46.19595" lon="6.50353">
        <ele>899</ele>
        <time>2012-07-14T12:00:17Z</time>
      </trkpt>
      <trkpt lat="46.19586" lon="6.50359">
        <ele>899</ele>
        <time>2012-07-14T12:00:18Z</time>
      </trkpt>
      <trkpt lat="46.19576" lon="6.50365">
        <ele>899</ele>
        <time>2012-07-14T12:00:19Z</time>
      </trkpt>
      <trkpt lat="46.19568" lon="6.50373">
        <ele>899</ele>
        <time>2012-07-14T12:00:20Z</time>
      </trkpt>
      <trkpt lat="46.19561" lon="6.50382">
        <ele>899</ele>
        <time>2012-07-14T12:00:21Z</time>
      </trkpt>
      <trkpt lat="46.19553" lon="6.50403">
        <ele>899</ele>
        <time>2012-07-14T12:00:23Z</time>
      </trkpt>
      <trkpt lat="46.1955" lon="6.50428">
        <ele>899</ele>
        <time>2012-07-14T12:00:25Z</time>
      </trkpt>
      <trkpt lat="46.19547" lon="6.50441">
        <ele>899</ele>
        <time>2012-07-14T12:00:26Z</time>
      </trkpt>
      <trkpt lat="46.19536" lon="6.50458">
        <ele>899</ele>
        <time>2012-07-14T12:00:28Z</time>
      </trkpt>
      <trkpt lat="46.19527" lon="6.50463">
        <ele>899</ele>
        <time>2012-07-14T12:00:29Z</time>
      </trkpt>
      <trkpt lat="46.19517" lon="6.50466">
        <ele>899</ele>
        <time>2012-07-14T12:00:30Z</time>
      </trkpt>
      <trkpt lat="46.19507" lon="6.50468">
        <ele>899</ele>
        <time>2012-07-14T12:00:31Z</time>
      </trkpt>
      <trkpt lat="46.19496" lon="6.5047">
        <ele>899</ele>
        <time>2012-07-14T12:00:32Z</time>
      </trkpt>
      <trkpt lat="46.19485" lon="6.50472">
        <ele>899</ele>
        <time>2012-07-14T12:00:33Z</time>
      </trkpt>
      <trkpt lat="46.19473" lon="6.50471">
        <ele>899</ele>
        <time>2012-07-14T12:00:34Z</time>
      </trkpt>
      <trkpt lat="46.19463" lon="6.50469">
        <ele>899</ele>
        <time>2012-07-14T12:00:35Z</time>
      </trkpt>
      <trkpt lat="46.19452" lon="6.50467">
        <ele>904</ele>
        <time>2012-07-14T12:00:36Z</time>
      </trkpt>
      <trkpt lat="46.1944" lon="6.50466">
        <ele>904</ele>
        <time>2012-07-14T12:00:37Z</time>
      </trkpt>
      <trkpt lat="46.19429" lon="6.50463">
        <ele>904</ele>
        <time>2012-07-14T12:00:38Z</time>
      </trkpt>
      <trkpt lat="46.19416" lon="6.5046">
        <ele>904</ele>
        <time>2012-07-14T12:00:39Z</time>
      </trkpt>
      <trkpt lat="46.19404" lon="6.50458">
        <ele>904</ele>
        <time>2012-07-14T12:00:40Z</time>
      </trkpt>
      <trkpt lat="46.19392" lon="6.50456">
        <ele>904</ele>
        <time>2012-07-14T12:00:41Z</time>
      </trkpt>
      <trkpt lat="46.19381" lon="6.50454">
        <ele>904</ele>
        <time>2012-07-14T12:00:42Z</time>
      </trkpt>
      <trkpt lat="46.19369" lon="6.50453">
        <ele>904</ele>
        <time>2012-07-14T12:00:43Z</time>
      </trkpt>
      <trkpt lat="46.19357" lon="6.50451">
        <ele>904</ele>
        <time>2012-07-14T12:00:44Z</time>
      </trkpt>
      <trkpt lat="46.19345" lon="6.50449">
        <ele>910</ele>
        <time>2012-07-14T12:00:45Z</time>
      </trkpt>
      <trkpt lat="46.19333" lon="6.50446">
        <ele>910</ele>
        <time>2012-07-14T12:00:46Z</time>
      </trkpt>
      <trkpt lat="46.19322" lon="6.50444">
        <ele>910</ele>
        <time>2012-07-14T12:00:47Z</time>
      </trkpt>
      <trkpt lat="46.19312" lon="6.50443">
        <ele>910</ele>
        <time>2012-07-14T12:00:48Z</time>
      </trkpt>
      <trkpt lat="46.19296" lon="6.50441">
        <ele>910</ele>
        <time>2012-07-14T12:00:50Z</time>
      </trkpt>
      <trkpt lat="46.19282" lon="6.50446">
        <ele>910</ele>
        <time>2012-07-14T12:00:52Z</time>
      </trkpt>
      <trkpt lat="46.19271" lon="6.50458">
        <ele>910</ele>
        <time>2012-07-14T12:00:54Z</time>
      </trkpt>
      <trkpt lat="46.1926" lon="6.50474">
        <ele>910</ele>
        <time>2012-07-14T12:00:56Z</time>
      </trkpt>
      <trkpt lat="46.19246" lon="6.50486">
        <ele>910</ele>
        <time>2012-07-14T12:00:58Z</time>
      </trkpt>
      <trkpt lat="46.19231" lon="6.50494">
        <ele>910</ele>
        <time>2012-07-14T12:01:00Z</time>
      </trkpt>
      <trkpt lat="46.19215" lon="6.50495">
        <ele>910</ele>
        <time>2012-07-14T12:01:02Z</time>
      </trkpt>
      <trkpt lat="46.192" lon="6.50489">
        <ele>904</ele>
        <time>2012-07-14T12:01:04Z</time>
      </trkpt>
      <trkpt lat="46.1919" lon="6.50469">
        <ele>904</ele>
        <time>2012-07-14T12:01:06Z</time>
      </trkpt>
      <trkpt lat="46.19186" lon="6.50456">
        <ele>904</ele>
        <time>2012-07-14T12:01:07Z</time>
      </trkpt>
      <trkpt lat="46.19182" lon="6.50441">
        <ele>904</ele>
        <time>2012-07-14T12:01:08Z</time>
      </trkpt>
      <trkpt lat="46.19177" lon="6.50424">
        <ele>904</ele>
        <time>2012-07-14T12:01:09Z</time>
      </trkpt>
      <trkpt lat="46.19173" lon="6.5041">
        <ele>904</ele>
        <time>2012-07-14T12:01:10Z</time>
      </trkpt>
      <trkpt lat="46.19167" lon="6.50398">
        <ele>904</ele>
        <time>2012-07-14T12:01:11Z</time>
      </trkpt>
      <trkpt lat="46.1916" lon="6.50388">
        <ele>904</ele>
        <time>2012-07-14T12:01:12Z</time>
      </trkpt>
      <trkpt lat="46.19152" lon="6.5038">
        <ele>904</ele>
        <time>2012-07-14T12:01:13Z</time>
      </trkpt>
      <trkpt lat="46.19143" lon="6.50373">
        <ele>904</ele>
        <time>2012-07-14T12:01:14Z</time>
      </trkpt>
      <trkpt lat="46.19133" lon="6.50367">
        <ele>904</ele>
        <time>2012-07-14T12:01:15Z</time>
      </trkpt>
      <trkpt lat="46.19124" lon="6.50361">
        <ele>909</ele>
        <time>2012-07-14T12:01:16Z</time>
      </trkpt>
      <trkpt lat="46.19114" lon="6.50356">
        <ele>909</ele>
        <time>2012-07-14T12:01:17Z</time>
      </trkpt>
      <trkpt lat="46.19104" lon="6.5035">
        <ele>909</ele>
        <time>2012-07-14T12:01:18Z</time>
      </trkpt>
      <trkpt lat="46.19094" lon="6.50345">
        <ele>909</ele>
        <time>2012-07-14T12:01:19Z</time>
      </trkpt>
      <trkpt lat="46.19084" lon="6.50342">
        <ele>909</ele>
        <time>2012-07-14T12:01:20Z</time>
      </trkpt>
      <trkpt lat="46.19073" lon="6.50341">
        <ele>909</ele>
        <time>2012-07-14T12:01:21Z</time>
      </trkpt>
      <trkpt lat="46.19061" lon="6.5034">
        <ele>909</ele>
        <time>2012-07-14T12:01:22Z</time>
      </trkpt>
      <trkpt lat="46.19049" lon="6.50338">
        <ele>909</ele>
        <time>2012-07-14T12:01:23Z</time>
      </trkpt>
      <trkpt lat="46.19038" lon="6.50335">
        <ele>909</ele>
        <time>2012-07-14T12:01:24Z</time>
      </trkpt>
      <trkpt lat="46.19027" lon="6.50328">
        <ele>909</ele>
        <time>2012-07-14T12:01:25Z</time>
      </trkpt>
      <trkpt lat="46.19016" lon="6.50322">
        <ele>909</ele>
        <time>2012-07-14T12:01:26Z</time>
      </trkpt>
      <trkpt lat="46.19006" lon="6.50315">
        <ele>909</ele>
        <time>2012-07-14T12:01:27Z</time>
      </trkpt>
      <trkpt lat="46.18996" lon="6.50308">
        <ele>909</ele>
        <time>2012-07-14T12:01:28Z</time>
      </trkpt>
      <trkpt lat="46.18986" lon="6.50303">
        <ele>909</ele>
        <time>2012-07-14T12:01:29Z</time>
      </trkpt>
      <trkpt lat="46.18976" lon="6.50299">
        <ele>909</ele>
        <time>2012-07-14T12:01:30Z</time>
      </trkpt>
      <trkpt lat="46.18966" lon="6.50297">
        <ele>909</ele>
        <time>2012-07-14T12:01:31Z</time>
      </trkpt>
      <trkpt lat="46.18955" lon="6.50296">
        <ele>909</ele>
        <time>2012-07-14T12:01:32Z</time>
      </trkpt>
      <trkpt lat="46.18944" lon="6.50297">
        <ele>909</ele>
        <time>2012-07-14T12:01:33Z</time>
      </trkpt>
      <trkpt lat="46.18934" lon="6.50299">
        <ele>909</ele>
        <time>2012-07-14T12:01:34Z</time>
      </trkpt>
      <trkpt lat="46.18924" lon="6.503">
        <ele>909</ele>
        <time>2012-07-14T12:01:35Z</time>
      </trkpt>
      <trkpt lat="46.18914" lon="6.50303">
        <ele>909</ele>
        <time>2012-07-14T12:01:36Z</time>
      </trkpt>
      <trkpt lat="46.18904" lon="6.50306">
        <ele>909</ele>
        <time>2012-07-14T12:01:37Z</time>
      </trkpt>
      <trkpt lat="46.18895" lon="6.50308">
        <ele>909</ele>
        <time>2012-07-14T12:01:38Z</time>
      </trkpt>
      <trkpt lat="46.18885" lon="6.50311">
        <ele>909</ele>
        <time>2012-07-14T12:01:39Z</time>
      </trkpt>
      <trkpt lat="46.18876" lon="6.50316">
        <ele>909</ele>
        <time>2012-07-14T12:01:40Z</time>
      </trkpt>
      <trkpt lat="46.18867" lon="6.5032">
        <ele>909</ele>
        <time>2012-07-14T12:01:41Z</time>
      </trkpt>
      <trkpt lat="46.18858" lon="6.50324">
        <ele>909</ele>
        <time>2012-07-14T12:01:42Z</time>
      </trkpt>
      <trkpt lat="46.18848" lon="6.50328">
        <ele>914</ele>
        <time>2012-07-14T12:01:43Z</time>
      </trkpt>
      <trkpt lat="46.18839" lon="6.50332">
        <ele>914</ele>
        <time>2012-07-14T12:01:44Z</time>
      </trkpt>
      <trkpt lat="46.1883" lon="6.50335">
        <ele>914</ele>
        <time>2012-07-14T12:01:45Z</time>
      </trkpt>
      <trkpt lat="46.18818" lon="6.50342">
        <ele>914</ele>
        <time>2012-07-14T12:01:47Z</time>
      </trkpt>
      <trkpt lat="46.18814" lon="6.50361">
        <ele>914</ele>
        <time>2012-07-14T12:01:50Z</time>
      </trkpt>
      <trkpt lat="46.18818" lon="6.50381">
        <ele>920</ele>
        <time>2012-07-14T12:01:52Z</time>
      </trkpt>
      <trkpt lat="46.18818" lon="6.50405">
        <ele>920</ele>
        <time>2012-07-14T12:01:54Z</time>
      </trkpt>
      <trkpt lat="46.18808" lon="6.50429">
        <ele>920</ele>
        <time>2012-07-14T12:01:56Z</time>
      </trkpt>
      <trkpt lat="46.18804" lon="6.50441">
        <ele>920</ele>
        <time>2012-07-14T12:01:57Z</time>
      </trkpt>
      <trkpt lat="46.18802" lon="6.50454">
        <ele>920</ele>
        <time>2012-07-14T12:01:58Z</time>
      </trkpt>
      <trkpt lat="46.18801" lon="6.50467">
        <ele>920</ele>
        <time>2012-07-14T12:01:59Z</time>
      </trkpt>
      <trkpt lat="46.18802" lon="6.50482">
        <ele>920</ele>
        <time>2012-07-14T12:02:00Z</time>
      </trkpt>
      <trkpt lat="46.18804" lon="6.50495">
        <ele>925</ele>
        <time>2012-07-14T12:02:01Z</time>
      </trkpt>
      <trkpt lat="46.18807" lon="6.50509">
        <ele>925</ele>
        <time>2012-07-14T12:02:02Z</time>
      </trkpt>
      <trkpt lat="46.18814" lon="6.50529">
        <ele>925</ele>
        <time>2012-07-14T12:02:04Z</time>
      </trkpt>
      <trkpt lat="46.18823" lon="6.50539">
        <ele>925</ele>
        <time>2012-07-14T12:02:06Z</time>
      </trkpt>
      <trkpt lat="46.18832" lon="6.5054">
        <ele>925</ele>
        <time>2012-07-14T12:02:08Z</time>
      </trkpt>
      <trkpt lat="46.18843" lon="6.50535">
        <ele>931</ele>
        <time>2012-07-14T12:02:10Z</time>
      </trkpt>
      <trkpt lat="46.18856" lon="6.50526">
        <ele>931</ele>
        <time>2012-07-14T12:02:12Z</time>
      </trkpt>
      <trkpt lat="46.1887" lon="6.50518">
        <ele>931</ele>
        <time>2012-07-14T12:02:14Z</time>
      </trkpt>
      <trkpt lat="46.18884" lon="6.50514">
        <ele>937</ele>
        <time>2012-07-14T12:02:16Z</time>
      </trkpt>
      <trkpt lat="46.18898" lon="6.50519">
        <ele>937</ele>
        <time>2012-07-14T12:02:18Z</time>
      </trkpt>
      <trkpt lat="46.18911" lon="6.50532">
        <ele>937</ele>
        <time>2012-07-14T12:02:20Z</time>
      </trkpt>
      <trkpt lat="46.18922" lon="6.50553">
        <ele>937</ele>
        <time>2012-07-14T12:02:22Z</time>
      </trkpt>
      <trkpt lat="46.18932" lon="6.50574">
        <ele>937</ele>
        <time>2012-07-14T12:02:24Z</time>
      </trkpt>
      <trkpt lat="46.18942" lon="6.50597">
        <ele>943</ele>
        <time>2012-07-14T12:02:26Z</time>
      </trkpt>
      <trkpt lat="46.18947" lon="6.50608">
        <ele>943</ele>
        <time>2012-07-14T12:02:27Z</time>
      </trkpt>
      <trkpt lat="46.18951" lon="6.50621">
        <ele>943</ele>
        <time>2012-07-14T12:02:28Z</time>
      </trkpt>
      <trkpt lat="46.18953" lon="6.50634">
        <ele>943</ele>
        <time>2012-07-14T12:02:29Z</time>
      </trkpt>
      <trkpt lat="46.18952" lon="6.50657">
        <ele>943</ele>
        <time>2012-07-14T12:02:31Z</time>
      </trkpt>
      <trkpt lat="46.18945" lon="6.50679">
        <ele>949</ele>
        <time>2012-07-14T12:02:33Z</time>
      </trkpt>
      <trkpt lat="46.18937" lon="6.50697">
        <ele>949</ele>
        <time>2012-07-14T12:02:35Z</time>
      </trkpt>
      <trkpt lat="46.18934" lon="6.50713">
        <ele>949</ele>
        <time>2012-07-14T12:02:37Z</time>
      </trkpt>
      <trkpt lat="46.18943" lon="6.5072">
        <ele>949</ele>
        <time>2012-07-14T12:02:39Z</time>
      </trkpt>
      <trkpt lat="46.18959" lon="6.50716">
        <ele>949</ele>
        <time>2012-07-14T12:02:41Z</time>
      </trkpt>
      <trkpt lat="46.18968" lon="6.50714">
        <ele>949</ele>
        <time>2012-07-14T12:02:42Z</time>
      </trkpt>
      <trkpt lat="46.18978" lon="6.50715">
        <ele>955</ele>
        <time>2012-07-14T12:02:43Z</time>
      </trkpt>
      <trkpt lat="46.18994" lon="6.5072">
        <ele>955</ele>
        <time>2012-07-14T12:02:45Z</time>
      </trkpt>
      <trkpt lat="46.19012" lon="6.50724">
        <ele>955</ele>
        <time>2012-07-14T12:02:47Z</time>
      </trkpt>
      <trkpt lat="46.19027" lon="6.50727">
        <ele>961</ele>
        <time>2012-07-14T12:02:49Z</time>
      </trkpt>
      <trkpt lat="46.1904" lon="6.50736">
        <ele>961</ele>
        <time>2012-07-14T12:02:51Z</time>
      </trkpt>
      <trkpt lat="46.19048" lon="6.50754">
        <ele>961</ele>
        <time>2012-07-14T12:02:53Z</time>
      </trkpt>
      <trkpt lat="46.19052" lon="6.50775">
        <ele>961</ele>
        <time>2012-07-14T12:02:55Z</time>
      </trkpt>
      <trkpt lat="46.19058" lon="6.50795">
        <ele>961</ele>
        <time>2012-07-14T12:02:57Z</time>
      </trkpt>
      <trkpt lat="46.19066" lon="6.50818">
        <ele>966</ele>
        <time>2012-07-14T12:02:59Z</time>
      </trkpt>
      <trkpt lat="46.19076" lon="6.50838">
        <ele>966</ele>
        <time>2012-07-14T12:03:01Z</time>
      </trkpt>
      <trkpt lat="46.19083" lon="6.50857">
        <ele>966</ele>
        <time>2012-07-14T12:03:03Z</time>
      </trkpt>
      <trkpt lat="46.19085" lon="6.5088">
        <ele>972</ele>
        <time>2012-07-14T12:03:05Z</time>
      </trkpt>
      <trkpt lat="46.19084" lon="6.50907">
        <ele>972</ele>
        <time>2012-07-14T12:03:07Z</time>
      </trkpt>
      <trkpt lat="46.19084" lon="6.50922">
        <ele>972</ele>
        <time>2012-07-14T12:03:08Z</time>
      </trkpt>
      <trkpt lat="46.19084" lon="6.50939">
        <ele>972</ele>
        <time>2012-07-14T12:03:09Z</time>
      </trkpt>
      <trkpt lat="46.19085" lon="6.50956">
        <ele>972</ele>
        <time>2012-07-14T12:03:10Z</time>
      </trkpt>
      <trkpt lat="46.19087" lon="6.50972">
        <ele>977</ele>
        <time>2012-07-14T12:03:11Z</time>
      </trkpt>
      <trkpt lat="46.19092" lon="6.50987">
        <ele>977</ele>
        <time>2012-07-14T12:03:12Z</time>
      </trkpt>
      <trkpt lat="46.19095" lon="6.51">
        <ele>977</ele>
        <time>2012-07-14T12:03:13Z</time>
      </trkpt>
      <trkpt lat="46.19097" lon="6.51014">
        <ele>977</ele>
        <time>2012-07-14T12:03:14Z</time>
      </trkpt>
      <trkpt lat="46.19097" lon="6.51027">
        <ele>977</ele>
        <time>2012-07-14T12:03:15Z</time>
      </trkpt>
      <trkpt lat="46.19086" lon="6.51052">
        <ele>984</ele>
        <time>2012-07-14T12:03:17Z</time>
      </trkpt>
      <trkpt lat="46.19077" lon="6.51069">
        <ele>984</ele>
        <time>2012-07-14T12:03:18Z</time>
      </trkpt>
      <trkpt lat="46.19071" lon="6.51084">
        <ele>984</ele>
        <time>2012-07-14T12:03:19Z</time>
      </trkpt>
      <trkpt lat="46.19068" lon="6.51098">
        <ele>984</ele>
        <time>2012-07-14T12:03:20Z</time>
      </trkpt>
      <trkpt lat="46.19065" lon="6.51111">
        <ele>984</ele>
        <time>2012-07-14T12:03:21Z</time>
      </trkpt>
      <trkpt lat="46.1906" lon="6.5113">
        <ele>990</ele>
        <time>2012-07-14T12:03:23Z</time>
      </trkpt>
      <trkpt lat="46.19048" lon="6.51142">
        <ele>990</ele>
        <time>2012-07-14T12:03:25Z</time>
      </trkpt>
      <trkpt lat="46.19032" lon="6.51149">
        <ele>990</ele>
        <time>2012-07-14T12:03:27Z</time>
      </trkpt>
      <trkpt lat="46.19017" lon="6.51155">
        <ele>990</ele>
        <time>2012-07-14T12:03:29Z</time>
      </trkpt>
      <trkpt lat="46.19007" lon="6.51165">
        <ele>990</ele>
        <time>2012-07-14T12:03:31Z</time>
      </trkpt>
      <trkpt lat="46.18996" lon="6.51186">
        <ele>990</ele>
        <time>2012-07-14T12:03:33Z</time>
      </trkpt>
      <trkpt lat="46.18992" lon="6.51199">
        <ele>995</ele>
        <time>2012-07-14T12:03:34Z</time>
      </trkpt>
      <trkpt lat="46.18986" lon="6.51218">
        <ele>995</ele>
        <time>2012-07-14T12:03:36Z</time>
      </trkpt>
      <trkpt lat="46.18981" lon="6.51234">
        <ele>995</ele>
        <time>2012-07-14T12:03:38Z</time>
      </trkpt>
      <trkpt lat="46.18969" lon="6.51241">
        <ele>1002</ele>
        <time>2012-07-14T12:03:54Z</time>
      </trkpt>
      <trkpt lat="46.18958" lon="6.51239">
        <ele>1002</ele>
        <time>2012-07-14T12:03:56Z</time>
      </trkpt>
      <trkpt lat="46.18968" lon="6.51236">
        <ele>1029</ele>
        <time>2012-07-14T12:04:22Z</time>
      </trkpt>
      <trkpt lat="46.18978" lon="6.51241">
        <ele>1020</ele>
        <time>2012-07-14T12:04:27Z</time>
      </trkpt>
      <trkpt lat="46.18986" lon="6.51253">
        <ele>1012</ele>
        <time>2012-07-14T12:04:31Z</time>
      </trkpt>
      <trkpt lat="46.18985" lon="6.51267">
        <ele>1012</ele>
        <time>2012-07-14T12:04:33Z</time>
      </trkpt>
      <trkpt lat="46.18986" lon="6.51293">
        <ele>1006</ele>
        <time>2012-07-14T12:04:35Z</time>
      </trkpt>
      <trkpt lat="46.18988" lon="6.51306">
        <ele>1006</ele>
        <time>2012-07-14T12:04:36Z</time>
      </trkpt>
      <trkpt lat="46.18991" lon="6.51319">
        <ele>1006</ele>
        <time>2012-07-14T12:04:37Z</time>
      </trkpt>
      <trkpt lat="46.18995" lon="6.51342">
        <ele>1006</ele>
        <time>2012-07-14T12:04:39Z</time>
      </trkpt>
      <trkpt lat="46.19002" lon="6.51365">
        <ele>1006</ele>
        <time>2012-07-14T12:04:41Z</time>
      </trkpt>
      <trkpt lat="46.19006" lon="6.51387">
        <ele>1006</ele>
        <time>2012-07-14T12:04:43Z</time>
      </trkpt>
      <trkpt lat="46.19006" lon="6.5141">
        <ele>1006</ele>
        <time>2012-07-14T12:04:45Z</time>
      </trkpt>
      <trkpt lat="46.19004" lon="6.51433">
        <ele>1006</ele>
        <time>2012-07-14T12:04:47Z</time>
      </trkpt>
      <trkpt lat="46.19002" lon="6.51457">
        <ele>1011</ele>
        <time>2012-07-14T12:04:49Z</time>
      </trkpt>
      <trkpt lat="46.19003" lon="6.51471">
        <ele>1011</ele>
        <time>2012-07-14T12:04:50Z</time>
      </trkpt>
      <trkpt lat="46.18998" lon="6.51505">
        <ele>1017</ele>
        <time>2012-07-14T12:04:53Z</time>
      </trkpt>
      <trkpt lat="46.18999" lon="6.51526">
        <ele>1017</ele>
        <time>2012-07-14T12:04:55Z</time>
      </trkpt>
      <trkpt lat="46.18996" lon="6.51541">
        <ele>1026</ele>
        <time>2012-07-14T12:04:57Z</time>
      </trkpt>
      <trkpt lat="46.18997" lon="6.51554">
        <ele>1033</ele>
        <time>2012-07-14T12:05:05Z</time>
      </trkpt>
      <trkpt lat="46.18997" lon="6.5157">
        <ele>1033</ele>
        <time>2012-07-14T12:05:07Z</time>
      </trkpt>
      <trkpt lat="46.18993" lon="6.51585">
        <ele>1033</ele>
        <time>2012-07-14T12:05:09Z</time>
      </trkpt>
      <trkpt lat="46.18986" lon="6.51601">
        <ele>1033</ele>
        <time>2012-07-14T12:05:11Z</time>
      </trkpt>
      <trkpt lat="46.18978" lon="6.51613">
        <ele>1033</ele>
        <time>2012-07-14T12:05:13Z</time>
      </trkpt>
      <trkpt lat="46.18966" lon="6.51624">
        <ele>1033</ele>
        <time>2012-07-14T12:05:15Z</time>
      </trkpt>
      <trkpt lat="46.18956" lon="6.51633">
        <ele>1039</ele>
        <time>2012-07-14T12:05:17Z</time>
      </trkpt>
      <trkpt lat="46.18948" lon="6.51642">
        <ele>1053</ele>
        <time>2012-07-14T12:05:40Z</time>
      </trkpt>
      <trkpt lat="46.18958" lon="6.51641">
        <ele>1053</ele>
        <time>2012-07-14T12:05:48Z</time>
      </trkpt>
      <trkpt lat="46.18968" lon="6.51626">
        <ele>1053</ele>
        <time>2012-07-14T12:05:51Z</time>
      </trkpt>
      <trkpt lat="46.18978" lon="6.51618">
        <ele>1053</ele>
        <time>2012-07-14T12:05:53Z</time>
      </trkpt>
      <trkpt lat="46.18986" lon="6.51607">
        <ele>1053</ele>
        <time>2012-07-14T12:05:55Z</time>
      </trkpt>
      <trkpt lat="46.18991" lon="6.5159">
        <ele>1044</ele>
        <time>2012-07-14T12:05:57Z</time>
      </trkpt>
      <trkpt lat="46.18997" lon="6.51573">
        <ele>1038</ele>
        <time>2012-07-14T12:05:59Z</time>
      </trkpt>
      <trkpt lat="46.19" lon="6.51556">
        <ele>1038</ele>
        <time>2012-07-14T12:06:01Z</time>
      </trkpt>
      <trkpt lat="46.19002" lon="6.51542">
        <ele>1031</ele>
        <time>2012-07-14T12:06:02Z</time>
      </trkpt>
      <trkpt lat="46.19005" lon="6.51529">
        <ele>1026</ele>
        <time>2012-07-14T12:06:03Z</time>
      </trkpt>
      <trkpt lat="46.19007" lon="6.51516">
        <ele>1026</ele>
        <time>2012-07-14T12:06:04Z</time>
      </trkpt>
      <trkpt lat="46.19008" lon="6.51502">
        <ele>1015</ele>
        <time>2012-07-14T12:06:05Z</time>
      </trkpt>
      <trkpt lat="46.19012" lon="6.51488">
        <ele>1015</ele>
        <time>2012-07-14T12:06:06Z</time>
      </trkpt>
      <trkpt lat="46.19012" lon="6.51474">
        <ele>1005</ele>
        <time>2012-07-14T12:06:07Z</time>
      </trkpt>
      <trkpt lat="46.19015" lon="6.51461">
        <ele>1005</ele>
        <time>2012-07-14T12:06:08Z</time>
      </trkpt>
      <trkpt lat="46.19019" lon="6.51435">
        <ele>997</ele>
        <time>2012-07-14T12:06:10Z</time>
      </trkpt>
      <trkpt lat="46.19016" lon="6.5141">
        <ele>997</ele>
        <time>2012-07-14T12:06:12Z</time>
      </trkpt>
      <trkpt lat="46.19017" lon="6.51386">
        <ele>992</ele>
        <time>2012-07-14T12:06:14Z</time>
      </trkpt>
      <trkpt lat="46.19011" lon="6.51361">
        <ele>992</ele>
        <time>2012-07-14T12:06:16Z</time>
      </trkpt>
      <trkpt lat="46.19005" lon="6.51348">
        <ele>992</ele>
        <time>2012-07-14T12:06:17Z</time>
      </trkpt>
      <trkpt lat="46.18998" lon="6.51323">
        <ele>992</ele>
        <time>2012-07-14T12:06:19Z</time>
      </trkpt>
      <trkpt lat="46.18996" lon="6.51307">
        <ele>998</ele>
        <time>2012-07-14T12:06:20Z</time>
      </trkpt>
      <trkpt lat="46.18993" lon="6.51293">
        <ele>998</ele>
        <time>2012-07-14T12:06:21Z</time>
      </trkpt>
      <trkpt lat="46.18992" lon="6.51279">
        <ele>998</ele>
        <time>2012-07-14T12:06:22Z</time>
      </trkpt>
      <trkpt lat="46.18988" lon="6.51255">
        <ele>998</ele>
        <time>2012-07-14T12:06:24Z</time>
      </trkpt>
      <trkpt lat="46.18987" lon="6.51233">
        <ele>998</ele>
        <time>2012-07-14T12:06:26Z</time>
      </trkpt>
      <trkpt lat="46.18991" lon="6.51209">
        <ele>998</ele>
        <time>2012-07-14T12:06:28Z</time>
      </trkpt>
      <trkpt lat="46.18997" lon="6.51186">
        <ele>992</ele>
        <time>2012-07-14T12:06:30Z</time>
      </trkpt>
      <trkpt lat="46.19006" lon="6.51168">
        <ele>992</ele>
        <time>2012-07-14T12:06:32Z</time>
      </trkpt>
      <trkpt lat="46.19012" lon="6.51154">
        <ele>992</ele>
        <time>2012-07-14T12:06:34Z</time>
      </trkpt>
      <trkpt lat="46.19017" lon="6.51141">
        <ele>992</ele>
        <time>2012-07-14T12:06:36Z</time>
      </trkpt>
      <trkpt lat="46.19026" lon="6.51129">
        <ele>992</ele>
        <time>2012-07-14T12:06:38Z</time>
      </trkpt>
      <trkpt lat="46.1903" lon="6.51115">
        <ele>992</ele>
        <time>2012-07-14T12:06:41Z</time>
      </trkpt>
      <trkpt lat="46.19018" lon="6.51117">
        <ele>992</ele>
        <time>2012-07-14T12:06:45Z</time>
      </trkpt>
      <trkpt lat="46.19009" lon="6.51121">
        <ele>992</ele>
        <time>2012-07-14T12:06:48Z</time>
      </trkpt>
      <trkpt lat="46.1902" lon="6.51117">
        <ele>998</ele>
        <time>2012-07-14T12:07:08Z</time>
      </trkpt>
      <trkpt lat="46.19027" lon="6.51126">
        <ele>998</ele>
        <time>2012-07-14T12:07:13Z</time>
      </trkpt>
      <trkpt lat="46.1902" lon="6.51136">
        <ele>998</ele>
        <time>2012-07-14T12:07:15Z</time>
      </trkpt>
      <trkpt lat="46.19012" lon="6.51148">
        <ele>998</ele>
        <time>2012-07-14T12:07:17Z</time>
      </trkpt>
      <trkpt lat="46.19005" lon="6.51165">
        <ele>998</ele>
        <time>2012-07-14T12:07:19Z</time>
      </trkpt>
      <trkpt lat="46.18996" lon="6.51188">
        <ele>998</ele>
        <time>2012-07-14T12:07:21Z</time>
      </trkpt>
      <trkpt lat="46.18989" lon="6.51209">
        <ele>998</ele>
        <time>2012-07-14T12:07:23Z</time>
      </trkpt>
      <trkpt lat="46.18985" lon="6.51227">
        <ele>998</ele>
        <time>2012-07-14T12:07:25Z</time>
      </trkpt>
      <trkpt lat="46.18984" lon="6.51244">
        <ele>998</ele>
        <time>2012-07-14T12:07:28Z</time>
      </trkpt>
      <trkpt lat="46.18994" lon="6.51241">
        <ele>998</ele>
        <time>2012-07-14T12:23:03Z</time>
      </trkpt>
      <trkpt lat="46.18985" lon="6.51245">
        <ele>998</ele>
        <time>2012-07-14T12:28:46Z</time>
      </trkpt>
      <trkpt lat="46.18976" lon="6.51249">
        <ele>1012</ele>
        <time>2012-07-14T12:31:47Z</time>
      </trkpt>
      <trkpt lat="46.18985" lon="6.51253">
        <ele>985</ele>
        <time>2012-07-14T12:32:20Z</time>
      </trkpt>
      <trkpt lat="46.1898" lon="6.51241">
        <ele>1006</ele>
        <time>2012-07-14T12:32:40Z</time>
      </trkpt>
      <trkpt lat="46.18968" lon="6.51237">
        <ele>1006</ele>
        <time>2012-07-14T12:34:40Z</time>
      </trkpt>
      <trkpt lat="46.18959" lon="6.51232">
        <ele>1006</ele>
        <time>2012-07-14T12:34:42Z</time>
      </trkpt>
      <trkpt lat="46.18949" lon="6.51219">
        <ele>1006</ele>
        <time>2012-07-14T12:34:44Z</time>
      </trkpt>
      <trkpt lat="46.18941" lon="6.51201">
        <ele>1006</ele>
        <time>2012-07-14T12:34:46Z</time>
      </trkpt>
      <trkpt lat="46.18931" lon="6.5118">
        <ele>1006</ele>
        <time>2012-07-14T12:34:48Z</time>
      </trkpt>
      <trkpt lat="46.18928" lon="6.51167">
        <ele>1006</ele>
        <time>2012-07-14T12:34:49Z</time>
      </trkpt>
      <trkpt lat="46.1892" lon="6.51149">
        <ele>1006</ele>
        <time>2012-07-14T12:34:51Z</time>
      </trkpt>
      <trkpt lat="46.18911" lon="6.5114">
        <ele>1012</ele>
        <time>2012-07-14T12:34:53Z</time>
      </trkpt>
      <trkpt lat="46.189" lon="6.51138">
        <ele>1021</ele>
        <time>2012-07-14T12:34:56Z</time>
      </trkpt>
      <trkpt lat="46.18891" lon="6.51142">
        <ele>1021</ele>
        <time>2012-07-14T12:34:58Z</time>
      </trkpt>
      <trkpt lat="46.18882" lon="6.51156">
        <ele>1021</ele>
        <time>2012-07-14T12:35:00Z</time>
      </trkpt>
      <trkpt lat="46.18872" lon="6.51165">
        <ele>1028</ele>
        <time>2012-07-14T12:35:02Z</time>
      </trkpt>
      <trkpt lat="46.18863" lon="6.5117">
        <ele>1028</ele>
        <time>2012-07-14T12:35:04Z</time>
      </trkpt>
      <trkpt lat="46.18853" lon="6.51161">
        <ele>1028</ele>
        <time>2012-07-14T12:35:06Z</time>
      </trkpt>
      <trkpt lat="46.18847" lon="6.5115">
        <ele>1028</ele>
        <time>2012-07-14T12:35:07Z</time>
      </trkpt>
      <trkpt lat="46.18837" lon="6.51131">
        <ele>1034</ele>
        <time>2012-07-14T12:35:09Z</time>
      </trkpt>
      <trkpt lat="46.18822" lon="6.51114">
        <ele>1034</ele>
        <time>2012-07-14T12:35:11Z</time>
      </trkpt>
      <trkpt lat="46.18806" lon="6.51103">
        <ele>1034</ele>
        <time>2012-07-14T12:35:13Z</time>
      </trkpt>
      <trkpt lat="46.1879" lon="6.51095">
        <ele>1040</ele>
        <time>2012-07-14T12:35:15Z</time>
      </trkpt>
      <trkpt lat="46.18778" lon="6.51096">
        <ele>1040</ele>
        <time>2012-07-14T12:35:17Z</time>
      </trkpt>
      <trkpt lat="46.18772" lon="6.51107">
        <ele>1046</ele>
        <time>2012-07-14T12:35:19Z</time>
      </trkpt>
      <trkpt lat="46.18775" lon="6.51124">
        <ele>1046</ele>
        <time>2012-07-14T12:35:21Z</time>
      </trkpt>
      <trkpt lat="46.18777" lon="6.51143">
        <ele>1046</ele>
        <time>2012-07-14T12:35:23Z</time>
      </trkpt>
      <trkpt lat="46.18775" lon="6.51158">
        <ele>1046</ele>
        <time>2012-07-14T12:35:25Z</time>
      </trkpt>
      <trkpt lat="46.18768" lon="6.51174">
        <ele>1055</ele>
        <time>2012-07-14T12:35:27Z</time>
      </trkpt>
      <trkpt lat="46.18762" lon="6.51184">
        <ele>1055</ele>
        <time>2012-07-14T12:35:28Z</time>
      </trkpt>
      <trkpt lat="46.18756" lon="6.51198">
        <ele>1062</ele>
        <time>2012-07-14T12:35:29Z</time>
      </trkpt>
      <trkpt lat="46.1875" lon="6.51209">
        <ele>1062</ele>
        <time>2012-07-14T12:35:30Z</time>
      </trkpt>
      <trkpt lat="46.18745" lon="6.5122">
        <ele>1062</ele>
        <time>2012-07-14T12:35:31Z</time>
      </trkpt>
      <trkpt lat="46.18738" lon="6.5123">
        <ele>1069</ele>
        <time>2012-07-14T12:35:32Z</time>
      </trkpt>
      <trkpt lat="46.1873" lon="6.5124">
        <ele>1069</ele>
        <time>2012-07-14T12:35:33Z</time>
      </trkpt>
      <trkpt lat="46.1872" lon="6.51252">
        <ele>1069</ele>
        <time>2012-07-14T12:35:34Z</time>
      </trkpt>
      <trkpt lat="46.18712" lon="6.5126">
        <ele>1074</ele>
        <time>2012-07-14T12:35:35Z</time>
      </trkpt>
      <trkpt lat="46.18702" lon="6.51273">
        <ele>1074</ele>
        <time>2012-07-14T12:35:37Z</time>
      </trkpt>
      <trkpt lat="46.18699" lon="6.51289">
        <ele>1074</ele>
        <time>2012-07-14T12:35:39Z</time>
      </trkpt>
      <trkpt lat="46.18702" lon="6.51305">
        <ele>1074</ele>
        <time>2012-07-14T12:35:41Z</time>
      </trkpt>
      <trkpt lat="46.18702" lon="6.51318">
        <ele>1083</ele>
        <time>2012-07-14T12:35:43Z</time>
      </trkpt>
      <trkpt lat="46.18699" lon="6.51332">
        <ele>1083</ele>
        <time>2012-07-14T12:35:45Z</time>
      </trkpt>
      <trkpt lat="46.18685" lon="6.51342">
        <ele>1092</ele>
        <time>2012-07-14T12:35:47Z</time>
      </trkpt>
      <trkpt lat="46.18669" lon="6.51349">
        <ele>1092</ele>
        <time>2012-07-14T12:35:49Z</time>
      </trkpt>
      <trkpt lat="46.18653" lon="6.5135">
        <ele>1092</ele>
        <time>2012-07-14T12:35:51Z</time>
      </trkpt>
      <trkpt lat="46.18639" lon="6.5134">
        <ele>1092</ele>
        <time>2012-07-14T12:35:53Z</time>
      </trkpt>
      <trkpt lat="46.18633" lon="6.51331">
        <ele>1092</ele>
        <time>2012-07-14T12:35:58Z</time>
      </trkpt>
      <trkpt lat="46.1864" lon="6.51349">
        <ele>1092</ele>
        <time>2012-07-14T12:36:36Z</time>
      </trkpt>
      <trkpt lat="46.18652" lon="6.51355">
        <ele>1092</ele>
        <time>2012-07-14T12:36:38Z</time>
      </trkpt>
      <trkpt lat="46.18669" lon="6.51362">
        <ele>1092</ele>
        <time>2012-07-14T12:36:40Z</time>
      </trkpt>
      <trkpt lat="46.18685" lon="6.51369">
        <ele>1092</ele>
        <time>2012-07-14T12:36:42Z</time>
      </trkpt>
      <trkpt lat="46.18702" lon="6.51378">
        <ele>1092</ele>
        <time>2012-07-14T12:36:44Z</time>
      </trkpt>
      <trkpt lat="46.18715" lon="6.51391">
        <ele>1092</ele>
        <time>2012-07-14T12:36:46Z</time>
      </trkpt>
      <trkpt lat="46.1873" lon="6.51408">
        <ele>1092</ele>
        <time>2012-07-14T12:36:48Z</time>
      </trkpt>
      <trkpt lat="46.18737" lon="6.51418">
        <ele>1092</ele>
        <time>2012-07-14T12:36:49Z</time>
      </trkpt>
      <trkpt lat="46.18744" lon="6.5143">
        <ele>1092</ele>
        <time>2012-07-14T12:36:50Z</time>
      </trkpt>
      <trkpt lat="46.18751" lon="6.51441">
        <ele>1092</ele>
        <time>2012-07-14T12:36:51Z</time>
      </trkpt>
      <trkpt lat="46.18757" lon="6.51451">
        <ele>1092</ele>
        <time>2012-07-14T12:36:52Z</time>
      </trkpt>
      <trkpt lat="46.18765" lon="6.51472">
        <ele>1092</ele>
        <time>2012-07-14T12:36:54Z</time>
      </trkpt>
      <trkpt lat="46.18764" lon="6.51492">
        <ele>1092</ele>
        <time>2012-07-14T12:36:56Z</time>
      </trkpt>
      <trkpt lat="46.1876" lon="6.51513">
        <ele>1099</ele>
        <time>2012-07-14T12:36:58Z</time>
      </trkpt>
      <trkpt lat="46.18755" lon="6.51538">
        <ele>1099</ele>
        <time>2012-07-14T12:37:00Z</time>
      </trkpt>
      <trkpt lat="46.18752" lon="6.51553">
        <ele>1099</ele>
        <time>2012-07-14T12:37:01Z</time>
      </trkpt>
      <trkpt lat="46.18751" lon="6.51576">
        <ele>1099</ele>
        <time>2012-07-14T12:37:03Z</time>
      </trkpt>
      <trkpt lat="46.18744" lon="6.51601">
        <ele>1107</ele>
        <time>2012-07-14T12:37:05Z</time>
      </trkpt>
      <trkpt lat="46.18739" lon="6.51613">
        <ele>1107</ele>
        <time>2012-07-14T12:37:06Z</time>
      </trkpt>
      <trkpt lat="46.18735" lon="6.51626">
        <ele>1113</ele>
        <time>2012-07-14T12:37:07Z</time>
      </trkpt>
      <trkpt lat="46.1873" lon="6.51641">
        <ele>1113</ele>
        <time>2012-07-14T12:37:08Z</time>
      </trkpt>
      <trkpt lat="46.18727" lon="6.51657">
        <ele>1113</ele>
        <time>2012-07-14T12:37:09Z</time>
      </trkpt>
      <trkpt lat="46.18724" lon="6.5167">
        <ele>1118</ele>
        <time>2012-07-14T12:37:10Z</time>
      </trkpt>
      <trkpt lat="46.18721" lon="6.51685">
        <ele>1118</ele>
        <time>2012-07-14T12:37:11Z</time>
      </trkpt>
      <trkpt lat="46.18722" lon="6.51699">
        <ele>1118</ele>
        <time>2012-07-14T12:37:12Z</time>
      </trkpt>
      <trkpt lat="46.18727" lon="6.51712">
        <ele>1118</ele>
        <time>2012-07-14T12:37:13Z</time>
      </trkpt>
      <trkpt lat="46.1873" lon="6.51725">
        <ele>1118</ele>
        <time>2012-07-14T12:37:14Z</time>
      </trkpt>
      <trkpt lat="46.18733" lon="6.51751">
        <ele>1123</ele>
        <time>2012-07-14T12:37:16Z</time>
      </trkpt>
      <trkpt lat="46.18734" lon="6.51766">
        <ele>1123</ele>
        <time>2012-07-14T12:37:17Z</time>
      </trkpt>
      <trkpt lat="46.18734" lon="6.5178">
        <ele>1123</ele>
        <time>2012-07-14T12:37:18Z</time>
      </trkpt>
      <trkpt lat="46.1874" lon="6.51791">
        <ele>1130</ele>
        <time>2012-07-14T12:37:19Z</time>
      </trkpt>
      <trkpt lat="46.18747" lon="6.51814">
        <ele>1130</ele>
        <time>2012-07-14T12:37:21Z</time>
      </trkpt>
      <trkpt lat="46.1875" lon="6.51828">
        <ele>1130</ele>
        <time>2012-07-14T12:37:22Z</time>
      </trkpt>
      <trkpt lat="46.18752" lon="6.51843">
        <ele>1136</ele>
        <time>2012-07-14T12:37:23Z</time>
      </trkpt>
      <trkpt lat="46.18753" lon="6.51859">
        <ele>1136</ele>
        <time>2012-07-14T12:37:24Z</time>
      </trkpt>
      <trkpt lat="46.18754" lon="6.51876">
        <ele>1136</ele>
        <time>2012-07-14T12:37:25Z</time>
      </trkpt>
      <trkpt lat="46.18756" lon="6.51892">
        <ele>1141</ele>
        <time>2012-07-14T12:37:26Z</time>
      </trkpt>
      <trkpt lat="46.18759" lon="6.51906">
        <ele>1141</ele>
        <time>2012-07-14T12:37:27Z</time>
      </trkpt>
      <trkpt lat="46.1876" lon="6.51927">
        <ele>1147</ele>
        <time>2012-07-14T12:37:29Z</time>
      </trkpt>
      <trkpt lat="46.18754" lon="6.51945">
        <ele>1147</ele>
        <time>2012-07-14T12:37:31Z</time>
      </trkpt>
      <trkpt lat="46.18745" lon="6.51961">
        <ele>1155</ele>
        <time>2012-07-14T12:37:33Z</time>
      </trkpt>
      <trkpt lat="46.18737" lon="6.51978">
        <ele>1155</ele>
        <time>2012-07-14T12:37:35Z</time>
      </trkpt>
      <trkpt lat="46.18733" lon="6.52001">
        <ele>1155</ele>
        <time>2012-07-14T12:37:37Z</time>
      </trkpt>
      <trkpt lat="46.18732" lon="6.52015">
        <ele>1161</ele>
        <time>2012-07-14T12:37:38Z</time>
      </trkpt>
      <trkpt lat="46.18728" lon="6.52039">
        <ele>1168</ele>
        <time>2012-07-14T12:37:40Z</time>
      </trkpt>
      <trkpt lat="46.18724" lon="6.5205">
        <ele>1168</ele>
        <time>2012-07-14T12:37:41Z</time>
      </trkpt>
      <trkpt lat="46.18723" lon="6.52065">
        <ele>1174</ele>
        <time>2012-07-14T12:37:42Z</time>
      </trkpt>
      <trkpt lat="46.18719" lon="6.52081">
        <ele>1174</ele>
        <time>2012-07-14T12:37:43Z</time>
      </trkpt>
      <trkpt lat="46.18717" lon="6.52094">
        <ele>1174</ele>
        <time>2012-07-14T12:37:44Z</time>
      </trkpt>
      <trkpt lat="46.18714" lon="6.5211">
        <ele>1174</ele>
        <time>2012-07-14T12:37:45Z</time>
      </trkpt>
      <trkpt lat="46.18712" lon="6.52125">
        <ele>1174</ele>
        <time>2012-07-14T12:37:46Z</time>
      </trkpt>
      <trkpt lat="46.1871" lon="6.52138">
        <ele>1181</ele>
        <time>2012-07-14T12:37:47Z</time>
      </trkpt>
      <trkpt lat="46.18709" lon="6.52152">
        <ele>1181</ele>
        <time>2012-07-14T12:37:48Z</time>
      </trkpt>
      <trkpt lat="46.18707" lon="6.52176">
        <ele>1181</ele>
        <time>2012-07-14T12:37:50Z</time>
      </trkpt>
      <trkpt lat="46.18691" lon="6.52194">
        <ele>1193</ele>
        <time>2012-07-14T12:37:52Z</time>
      </trkpt>
      <trkpt lat="46.1868" lon="6.52201">
        <ele>1193</ele>
        <time>2012-07-14T12:37:53Z</time>
      </trkpt>
      <trkpt lat="46.18669" lon="6.5221">
        <ele>1193</ele>
        <time>2012-07-14T12:37:54Z</time>
      </trkpt>
      <trkpt lat="46.18659" lon="6.52217">
        <ele>1193</ele>
        <time>2012-07-14T12:37:55Z</time>
      </trkpt>
      <trkpt lat="46.18649" lon="6.52226">
        <ele>1199</ele>
        <time>2012-07-14T12:37:56Z</time>
      </trkpt>
      <trkpt lat="46.18639" lon="6.52234">
        <ele>1199</ele>
        <time>2012-07-14T12:37:57Z</time>
      </trkpt>
      <trkpt lat="46.18631" lon="6.52242">
        <ele>1199</ele>
        <time>2012-07-14T12:37:58Z</time>
      </trkpt>
      <trkpt lat="46.18621" lon="6.52259">
        <ele>1204</ele>
        <time>2012-07-14T12:38:00Z</time>
      </trkpt>
      <trkpt lat="46.18622" lon="6.52275">
        <ele>1204</ele>
        <time>2012-07-14T12:38:02Z</time>
      </trkpt>
      <trkpt lat="46.18631" lon="6.52287">
        <ele>1204</ele>
        <time>2012-07-14T12:38:04Z</time>
      </trkpt>
      <trkpt lat="46.18641" lon="6.52301">
        <ele>1204</ele>
        <time>2012-07-14T12:38:06Z</time>
      </trkpt>
      <trkpt lat="46.18647" lon="6.52322">
        <ele>1209</ele>
        <time>2012-07-14T12:38:08Z</time>
      </trkpt>
      <trkpt lat="46.1865" lon="6.52335">
        <ele>1209</ele>
        <time>2012-07-14T12:38:09Z</time>
      </trkpt>
      <trkpt lat="46.18653" lon="6.5235">
        <ele>1209</ele>
        <time>2012-07-14T12:38:10Z</time>
      </trkpt>
      <trkpt lat="46.18656" lon="6.52366">
        <ele>1209</ele>
        <time>2012-07-14T12:38:11Z</time>
      </trkpt>
      <trkpt lat="46.18659" lon="6.52383">
        <ele>1216</ele>
        <time>2012-07-14T12:38:12Z</time>
      </trkpt>
      <trkpt lat="46.18664" lon="6.52398">
        <ele>1216</ele>
        <time>2012-07-14T12:38:13Z</time>
      </trkpt>
      <trkpt lat="46.18669" lon="6.52414">
        <ele>1216</ele>
        <time>2012-07-14T12:38:14Z</time>
      </trkpt>
      <trkpt lat="46.18672" lon="6.52429">
        <ele>1216</ele>
        <time>2012-07-14T12:38:15Z</time>
      </trkpt>
      <trkpt lat="46.18675" lon="6.52446">
        <ele>1216</ele>
        <time>2012-07-14T12:38:16Z</time>
      </trkpt>
      <trkpt lat="46.18677" lon="6.52463">
        <ele>1216</ele>
        <time>2012-07-14T12:38:17Z</time>
      </trkpt>
      <trkpt lat="46.18679" lon="6.5248">
        <ele>1216</ele>
        <time>2012-07-14T12:38:18Z</time>
      </trkpt>
      <trkpt lat="46.18683" lon="6.52495">
        <ele>1221</ele>
        <time>2012-07-14T12:38:19Z</time>
      </trkpt>
      <trkpt lat="46.18686" lon="6.52512">
        <ele>1221</ele>
        <time>2012-07-14T12:38:20Z</time>
      </trkpt>
      <trkpt lat="46.18689" lon="6.52528">
        <ele>1221</ele>
        <time>2012-07-14T12:38:21Z</time>
      </trkpt>
      <trkpt lat="46.18691" lon="6.52544">
        <ele>1221</ele>
        <time>2012-07-14T12:38:22Z</time>
      </trkpt>
      <trkpt lat="46.18693" lon="6.52561">
        <ele>1226</ele>
        <time>2012-07-14T12:38:23Z</time>
      </trkpt>
      <trkpt lat="46.18692" lon="6.52578">
        <ele>1226</ele>
        <time>2012-07-14T12:38:24Z</time>
      </trkpt>
      <trkpt lat="46.18692" lon="6.52592">
        <ele>1226</ele>
        <time>2012-07-14T12:38:25Z</time>
      </trkpt>
      <trkpt lat="46.18689" lon="6.52606">
        <ele>1226</ele>
        <time>2012-07-14T12:38:26Z</time>
      </trkpt>
      <trkpt lat="46.18689" lon="6.5262">
        <ele>1226</ele>
        <time>2012-07-14T12:38:27Z</time>
      </trkpt>
      <trkpt lat="46.18689" lon="6.52634">
        <ele>1231</ele>
        <time>2012-07-14T12:38:28Z</time>
      </trkpt>
      <trkpt lat="46.18689" lon="6.52649">
        <ele>1231</ele>
        <time>2012-07-14T12:38:29Z</time>
      </trkpt>
      <trkpt lat="46.18689" lon="6.52666">
        <ele>1231</ele>
        <time>2012-07-14T12:38:30Z</time>
      </trkpt>
      <trkpt lat="46.18688" lon="6.52683">
        <ele>1236</ele>
        <time>2012-07-14T12:38:31Z</time>
      </trkpt>
      <trkpt lat="46.18688" lon="6.52701">
        <ele>1236</ele>
        <time>2012-07-14T12:38:32Z</time>
      </trkpt>
      <trkpt lat="46.18681" lon="6.5272">
        <ele>1236</ele>
        <time>2012-07-14T12:38:33Z</time>
      </trkpt>
      <trkpt lat="46.18677" lon="6.52738">
        <ele>1236</ele>
        <time>2012-07-14T12:38:34Z</time>
      </trkpt>
      <trkpt lat="46.18676" lon="6.52757">
        <ele>1243</ele>
        <time>2012-07-14T12:38:35Z</time>
      </trkpt>
      <trkpt lat="46.18677" lon="6.52773">
        <ele>1243</ele>
        <time>2012-07-14T12:38:36Z</time>
      </trkpt>
      <trkpt lat="46.18675" lon="6.52789">
        <ele>1243</ele>
        <time>2012-07-14T12:38:37Z</time>
      </trkpt>
      <trkpt lat="46.18675" lon="6.52804">
        <ele>1243</ele>
        <time>2012-07-14T12:38:38Z</time>
      </trkpt>
      <trkpt lat="46.18674" lon="6.52819">
        <ele>1248</ele>
        <time>2012-07-14T12:38:39Z</time>
      </trkpt>
      <trkpt lat="46.18672" lon="6.52837">
        <ele>1248</ele>
        <time>2012-07-14T12:38:40Z</time>
      </trkpt>
      <trkpt lat="46.18669" lon="6.52853">
        <ele>1248</ele>
        <time>2012-07-14T12:38:41Z</time>
      </trkpt>
      <trkpt lat="46.18666" lon="6.52871">
        <ele>1248</ele>
        <time>2012-07-14T12:38:42Z</time>
      </trkpt>
      <trkpt lat="46.18662" lon="6.52892">
        <ele>1248</ele>
        <time>2012-07-14T12:38:43Z</time>
      </trkpt>
      <trkpt lat="46.18659" lon="6.52911">
        <ele>1254</ele>
        <time>2012-07-14T12:38:44Z</time>
      </trkpt>
      <trkpt lat="46.18656" lon="6.52931">
        <ele>1254</ele>
        <time>2012-07-14T12:38:45Z</time>
      </trkpt>
      <trkpt lat="46.18653" lon="6.52947">
        <ele>1259</ele>
        <time>2012-07-14T12:38:46Z</time>
      </trkpt>
      <trkpt lat="46.18649" lon="6.52962">
        <ele>1259</ele>
        <time>2012-07-14T12:38:47Z</time>
      </trkpt>
      <trkpt lat="46.18638" lon="6.52982">
        <ele>1267</ele>
        <time>2012-07-14T12:38:49Z</time>
      </trkpt>
      <trkpt lat="46.18618" lon="6.5301">
        <ele>1267</ele>
        <time>2012-07-14T12:38:52Z</time>
      </trkpt>
      <trkpt lat="46.18608" lon="6.5302">
        <ele>1273</ele>
        <time>2012-07-14T12:38:53Z</time>
      </trkpt>
      <trkpt lat="46.18599" lon="6.53031">
        <ele>1273</ele>
        <time>2012-07-14T12:38:54Z</time>
      </trkpt>
      <trkpt lat="46.1859" lon="6.53043">
        <ele>1282</ele>
        <time>2012-07-14T12:38:55Z</time>
      </trkpt>
      <trkpt lat="46.18582" lon="6.53052">
        <ele>1282</ele>
        <time>2012-07-14T12:38:56Z</time>
      </trkpt>
      <trkpt lat="46.18573" lon="6.53061">
        <ele>1282</ele>
        <time>2012-07-14T12:38:57Z</time>
      </trkpt>
      <trkpt lat="46.18563" lon="6.53065">
        <ele>1282</ele>
        <time>2012-07-14T12:38:58Z</time>
      </trkpt>
      <trkpt lat="46.18553" lon="6.53071">
        <ele>1288</ele>
        <time>2012-07-14T12:38:59Z</time>
      </trkpt>
      <trkpt lat="46.18538" lon="6.53082">
        <ele>1288</ele>
        <time>2012-07-14T12:39:01Z</time>
      </trkpt>
      <trkpt lat="46.18526" lon="6.53094">
        <ele>1288</ele>
        <time>2012-07-14T12:39:03Z</time>
      </trkpt>
      <trkpt lat="46.18519" lon="6.53106">
        <ele>1288</ele>
        <time>2012-07-14T12:39:05Z</time>
      </trkpt>
      <trkpt lat="46.18509" lon="6.53113">
        <ele>1294</ele>
        <time>2012-07-14T12:39:07Z</time>
      </trkpt>
      <trkpt lat="46.18499" lon="6.53119">
        <ele>1294</ele>
        <time>2012-07-14T12:39:09Z</time>
      </trkpt>
      <trkpt lat="46.18489" lon="6.53126">
        <ele>1301</ele>
        <time>2012-07-14T12:39:11Z</time>
      </trkpt>
      <trkpt lat="46.1848" lon="6.53134">
        <ele>1301</ele>
        <time>2012-07-14T12:39:13Z</time>
      </trkpt>
      <trkpt lat="46.18472" lon="6.53144">
        <ele>1307</ele>
        <time>2012-07-14T12:39:15Z</time>
      </trkpt>
      <trkpt lat="46.18464" lon="6.53153">
        <ele>1307</ele>
        <time>2012-07-14T12:39:17Z</time>
      </trkpt>
      <trkpt lat="46.18453" lon="6.53161">
        <ele>1307</ele>
        <time>2012-07-14T12:39:19Z</time>
      </trkpt>
      <trkpt lat="46.18439" lon="6.53174">
        <ele>1314</ele>
        <time>2012-07-14T12:39:21Z</time>
      </trkpt>
      <trkpt lat="46.18431" lon="6.5318">
        <ele>1314</ele>
        <time>2012-07-14T12:39:22Z</time>
      </trkpt>
      <trkpt lat="46.18422" lon="6.53187">
        <ele>1314</ele>
        <time>2012-07-14T12:39:23Z</time>
      </trkpt>
      <trkpt lat="46.18414" lon="6.53194">
        <ele>1314</ele>
        <time>2012-07-14T12:39:24Z</time>
      </trkpt>
      <trkpt lat="46.18404" lon="6.53197">
        <ele>1314</ele>
        <time>2012-07-14T12:39:25Z</time>
      </trkpt>
      <trkpt lat="46.18393" lon="6.53204">
        <ele>1320</ele>
        <time>2012-07-14T12:39:26Z</time>
      </trkpt>
      <trkpt lat="46.18381" lon="6.53209">
        <ele>1320</ele>
        <time>2012-07-14T12:39:27Z</time>
      </trkpt>
      <trkpt lat="46.18369" lon="6.53212">
        <ele>1320</ele>
        <time>2012-07-14T12:39:28Z</time>
      </trkpt>
      <trkpt lat="46.18359" lon="6.53215">
        <ele>1328</ele>
        <time>2012-07-14T12:39:29Z</time>
      </trkpt>
      <trkpt lat="46.18342" lon="6.53219">
        <ele>1328</ele>
        <time>2012-07-14T12:39:31Z</time>
      </trkpt>
      <trkpt lat="46.18327" lon="6.53223">
        <ele>1328</ele>
        <time>2012-07-14T12:39:33Z</time>
      </trkpt>
      <trkpt lat="46.18314" lon="6.53232">
        <ele>1336</ele>
        <time>2012-07-14T12:39:35Z</time>
      </trkpt>
      <trkpt lat="46.18303" lon="6.53241">
        <ele>1336</ele>
        <time>2012-07-14T12:39:37Z</time>
      </trkpt>
      <trkpt lat="46.18287" lon="6.53252">
        <ele>1336</ele>
        <time>2012-07-14T12:39:39Z</time>
      </trkpt>
      <trkpt lat="46.18277" lon="6.53256">
        <ele>1341</ele>
        <time>2012-07-14T12:39:40Z</time>
      </trkpt>
      <trkpt lat="46.18266" lon="6.5326">
        <ele>1341</ele>
        <time>2012-07-14T12:39:41Z</time>
      </trkpt>
      <trkpt lat="46.18255" lon="6.53267">
        <ele>1341</ele>
        <time>2012-07-14T12:39:42Z</time>
      </trkpt>
      <trkpt lat="46.18246" lon="6.53274">
        <ele>1341</ele>
        <time>2012-07-14T12:39:43Z</time>
      </trkpt>
      <trkpt lat="46.18236" lon="6.53282">
        <ele>1341</ele>
        <time>2012-07-14T12:39:44Z</time>
      </trkpt>
      <trkpt lat="46.18229" lon="6.5329">
        <ele>1347</ele>
        <time>2012-07-14T12:39:45Z</time>
      </trkpt>
      <trkpt lat="46.18214" lon="6.53304">
        <ele>1347</ele>
        <time>2012-07-14T12:39:47Z</time>
      </trkpt>
      <trkpt lat="46.18202" lon="6.53322">
        <ele>1347</ele>
        <time>2012-07-14T12:39:49Z</time>
      </trkpt>
      <trkpt lat="46.18194" lon="6.53339">
        <ele>1347</ele>
        <time>2012-07-14T12:39:51Z</time>
      </trkpt>
      <trkpt lat="46.18188" lon="6.53362">
        <ele>1347</ele>
        <time>2012-07-14T12:39:53Z</time>
      </trkpt>
      <trkpt lat="46.18182" lon="6.53374">
        <ele>1347</ele>
        <time>2012-07-14T12:39:54Z</time>
      </trkpt>
      <trkpt lat="46.18171" lon="6.53392">
        <ele>1347</ele>
        <time>2012-07-14T12:39:56Z</time>
      </trkpt>
      <trkpt lat="46.18163" lon="6.53399">
        <ele>1347</ele>
        <time>2012-07-14T12:39:57Z</time>
      </trkpt>
      <trkpt lat="46.18147" lon="6.53409">
        <ele>1347</ele>
        <time>2012-07-14T12:39:59Z</time>
      </trkpt>
      <trkpt lat="46.18134" lon="6.53421">
        <ele>1347</ele>
        <time>2012-07-14T12:40:01Z</time>
      </trkpt>
      <trkpt lat="46.18129" lon="6.53446">
        <ele>1340</ele>
        <time>2012-07-14T12:40:03Z</time>
      </trkpt>
      <trkpt lat="46.18121" lon="6.53485">
        <ele>1340</ele>
        <time>2012-07-14T12:40:06Z</time>
      </trkpt>
      <trkpt lat="46.18118" lon="6.53506">
        <ele>1340</ele>
        <time>2012-07-14T12:40:07Z</time>
      </trkpt>
      <trkpt lat="46.1811" lon="6.53517">
        <ele>1340</ele>
        <time>2012-07-14T12:40:09Z</time>
      </trkpt>
      <trkpt lat="46.181" lon="6.53518">
        <ele>1340</ele>
        <time>2012-07-14T12:40:12Z</time>
      </trkpt>
      <trkpt lat="46.1809" lon="6.53521">
        <ele>1340</ele>
        <time>2012-07-14T12:40:18Z</time>
      </trkpt>
      <trkpt lat="46.18078" lon="6.53525">
        <ele>1340</ele>
        <time>2012-07-14T12:40:21Z</time>
      </trkpt>
      <trkpt lat="46.18068" lon="6.53534">
        <ele>1340</ele>
        <time>2012-07-14T12:40:23Z</time>
      </trkpt>
      <trkpt lat="46.18057" lon="6.53538">
        <ele>1340</ele>
        <time>2012-07-14T12:40:25Z</time>
      </trkpt>
      <trkpt lat="46.1805" lon="6.5352">
        <ele>1340</ele>
        <time>2012-07-14T12:40:28Z</time>
      </trkpt>
      <trkpt lat="46.18054" lon="6.535">
        <ele>1340</ele>
        <time>2012-07-14T12:40:30Z</time>
      </trkpt>
      <trkpt lat="46.1806" lon="6.53479">
        <ele>1340</ele>
        <time>2012-07-14T12:40:32Z</time>
      </trkpt>
      <trkpt lat="46.18064" lon="6.53465">
        <ele>1345</ele>
        <time>2012-07-14T12:40:34Z</time>
      </trkpt>
      <trkpt lat="46.18068" lon="6.53447">
        <ele>1345</ele>
        <time>2012-07-14T12:40:36Z</time>
      </trkpt>
      <trkpt lat="46.18073" lon="6.53424">
        <ele>1345</ele>
        <time>2012-07-14T12:40:38Z</time>
      </trkpt>
      <trkpt lat="46.18078" lon="6.53412">
        <ele>1345</ele>
        <time>2012-07-14T12:40:39Z</time>
      </trkpt>
      <trkpt lat="46.18084" lon="6.534">
        <ele>1345</ele>
        <time>2012-07-14T12:40:40Z</time>
      </trkpt>
      <trkpt lat="46.18091" lon="6.53391">
        <ele>1345</ele>
        <time>2012-07-14T12:40:41Z</time>
      </trkpt>
      <trkpt lat="46.18099" lon="6.53382">
        <ele>1345</ele>
        <time>2012-07-14T12:40:42Z</time>
      </trkpt>
      <trkpt lat="46.18108" lon="6.53374">
        <ele>1345</ele>
        <time>2012-07-14T12:40:43Z</time>
      </trkpt>
      <trkpt lat="46.18116" lon="6.53367">
        <ele>1345</ele>
        <time>2012-07-14T12:40:44Z</time>
      </trkpt>
      <trkpt lat="46.18125" lon="6.53359">
        <ele>1345</ele>
        <time>2012-07-14T12:40:45Z</time>
      </trkpt>
      <trkpt lat="46.18131" lon="6.53349">
        <ele>1345</ele>
        <time>2012-07-14T12:40:46Z</time>
      </trkpt>
      <trkpt lat="46.18139" lon="6.53338">
        <ele>1345</ele>
        <time>2012-07-14T12:40:47Z</time>
      </trkpt>
      <trkpt lat="46.18147" lon="6.53324">
        <ele>1345</ele>
        <time>2012-07-14T12:40:48Z</time>
      </trkpt>
      <trkpt lat="46.18155" lon="6.53313">
        <ele>1345</ele>
        <time>2012-07-14T12:40:49Z</time>
      </trkpt>
      <trkpt lat="46.18163" lon="6.53302">
        <ele>1345</ele>
        <time>2012-07-14T12:40:50Z</time>
      </trkpt>
      <trkpt lat="46.1817" lon="6.5329">
        <ele>1345</ele>
        <time>2012-07-14T12:40:51Z</time>
      </trkpt>
      <trkpt lat="46.18177" lon="6.53276">
        <ele>1345</ele>
        <time>2012-07-14T12:40:52Z</time>
      </trkpt>
      <trkpt lat="46.18185" lon="6.53265">
        <ele>1345</ele>
        <time>2012-07-14T12:40:53Z</time>
      </trkpt>
      <trkpt lat="46.18192" lon="6.53253">
        <ele>1345</ele>
        <time>2012-07-14T12:40:54Z</time>
      </trkpt>
      <trkpt lat="46.182" lon="6.53242">
        <ele>1345</ele>
        <time>2012-07-14T12:40:55Z</time>
      </trkpt>
      <trkpt lat="46.18209" lon="6.53232">
        <ele>1345</ele>
        <time>2012-07-14T12:40:56Z</time>
      </trkpt>
      <trkpt lat="46.18219" lon="6.53223">
        <ele>1345</ele>
        <time>2012-07-14T12:40:57Z</time>
      </trkpt>
      <trkpt lat="46.18231" lon="6.53213">
        <ele>1345</ele>
        <time>2012-07-14T12:40:58Z</time>
      </trkpt>
      <trkpt lat="46.18242" lon="6.53204">
        <ele>1345</ele>
        <time>2012-07-14T12:40:59Z</time>
      </trkpt>
      <trkpt lat="46.18251" lon="6.53194">
        <ele>1345</ele>
        <time>2012-07-14T12:41:00Z</time>
      </trkpt>
      <trkpt lat="46.18259" lon="6.53187">
        <ele>1345</ele>
        <time>2012-07-14T12:41:01Z</time>
      </trkpt>
      <trkpt lat="46.18267" lon="6.53178">
        <ele>1351</ele>
        <time>2012-07-14T12:41:02Z</time>
      </trkpt>
      <trkpt lat="46.18275" lon="6.53169">
        <ele>1351</ele>
        <time>2012-07-14T12:41:03Z</time>
      </trkpt>
      <trkpt lat="46.18289" lon="6.53156">
        <ele>1351</ele>
        <time>2012-07-14T12:41:05Z</time>
      </trkpt>
      <trkpt lat="46.18306" lon="6.53147">
        <ele>1346</ele>
        <time>2012-07-14T12:41:07Z</time>
      </trkpt>
      <trkpt lat="46.18322" lon="6.53135">
        <ele>1346</ele>
        <time>2012-07-14T12:41:09Z</time>
      </trkpt>
      <trkpt lat="46.18334" lon="6.53126">
        <ele>1346</ele>
        <time>2012-07-14T12:41:10Z</time>
      </trkpt>
      <trkpt lat="46.18345" lon="6.5312">
        <ele>1346</ele>
        <time>2012-07-14T12:41:11Z</time>
      </trkpt>
      <trkpt lat="46.18354" lon="6.53114">
        <ele>1340</ele>
        <time>2012-07-14T12:41:12Z</time>
      </trkpt>
      <trkpt lat="46.18363" lon="6.53107">
        <ele>1340</ele>
        <time>2012-07-14T12:41:13Z</time>
      </trkpt>
      <trkpt lat="46.18374" lon="6.53095">
        <ele>1340</ele>
        <time>2012-07-14T12:41:14Z</time>
      </trkpt>
      <trkpt lat="46.18385" lon="6.53082">
        <ele>1340</ele>
        <time>2012-07-14T12:41:15Z</time>
      </trkpt>
      <trkpt lat="46.18395" lon="6.53071">
        <ele>1340</ele>
        <time>2012-07-14T12:41:16Z</time>
      </trkpt>
      <trkpt lat="46.18405" lon="6.53062">
        <ele>1340</ele>
        <time>2012-07-14T12:41:17Z</time>
      </trkpt>
      <trkpt lat="46.18416" lon="6.53055">
        <ele>1340</ele>
        <time>2012-07-14T12:41:18Z</time>
      </trkpt>
      <trkpt lat="46.18427" lon="6.53047">
        <ele>1340</ele>
        <time>2012-07-14T12:41:19Z</time>
      </trkpt>
      <trkpt lat="46.18437" lon="6.53041">
        <ele>1340</ele>
        <time>2012-07-14T12:41:20Z</time>
      </trkpt>
      <trkpt lat="46.18445" lon="6.53032">
        <ele>1340</ele>
        <time>2012-07-14T12:41:21Z</time>
      </trkpt>
      <trkpt lat="46.18453" lon="6.53023">
        <ele>1340</ele>
        <time>2012-07-14T12:41:22Z</time>
      </trkpt>
      <trkpt lat="46.1846" lon="6.53012">
        <ele>1340</ele>
        <time>2012-07-14T12:41:23Z</time>
      </trkpt>
      <trkpt lat="46.18467" lon="6.53001">
        <ele>1340</ele>
        <time>2012-07-14T12:41:24Z</time>
      </trkpt>
      <trkpt lat="46.18472" lon="6.52988">
        <ele>1333</ele>
        <time>2012-07-14T12:41:25Z</time>
      </trkpt>
      <trkpt lat="46.1848" lon="6.52969">
        <ele>1333</ele>
        <time>2012-07-14T12:41:27Z</time>
      </trkpt>
      <trkpt lat="46.18487" lon="6.52958">
        <ele>1333</ele>
        <time>2012-07-14T12:41:28Z</time>
      </trkpt>
      <trkpt lat="46.18492" lon="6.52947">
        <ele>1333</ele>
        <time>2012-07-14T12:41:29Z</time>
      </trkpt>
      <trkpt lat="46.18498" lon="6.52936">
        <ele>1333</ele>
        <time>2012-07-14T12:41:30Z</time>
      </trkpt>
      <trkpt lat="46.185" lon="6.52923">
        <ele>1333</ele>
        <time>2012-07-14T12:41:32Z</time>
      </trkpt>
      <trkpt lat="46.18503" lon="6.52904">
        <ele>1339</ele>
        <time>2012-07-14T12:41:34Z</time>
      </trkpt>
      <trkpt lat="46.18513" lon="6.52879">
        <ele>1339</ele>
        <time>2012-07-14T12:41:36Z</time>
      </trkpt>
      <trkpt lat="46.18519" lon="6.52862">
        <ele>1339</ele>
        <time>2012-07-14T12:41:37Z</time>
      </trkpt>
      <trkpt lat="46.18525" lon="6.5284">
        <ele>1339</ele>
        <time>2012-07-14T12:41:38Z</time>
      </trkpt>
      <trkpt lat="46.18528" lon="6.52822">
        <ele>1345</ele>
        <time>2012-07-14T12:41:39Z</time>
      </trkpt>
      <trkpt lat="46.18533" lon="6.52802">
        <ele>1345</ele>
        <time>2012-07-14T12:41:40Z</time>
      </trkpt>
      <trkpt lat="46.18537" lon="6.52784">
        <ele>1345</ele>
        <time>2012-07-14T12:41:41Z</time>
      </trkpt>
      <trkpt lat="46.1854" lon="6.52765">
        <ele>1345</ele>
        <time>2012-07-14T12:41:42Z</time>
      </trkpt>
      <trkpt lat="46.18541" lon="6.52746">
        <ele>1351</ele>
        <time>2012-07-14T12:41:43Z</time>
      </trkpt>
      <trkpt lat="46.18541" lon="6.52728">
        <ele>1351</ele>
        <time>2012-07-14T12:41:44Z</time>
      </trkpt>
      <trkpt lat="46.18543" lon="6.52711">
        <ele>1351</ele>
        <time>2012-07-14T12:41:45Z</time>
      </trkpt>
      <trkpt lat="46.18542" lon="6.52695">
        <ele>1351</ele>
        <time>2012-07-14T12:41:46Z</time>
      </trkpt>
      <trkpt lat="46.18541" lon="6.52679">
        <ele>1351</ele>
        <time>2012-07-14T12:41:47Z</time>
      </trkpt>
      <trkpt lat="46.1854" lon="6.52664">
        <ele>1351</ele>
        <time>2012-07-14T12:41:48Z</time>
      </trkpt>
      <trkpt lat="46.18537" lon="6.52649">
        <ele>1351</ele>
        <time>2012-07-14T12:41:49Z</time>
      </trkpt>
      <trkpt lat="46.18534" lon="6.52632">
        <ele>1358</ele>
        <time>2012-07-14T12:41:50Z</time>
      </trkpt>
      <trkpt lat="46.18531" lon="6.52619">
        <ele>1358</ele>
        <time>2012-07-14T12:41:51Z</time>
      </trkpt>
      <trkpt lat="46.1853" lon="6.52605">
        <ele>1358</ele>
        <time>2012-07-14T12:41:52Z</time>
      </trkpt>
      <trkpt lat="46.18526" lon="6.52586">
        <ele>1358</ele>
        <time>2012-07-14T12:41:54Z</time>
      </trkpt>
      <trkpt lat="46.18521" lon="6.52572">
        <ele>1358</ele>
        <time>2012-07-14T12:41:56Z</time>
      </trkpt>
      <trkpt lat="46.18514" lon="6.52562">
        <ele>1365</ele>
        <time>2012-07-14T12:41:58Z</time>
      </trkpt>
      <trkpt lat="46.18505" lon="6.52553">
        <ele>1365</ele>
        <time>2012-07-14T12:42:00Z</time>
      </trkpt>
      <trkpt lat="46.18495" lon="6.52543">
        <ele>1365</ele>
        <time>2012-07-14T12:42:02Z</time>
      </trkpt>
      <trkpt lat="46.18485" lon="6.52535">
        <ele>1365</ele>
        <time>2012-07-14T12:42:04Z</time>
      </trkpt>
      <trkpt lat="46.18475" lon="6.52529">
        <ele>1365</ele>
        <time>2012-07-14T12:42:06Z</time>
      </trkpt>
      <trkpt lat="46.18463" lon="6.52522">
        <ele>1365</ele>
        <time>2012-07-14T12:42:09Z</time>
      </trkpt>
      <trkpt lat="46.18454" lon="6.52517">
        <ele>1365</ele>
        <time>2012-07-14T12:42:11Z</time>
      </trkpt>
      <trkpt lat="46.1844" lon="6.5251">
        <ele>1365</ele>
        <time>2012-07-14T12:42:13Z</time>
      </trkpt>
      <trkpt lat="46.18431" lon="6.52506">
        <ele>1365</ele>
        <time>2012-07-14T12:42:14Z</time>
      </trkpt>
      <trkpt lat="46.18422" lon="6.52502">
        <ele>1365</ele>
        <time>2012-07-14T12:42:15Z</time>
      </trkpt>
      <trkpt lat="46.18412" lon="6.52496">
        <ele>1365</ele>
        <time>2012-07-14T12:42:16Z</time>
      </trkpt>
      <trkpt lat="46.18402" lon="6.5249">
        <ele>1365</ele>
        <time>2012-07-14T12:42:17Z</time>
      </trkpt>
      <trkpt lat="46.18392" lon="6.52483">
        <ele>1365</ele>
        <time>2012-07-14T12:42:18Z</time>
      </trkpt>
      <trkpt lat="46.18384" lon="6.52476">
        <ele>1371</ele>
        <time>2012-07-14T12:42:19Z</time>
      </trkpt>
      <trkpt lat="46.18375" lon="6.52469">
        <ele>1371</ele>
        <time>2012-07-14T12:42:20Z</time>
      </trkpt>
      <trkpt lat="46.18361" lon="6.52454">
        <ele>1371</ele>
        <time>2012-07-14T12:42:22Z</time>
      </trkpt>
      <trkpt lat="46.18355" lon="6.52442">
        <ele>1371</ele>
        <time>2012-07-14T12:42:23Z</time>
      </trkpt>
      <trkpt lat="46.18349" lon="6.52429">
        <ele>1371</ele>
        <time>2012-07-14T12:42:24Z</time>
      </trkpt>
      <trkpt lat="46.18343" lon="6.52418">
        <ele>1371</ele>
        <time>2012-07-14T12:42:25Z</time>
      </trkpt>
      <trkpt lat="46.18337" lon="6.52406">
        <ele>1371</ele>
        <time>2012-07-14T12:42:26Z</time>
      </trkpt>
      <trkpt lat="46.18331" lon="6.52393">
        <ele>1371</ele>
        <time>2012-07-14T12:42:27Z</time>
      </trkpt>
      <trkpt lat="46.18325" lon="6.52381">
        <ele>1371</ele>
        <time>2012-07-14T12:42:28Z</time>
      </trkpt>
      <trkpt lat="46.1832" lon="6.52368">
        <ele>1371</ele>
        <time>2012-07-14T12:42:29Z</time>
      </trkpt>
      <trkpt lat="46.18316" lon="6.52355">
        <ele>1371</ele>
        <time>2012-07-14T12:42:30Z</time>
      </trkpt>
      <trkpt lat="46.18314" lon="6.52341">
        <ele>1371</ele>
        <time>2012-07-14T12:42:31Z</time>
      </trkpt>
      <trkpt lat="46.18313" lon="6.52328">
        <ele>1371</ele>
        <time>2012-07-14T12:42:32Z</time>
      </trkpt>
      <trkpt lat="46.18313" lon="6.52314">
        <ele>1371</ele>
        <time>2012-07-14T12:42:33Z</time>
      </trkpt>
      <trkpt lat="46.18316" lon="6.523">
        <ele>1371</ele>
        <time>2012-07-14T12:42:34Z</time>
      </trkpt>
      <trkpt lat="46.18319" lon="6.52286">
        <ele>1371</ele>
        <time>2012-07-14T12:42:35Z</time>
      </trkpt>
      <trkpt lat="46.18323" lon="6.5226">
        <ele>1371</ele>
        <time>2012-07-14T12:42:37Z</time>
      </trkpt>
      <trkpt lat="46.18325" lon="6.5224">
        <ele>1371</ele>
        <time>2012-07-14T12:42:39Z</time>
      </trkpt>
      <trkpt lat="46.18323" lon="6.52222">
        <ele>1371</ele>
        <time>2012-07-14T12:42:41Z</time>
      </trkpt>
      <trkpt lat="46.18314" lon="6.52207">
        <ele>1371</ele>
        <time>2012-07-14T12:42:43Z</time>
      </trkpt>
      <trkpt lat="46.183" lon="6.52198">
        <ele>1371</ele>
        <time>2012-07-14T12:42:45Z</time>
      </trkpt>
      <trkpt lat="46.18283" lon="6.52191">
        <ele>1376</ele>
        <time>2012-07-14T12:42:47Z</time>
      </trkpt>
      <trkpt lat="46.18274" lon="6.52189">
        <ele>1376</ele>
        <time>2012-07-14T12:42:48Z</time>
      </trkpt>
      <trkpt lat="46.18255" lon="6.52185">
        <ele>1376</ele>
        <time>2012-07-14T12:42:50Z</time>
      </trkpt>
      <trkpt lat="46.18246" lon="6.52182">
        <ele>1376</ele>
        <time>2012-07-14T12:42:51Z</time>
      </trkpt>
      <trkpt lat="46.18228" lon="6.52179">
        <ele>1376</ele>
        <time>2012-07-14T12:42:53Z</time>
      </trkpt>
      <trkpt lat="46.18218" lon="6.52177">
        <ele>1376</ele>
        <time>2012-07-14T12:42:54Z</time>
      </trkpt>
      <trkpt lat="46.18209" lon="6.52177">
        <ele>1376</ele>
        <time>2012-07-14T12:42:55Z</time>
      </trkpt>
      <trkpt lat="46.18199" lon="6.52176">
        <ele>1376</ele>
        <time>2012-07-14T12:42:56Z</time>
      </trkpt>
      <trkpt lat="46.18189" lon="6.52176">
        <ele>1376</ele>
        <time>2012-07-14T12:42:57Z</time>
      </trkpt>
      <trkpt lat="46.18178" lon="6.52176">
        <ele>1376</ele>
        <time>2012-07-14T12:42:58Z</time>
      </trkpt>
      <trkpt lat="46.18168" lon="6.52177">
        <ele>1376</ele>
        <time>2012-07-14T12:42:59Z</time>
      </trkpt>
      <trkpt lat="46.18156" lon="6.52178">
        <ele>1376</ele>
        <time>2012-07-14T12:43:00Z</time>
      </trkpt>
      <trkpt lat="46.18145" lon="6.5218">
        <ele>1376</ele>
        <time>2012-07-14T12:43:01Z</time>
      </trkpt>
      <trkpt lat="46.18134" lon="6.52181">
        <ele>1376</ele>
        <time>2012-07-14T12:43:02Z</time>
      </trkpt>
      <trkpt lat="46.18123" lon="6.52182">
        <ele>1376</ele>
        <time>2012-07-14T12:43:03Z</time>
      </trkpt>
      <trkpt lat="46.18113" lon="6.52182">
        <ele>1376</ele>
        <time>2012-07-14T12:43:04Z</time>
      </trkpt>
      <trkpt lat="46.18103" lon="6.52183">
        <ele>1376</ele>
        <time>2012-07-14T12:43:05Z</time>
      </trkpt>
      <trkpt lat="46.18093" lon="6.52183">
        <ele>1376</ele>
        <time>2012-07-14T12:43:06Z</time>
      </trkpt>
      <trkpt lat="46.18083" lon="6.52183">
        <ele>1376</ele>
        <time>2012-07-14T12:43:07Z</time>
      </trkpt>
      <trkpt lat="46.18073" lon="6.52183">
        <ele>1376</ele>
        <time>2012-07-14T12:43:08Z</time>
      </trkpt>
      <trkpt lat="46.18063" lon="6.52182">
        <ele>1376</ele>
        <time>2012-07-14T12:43:09Z</time>
      </trkpt>
      <trkpt lat="46.18053" lon="6.52181">
        <ele>1371</ele>
        <time>2012-07-14T12:43:10Z</time>
      </trkpt>
      <trkpt lat="46.18042" lon="6.52181">
        <ele>1371</ele>
        <time>2012-07-14T12:43:11Z</time>
      </trkpt>
      <trkpt lat="46.18031" lon="6.5218">
        <ele>1371</ele>
        <time>2012-07-14T12:43:12Z</time>
      </trkpt>
      <trkpt lat="46.18021" lon="6.52178">
        <ele>1371</ele>
        <time>2012-07-14T12:43:13Z</time>
      </trkpt>
      <trkpt lat="46.18012" lon="6.52176">
        <ele>1371</ele>
        <time>2012-07-14T12:43:14Z</time>
      </trkpt>
      <trkpt lat="46.18002" lon="6.52172">
        <ele>1371</ele>
        <time>2012-07-14T12:43:15Z</time>
      </trkpt>
      <trkpt lat="46.17993" lon="6.52169">
        <ele>1365</ele>
        <time>2012-07-14T12:43:16Z</time>
      </trkpt>
      <trkpt lat="46.17984" lon="6.52165">
        <ele>1365</ele>
        <time>2012-07-14T12:43:17Z</time>
      </trkpt>
      <trkpt lat="46.17967" lon="6.52156">
        <ele>1365</ele>
        <time>2012-07-14T12:43:19Z</time>
      </trkpt>
      <trkpt lat="46.17953" lon="6.52146">
        <ele>1365</ele>
        <time>2012-07-14T12:43:21Z</time>
      </trkpt>
      <trkpt lat="46.17943" lon="6.52143">
        <ele>1365</ele>
        <time>2012-07-14T12:43:23Z</time>
      </trkpt>
      <trkpt lat="46.17933" lon="6.52141">
        <ele>1365</ele>
        <time>2012-07-14T12:43:26Z</time>
      </trkpt>
      <trkpt lat="46.17924" lon="6.5214">
        <ele>1365</ele>
        <time>2012-07-14T12:43:29Z</time>
      </trkpt>
      <trkpt lat="46.17913" lon="6.52152">
        <ele>1365</ele>
        <time>2012-07-14T12:44:09Z</time>
      </trkpt>
      <trkpt lat="46.17901" lon="6.52164">
        <ele>1365</ele>
        <time>2012-07-14T12:44:11Z</time>
      </trkpt>
      <trkpt lat="46.17889" lon="6.52182">
        <ele>1365</ele>
        <time>2012-07-14T12:44:13Z</time>
      </trkpt>
      <trkpt lat="46.17884" lon="6.52194">
        <ele>1360</ele>
        <time>2012-07-14T12:44:14Z</time>
      </trkpt>
      <trkpt lat="46.17879" lon="6.52207">
        <ele>1360</ele>
        <time>2012-07-14T12:44:15Z</time>
      </trkpt>
      <trkpt lat="46.17875" lon="6.52221">
        <ele>1360</ele>
        <time>2012-07-14T12:44:16Z</time>
      </trkpt>
      <trkpt lat="46.17869" lon="6.52234">
        <ele>1360</ele>
        <time>2012-07-14T12:44:17Z</time>
      </trkpt>
      <trkpt lat="46.17863" lon="6.52247">
        <ele>1360</ele>
        <time>2012-07-14T12:44:18Z</time>
      </trkpt>
      <trkpt lat="46.17856" lon="6.5226">
        <ele>1360</ele>
        <time>2012-07-14T12:44:19Z</time>
      </trkpt>
      <trkpt lat="46.17848" lon="6.52273">
        <ele>1360</ele>
        <time>2012-07-14T12:44:20Z</time>
      </trkpt>
      <trkpt lat="46.17841" lon="6.52287">
        <ele>1360</ele>
        <time>2012-07-14T12:44:21Z</time>
      </trkpt>
      <trkpt lat="46.17833" lon="6.52299">
        <ele>1360</ele>
        <time>2012-07-14T12:44:22Z</time>
      </trkpt>
      <trkpt lat="46.17825" lon="6.52313">
        <ele>1366</ele>
        <time>2012-07-14T12:44:23Z</time>
      </trkpt>
      <trkpt lat="46.17817" lon="6.52325">
        <ele>1366</ele>
        <time>2012-07-14T12:44:24Z</time>
      </trkpt>
      <trkpt lat="46.17808" lon="6.52337">
        <ele>1366</ele>
        <time>2012-07-14T12:44:25Z</time>
      </trkpt>
      <trkpt lat="46.17799" lon="6.52348">
        <ele>1366</ele>
        <time>2012-07-14T12:44:26Z</time>
      </trkpt>
      <trkpt lat="46.1779" lon="6.52358">
        <ele>1366</ele>
        <time>2012-07-14T12:44:27Z</time>
      </trkpt>
      <trkpt lat="46.17781" lon="6.52366">
        <ele>1366</ele>
        <time>2012-07-14T12:44:28Z</time>
      </trkpt>
      <trkpt lat="46.17773" lon="6.52375">
        <ele>1366</ele>
        <time>2012-07-14T12:44:29Z</time>
      </trkpt>
      <trkpt lat="46.17765" lon="6.52384">
        <ele>1366</ele>
        <time>2012-07-14T12:44:30Z</time>
      </trkpt>
      <trkpt lat="46.17752" lon="6.52402">
        <ele>1371</ele>
        <time>2012-07-14T12:44:32Z</time>
      </trkpt>
      <trkpt lat="46.17746" lon="6.52413">
        <ele>1371</ele>
        <time>2012-07-14T12:44:33Z</time>
      </trkpt>
      <trkpt lat="46.17741" lon="6.52425">
        <ele>1371</ele>
        <time>2012-07-14T12:44:34Z</time>
      </trkpt>
      <trkpt lat="46.17737" lon="6.52437">
        <ele>1371</ele>
        <time>2012-07-14T12:44:35Z</time>
      </trkpt>
      <trkpt lat="46.17732" lon="6.52449">
        <ele>1371</ele>
        <time>2012-07-14T12:44:36Z</time>
      </trkpt>
      <trkpt lat="46.17728" lon="6.52461">
        <ele>1376</ele>
        <time>2012-07-14T12:44:37Z</time>
      </trkpt>
      <trkpt lat="46.17723" lon="6.52473">
        <ele>1376</ele>
        <time>2012-07-14T12:44:38Z</time>
      </trkpt>
      <trkpt lat="46.17719" lon="6.52485">
        <ele>1376</ele>
        <time>2012-07-14T12:44:39Z</time>
      </trkpt>
      <trkpt lat="46.17715" lon="6.52499">
        <ele>1376</ele>
        <time>2012-07-14T12:44:40Z</time>
      </trkpt>
      <trkpt lat="46.17712" lon="6.52512">
        <ele>1376</ele>
        <time>2012-07-14T12:44:41Z</time>
      </trkpt>
      <trkpt lat="46.17708" lon="6.52525">
        <ele>1382</ele>
        <time>2012-07-14T12:44:42Z</time>
      </trkpt>
      <trkpt lat="46.17704" lon="6.52541">
        <ele>1382</ele>
        <time>2012-07-14T12:44:43Z</time>
      </trkpt>
      <trkpt lat="46.17701" lon="6.52555">
        <ele>1382</ele>
        <time>2012-07-14T12:44:44Z</time>
      </trkpt>
      <trkpt lat="46.17697" lon="6.52571">
        <ele>1382</ele>
        <time>2012-07-14T12:44:45Z</time>
      </trkpt>
      <trkpt lat="46.17693" lon="6.52587">
        <ele>1382</ele>
        <time>2012-07-14T12:44:46Z</time>
      </trkpt>
      <trkpt lat="46.17689" lon="6.52602">
        <ele>1382</ele>
        <time>2012-07-14T12:44:47Z</time>
      </trkpt>
      <trkpt lat="46.17685" lon="6.52618">
        <ele>1382</ele>
        <time>2012-07-14T12:44:48Z</time>
      </trkpt>
      <trkpt lat="46.17681" lon="6.52633">
        <ele>1387</ele>
        <time>2012-07-14T12:44:49Z</time>
      </trkpt>
      <trkpt lat="46.17677" lon="6.52648">
        <ele>1387</ele>
        <time>2012-07-14T12:44:50Z</time>
      </trkpt>
      <trkpt lat="46.17673" lon="6.52661">
        <ele>1387</ele>
        <time>2012-07-14T12:44:51Z</time>
      </trkpt>
      <trkpt lat="46.17668" lon="6.52675">
        <ele>1387</ele>
        <time>2012-07-14T12:44:52Z</time>
      </trkpt>
      <trkpt lat="46.17664" lon="6.52689">
        <ele>1387</ele>
        <time>2012-07-14T12:44:53Z</time>
      </trkpt>
      <trkpt lat="46.1766" lon="6.52702">
        <ele>1387</ele>
        <time>2012-07-14T12:44:54Z</time>
      </trkpt>
      <trkpt lat="46.17657" lon="6.52716">
        <ele>1387</ele>
        <time>2012-07-14T12:44:55Z</time>
      </trkpt>
      <trkpt lat="46.17652" lon="6.52729">
        <ele>1387</ele>
        <time>2012-07-14T12:44:56Z</time>
      </trkpt>
      <trkpt lat="46.17647" lon="6.52741">
        <ele>1393</ele>
        <time>2012-07-14T12:44:57Z</time>
      </trkpt>
      <trkpt lat="46.17634" lon="6.52759">
        <ele>1393</ele>
        <time>2012-07-14T12:44:59Z</time>
      </trkpt>
      <trkpt lat="46.17626" lon="6.52765">
        <ele>1399</ele>
        <time>2012-07-14T12:45:00Z</time>
      </trkpt>
      <trkpt lat="46.17617" lon="6.52772">
        <ele>1399</ele>
        <time>2012-07-14T12:45:01Z</time>
      </trkpt>
      <trkpt lat="46.17602" lon="6.52782">
        <ele>1399</ele>
        <time>2012-07-14T12:45:03Z</time>
      </trkpt>
      <trkpt lat="46.17587" lon="6.5279">
        <ele>1399</ele>
        <time>2012-07-14T12:45:05Z</time>
      </trkpt>
      <trkpt lat="46.17575" lon="6.528">
        <ele>1404</ele>
        <time>2012-07-14T12:45:07Z</time>
      </trkpt>
      <trkpt lat="46.17564" lon="6.52814">
        <ele>1404</ele>
        <time>2012-07-14T12:45:09Z</time>
      </trkpt>
      <trkpt lat="46.17553" lon="6.52829">
        <ele>1404</ele>
        <time>2012-07-14T12:45:11Z</time>
      </trkpt>
      <trkpt lat="46.17541" lon="6.52843">
        <ele>1404</ele>
        <time>2012-07-14T12:45:13Z</time>
      </trkpt>
      <trkpt lat="46.17527" lon="6.52858">
        <ele>1404</ele>
        <time>2012-07-14T12:45:15Z</time>
      </trkpt>
      <trkpt lat="46.17512" lon="6.52873">
        <ele>1404</ele>
        <time>2012-07-14T12:45:17Z</time>
      </trkpt>
      <trkpt lat="46.17499" lon="6.52888">
        <ele>1404</ele>
        <time>2012-07-14T12:45:19Z</time>
      </trkpt>
      <trkpt lat="46.17484" lon="6.52905">
        <ele>1404</ele>
        <time>2012-07-14T12:45:21Z</time>
      </trkpt>
      <trkpt lat="46.17477" lon="6.52913">
        <ele>1404</ele>
        <time>2012-07-14T12:45:22Z</time>
      </trkpt>
      <trkpt lat="46.17469" lon="6.52921">
        <ele>1404</ele>
        <time>2012-07-14T12:45:23Z</time>
      </trkpt>
      <trkpt lat="46.17461" lon="6.52929">
        <ele>1404</ele>
        <time>2012-07-14T12:45:24Z</time>
      </trkpt>
      <trkpt lat="46.17453" lon="6.52936">
        <ele>1404</ele>
        <time>2012-07-14T12:45:25Z</time>
      </trkpt>
      <trkpt lat="46.17444" lon="6.52942">
        <ele>1404</ele>
        <time>2012-07-14T12:45:26Z</time>
      </trkpt>
      <trkpt lat="46.17428" lon="6.52953">
        <ele>1404</ele>
        <time>2012-07-14T12:45:28Z</time>
      </trkpt>
      <trkpt lat="46.17412" lon="6.52962">
        <ele>1404</ele>
        <time>2012-07-14T12:45:30Z</time>
      </trkpt>
      <trkpt lat="46.17396" lon="6.52967">
        <ele>1404</ele>
        <time>2012-07-14T12:45:32Z</time>
      </trkpt>
      <trkpt lat="46.1738" lon="6.5297">
        <ele>1404</ele>
        <time>2012-07-14T12:45:34Z</time>
      </trkpt>
      <trkpt lat="46.17367" lon="6.5297">
        <ele>1404</ele>
        <time>2012-07-14T12:45:36Z</time>
      </trkpt>
      <trkpt lat="46.17356" lon="6.52968">
        <ele>1404</ele>
        <time>2012-07-14T12:45:38Z</time>
      </trkpt>
      <trkpt lat="46.17346" lon="6.52966">
        <ele>1404</ele>
        <time>2012-07-14T12:45:40Z</time>
      </trkpt>
      <trkpt lat="46.17333" lon="6.52961">
        <ele>1404</ele>
        <time>2012-07-14T12:45:42Z</time>
      </trkpt>
      <trkpt lat="46.17317" lon="6.52958">
        <ele>1404</ele>
        <time>2012-07-14T12:45:44Z</time>
      </trkpt>
      <trkpt lat="46.173" lon="6.5296">
        <ele>1404</ele>
        <time>2012-07-14T12:45:46Z</time>
      </trkpt>
      <trkpt lat="46.17282" lon="6.52964">
        <ele>1404</ele>
        <time>2012-07-14T12:45:48Z</time>
      </trkpt>
      <trkpt lat="46.17273" lon="6.52965">
        <ele>1404</ele>
        <time>2012-07-14T12:45:49Z</time>
      </trkpt>
      <trkpt lat="46.17263" lon="6.52966">
        <ele>1404</ele>
        <time>2012-07-14T12:45:50Z</time>
      </trkpt>
      <trkpt lat="46.17254" lon="6.52967">
        <ele>1404</ele>
        <time>2012-07-14T12:45:51Z</time>
      </trkpt>
      <trkpt lat="46.17238" lon="6.52971">
        <ele>1410</ele>
        <time>2012-07-14T12:45:53Z</time>
      </trkpt>
      <trkpt lat="46.17225" lon="6.52974">
        <ele>1410</ele>
        <time>2012-07-14T12:45:55Z</time>
      </trkpt>
      <trkpt lat="46.17214" lon="6.52975">
        <ele>1410</ele>
        <time>2012-07-14T12:45:58Z</time>
      </trkpt>
      <trkpt lat="46.17203" lon="6.52975">
        <ele>1410</ele>
        <time>2012-07-14T12:46:01Z</time>
      </trkpt>
      <trkpt lat="46.17189" lon="6.52976">
        <ele>1410</ele>
        <time>2012-07-14T12:46:03Z</time>
      </trkpt>
      <trkpt lat="46.17174" lon="6.52976">
        <ele>1410</ele>
        <time>2012-07-14T12:46:05Z</time>
      </trkpt>
      <trkpt lat="46.17158" lon="6.52976">
        <ele>1410</ele>
        <time>2012-07-14T12:46:07Z</time>
      </trkpt>
      <trkpt lat="46.17143" lon="6.52974">
        <ele>1410</ele>
        <time>2012-07-14T12:46:09Z</time>
      </trkpt>
      <trkpt lat="46.17127" lon="6.52969">
        <ele>1410</ele>
        <time>2012-07-14T12:46:11Z</time>
      </trkpt>
      <trkpt lat="46.1711" lon="6.52968">
        <ele>1410</ele>
        <time>2012-07-14T12:46:13Z</time>
      </trkpt>
      <trkpt lat="46.17092" lon="6.52967">
        <ele>1410</ele>
        <time>2012-07-14T12:46:15Z</time>
      </trkpt>
      <trkpt lat="46.17083" lon="6.52967">
        <ele>1410</ele>
        <time>2012-07-14T12:46:16Z</time>
      </trkpt>
      <trkpt lat="46.17067" lon="6.52965">
        <ele>1410</ele>
        <time>2012-07-14T12:46:18Z</time>
      </trkpt>
      <trkpt lat="46.17051" lon="6.52965">
        <ele>1410</ele>
        <time>2012-07-14T12:46:20Z</time>
      </trkpt>
      <trkpt lat="46.17038" lon="6.52967">
        <ele>1410</ele>
        <time>2012-07-14T12:46:22Z</time>
      </trkpt>
      <trkpt lat="46.17029" lon="6.5298">
        <ele>1410</ele>
        <time>2012-07-14T12:46:24Z</time>
      </trkpt>
      <trkpt lat="46.17022" lon="6.52997">
        <ele>1410</ele>
        <time>2012-07-14T12:46:26Z</time>
      </trkpt>
      <trkpt lat="46.17015" lon="6.53019">
        <ele>1416</ele>
        <time>2012-07-14T12:46:28Z</time>
      </trkpt>
      <trkpt lat="46.17011" lon="6.53032">
        <ele>1416</ele>
        <time>2012-07-14T12:46:29Z</time>
      </trkpt>
      <trkpt lat="46.17008" lon="6.53045">
        <ele>1416</ele>
        <time>2012-07-14T12:46:30Z</time>
      </trkpt>
      <trkpt lat="46.17002" lon="6.53065">
        <ele>1416</ele>
        <time>2012-07-14T12:46:32Z</time>
      </trkpt>
      <trkpt lat="46.16991" lon="6.53063">
        <ele>1433</ele>
        <time>2012-07-14T12:47:07Z</time>
      </trkpt>
      <trkpt lat="46.16978" lon="6.53065">
        <ele>1433</ele>
        <time>2012-07-14T12:47:10Z</time>
      </trkpt>
      <trkpt lat="46.16964" lon="6.53068">
        <ele>1428</ele>
        <time>2012-07-14T12:47:12Z</time>
      </trkpt>
      <trkpt lat="46.16951" lon="6.53071">
        <ele>1428</ele>
        <time>2012-07-14T12:47:14Z</time>
      </trkpt>
      <trkpt lat="46.16938" lon="6.53071">
        <ele>1420</ele>
        <time>2012-07-14T12:47:16Z</time>
      </trkpt>
      <trkpt lat="46.16925" lon="6.53074">
        <ele>1420</ele>
        <time>2012-07-14T12:47:18Z</time>
      </trkpt>
      <trkpt lat="46.16915" lon="6.53087">
        <ele>1413</ele>
        <time>2012-07-14T12:47:20Z</time>
      </trkpt>
      <trkpt lat="46.16905" lon="6.53107">
        <ele>1413</ele>
        <time>2012-07-14T12:47:22Z</time>
      </trkpt>
      <trkpt lat="46.16898" lon="6.5313">
        <ele>1406</ele>
        <time>2012-07-14T12:47:24Z</time>
      </trkpt>
      <trkpt lat="46.16895" lon="6.53157">
        <ele>1406</ele>
        <time>2012-07-14T12:47:26Z</time>
      </trkpt>
      <trkpt lat="46.16893" lon="6.5317">
        <ele>1406</ele>
        <time>2012-07-14T12:47:27Z</time>
      </trkpt>
      <trkpt lat="46.16891" lon="6.53187">
        <ele>1406</ele>
        <time>2012-07-14T12:47:28Z</time>
      </trkpt>
      <trkpt lat="46.1689" lon="6.53201">
        <ele>1399</ele>
        <time>2012-07-14T12:47:29Z</time>
      </trkpt>
      <trkpt lat="46.16889" lon="6.53216">
        <ele>1399</ele>
        <time>2012-07-14T12:47:30Z</time>
      </trkpt>
      <trkpt lat="46.16888" lon="6.53232">
        <ele>1393</ele>
        <time>2012-07-14T12:47:31Z</time>
      </trkpt>
      <trkpt lat="46.16888" lon="6.5325">
        <ele>1387</ele>
        <time>2012-07-14T12:47:32Z</time>
      </trkpt>
      <trkpt lat="46.16888" lon="6.53265">
        <ele>1387</ele>
        <time>2012-07-14T12:47:33Z</time>
      </trkpt>
      <trkpt lat="46.16886" lon="6.5329">
        <ele>1380</ele>
        <time>2012-07-14T12:47:35Z</time>
      </trkpt>
      <trkpt lat="46.16884" lon="6.53305">
        <ele>1380</ele>
        <time>2012-07-14T12:47:36Z</time>
      </trkpt>
      <trkpt lat="46.16883" lon="6.53322">
        <ele>1375</ele>
        <time>2012-07-14T12:47:37Z</time>
      </trkpt>
      <trkpt lat="46.16879" lon="6.53338">
        <ele>1375</ele>
        <time>2012-07-14T12:47:38Z</time>
      </trkpt>
      <trkpt lat="46.16876" lon="6.5335">
        <ele>1375</ele>
        <time>2012-07-14T12:47:39Z</time>
      </trkpt>
      <trkpt lat="46.16868" lon="6.53369">
        <ele>1369</ele>
        <time>2012-07-14T12:47:41Z</time>
      </trkpt>
      <trkpt lat="46.16862" lon="6.53379">
        <ele>1369</ele>
        <time>2012-07-14T12:47:42Z</time>
      </trkpt>
      <trkpt lat="46.16853" lon="6.53388">
        <ele>1369</ele>
        <time>2012-07-14T12:47:43Z</time>
      </trkpt>
      <trkpt lat="46.16844" lon="6.53396">
        <ele>1369</ele>
        <time>2012-07-14T12:47:44Z</time>
      </trkpt>
      <trkpt lat="46.16836" lon="6.53402">
        <ele>1369</ele>
        <time>2012-07-14T12:47:45Z</time>
      </trkpt>
      <trkpt lat="46.16821" lon="6.53409">
        <ele>1361</ele>
        <time>2012-07-14T12:47:47Z</time>
      </trkpt>
      <trkpt lat="46.16805" lon="6.53409">
        <ele>1361</ele>
        <time>2012-07-14T12:47:49Z</time>
      </trkpt>
      <trkpt lat="46.16795" lon="6.53407">
        <ele>1356</ele>
        <time>2012-07-14T12:47:50Z</time>
      </trkpt>
      <trkpt lat="46.1678" lon="6.53393">
        <ele>1356</ele>
        <time>2012-07-14T12:47:52Z</time>
      </trkpt>
      <trkpt lat="46.16769" lon="6.53382">
        <ele>1350</ele>
        <time>2012-07-14T12:47:54Z</time>
      </trkpt>
      <trkpt lat="46.16765" lon="6.5337">
        <ele>1350</ele>
        <time>2012-07-14T12:47:56Z</time>
      </trkpt>
      <trkpt lat="46.1677" lon="6.53358">
        <ele>1350</ele>
        <time>2012-07-14T12:47:59Z</time>
      </trkpt>
      <trkpt lat="46.16783" lon="6.53356">
        <ele>1350</ele>
        <time>2012-07-14T12:48:02Z</time>
      </trkpt>
      <trkpt lat="46.1679" lon="6.53348">
        <ele>1350</ele>
        <time>2012-07-14T12:48:04Z</time>
      </trkpt>
      <trkpt lat="46.1679" lon="6.53331">
        <ele>1350</ele>
        <time>2012-07-14T12:48:07Z</time>
      </trkpt>
      <trkpt lat="46.16782" lon="6.53319">
        <ele>1350</ele>
        <time>2012-07-14T12:48:09Z</time>
      </trkpt>
      <trkpt lat="46.16767" lon="6.53313">
        <ele>1350</ele>
        <time>2012-07-14T12:48:11Z</time>
      </trkpt>
      <trkpt lat="46.16752" lon="6.5331">
        <ele>1350</ele>
        <time>2012-07-14T12:48:13Z</time>
      </trkpt>
      <trkpt lat="46.16739" lon="6.53303">
        <ele>1344</ele>
        <time>2012-07-14T12:48:15Z</time>
      </trkpt>
      <trkpt lat="46.16735" lon="6.53281">
        <ele>1344</ele>
        <time>2012-07-14T12:48:17Z</time>
      </trkpt>
      <trkpt lat="46.16725" lon="6.53263">
        <ele>1338</ele>
        <time>2012-07-14T12:48:19Z</time>
      </trkpt>
      <trkpt lat="46.16719" lon="6.53251">
        <ele>1338</ele>
        <time>2012-07-14T12:48:21Z</time>
      </trkpt>
      <trkpt lat="46.16722" lon="6.53237">
        <ele>1332</ele>
        <time>2012-07-14T12:48:24Z</time>
      </trkpt>
      <trkpt lat="46.16735" lon="6.53241">
        <ele>1332</ele>
        <time>2012-07-14T12:48:27Z</time>
      </trkpt>
      <trkpt lat="46.16747" lon="6.53255">
        <ele>1332</ele>
        <time>2012-07-14T12:48:29Z</time>
      </trkpt>
      <trkpt lat="46.16754" lon="6.53264">
        <ele>1326</ele>
        <time>2012-07-14T12:48:31Z</time>
      </trkpt>
      <trkpt lat="46.16764" lon="6.53264">
        <ele>1326</ele>
        <time>2012-07-14T12:48:34Z</time>
      </trkpt>
      <trkpt lat="46.16766" lon="6.5325">
        <ele>1321</ele>
        <time>2012-07-14T12:48:37Z</time>
      </trkpt>
      <trkpt lat="46.16757" lon="6.53239">
        <ele>1316</ele>
        <time>2012-07-14T12:48:40Z</time>
      </trkpt>
      <trkpt lat="46.16743" lon="6.53225">
        <ele>1316</ele>
        <time>2012-07-14T12:48:42Z</time>
      </trkpt>
      <trkpt lat="46.16736" lon="6.53215">
        <ele>1316</ele>
        <time>2012-07-14T12:48:43Z</time>
      </trkpt>
      <trkpt lat="46.16729" lon="6.53207">
        <ele>1316</ele>
        <time>2012-07-14T12:48:44Z</time>
      </trkpt>
      <trkpt lat="46.16717" lon="6.53193">
        <ele>1316</ele>
        <time>2012-07-14T12:48:46Z</time>
      </trkpt>
      <trkpt lat="46.16707" lon="6.53175">
        <ele>1316</ele>
        <time>2012-07-14T12:48:48Z</time>
      </trkpt>
      <trkpt lat="46.16698" lon="6.53156">
        <ele>1316</ele>
        <time>2012-07-14T12:48:50Z</time>
      </trkpt>
      <trkpt lat="46.16689" lon="6.53138">
        <ele>1309</ele>
        <time>2012-07-14T12:48:52Z</time>
      </trkpt>
      <trkpt lat="46.16676" lon="6.53124">
        <ele>1309</ele>
        <time>2012-07-14T12:48:54Z</time>
      </trkpt>
      <trkpt lat="46.16666" lon="6.53109">
        <ele>1302</ele>
        <time>2012-07-14T12:48:56Z</time>
      </trkpt>
      <trkpt lat="46.16659" lon="6.53092">
        <ele>1302</ele>
        <time>2012-07-14T12:48:58Z</time>
      </trkpt>
      <trkpt lat="46.16654" lon="6.53073">
        <ele>1302</ele>
        <time>2012-07-14T12:49:00Z</time>
      </trkpt>
      <trkpt lat="46.16652" lon="6.53053">
        <ele>1295</ele>
        <time>2012-07-14T12:49:02Z</time>
      </trkpt>
      <trkpt lat="46.16651" lon="6.53034">
        <ele>1295</ele>
        <time>2012-07-14T12:49:04Z</time>
      </trkpt>
      <trkpt lat="46.16651" lon="6.53016">
        <ele>1295</ele>
        <time>2012-07-14T12:49:06Z</time>
      </trkpt>
      <trkpt lat="46.16646" lon="6.52993">
        <ele>1289</ele>
        <time>2012-07-14T12:49:08Z</time>
      </trkpt>
      <trkpt lat="46.16642" lon="6.5298">
        <ele>1289</ele>
        <time>2012-07-14T12:49:09Z</time>
      </trkpt>
      <trkpt lat="46.16639" lon="6.52967">
        <ele>1289</ele>
        <time>2012-07-14T12:49:10Z</time>
      </trkpt>
      <trkpt lat="46.16637" lon="6.52954">
        <ele>1289</ele>
        <time>2012-07-14T12:49:11Z</time>
      </trkpt>
      <trkpt lat="46.16634" lon="6.52941">
        <ele>1289</ele>
        <time>2012-07-14T12:49:12Z</time>
      </trkpt>
      <trkpt lat="46.16631" lon="6.52927">
        <ele>1284</ele>
        <time>2012-07-14T12:49:13Z</time>
      </trkpt>
      <trkpt lat="46.16627" lon="6.52914">
        <ele>1284</ele>
        <time>2012-07-14T12:49:14Z</time>
      </trkpt>
      <trkpt lat="46.16624" lon="6.529">
        <ele>1284</ele>
        <time>2012-07-14T12:49:15Z</time>
      </trkpt>
      <trkpt lat="46.16621" lon="6.52886">
        <ele>1284</ele>
        <time>2012-07-14T12:49:16Z</time>
      </trkpt>
      <trkpt lat="46.16617" lon="6.52871">
        <ele>1284</ele>
        <time>2012-07-14T12:49:17Z</time>
      </trkpt>
      <trkpt lat="46.16614" lon="6.52857">
        <ele>1278</ele>
        <time>2012-07-14T12:49:18Z</time>
      </trkpt>
      <trkpt lat="46.16612" lon="6.52841">
        <ele>1278</ele>
        <time>2012-07-14T12:49:19Z</time>
      </trkpt>
      <trkpt lat="46.1661" lon="6.52824">
        <ele>1278</ele>
        <time>2012-07-14T12:49:20Z</time>
      </trkpt>
      <trkpt lat="46.16607" lon="6.52807">
        <ele>1278</ele>
        <time>2012-07-14T12:49:21Z</time>
      </trkpt>
      <trkpt lat="46.16606" lon="6.5279">
        <ele>1278</ele>
        <time>2012-07-14T12:49:22Z</time>
      </trkpt>
      <trkpt lat="46.16603" lon="6.52773">
        <ele>1272</ele>
        <time>2012-07-14T12:49:23Z</time>
      </trkpt>
      <trkpt lat="46.16602" lon="6.52757">
        <ele>1272</ele>
        <time>2012-07-14T12:49:24Z</time>
      </trkpt>
      <trkpt lat="46.16601" lon="6.5274">
        <ele>1272</ele>
        <time>2012-07-14T12:49:25Z</time>
      </trkpt>
      <trkpt lat="46.16601" lon="6.52725">
        <ele>1272</ele>
        <time>2012-07-14T12:49:26Z</time>
      </trkpt>
      <trkpt lat="46.16604" lon="6.52704">
        <ele>1272</ele>
        <time>2012-07-14T12:49:28Z</time>
      </trkpt>
      <trkpt lat="46.16607" lon="6.52685">
        <ele>1272</ele>
        <time>2012-07-14T12:49:30Z</time>
      </trkpt>
      <trkpt lat="46.16604" lon="6.52667">
        <ele>1272</ele>
        <time>2012-07-14T12:49:32Z</time>
      </trkpt>
      <trkpt lat="46.16602" lon="6.52652">
        <ele>1272</ele>
        <time>2012-07-14T12:49:34Z</time>
      </trkpt>
      <trkpt lat="46.16605" lon="6.52635">
        <ele>1265</ele>
        <time>2012-07-14T12:49:53Z</time>
      </trkpt>
      <trkpt lat="46.16606" lon="6.52616">
        <ele>1265</ele>
        <time>2012-07-14T12:49:55Z</time>
      </trkpt>
      <trkpt lat="46.16605" lon="6.52592">
        <ele>1265</ele>
        <time>2012-07-14T12:49:57Z</time>
      </trkpt>
      <trkpt lat="46.16606" lon="6.52566">
        <ele>1265</ele>
        <time>2012-07-14T12:49:59Z</time>
      </trkpt>
      <trkpt lat="46.16607" lon="6.52552">
        <ele>1265</ele>
        <time>2012-07-14T12:50:00Z</time>
      </trkpt>
      <trkpt lat="46.16607" lon="6.52537">
        <ele>1265</ele>
        <time>2012-07-14T12:50:01Z</time>
      </trkpt>
      <trkpt lat="46.16607" lon="6.52523">
        <ele>1265</ele>
        <time>2012-07-14T12:50:02Z</time>
      </trkpt>
      <trkpt lat="46.16606" lon="6.52509">
        <ele>1265</ele>
        <time>2012-07-14T12:50:03Z</time>
      </trkpt>
      <trkpt lat="46.16603" lon="6.52482">
        <ele>1265</ele>
        <time>2012-07-14T12:50:05Z</time>
      </trkpt>
      <trkpt lat="46.16597" lon="6.52459">
        <ele>1265</ele>
        <time>2012-07-14T12:50:07Z</time>
      </trkpt>
      <trkpt lat="46.16593" lon="6.52446">
        <ele>1265</ele>
        <time>2012-07-14T12:50:08Z</time>
      </trkpt>
      <trkpt lat="46.16591" lon="6.5243">
        <ele>1265</ele>
        <time>2012-07-14T12:50:09Z</time>
      </trkpt>
      <trkpt lat="46.16588" lon="6.52417">
        <ele>1265</ele>
        <time>2012-07-14T12:50:10Z</time>
      </trkpt>
      <trkpt lat="46.16584" lon="6.52402">
        <ele>1260</ele>
        <time>2012-07-14T12:50:11Z</time>
      </trkpt>
      <trkpt lat="46.16581" lon="6.5239">
        <ele>1260</ele>
        <time>2012-07-14T12:50:12Z</time>
      </trkpt>
      <trkpt lat="46.16575" lon="6.52377">
        <ele>1260</ele>
        <time>2012-07-14T12:50:13Z</time>
      </trkpt>
      <trkpt lat="46.16569" lon="6.52364">
        <ele>1260</ele>
        <time>2012-07-14T12:50:14Z</time>
      </trkpt>
      <trkpt lat="46.16561" lon="6.52352">
        <ele>1260</ele>
        <time>2012-07-14T12:50:15Z</time>
      </trkpt>
      <trkpt lat="46.16553" lon="6.5234">
        <ele>1260</ele>
        <time>2012-07-14T12:50:16Z</time>
      </trkpt>
      <trkpt lat="46.16546" lon="6.52327">
        <ele>1260</ele>
        <time>2012-07-14T12:50:17Z</time>
      </trkpt>
      <trkpt lat="46.16539" lon="6.52315">
        <ele>1254</ele>
        <time>2012-07-14T12:50:18Z</time>
      </trkpt>
      <trkpt lat="46.16532" lon="6.52304">
        <ele>1254</ele>
        <time>2012-07-14T12:50:19Z</time>
      </trkpt>
      <trkpt lat="46.16525" lon="6.52292">
        <ele>1254</ele>
        <time>2012-07-14T12:50:20Z</time>
      </trkpt>
      <trkpt lat="46.16516" lon="6.52281">
        <ele>1254</ele>
        <time>2012-07-14T12:50:21Z</time>
      </trkpt>
      <trkpt lat="46.16509" lon="6.52268">
        <ele>1254</ele>
        <time>2012-07-14T12:50:22Z</time>
      </trkpt>
      <trkpt lat="46.16502" lon="6.52256">
        <ele>1254</ele>
        <time>2012-07-14T12:50:23Z</time>
      </trkpt>
      <trkpt lat="46.16495" lon="6.52246">
        <ele>1248</ele>
        <time>2012-07-14T12:50:24Z</time>
      </trkpt>
      <trkpt lat="46.16487" lon="6.52235">
        <ele>1248</ele>
        <time>2012-07-14T12:50:25Z</time>
      </trkpt>
      <trkpt lat="46.1648" lon="6.52225">
        <ele>1248</ele>
        <time>2012-07-14T12:50:26Z</time>
      </trkpt>
      <trkpt lat="46.16473" lon="6.52216">
        <ele>1248</ele>
        <time>2012-07-14T12:50:27Z</time>
      </trkpt>
      <trkpt lat="46.16466" lon="6.52206">
        <ele>1248</ele>
        <time>2012-07-14T12:50:28Z</time>
      </trkpt>
      <trkpt lat="46.16455" lon="6.52185">
        <ele>1240</ele>
        <time>2012-07-14T12:50:30Z</time>
      </trkpt>
      <trkpt lat="46.1645" lon="6.52171">
        <ele>1240</ele>
        <time>2012-07-14T12:50:31Z</time>
      </trkpt>
      <trkpt lat="46.16447" lon="6.52154">
        <ele>1240</ele>
        <time>2012-07-14T12:50:32Z</time>
      </trkpt>
      <trkpt lat="46.16445" lon="6.52136">
        <ele>1240</ele>
        <time>2012-07-14T12:50:33Z</time>
      </trkpt>
      <trkpt lat="46.16441" lon="6.52119">
        <ele>1240</ele>
        <time>2012-07-14T12:50:34Z</time>
      </trkpt>
      <trkpt lat="46.16439" lon="6.52103">
        <ele>1240</ele>
        <time>2012-07-14T12:50:35Z</time>
      </trkpt>
      <trkpt lat="46.16436" lon="6.52088">
        <ele>1240</ele>
        <time>2012-07-14T12:50:36Z</time>
      </trkpt>
      <trkpt lat="46.16432" lon="6.52075">
        <ele>1240</ele>
        <time>2012-07-14T12:50:37Z</time>
      </trkpt>
      <trkpt lat="46.16428" lon="6.52061">
        <ele>1240</ele>
        <time>2012-07-14T12:50:38Z</time>
      </trkpt>
      <trkpt lat="46.16423" lon="6.52048">
        <ele>1240</ele>
        <time>2012-07-14T12:50:39Z</time>
      </trkpt>
      <trkpt lat="46.16418" lon="6.52032">
        <ele>1240</ele>
        <time>2012-07-14T12:50:40Z</time>
      </trkpt>
      <trkpt lat="46.16412" lon="6.52018">
        <ele>1235</ele>
        <time>2012-07-14T12:50:41Z</time>
      </trkpt>
      <trkpt lat="46.16406" lon="6.52003">
        <ele>1235</ele>
        <time>2012-07-14T12:50:42Z</time>
      </trkpt>
      <trkpt lat="46.16399" lon="6.51988">
        <ele>1235</ele>
        <time>2012-07-14T12:50:43Z</time>
      </trkpt>
      <trkpt lat="46.16392" lon="6.51974">
        <ele>1235</ele>
        <time>2012-07-14T12:50:44Z</time>
      </trkpt>
      <trkpt lat="46.16385" lon="6.51961">
        <ele>1235</ele>
        <time>2012-07-14T12:50:45Z</time>
      </trkpt>
      <trkpt lat="46.1638" lon="6.51949">
        <ele>1235</ele>
        <time>2012-07-14T12:50:46Z</time>
      </trkpt>
      <trkpt lat="46.1637" lon="6.51929">
        <ele>1235</ele>
        <time>2012-07-14T12:50:48Z</time>
      </trkpt>
      <trkpt lat="46.16365" lon="6.51908">
        <ele>1235</ele>
        <time>2012-07-14T12:50:50Z</time>
      </trkpt>
      <trkpt lat="46.16361" lon="6.5189">
        <ele>1235</ele>
        <time>2012-07-14T12:50:52Z</time>
      </trkpt>
      <trkpt lat="46.16358" lon="6.51874">
        <ele>1230</ele>
        <time>2012-07-14T12:50:54Z</time>
      </trkpt>
      <trkpt lat="46.16357" lon="6.51855">
        <ele>1230</ele>
        <time>2012-07-14T12:50:56Z</time>
      </trkpt>
      <trkpt lat="46.16355" lon="6.51839">
        <ele>1230</ele>
        <time>2012-07-14T12:50:58Z</time>
      </trkpt>
      <trkpt lat="46.16354" lon="6.51822">
        <ele>1230</ele>
        <time>2012-07-14T12:51:00Z</time>
      </trkpt>
      <trkpt lat="46.16352" lon="6.518">
        <ele>1230</ele>
        <time>2012-07-14T12:51:02Z</time>
      </trkpt>
      <trkpt lat="46.16352" lon="6.51786">
        <ele>1224</ele>
        <time>2012-07-14T12:51:03Z</time>
      </trkpt>
      <trkpt lat="46.16351" lon="6.51772">
        <ele>1224</ele>
        <time>2012-07-14T12:51:04Z</time>
      </trkpt>
      <trkpt lat="46.16348" lon="6.51747">
        <ele>1224</ele>
        <time>2012-07-14T12:51:06Z</time>
      </trkpt>
      <trkpt lat="46.16343" lon="6.51726">
        <ele>1224</ele>
        <time>2012-07-14T12:51:08Z</time>
      </trkpt>
      <trkpt lat="46.16332" lon="6.5171">
        <ele>1224</ele>
        <time>2012-07-14T12:51:10Z</time>
      </trkpt>
      <trkpt lat="46.16319" lon="6.517">
        <ele>1224</ele>
        <time>2012-07-14T12:51:12Z</time>
      </trkpt>
      <trkpt lat="46.16305" lon="6.51698">
        <ele>1219</ele>
        <time>2012-07-14T12:51:14Z</time>
      </trkpt>
      <trkpt lat="46.1629" lon="6.51704">
        <ele>1219</ele>
        <time>2012-07-14T12:51:16Z</time>
      </trkpt>
      <trkpt lat="46.16282" lon="6.51711">
        <ele>1219</ele>
        <time>2012-07-14T12:51:17Z</time>
      </trkpt>
      <trkpt lat="46.16274" lon="6.51719">
        <ele>1219</ele>
        <time>2012-07-14T12:51:18Z</time>
      </trkpt>
      <trkpt lat="46.16267" lon="6.51727">
        <ele>1219</ele>
        <time>2012-07-14T12:51:19Z</time>
      </trkpt>
      <trkpt lat="46.16259" lon="6.51734">
        <ele>1219</ele>
        <time>2012-07-14T12:51:20Z</time>
      </trkpt>
      <trkpt lat="46.16244" lon="6.51748">
        <ele>1219</ele>
        <time>2012-07-14T12:51:22Z</time>
      </trkpt>
      <trkpt lat="46.16236" lon="6.51758">
        <ele>1219</ele>
        <time>2012-07-14T12:51:23Z</time>
      </trkpt>
      <trkpt lat="46.16229" lon="6.51769">
        <ele>1219</ele>
        <time>2012-07-14T12:51:24Z</time>
      </trkpt>
      <trkpt lat="46.16222" lon="6.51783">
        <ele>1214</ele>
        <time>2012-07-14T12:51:25Z</time>
      </trkpt>
      <trkpt lat="46.16215" lon="6.51797">
        <ele>1214</ele>
        <time>2012-07-14T12:51:26Z</time>
      </trkpt>
      <trkpt lat="46.16208" lon="6.51811">
        <ele>1214</ele>
        <time>2012-07-14T12:51:27Z</time>
      </trkpt>
      <trkpt lat="46.16201" lon="6.51827">
        <ele>1214</ele>
        <time>2012-07-14T12:51:28Z</time>
      </trkpt>
      <trkpt lat="46.16194" lon="6.5184">
        <ele>1214</ele>
        <time>2012-07-14T12:51:29Z</time>
      </trkpt>
      <trkpt lat="46.16187" lon="6.51854">
        <ele>1214</ele>
        <time>2012-07-14T12:51:30Z</time>
      </trkpt>
      <trkpt lat="46.1618" lon="6.51868">
        <ele>1214</ele>
        <time>2012-07-14T12:51:31Z</time>
      </trkpt>
      <trkpt lat="46.16174" lon="6.51881">
        <ele>1214</ele>
        <time>2012-07-14T12:51:32Z</time>
      </trkpt>
      <trkpt lat="46.16167" lon="6.51893">
        <ele>1214</ele>
        <time>2012-07-14T12:51:33Z</time>
      </trkpt>
      <trkpt lat="46.16156" lon="6.51915">
        <ele>1208</ele>
        <time>2012-07-14T12:51:35Z</time>
      </trkpt>
      <trkpt lat="46.16152" lon="6.51927">
        <ele>1208</ele>
        <time>2012-07-14T12:51:36Z</time>
      </trkpt>
      <trkpt lat="46.16147" lon="6.51949">
        <ele>1208</ele>
        <time>2012-07-14T12:51:38Z</time>
      </trkpt>
      <trkpt lat="46.16149" lon="6.51975">
        <ele>1208</ele>
        <time>2012-07-14T12:51:40Z</time>
      </trkpt>
      <trkpt lat="46.16151" lon="6.5199">
        <ele>1201</ele>
        <time>2012-07-14T12:51:41Z</time>
      </trkpt>
      <trkpt lat="46.16151" lon="6.52005">
        <ele>1201</ele>
        <time>2012-07-14T12:51:42Z</time>
      </trkpt>
      <trkpt lat="46.16152" lon="6.52022">
        <ele>1201</ele>
        <time>2012-07-14T12:51:43Z</time>
      </trkpt>
      <trkpt lat="46.16151" lon="6.52036">
        <ele>1201</ele>
        <time>2012-07-14T12:51:44Z</time>
      </trkpt>
      <trkpt lat="46.16149" lon="6.52051">
        <ele>1195</ele>
        <time>2012-07-14T12:51:45Z</time>
      </trkpt>
      <trkpt lat="46.16146" lon="6.52066">
        <ele>1195</ele>
        <time>2012-07-14T12:51:46Z</time>
      </trkpt>
      <trkpt lat="46.16141" lon="6.52081">
        <ele>1195</ele>
        <time>2012-07-14T12:51:47Z</time>
      </trkpt>
      <trkpt lat="46.16136" lon="6.52096">
        <ele>1195</ele>
        <time>2012-07-14T12:51:48Z</time>
      </trkpt>
      <trkpt lat="46.16129" lon="6.52109">
        <ele>1195</ele>
        <time>2012-07-14T12:51:49Z</time>
      </trkpt>
      <trkpt lat="46.16123" lon="6.52122">
        <ele>1195</ele>
        <time>2012-07-14T12:51:50Z</time>
      </trkpt>
      <trkpt lat="46.16116" lon="6.52135">
        <ele>1189</ele>
        <time>2012-07-14T12:51:51Z</time>
      </trkpt>
      <trkpt lat="46.16109" lon="6.52147">
        <ele>1189</ele>
        <time>2012-07-14T12:51:52Z</time>
      </trkpt>
      <trkpt lat="46.16101" lon="6.52159">
        <ele>1189</ele>
        <time>2012-07-14T12:51:53Z</time>
      </trkpt>
      <trkpt lat="46.16093" lon="6.5217">
        <ele>1189</ele>
        <time>2012-07-14T12:51:54Z</time>
      </trkpt>
      <trkpt lat="46.16084" lon="6.52181">
        <ele>1189</ele>
        <time>2012-07-14T12:51:55Z</time>
      </trkpt>
      <trkpt lat="46.16078" lon="6.5219">
        <ele>1189</ele>
        <time>2012-07-14T12:51:56Z</time>
      </trkpt>
      <trkpt lat="46.16071" lon="6.52201">
        <ele>1189</ele>
        <time>2012-07-14T12:51:57Z</time>
      </trkpt>
      <trkpt lat="46.16066" lon="6.52212">
        <ele>1189</ele>
        <time>2012-07-14T12:51:58Z</time>
      </trkpt>
      <trkpt lat="46.16057" lon="6.52227">
        <ele>1181</ele>
        <time>2012-07-14T12:52:00Z</time>
      </trkpt>
      <trkpt lat="46.16046" lon="6.52242">
        <ele>1181</ele>
        <time>2012-07-14T12:52:02Z</time>
      </trkpt>
      <trkpt lat="46.16031" lon="6.52253">
        <ele>1181</ele>
        <time>2012-07-14T12:52:04Z</time>
      </trkpt>
      <trkpt lat="46.16023" lon="6.52276">
        <ele>1175</ele>
        <time>2012-07-14T12:52:06Z</time>
      </trkpt>
      <trkpt lat="46.16021" lon="6.52289">
        <ele>1175</ele>
        <time>2012-07-14T12:52:07Z</time>
      </trkpt>
      <trkpt lat="46.16021" lon="6.52306">
        <ele>1175</ele>
        <time>2012-07-14T12:52:08Z</time>
      </trkpt>
      <trkpt lat="46.16023" lon="6.52325">
        <ele>1175</ele>
        <time>2012-07-14T12:52:09Z</time>
      </trkpt>
      <trkpt lat="46.16025" lon="6.52345">
        <ele>1175</ele>
        <time>2012-07-14T12:52:10Z</time>
      </trkpt>
      <trkpt lat="46.16028" lon="6.52363">
        <ele>1170</ele>
        <time>2012-07-14T12:52:11Z</time>
      </trkpt>
      <trkpt lat="46.1603" lon="6.52381">
        <ele>1170</ele>
        <time>2012-07-14T12:52:12Z</time>
      </trkpt>
      <trkpt lat="46.16032" lon="6.52399">
        <ele>1170</ele>
        <time>2012-07-14T12:52:13Z</time>
      </trkpt>
      <trkpt lat="46.16033" lon="6.52417">
        <ele>1164</ele>
        <time>2012-07-14T12:52:14Z</time>
      </trkpt>
      <trkpt lat="46.1603" lon="6.52434">
        <ele>1164</ele>
        <time>2012-07-14T12:52:15Z</time>
      </trkpt>
      <trkpt lat="46.16026" lon="6.52448">
        <ele>1164</ele>
        <time>2012-07-14T12:52:16Z</time>
      </trkpt>
      <trkpt lat="46.16016" lon="6.52455">
        <ele>1158</ele>
        <time>2012-07-14T12:52:17Z</time>
      </trkpt>
      <trkpt lat="46.16005" lon="6.52465">
        <ele>1158</ele>
        <time>2012-07-14T12:52:18Z</time>
      </trkpt>
      <trkpt lat="46.15993" lon="6.52478">
        <ele>1153</ele>
        <time>2012-07-14T12:52:19Z</time>
      </trkpt>
      <trkpt lat="46.15978" lon="6.52487">
        <ele>1153</ele>
        <time>2012-07-14T12:52:20Z</time>
      </trkpt>
      <trkpt lat="46.15963" lon="6.52496">
        <ele>1153</ele>
        <time>2012-07-14T12:52:21Z</time>
      </trkpt>
      <trkpt lat="46.15949" lon="6.52505">
        <ele>1153</ele>
        <time>2012-07-14T12:52:22Z</time>
      </trkpt>
      <trkpt lat="46.15936" lon="6.52514">
        <ele>1148</ele>
        <time>2012-07-14T12:52:23Z</time>
      </trkpt>
      <trkpt lat="46.15924" lon="6.52523">
        <ele>1148</ele>
        <time>2012-07-14T12:52:24Z</time>
      </trkpt>
      <trkpt lat="46.15912" lon="6.52532">
        <ele>1148</ele>
        <time>2012-07-14T12:52:25Z</time>
      </trkpt>
      <trkpt lat="46.15901" lon="6.5254">
        <ele>1148</ele>
        <time>2012-07-14T12:52:26Z</time>
      </trkpt>
      <trkpt lat="46.1589" lon="6.52547">
        <ele>1143</ele>
        <time>2012-07-14T12:52:27Z</time>
      </trkpt>
      <trkpt lat="46.1588" lon="6.52555">
        <ele>1143</ele>
        <time>2012-07-14T12:52:28Z</time>
      </trkpt>
      <trkpt lat="46.1587" lon="6.52564">
        <ele>1143</ele>
        <time>2012-07-14T12:52:29Z</time>
      </trkpt>
      <trkpt lat="46.15863" lon="6.52574">
        <ele>1143</ele>
        <time>2012-07-14T12:52:30Z</time>
      </trkpt>
      <trkpt lat="46.15857" lon="6.52585">
        <ele>1143</ele>
        <time>2012-07-14T12:52:31Z</time>
      </trkpt>
      <trkpt lat="46.15847" lon="6.52604">
        <ele>1143</ele>
        <time>2012-07-14T12:52:33Z</time>
      </trkpt>
      <trkpt lat="46.15834" lon="6.52609">
        <ele>1136</ele>
        <time>2012-07-14T12:52:35Z</time>
      </trkpt>
      <trkpt lat="46.15824" lon="6.52595">
        <ele>1136</ele>
        <time>2012-07-14T12:52:37Z</time>
      </trkpt>
      <trkpt lat="46.15826" lon="6.52566">
        <ele>1136</ele>
        <time>2012-07-14T12:52:39Z</time>
      </trkpt>
      <trkpt lat="46.15832" lon="6.52545">
        <ele>1136</ele>
        <time>2012-07-14T12:52:40Z</time>
      </trkpt>
      <trkpt lat="46.15838" lon="6.52525">
        <ele>1136</ele>
        <time>2012-07-14T12:52:41Z</time>
      </trkpt>
      <trkpt lat="46.15843" lon="6.52506">
        <ele>1136</ele>
        <time>2012-07-14T12:52:42Z</time>
      </trkpt>
      <trkpt lat="46.15848" lon="6.52487">
        <ele>1130</ele>
        <time>2012-07-14T12:52:43Z</time>
      </trkpt>
      <trkpt lat="46.15853" lon="6.52468">
        <ele>1130</ele>
        <time>2012-07-14T12:52:44Z</time>
      </trkpt>
      <trkpt lat="46.15857" lon="6.52451">
        <ele>1130</ele>
        <time>2012-07-14T12:52:45Z</time>
      </trkpt>
      <trkpt lat="46.15862" lon="6.52435">
        <ele>1130</ele>
        <time>2012-07-14T12:52:46Z</time>
      </trkpt>
      <trkpt lat="46.15865" lon="6.52419">
        <ele>1130</ele>
        <time>2012-07-14T12:52:47Z</time>
      </trkpt>
      <trkpt lat="46.1587" lon="6.52404">
        <ele>1130</ele>
        <time>2012-07-14T12:52:48Z</time>
      </trkpt>
      <trkpt lat="46.15873" lon="6.52391">
        <ele>1130</ele>
        <time>2012-07-14T12:52:49Z</time>
      </trkpt>
      <trkpt lat="46.15879" lon="6.52377">
        <ele>1130</ele>
        <time>2012-07-14T12:52:50Z</time>
      </trkpt>
      <trkpt lat="46.15885" lon="6.52366">
        <ele>1130</ele>
        <time>2012-07-14T12:52:51Z</time>
      </trkpt>
      <trkpt lat="46.15893" lon="6.52355">
        <ele>1130</ele>
        <time>2012-07-14T12:52:52Z</time>
      </trkpt>
      <trkpt lat="46.159" lon="6.52347">
        <ele>1130</ele>
        <time>2012-07-14T12:52:53Z</time>
      </trkpt>
      <trkpt lat="46.15908" lon="6.52339">
        <ele>1125</ele>
        <time>2012-07-14T12:52:54Z</time>
      </trkpt>
      <trkpt lat="46.15923" lon="6.52329">
        <ele>1125</ele>
        <time>2012-07-14T12:52:56Z</time>
      </trkpt>
      <trkpt lat="46.15935" lon="6.52317">
        <ele>1125</ele>
        <time>2012-07-14T12:52:58Z</time>
      </trkpt>
      <trkpt lat="46.15937" lon="6.52301">
        <ele>1125</ele>
        <time>2012-07-14T12:53:00Z</time>
      </trkpt>
      <trkpt lat="46.1593" lon="6.52287">
        <ele>1119</ele>
        <time>2012-07-14T12:53:02Z</time>
      </trkpt>
      <trkpt lat="46.15915" lon="6.5229">
        <ele>1119</ele>
        <time>2012-07-14T12:53:04Z</time>
      </trkpt>
      <trkpt lat="46.15907" lon="6.52295">
        <ele>1119</ele>
        <time>2012-07-14T12:53:05Z</time>
      </trkpt>
      <trkpt lat="46.15897" lon="6.523">
        <ele>1119</ele>
        <time>2012-07-14T12:53:06Z</time>
      </trkpt>
      <trkpt lat="46.15885" lon="6.52307">
        <ele>1114</ele>
        <time>2012-07-14T12:53:07Z</time>
      </trkpt>
      <trkpt lat="46.15873" lon="6.52314">
        <ele>1114</ele>
        <time>2012-07-14T12:53:08Z</time>
      </trkpt>
      <trkpt lat="46.15861" lon="6.52322">
        <ele>1114</ele>
        <time>2012-07-14T12:53:09Z</time>
      </trkpt>
      <trkpt lat="46.15848" lon="6.5233">
        <ele>1114</ele>
        <time>2012-07-14T12:53:10Z</time>
      </trkpt>
      <trkpt lat="46.15836" lon="6.52338">
        <ele>1114</ele>
        <time>2012-07-14T12:53:11Z</time>
      </trkpt>
      <trkpt lat="46.15823" lon="6.52346">
        <ele>1108</ele>
        <time>2012-07-14T12:53:12Z</time>
      </trkpt>
      <trkpt lat="46.1581" lon="6.52355">
        <ele>1108</ele>
        <time>2012-07-14T12:53:13Z</time>
      </trkpt>
      <trkpt lat="46.15797" lon="6.52365">
        <ele>1108</ele>
        <time>2012-07-14T12:53:14Z</time>
      </trkpt>
      <trkpt lat="46.15784" lon="6.52375">
        <ele>1108</ele>
        <time>2012-07-14T12:53:15Z</time>
      </trkpt>
      <trkpt lat="46.1577" lon="6.52386">
        <ele>1103</ele>
        <time>2012-07-14T12:53:16Z</time>
      </trkpt>
      <trkpt lat="46.15757" lon="6.52398">
        <ele>1103</ele>
        <time>2012-07-14T12:53:17Z</time>
      </trkpt>
      <trkpt lat="46.15745" lon="6.52411">
        <ele>1103</ele>
        <time>2012-07-14T12:53:18Z</time>
      </trkpt>
      <trkpt lat="46.15731" lon="6.52426">
        <ele>1103</ele>
        <time>2012-07-14T12:53:19Z</time>
      </trkpt>
      <trkpt lat="46.15717" lon="6.5244">
        <ele>1097</ele>
        <time>2012-07-14T12:53:20Z</time>
      </trkpt>
      <trkpt lat="46.15705" lon="6.52454">
        <ele>1097</ele>
        <time>2012-07-14T12:53:21Z</time>
      </trkpt>
      <trkpt lat="46.15693" lon="6.52467">
        <ele>1097</ele>
        <time>2012-07-14T12:53:22Z</time>
      </trkpt>
      <trkpt lat="46.15681" lon="6.5248">
        <ele>1097</ele>
        <time>2012-07-14T12:53:23Z</time>
      </trkpt>
      <trkpt lat="46.15671" lon="6.52491">
        <ele>1092</ele>
        <time>2012-07-14T12:53:24Z</time>
      </trkpt>
      <trkpt lat="46.15661" lon="6.52503">
        <ele>1092</ele>
        <time>2012-07-14T12:53:25Z</time>
      </trkpt>
      <trkpt lat="46.15652" lon="6.52515">
        <ele>1092</ele>
        <time>2012-07-14T12:53:26Z</time>
      </trkpt>
      <trkpt lat="46.15645" lon="6.52527">
        <ele>1092</ele>
        <time>2012-07-14T12:53:27Z</time>
      </trkpt>
      <trkpt lat="46.15639" lon="6.52541">
        <ele>1092</ele>
        <time>2012-07-14T12:53:28Z</time>
      </trkpt>
      <trkpt lat="46.15636" lon="6.52553">
        <ele>1092</ele>
        <time>2012-07-14T12:53:29Z</time>
      </trkpt>
      <trkpt lat="46.15634" lon="6.52567">
        <ele>1086</ele>
        <time>2012-07-14T12:53:30Z</time>
      </trkpt>
      <trkpt lat="46.15636" lon="6.5259">
        <ele>1086</ele>
        <time>2012-07-14T12:53:32Z</time>
      </trkpt>
      <trkpt lat="46.1564" lon="6.5261">
        <ele>1086</ele>
        <time>2012-07-14T12:53:34Z</time>
      </trkpt>
      <trkpt lat="46.15639" lon="6.52626">
        <ele>1086</ele>
        <time>2012-07-14T12:53:36Z</time>
      </trkpt>
      <trkpt lat="46.15631" lon="6.52634">
        <ele>1086</ele>
        <time>2012-07-14T12:53:38Z</time>
      </trkpt>
      <trkpt lat="46.15622" lon="6.52631">
        <ele>1086</ele>
        <time>2012-07-14T12:53:40Z</time>
      </trkpt>
      <trkpt lat="46.15612" lon="6.52626">
        <ele>1081</ele>
        <time>2012-07-14T12:53:43Z</time>
      </trkpt>
      <trkpt lat="46.15617" lon="6.52639">
        <ele>1081</ele>
        <time>2012-07-14T12:53:49Z</time>
      </trkpt>
      <trkpt lat="46.15625" lon="6.52655">
        <ele>1081</ele>
        <time>2012-07-14T12:53:52Z</time>
      </trkpt>
      <trkpt lat="46.15632" lon="6.52664">
        <ele>1081</ele>
        <time>2012-07-14T12:53:54Z</time>
      </trkpt>
      <trkpt lat="46.15638" lon="6.52674">
        <ele>1081</ele>
        <time>2012-07-14T12:53:56Z</time>
      </trkpt>
      <trkpt lat="46.15646" lon="6.52685">
        <ele>1081</ele>
        <time>2012-07-14T12:53:58Z</time>
      </trkpt>
      <trkpt lat="46.15653" lon="6.52696">
        <ele>1081</ele>
        <time>2012-07-14T12:54:00Z</time>
      </trkpt>
      <trkpt lat="46.1566" lon="6.52707">
        <ele>1081</ele>
        <time>2012-07-14T12:54:03Z</time>
      </trkpt>
      <trkpt lat="46.15651" lon="6.52701">
        <ele>1081</ele>
        <time>2012-07-14T12:54:18Z</time>
      </trkpt>
      <trkpt lat="46.15643" lon="6.5269">
        <ele>1081</ele>
        <time>2012-07-14T12:54:20Z</time>
      </trkpt>
      <trkpt lat="46.15636" lon="6.52677">
        <ele>1081</ele>
        <time>2012-07-14T12:54:22Z</time>
      </trkpt>
      <trkpt lat="46.15627" lon="6.5267">
        <ele>1081</ele>
        <time>2012-07-14T12:54:24Z</time>
      </trkpt>
      <trkpt lat="46.15617" lon="6.52666">
        <ele>1081</ele>
        <time>2012-07-14T12:54:28Z</time>
      </trkpt>
      <trkpt lat="46.15612" lon="6.52677">
        <ele>1081</ele>
        <time>2012-07-14T12:54:32Z</time>
      </trkpt>
      <trkpt lat="46.15603" lon="6.52684">
        <ele>1081</ele>
        <time>2012-07-14T12:54:35Z</time>
      </trkpt>
      <trkpt lat="46.15607" lon="6.52701">
        <ele>1074</ele>
        <time>2012-07-14T12:54:47Z</time>
      </trkpt>
      <trkpt lat="46.15612" lon="6.52713">
        <ele>1074</ele>
        <time>2012-07-14T12:54:50Z</time>
      </trkpt>
      <trkpt lat="46.1561" lon="6.52732">
        <ele>1074</ele>
        <time>2012-07-14T12:54:53Z</time>
      </trkpt>
      <trkpt lat="46.1561" lon="6.52751">
        <ele>1068</ele>
        <time>2012-07-14T12:54:56Z</time>
      </trkpt>
      <trkpt lat="46.15613" lon="6.52768">
        <ele>1068</ele>
        <time>2012-07-14T12:54:59Z</time>
      </trkpt>
      <trkpt lat="46.15614" lon="6.52782">
        <ele>1063</ele>
        <time>2012-07-14T12:55:02Z</time>
      </trkpt>
      <trkpt lat="46.15607" lon="6.52797">
        <ele>1063</ele>
        <time>2012-07-14T12:55:05Z</time>
      </trkpt>
      <trkpt lat="46.15596" lon="6.52807">
        <ele>1063</ele>
        <time>2012-07-14T12:55:07Z</time>
      </trkpt>
      <trkpt lat="46.15585" lon="6.52818">
        <ele>1063</ele>
        <time>2012-07-14T12:55:09Z</time>
      </trkpt>
      <trkpt lat="46.15576" lon="6.52832">
        <ele>1055</ele>
        <time>2012-07-14T12:55:11Z</time>
      </trkpt>
      <trkpt lat="46.15569" lon="6.52844">
        <ele>1055</ele>
        <time>2012-07-14T12:55:13Z</time>
      </trkpt>
      <trkpt lat="46.15564" lon="6.52856">
        <ele>1055</ele>
        <time>2012-07-14T12:55:15Z</time>
      </trkpt>
      <trkpt lat="46.15564" lon="6.52877">
        <ele>1047</ele>
        <time>2012-07-14T12:55:18Z</time>
      </trkpt>
      <trkpt lat="46.15566" lon="6.52895">
        <ele>1047</ele>
        <time>2012-07-14T12:55:20Z</time>
      </trkpt>
      <trkpt lat="46.15568" lon="6.52913">
        <ele>1047</ele>
        <time>2012-07-14T12:55:22Z</time>
      </trkpt>
      <trkpt lat="46.15568" lon="6.52928">
        <ele>1041</ele>
        <time>2012-07-14T12:55:24Z</time>
      </trkpt>
      <trkpt lat="46.15562" lon="6.52938">
        <ele>1041</ele>
        <time>2012-07-14T12:55:43Z</time>
      </trkpt>
      <trkpt lat="46.15552" lon="6.52941">
        <ele>1041</ele>
        <time>2012-07-14T12:55:54Z</time>
      </trkpt>
      <trkpt lat="46.15544" lon="6.52931">
        <ele>1041</ele>
        <time>2012-07-14T12:55:58Z</time>
      </trkpt>
      <trkpt lat="46.15536" lon="6.52915">
        <ele>1041</ele>
        <time>2012-07-14T12:56:01Z</time>
      </trkpt>
      <trkpt lat="46.15527" lon="6.52899">
        <ele>1041</ele>
        <time>2012-07-14T12:56:04Z</time>
      </trkpt>
      <trkpt lat="46.15519" lon="6.52887">
        <ele>1035</ele>
        <time>2012-07-14T12:56:06Z</time>
      </trkpt>
      <trkpt lat="46.15511" lon="6.5287">
        <ele>1035</ele>
        <time>2012-07-14T12:56:08Z</time>
      </trkpt>
      <trkpt lat="46.15504" lon="6.52856">
        <ele>1035</ele>
        <time>2012-07-14T12:56:10Z</time>
      </trkpt>
      <trkpt lat="46.15499" lon="6.52843">
        <ele>1035</ele>
        <time>2012-07-14T12:56:12Z</time>
      </trkpt>
      <trkpt lat="46.1549" lon="6.52829">
        <ele>1035</ele>
        <time>2012-07-14T12:56:14Z</time>
      </trkpt>
      <trkpt lat="46.15482" lon="6.5282">
        <ele>1035</ele>
        <time>2012-07-14T12:56:16Z</time>
      </trkpt>
      <trkpt lat="46.15473" lon="6.52809">
        <ele>1035</ele>
        <time>2012-07-14T12:56:19Z</time>
      </trkpt>
      <trkpt lat="46.15465" lon="6.52802">
        <ele>1035</ele>
        <time>2012-07-14T12:56:21Z</time>
      </trkpt>
      <trkpt lat="46.15459" lon="6.52787">
        <ele>1030</ele>
        <time>2012-07-14T12:56:24Z</time>
      </trkpt>
      <trkpt lat="46.15454" lon="6.5277">
        <ele>1030</ele>
        <time>2012-07-14T12:56:27Z</time>
      </trkpt>
      <trkpt lat="46.15448" lon="6.52758">
        <ele>1030</ele>
        <time>2012-07-14T12:56:29Z</time>
      </trkpt>
      <trkpt lat="46.15445" lon="6.52744">
        <ele>1030</ele>
        <time>2012-07-14T12:56:31Z</time>
      </trkpt>
      <trkpt lat="46.15445" lon="6.5273">
        <ele>1024</ele>
        <time>2012-07-14T12:56:33Z</time>
      </trkpt>
      <trkpt lat="46.15441" lon="6.52712">
        <ele>1024</ele>
        <time>2012-07-14T12:56:36Z</time>
      </trkpt>
      <trkpt lat="46.15441" lon="6.52697">
        <ele>1024</ele>
        <time>2012-07-14T12:56:38Z</time>
      </trkpt>
      <trkpt lat="46.15442" lon="6.52683">
        <ele>1024</ele>
        <time>2012-07-14T12:56:40Z</time>
      </trkpt>
      <trkpt lat="46.1544" lon="6.52668">
        <ele>1019</ele>
        <time>2012-07-14T12:56:42Z</time>
      </trkpt>
      <trkpt lat="46.15437" lon="6.52653">
        <ele>1019</ele>
        <time>2012-07-14T12:56:44Z</time>
      </trkpt>
      <trkpt lat="46.15432" lon="6.52638">
        <ele>1019</ele>
        <time>2012-07-14T12:56:46Z</time>
      </trkpt>
      <trkpt lat="46.15426" lon="6.52626">
        <ele>1013</ele>
        <time>2012-07-14T12:56:48Z</time>
      </trkpt>
      <trkpt lat="46.15426" lon="6.52611">
        <ele>1013</ele>
        <time>2012-07-14T12:56:50Z</time>
      </trkpt>
      <trkpt lat="46.15424" lon="6.52596">
        <ele>1006</ele>
        <time>2012-07-14T12:56:52Z</time>
      </trkpt>
      <trkpt lat="46.15418" lon="6.52583">
        <ele>1006</ele>
        <time>2012-07-14T12:56:55Z</time>
      </trkpt>
      <trkpt lat="46.15414" lon="6.5257">
        <ele>1006</ele>
        <time>2012-07-14T12:56:58Z</time>
      </trkpt>
      <trkpt lat="46.15411" lon="6.52557">
        <ele>1006</ele>
        <time>2012-07-14T12:57:01Z</time>
      </trkpt>
      <trkpt lat="46.15406" lon="6.52543">
        <ele>997</ele>
        <time>2012-07-14T12:57:04Z</time>
      </trkpt>
      <trkpt lat="46.15401" lon="6.52529">
        <ele>992</ele>
        <time>2012-07-14T12:57:07Z</time>
      </trkpt>
      <trkpt lat="46.15397" lon="6.52515">
        <ele>986</ele>
        <time>2012-07-14T12:57:10Z</time>
      </trkpt>
      <trkpt lat="46.15393" lon="6.52496">
        <ele>986</ele>
        <time>2012-07-14T12:57:13Z</time>
      </trkpt>
      <trkpt lat="46.1539" lon="6.52479">
        <ele>978</ele>
        <time>2012-07-14T12:57:16Z</time>
      </trkpt>
      <trkpt lat="46.15386" lon="6.52463">
        <ele>978</ele>
        <time>2012-07-14T12:57:19Z</time>
      </trkpt>
      <trkpt lat="46.1538" lon="6.52449">
        <ele>978</ele>
        <time>2012-07-14T12:57:21Z</time>
      </trkpt>
      <trkpt lat="46.15373" lon="6.52434">
        <ele>978</ele>
        <time>2012-07-14T12:57:24Z</time>
      </trkpt>
      <trkpt lat="46.15371" lon="6.52421">
        <ele>978</ele>
        <time>2012-07-14T12:57:27Z</time>
      </trkpt>
      <trkpt lat="46.15364" lon="6.52401">
        <ele>967</ele>
        <time>2012-07-14T12:57:32Z</time>
      </trkpt>
      <trkpt lat="46.15353" lon="6.52399">
        <ele>967</ele>
        <time>2012-07-14T12:57:35Z</time>
      </trkpt>
      <trkpt lat="46.15348" lon="6.52414">
        <ele>967</ele>
        <time>2012-07-14T12:57:39Z</time>
      </trkpt>
      <trkpt lat="46.15346" lon="6.5243">
        <ele>967</ele>
        <time>2012-07-14T12:57:42Z</time>
      </trkpt>
      <trkpt lat="46.15346" lon="6.52446">
        <ele>962</ele>
        <time>2012-07-14T12:57:44Z</time>
      </trkpt>
      <trkpt lat="46.15347" lon="6.52464">
        <ele>962</ele>
        <time>2012-07-14T12:57:46Z</time>
      </trkpt>
      <trkpt lat="46.15346" lon="6.52482">
        <ele>962</ele>
        <time>2012-07-14T12:57:48Z</time>
      </trkpt>
      <trkpt lat="46.15343" lon="6.525">
        <ele>962</ele>
        <time>2012-07-14T12:57:50Z</time>
      </trkpt>
      <trkpt lat="46.15341" lon="6.52518">
        <ele>962</ele>
        <time>2012-07-14T12:57:52Z</time>
      </trkpt>
      <trkpt lat="46.15338" lon="6.52533">
        <ele>962</ele>
        <time>2012-07-14T12:57:54Z</time>
      </trkpt>
      <trkpt lat="46.15334" lon="6.5255">
        <ele>962</ele>
        <time>2012-07-14T12:57:56Z</time>
      </trkpt>
      <trkpt lat="46.1533" lon="6.5257">
        <ele>955</ele>
        <time>2012-07-14T12:57:58Z</time>
      </trkpt>
      <trkpt lat="46.15327" lon="6.52587">
        <ele>955</ele>
        <time>2012-07-14T12:58:00Z</time>
      </trkpt>
      <trkpt lat="46.15323" lon="6.52605">
        <ele>955</ele>
        <time>2012-07-14T12:58:02Z</time>
      </trkpt>
      <trkpt lat="46.15322" lon="6.52629">
        <ele>949</ele>
        <time>2012-07-14T12:58:04Z</time>
      </trkpt>
      <trkpt lat="46.1532" lon="6.52652">
        <ele>949</ele>
        <time>2012-07-14T12:58:06Z</time>
      </trkpt>
      <trkpt lat="46.15318" lon="6.52672">
        <ele>943</ele>
        <time>2012-07-14T12:58:08Z</time>
      </trkpt>
      <trkpt lat="46.15317" lon="6.52691">
        <ele>943</ele>
        <time>2012-07-14T12:58:10Z</time>
      </trkpt>
      <trkpt lat="46.15315" lon="6.52707">
        <ele>937</ele>
        <time>2012-07-14T12:58:12Z</time>
      </trkpt>
      <trkpt lat="46.15309" lon="6.52721">
        <ele>943</ele>
        <time>2012-07-14T12:58:15Z</time>
      </trkpt>
      <trkpt lat="46.15307" lon="6.52738">
        <ele>943</ele>
        <time>2012-07-14T12:58:18Z</time>
      </trkpt>
      <trkpt lat="46.15305" lon="6.52755">
        <ele>943</ele>
        <time>2012-07-14T12:58:21Z</time>
      </trkpt>
      <trkpt lat="46.15304" lon="6.52773">
        <ele>937</ele>
        <time>2012-07-14T12:58:27Z</time>
      </trkpt>
      <trkpt lat="46.15306" lon="6.5279">
        <ele>937</ele>
        <time>2012-07-14T12:58:29Z</time>
      </trkpt>
      <trkpt lat="46.15309" lon="6.52808">
        <ele>937</ele>
        <time>2012-07-14T12:58:31Z</time>
      </trkpt>
      <trkpt lat="46.15314" lon="6.52827">
        <ele>931</ele>
        <time>2012-07-14T12:58:33Z</time>
      </trkpt>
      <trkpt lat="46.1532" lon="6.52845">
        <ele>931</ele>
        <time>2012-07-14T12:58:35Z</time>
      </trkpt>
      <trkpt lat="46.15323" lon="6.52859">
        <ele>931</ele>
        <time>2012-07-14T12:58:37Z</time>
      </trkpt>
      <trkpt lat="46.15317" lon="6.5287">
        <ele>931</ele>
        <time>2012-07-14T12:58:44Z</time>
      </trkpt>
      <trkpt lat="46.15323" lon="6.52886">
        <ele>925</ele>
        <time>2012-07-14T12:58:52Z</time>
      </trkpt>
      <trkpt lat="46.15332" lon="6.52902">
        <ele>925</ele>
        <time>2012-07-14T12:58:54Z</time>
      </trkpt>
      <trkpt lat="46.1534" lon="6.52926">
        <ele>925</ele>
        <time>2012-07-14T12:58:56Z</time>
      </trkpt>
      <trkpt lat="46.15343" lon="6.52941">
        <ele>925</ele>
        <time>2012-07-14T12:58:57Z</time>
      </trkpt>
      <trkpt lat="46.15347" lon="6.52956">
        <ele>925</ele>
        <time>2012-07-14T12:58:58Z</time>
      </trkpt>
      <trkpt lat="46.1535" lon="6.5297">
        <ele>925</ele>
        <time>2012-07-14T12:58:59Z</time>
      </trkpt>
      <trkpt lat="46.15353" lon="6.52985">
        <ele>925</ele>
        <time>2012-07-14T12:59:00Z</time>
      </trkpt>
      <trkpt lat="46.15357" lon="6.53">
        <ele>925</ele>
        <time>2012-07-14T12:59:01Z</time>
      </trkpt>
      <trkpt lat="46.1536" lon="6.53013">
        <ele>925</ele>
        <time>2012-07-14T12:59:02Z</time>
      </trkpt>
      <trkpt lat="46.15362" lon="6.53029">
        <ele>925</ele>
        <time>2012-07-14T12:59:03Z</time>
      </trkpt>
      <trkpt lat="46.15363" lon="6.53044">
        <ele>925</ele>
        <time>2012-07-14T12:59:04Z</time>
      </trkpt>
      <trkpt lat="46.15362" lon="6.53058">
        <ele>925</ele>
        <time>2012-07-14T12:59:05Z</time>
      </trkpt>
      <trkpt lat="46.15361" lon="6.53073">
        <ele>925</ele>
        <time>2012-07-14T12:59:06Z</time>
      </trkpt>
      <trkpt lat="46.1536" lon="6.53097">
        <ele>933</ele>
        <time>2012-07-14T12:59:08Z</time>
      </trkpt>
      <trkpt lat="46.15362" lon="6.53117">
        <ele>933</ele>
        <time>2012-07-14T12:59:10Z</time>
      </trkpt>
      <trkpt lat="46.15363" lon="6.53133">
        <ele>933</ele>
        <time>2012-07-14T12:59:12Z</time>
      </trkpt>
      <trkpt lat="46.1536" lon="6.53147">
        <ele>933</ele>
        <time>2012-07-14T12:59:14Z</time>
      </trkpt>
      <trkpt lat="46.15356" lon="6.53164">
        <ele>933</ele>
        <time>2012-07-14T12:59:16Z</time>
      </trkpt>
      <trkpt lat="46.1535" lon="6.53185">
        <ele>939</ele>
        <time>2012-07-14T12:59:18Z</time>
      </trkpt>
      <trkpt lat="46.15345" lon="6.53207">
        <ele>939</ele>
        <time>2012-07-14T12:59:20Z</time>
      </trkpt>
      <trkpt lat="46.1534" lon="6.5323">
        <ele>939</ele>
        <time>2012-07-14T12:59:22Z</time>
      </trkpt>
      <trkpt lat="46.15333" lon="6.53245">
        <ele>939</ele>
        <time>2012-07-14T12:59:24Z</time>
      </trkpt>
      <trkpt lat="46.15323" lon="6.53251">
        <ele>939</ele>
        <time>2012-07-14T12:59:26Z</time>
      </trkpt>
      <trkpt lat="46.15314" lon="6.53253">
        <ele>939</ele>
        <time>2012-07-14T12:59:29Z</time>
      </trkpt>
      <trkpt lat="46.15302" lon="6.53253">
        <ele>939</ele>
        <time>2012-07-14T12:59:33Z</time>
      </trkpt>
      <trkpt lat="46.15294" lon="6.53244">
        <ele>939</ele>
        <time>2012-07-14T12:59:35Z</time>
      </trkpt>
      <trkpt lat="46.15287" lon="6.53227">
        <ele>939</ele>
        <time>2012-07-14T12:59:37Z</time>
      </trkpt>
      <trkpt lat="46.15281" lon="6.53206">
        <ele>939</ele>
        <time>2012-07-14T12:59:39Z</time>
      </trkpt>
      <trkpt lat="46.15277" lon="6.53193">
        <ele>939</ele>
        <time>2012-07-14T12:59:40Z</time>
      </trkpt>
      <trkpt lat="46.15269" lon="6.53171">
        <ele>944</ele>
        <time>2012-07-14T12:59:42Z</time>
      </trkpt>
      <trkpt lat="46.15261" lon="6.53148">
        <ele>944</ele>
        <time>2012-07-14T12:59:44Z</time>
      </trkpt>
      <trkpt lat="46.15256" lon="6.53135">
        <ele>944</ele>
        <time>2012-07-14T12:59:45Z</time>
      </trkpt>
      <trkpt lat="46.15251" lon="6.53124">
        <ele>944</ele>
        <time>2012-07-14T12:59:46Z</time>
      </trkpt>
      <trkpt lat="46.15245" lon="6.53112">
        <ele>944</ele>
        <time>2012-07-14T12:59:47Z</time>
      </trkpt>
      <trkpt lat="46.1524" lon="6.53098">
        <ele>944</ele>
        <time>2012-07-14T12:59:48Z</time>
      </trkpt>
      <trkpt lat="46.15235" lon="6.53085">
        <ele>944</ele>
        <time>2012-07-14T12:59:49Z</time>
      </trkpt>
      <trkpt lat="46.15232" lon="6.53073">
        <ele>944</ele>
        <time>2012-07-14T12:59:50Z</time>
      </trkpt>
      <trkpt lat="46.1523" lon="6.53051">
        <ele>944</ele>
        <time>2012-07-14T12:59:52Z</time>
      </trkpt>
      <trkpt lat="46.15228" lon="6.53031">
        <ele>944</ele>
        <time>2012-07-14T12:59:54Z</time>
      </trkpt>
      <trkpt lat="46.15225" lon="6.53013">
        <ele>944</ele>
        <time>2012-07-14T12:59:56Z</time>
      </trkpt>
      <trkpt lat="46.15222" lon="6.52994">
        <ele>944</ele>
        <time>2012-07-14T12:59:58Z</time>
      </trkpt>
      <trkpt lat="46.15218" lon="6.52974">
        <ele>944</ele>
        <time>2012-07-14T13:00:00Z</time>
      </trkpt>
      <trkpt lat="46.15214" lon="6.52951">
        <ele>944</ele>
        <time>2012-07-14T13:00:02Z</time>
      </trkpt>
      <trkpt lat="46.15209" lon="6.52927">
        <ele>944</ele>
        <time>2012-07-14T13:00:04Z</time>
      </trkpt>
      <trkpt lat="46.15202" lon="6.52906">
        <ele>944</ele>
        <time>2012-07-14T13:00:06Z</time>
      </trkpt>
      <trkpt lat="46.15192" lon="6.52896">
        <ele>944</ele>
        <time>2012-07-14T13:00:08Z</time>
      </trkpt>
      <trkpt lat="46.15179" lon="6.52891">
        <ele>944</ele>
        <time>2012-07-14T13:00:10Z</time>
      </trkpt>
      <trkpt lat="46.15164" lon="6.52886">
        <ele>944</ele>
        <time>2012-07-14T13:00:12Z</time>
      </trkpt>
      <trkpt lat="46.15152" lon="6.52876">
        <ele>944</ele>
        <time>2012-07-14T13:00:14Z</time>
      </trkpt>
      <trkpt lat="46.15142" lon="6.52862">
        <ele>950</ele>
        <time>2012-07-14T13:00:16Z</time>
      </trkpt>
      <trkpt lat="46.15131" lon="6.52845">
        <ele>950</ele>
        <time>2012-07-14T13:00:18Z</time>
      </trkpt>
      <trkpt lat="46.15126" lon="6.52827">
        <ele>950</ele>
        <time>2012-07-14T13:00:20Z</time>
      </trkpt>
      <trkpt lat="46.15119" lon="6.52813">
        <ele>950</ele>
        <time>2012-07-14T13:00:22Z</time>
      </trkpt>
      <trkpt lat="46.15112" lon="6.52803">
        <ele>950</ele>
        <time>2012-07-14T13:00:24Z</time>
      </trkpt>
      <trkpt lat="46.151" lon="6.52792">
        <ele>950</ele>
        <time>2012-07-14T13:00:26Z</time>
      </trkpt>
      <trkpt lat="46.15089" lon="6.52781">
        <ele>950</ele>
        <time>2012-07-14T13:00:28Z</time>
      </trkpt>
      <trkpt lat="46.15081" lon="6.52765">
        <ele>950</ele>
        <time>2012-07-14T13:00:30Z</time>
      </trkpt>
      <trkpt lat="46.15069" lon="6.52748">
        <ele>950</ele>
        <time>2012-07-14T13:00:32Z</time>
      </trkpt>
      <trkpt lat="46.15061" lon="6.52738">
        <ele>950</ele>
        <time>2012-07-14T13:00:33Z</time>
      </trkpt>
      <trkpt lat="46.15049" lon="6.52719">
        <ele>950</ele>
        <time>2012-07-14T13:00:35Z</time>
      </trkpt>
      <trkpt lat="46.15038" lon="6.52699">
        <ele>950</ele>
        <time>2012-07-14T13:00:37Z</time>
      </trkpt>
      <trkpt lat="46.15031" lon="6.52689">
        <ele>950</ele>
        <time>2012-07-14T13:00:38Z</time>
      </trkpt>
      <trkpt lat="46.15018" lon="6.52675">
        <ele>944</ele>
        <time>2012-07-14T13:00:40Z</time>
      </trkpt>
      <trkpt lat="46.15009" lon="6.5266">
        <ele>944</ele>
        <time>2012-07-14T13:00:42Z</time>
      </trkpt>
      <trkpt lat="46.14997" lon="6.52651">
        <ele>944</ele>
        <time>2012-07-14T13:00:44Z</time>
      </trkpt>
      <trkpt lat="46.14983" lon="6.52642">
        <ele>944</ele>
        <time>2012-07-14T13:00:46Z</time>
      </trkpt>
      <trkpt lat="46.1497" lon="6.52633">
        <ele>944</ele>
        <time>2012-07-14T13:00:48Z</time>
      </trkpt>
      <trkpt lat="46.14957" lon="6.52624">
        <ele>944</ele>
        <time>2012-07-14T13:00:50Z</time>
      </trkpt>
      <trkpt lat="46.14946" lon="6.5261">
        <ele>944</ele>
        <time>2012-07-14T13:00:52Z</time>
      </trkpt>
      <trkpt lat="46.14936" lon="6.52601">
        <ele>944</ele>
        <time>2012-07-14T13:00:54Z</time>
      </trkpt>
      <trkpt lat="46.14925" lon="6.52593">
        <ele>944</ele>
        <time>2012-07-14T13:00:56Z</time>
      </trkpt>
      <trkpt lat="46.14916" lon="6.52586">
        <ele>944</ele>
        <time>2012-07-14T13:00:58Z</time>
      </trkpt>
      <trkpt lat="46.14907" lon="6.52574">
        <ele>938</ele>
        <time>2012-07-14T13:01:24Z</time>
      </trkpt>
      <trkpt lat="46.149" lon="6.52561">
        <ele>938</ele>
        <time>2012-07-14T13:01:26Z</time>
      </trkpt>
      <trkpt lat="46.14892" lon="6.52552">
        <ele>938</ele>
        <time>2012-07-14T13:01:28Z</time>
      </trkpt>
      <trkpt lat="46.14887" lon="6.52539">
        <ele>938</ele>
        <time>2012-07-14T13:01:30Z</time>
      </trkpt>
      <trkpt lat="46.14883" lon="6.52525">
        <ele>938</ele>
        <time>2012-07-14T13:01:32Z</time>
      </trkpt>
      <trkpt lat="46.14878" lon="6.52514">
        <ele>938</ele>
        <time>2012-07-14T13:01:34Z</time>
      </trkpt>
      <trkpt lat="46.14873" lon="6.52503">
        <ele>938</ele>
        <time>2012-07-14T13:01:36Z</time>
      </trkpt>
      <trkpt lat="46.14863" lon="6.52497">
        <ele>938</ele>
        <time>2012-07-14T13:01:39Z</time>
      </trkpt>
      <trkpt lat="46.14852" lon="6.52498">
        <ele>938</ele>
        <time>2012-07-14T13:01:41Z</time>
      </trkpt>
      <trkpt lat="46.14841" lon="6.52499">
        <ele>938</ele>
        <time>2012-07-14T13:01:43Z</time>
      </trkpt>
      <trkpt lat="46.14831" lon="6.52495">
        <ele>938</ele>
        <time>2012-07-14T13:01:45Z</time>
      </trkpt>
      <trkpt lat="46.1482" lon="6.52487">
        <ele>938</ele>
        <time>2012-07-14T13:01:47Z</time>
      </trkpt>
      <trkpt lat="46.14808" lon="6.52479">
        <ele>932</ele>
        <time>2012-07-14T13:01:49Z</time>
      </trkpt>
      <trkpt lat="46.14799" lon="6.52472">
        <ele>932</ele>
        <time>2012-07-14T13:01:51Z</time>
      </trkpt>
      <trkpt lat="46.1479" lon="6.52468">
        <ele>932</ele>
        <time>2012-07-14T13:01:53Z</time>
      </trkpt>
      <trkpt lat="46.14781" lon="6.52462">
        <ele>932</ele>
        <time>2012-07-14T13:01:55Z</time>
      </trkpt>
      <trkpt lat="46.14772" lon="6.52457">
        <ele>932</ele>
        <time>2012-07-14T13:01:57Z</time>
      </trkpt>
      <trkpt lat="46.14762" lon="6.52454">
        <ele>927</ele>
        <time>2012-07-14T13:01:59Z</time>
      </trkpt>
      <trkpt lat="46.14751" lon="6.52447">
        <ele>927</ele>
        <time>2012-07-14T13:02:01Z</time>
      </trkpt>
      <trkpt lat="46.14741" lon="6.52439">
        <ele>921</ele>
        <time>2012-07-14T13:02:03Z</time>
      </trkpt>
      <trkpt lat="46.14732" lon="6.52432">
        <ele>921</ele>
        <time>2012-07-14T13:02:05Z</time>
      </trkpt>
      <trkpt lat="46.14723" lon="6.52429">
        <ele>916</ele>
        <time>2012-07-14T13:02:07Z</time>
      </trkpt>
      <trkpt lat="46.14712" lon="6.52433">
        <ele>916</ele>
        <time>2012-07-14T13:02:09Z</time>
      </trkpt>
      <trkpt lat="46.14697" lon="6.5244">
        <ele>908</ele>
        <time>2012-07-14T13:02:11Z</time>
      </trkpt>
      <trkpt lat="46.1468" lon="6.52446">
        <ele>908</ele>
        <time>2012-07-14T13:02:13Z</time>
      </trkpt>
      <trkpt lat="46.14667" lon="6.52451">
        <ele>908</ele>
        <time>2012-07-14T13:02:15Z</time>
      </trkpt>
      <trkpt lat="46.14655" lon="6.5246">
        <ele>908</ele>
        <time>2012-07-14T13:02:17Z</time>
      </trkpt>
      <trkpt lat="46.14643" lon="6.5247">
        <ele>899</ele>
        <time>2012-07-14T13:02:19Z</time>
      </trkpt>
      <trkpt lat="46.14629" lon="6.52471">
        <ele>899</ele>
        <time>2012-07-14T13:02:22Z</time>
      </trkpt>
      <trkpt lat="46.14616" lon="6.52472">
        <ele>899</ele>
        <time>2012-07-14T13:02:24Z</time>
      </trkpt>
      <trkpt lat="46.146" lon="6.52469">
        <ele>899</ele>
        <time>2012-07-14T13:02:26Z</time>
      </trkpt>
      <trkpt lat="46.1459" lon="6.52467">
        <ele>899</ele>
        <time>2012-07-14T13:02:27Z</time>
      </trkpt>
      <trkpt lat="46.14581" lon="6.52465">
        <ele>899</ele>
        <time>2012-07-14T13:02:28Z</time>
      </trkpt>
      <trkpt lat="46.14572" lon="6.52462">
        <ele>899</ele>
        <time>2012-07-14T13:02:29Z</time>
      </trkpt>
      <trkpt lat="46.14557" lon="6.52457">
        <ele>894</ele>
        <time>2012-07-14T13:02:31Z</time>
      </trkpt>
      <trkpt lat="46.14549" lon="6.52451">
        <ele>894</ele>
        <time>2012-07-14T13:02:33Z</time>
      </trkpt>
      <trkpt lat="46.14534" lon="6.52449">
        <ele>894</ele>
        <time>2012-07-14T13:02:36Z</time>
      </trkpt>
      <trkpt lat="46.14519" lon="6.52444">
        <ele>894</ele>
        <time>2012-07-14T13:02:38Z</time>
      </trkpt>
      <trkpt lat="46.14506" lon="6.52436">
        <ele>894</ele>
        <time>2012-07-14T13:02:40Z</time>
      </trkpt>
      <trkpt lat="46.14493" lon="6.52433">
        <ele>894</ele>
        <time>2012-07-14T13:02:42Z</time>
      </trkpt>
      <trkpt lat="46.14478" lon="6.52437">
        <ele>894</ele>
        <time>2012-07-14T13:02:44Z</time>
      </trkpt>
      <trkpt lat="46.14461" lon="6.52443">
        <ele>894</ele>
        <time>2012-07-14T13:02:46Z</time>
      </trkpt>
      <trkpt lat="46.14445" lon="6.52449">
        <ele>894</ele>
        <time>2012-07-14T13:02:48Z</time>
      </trkpt>
      <trkpt lat="46.14429" lon="6.52453">
        <ele>894</ele>
        <time>2012-07-14T13:02:50Z</time>
      </trkpt>
      <trkpt lat="46.14417" lon="6.52455">
        <ele>889</ele>
        <time>2012-07-14T13:02:52Z</time>
      </trkpt>
      <trkpt lat="46.14405" lon="6.5246">
        <ele>889</ele>
        <time>2012-07-14T13:02:54Z</time>
      </trkpt>
      <trkpt lat="46.14392" lon="6.52467">
        <ele>889</ele>
        <time>2012-07-14T13:02:56Z</time>
      </trkpt>
      <trkpt lat="46.14381" lon="6.52472">
        <ele>883</ele>
        <time>2012-07-14T13:02:58Z</time>
      </trkpt>
      <trkpt lat="46.14373" lon="6.52479">
        <ele>883</ele>
        <time>2012-07-14T13:03:00Z</time>
      </trkpt>
      <trkpt lat="46.14363" lon="6.52484">
        <ele>883</ele>
        <time>2012-07-14T13:03:02Z</time>
      </trkpt>
      <trkpt lat="46.14352" lon="6.52498">
        <ele>883</ele>
        <time>2012-07-14T13:03:04Z</time>
      </trkpt>
      <trkpt lat="46.14339" lon="6.52517">
        <ele>883</ele>
        <time>2012-07-14T13:03:06Z</time>
      </trkpt>
      <trkpt lat="46.14326" lon="6.52534">
        <ele>877</ele>
        <time>2012-07-14T13:03:08Z</time>
      </trkpt>
      <trkpt lat="46.14319" lon="6.52542">
        <ele>877</ele>
        <time>2012-07-14T13:03:09Z</time>
      </trkpt>
      <trkpt lat="46.14305" lon="6.52555">
        <ele>877</ele>
        <time>2012-07-14T13:03:11Z</time>
      </trkpt>
      <trkpt lat="46.14291" lon="6.52565">
        <ele>877</ele>
        <time>2012-07-14T13:03:13Z</time>
      </trkpt>
      <trkpt lat="46.14281" lon="6.52576">
        <ele>871</ele>
        <time>2012-07-14T13:03:15Z</time>
      </trkpt>
      <trkpt lat="46.14272" lon="6.52586">
        <ele>871</ele>
        <time>2012-07-14T13:03:17Z</time>
      </trkpt>
      <trkpt lat="46.14264" lon="6.52595">
        <ele>871</ele>
        <time>2012-07-14T13:03:19Z</time>
      </trkpt>
      <trkpt lat="46.14253" lon="6.52602">
        <ele>865</ele>
        <time>2012-07-14T13:03:22Z</time>
      </trkpt>
      <trkpt lat="46.14251" lon="6.52585">
        <ele>865</ele>
        <time>2012-07-14T13:03:27Z</time>
      </trkpt>
      <trkpt lat="46.14256" lon="6.52571">
        <ele>865</ele>
        <time>2012-07-14T13:03:29Z</time>
      </trkpt>
      <trkpt lat="46.14263" lon="6.52552">
        <ele>865</ele>
        <time>2012-07-14T13:03:31Z</time>
      </trkpt>
      <trkpt lat="46.14266" lon="6.5254">
        <ele>865</ele>
        <time>2012-07-14T13:03:32Z</time>
      </trkpt>
      <trkpt lat="46.14271" lon="6.52527">
        <ele>865</ele>
        <time>2012-07-14T13:03:33Z</time>
      </trkpt>
      <trkpt lat="46.14276" lon="6.52515">
        <ele>865</ele>
        <time>2012-07-14T13:03:34Z</time>
      </trkpt>
      <trkpt lat="46.1428" lon="6.52501">
        <ele>865</ele>
        <time>2012-07-14T13:03:35Z</time>
      </trkpt>
      <trkpt lat="46.14286" lon="6.52477">
        <ele>865</ele>
        <time>2012-07-14T13:03:37Z</time>
      </trkpt>
      <trkpt lat="46.14289" lon="6.52454">
        <ele>860</ele>
        <time>2012-07-14T13:03:39Z</time>
      </trkpt>
      <trkpt lat="46.14291" lon="6.52431">
        <ele>860</ele>
        <time>2012-07-14T13:03:41Z</time>
      </trkpt>
      <trkpt lat="46.14295" lon="6.52411">
        <ele>860</ele>
        <time>2012-07-14T13:03:43Z</time>
      </trkpt>
      <trkpt lat="46.14301" lon="6.52393">
        <ele>860</ele>
        <time>2012-07-14T13:03:45Z</time>
      </trkpt>
      <trkpt lat="46.1431" lon="6.52382">
        <ele>860</ele>
        <time>2012-07-14T13:03:47Z</time>
      </trkpt>
      <trkpt lat="46.14321" lon="6.52376">
        <ele>860</ele>
        <time>2012-07-14T13:03:49Z</time>
      </trkpt>
      <trkpt lat="46.14333" lon="6.52368">
        <ele>860</ele>
        <time>2012-07-14T13:03:51Z</time>
      </trkpt>
      <trkpt lat="46.14343" lon="6.5235">
        <ele>860</ele>
        <time>2012-07-14T13:03:53Z</time>
      </trkpt>
      <trkpt lat="46.14347" lon="6.52338">
        <ele>853</ele>
        <time>2012-07-14T13:03:54Z</time>
      </trkpt>
      <trkpt lat="46.14351" lon="6.52316">
        <ele>853</ele>
        <time>2012-07-14T13:03:56Z</time>
      </trkpt>
      <trkpt lat="46.14355" lon="6.52298">
        <ele>853</ele>
        <time>2012-07-14T13:03:58Z</time>
      </trkpt>
      <trkpt lat="46.14364" lon="6.52286">
        <ele>853</ele>
        <time>2012-07-14T13:04:00Z</time>
      </trkpt>
      <trkpt lat="46.14378" lon="6.52278">
        <ele>853</ele>
        <time>2012-07-14T13:04:02Z</time>
      </trkpt>
      <trkpt lat="46.1439" lon="6.52271">
        <ele>853</ele>
        <time>2012-07-14T13:04:04Z</time>
      </trkpt>
      <trkpt lat="46.14401" lon="6.52261">
        <ele>853</ele>
        <time>2012-07-14T13:04:06Z</time>
      </trkpt>
      <trkpt lat="46.14414" lon="6.52252">
        <ele>853</ele>
        <time>2012-07-14T13:04:08Z</time>
      </trkpt>
      <trkpt lat="46.14428" lon="6.52247">
        <ele>853</ele>
        <time>2012-07-14T13:04:10Z</time>
      </trkpt>
      <trkpt lat="46.14441" lon="6.52235">
        <ele>853</ele>
        <time>2012-07-14T13:04:12Z</time>
      </trkpt>
      <trkpt lat="46.14451" lon="6.52216">
        <ele>853</ele>
        <time>2012-07-14T13:04:14Z</time>
      </trkpt>
      <trkpt lat="46.14462" lon="6.52193">
        <ele>853</ele>
        <time>2012-07-14T13:04:16Z</time>
      </trkpt>
      <trkpt lat="46.14467" lon="6.52181">
        <ele>853</ele>
        <time>2012-07-14T13:04:17Z</time>
      </trkpt>
      <trkpt lat="46.14474" lon="6.52168">
        <ele>853</ele>
        <time>2012-07-14T13:04:18Z</time>
      </trkpt>
      <trkpt lat="46.14481" lon="6.52156">
        <ele>853</ele>
        <time>2012-07-14T13:04:19Z</time>
      </trkpt>
      <trkpt lat="46.14489" lon="6.52146">
        <ele>853</ele>
        <time>2012-07-14T13:04:20Z</time>
      </trkpt>
      <trkpt lat="46.14496" lon="6.52137">
        <ele>853</ele>
        <time>2012-07-14T13:04:21Z</time>
      </trkpt>
      <trkpt lat="46.1451" lon="6.52121">
        <ele>853</ele>
        <time>2012-07-14T13:04:23Z</time>
      </trkpt>
      <trkpt lat="46.14524" lon="6.52111">
        <ele>853</ele>
        <time>2012-07-14T13:04:25Z</time>
      </trkpt>
      <trkpt lat="46.14536" lon="6.5211">
        <ele>853</ele>
        <time>2012-07-14T13:04:27Z</time>
      </trkpt>
      <trkpt lat="46.14549" lon="6.52119">
        <ele>853</ele>
        <time>2012-07-14T13:04:29Z</time>
      </trkpt>
      <trkpt lat="46.14558" lon="6.52122">
        <ele>853</ele>
        <time>2012-07-14T13:04:30Z</time>
      </trkpt>
      <trkpt lat="46.14575" lon="6.52128">
        <ele>843</ele>
        <time>2012-07-14T13:04:32Z</time>
      </trkpt>
      <trkpt lat="46.14589" lon="6.52139">
        <ele>837</ele>
        <time>2012-07-14T13:04:34Z</time>
      </trkpt>
      <trkpt lat="46.14602" lon="6.52154">
        <ele>837</ele>
        <time>2012-07-14T13:04:36Z</time>
      </trkpt>
      <trkpt lat="46.14615" lon="6.52163">
        <ele>837</ele>
        <time>2012-07-14T13:04:38Z</time>
      </trkpt>
      <trkpt lat="46.14625" lon="6.52163">
        <ele>837</ele>
        <time>2012-07-14T13:04:39Z</time>
      </trkpt>
      <trkpt lat="46.14635" lon="6.52163">
        <ele>831</ele>
        <time>2012-07-14T13:04:40Z</time>
      </trkpt>
      <trkpt lat="46.14652" lon="6.52158">
        <ele>831</ele>
        <time>2012-07-14T13:04:42Z</time>
      </trkpt>
      <trkpt lat="46.14663" lon="6.52155">
        <ele>831</ele>
        <time>2012-07-14T13:04:43Z</time>
      </trkpt>
      <trkpt lat="46.14679" lon="6.52154">
        <ele>831</ele>
        <time>2012-07-14T13:04:45Z</time>
      </trkpt>
      <trkpt lat="46.14692" lon="6.52154">
        <ele>831</ele>
        <time>2012-07-14T13:04:47Z</time>
      </trkpt>
      <trkpt lat="46.14702" lon="6.52154">
        <ele>831</ele>
        <time>2012-07-14T13:04:48Z</time>
      </trkpt>
      <trkpt lat="46.14719" lon="6.52152">
        <ele>831</ele>
        <time>2012-07-14T13:04:50Z</time>
      </trkpt>
      <trkpt lat="46.14728" lon="6.5215">
        <ele>836</ele>
        <time>2012-07-14T13:04:51Z</time>
      </trkpt>
      <trkpt lat="46.14738" lon="6.52151">
        <ele>836</ele>
        <time>2012-07-14T13:04:52Z</time>
      </trkpt>
      <trkpt lat="46.1475" lon="6.52152">
        <ele>836</ele>
        <time>2012-07-14T13:04:53Z</time>
      </trkpt>
      <trkpt lat="46.1476" lon="6.52154">
        <ele>836</ele>
        <time>2012-07-14T13:04:54Z</time>
      </trkpt>
      <trkpt lat="46.14776" lon="6.52159">
        <ele>836</ele>
        <time>2012-07-14T13:04:56Z</time>
      </trkpt>
      <trkpt lat="46.14783" lon="6.52148">
        <ele>836</ele>
        <time>2012-07-14T13:05:07Z</time>
      </trkpt>
      <trkpt lat="46.14789" lon="6.52138">
        <ele>836</ele>
        <time>2012-07-14T13:05:09Z</time>
      </trkpt>
      <trkpt lat="46.14799" lon="6.52129">
        <ele>836</ele>
        <time>2012-07-14T13:05:11Z</time>
      </trkpt>
      <trkpt lat="46.14813" lon="6.52119">
        <ele>836</ele>
        <time>2012-07-14T13:05:13Z</time>
      </trkpt>
      <trkpt lat="46.14828" lon="6.52111">
        <ele>842</ele>
        <time>2012-07-14T13:05:15Z</time>
      </trkpt>
      <trkpt lat="46.14841" lon="6.52105">
        <ele>842</ele>
        <time>2012-07-14T13:05:17Z</time>
      </trkpt>
      <trkpt lat="46.14855" lon="6.52103">
        <ele>842</ele>
        <time>2012-07-14T13:05:19Z</time>
      </trkpt>
      <trkpt lat="46.14869" lon="6.52107">
        <ele>842</ele>
        <time>2012-07-14T13:05:21Z</time>
      </trkpt>
      <trkpt lat="46.14885" lon="6.52109">
        <ele>842</ele>
        <time>2012-07-14T13:05:23Z</time>
      </trkpt>
      <trkpt lat="46.14897" lon="6.52106">
        <ele>842</ele>
        <time>2012-07-14T13:05:25Z</time>
      </trkpt>
      <trkpt lat="46.14908" lon="6.52106">
        <ele>842</ele>
        <time>2012-07-14T13:05:27Z</time>
      </trkpt>
      <trkpt lat="46.14918" lon="6.52112">
        <ele>836</ele>
        <time>2012-07-14T13:05:30Z</time>
      </trkpt>
      <trkpt lat="46.14923" lon="6.521">
        <ele>836</ele>
        <time>2012-07-14T13:05:34Z</time>
      </trkpt>
      <trkpt lat="46.14921" lon="6.52085">
        <ele>836</ele>
        <time>2012-07-14T13:05:36Z</time>
      </trkpt>
      <trkpt lat="46.14916" lon="6.52067">
        <ele>836</ele>
        <time>2012-07-14T13:05:38Z</time>
      </trkpt>
      <trkpt lat="46.14911" lon="6.52051">
        <ele>836</ele>
        <time>2012-07-14T13:05:40Z</time>
      </trkpt>
      <trkpt lat="46.14907" lon="6.5204">
        <ele>836</ele>
        <time>2012-07-14T13:05:42Z</time>
      </trkpt>
      <trkpt lat="46.149" lon="6.52026">
        <ele>836</ele>
        <time>2012-07-14T13:05:47Z</time>
      </trkpt>
      <trkpt lat="46.14891" lon="6.52017">
        <ele>836</ele>
        <time>2012-07-14T13:05:49Z</time>
      </trkpt>
      <trkpt lat="46.14883" lon="6.52003">
        <ele>836</ele>
        <time>2012-07-14T13:05:51Z</time>
      </trkpt>
      <trkpt lat="46.14872" lon="6.51987">
        <ele>836</ele>
        <time>2012-07-14T13:05:53Z</time>
      </trkpt>
      <trkpt lat="46.14863" lon="6.51974">
        <ele>836</ele>
        <time>2012-07-14T13:05:55Z</time>
      </trkpt>
      <trkpt lat="46.14855" lon="6.51962">
        <ele>836</ele>
        <time>2012-07-14T13:05:57Z</time>
      </trkpt>
      <trkpt lat="46.14846" lon="6.51953">
        <ele>836</ele>
        <time>2012-07-14T13:05:59Z</time>
      </trkpt>
      <trkpt lat="46.14834" lon="6.51942">
        <ele>836</ele>
        <time>2012-07-14T13:06:01Z</time>
      </trkpt>
      <trkpt lat="46.14825" lon="6.51933">
        <ele>830</ele>
        <time>2012-07-14T13:06:03Z</time>
      </trkpt>
      <trkpt lat="46.14818" lon="6.51921">
        <ele>830</ele>
        <time>2012-07-14T13:06:05Z</time>
      </trkpt>
      <trkpt lat="46.14812" lon="6.51908">
        <ele>830</ele>
        <time>2012-07-14T13:06:07Z</time>
      </trkpt>
      <trkpt lat="46.14808" lon="6.51889">
        <ele>824</ele>
        <time>2012-07-14T13:06:09Z</time>
      </trkpt>
      <trkpt lat="46.14803" lon="6.51871">
        <ele>824</ele>
        <time>2012-07-14T13:06:11Z</time>
      </trkpt>
      <trkpt lat="46.14798" lon="6.51859">
        <ele>824</ele>
        <time>2012-07-14T13:06:12Z</time>
      </trkpt>
      <trkpt lat="46.14794" lon="6.51842">
        <ele>824</ele>
        <time>2012-07-14T13:06:14Z</time>
      </trkpt>
      <trkpt lat="46.14788" lon="6.51823">
        <ele>824</ele>
        <time>2012-07-14T13:06:16Z</time>
      </trkpt>
      <trkpt lat="46.14779" lon="6.51801">
        <ele>817</ele>
        <time>2012-07-14T13:06:18Z</time>
      </trkpt>
      <trkpt lat="46.14775" lon="6.51788">
        <ele>817</ele>
        <time>2012-07-14T13:06:19Z</time>
      </trkpt>
      <trkpt lat="46.1477" lon="6.51775">
        <ele>817</ele>
        <time>2012-07-14T13:06:20Z</time>
      </trkpt>
      <trkpt lat="46.14765" lon="6.51763">
        <ele>817</ele>
        <time>2012-07-14T13:06:21Z</time>
      </trkpt>
      <trkpt lat="46.14758" lon="6.51739">
        <ele>817</ele>
        <time>2012-07-14T13:06:23Z</time>
      </trkpt>
      <trkpt lat="46.14752" lon="6.51716">
        <ele>817</ele>
        <time>2012-07-14T13:06:25Z</time>
      </trkpt>
      <trkpt lat="46.14748" lon="6.51704">
        <ele>817</ele>
        <time>2012-07-14T13:06:26Z</time>
      </trkpt>
      <trkpt lat="46.14746" lon="6.51691">
        <ele>817</ele>
        <time>2012-07-14T13:06:27Z</time>
      </trkpt>
      <trkpt lat="46.14742" lon="6.51677">
        <ele>817</ele>
        <time>2012-07-14T13:06:28Z</time>
      </trkpt>
      <trkpt lat="46.14738" lon="6.51664">
        <ele>817</ele>
        <time>2012-07-14T13:06:29Z</time>
      </trkpt>
      <trkpt lat="46.14734" lon="6.51651">
        <ele>817</ele>
        <time>2012-07-14T13:06:30Z</time>
      </trkpt>
      <trkpt lat="46.14726" lon="6.51629">
        <ele>817</ele>
        <time>2012-07-14T13:06:32Z</time>
      </trkpt>
      <trkpt lat="46.14718" lon="6.51613">
        <ele>817</ele>
        <time>2012-07-14T13:06:34Z</time>
      </trkpt>
      <trkpt lat="46.14712" lon="6.516">
        <ele>817</ele>
        <time>2012-07-14T13:06:36Z</time>
      </trkpt>
      <trkpt lat="46.14713" lon="6.51582">
        <ele>823</ele>
        <time>2012-07-14T13:06:39Z</time>
      </trkpt>
      <trkpt lat="46.1472" lon="6.51563">
        <ele>823</ele>
        <time>2012-07-14T13:06:42Z</time>
      </trkpt>
      <trkpt lat="46.14727" lon="6.51551">
        <ele>823</ele>
        <time>2012-07-14T13:06:44Z</time>
      </trkpt>
      <trkpt lat="46.14732" lon="6.51536">
        <ele>823</ele>
        <time>2012-07-14T13:06:47Z</time>
      </trkpt>
      <trkpt lat="46.14731" lon="6.51521">
        <ele>823</ele>
        <time>2012-07-14T13:06:50Z</time>
      </trkpt>
      <trkpt lat="46.14723" lon="6.51513">
        <ele>823</ele>
        <time>2012-07-14T13:07:07Z</time>
      </trkpt>
      <trkpt lat="46.14714" lon="6.51504">
        <ele>823</ele>
        <time>2012-07-14T13:07:09Z</time>
      </trkpt>
      <trkpt lat="46.14702" lon="6.51495">
        <ele>823</ele>
        <time>2012-07-14T13:07:11Z</time>
      </trkpt>
      <trkpt lat="46.14693" lon="6.51481">
        <ele>823</ele>
        <time>2012-07-14T13:07:13Z</time>
      </trkpt>
      <trkpt lat="46.14685" lon="6.51466">
        <ele>823</ele>
        <time>2012-07-14T13:07:15Z</time>
      </trkpt>
      <trkpt lat="46.1468" lon="6.51449">
        <ele>817</ele>
        <time>2012-07-14T13:07:17Z</time>
      </trkpt>
      <trkpt lat="46.14676" lon="6.5143">
        <ele>817</ele>
        <time>2012-07-14T13:07:19Z</time>
      </trkpt>
      <trkpt lat="46.14677" lon="6.51408">
        <ele>817</ele>
        <time>2012-07-14T13:07:21Z</time>
      </trkpt>
      <trkpt lat="46.14677" lon="6.51386">
        <ele>811</ele>
        <time>2012-07-14T13:07:23Z</time>
      </trkpt>
      <trkpt lat="46.14671" lon="6.51362">
        <ele>811</ele>
        <time>2012-07-14T13:07:25Z</time>
      </trkpt>
      <trkpt lat="46.14665" lon="6.51339">
        <ele>811</ele>
        <time>2012-07-14T13:07:27Z</time>
      </trkpt>
      <trkpt lat="46.14661" lon="6.51319">
        <ele>811</ele>
        <time>2012-07-14T13:07:29Z</time>
      </trkpt>
      <trkpt lat="46.1466" lon="6.51297">
        <ele>811</ele>
        <time>2012-07-14T13:07:31Z</time>
      </trkpt>
      <trkpt lat="46.14662" lon="6.51277">
        <ele>811</ele>
        <time>2012-07-14T13:07:33Z</time>
      </trkpt>
      <trkpt lat="46.14662" lon="6.51261">
        <ele>811</ele>
        <time>2012-07-14T13:07:35Z</time>
      </trkpt>
      <trkpt lat="46.14662" lon="6.51246">
        <ele>811</ele>
        <time>2012-07-14T13:07:38Z</time>
      </trkpt>
      <trkpt lat="46.1465" lon="6.51239">
        <ele>816</ele>
        <time>2012-07-14T13:07:56Z</time>
      </trkpt>
      <trkpt lat="46.14638" lon="6.51243">
        <ele>816</ele>
        <time>2012-07-14T13:07:58Z</time>
      </trkpt>
      <trkpt lat="46.14627" lon="6.51248">
        <ele>816</ele>
        <time>2012-07-14T13:08:00Z</time>
      </trkpt>
      <trkpt lat="46.14619" lon="6.51253">
        <ele>816</ele>
        <time>2012-07-14T13:08:02Z</time>
      </trkpt>
      <trkpt lat="46.14609" lon="6.51249">
        <ele>816</ele>
        <time>2012-07-14T13:08:11Z</time>
      </trkpt>
      <trkpt lat="46.14614" lon="6.51232">
        <ele>816</ele>
        <time>2012-07-14T13:08:14Z</time>
      </trkpt>
      <trkpt lat="46.14622" lon="6.51218">
        <ele>816</ele>
        <time>2012-07-14T13:08:16Z</time>
      </trkpt>
      <trkpt lat="46.14632" lon="6.512">
        <ele>816</ele>
        <time>2012-07-14T13:08:18Z</time>
      </trkpt>
      <trkpt lat="46.14644" lon="6.51181">
        <ele>816</ele>
        <time>2012-07-14T13:08:20Z</time>
      </trkpt>
      <trkpt lat="46.14655" lon="6.51164">
        <ele>816</ele>
        <time>2012-07-14T13:08:22Z</time>
      </trkpt>
      <trkpt lat="46.14665" lon="6.51143">
        <ele>816</ele>
        <time>2012-07-14T13:08:24Z</time>
      </trkpt>
      <trkpt lat="46.14672" lon="6.51125">
        <ele>816</ele>
        <time>2012-07-14T13:08:26Z</time>
      </trkpt>
      <trkpt lat="46.14677" lon="6.51111">
        <ele>816</ele>
        <time>2012-07-14T13:08:28Z</time>
      </trkpt>
      <trkpt lat="46.14677" lon="6.5109">
        <ele>816</ele>
        <time>2012-07-14T13:08:31Z</time>
      </trkpt>
      <trkpt lat="46.14673" lon="6.51074">
        <ele>816</ele>
        <time>2012-07-14T13:08:33Z</time>
      </trkpt>
      <trkpt lat="46.14667" lon="6.51055">
        <ele>816</ele>
        <time>2012-07-14T13:08:35Z</time>
      </trkpt>
      <trkpt lat="46.14662" lon="6.51033">
        <ele>816</ele>
        <time>2012-07-14T13:08:37Z</time>
      </trkpt>
      <trkpt lat="46.14657" lon="6.51021">
        <ele>816</ele>
        <time>2012-07-14T13:08:38Z</time>
      </trkpt>
      <trkpt lat="46.14652" lon="6.51008">
        <ele>816</ele>
        <time>2012-07-14T13:08:39Z</time>
      </trkpt>
      <trkpt lat="46.14647" lon="6.50996">
        <ele>816</ele>
        <time>2012-07-14T13:08:40Z</time>
      </trkpt>
      <trkpt lat="46.14642" lon="6.50983">
        <ele>816</ele>
        <time>2012-07-14T13:08:41Z</time>
      </trkpt>
      <trkpt lat="46.14638" lon="6.50971">
        <ele>816</ele>
        <time>2012-07-14T13:08:42Z</time>
      </trkpt>
      <trkpt lat="46.1463" lon="6.50951">
        <ele>816</ele>
        <time>2012-07-14T13:08:44Z</time>
      </trkpt>
      <trkpt lat="46.14621" lon="6.50933">
        <ele>816</ele>
        <time>2012-07-14T13:08:46Z</time>
      </trkpt>
      <trkpt lat="46.14615" lon="6.50921">
        <ele>811</ele>
        <time>2012-07-14T13:08:47Z</time>
      </trkpt>
      <trkpt lat="46.1461" lon="6.50909">
        <ele>811</ele>
        <time>2012-07-14T13:08:48Z</time>
      </trkpt>
      <trkpt lat="46.14605" lon="6.50898">
        <ele>811</ele>
        <time>2012-07-14T13:08:49Z</time>
      </trkpt>
      <trkpt lat="46.14599" lon="6.50886">
        <ele>811</ele>
        <time>2012-07-14T13:08:50Z</time>
      </trkpt>
      <trkpt lat="46.14592" lon="6.50873">
        <ele>811</ele>
        <time>2012-07-14T13:08:51Z</time>
      </trkpt>
      <trkpt lat="46.14584" lon="6.50862">
        <ele>805</ele>
        <time>2012-07-14T13:08:52Z</time>
      </trkpt>
      <trkpt lat="46.14577" lon="6.50849">
        <ele>805</ele>
        <time>2012-07-14T13:08:53Z</time>
      </trkpt>
      <trkpt lat="46.1457" lon="6.50838">
        <ele>805</ele>
        <time>2012-07-14T13:08:54Z</time>
      </trkpt>
      <trkpt lat="46.14562" lon="6.50826">
        <ele>805</ele>
        <time>2012-07-14T13:08:55Z</time>
      </trkpt>
      <trkpt lat="46.14555" lon="6.50816">
        <ele>805</ele>
        <time>2012-07-14T13:08:56Z</time>
      </trkpt>
      <trkpt lat="46.14548" lon="6.50805">
        <ele>799</ele>
        <time>2012-07-14T13:08:57Z</time>
      </trkpt>
      <trkpt lat="46.14541" lon="6.50794">
        <ele>799</ele>
        <time>2012-07-14T13:08:58Z</time>
      </trkpt>
      <trkpt lat="46.14532" lon="6.50782">
        <ele>799</ele>
        <time>2012-07-14T13:08:59Z</time>
      </trkpt>
      <trkpt lat="46.14524" lon="6.50768">
        <ele>799</ele>
        <time>2012-07-14T13:09:00Z</time>
      </trkpt>
      <trkpt lat="46.14517" lon="6.50755">
        <ele>799</ele>
        <time>2012-07-14T13:09:01Z</time>
      </trkpt>
      <trkpt lat="46.14511" lon="6.50741">
        <ele>793</ele>
        <time>2012-07-14T13:09:02Z</time>
      </trkpt>
      <trkpt lat="46.14504" lon="6.50728">
        <ele>793</ele>
        <time>2012-07-14T13:09:03Z</time>
      </trkpt>
      <trkpt lat="46.14499" lon="6.50714">
        <ele>793</ele>
        <time>2012-07-14T13:09:04Z</time>
      </trkpt>
      <trkpt lat="46.14495" lon="6.50699">
        <ele>793</ele>
        <time>2012-07-14T13:09:05Z</time>
      </trkpt>
      <trkpt lat="46.14491" lon="6.50684">
        <ele>793</ele>
        <time>2012-07-14T13:09:06Z</time>
      </trkpt>
      <trkpt lat="46.14489" lon="6.50668">
        <ele>793</ele>
        <time>2012-07-14T13:09:07Z</time>
      </trkpt>
      <trkpt lat="46.14487" lon="6.50653">
        <ele>793</ele>
        <time>2012-07-14T13:09:08Z</time>
      </trkpt>
      <trkpt lat="46.14486" lon="6.50637">
        <ele>793</ele>
        <time>2012-07-14T13:09:09Z</time>
      </trkpt>
      <trkpt lat="46.14487" lon="6.5062">
        <ele>793</ele>
        <time>2012-07-14T13:09:10Z</time>
      </trkpt>
      <trkpt lat="46.14487" lon="6.50604">
        <ele>793</ele>
        <time>2012-07-14T13:09:11Z</time>
      </trkpt>
      <trkpt lat="46.14489" lon="6.50588">
        <ele>793</ele>
        <time>2012-07-14T13:09:12Z</time>
      </trkpt>
      <trkpt lat="46.1449" lon="6.50574">
        <ele>793</ele>
        <time>2012-07-14T13:09:13Z</time>
      </trkpt>
      <trkpt lat="46.14485" lon="6.50549">
        <ele>793</ele>
        <time>2012-07-14T13:09:15Z</time>
      </trkpt>
      <trkpt lat="46.14479" lon="6.50538">
        <ele>793</ele>
        <time>2012-07-14T13:09:16Z</time>
      </trkpt>
      <trkpt lat="46.14472" lon="6.50526">
        <ele>793</ele>
        <time>2012-07-14T13:09:17Z</time>
      </trkpt>
      <trkpt lat="46.14467" lon="6.50514">
        <ele>793</ele>
        <time>2012-07-14T13:09:18Z</time>
      </trkpt>
      <trkpt lat="46.14457" lon="6.50492">
        <ele>793</ele>
        <time>2012-07-14T13:09:20Z</time>
      </trkpt>
      <trkpt lat="46.14454" lon="6.50479">
        <ele>788</ele>
        <time>2012-07-14T13:09:21Z</time>
      </trkpt>
      <trkpt lat="46.14447" lon="6.50455">
        <ele>788</ele>
        <time>2012-07-14T13:09:23Z</time>
      </trkpt>
      <trkpt lat="46.14444" lon="6.5043">
        <ele>788</ele>
        <time>2012-07-14T13:09:25Z</time>
      </trkpt>
      <trkpt lat="46.14442" lon="6.50415">
        <ele>782</ele>
        <time>2012-07-14T13:09:26Z</time>
      </trkpt>
      <trkpt lat="46.14438" lon="6.504">
        <ele>782</ele>
        <time>2012-07-14T13:09:27Z</time>
      </trkpt>
      <trkpt lat="46.14435" lon="6.50385">
        <ele>782</ele>
        <time>2012-07-14T13:09:28Z</time>
      </trkpt>
      <trkpt lat="46.14431" lon="6.5037">
        <ele>782</ele>
        <time>2012-07-14T13:09:29Z</time>
      </trkpt>
      <trkpt lat="46.14429" lon="6.50355">
        <ele>782</ele>
        <time>2012-07-14T13:09:30Z</time>
      </trkpt>
      <trkpt lat="46.14426" lon="6.5034">
        <ele>777</ele>
        <time>2012-07-14T13:09:31Z</time>
      </trkpt>
      <trkpt lat="46.14426" lon="6.50324">
        <ele>777</ele>
        <time>2012-07-14T13:09:32Z</time>
      </trkpt>
      <trkpt lat="46.14424" lon="6.50308">
        <ele>777</ele>
        <time>2012-07-14T13:09:33Z</time>
      </trkpt>
      <trkpt lat="46.14424" lon="6.50293">
        <ele>777</ele>
        <time>2012-07-14T13:09:34Z</time>
      </trkpt>
      <trkpt lat="46.14426" lon="6.50279">
        <ele>777</ele>
        <time>2012-07-14T13:09:35Z</time>
      </trkpt>
      <trkpt lat="46.14428" lon="6.50255">
        <ele>777</ele>
        <time>2012-07-14T13:09:37Z</time>
      </trkpt>
      <trkpt lat="46.14431" lon="6.50232">
        <ele>777</ele>
        <time>2012-07-14T13:09:39Z</time>
      </trkpt>
      <trkpt lat="46.14427" lon="6.50214">
        <ele>771</ele>
        <time>2012-07-14T13:09:41Z</time>
      </trkpt>
      <trkpt lat="46.14417" lon="6.502">
        <ele>771</ele>
        <time>2012-07-14T13:09:43Z</time>
      </trkpt>
      <trkpt lat="46.14403" lon="6.50187">
        <ele>764</ele>
        <time>2012-07-14T13:09:45Z</time>
      </trkpt>
      <trkpt lat="46.14388" lon="6.50175">
        <ele>764</ele>
        <time>2012-07-14T13:09:47Z</time>
      </trkpt>
      <trkpt lat="46.14379" lon="6.50165">
        <ele>758</ele>
        <time>2012-07-14T13:09:49Z</time>
      </trkpt>
      <trkpt lat="46.14373" lon="6.50149">
        <ele>758</ele>
        <time>2012-07-14T13:09:51Z</time>
      </trkpt>
      <trkpt lat="46.14373" lon="6.50129">
        <ele>758</ele>
        <time>2012-07-14T13:09:53Z</time>
      </trkpt>
      <trkpt lat="46.14375" lon="6.50105">
        <ele>758</ele>
        <time>2012-07-14T13:09:55Z</time>
      </trkpt>
      <trkpt lat="46.14376" lon="6.50085">
        <ele>758</ele>
        <time>2012-07-14T13:09:57Z</time>
      </trkpt>
      <trkpt lat="46.14373" lon="6.50063">
        <ele>758</ele>
        <time>2012-07-14T13:09:59Z</time>
      </trkpt>
      <trkpt lat="46.14369" lon="6.50044">
        <ele>758</ele>
        <time>2012-07-14T13:10:01Z</time>
      </trkpt>
      <trkpt lat="46.14369" lon="6.5003">
        <ele>758</ele>
        <time>2012-07-14T13:10:03Z</time>
      </trkpt>
      <trkpt lat="46.14372" lon="6.50017">
        <ele>758</ele>
        <time>2012-07-14T13:10:06Z</time>
      </trkpt>
      <trkpt lat="46.14387" lon="6.50015">
        <ele>752</ele>
        <time>2012-07-14T13:10:12Z</time>
      </trkpt>
      <trkpt lat="46.14396" lon="6.50011">
        <ele>752</ele>
        <time>2012-07-14T13:10:13Z</time>
      </trkpt>
      <trkpt lat="46.14405" lon="6.50008">
        <ele>752</ele>
        <time>2012-07-14T13:10:14Z</time>
      </trkpt>
      <trkpt lat="46.14419" lon="6.49999">
        <ele>752</ele>
        <time>2012-07-14T13:10:16Z</time>
      </trkpt>
      <trkpt lat="46.14427" lon="6.49986">
        <ele>752</ele>
        <time>2012-07-14T13:10:18Z</time>
      </trkpt>
      <trkpt lat="46.14434" lon="6.49963">
        <ele>752</ele>
        <time>2012-07-14T13:10:20Z</time>
      </trkpt>
      <trkpt lat="46.14437" lon="6.49951">
        <ele>752</ele>
        <time>2012-07-14T13:10:21Z</time>
      </trkpt>
      <trkpt lat="46.1444" lon="6.49937">
        <ele>752</ele>
        <time>2012-07-14T13:10:22Z</time>
      </trkpt>
      <trkpt lat="46.14445" lon="6.49925">
        <ele>752</ele>
        <time>2012-07-14T13:10:23Z</time>
      </trkpt>
      <trkpt lat="46.1445" lon="6.49911">
        <ele>747</ele>
        <time>2012-07-14T13:10:24Z</time>
      </trkpt>
      <trkpt lat="46.14456" lon="6.49897">
        <ele>747</ele>
        <time>2012-07-14T13:10:25Z</time>
      </trkpt>
      <trkpt lat="46.14462" lon="6.49883">
        <ele>747</ele>
        <time>2012-07-14T13:10:26Z</time>
      </trkpt>
      <trkpt lat="46.14469" lon="6.49868">
        <ele>747</ele>
        <time>2012-07-14T13:10:27Z</time>
      </trkpt>
      <trkpt lat="46.14476" lon="6.49853">
        <ele>747</ele>
        <time>2012-07-14T13:10:28Z</time>
      </trkpt>
      <trkpt lat="46.14484" lon="6.49838">
        <ele>747</ele>
        <time>2012-07-14T13:10:29Z</time>
      </trkpt>
      <trkpt lat="46.14493" lon="6.49822">
        <ele>747</ele>
        <time>2012-07-14T13:10:30Z</time>
      </trkpt>
      <trkpt lat="46.14502" lon="6.49807">
        <ele>747</ele>
        <time>2012-07-14T13:10:31Z</time>
      </trkpt>
      <trkpt lat="46.14511" lon="6.49794">
        <ele>747</ele>
        <time>2012-07-14T13:10:32Z</time>
      </trkpt>
      <trkpt lat="46.14518" lon="6.49784">
        <ele>747</ele>
        <time>2012-07-14T13:10:33Z</time>
      </trkpt>
      <trkpt lat="46.14529" lon="6.49767">
        <ele>747</ele>
        <time>2012-07-14T13:10:35Z</time>
      </trkpt>
      <trkpt lat="46.14541" lon="6.49751">
        <ele>742</ele>
        <time>2012-07-14T13:10:37Z</time>
      </trkpt>
      <trkpt lat="46.14552" lon="6.49737">
        <ele>742</ele>
        <time>2012-07-14T13:10:39Z</time>
      </trkpt>
      <trkpt lat="46.14563" lon="6.49725">
        <ele>742</ele>
        <time>2012-07-14T13:10:41Z</time>
      </trkpt>
      <trkpt lat="46.14573" lon="6.49711">
        <ele>742</ele>
        <time>2012-07-14T13:10:43Z</time>
      </trkpt>
      <trkpt lat="46.14586" lon="6.49694">
        <ele>742</ele>
        <time>2012-07-14T13:10:45Z</time>
      </trkpt>
      <trkpt lat="46.14595" lon="6.49684">
        <ele>742</ele>
        <time>2012-07-14T13:10:46Z</time>
      </trkpt>
      <trkpt lat="46.14605" lon="6.49675">
        <ele>742</ele>
        <time>2012-07-14T13:10:47Z</time>
      </trkpt>
      <trkpt lat="46.14617" lon="6.49666">
        <ele>742</ele>
        <time>2012-07-14T13:10:48Z</time>
      </trkpt>
      <trkpt lat="46.14629" lon="6.49655">
        <ele>742</ele>
        <time>2012-07-14T13:10:49Z</time>
      </trkpt>
      <trkpt lat="46.14642" lon="6.49645">
        <ele>742</ele>
        <time>2012-07-14T13:10:50Z</time>
      </trkpt>
      <trkpt lat="46.14654" lon="6.49635">
        <ele>742</ele>
        <time>2012-07-14T13:10:51Z</time>
      </trkpt>
      <trkpt lat="46.14667" lon="6.49625">
        <ele>742</ele>
        <time>2012-07-14T13:10:52Z</time>
      </trkpt>
      <trkpt lat="46.14679" lon="6.49615">
        <ele>742</ele>
        <time>2012-07-14T13:10:53Z</time>
      </trkpt>
      <trkpt lat="46.14692" lon="6.49605">
        <ele>742</ele>
        <time>2012-07-14T13:10:54Z</time>
      </trkpt>
      <trkpt lat="46.14704" lon="6.49598">
        <ele>742</ele>
        <time>2012-07-14T13:10:55Z</time>
      </trkpt>
      <trkpt lat="46.14717" lon="6.49592">
        <ele>742</ele>
        <time>2012-07-14T13:10:56Z</time>
      </trkpt>
      <trkpt lat="46.1473" lon="6.49587">
        <ele>742</ele>
        <time>2012-07-14T13:10:57Z</time>
      </trkpt>
      <trkpt lat="46.14743" lon="6.49583">
        <ele>742</ele>
        <time>2012-07-14T13:10:58Z</time>
      </trkpt>
      <trkpt lat="46.14756" lon="6.49579">
        <ele>742</ele>
        <time>2012-07-14T13:10:59Z</time>
      </trkpt>
      <trkpt lat="46.14769" lon="6.49575">
        <ele>742</ele>
        <time>2012-07-14T13:11:00Z</time>
      </trkpt>
      <trkpt lat="46.14782" lon="6.49569">
        <ele>742</ele>
        <time>2012-07-14T13:11:01Z</time>
      </trkpt>
      <trkpt lat="46.14796" lon="6.49562">
        <ele>742</ele>
        <time>2012-07-14T13:11:02Z</time>
      </trkpt>
      <trkpt lat="46.1481" lon="6.49555">
        <ele>742</ele>
        <time>2012-07-14T13:11:03Z</time>
      </trkpt>
      <trkpt lat="46.14824" lon="6.49546">
        <ele>742</ele>
        <time>2012-07-14T13:11:04Z</time>
      </trkpt>
      <trkpt lat="46.14838" lon="6.49535">
        <ele>742</ele>
        <time>2012-07-14T13:11:05Z</time>
      </trkpt>
      <trkpt lat="46.14854" lon="6.49523">
        <ele>742</ele>
        <time>2012-07-14T13:11:06Z</time>
      </trkpt>
      <trkpt lat="46.1487" lon="6.49512">
        <ele>742</ele>
        <time>2012-07-14T13:11:07Z</time>
      </trkpt>
      <trkpt lat="46.14885" lon="6.49499">
        <ele>742</ele>
        <time>2012-07-14T13:11:08Z</time>
      </trkpt>
      <trkpt lat="46.149" lon="6.49487">
        <ele>742</ele>
        <time>2012-07-14T13:11:09Z</time>
      </trkpt>
      <trkpt lat="46.14915" lon="6.49477">
        <ele>742</ele>
        <time>2012-07-14T13:11:10Z</time>
      </trkpt>
      <trkpt lat="46.14928" lon="6.49468">
        <ele>742</ele>
        <time>2012-07-14T13:11:11Z</time>
      </trkpt>
      <trkpt lat="46.14943" lon="6.4946">
        <ele>747</ele>
        <time>2012-07-14T13:11:12Z</time>
      </trkpt>
      <trkpt lat="46.14958" lon="6.49452">
        <ele>747</ele>
        <time>2012-07-14T13:11:13Z</time>
      </trkpt>
      <trkpt lat="46.14973" lon="6.49446">
        <ele>747</ele>
        <time>2012-07-14T13:11:14Z</time>
      </trkpt>
      <trkpt lat="46.14986" lon="6.4944">
        <ele>747</ele>
        <time>2012-07-14T13:11:15Z</time>
      </trkpt>
      <trkpt lat="46.14999" lon="6.49435">
        <ele>747</ele>
        <time>2012-07-14T13:11:16Z</time>
      </trkpt>
      <trkpt lat="46.15013" lon="6.49431">
        <ele>747</ele>
        <time>2012-07-14T13:11:17Z</time>
      </trkpt>
      <trkpt lat="46.15026" lon="6.49428">
        <ele>747</ele>
        <time>2012-07-14T13:11:18Z</time>
      </trkpt>
      <trkpt lat="46.1504" lon="6.49427">
        <ele>747</ele>
        <time>2012-07-14T13:11:19Z</time>
      </trkpt>
      <trkpt lat="46.15054" lon="6.49428">
        <ele>747</ele>
        <time>2012-07-14T13:11:20Z</time>
      </trkpt>
      <trkpt lat="46.15067" lon="6.4943">
        <ele>747</ele>
        <time>2012-07-14T13:11:21Z</time>
      </trkpt>
      <trkpt lat="46.15082" lon="6.49433">
        <ele>747</ele>
        <time>2012-07-14T13:11:22Z</time>
      </trkpt>
      <trkpt lat="46.15096" lon="6.49437">
        <ele>747</ele>
        <time>2012-07-14T13:11:23Z</time>
      </trkpt>
      <trkpt lat="46.15109" lon="6.49441">
        <ele>747</ele>
        <time>2012-07-14T13:11:24Z</time>
      </trkpt>
      <trkpt lat="46.15121" lon="6.49444">
        <ele>747</ele>
        <time>2012-07-14T13:11:25Z</time>
      </trkpt>
      <trkpt lat="46.15132" lon="6.49447">
        <ele>747</ele>
        <time>2012-07-14T13:11:26Z</time>
      </trkpt>
      <trkpt lat="46.15144" lon="6.49449">
        <ele>747</ele>
        <time>2012-07-14T13:11:27Z</time>
      </trkpt>
      <trkpt lat="46.15156" lon="6.49451">
        <ele>747</ele>
        <time>2012-07-14T13:11:28Z</time>
      </trkpt>
      <trkpt lat="46.15167" lon="6.49451">
        <ele>747</ele>
        <time>2012-07-14T13:11:29Z</time>
      </trkpt>
      <trkpt lat="46.15178" lon="6.49453">
        <ele>753</ele>
        <time>2012-07-14T13:11:30Z</time>
      </trkpt>
      <trkpt lat="46.15187" lon="6.49454">
        <ele>753</ele>
        <time>2012-07-14T13:11:31Z</time>
      </trkpt>
      <trkpt lat="46.15204" lon="6.49451">
        <ele>753</ele>
        <time>2012-07-14T13:11:33Z</time>
      </trkpt>
      <trkpt lat="46.15219" lon="6.49442">
        <ele>753</ele>
        <time>2012-07-14T13:11:35Z</time>
      </trkpt>
      <trkpt lat="46.15231" lon="6.49432">
        <ele>753</ele>
        <time>2012-07-14T13:11:37Z</time>
      </trkpt>
      <trkpt lat="46.15241" lon="6.49423">
        <ele>753</ele>
        <time>2012-07-14T13:11:39Z</time>
      </trkpt>
      <trkpt lat="46.15248" lon="6.49411">
        <ele>753</ele>
        <time>2012-07-14T13:11:41Z</time>
      </trkpt>
      <trkpt lat="46.1525" lon="6.49394">
        <ele>753</ele>
        <time>2012-07-14T13:11:44Z</time>
      </trkpt>
      <trkpt lat="46.15238" lon="6.49386">
        <ele>753</ele>
        <time>2012-07-14T13:11:48Z</time>
      </trkpt>
      <trkpt lat="46.15227" lon="6.49383">
        <ele>753</ele>
        <time>2012-07-14T13:11:50Z</time>
      </trkpt>
      <trkpt lat="46.15218" lon="6.49372">
        <ele>753</ele>
        <time>2012-07-14T13:11:52Z</time>
      </trkpt>
      <trkpt lat="46.15209" lon="6.49356">
        <ele>753</ele>
        <time>2012-07-14T13:11:54Z</time>
      </trkpt>
      <trkpt lat="46.15199" lon="6.49338">
        <ele>753</ele>
        <time>2012-07-14T13:11:56Z</time>
      </trkpt>
      <trkpt lat="46.15192" lon="6.4932">
        <ele>753</ele>
        <time>2012-07-14T13:11:58Z</time>
      </trkpt>
      <trkpt lat="46.15186" lon="6.49302">
        <ele>753</ele>
        <time>2012-07-14T13:12:00Z</time>
      </trkpt>
      <trkpt lat="46.1518" lon="6.49285">
        <ele>753</ele>
        <time>2012-07-14T13:12:02Z</time>
      </trkpt>
      <trkpt lat="46.15174" lon="6.49267">
        <ele>753</ele>
        <time>2012-07-14T13:12:04Z</time>
      </trkpt>
      <trkpt lat="46.15168" lon="6.49248">
        <ele>753</ele>
        <time>2012-07-14T13:12:06Z</time>
      </trkpt>
      <trkpt lat="46.15165" lon="6.49229">
        <ele>753</ele>
        <time>2012-07-14T13:12:08Z</time>
      </trkpt>
      <trkpt lat="46.15163" lon="6.49204">
        <ele>753</ele>
        <time>2012-07-14T13:12:10Z</time>
      </trkpt>
      <trkpt lat="46.15162" lon="6.4919">
        <ele>753</ele>
        <time>2012-07-14T13:12:11Z</time>
      </trkpt>
      <trkpt lat="46.15159" lon="6.49176">
        <ele>753</ele>
        <time>2012-07-14T13:12:12Z</time>
      </trkpt>
      <trkpt lat="46.15157" lon="6.49162">
        <ele>753</ele>
        <time>2012-07-14T13:12:13Z</time>
      </trkpt>
      <trkpt lat="46.15154" lon="6.4914">
        <ele>747</ele>
        <time>2012-07-14T13:12:15Z</time>
      </trkpt>
      <trkpt lat="46.15154" lon="6.4912">
        <ele>747</ele>
        <time>2012-07-14T13:12:17Z</time>
      </trkpt>
      <trkpt lat="46.15161" lon="6.49101">
        <ele>747</ele>
        <time>2012-07-14T13:12:19Z</time>
      </trkpt>
      <trkpt lat="46.15172" lon="6.49082">
        <ele>747</ele>
        <time>2012-07-14T13:12:21Z</time>
      </trkpt>
      <trkpt lat="46.1518" lon="6.49059">
        <ele>747</ele>
        <time>2012-07-14T13:12:23Z</time>
      </trkpt>
      <trkpt lat="46.15182" lon="6.49046">
        <ele>747</ele>
        <time>2012-07-14T13:12:24Z</time>
      </trkpt>
      <trkpt lat="46.15185" lon="6.49026">
        <ele>747</ele>
        <time>2012-07-14T13:12:26Z</time>
      </trkpt>
      <trkpt lat="46.15189" lon="6.49007">
        <ele>747</ele>
        <time>2012-07-14T13:12:28Z</time>
      </trkpt>
      <trkpt lat="46.15192" lon="6.48992">
        <ele>747</ele>
        <time>2012-07-14T13:12:30Z</time>
      </trkpt>
      <trkpt lat="46.15197" lon="6.48979">
        <ele>747</ele>
        <time>2012-07-14T13:12:32Z</time>
      </trkpt>
      <trkpt lat="46.15202" lon="6.48966">
        <ele>747</ele>
        <time>2012-07-14T13:12:34Z</time>
      </trkpt>
      <trkpt lat="46.15208" lon="6.48954">
        <ele>741</ele>
        <time>2012-07-14T13:12:36Z</time>
      </trkpt>
      <trkpt lat="46.15215" lon="6.48941">
        <ele>741</ele>
        <time>2012-07-14T13:12:38Z</time>
      </trkpt>
      <trkpt lat="46.15223" lon="6.48928">
        <ele>741</ele>
        <time>2012-07-14T13:12:40Z</time>
      </trkpt>
      <trkpt lat="46.1523" lon="6.48912">
        <ele>741</ele>
        <time>2012-07-14T13:12:42Z</time>
      </trkpt>
      <trkpt lat="46.15237" lon="6.48895">
        <ele>741</ele>
        <time>2012-07-14T13:12:44Z</time>
      </trkpt>
      <trkpt lat="46.15243" lon="6.48879">
        <ele>735</ele>
        <time>2012-07-14T13:12:46Z</time>
      </trkpt>
      <trkpt lat="46.15245" lon="6.48863">
        <ele>735</ele>
        <time>2012-07-14T13:12:48Z</time>
      </trkpt>
      <trkpt lat="46.15247" lon="6.48849">
        <ele>735</ele>
        <time>2012-07-14T13:12:50Z</time>
      </trkpt>
      <trkpt lat="46.15247" lon="6.4883">
        <ele>729</ele>
        <time>2012-07-14T13:12:53Z</time>
      </trkpt>
      <trkpt lat="46.15247" lon="6.4881">
        <ele>729</ele>
        <time>2012-07-14T13:12:56Z</time>
      </trkpt>
      <trkpt lat="46.15251" lon="6.48793">
        <ele>724</ele>
        <time>2012-07-14T13:12:59Z</time>
      </trkpt>
      <trkpt lat="46.15255" lon="6.4878">
        <ele>724</ele>
        <time>2012-07-14T13:13:01Z</time>
      </trkpt>
      <trkpt lat="46.15264" lon="6.48765">
        <ele>724</ele>
        <time>2012-07-14T13:13:04Z</time>
      </trkpt>
      <trkpt lat="46.1527" lon="6.48755">
        <ele>724</ele>
        <time>2012-07-14T13:13:06Z</time>
      </trkpt>
      <trkpt lat="46.15278" lon="6.48746">
        <ele>717</ele>
        <time>2012-07-14T13:13:08Z</time>
      </trkpt>
      <trkpt lat="46.15288" lon="6.48733">
        <ele>717</ele>
        <time>2012-07-14T13:13:11Z</time>
      </trkpt>
      <trkpt lat="46.15295" lon="6.48722">
        <ele>717</ele>
        <time>2012-07-14T13:13:13Z</time>
      </trkpt>
      <trkpt lat="46.15301" lon="6.48709">
        <ele>717</ele>
        <time>2012-07-14T13:13:17Z</time>
      </trkpt>
      <trkpt lat="46.15296" lon="6.48691">
        <ele>709</ele>
        <time>2012-07-14T13:13:21Z</time>
      </trkpt>
      <trkpt lat="46.15288" lon="6.48674">
        <ele>709</ele>
        <time>2012-07-14T13:13:24Z</time>
      </trkpt>
      <trkpt lat="46.15285" lon="6.48657">
        <ele>709</ele>
        <time>2012-07-14T13:13:26Z</time>
      </trkpt>
      <trkpt lat="46.15282" lon="6.4864">
        <ele>709</ele>
        <time>2012-07-14T13:13:28Z</time>
      </trkpt>
      <trkpt lat="46.15278" lon="6.48625">
        <ele>709</ele>
        <time>2012-07-14T13:13:30Z</time>
      </trkpt>
      <trkpt lat="46.15278" lon="6.48606">
        <ele>709</ele>
        <time>2012-07-14T13:13:33Z</time>
      </trkpt>
      <trkpt lat="46.15278" lon="6.48593">
        <ele>703</ele>
        <time>2012-07-14T13:13:35Z</time>
      </trkpt>
      <trkpt lat="46.1528" lon="6.48579">
        <ele>703</ele>
        <time>2012-07-14T13:13:37Z</time>
      </trkpt>
      <trkpt lat="46.1528" lon="6.48564">
        <ele>703</ele>
        <time>2012-07-14T13:13:39Z</time>
      </trkpt>
      <trkpt lat="46.15279" lon="6.48546">
        <ele>694</ele>
        <time>2012-07-14T13:13:41Z</time>
      </trkpt>
      <trkpt lat="46.15278" lon="6.48529">
        <ele>694</ele>
        <time>2012-07-14T13:13:43Z</time>
      </trkpt>
      <trkpt lat="46.15276" lon="6.48515">
        <ele>694</ele>
        <time>2012-07-14T13:13:45Z</time>
      </trkpt>
      <trkpt lat="46.15277" lon="6.48499">
        <ele>694</ele>
        <time>2012-07-14T13:13:47Z</time>
      </trkpt>
      <trkpt lat="46.15278" lon="6.48484">
        <ele>701</ele>
        <time>2012-07-14T13:13:50Z</time>
      </trkpt>
      <trkpt lat="46.15275" lon="6.48466">
        <ele>701</ele>
        <time>2012-07-14T13:13:53Z</time>
      </trkpt>
      <trkpt lat="46.15274" lon="6.48453">
        <ele>701</ele>
        <time>2012-07-14T13:13:55Z</time>
      </trkpt>
      <trkpt lat="46.15274" lon="6.48437">
        <ele>707</ele>
        <time>2012-07-14T13:13:57Z</time>
      </trkpt>
      <trkpt lat="46.15275" lon="6.48422">
        <ele>707</ele>
        <time>2012-07-14T13:13:59Z</time>
      </trkpt>
      <trkpt lat="46.15275" lon="6.48404">
        <ele>707</ele>
        <time>2012-07-14T13:14:01Z</time>
      </trkpt>
      <trkpt lat="46.15276" lon="6.48385">
        <ele>714</ele>
        <time>2012-07-14T13:14:03Z</time>
      </trkpt>
      <trkpt lat="46.15276" lon="6.48366">
        <ele>714</ele>
        <time>2012-07-14T13:14:05Z</time>
      </trkpt>
      <trkpt lat="46.15278" lon="6.48347">
        <ele>714</ele>
        <time>2012-07-14T13:14:07Z</time>
      </trkpt>
      <trkpt lat="46.15282" lon="6.48328">
        <ele>714</ele>
        <time>2012-07-14T13:14:09Z</time>
      </trkpt>
      <trkpt lat="46.15284" lon="6.4831">
        <ele>714</ele>
        <time>2012-07-14T13:14:11Z</time>
      </trkpt>
      <trkpt lat="46.15288" lon="6.48294">
        <ele>705</ele>
        <time>2012-07-14T13:14:13Z</time>
      </trkpt>
      <trkpt lat="46.15285" lon="6.48279">
        <ele>705</ele>
        <time>2012-07-14T13:14:15Z</time>
      </trkpt>
      <trkpt lat="46.15286" lon="6.48265">
        <ele>705</ele>
        <time>2012-07-14T13:14:17Z</time>
      </trkpt>
      <trkpt lat="46.15291" lon="6.48249">
        <ele>705</ele>
        <time>2012-07-14T13:14:19Z</time>
      </trkpt>
      <trkpt lat="46.15293" lon="6.48231">
        <ele>705</ele>
        <time>2012-07-14T13:14:21Z</time>
      </trkpt>
      <trkpt lat="46.15295" lon="6.48214">
        <ele>697</ele>
        <time>2012-07-14T13:14:23Z</time>
      </trkpt>
      <trkpt lat="46.15301" lon="6.48199">
        <ele>691</ele>
        <time>2012-07-14T13:14:25Z</time>
      </trkpt>
      <trkpt lat="46.15303" lon="6.48179">
        <ele>691</ele>
        <time>2012-07-14T13:14:27Z</time>
      </trkpt>
      <trkpt lat="46.15304" lon="6.48159">
        <ele>691</ele>
        <time>2012-07-14T13:14:29Z</time>
      </trkpt>
      <trkpt lat="46.15305" lon="6.48142">
        <ele>691</ele>
        <time>2012-07-14T13:14:31Z</time>
      </trkpt>
      <trkpt lat="46.15305" lon="6.48125">
        <ele>681</ele>
        <time>2012-07-14T13:14:33Z</time>
      </trkpt>
      <trkpt lat="46.15303" lon="6.48109">
        <ele>681</ele>
        <time>2012-07-14T13:14:35Z</time>
      </trkpt>
      <trkpt lat="46.15302" lon="6.48094">
        <ele>681</ele>
        <time>2012-07-14T13:14:37Z</time>
      </trkpt>
      <trkpt lat="46.15304" lon="6.48078">
        <ele>681</ele>
        <time>2012-07-14T13:14:39Z</time>
      </trkpt>
      <trkpt lat="46.15305" lon="6.48059">
        <ele>676</ele>
        <time>2012-07-14T13:14:41Z</time>
      </trkpt>
      <trkpt lat="46.15309" lon="6.48039">
        <ele>676</ele>
        <time>2012-07-14T13:14:43Z</time>
      </trkpt>
      <trkpt lat="46.15312" lon="6.48019">
        <ele>676</ele>
        <time>2012-07-14T13:14:45Z</time>
      </trkpt>
      <trkpt lat="46.15311" lon="6.48002">
        <ele>676</ele>
        <time>2012-07-14T13:14:47Z</time>
      </trkpt>
      <trkpt lat="46.15317" lon="6.47986">
        <ele>676</ele>
        <time>2012-07-14T13:14:49Z</time>
      </trkpt>
      <trkpt lat="46.15318" lon="6.4797">
        <ele>676</ele>
        <time>2012-07-14T13:14:52Z</time>
      </trkpt>
      <trkpt lat="46.15314" lon="6.47953">
        <ele>682</ele>
        <time>2012-07-14T13:14:55Z</time>
      </trkpt>
      <trkpt lat="46.15313" lon="6.47937">
        <ele>682</ele>
        <time>2012-07-14T13:14:58Z</time>
      </trkpt>
      <trkpt lat="46.15318" lon="6.47924">
        <ele>682</ele>
        <time>2012-07-14T13:15:01Z</time>
      </trkpt>
      <trkpt lat="46.15328" lon="6.47921">
        <ele>690</ele>
        <time>2012-07-14T13:15:03Z</time>
      </trkpt>
      <trkpt lat="46.1534" lon="6.4791">
        <ele>690</ele>
        <time>2012-07-14T13:15:05Z</time>
      </trkpt>
      <trkpt lat="46.15347" lon="6.47898">
        <ele>690</ele>
        <time>2012-07-14T13:15:07Z</time>
      </trkpt>
      <trkpt lat="46.15353" lon="6.47887">
        <ele>698</ele>
        <time>2012-07-14T13:15:09Z</time>
      </trkpt>
      <trkpt lat="46.15359" lon="6.47874">
        <ele>698</ele>
        <time>2012-07-14T13:15:12Z</time>
      </trkpt>
      <trkpt lat="46.15368" lon="6.47861">
        <ele>698</ele>
        <time>2012-07-14T13:15:14Z</time>
      </trkpt>
      <trkpt lat="46.1538" lon="6.47852">
        <ele>692</ele>
        <time>2012-07-14T13:15:17Z</time>
      </trkpt>
      <trkpt lat="46.1539" lon="6.47844">
        <ele>692</ele>
        <time>2012-07-14T13:15:19Z</time>
      </trkpt>
      <trkpt lat="46.154" lon="6.47836">
        <ele>692</ele>
        <time>2012-07-14T13:15:21Z</time>
      </trkpt>
      <trkpt lat="46.15408" lon="6.47826">
        <ele>692</ele>
        <time>2012-07-14T13:15:23Z</time>
      </trkpt>
      <trkpt lat="46.15413" lon="6.47809">
        <ele>692</ele>
        <time>2012-07-14T13:15:26Z</time>
      </trkpt>
      <trkpt lat="46.15418" lon="6.47799">
        <ele>686</ele>
        <time>2012-07-14T13:15:28Z</time>
      </trkpt>
      <trkpt lat="46.15426" lon="6.47781">
        <ele>686</ele>
        <time>2012-07-14T13:15:31Z</time>
      </trkpt>
      <trkpt lat="46.15436" lon="6.4777">
        <ele>679</ele>
        <time>2012-07-14T13:15:33Z</time>
      </trkpt>
      <trkpt lat="46.15442" lon="6.47755">
        <ele>679</ele>
        <time>2012-07-14T13:15:35Z</time>
      </trkpt>
      <trkpt lat="46.15453" lon="6.4774">
        <ele>673</ele>
        <time>2012-07-14T13:15:37Z</time>
      </trkpt>
      <trkpt lat="46.15461" lon="6.47736">
        <ele>673</ele>
        <time>2012-07-14T13:15:39Z</time>
      </trkpt>
      <trkpt lat="46.15474" lon="6.47737">
        <ele>665</ele>
        <time>2012-07-14T13:15:41Z</time>
      </trkpt>
      <trkpt lat="46.15491" lon="6.47733">
        <ele>659</ele>
        <time>2012-07-14T13:15:43Z</time>
      </trkpt>
      <trkpt lat="46.15507" lon="6.47726">
        <ele>659</ele>
        <time>2012-07-14T13:15:45Z</time>
      </trkpt>
      <trkpt lat="46.15516" lon="6.47723">
        <ele>659</ele>
        <time>2012-07-14T13:15:47Z</time>
      </trkpt>
      <trkpt lat="46.15531" lon="6.4772">
        <ele>659</ele>
        <time>2012-07-14T13:15:53Z</time>
      </trkpt>
      <trkpt lat="46.15538" lon="6.47711">
        <ele>659</ele>
        <time>2012-07-14T13:15:57Z</time>
      </trkpt>
      <trkpt lat="46.15547" lon="6.47703">
        <ele>659</ele>
        <time>2012-07-14T13:15:59Z</time>
      </trkpt>
      <trkpt lat="46.15538" lon="6.477">
        <ele>642</ele>
        <time>2012-07-14T13:16:04Z</time>
      </trkpt>
      <trkpt lat="46.15529" lon="6.47698">
        <ele>642</ele>
        <time>2012-07-14T13:16:05Z</time>
      </trkpt>
      <trkpt lat="46.15519" lon="6.47695">
        <ele>635</ele>
        <time>2012-07-14T13:16:07Z</time>
      </trkpt>
      <trkpt lat="46.15509" lon="6.47691">
        <ele>635</ele>
        <time>2012-07-14T13:16:09Z</time>
      </trkpt>
      <trkpt lat="46.155" lon="6.47691">
        <ele>635</ele>
        <time>2012-07-14T13:16:11Z</time>
      </trkpt>
      <trkpt lat="46.15491" lon="6.47694">
        <ele>635</ele>
        <time>2012-07-14T13:16:13Z</time>
      </trkpt>
      <trkpt lat="46.15478" lon="6.47693">
        <ele>628</ele>
        <time>2012-07-14T13:16:16Z</time>
      </trkpt>
      <trkpt lat="46.15465" lon="6.47687">
        <ele>619</ele>
        <time>2012-07-14T13:16:19Z</time>
      </trkpt>
      <trkpt lat="46.15455" lon="6.47684">
        <ele>619</ele>
        <time>2012-07-14T13:16:21Z</time>
      </trkpt>
      <trkpt lat="46.1545" lon="6.47672">
        <ele>614</ele>
        <time>2012-07-14T13:16:25Z</time>
      </trkpt>
      <trkpt lat="46.15449" lon="6.47656">
        <ele>620</ele>
        <time>2012-07-14T13:16:29Z</time>
      </trkpt>
      <trkpt lat="46.15455" lon="6.47641">
        <ele>620</ele>
        <time>2012-07-14T13:16:32Z</time>
      </trkpt>
      <trkpt lat="46.15452" lon="6.47624">
        <ele>620</ele>
        <time>2012-07-14T13:16:42Z</time>
      </trkpt>
      <trkpt lat="46.15439" lon="6.47615">
        <ele>620</ele>
        <time>2012-07-14T13:16:44Z</time>
      </trkpt>
      <trkpt lat="46.15426" lon="6.47608">
        <ele>620</ele>
        <time>2012-07-14T13:16:46Z</time>
      </trkpt>
      <trkpt lat="46.15406" lon="6.47596">
        <ele>620</ele>
        <time>2012-07-14T13:16:49Z</time>
      </trkpt>
      <trkpt lat="46.15395" lon="6.47585">
        <ele>620</ele>
        <time>2012-07-14T13:16:51Z</time>
      </trkpt>
      <trkpt lat="46.15384" lon="6.47571">
        <ele>620</ele>
        <time>2012-07-14T13:16:53Z</time>
      </trkpt>
      <trkpt lat="46.15369" lon="6.47556">
        <ele>620</ele>
        <time>2012-07-14T13:16:55Z</time>
      </trkpt>
      <trkpt lat="46.15353" lon="6.47539">
        <ele>620</ele>
        <time>2012-07-14T13:16:57Z</time>
      </trkpt>
      <trkpt lat="46.15338" lon="6.47524">
        <ele>625</ele>
        <time>2012-07-14T13:16:59Z</time>
      </trkpt>
      <trkpt lat="46.15329" lon="6.47504">
        <ele>625</ele>
        <time>2012-07-14T13:17:01Z</time>
      </trkpt>
      <trkpt lat="46.15319" lon="6.47484">
        <ele>618</ele>
        <time>2012-07-14T13:17:03Z</time>
      </trkpt>
      <trkpt lat="46.1531" lon="6.47464">
        <ele>618</ele>
        <time>2012-07-14T13:17:05Z</time>
      </trkpt>
      <trkpt lat="46.15303" lon="6.47454">
        <ele>618</ele>
        <time>2012-07-14T13:17:06Z</time>
      </trkpt>
      <trkpt lat="46.15295" lon="6.47436">
        <ele>608</ele>
        <time>2012-07-14T13:17:08Z</time>
      </trkpt>
      <trkpt lat="46.15285" lon="6.47419">
        <ele>608</ele>
        <time>2012-07-14T13:17:10Z</time>
      </trkpt>
      <trkpt lat="46.15278" lon="6.47406">
        <ele>608</ele>
        <time>2012-07-14T13:17:12Z</time>
      </trkpt>
      <trkpt lat="46.15272" lon="6.47387">
        <ele>608</ele>
        <time>2012-07-14T13:17:14Z</time>
      </trkpt>
      <trkpt lat="46.15265" lon="6.47368">
        <ele>608</ele>
        <time>2012-07-14T13:17:16Z</time>
      </trkpt>
      <trkpt lat="46.15256" lon="6.47352">
        <ele>608</ele>
        <time>2012-07-14T13:17:18Z</time>
      </trkpt>
      <trkpt lat="46.15248" lon="6.47343">
        <ele>614</ele>
        <time>2012-07-14T13:17:19Z</time>
      </trkpt>
      <trkpt lat="46.15234" lon="6.47333">
        <ele>614</ele>
        <time>2012-07-14T13:17:21Z</time>
      </trkpt>
      <trkpt lat="46.15224" lon="6.47321">
        <ele>614</ele>
        <time>2012-07-14T13:17:23Z</time>
      </trkpt>
      <trkpt lat="46.15212" lon="6.47308">
        <ele>614</ele>
        <time>2012-07-14T13:17:25Z</time>
      </trkpt>
      <trkpt lat="46.15197" lon="6.47299">
        <ele>614</ele>
        <time>2012-07-14T13:17:27Z</time>
      </trkpt>
      <trkpt lat="46.15183" lon="6.47295">
        <ele>614</ele>
        <time>2012-07-14T13:17:29Z</time>
      </trkpt>
      <trkpt lat="46.15174" lon="6.47298">
        <ele>614</ele>
        <time>2012-07-14T13:17:30Z</time>
      </trkpt>
      <trkpt lat="46.15165" lon="6.47302">
        <ele>614</ele>
        <time>2012-07-14T13:17:31Z</time>
      </trkpt>
      <trkpt lat="46.15149" lon="6.47299">
        <ele>614</ele>
        <time>2012-07-14T13:17:33Z</time>
      </trkpt>
      <trkpt lat="46.15134" lon="6.47294">
        <ele>614</ele>
        <time>2012-07-14T13:17:35Z</time>
      </trkpt>
      <trkpt lat="46.15116" lon="6.47289">
        <ele>614</ele>
        <time>2012-07-14T13:17:37Z</time>
      </trkpt>
      <trkpt lat="46.15104" lon="6.47286">
        <ele>614</ele>
        <time>2012-07-14T13:17:39Z</time>
      </trkpt>
      <trkpt lat="46.15096" lon="6.4727">
        <ele>621</ele>
        <time>2012-07-14T13:17:41Z</time>
      </trkpt>
      <trkpt lat="46.15086" lon="6.47249">
        <ele>621</ele>
        <time>2012-07-14T13:17:43Z</time>
      </trkpt>
      <trkpt lat="46.15079" lon="6.47234">
        <ele>621</ele>
        <time>2012-07-14T13:17:45Z</time>
      </trkpt>
      <trkpt lat="46.15071" lon="6.4721">
        <ele>621</ele>
        <time>2012-07-14T13:17:47Z</time>
      </trkpt>
      <trkpt lat="46.15068" lon="6.47194">
        <ele>621</ele>
        <time>2012-07-14T13:17:48Z</time>
      </trkpt>
      <trkpt lat="46.15061" lon="6.47171">
        <ele>621</ele>
        <time>2012-07-14T13:17:50Z</time>
      </trkpt>
      <trkpt lat="46.15055" lon="6.4715">
        <ele>621</ele>
        <time>2012-07-14T13:17:52Z</time>
      </trkpt>
      <trkpt lat="46.15049" lon="6.4713">
        <ele>628</ele>
        <time>2012-07-14T13:17:54Z</time>
      </trkpt>
      <trkpt lat="46.15041" lon="6.47117">
        <ele>628</ele>
        <time>2012-07-14T13:17:56Z</time>
      </trkpt>
      <trkpt lat="46.15034" lon="6.47103">
        <ele>628</ele>
        <time>2012-07-14T13:17:58Z</time>
      </trkpt>
      <trkpt lat="46.15024" lon="6.47088">
        <ele>633</ele>
        <time>2012-07-14T13:18:00Z</time>
      </trkpt>
      <trkpt lat="46.1501" lon="6.47076">
        <ele>633</ele>
        <time>2012-07-14T13:18:02Z</time>
      </trkpt>
      <trkpt lat="46.14996" lon="6.47066">
        <ele>633</ele>
        <time>2012-07-14T13:18:04Z</time>
      </trkpt>
      <trkpt lat="46.14983" lon="6.47057">
        <ele>633</ele>
        <time>2012-07-14T13:18:06Z</time>
      </trkpt>
      <trkpt lat="46.14972" lon="6.47048">
        <ele>639</ele>
        <time>2012-07-14T13:18:08Z</time>
      </trkpt>
      <trkpt lat="46.14963" lon="6.47037">
        <ele>639</ele>
        <time>2012-07-14T13:18:10Z</time>
      </trkpt>
      <trkpt lat="46.1495" lon="6.47022">
        <ele>639</ele>
        <time>2012-07-14T13:18:12Z</time>
      </trkpt>
      <trkpt lat="46.14937" lon="6.47006">
        <ele>639</ele>
        <time>2012-07-14T13:18:14Z</time>
      </trkpt>
      <trkpt lat="46.14927" lon="6.46989">
        <ele>639</ele>
        <time>2012-07-14T13:18:16Z</time>
      </trkpt>
      <trkpt lat="46.14918" lon="6.46973">
        <ele>639</ele>
        <time>2012-07-14T13:18:18Z</time>
      </trkpt>
      <trkpt lat="46.14907" lon="6.46957">
        <ele>639</ele>
        <time>2012-07-14T13:18:20Z</time>
      </trkpt>
      <trkpt lat="46.14897" lon="6.46942">
        <ele>639</ele>
        <time>2012-07-14T13:18:22Z</time>
      </trkpt>
      <trkpt lat="46.1489" lon="6.4693">
        <ele>639</ele>
        <time>2012-07-14T13:18:24Z</time>
      </trkpt>
      <trkpt lat="46.1488" lon="6.46924">
        <ele>639</ele>
        <time>2012-07-14T13:18:28Z</time>
      </trkpt>
      <trkpt lat="46.14873" lon="6.46933">
        <ele>639</ele>
        <time>2012-07-14T13:18:30Z</time>
      </trkpt>
      <trkpt lat="46.14863" lon="6.46947">
        <ele>639</ele>
        <time>2012-07-14T13:18:32Z</time>
      </trkpt>
      <trkpt lat="46.1485" lon="6.4696">
        <ele>639</ele>
        <time>2012-07-14T13:18:34Z</time>
      </trkpt>
      <trkpt lat="46.14836" lon="6.46969">
        <ele>639</ele>
        <time>2012-07-14T13:18:36Z</time>
      </trkpt>
      <trkpt lat="46.14821" lon="6.46979">
        <ele>639</ele>
        <time>2012-07-14T13:18:38Z</time>
      </trkpt>
      <trkpt lat="46.14805" lon="6.46992">
        <ele>639</ele>
        <time>2012-07-14T13:18:40Z</time>
      </trkpt>
      <trkpt lat="46.14791" lon="6.47006">
        <ele>639</ele>
        <time>2012-07-14T13:18:42Z</time>
      </trkpt>
      <trkpt lat="46.14777" lon="6.47022">
        <ele>639</ele>
        <time>2012-07-14T13:18:44Z</time>
      </trkpt>
      <trkpt lat="46.14763" lon="6.47039">
        <ele>639</ele>
        <time>2012-07-14T13:18:46Z</time>
      </trkpt>
      <trkpt lat="46.14751" lon="6.47056">
        <ele>639</ele>
        <time>2012-07-14T13:18:48Z</time>
      </trkpt>
      <trkpt lat="46.14738" lon="6.47069">
        <ele>633</ele>
        <time>2012-07-14T13:18:50Z</time>
      </trkpt>
      <trkpt lat="46.14723" lon="6.47076">
        <ele>633</ele>
        <time>2012-07-14T13:18:52Z</time>
      </trkpt>
      <trkpt lat="46.1471" lon="6.47084">
        <ele>633</ele>
        <time>2012-07-14T13:18:54Z</time>
      </trkpt>
      <trkpt lat="46.14698" lon="6.47095">
        <ele>633</ele>
        <time>2012-07-14T13:18:56Z</time>
      </trkpt>
      <trkpt lat="46.14685" lon="6.47099">
        <ele>628</ele>
        <time>2012-07-14T13:18:58Z</time>
      </trkpt>
      <trkpt lat="46.1467" lon="6.47097">
        <ele>628</ele>
        <time>2012-07-14T13:19:00Z</time>
      </trkpt>
      <trkpt lat="46.14655" lon="6.47088">
        <ele>628</ele>
        <time>2012-07-14T13:19:02Z</time>
      </trkpt>
      <trkpt lat="46.14642" lon="6.47073">
        <ele>628</ele>
        <time>2012-07-14T13:19:04Z</time>
      </trkpt>
      <trkpt lat="46.14635" lon="6.47062">
        <ele>628</ele>
        <time>2012-07-14T13:19:05Z</time>
      </trkpt>
      <trkpt lat="46.1463" lon="6.47051">
        <ele>628</ele>
        <time>2012-07-14T13:19:06Z</time>
      </trkpt>
      <trkpt lat="46.14622" lon="6.47039">
        <ele>628</ele>
        <time>2012-07-14T13:19:07Z</time>
      </trkpt>
      <trkpt lat="46.14615" lon="6.47024">
        <ele>628</ele>
        <time>2012-07-14T13:19:08Z</time>
      </trkpt>
      <trkpt lat="46.14607" lon="6.47011">
        <ele>628</ele>
        <time>2012-07-14T13:19:09Z</time>
      </trkpt>
      <trkpt lat="46.14599" lon="6.46995">
        <ele>628</ele>
        <time>2012-07-14T13:19:10Z</time>
      </trkpt>
      <trkpt lat="46.14592" lon="6.46981">
        <ele>628</ele>
        <time>2012-07-14T13:19:11Z</time>
      </trkpt>
      <trkpt lat="46.14585" lon="6.46967">
        <ele>628</ele>
        <time>2012-07-14T13:19:12Z</time>
      </trkpt>
      <trkpt lat="46.14579" lon="6.46954">
        <ele>628</ele>
        <time>2012-07-14T13:19:13Z</time>
      </trkpt>
      <trkpt lat="46.14571" lon="6.46942">
        <ele>628</ele>
        <time>2012-07-14T13:19:14Z</time>
      </trkpt>
      <trkpt lat="46.14564" lon="6.4693">
        <ele>628</ele>
        <time>2012-07-14T13:19:15Z</time>
      </trkpt>
      <trkpt lat="46.14557" lon="6.46918">
        <ele>628</ele>
        <time>2012-07-14T13:19:16Z</time>
      </trkpt>
      <trkpt lat="46.1455" lon="6.46907">
        <ele>628</ele>
        <time>2012-07-14T13:19:17Z</time>
      </trkpt>
      <trkpt lat="46.14544" lon="6.46897">
        <ele>628</ele>
        <time>2012-07-14T13:19:18Z</time>
      </trkpt>
      <trkpt lat="46.14534" lon="6.46879">
        <ele>628</ele>
        <time>2012-07-14T13:19:20Z</time>
      </trkpt>
      <trkpt lat="46.14529" lon="6.46863">
        <ele>628</ele>
        <time>2012-07-14T13:19:22Z</time>
      </trkpt>
      <trkpt lat="46.14524" lon="6.46848">
        <ele>637</ele>
        <time>2012-07-14T13:19:47Z</time>
      </trkpt>
      <trkpt lat="46.1451" lon="6.46844">
        <ele>637</ele>
        <time>2012-07-14T13:19:49Z</time>
      </trkpt>
      <trkpt lat="46.14501" lon="6.46844">
        <ele>637</ele>
        <time>2012-07-14T13:19:50Z</time>
      </trkpt>
      <trkpt lat="46.1449" lon="6.46845">
        <ele>637</ele>
        <time>2012-07-14T13:19:51Z</time>
      </trkpt>
      <trkpt lat="46.14478" lon="6.46846">
        <ele>637</ele>
        <time>2012-07-14T13:19:52Z</time>
      </trkpt>
      <trkpt lat="46.14464" lon="6.46847">
        <ele>637</ele>
        <time>2012-07-14T13:19:53Z</time>
      </trkpt>
      <trkpt lat="46.1445" lon="6.46847">
        <ele>637</ele>
        <time>2012-07-14T13:19:54Z</time>
      </trkpt>
      <trkpt lat="46.14436" lon="6.46847">
        <ele>637</ele>
        <time>2012-07-14T13:19:55Z</time>
      </trkpt>
      <trkpt lat="46.14421" lon="6.46847">
        <ele>637</ele>
        <time>2012-07-14T13:19:56Z</time>
      </trkpt>
      <trkpt lat="46.14406" lon="6.46846">
        <ele>637</ele>
        <time>2012-07-14T13:19:57Z</time>
      </trkpt>
      <trkpt lat="46.14392" lon="6.46846">
        <ele>637</ele>
        <time>2012-07-14T13:19:58Z</time>
      </trkpt>
      <trkpt lat="46.14379" lon="6.46845">
        <ele>637</ele>
        <time>2012-07-14T13:19:59Z</time>
      </trkpt>
      <trkpt lat="46.14366" lon="6.46845">
        <ele>637</ele>
        <time>2012-07-14T13:20:00Z</time>
      </trkpt>
      <trkpt lat="46.14353" lon="6.46841">
        <ele>637</ele>
        <time>2012-07-14T13:20:01Z</time>
      </trkpt>
      <trkpt lat="46.14339" lon="6.46837">
        <ele>637</ele>
        <time>2012-07-14T13:20:02Z</time>
      </trkpt>
      <trkpt lat="46.14328" lon="6.46831">
        <ele>637</ele>
        <time>2012-07-14T13:20:03Z</time>
      </trkpt>
      <trkpt lat="46.14316" lon="6.46825">
        <ele>637</ele>
        <time>2012-07-14T13:20:04Z</time>
      </trkpt>
      <trkpt lat="46.14307" lon="6.46818">
        <ele>637</ele>
        <time>2012-07-14T13:20:05Z</time>
      </trkpt>
      <trkpt lat="46.14299" lon="6.46811">
        <ele>637</ele>
        <time>2012-07-14T13:20:06Z</time>
      </trkpt>
      <trkpt lat="46.14291" lon="6.46803">
        <ele>637</ele>
        <time>2012-07-14T13:20:07Z</time>
      </trkpt>
      <trkpt lat="46.14283" lon="6.46794">
        <ele>637</ele>
        <time>2012-07-14T13:20:08Z</time>
      </trkpt>
      <trkpt lat="46.14275" lon="6.46784">
        <ele>637</ele>
        <time>2012-07-14T13:20:09Z</time>
      </trkpt>
      <trkpt lat="46.14267" lon="6.46773">
        <ele>637</ele>
        <time>2012-07-14T13:20:10Z</time>
      </trkpt>
      <trkpt lat="46.14257" lon="6.46761">
        <ele>637</ele>
        <time>2012-07-14T13:20:11Z</time>
      </trkpt>
      <trkpt lat="46.14246" lon="6.46748">
        <ele>637</ele>
        <time>2012-07-14T13:20:12Z</time>
      </trkpt>
      <trkpt lat="46.14235" lon="6.46737">
        <ele>637</ele>
        <time>2012-07-14T13:20:13Z</time>
      </trkpt>
      <trkpt lat="46.14222" lon="6.46726">
        <ele>637</ele>
        <time>2012-07-14T13:20:14Z</time>
      </trkpt>
      <trkpt lat="46.14209" lon="6.46715">
        <ele>637</ele>
        <time>2012-07-14T13:20:15Z</time>
      </trkpt>
      <trkpt lat="46.14196" lon="6.46706">
        <ele>637</ele>
        <time>2012-07-14T13:20:16Z</time>
      </trkpt>
      <trkpt lat="46.14184" lon="6.46697">
        <ele>637</ele>
        <time>2012-07-14T13:20:17Z</time>
      </trkpt>
      <trkpt lat="46.14173" lon="6.4669">
        <ele>637</ele>
        <time>2012-07-14T13:20:18Z</time>
      </trkpt>
      <trkpt lat="46.14163" lon="6.46685">
        <ele>637</ele>
        <time>2012-07-14T13:20:19Z</time>
      </trkpt>
      <trkpt lat="46.14147" lon="6.46674">
        <ele>637</ele>
        <time>2012-07-14T13:20:21Z</time>
      </trkpt>
      <trkpt lat="46.14136" lon="6.46663">
        <ele>643</ele>
        <time>2012-07-14T13:20:23Z</time>
      </trkpt>
      <trkpt lat="46.14128" lon="6.46657">
        <ele>643</ele>
        <time>2012-07-14T13:20:26Z</time>
      </trkpt>
      <trkpt lat="46.14114" lon="6.46651">
        <ele>643</ele>
        <time>2012-07-14T13:20:29Z</time>
      </trkpt>
      <trkpt lat="46.14103" lon="6.46641">
        <ele>643</ele>
        <time>2012-07-14T13:20:31Z</time>
      </trkpt>
      <trkpt lat="46.14095" lon="6.46624">
        <ele>643</ele>
        <time>2012-07-14T13:20:33Z</time>
      </trkpt>
      <trkpt lat="46.1409" lon="6.46613">
        <ele>643</ele>
        <time>2012-07-14T13:20:34Z</time>
      </trkpt>
      <trkpt lat="46.14083" lon="6.46601">
        <ele>643</ele>
        <time>2012-07-14T13:20:35Z</time>
      </trkpt>
      <trkpt lat="46.14078" lon="6.46589">
        <ele>638</ele>
        <time>2012-07-14T13:20:36Z</time>
      </trkpt>
      <trkpt lat="46.14072" lon="6.46579">
        <ele>638</ele>
        <time>2012-07-14T13:20:37Z</time>
      </trkpt>
      <trkpt lat="46.14067" lon="6.46566">
        <ele>638</ele>
        <time>2012-07-14T13:20:38Z</time>
      </trkpt>
      <trkpt lat="46.14062" lon="6.46553">
        <ele>638</ele>
        <time>2012-07-14T13:20:39Z</time>
      </trkpt>
      <trkpt lat="46.14057" lon="6.46541">
        <ele>638</ele>
        <time>2012-07-14T13:20:40Z</time>
      </trkpt>
      <trkpt lat="46.14052" lon="6.46528">
        <ele>638</ele>
        <time>2012-07-14T13:20:41Z</time>
      </trkpt>
      <trkpt lat="46.14044" lon="6.46504">
        <ele>638</ele>
        <time>2012-07-14T13:20:43Z</time>
      </trkpt>
      <trkpt lat="46.14042" lon="6.46491">
        <ele>638</ele>
        <time>2012-07-14T13:20:44Z</time>
      </trkpt>
      <trkpt lat="46.14038" lon="6.46478">
        <ele>633</ele>
        <time>2012-07-14T13:20:45Z</time>
      </trkpt>
      <trkpt lat="46.14035" lon="6.46465">
        <ele>633</ele>
        <time>2012-07-14T13:20:46Z</time>
      </trkpt>
      <trkpt lat="46.14028" lon="6.46442">
        <ele>633</ele>
        <time>2012-07-14T13:20:48Z</time>
      </trkpt>
      <trkpt lat="46.14021" lon="6.46421">
        <ele>627</ele>
        <time>2012-07-14T13:20:50Z</time>
      </trkpt>
      <trkpt lat="46.14014" lon="6.46401">
        <ele>627</ele>
        <time>2012-07-14T13:20:52Z</time>
      </trkpt>
      <trkpt lat="46.14008" lon="6.46385">
        <ele>627</ele>
        <time>2012-07-14T13:20:54Z</time>
      </trkpt>
      <trkpt lat="46.14003" lon="6.46368">
        <ele>627</ele>
        <time>2012-07-14T13:20:57Z</time>
      </trkpt>
      <trkpt lat="46.13999" lon="6.46354">
        <ele>622</ele>
        <time>2012-07-14T13:20:59Z</time>
      </trkpt>
      <trkpt lat="46.13996" lon="6.46338">
        <ele>622</ele>
        <time>2012-07-14T13:21:01Z</time>
      </trkpt>
      <trkpt lat="46.13993" lon="6.46324">
        <ele>622</ele>
        <time>2012-07-14T13:21:03Z</time>
      </trkpt>
      <trkpt lat="46.1399" lon="6.4631">
        <ele>622</ele>
        <time>2012-07-14T13:21:05Z</time>
      </trkpt>
      <trkpt lat="46.13985" lon="6.46297">
        <ele>622</ele>
        <time>2012-07-14T13:21:08Z</time>
      </trkpt>
      <trkpt lat="46.13978" lon="6.46284">
        <ele>615</ele>
        <time>2012-07-14T13:21:11Z</time>
      </trkpt>
      <trkpt lat="46.1397" lon="6.46274">
        <ele>615</ele>
        <time>2012-07-14T13:21:13Z</time>
      </trkpt>
      <trkpt lat="46.13959" lon="6.46262">
        <ele>615</ele>
        <time>2012-07-14T13:21:15Z</time>
      </trkpt>
      <trkpt lat="46.13944" lon="6.46247">
        <ele>615</ele>
        <time>2012-07-14T13:21:17Z</time>
      </trkpt>
      <trkpt lat="46.13935" lon="6.46241">
        <ele>615</ele>
        <time>2012-07-14T13:21:18Z</time>
      </trkpt>
      <trkpt lat="46.13926" lon="6.46235">
        <ele>615</ele>
        <time>2012-07-14T13:21:19Z</time>
      </trkpt>
      <trkpt lat="46.13917" lon="6.46228">
        <ele>610</ele>
        <time>2012-07-14T13:21:20Z</time>
      </trkpt>
      <trkpt lat="46.13904" lon="6.4621">
        <ele>610</ele>
        <time>2012-07-14T13:21:22Z</time>
      </trkpt>
      <trkpt lat="46.13897" lon="6.46199">
        <ele>605</ele>
        <time>2012-07-14T13:21:23Z</time>
      </trkpt>
      <trkpt lat="46.1389" lon="6.46185">
        <ele>605</ele>
        <time>2012-07-14T13:21:24Z</time>
      </trkpt>
      <trkpt lat="46.13886" lon="6.46171">
        <ele>605</ele>
        <time>2012-07-14T13:21:25Z</time>
      </trkpt>
      <trkpt lat="46.13882" lon="6.46156">
        <ele>605</ele>
        <time>2012-07-14T13:21:26Z</time>
      </trkpt>
      <trkpt lat="46.13877" lon="6.46144">
        <ele>605</ele>
        <time>2012-07-14T13:21:27Z</time>
      </trkpt>
      <trkpt lat="46.13871" lon="6.46131">
        <ele>605</ele>
        <time>2012-07-14T13:21:28Z</time>
      </trkpt>
      <trkpt lat="46.13866" lon="6.4612">
        <ele>605</ele>
        <time>2012-07-14T13:21:29Z</time>
      </trkpt>
      <trkpt lat="46.13861" lon="6.46107">
        <ele>599</ele>
        <time>2012-07-14T13:21:30Z</time>
      </trkpt>
      <trkpt lat="46.13854" lon="6.46084">
        <ele>599</ele>
        <time>2012-07-14T13:21:32Z</time>
      </trkpt>
      <trkpt lat="46.13848" lon="6.4606">
        <ele>599</ele>
        <time>2012-07-14T13:21:34Z</time>
      </trkpt>
      <trkpt lat="46.13844" lon="6.46037">
        <ele>593</ele>
        <time>2012-07-14T13:21:36Z</time>
      </trkpt>
      <trkpt lat="46.13842" lon="6.46014">
        <ele>593</ele>
        <time>2012-07-14T13:21:38Z</time>
      </trkpt>
      <trkpt lat="46.13845" lon="6.46001">
        <ele>593</ele>
        <time>2012-07-14T13:21:39Z</time>
      </trkpt>
      <trkpt lat="46.13848" lon="6.45979">
        <ele>588</ele>
        <time>2012-07-14T13:21:41Z</time>
      </trkpt>
      <trkpt lat="46.13852" lon="6.45962">
        <ele>588</ele>
        <time>2012-07-14T13:21:43Z</time>
      </trkpt>
      <trkpt lat="46.13852" lon="6.45947">
        <ele>588</ele>
        <time>2012-07-14T13:21:45Z</time>
      </trkpt>
      <trkpt lat="46.13847" lon="6.45932">
        <ele>588</ele>
        <time>2012-07-14T13:21:49Z</time>
      </trkpt>
      <trkpt lat="46.13836" lon="6.45929">
        <ele>588</ele>
        <time>2012-07-14T13:21:52Z</time>
      </trkpt>
      <trkpt lat="46.13825" lon="6.45935">
        <ele>597</ele>
        <time>2012-07-14T13:21:55Z</time>
      </trkpt>
      <trkpt lat="46.13816" lon="6.45941">
        <ele>614</ele>
        <time>2012-07-14T13:22:04Z</time>
      </trkpt>
      <trkpt lat="46.13825" lon="6.45944">
        <ele>599</ele>
        <time>2012-07-14T13:22:17Z</time>
      </trkpt>
      <trkpt lat="46.13817" lon="6.45952">
        <ele>610</ele>
        <time>2012-07-14T13:22:37Z</time>
      </trkpt>
      <trkpt lat="46.13826" lon="6.45944">
        <ele>597</ele>
        <time>2012-07-14T13:23:46Z</time>
      </trkpt>
      <trkpt lat="46.13835" lon="6.45945">
        <ele>615</ele>
        <time>2012-07-14T13:25:49Z</time>
      </trkpt>
      <trkpt lat="46.13826" lon="6.45949">
        <ele>605</ele>
        <time>2012-07-14T13:26:08Z</time>
      </trkpt>
      <trkpt lat="46.13817" lon="6.45944">
        <ele>598</ele>
        <time>2012-07-14T13:27:17Z</time>
      </trkpt>
      <trkpt lat="46.13807" lon="6.45944">
        <ele>617</ele>
        <time>2012-07-14T13:28:01Z</time>
      </trkpt>
      <trkpt lat="46.13799" lon="6.45947">
        <ele>635</ele>
        <time>2012-07-14T13:28:24Z</time>
      </trkpt>
      <trkpt lat="46.13806" lon="6.45938">
        <ele>614</ele>
        <time>2012-07-14T13:29:31Z</time>
      </trkpt>
      <trkpt lat="46.13815" lon="6.45935">
        <ele>595</ele>
        <time>2012-07-14T13:29:44Z</time>
      </trkpt>
      <trkpt lat="46.13807" lon="6.45942">
        <ele>602</ele>
        <time>2012-07-14T13:30:25Z</time>
      </trkpt>
      <trkpt lat="46.13816" lon="6.45944">
        <ele>596</ele>
        <time>2012-07-14T13:31:04Z</time>
      </trkpt>
      <trkpt lat="46.13807" lon="6.4595">
        <ele>618</ele>
        <time>2012-07-14T13:31:24Z</time>
      </trkpt>
      <trkpt lat="46.13798" lon="6.4595">
        <ele>638</ele>
        <time>2012-07-14T13:31:37Z</time>
      </trkpt>
      <trkpt lat="46.13806" lon="6.45943">
        <ele>623</ele>
        <time>2012-07-14T13:32:27Z</time>
      </trkpt>
      <trkpt lat="46.13815" lon="6.45946">
        <ele>604</ele>
        <time>2012-07-14T13:32:48Z</time>
      </trkpt>
      <trkpt lat="46.13805" lon="6.45947">
        <ele>627</ele>
        <time>2012-07-14T13:33:55Z</time>
      </trkpt>
      <trkpt lat="46.13814" lon="6.45945">
        <ele>609</ele>
        <time>2012-07-14T13:34:17Z</time>
      </trkpt>
      <trkpt lat="46.13824" lon="6.45944">
        <ele>597</ele>
        <time>2012-07-14T13:34:44Z</time>
      </trkpt>
      <trkpt lat="46.13816" lon="6.45952">
        <ele>581</ele>
        <time>2012-07-14T13:36:15Z</time>
      </trkpt>
      <trkpt lat="46.13807" lon="6.45944">
        <ele>581</ele>
        <time>2012-07-14T13:36:21Z</time>
      </trkpt>
      <trkpt lat="46.13806" lon="6.45928">
        <ele>581</ele>
        <time>2012-07-14T13:36:24Z</time>
      </trkpt>
      <trkpt lat="46.13806" lon="6.45912">
        <ele>581</ele>
        <time>2012-07-14T13:36:26Z</time>
      </trkpt>
      <trkpt lat="46.13808" lon="6.45892">
        <ele>586</ele>
        <time>2012-07-14T13:36:28Z</time>
      </trkpt>
      <trkpt lat="46.13811" lon="6.4587">
        <ele>586</ele>
        <time>2012-07-14T13:36:30Z</time>
      </trkpt>
      <trkpt lat="46.13815" lon="6.4585">
        <ele>586</ele>
        <time>2012-07-14T13:36:32Z</time>
      </trkpt>
      <trkpt lat="46.13819" lon="6.45831">
        <ele>586</ele>
        <time>2012-07-14T13:36:34Z</time>
      </trkpt>
      <trkpt lat="46.13826" lon="6.45811">
        <ele>586</ele>
        <time>2012-07-14T13:36:36Z</time>
      </trkpt>
      <trkpt lat="46.13833" lon="6.45787">
        <ele>586</ele>
        <time>2012-07-14T13:36:38Z</time>
      </trkpt>
      <trkpt lat="46.13837" lon="6.45775">
        <ele>586</ele>
        <time>2012-07-14T13:36:39Z</time>
      </trkpt>
      <trkpt lat="46.1384" lon="6.45762">
        <ele>586</ele>
        <time>2012-07-14T13:36:40Z</time>
      </trkpt>
      <trkpt lat="46.13843" lon="6.45748">
        <ele>586</ele>
        <time>2012-07-14T13:36:41Z</time>
      </trkpt>
      <trkpt lat="46.13847" lon="6.45733">
        <ele>586</ele>
        <time>2012-07-14T13:36:42Z</time>
      </trkpt>
      <trkpt lat="46.1385" lon="6.45717">
        <ele>586</ele>
        <time>2012-07-14T13:36:43Z</time>
      </trkpt>
      <trkpt lat="46.13854" lon="6.457">
        <ele>586</ele>
        <time>2012-07-14T13:36:44Z</time>
      </trkpt>
      <trkpt lat="46.13856" lon="6.45682">
        <ele>586</ele>
        <time>2012-07-14T13:36:45Z</time>
      </trkpt>
      <trkpt lat="46.13857" lon="6.45664">
        <ele>586</ele>
        <time>2012-07-14T13:36:46Z</time>
      </trkpt>
      <trkpt lat="46.13857" lon="6.45645">
        <ele>586</ele>
        <time>2012-07-14T13:36:47Z</time>
      </trkpt>
      <trkpt lat="46.13856" lon="6.45625">
        <ele>586</ele>
        <time>2012-07-14T13:36:48Z</time>
      </trkpt>
      <trkpt lat="46.13856" lon="6.45604">
        <ele>586</ele>
        <time>2012-07-14T13:36:49Z</time>
      </trkpt>
      <trkpt lat="46.13854" lon="6.45582">
        <ele>586</ele>
        <time>2012-07-14T13:36:50Z</time>
      </trkpt>
      <trkpt lat="46.13852" lon="6.4556">
        <ele>586</ele>
        <time>2012-07-14T13:36:51Z</time>
      </trkpt>
      <trkpt lat="46.13849" lon="6.45538">
        <ele>586</ele>
        <time>2012-07-14T13:36:52Z</time>
      </trkpt>
      <trkpt lat="46.13845" lon="6.45516">
        <ele>586</ele>
        <time>2012-07-14T13:36:53Z</time>
      </trkpt>
      <trkpt lat="46.13841" lon="6.45493">
        <ele>586</ele>
        <time>2012-07-14T13:36:54Z</time>
      </trkpt>
      <trkpt lat="46.13834" lon="6.45468">
        <ele>586</ele>
        <time>2012-07-14T13:36:55Z</time>
      </trkpt>
      <trkpt lat="46.13826" lon="6.45442">
        <ele>586</ele>
        <time>2012-07-14T13:36:56Z</time>
      </trkpt>
      <trkpt lat="46.13817" lon="6.45416">
        <ele>586</ele>
        <time>2012-07-14T13:36:57Z</time>
      </trkpt>
      <trkpt lat="46.13809" lon="6.45391">
        <ele>586</ele>
        <time>2012-07-14T13:36:58Z</time>
      </trkpt>
      <trkpt lat="46.13801" lon="6.45369">
        <ele>586</ele>
        <time>2012-07-14T13:36:59Z</time>
      </trkpt>
      <trkpt lat="46.13794" lon="6.45349">
        <ele>586</ele>
        <time>2012-07-14T13:37:00Z</time>
      </trkpt>
      <trkpt lat="46.13787" lon="6.45331">
        <ele>586</ele>
        <time>2012-07-14T13:37:01Z</time>
      </trkpt>
      <trkpt lat="46.13782" lon="6.45316">
        <ele>586</ele>
        <time>2012-07-14T13:37:02Z</time>
      </trkpt>
      <trkpt lat="46.13778" lon="6.45302">
        <ele>586</ele>
        <time>2012-07-14T13:37:03Z</time>
      </trkpt>
      <trkpt lat="46.13773" lon="6.45289">
        <ele>586</ele>
        <time>2012-07-14T13:37:04Z</time>
      </trkpt>
      <trkpt lat="46.13768" lon="6.45274">
        <ele>586</ele>
        <time>2012-07-14T13:37:05Z</time>
      </trkpt>
      <trkpt lat="46.13763" lon="6.45259">
        <ele>586</ele>
        <time>2012-07-14T13:37:06Z</time>
      </trkpt>
      <trkpt lat="46.13757" lon="6.45243">
        <ele>581</ele>
        <time>2012-07-14T13:37:07Z</time>
      </trkpt>
      <trkpt lat="46.13752" lon="6.45226">
        <ele>581</ele>
        <time>2012-07-14T13:37:08Z</time>
      </trkpt>
      <trkpt lat="46.13746" lon="6.45208">
        <ele>581</ele>
        <time>2012-07-14T13:37:09Z</time>
      </trkpt>
      <trkpt lat="46.13739" lon="6.45189">
        <ele>581</ele>
        <time>2012-07-14T13:37:10Z</time>
      </trkpt>
      <trkpt lat="46.13732" lon="6.4517">
        <ele>581</ele>
        <time>2012-07-14T13:37:11Z</time>
      </trkpt>
      <trkpt lat="46.13724" lon="6.4515">
        <ele>581</ele>
        <time>2012-07-14T13:37:12Z</time>
      </trkpt>
      <trkpt lat="46.13717" lon="6.45129">
        <ele>581</ele>
        <time>2012-07-14T13:37:13Z</time>
      </trkpt>
      <trkpt lat="46.13709" lon="6.45106">
        <ele>581</ele>
        <time>2012-07-14T13:37:14Z</time>
      </trkpt>
      <trkpt lat="46.13702" lon="6.45085">
        <ele>581</ele>
        <time>2012-07-14T13:37:15Z</time>
      </trkpt>
      <trkpt lat="46.13694" lon="6.45065">
        <ele>581</ele>
        <time>2012-07-14T13:37:16Z</time>
      </trkpt>
      <trkpt lat="46.13688" lon="6.45044">
        <ele>581</ele>
        <time>2012-07-14T13:37:17Z</time>
      </trkpt>
      <trkpt lat="46.13681" lon="6.45023">
        <ele>581</ele>
        <time>2012-07-14T13:37:18Z</time>
      </trkpt>
      <trkpt lat="46.13674" lon="6.45002">
        <ele>581</ele>
        <time>2012-07-14T13:37:19Z</time>
      </trkpt>
      <trkpt lat="46.13666" lon="6.44981">
        <ele>581</ele>
        <time>2012-07-14T13:37:20Z</time>
      </trkpt>
      <trkpt lat="46.13659" lon="6.44959">
        <ele>581</ele>
        <time>2012-07-14T13:37:21Z</time>
      </trkpt>
      <trkpt lat="46.13652" lon="6.44938">
        <ele>581</ele>
        <time>2012-07-14T13:37:22Z</time>
      </trkpt>
      <trkpt lat="46.13644" lon="6.44919">
        <ele>586</ele>
        <time>2012-07-14T13:37:23Z</time>
      </trkpt>
      <trkpt lat="46.13638" lon="6.44899">
        <ele>586</ele>
        <time>2012-07-14T13:37:24Z</time>
      </trkpt>
      <trkpt lat="46.13632" lon="6.4488">
        <ele>586</ele>
        <time>2012-07-14T13:37:25Z</time>
      </trkpt>
      <trkpt lat="46.13625" lon="6.44859">
        <ele>586</ele>
        <time>2012-07-14T13:37:26Z</time>
      </trkpt>
      <trkpt lat="46.13618" lon="6.44838">
        <ele>586</ele>
        <time>2012-07-14T13:37:27Z</time>
      </trkpt>
      <trkpt lat="46.1361" lon="6.44816">
        <ele>586</ele>
        <time>2012-07-14T13:37:28Z</time>
      </trkpt>
      <trkpt lat="46.13603" lon="6.44792">
        <ele>586</ele>
        <time>2012-07-14T13:37:29Z</time>
      </trkpt>
      <trkpt lat="46.13596" lon="6.44768">
        <ele>586</ele>
        <time>2012-07-14T13:37:30Z</time>
      </trkpt>
      <trkpt lat="46.13589" lon="6.44742">
        <ele>591</ele>
        <time>2012-07-14T13:37:31Z</time>
      </trkpt>
      <trkpt lat="46.13583" lon="6.44715">
        <ele>591</ele>
        <time>2012-07-14T13:37:32Z</time>
      </trkpt>
      <trkpt lat="46.13578" lon="6.44689">
        <ele>591</ele>
        <time>2012-07-14T13:37:33Z</time>
      </trkpt>
      <trkpt lat="46.13573" lon="6.44662">
        <ele>591</ele>
        <time>2012-07-14T13:37:34Z</time>
      </trkpt>
      <trkpt lat="46.13568" lon="6.44636">
        <ele>591</ele>
        <time>2012-07-14T13:37:35Z</time>
      </trkpt>
      <trkpt lat="46.13562" lon="6.44609">
        <ele>591</ele>
        <time>2012-07-14T13:37:36Z</time>
      </trkpt>
      <trkpt lat="46.13556" lon="6.44582">
        <ele>591</ele>
        <time>2012-07-14T13:37:37Z</time>
      </trkpt>
      <trkpt lat="46.13551" lon="6.44557">
        <ele>597</ele>
        <time>2012-07-14T13:37:38Z</time>
      </trkpt>
      <trkpt lat="46.13546" lon="6.44534">
        <ele>597</ele>
        <time>2012-07-14T13:37:39Z</time>
      </trkpt>
      <trkpt lat="46.13543" lon="6.44514">
        <ele>597</ele>
        <time>2012-07-14T13:37:40Z</time>
      </trkpt>
      <trkpt lat="46.1354" lon="6.44496">
        <ele>597</ele>
        <time>2012-07-14T13:37:41Z</time>
      </trkpt>
      <trkpt lat="46.13536" lon="6.44479">
        <ele>597</ele>
        <time>2012-07-14T13:37:42Z</time>
      </trkpt>
      <trkpt lat="46.13533" lon="6.44462">
        <ele>597</ele>
        <time>2012-07-14T13:37:43Z</time>
      </trkpt>
      <trkpt lat="46.13529" lon="6.44446">
        <ele>597</ele>
        <time>2012-07-14T13:37:44Z</time>
      </trkpt>
      <trkpt lat="46.13526" lon="6.4443">
        <ele>597</ele>
        <time>2012-07-14T13:37:45Z</time>
      </trkpt>
      <trkpt lat="46.13523" lon="6.44414">
        <ele>597</ele>
        <time>2012-07-14T13:37:46Z</time>
      </trkpt>
      <trkpt lat="46.1352" lon="6.44397">
        <ele>597</ele>
        <time>2012-07-14T13:37:47Z</time>
      </trkpt>
      <trkpt lat="46.13516" lon="6.44381">
        <ele>597</ele>
        <time>2012-07-14T13:37:48Z</time>
      </trkpt>
      <trkpt lat="46.13514" lon="6.44366">
        <ele>597</ele>
        <time>2012-07-14T13:37:49Z</time>
      </trkpt>
      <trkpt lat="46.13511" lon="6.44352">
        <ele>597</ele>
        <time>2012-07-14T13:37:50Z</time>
      </trkpt>
      <trkpt lat="46.1351" lon="6.44327">
        <ele>597</ele>
        <time>2012-07-14T13:37:52Z</time>
      </trkpt>
      <trkpt lat="46.13509" lon="6.44309">
        <ele>602</ele>
        <time>2012-07-14T13:37:54Z</time>
      </trkpt>
      <trkpt lat="46.13506" lon="6.44292">
        <ele>602</ele>
        <time>2012-07-14T13:37:57Z</time>
      </trkpt>
      <trkpt lat="46.13498" lon="6.44299">
        <ele>602</ele>
        <time>2012-07-14T13:38:01Z</time>
      </trkpt>
      <trkpt lat="46.13496" lon="6.4432">
        <ele>602</ele>
        <time>2012-07-14T13:38:03Z</time>
      </trkpt>
      <trkpt lat="46.13494" lon="6.44335">
        <ele>602</ele>
        <time>2012-07-14T13:38:04Z</time>
      </trkpt>
      <trkpt lat="46.13491" lon="6.44351">
        <ele>602</ele>
        <time>2012-07-14T13:38:05Z</time>
      </trkpt>
      <trkpt lat="46.13488" lon="6.44369">
        <ele>602</ele>
        <time>2012-07-14T13:38:06Z</time>
      </trkpt>
      <trkpt lat="46.13484" lon="6.4439">
        <ele>602</ele>
        <time>2012-07-14T13:38:07Z</time>
      </trkpt>
      <trkpt lat="46.13481" lon="6.44414">
        <ele>602</ele>
        <time>2012-07-14T13:38:08Z</time>
      </trkpt>
      <trkpt lat="46.13477" lon="6.44439">
        <ele>602</ele>
        <time>2012-07-14T13:38:09Z</time>
      </trkpt>
      <trkpt lat="46.13473" lon="6.44464">
        <ele>602</ele>
        <time>2012-07-14T13:38:10Z</time>
      </trkpt>
      <trkpt lat="46.1347" lon="6.44491">
        <ele>602</ele>
        <time>2012-07-14T13:38:11Z</time>
      </trkpt>
      <trkpt lat="46.13467" lon="6.44519">
        <ele>602</ele>
        <time>2012-07-14T13:38:12Z</time>
      </trkpt>
      <trkpt lat="46.13465" lon="6.44547">
        <ele>602</ele>
        <time>2012-07-14T13:38:13Z</time>
      </trkpt>
      <trkpt lat="46.13463" lon="6.44575">
        <ele>602</ele>
        <time>2012-07-14T13:38:14Z</time>
      </trkpt>
      <trkpt lat="46.13462" lon="6.44604">
        <ele>602</ele>
        <time>2012-07-14T13:38:15Z</time>
      </trkpt>
      <trkpt lat="46.13461" lon="6.44635">
        <ele>602</ele>
        <time>2012-07-14T13:38:16Z</time>
      </trkpt>
      <trkpt lat="46.1346" lon="6.44666">
        <ele>602</ele>
        <time>2012-07-14T13:38:17Z</time>
      </trkpt>
      <trkpt lat="46.1346" lon="6.44698">
        <ele>602</ele>
        <time>2012-07-14T13:38:18Z</time>
      </trkpt>
      <trkpt lat="46.1346" lon="6.44731">
        <ele>602</ele>
        <time>2012-07-14T13:38:19Z</time>
      </trkpt>
      <trkpt lat="46.1346" lon="6.44764">
        <ele>602</ele>
        <time>2012-07-14T13:38:20Z</time>
      </trkpt>
      <trkpt lat="46.1346" lon="6.44798">
        <ele>602</ele>
        <time>2012-07-14T13:38:21Z</time>
      </trkpt>
      <trkpt lat="46.1346" lon="6.44831">
        <ele>602</ele>
        <time>2012-07-14T13:38:22Z</time>
      </trkpt>
      <trkpt lat="46.1346" lon="6.44863">
        <ele>602</ele>
        <time>2012-07-14T13:38:23Z</time>
      </trkpt>
      <trkpt lat="46.1346" lon="6.44893">
        <ele>602</ele>
        <time>2012-07-14T13:38:24Z</time>
      </trkpt>
      <trkpt lat="46.1346" lon="6.44922">
        <ele>602</ele>
        <time>2012-07-14T13:38:25Z</time>
      </trkpt>
      <trkpt lat="46.1346" lon="6.4495">
        <ele>602</ele>
        <time>2012-07-14T13:38:26Z</time>
      </trkpt>
      <trkpt lat="46.13461" lon="6.44976">
        <ele>602</ele>
        <time>2012-07-14T13:38:27Z</time>
      </trkpt>
      <trkpt lat="46.13461" lon="6.45002">
        <ele>602</ele>
        <time>2012-07-14T13:38:28Z</time>
      </trkpt>
      <trkpt lat="46.13461" lon="6.45026">
        <ele>602</ele>
        <time>2012-07-14T13:38:29Z</time>
      </trkpt>
      <trkpt lat="46.13461" lon="6.45051">
        <ele>602</ele>
        <time>2012-07-14T13:38:30Z</time>
      </trkpt>
      <trkpt lat="46.13461" lon="6.45075">
        <ele>602</ele>
        <time>2012-07-14T13:38:31Z</time>
      </trkpt>
      <trkpt lat="46.13461" lon="6.45098">
        <ele>602</ele>
        <time>2012-07-14T13:38:32Z</time>
      </trkpt>
      <trkpt lat="46.13461" lon="6.45122">
        <ele>602</ele>
        <time>2012-07-14T13:38:33Z</time>
      </trkpt>
      <trkpt lat="46.13461" lon="6.45144">
        <ele>602</ele>
        <time>2012-07-14T13:38:34Z</time>
      </trkpt>
      <trkpt lat="46.13461" lon="6.45167">
        <ele>602</ele>
        <time>2012-07-14T13:38:35Z</time>
      </trkpt>
      <trkpt lat="46.1346" lon="6.45191">
        <ele>602</ele>
        <time>2012-07-14T13:38:36Z</time>
      </trkpt>
      <trkpt lat="46.1346" lon="6.45215">
        <ele>602</ele>
        <time>2012-07-14T13:38:37Z</time>
      </trkpt>
      <trkpt lat="46.1346" lon="6.45238">
        <ele>602</ele>
        <time>2012-07-14T13:38:38Z</time>
      </trkpt>
      <trkpt lat="46.1346" lon="6.45261">
        <ele>602</ele>
        <time>2012-07-14T13:38:39Z</time>
      </trkpt>
      <trkpt lat="46.1346" lon="6.4528">
        <ele>602</ele>
        <time>2012-07-14T13:38:40Z</time>
      </trkpt>
      <trkpt lat="46.1346" lon="6.45295">
        <ele>602</ele>
        <time>2012-07-14T13:38:41Z</time>
      </trkpt>
      <trkpt lat="46.13458" lon="6.45316">
        <ele>602</ele>
        <time>2012-07-14T13:38:43Z</time>
      </trkpt>
      <trkpt lat="46.13456" lon="6.45331">
        <ele>602</ele>
        <time>2012-07-14T13:38:46Z</time>
      </trkpt>
      <trkpt lat="46.1346" lon="6.45343">
        <ele>597</ele>
        <time>2012-07-14T13:39:36Z</time>
      </trkpt>
      <trkpt lat="46.13461" lon="6.45369">
        <ele>597</ele>
        <time>2012-07-14T13:39:38Z</time>
      </trkpt>
      <trkpt lat="46.1346" lon="6.45392">
        <ele>597</ele>
        <time>2012-07-14T13:39:39Z</time>
      </trkpt>
      <trkpt lat="46.1346" lon="6.45422">
        <ele>597</ele>
        <time>2012-07-14T13:39:40Z</time>
      </trkpt>
      <trkpt lat="46.1346" lon="6.45455">
        <ele>597</ele>
        <time>2012-07-14T13:39:41Z</time>
      </trkpt>
      <trkpt lat="46.13459" lon="6.45491">
        <ele>597</ele>
        <time>2012-07-14T13:39:42Z</time>
      </trkpt>
      <trkpt lat="46.13458" lon="6.45525">
        <ele>591</ele>
        <time>2012-07-14T13:39:43Z</time>
      </trkpt>
      <trkpt lat="46.13458" lon="6.45557">
        <ele>591</ele>
        <time>2012-07-14T13:39:44Z</time>
      </trkpt>
      <trkpt lat="46.13458" lon="6.45587">
        <ele>591</ele>
        <time>2012-07-14T13:39:45Z</time>
      </trkpt>
      <trkpt lat="46.13458" lon="6.45615">
        <ele>591</ele>
        <time>2012-07-14T13:39:46Z</time>
      </trkpt>
      <trkpt lat="46.13458" lon="6.45643">
        <ele>591</ele>
        <time>2012-07-14T13:39:47Z</time>
      </trkpt>
      <trkpt lat="46.13458" lon="6.4567">
        <ele>586</ele>
        <time>2012-07-14T13:39:48Z</time>
      </trkpt>
      <trkpt lat="46.13458" lon="6.45696">
        <ele>586</ele>
        <time>2012-07-14T13:39:49Z</time>
      </trkpt>
      <trkpt lat="46.13458" lon="6.4572">
        <ele>586</ele>
        <time>2012-07-14T13:39:50Z</time>
      </trkpt>
      <trkpt lat="46.13458" lon="6.45744">
        <ele>586</ele>
        <time>2012-07-14T13:39:51Z</time>
      </trkpt>
      <trkpt lat="46.13458" lon="6.45767">
        <ele>586</ele>
        <time>2012-07-14T13:39:52Z</time>
      </trkpt>
      <trkpt lat="46.13458" lon="6.45791">
        <ele>580</ele>
        <time>2012-07-14T13:39:53Z</time>
      </trkpt>
      <trkpt lat="46.13458" lon="6.45812">
        <ele>580</ele>
        <time>2012-07-14T13:39:54Z</time>
      </trkpt>
      <trkpt lat="46.13456" lon="6.45833">
        <ele>580</ele>
        <time>2012-07-14T13:39:55Z</time>
      </trkpt>
      <trkpt lat="46.13456" lon="6.45852">
        <ele>580</ele>
        <time>2012-07-14T13:39:56Z</time>
      </trkpt>
      <trkpt lat="46.13454" lon="6.45869">
        <ele>580</ele>
        <time>2012-07-14T13:39:57Z</time>
      </trkpt>
      <trkpt lat="46.13453" lon="6.45886">
        <ele>580</ele>
        <time>2012-07-14T13:39:58Z</time>
      </trkpt>
      <trkpt lat="46.13451" lon="6.45902">
        <ele>575</ele>
        <time>2012-07-14T13:39:59Z</time>
      </trkpt>
      <trkpt lat="46.13451" lon="6.45917">
        <ele>575</ele>
        <time>2012-07-14T13:40:00Z</time>
      </trkpt>
      <trkpt lat="46.1345" lon="6.45932">
        <ele>575</ele>
        <time>2012-07-14T13:40:01Z</time>
      </trkpt>
      <trkpt lat="46.13449" lon="6.45945">
        <ele>575</ele>
        <time>2012-07-14T13:40:02Z</time>
      </trkpt>
      <trkpt lat="46.13445" lon="6.45967">
        <ele>575</ele>
        <time>2012-07-14T13:40:04Z</time>
      </trkpt>
      <trkpt lat="46.1344" lon="6.45985">
        <ele>575</ele>
        <time>2012-07-14T13:40:06Z</time>
      </trkpt>
      <trkpt lat="46.1344" lon="6.46">
        <ele>575</ele>
        <time>2012-07-14T13:40:08Z</time>
      </trkpt>
      <trkpt lat="46.13447" lon="6.46009">
        <ele>570</ele>
        <time>2012-07-14T13:40:10Z</time>
      </trkpt>
      <trkpt lat="46.13461" lon="6.46008">
        <ele>570</ele>
        <time>2012-07-14T13:40:12Z</time>
      </trkpt>
      <trkpt lat="46.13475" lon="6.46004">
        <ele>570</ele>
        <time>2012-07-14T13:40:14Z</time>
      </trkpt>
      <trkpt lat="46.13483" lon="6.46009">
        <ele>570</ele>
        <time>2012-07-14T13:40:16Z</time>
      </trkpt>
      <trkpt lat="46.13485" lon="6.46026">
        <ele>570</ele>
        <time>2012-07-14T13:40:18Z</time>
      </trkpt>
      <trkpt lat="46.1348" lon="6.46051">
        <ele>570</ele>
        <time>2012-07-14T13:40:20Z</time>
      </trkpt>
      <trkpt lat="46.13478" lon="6.46065">
        <ele>570</ele>
        <time>2012-07-14T13:40:21Z</time>
      </trkpt>
      <trkpt lat="46.13475" lon="6.46078">
        <ele>565</ele>
        <time>2012-07-14T13:40:22Z</time>
      </trkpt>
      <trkpt lat="46.13473" lon="6.46092">
        <ele>565</ele>
        <time>2012-07-14T13:40:23Z</time>
      </trkpt>
      <trkpt lat="46.1347" lon="6.46117">
        <ele>565</ele>
        <time>2012-07-14T13:40:25Z</time>
      </trkpt>
      <trkpt lat="46.1347" lon="6.46139">
        <ele>565</ele>
        <time>2012-07-14T13:40:27Z</time>
      </trkpt>
      <trkpt lat="46.13473" lon="6.46154">
        <ele>565</ele>
        <time>2012-07-14T13:40:29Z</time>
      </trkpt>
      <trkpt lat="46.1348" lon="6.46145">
        <ele>565</ele>
        <time>2012-07-14T13:40:58Z</time>
      </trkpt>
      <trkpt lat="46.1347" lon="6.46144">
        <ele>554</ele>
        <time>2012-07-14T13:43:02Z</time>
      </trkpt>
      <trkpt lat="46.13462" lon="6.4615">
        <ele>543</ele>
        <time>2012-07-14T13:43:13Z</time>
      </trkpt>
      <trkpt lat="46.13471" lon="6.46146">
        <ele>552</ele>
        <time>2012-07-14T13:43:31Z</time>
      </trkpt>
      <trkpt lat="46.13476" lon="6.46134">
        <ele>568</ele>
        <time>2012-07-14T13:43:58Z</time>
      </trkpt>
      <trkpt lat="46.13466" lon="6.46138">
        <ele>552</ele>
        <time>2012-07-14T13:44:36Z</time>
      </trkpt>
      <trkpt lat="46.1347" lon="6.46126">
        <ele>558</ele>
        <time>2012-07-14T13:45:09Z</time>
      </trkpt>
      <trkpt lat="46.13471" lon="6.46108">
        <ele>558</ele>
        <time>2012-07-14T13:45:13Z</time>
      </trkpt>
      <trkpt lat="46.13473" lon="6.46093">
        <ele>558</ele>
        <time>2012-07-14T13:45:15Z</time>
      </trkpt>
      <trkpt lat="46.13478" lon="6.46069">
        <ele>558</ele>
        <time>2012-07-14T13:45:17Z</time>
      </trkpt>
      <trkpt lat="46.13481" lon="6.46057">
        <ele>558</ele>
        <time>2012-07-14T13:45:18Z</time>
      </trkpt>
      <trkpt lat="46.13484" lon="6.46043">
        <ele>558</ele>
        <time>2012-07-14T13:45:19Z</time>
      </trkpt>
      <trkpt lat="46.13487" lon="6.46031">
        <ele>558</ele>
        <time>2012-07-14T13:45:20Z</time>
      </trkpt>
      <trkpt lat="46.1349" lon="6.46012">
        <ele>564</ele>
        <time>2012-07-14T13:45:22Z</time>
      </trkpt>
      <trkpt lat="46.13488" lon="6.45998">
        <ele>564</ele>
        <time>2012-07-14T13:45:26Z</time>
      </trkpt>
      <trkpt lat="46.1348" lon="6.45988">
        <ele>564</ele>
        <time>2012-07-14T13:45:28Z</time>
      </trkpt>
      <trkpt lat="46.1347" lon="6.45972">
        <ele>564</ele>
        <time>2012-07-14T13:45:30Z</time>
      </trkpt>
      <trkpt lat="46.13462" lon="6.45949">
        <ele>564</ele>
        <time>2012-07-14T13:45:32Z</time>
      </trkpt>
      <trkpt lat="46.13461" lon="6.45935">
        <ele>564</ele>
        <time>2012-07-14T13:45:33Z</time>
      </trkpt>
      <trkpt lat="46.1346" lon="6.45917">
        <ele>564</ele>
        <time>2012-07-14T13:45:34Z</time>
      </trkpt>
      <trkpt lat="46.1346" lon="6.45895">
        <ele>570</ele>
        <time>2012-07-14T13:45:35Z</time>
      </trkpt>
      <trkpt lat="46.1346" lon="6.45869">
        <ele>570</ele>
        <time>2012-07-14T13:45:36Z</time>
      </trkpt>
      <trkpt lat="46.1346" lon="6.45845">
        <ele>570</ele>
        <time>2012-07-14T13:45:37Z</time>
      </trkpt>
      <trkpt lat="46.13461" lon="6.4582">
        <ele>570</ele>
        <time>2012-07-14T13:45:38Z</time>
      </trkpt>
      <trkpt lat="46.13461" lon="6.45798">
        <ele>570</ele>
        <time>2012-07-14T13:45:39Z</time>
      </trkpt>
      <trkpt lat="46.13461" lon="6.45775">
        <ele>576</ele>
        <time>2012-07-14T13:45:40Z</time>
      </trkpt>
      <trkpt lat="46.13461" lon="6.45751">
        <ele>576</ele>
        <time>2012-07-14T13:45:41Z</time>
      </trkpt>
      <trkpt lat="46.13461" lon="6.45728">
        <ele>576</ele>
        <time>2012-07-14T13:45:42Z</time>
      </trkpt>
      <trkpt lat="46.13462" lon="6.45704">
        <ele>576</ele>
        <time>2012-07-14T13:45:43Z</time>
      </trkpt>
      <trkpt lat="46.13462" lon="6.4568">
        <ele>576</ele>
        <time>2012-07-14T13:45:44Z</time>
      </trkpt>
      <trkpt lat="46.13462" lon="6.45657">
        <ele>576</ele>
        <time>2012-07-14T13:45:45Z</time>
      </trkpt>
      <trkpt lat="46.13462" lon="6.45634">
        <ele>582</ele>
        <time>2012-07-14T13:45:46Z</time>
      </trkpt>
      <trkpt lat="46.13461" lon="6.4561">
        <ele>582</ele>
        <time>2012-07-14T13:45:47Z</time>
      </trkpt>
      <trkpt lat="46.13461" lon="6.45587">
        <ele>582</ele>
        <time>2012-07-14T13:45:48Z</time>
      </trkpt>
      <trkpt lat="46.13461" lon="6.45563">
        <ele>582</ele>
        <time>2012-07-14T13:45:49Z</time>
      </trkpt>
      <trkpt lat="46.13462" lon="6.45538">
        <ele>582</ele>
        <time>2012-07-14T13:45:50Z</time>
      </trkpt>
      <trkpt lat="46.13463" lon="6.45515">
        <ele>587</ele>
        <time>2012-07-14T13:45:51Z</time>
      </trkpt>
      <trkpt lat="46.13463" lon="6.45492">
        <ele>587</ele>
        <time>2012-07-14T13:45:52Z</time>
      </trkpt>
      <trkpt lat="46.13463" lon="6.4547">
        <ele>587</ele>
        <time>2012-07-14T13:45:53Z</time>
      </trkpt>
      <trkpt lat="46.13464" lon="6.45448">
        <ele>587</ele>
        <time>2012-07-14T13:45:54Z</time>
      </trkpt>
      <trkpt lat="46.13465" lon="6.45426">
        <ele>587</ele>
        <time>2012-07-14T13:45:55Z</time>
      </trkpt>
      <trkpt lat="46.13465" lon="6.45405">
        <ele>592</ele>
        <time>2012-07-14T13:45:56Z</time>
      </trkpt>
      <trkpt lat="46.13465" lon="6.45385">
        <ele>592</ele>
        <time>2012-07-14T13:45:57Z</time>
      </trkpt>
      <trkpt lat="46.13466" lon="6.45367">
        <ele>592</ele>
        <time>2012-07-14T13:45:58Z</time>
      </trkpt>
      <trkpt lat="46.13465" lon="6.45352">
        <ele>592</ele>
        <time>2012-07-14T13:45:59Z</time>
      </trkpt>
      <trkpt lat="46.13463" lon="6.4533">
        <ele>592</ele>
        <time>2012-07-14T13:46:01Z</time>
      </trkpt>
      <trkpt lat="46.13453" lon="6.45322">
        <ele>592</ele>
        <time>2012-07-14T13:46:04Z</time>
      </trkpt>
      <trkpt lat="46.1344" lon="6.45321">
        <ele>598</ele>
        <time>2012-07-14T13:46:08Z</time>
      </trkpt>
      <trkpt lat="46.13425" lon="6.45316">
        <ele>598</ele>
        <time>2012-07-14T13:46:10Z</time>
      </trkpt>
      <trkpt lat="46.13415" lon="6.45312">
        <ele>598</ele>
        <time>2012-07-14T13:46:11Z</time>
      </trkpt>
      <trkpt lat="46.13404" lon="6.45306">
        <ele>598</ele>
        <time>2012-07-14T13:46:12Z</time>
      </trkpt>
      <trkpt lat="46.13393" lon="6.45298">
        <ele>603</ele>
        <time>2012-07-14T13:46:13Z</time>
      </trkpt>
      <trkpt lat="46.13381" lon="6.45288">
        <ele>603</ele>
        <time>2012-07-14T13:46:14Z</time>
      </trkpt>
      <trkpt lat="46.13369" lon="6.45278">
        <ele>603</ele>
        <time>2012-07-14T13:46:15Z</time>
      </trkpt>
      <trkpt lat="46.13357" lon="6.45268">
        <ele>609</ele>
        <time>2012-07-14T13:46:16Z</time>
      </trkpt>
      <trkpt lat="46.13345" lon="6.45259">
        <ele>609</ele>
        <time>2012-07-14T13:46:17Z</time>
      </trkpt>
      <trkpt lat="46.13333" lon="6.4525">
        <ele>609</ele>
        <time>2012-07-14T13:46:18Z</time>
      </trkpt>
      <trkpt lat="46.13322" lon="6.4524">
        <ele>615</ele>
        <time>2012-07-14T13:46:19Z</time>
      </trkpt>
      <trkpt lat="46.13311" lon="6.4523">
        <ele>615</ele>
        <time>2012-07-14T13:46:20Z</time>
      </trkpt>
      <trkpt lat="46.133" lon="6.45219">
        <ele>615</ele>
        <time>2012-07-14T13:46:21Z</time>
      </trkpt>
      <trkpt lat="46.1329" lon="6.45207">
        <ele>622</ele>
        <time>2012-07-14T13:46:22Z</time>
      </trkpt>
      <trkpt lat="46.1328" lon="6.45196">
        <ele>622</ele>
        <time>2012-07-14T13:46:23Z</time>
      </trkpt>
      <trkpt lat="46.13271" lon="6.45186">
        <ele>622</ele>
        <time>2012-07-14T13:46:24Z</time>
      </trkpt>
      <trkpt lat="46.13262" lon="6.45177">
        <ele>628</ele>
        <time>2012-07-14T13:46:25Z</time>
      </trkpt>
      <trkpt lat="46.13253" lon="6.45168">
        <ele>628</ele>
        <time>2012-07-14T13:46:26Z</time>
      </trkpt>
      <trkpt lat="46.13244" lon="6.4516">
        <ele>628</ele>
        <time>2012-07-14T13:46:27Z</time>
      </trkpt>
      <trkpt lat="46.13234" lon="6.45153">
        <ele>634</ele>
        <time>2012-07-14T13:46:28Z</time>
      </trkpt>
      <trkpt lat="46.13224" lon="6.45147">
        <ele>634</ele>
        <time>2012-07-14T13:46:29Z</time>
      </trkpt>
      <trkpt lat="46.13214" lon="6.4514">
        <ele>634</ele>
        <time>2012-07-14T13:46:30Z</time>
      </trkpt>
      <trkpt lat="46.13205" lon="6.45135">
        <ele>640</ele>
        <time>2012-07-14T13:46:31Z</time>
      </trkpt>
      <trkpt lat="46.13195" lon="6.45131">
        <ele>640</ele>
        <time>2012-07-14T13:46:32Z</time>
      </trkpt>
      <trkpt lat="46.13178" lon="6.4512">
        <ele>646</ele>
        <time>2012-07-14T13:46:34Z</time>
      </trkpt>
      <trkpt lat="46.13169" lon="6.45115">
        <ele>646</ele>
        <time>2012-07-14T13:46:35Z</time>
      </trkpt>
      <trkpt lat="46.1316" lon="6.45113">
        <ele>646</ele>
        <time>2012-07-14T13:46:36Z</time>
      </trkpt>
      <trkpt lat="46.13147" lon="6.45113">
        <ele>654</ele>
        <time>2012-07-14T13:46:38Z</time>
      </trkpt>
      <trkpt lat="46.13138" lon="6.45113">
        <ele>654</ele>
        <time>2012-07-14T13:46:41Z</time>
      </trkpt>
      <trkpt lat="46.13127" lon="6.45111">
        <ele>663</ele>
        <time>2012-07-14T13:46:46Z</time>
      </trkpt>
      <trkpt lat="46.13114" lon="6.45107">
        <ele>663</ele>
        <time>2012-07-14T13:46:53Z</time>
      </trkpt>
      <trkpt lat="46.131" lon="6.45103">
        <ele>669</ele>
        <time>2012-07-14T13:46:55Z</time>
      </trkpt>
      <trkpt lat="46.13085" lon="6.45098">
        <ele>669</ele>
        <time>2012-07-14T13:46:57Z</time>
      </trkpt>
      <trkpt lat="46.1307" lon="6.4509">
        <ele>669</ele>
        <time>2012-07-14T13:46:59Z</time>
      </trkpt>
      <trkpt lat="46.13057" lon="6.45082">
        <ele>669</ele>
        <time>2012-07-14T13:47:01Z</time>
      </trkpt>
      <trkpt lat="46.13046" lon="6.45075">
        <ele>679</ele>
        <time>2012-07-14T13:47:12Z</time>
      </trkpt>
      <trkpt lat="46.13032" lon="6.45067">
        <ele>679</ele>
        <time>2012-07-14T13:47:14Z</time>
      </trkpt>
      <trkpt lat="46.13019" lon="6.45066">
        <ele>679</ele>
        <time>2012-07-14T13:47:16Z</time>
      </trkpt>
      <trkpt lat="46.1301" lon="6.45063">
        <ele>679</ele>
        <time>2012-07-14T13:47:18Z</time>
      </trkpt>
      <trkpt lat="46.12997" lon="6.45073">
        <ele>688</ele>
        <time>2012-07-14T13:47:21Z</time>
      </trkpt>
      <trkpt lat="46.12989" lon="6.45086">
        <ele>688</ele>
        <time>2012-07-14T13:47:23Z</time>
      </trkpt>
      <trkpt lat="46.12984" lon="6.45105">
        <ele>688</ele>
        <time>2012-07-14T13:47:25Z</time>
      </trkpt>
      <trkpt lat="46.12984" lon="6.45128">
        <ele>693</ele>
        <time>2012-07-14T13:47:27Z</time>
      </trkpt>
      <trkpt lat="46.12987" lon="6.45154">
        <ele>693</ele>
        <time>2012-07-14T13:47:29Z</time>
      </trkpt>
      <trkpt lat="46.1299" lon="6.45168">
        <ele>693</ele>
        <time>2012-07-14T13:47:30Z</time>
      </trkpt>
      <trkpt lat="46.12992" lon="6.45182">
        <ele>699</ele>
        <time>2012-07-14T13:47:31Z</time>
      </trkpt>
      <trkpt lat="46.12994" lon="6.45194">
        <ele>699</ele>
        <time>2012-07-14T13:47:32Z</time>
      </trkpt>
      <trkpt lat="46.12997" lon="6.45215">
        <ele>699</ele>
        <time>2012-07-14T13:47:34Z</time>
      </trkpt>
      <trkpt lat="46.12998" lon="6.45232">
        <ele>704</ele>
        <time>2012-07-14T13:47:36Z</time>
      </trkpt>
      <trkpt lat="46.12996" lon="6.45246">
        <ele>704</ele>
        <time>2012-07-14T13:47:38Z</time>
      </trkpt>
      <trkpt lat="46.12987" lon="6.45256">
        <ele>710</ele>
        <time>2012-07-14T13:47:40Z</time>
      </trkpt>
      <trkpt lat="46.12979" lon="6.45264">
        <ele>710</ele>
        <time>2012-07-14T13:47:42Z</time>
      </trkpt>
      <trkpt lat="46.12967" lon="6.45267">
        <ele>717</ele>
        <time>2012-07-14T13:47:44Z</time>
      </trkpt>
      <trkpt lat="46.12956" lon="6.45267">
        <ele>717</ele>
        <time>2012-07-14T13:47:46Z</time>
      </trkpt>
      <trkpt lat="46.12944" lon="6.45265">
        <ele>724</ele>
        <time>2012-07-14T13:47:48Z</time>
      </trkpt>
      <trkpt lat="46.12929" lon="6.45264">
        <ele>724</ele>
        <time>2012-07-14T13:47:50Z</time>
      </trkpt>
      <trkpt lat="46.12917" lon="6.45266">
        <ele>731</ele>
        <time>2012-07-14T13:47:52Z</time>
      </trkpt>
      <trkpt lat="46.12906" lon="6.45265">
        <ele>731</ele>
        <time>2012-07-14T13:47:54Z</time>
      </trkpt>
      <trkpt lat="46.12895" lon="6.45264">
        <ele>739</ele>
        <time>2012-07-14T13:47:57Z</time>
      </trkpt>
      <trkpt lat="46.12885" lon="6.45261">
        <ele>739</ele>
        <time>2012-07-14T13:47:59Z</time>
      </trkpt>
      <trkpt lat="46.12873" lon="6.45249">
        <ele>745</ele>
        <time>2012-07-14T13:48:01Z</time>
      </trkpt>
      <trkpt lat="46.12861" lon="6.45241">
        <ele>745</ele>
        <time>2012-07-14T13:48:03Z</time>
      </trkpt>
      <trkpt lat="46.12846" lon="6.45236">
        <ele>745</ele>
        <time>2012-07-14T13:48:05Z</time>
      </trkpt>
      <trkpt lat="46.12835" lon="6.45232">
        <ele>750</ele>
        <time>2012-07-14T13:48:06Z</time>
      </trkpt>
      <trkpt lat="46.12819" lon="6.45229">
        <ele>750</ele>
        <time>2012-07-14T13:48:08Z</time>
      </trkpt>
      <trkpt lat="46.12803" lon="6.45228">
        <ele>760</ele>
        <time>2012-07-14T13:48:10Z</time>
      </trkpt>
      <trkpt lat="46.12794" lon="6.45223">
        <ele>760</ele>
        <time>2012-07-14T13:48:11Z</time>
      </trkpt>
      <trkpt lat="46.12803" lon="6.45217">
        <ele>778</ele>
        <time>2012-07-14T13:48:17Z</time>
      </trkpt>
      <trkpt lat="46.12812" lon="6.45215">
        <ele>783</ele>
        <time>2012-07-14T13:48:19Z</time>
      </trkpt>
      <trkpt lat="46.12821" lon="6.45208">
        <ele>783</ele>
        <time>2012-07-14T13:48:22Z</time>
      </trkpt>
      <trkpt lat="46.12838" lon="6.45205">
        <ele>783</ele>
        <time>2012-07-14T13:48:24Z</time>
      </trkpt>
      <trkpt lat="46.12849" lon="6.45206">
        <ele>790</ele>
        <time>2012-07-14T13:48:25Z</time>
      </trkpt>
      <trkpt lat="46.12866" lon="6.45201">
        <ele>790</ele>
        <time>2012-07-14T13:48:27Z</time>
      </trkpt>
      <trkpt lat="46.12875" lon="6.45198">
        <ele>790</ele>
        <time>2012-07-14T13:48:28Z</time>
      </trkpt>
      <trkpt lat="46.12891" lon="6.45198">
        <ele>790</ele>
        <time>2012-07-14T13:48:30Z</time>
      </trkpt>
      <trkpt lat="46.12901" lon="6.45193">
        <ele>790</ele>
        <time>2012-07-14T13:48:32Z</time>
      </trkpt>
      <trkpt lat="46.12902" lon="6.45179">
        <ele>790</ele>
        <time>2012-07-14T13:48:35Z</time>
      </trkpt>
      <trkpt lat="46.12894" lon="6.45169">
        <ele>790</ele>
        <time>2012-07-14T13:48:38Z</time>
      </trkpt>
      <trkpt lat="46.12884" lon="6.45165">
        <ele>784</ele>
        <time>2012-07-14T13:48:40Z</time>
      </trkpt>
      <trkpt lat="46.12871" lon="6.45159">
        <ele>784</ele>
        <time>2012-07-14T13:48:42Z</time>
      </trkpt>
      <trkpt lat="46.12857" lon="6.45154">
        <ele>784</ele>
        <time>2012-07-14T13:48:44Z</time>
      </trkpt>
      <trkpt lat="46.12843" lon="6.4515">
        <ele>784</ele>
        <time>2012-07-14T13:48:46Z</time>
      </trkpt>
      <trkpt lat="46.12831" lon="6.45147">
        <ele>784</ele>
        <time>2012-07-14T13:48:48Z</time>
      </trkpt>
      <trkpt lat="46.1282" lon="6.45143">
        <ele>791</ele>
        <time>2012-07-14T13:48:50Z</time>
      </trkpt>
      <trkpt lat="46.12809" lon="6.4514">
        <ele>791</ele>
        <time>2012-07-14T13:48:52Z</time>
      </trkpt>
      <trkpt lat="46.12798" lon="6.45139">
        <ele>798</ele>
        <time>2012-07-14T13:48:54Z</time>
      </trkpt>
      <trkpt lat="46.12787" lon="6.4514">
        <ele>798</ele>
        <time>2012-07-14T13:48:56Z</time>
      </trkpt>
      <trkpt lat="46.12777" lon="6.4514">
        <ele>807</ele>
        <time>2012-07-14T13:48:58Z</time>
      </trkpt>
      <trkpt lat="46.12766" lon="6.4514">
        <ele>807</ele>
        <time>2012-07-14T13:49:00Z</time>
      </trkpt>
      <trkpt lat="46.12757" lon="6.45141">
        <ele>821</ele>
        <time>2012-07-14T13:49:05Z</time>
      </trkpt>
      <trkpt lat="46.12752" lon="6.45155">
        <ele>844</ele>
        <time>2012-07-14T13:49:19Z</time>
      </trkpt>
      <trkpt lat="46.12738" lon="6.45158">
        <ele>844</ele>
        <time>2012-07-14T13:49:21Z</time>
      </trkpt>
      <trkpt lat="46.12724" lon="6.45162">
        <ele>850</ele>
        <time>2012-07-14T13:49:23Z</time>
      </trkpt>
      <trkpt lat="46.12712" lon="6.45167">
        <ele>850</ele>
        <time>2012-07-14T13:49:25Z</time>
      </trkpt>
      <trkpt lat="46.12709" lon="6.45151">
        <ele>860</ele>
        <time>2012-07-14T13:49:30Z</time>
      </trkpt>
      <trkpt lat="46.12709" lon="6.45137">
        <ele>860</ele>
        <time>2012-07-14T13:49:32Z</time>
      </trkpt>
      <trkpt lat="46.12712" lon="6.45123">
        <ele>860</ele>
        <time>2012-07-14T13:49:34Z</time>
      </trkpt>
      <trkpt lat="46.12717" lon="6.45111">
        <ele>860</ele>
        <time>2012-07-14T13:49:36Z</time>
      </trkpt>
      <trkpt lat="46.12706" lon="6.45108">
        <ele>860</ele>
        <time>2012-07-14T13:49:42Z</time>
      </trkpt>
      <trkpt lat="46.12696" lon="6.45109">
        <ele>867</ele>
        <time>2012-07-14T13:49:44Z</time>
      </trkpt>
      <trkpt lat="46.12685" lon="6.45112">
        <ele>867</ele>
        <time>2012-07-14T13:49:46Z</time>
      </trkpt>
      <trkpt lat="46.12675" lon="6.45117">
        <ele>872</ele>
        <time>2012-07-14T13:49:48Z</time>
      </trkpt>
      <trkpt lat="46.12661" lon="6.45119">
        <ele>872</ele>
        <time>2012-07-14T13:49:50Z</time>
      </trkpt>
      <trkpt lat="46.12648" lon="6.45122">
        <ele>872</ele>
        <time>2012-07-14T13:49:52Z</time>
      </trkpt>
      <trkpt lat="46.12634" lon="6.45121">
        <ele>872</ele>
        <time>2012-07-14T13:49:54Z</time>
      </trkpt>
      <trkpt lat="46.12623" lon="6.45122">
        <ele>872</ele>
        <time>2012-07-14T13:49:56Z</time>
      </trkpt>
      <trkpt lat="46.12626" lon="6.45105">
        <ele>881</ele>
        <time>2012-07-14T13:50:01Z</time>
      </trkpt>
      <trkpt lat="46.12628" lon="6.4509">
        <ele>881</ele>
        <time>2012-07-14T13:50:14Z</time>
      </trkpt>
      <trkpt lat="46.12635" lon="6.45078">
        <ele>881</ele>
        <time>2012-07-14T13:50:16Z</time>
      </trkpt>
      <trkpt lat="46.12642" lon="6.45063">
        <ele>881</ele>
        <time>2012-07-14T13:50:18Z</time>
      </trkpt>
      <trkpt lat="46.12647" lon="6.45048">
        <ele>881</ele>
        <time>2012-07-14T13:50:20Z</time>
      </trkpt>
      <trkpt lat="46.12655" lon="6.45037">
        <ele>881</ele>
        <time>2012-07-14T13:50:22Z</time>
      </trkpt>
      <trkpt lat="46.12653" lon="6.45019">
        <ele>887</ele>
        <time>2012-07-14T13:50:25Z</time>
      </trkpt>
      <trkpt lat="46.12648" lon="6.45004">
        <ele>887</ele>
        <time>2012-07-14T13:50:27Z</time>
      </trkpt>
      <trkpt lat="46.12641" lon="6.44991">
        <ele>896</ele>
        <time>2012-07-14T13:50:29Z</time>
      </trkpt>
      <trkpt lat="46.12631" lon="6.44973">
        <ele>896</ele>
        <time>2012-07-14T13:50:31Z</time>
      </trkpt>
      <trkpt lat="46.12619" lon="6.4496">
        <ele>904</ele>
        <time>2012-07-14T13:50:33Z</time>
      </trkpt>
      <trkpt lat="46.12606" lon="6.44948">
        <ele>904</ele>
        <time>2012-07-14T13:50:35Z</time>
      </trkpt>
      <trkpt lat="46.12591" lon="6.44937">
        <ele>909</ele>
        <time>2012-07-14T13:50:37Z</time>
      </trkpt>
      <trkpt lat="46.1258" lon="6.44926">
        <ele>909</ele>
        <time>2012-07-14T13:50:39Z</time>
      </trkpt>
      <trkpt lat="46.12568" lon="6.44918">
        <ele>916</ele>
        <time>2012-07-14T13:50:41Z</time>
      </trkpt>
      <trkpt lat="46.12555" lon="6.4491">
        <ele>916</ele>
        <time>2012-07-14T13:50:43Z</time>
      </trkpt>
      <trkpt lat="46.1254" lon="6.44901">
        <ele>924</ele>
        <time>2012-07-14T13:50:45Z</time>
      </trkpt>
      <trkpt lat="46.12526" lon="6.44893">
        <ele>924</ele>
        <time>2012-07-14T13:50:47Z</time>
      </trkpt>
      <trkpt lat="46.12514" lon="6.44888">
        <ele>933</ele>
        <time>2012-07-14T13:50:49Z</time>
      </trkpt>
      <trkpt lat="46.12496" lon="6.44884">
        <ele>939</ele>
        <time>2012-07-14T13:50:52Z</time>
      </trkpt>
      <trkpt lat="46.1248" lon="6.44881">
        <ele>939</ele>
        <time>2012-07-14T13:50:54Z</time>
      </trkpt>
      <trkpt lat="46.12465" lon="6.44881">
        <ele>945</ele>
        <time>2012-07-14T13:50:56Z</time>
      </trkpt>
      <trkpt lat="46.12455" lon="6.44881">
        <ele>945</ele>
        <time>2012-07-14T13:50:57Z</time>
      </trkpt>
      <trkpt lat="46.12438" lon="6.44884">
        <ele>945</ele>
        <time>2012-07-14T13:50:59Z</time>
      </trkpt>
      <trkpt lat="46.12423" lon="6.44885">
        <ele>954</ele>
        <time>2012-07-14T13:51:01Z</time>
      </trkpt>
      <trkpt lat="46.12406" lon="6.44885">
        <ele>954</ele>
        <time>2012-07-14T13:51:03Z</time>
      </trkpt>
      <trkpt lat="46.12388" lon="6.44883">
        <ele>960</ele>
        <time>2012-07-14T13:51:05Z</time>
      </trkpt>
      <trkpt lat="46.12373" lon="6.44881">
        <ele>960</ele>
        <time>2012-07-14T13:51:07Z</time>
      </trkpt>
      <trkpt lat="46.12362" lon="6.4488">
        <ele>967</ele>
        <time>2012-07-14T13:51:09Z</time>
      </trkpt>
      <trkpt lat="46.12348" lon="6.44878">
        <ele>967</ele>
        <time>2012-07-14T13:51:11Z</time>
      </trkpt>
      <trkpt lat="46.12334" lon="6.44878">
        <ele>976</ele>
        <time>2012-07-14T13:51:13Z</time>
      </trkpt>
      <trkpt lat="46.12319" lon="6.44875">
        <ele>976</ele>
        <time>2012-07-14T13:51:15Z</time>
      </trkpt>
      <trkpt lat="46.12305" lon="6.4487">
        <ele>983</ele>
        <time>2012-07-14T13:51:17Z</time>
      </trkpt>
      <trkpt lat="46.12288" lon="6.44866">
        <ele>983</ele>
        <time>2012-07-14T13:51:19Z</time>
      </trkpt>
      <trkpt lat="46.12272" lon="6.44865">
        <ele>991</ele>
        <time>2012-07-14T13:51:21Z</time>
      </trkpt>
      <trkpt lat="46.12259" lon="6.44863">
        <ele>997</ele>
        <time>2012-07-14T13:51:23Z</time>
      </trkpt>
      <trkpt lat="46.12245" lon="6.44862">
        <ele>997</ele>
        <time>2012-07-14T13:51:25Z</time>
      </trkpt>
      <trkpt lat="46.1223" lon="6.44863">
        <ele>1006</ele>
        <time>2012-07-14T13:51:27Z</time>
      </trkpt>
      <trkpt lat="46.12216" lon="6.44864">
        <ele>1012</ele>
        <time>2012-07-14T13:51:29Z</time>
      </trkpt>
      <trkpt lat="46.12202" lon="6.44866">
        <ele>1017</ele>
        <time>2012-07-14T13:51:31Z</time>
      </trkpt>
      <trkpt lat="46.12187" lon="6.44868">
        <ele>1024</ele>
        <time>2012-07-14T13:51:33Z</time>
      </trkpt>
      <trkpt lat="46.12172" lon="6.44873">
        <ele>1024</ele>
        <time>2012-07-14T13:51:35Z</time>
      </trkpt>
      <trkpt lat="46.12155" lon="6.44877">
        <ele>1033</ele>
        <time>2012-07-14T13:51:37Z</time>
      </trkpt>
      <trkpt lat="46.1214" lon="6.44883">
        <ele>1033</ele>
        <time>2012-07-14T13:51:39Z</time>
      </trkpt>
      <trkpt lat="46.12124" lon="6.44889">
        <ele>1033</ele>
        <time>2012-07-14T13:51:41Z</time>
      </trkpt>
      <trkpt lat="46.12115" lon="6.44893">
        <ele>1040</ele>
        <time>2012-07-14T13:51:42Z</time>
      </trkpt>
      <trkpt lat="46.12105" lon="6.44895">
        <ele>1040</ele>
        <time>2012-07-14T13:51:43Z</time>
      </trkpt>
      <trkpt lat="46.12096" lon="6.44897">
        <ele>1040</ele>
        <time>2012-07-14T13:51:44Z</time>
      </trkpt>
      <trkpt lat="46.12087" lon="6.44898">
        <ele>1046</ele>
        <time>2012-07-14T13:51:45Z</time>
      </trkpt>
      <trkpt lat="46.12075" lon="6.44895">
        <ele>1046</ele>
        <time>2012-07-14T13:51:47Z</time>
      </trkpt>
      <trkpt lat="46.12067" lon="6.44889">
        <ele>1057</ele>
        <time>2012-07-14T13:52:06Z</time>
      </trkpt>
      <trkpt lat="46.12055" lon="6.44893">
        <ele>1063</ele>
        <time>2012-07-14T13:52:36Z</time>
      </trkpt>
      <trkpt lat="46.12042" lon="6.44895">
        <ele>1070</ele>
        <time>2012-07-14T13:52:38Z</time>
      </trkpt>
      <trkpt lat="46.12028" lon="6.44899">
        <ele>1070</ele>
        <time>2012-07-14T13:52:40Z</time>
      </trkpt>
      <trkpt lat="46.12011" lon="6.44901">
        <ele>1076</ele>
        <time>2012-07-14T13:52:42Z</time>
      </trkpt>
      <trkpt lat="46.11994" lon="6.44905">
        <ele>1076</ele>
        <time>2012-07-14T13:52:44Z</time>
      </trkpt>
      <trkpt lat="46.11981" lon="6.44909">
        <ele>1082</ele>
        <time>2012-07-14T13:52:46Z</time>
      </trkpt>
      <trkpt lat="46.11971" lon="6.44913">
        <ele>1082</ele>
        <time>2012-07-14T13:52:48Z</time>
      </trkpt>
      <trkpt lat="46.11962" lon="6.44919">
        <ele>1082</ele>
        <time>2012-07-14T13:52:50Z</time>
      </trkpt>
      <trkpt lat="46.11951" lon="6.44923">
        <ele>1082</ele>
        <time>2012-07-14T13:52:52Z</time>
      </trkpt>
      <trkpt lat="46.11939" lon="6.44926">
        <ele>1087</ele>
        <time>2012-07-14T13:52:54Z</time>
      </trkpt>
      <trkpt lat="46.11924" lon="6.44928">
        <ele>1087</ele>
        <time>2012-07-14T13:52:56Z</time>
      </trkpt>
      <trkpt lat="46.1191" lon="6.44929">
        <ele>1087</ele>
        <time>2012-07-14T13:52:58Z</time>
      </trkpt>
      <trkpt lat="46.11892" lon="6.44928">
        <ele>1094</ele>
        <time>2012-07-14T13:53:00Z</time>
      </trkpt>
      <trkpt lat="46.11882" lon="6.44928">
        <ele>1094</ele>
        <time>2012-07-14T13:53:01Z</time>
      </trkpt>
      <trkpt lat="46.11866" lon="6.44925">
        <ele>1094</ele>
        <time>2012-07-14T13:53:03Z</time>
      </trkpt>
      <trkpt lat="46.11849" lon="6.44925">
        <ele>1094</ele>
        <time>2012-07-14T13:53:05Z</time>
      </trkpt>
      <trkpt lat="46.11833" lon="6.44929">
        <ele>1100</ele>
        <time>2012-07-14T13:53:07Z</time>
      </trkpt>
      <trkpt lat="46.11822" lon="6.44931">
        <ele>1100</ele>
        <time>2012-07-14T13:53:09Z</time>
      </trkpt>
      <trkpt lat="46.11817" lon="6.44919">
        <ele>1100</ele>
        <time>2012-07-14T13:53:13Z</time>
      </trkpt>
      <trkpt lat="46.11824" lon="6.44903">
        <ele>1100</ele>
        <time>2012-07-14T13:53:15Z</time>
      </trkpt>
      <trkpt lat="46.11832" lon="6.44884">
        <ele>1100</ele>
        <time>2012-07-14T13:53:17Z</time>
      </trkpt>
      <trkpt lat="46.11839" lon="6.44863">
        <ele>1100</ele>
        <time>2012-07-14T13:53:19Z</time>
      </trkpt>
      <trkpt lat="46.11846" lon="6.44854">
        <ele>1105</ele>
        <time>2012-07-14T13:53:20Z</time>
      </trkpt>
      <trkpt lat="46.11854" lon="6.44848">
        <ele>1105</ele>
        <time>2012-07-14T13:53:21Z</time>
      </trkpt>
      <trkpt lat="46.11856" lon="6.44833">
        <ele>1105</ele>
        <time>2012-07-14T13:53:22Z</time>
      </trkpt>
      <trkpt lat="46.11856" lon="6.44817">
        <ele>1105</ele>
        <time>2012-07-14T13:53:23Z</time>
      </trkpt>
      <trkpt lat="46.11855" lon="6.44802">
        <ele>1105</ele>
        <time>2012-07-14T13:53:24Z</time>
      </trkpt>
      <trkpt lat="46.11857" lon="6.44779">
        <ele>1105</ele>
        <time>2012-07-14T13:53:26Z</time>
      </trkpt>
      <trkpt lat="46.11863" lon="6.4476">
        <ele>1112</ele>
        <time>2012-07-14T13:53:28Z</time>
      </trkpt>
      <trkpt lat="46.11871" lon="6.4474">
        <ele>1112</ele>
        <time>2012-07-14T13:53:30Z</time>
      </trkpt>
      <trkpt lat="46.11882" lon="6.44716">
        <ele>1112</ele>
        <time>2012-07-14T13:53:32Z</time>
      </trkpt>
      <trkpt lat="46.11889" lon="6.44704">
        <ele>1117</ele>
        <time>2012-07-14T13:53:33Z</time>
      </trkpt>
      <trkpt lat="46.11894" lon="6.4469">
        <ele>1117</ele>
        <time>2012-07-14T13:53:34Z</time>
      </trkpt>
      <trkpt lat="46.11897" lon="6.44678">
        <ele>1117</ele>
        <time>2012-07-14T13:53:35Z</time>
      </trkpt>
      <trkpt lat="46.11901" lon="6.44665">
        <ele>1117</ele>
        <time>2012-07-14T13:53:36Z</time>
      </trkpt>
      <trkpt lat="46.11905" lon="6.44653">
        <ele>1117</ele>
        <time>2012-07-14T13:53:37Z</time>
      </trkpt>
      <trkpt lat="46.1191" lon="6.4464">
        <ele>1117</ele>
        <time>2012-07-14T13:53:38Z</time>
      </trkpt>
      <trkpt lat="46.11914" lon="6.44628">
        <ele>1123</ele>
        <time>2012-07-14T13:53:39Z</time>
      </trkpt>
      <trkpt lat="46.11922" lon="6.44603">
        <ele>1123</ele>
        <time>2012-07-14T13:53:41Z</time>
      </trkpt>
      <trkpt lat="46.11929" lon="6.44582">
        <ele>1123</ele>
        <time>2012-07-14T13:53:43Z</time>
      </trkpt>
      <trkpt lat="46.1194" lon="6.44566">
        <ele>1129</ele>
        <time>2012-07-14T13:53:45Z</time>
      </trkpt>
      <trkpt lat="46.11952" lon="6.4455">
        <ele>1129</ele>
        <time>2012-07-14T13:53:47Z</time>
      </trkpt>
      <trkpt lat="46.11962" lon="6.44536">
        <ele>1129</ele>
        <time>2012-07-14T13:53:49Z</time>
      </trkpt>
      <trkpt lat="46.11971" lon="6.44522">
        <ele>1129</ele>
        <time>2012-07-14T13:53:51Z</time>
      </trkpt>
      <trkpt lat="46.11968" lon="6.44508">
        <ele>1136</ele>
        <time>2012-07-14T13:54:12Z</time>
      </trkpt>
      <trkpt lat="46.1196" lon="6.44498">
        <ele>1125</ele>
        <time>2012-07-14T13:54:20Z</time>
      </trkpt>
      <trkpt lat="46.11951" lon="6.44492">
        <ele>1108</ele>
        <time>2012-07-14T13:54:50Z</time>
      </trkpt>
      <trkpt lat="46.11959" lon="6.44501">
        <ele>1114</ele>
        <time>2012-07-14T13:55:11Z</time>
      </trkpt>
      <trkpt lat="46.11967" lon="6.44507">
        <ele>1124</ele>
        <time>2012-07-14T13:55:18Z</time>
      </trkpt>
      <trkpt lat="46.11959" lon="6.44511">
        <ele>1138</ele>
        <time>2012-07-14T13:56:11Z</time>
      </trkpt>
      <trkpt lat="46.11951" lon="6.44523">
        <ele>1138</ele>
        <time>2012-07-14T13:56:13Z</time>
      </trkpt>
      <trkpt lat="46.1194" lon="6.44535">
        <ele>1138</ele>
        <time>2012-07-14T13:56:15Z</time>
      </trkpt>
      <trkpt lat="46.11927" lon="6.44546">
        <ele>1138</ele>
        <time>2012-07-14T13:56:17Z</time>
      </trkpt>
      <trkpt lat="46.11914" lon="6.44558">
        <ele>1138</ele>
        <time>2012-07-14T13:56:19Z</time>
      </trkpt>
      <trkpt lat="46.11907" lon="6.44567">
        <ele>1138</ele>
        <time>2012-07-14T13:56:20Z</time>
      </trkpt>
      <trkpt lat="46.11901" lon="6.44579">
        <ele>1144</ele>
        <time>2012-07-14T13:56:21Z</time>
      </trkpt>
      <trkpt lat="46.11895" lon="6.44592">
        <ele>1144</ele>
        <time>2012-07-14T13:56:22Z</time>
      </trkpt>
      <trkpt lat="46.11889" lon="6.44605">
        <ele>1144</ele>
        <time>2012-07-14T13:56:23Z</time>
      </trkpt>
      <trkpt lat="46.11882" lon="6.44618">
        <ele>1144</ele>
        <time>2012-07-14T13:56:24Z</time>
      </trkpt>
      <trkpt lat="46.11874" lon="6.4463">
        <ele>1150</ele>
        <time>2012-07-14T13:56:25Z</time>
      </trkpt>
      <trkpt lat="46.11866" lon="6.44642">
        <ele>1150</ele>
        <time>2012-07-14T13:56:26Z</time>
      </trkpt>
      <trkpt lat="46.11851" lon="6.44666">
        <ele>1150</ele>
        <time>2012-07-14T13:56:28Z</time>
      </trkpt>
      <trkpt lat="46.11844" lon="6.44677">
        <ele>1157</ele>
        <time>2012-07-14T13:56:29Z</time>
      </trkpt>
      <trkpt lat="46.11836" lon="6.44685">
        <ele>1157</ele>
        <time>2012-07-14T13:56:30Z</time>
      </trkpt>
      <trkpt lat="46.11828" lon="6.44692">
        <ele>1157</ele>
        <time>2012-07-14T13:56:31Z</time>
      </trkpt>
      <trkpt lat="46.11813" lon="6.44707">
        <ele>1157</ele>
        <time>2012-07-14T13:56:33Z</time>
      </trkpt>
      <trkpt lat="46.11803" lon="6.44728">
        <ele>1165</ele>
        <time>2012-07-14T13:56:35Z</time>
      </trkpt>
      <trkpt lat="46.11796" lon="6.44746">
        <ele>1165</ele>
        <time>2012-07-14T13:56:37Z</time>
      </trkpt>
      <trkpt lat="46.11783" lon="6.44764">
        <ele>1165</ele>
        <time>2012-07-14T13:56:39Z</time>
      </trkpt>
      <trkpt lat="46.11776" lon="6.44775">
        <ele>1165</ele>
        <time>2012-07-14T13:56:40Z</time>
      </trkpt>
      <trkpt lat="46.11767" lon="6.44786">
        <ele>1170</ele>
        <time>2012-07-14T13:56:41Z</time>
      </trkpt>
      <trkpt lat="46.11758" lon="6.44797">
        <ele>1170</ele>
        <time>2012-07-14T13:56:42Z</time>
      </trkpt>
      <trkpt lat="46.11748" lon="6.44808">
        <ele>1170</ele>
        <time>2012-07-14T13:56:43Z</time>
      </trkpt>
      <trkpt lat="46.11739" lon="6.44819">
        <ele>1170</ele>
        <time>2012-07-14T13:56:44Z</time>
      </trkpt>
      <trkpt lat="46.11731" lon="6.44828">
        <ele>1170</ele>
        <time>2012-07-14T13:56:45Z</time>
      </trkpt>
      <trkpt lat="46.11723" lon="6.44835">
        <ele>1170</ele>
        <time>2012-07-14T13:56:46Z</time>
      </trkpt>
      <trkpt lat="46.11713" lon="6.44844">
        <ele>1170</ele>
        <time>2012-07-14T13:56:47Z</time>
      </trkpt>
      <trkpt lat="46.11704" lon="6.44853">
        <ele>1170</ele>
        <time>2012-07-14T13:56:48Z</time>
      </trkpt>
      <trkpt lat="46.11694" lon="6.44864">
        <ele>1177</ele>
        <time>2012-07-14T13:56:49Z</time>
      </trkpt>
      <trkpt lat="46.11686" lon="6.44875">
        <ele>1177</ele>
        <time>2012-07-14T13:56:50Z</time>
      </trkpt>
      <trkpt lat="46.11677" lon="6.44886">
        <ele>1177</ele>
        <time>2012-07-14T13:56:51Z</time>
      </trkpt>
      <trkpt lat="46.11667" lon="6.44896">
        <ele>1177</ele>
        <time>2012-07-14T13:56:52Z</time>
      </trkpt>
      <trkpt lat="46.11658" lon="6.44904">
        <ele>1177</ele>
        <time>2012-07-14T13:56:53Z</time>
      </trkpt>
      <trkpt lat="46.11649" lon="6.44912">
        <ele>1177</ele>
        <time>2012-07-14T13:56:54Z</time>
      </trkpt>
      <trkpt lat="46.11639" lon="6.44918">
        <ele>1177</ele>
        <time>2012-07-14T13:56:55Z</time>
      </trkpt>
      <trkpt lat="46.11631" lon="6.44924">
        <ele>1182</ele>
        <time>2012-07-14T13:56:56Z</time>
      </trkpt>
      <trkpt lat="46.11621" lon="6.44929">
        <ele>1182</ele>
        <time>2012-07-14T13:56:57Z</time>
      </trkpt>
      <trkpt lat="46.11612" lon="6.44935">
        <ele>1182</ele>
        <time>2012-07-14T13:56:58Z</time>
      </trkpt>
      <trkpt lat="46.11598" lon="6.44947">
        <ele>1182</ele>
        <time>2012-07-14T13:57:00Z</time>
      </trkpt>
      <trkpt lat="46.11588" lon="6.44957">
        <ele>1182</ele>
        <time>2012-07-14T13:57:02Z</time>
      </trkpt>
      <trkpt lat="46.11593" lon="6.4498">
        <ele>1193</ele>
        <time>2012-07-14T13:57:05Z</time>
      </trkpt>
      <trkpt lat="46.11601" lon="6.44989">
        <ele>1193</ele>
        <time>2012-07-14T13:57:06Z</time>
      </trkpt>
      <trkpt lat="46.11619" lon="6.4501">
        <ele>1200</ele>
        <time>2012-07-14T13:57:08Z</time>
      </trkpt>
      <trkpt lat="46.11629" lon="6.4502">
        <ele>1200</ele>
        <time>2012-07-14T13:57:09Z</time>
      </trkpt>
      <trkpt lat="46.11641" lon="6.45027">
        <ele>1200</ele>
        <time>2012-07-14T13:57:10Z</time>
      </trkpt>
      <trkpt lat="46.11658" lon="6.45037">
        <ele>1200</ele>
        <time>2012-07-14T13:57:12Z</time>
      </trkpt>
      <trkpt lat="46.11672" lon="6.45046">
        <ele>1207</ele>
        <time>2012-07-14T13:57:14Z</time>
      </trkpt>
      <trkpt lat="46.11679" lon="6.45056">
        <ele>1207</ele>
        <time>2012-07-14T13:57:16Z</time>
      </trkpt>
      <trkpt lat="46.11666" lon="6.45053">
        <ele>1207</ele>
        <time>2012-07-14T13:57:19Z</time>
      </trkpt>
      <trkpt lat="46.11651" lon="6.4505">
        <ele>1207</ele>
        <time>2012-07-14T13:57:21Z</time>
      </trkpt>
      <trkpt lat="46.11638" lon="6.45051">
        <ele>1213</ele>
        <time>2012-07-14T13:57:23Z</time>
      </trkpt>
      <trkpt lat="46.11624" lon="6.45051">
        <ele>1213</ele>
        <time>2012-07-14T13:57:25Z</time>
      </trkpt>
      <trkpt lat="46.11611" lon="6.45048">
        <ele>1213</ele>
        <time>2012-07-14T13:57:27Z</time>
      </trkpt>
      <trkpt lat="46.11596" lon="6.45045">
        <ele>1213</ele>
        <time>2012-07-14T13:57:29Z</time>
      </trkpt>
      <trkpt lat="46.11584" lon="6.45043">
        <ele>1219</ele>
        <time>2012-07-14T13:57:31Z</time>
      </trkpt>
      <trkpt lat="46.11574" lon="6.45049">
        <ele>1219</ele>
        <time>2012-07-14T13:57:33Z</time>
      </trkpt>
      <trkpt lat="46.11564" lon="6.45048">
        <ele>1225</ele>
        <time>2012-07-14T13:57:34Z</time>
      </trkpt>
      <trkpt lat="46.11549" lon="6.45044">
        <ele>1225</ele>
        <time>2012-07-14T13:57:36Z</time>
      </trkpt>
      <trkpt lat="46.11539" lon="6.45033">
        <ele>1225</ele>
        <time>2012-07-14T13:57:38Z</time>
      </trkpt>
      <trkpt lat="46.11533" lon="6.45015">
        <ele>1232</ele>
        <time>2012-07-14T13:57:40Z</time>
      </trkpt>
      <trkpt lat="46.11524" lon="6.44995">
        <ele>1237</ele>
        <time>2012-07-14T13:57:42Z</time>
      </trkpt>
      <trkpt lat="46.11516" lon="6.44977">
        <ele>1237</ele>
        <time>2012-07-14T13:57:44Z</time>
      </trkpt>
      <trkpt lat="46.11511" lon="6.44958">
        <ele>1245</ele>
        <time>2012-07-14T13:57:46Z</time>
      </trkpt>
      <trkpt lat="46.11506" lon="6.4494">
        <ele>1245</ele>
        <time>2012-07-14T13:57:48Z</time>
      </trkpt>
      <trkpt lat="46.11509" lon="6.44923">
        <ele>1256</ele>
        <time>2012-07-14T13:57:50Z</time>
      </trkpt>
      <trkpt lat="46.11518" lon="6.44905">
        <ele>1262</ele>
        <time>2012-07-14T13:57:52Z</time>
      </trkpt>
      <trkpt lat="46.11527" lon="6.44887">
        <ele>1268</ele>
        <time>2012-07-14T13:57:54Z</time>
      </trkpt>
      <trkpt lat="46.11532" lon="6.44867">
        <ele>1268</ele>
        <time>2012-07-14T13:57:56Z</time>
      </trkpt>
      <trkpt lat="46.11537" lon="6.44849">
        <ele>1276</ele>
        <time>2012-07-14T13:57:58Z</time>
      </trkpt>
      <trkpt lat="46.11539" lon="6.44827">
        <ele>1276</ele>
        <time>2012-07-14T13:58:00Z</time>
      </trkpt>
      <trkpt lat="46.11543" lon="6.44804">
        <ele>1283</ele>
        <time>2012-07-14T13:58:02Z</time>
      </trkpt>
      <trkpt lat="46.11546" lon="6.44783">
        <ele>1283</ele>
        <time>2012-07-14T13:58:04Z</time>
      </trkpt>
      <trkpt lat="46.11549" lon="6.4476">
        <ele>1292</ele>
        <time>2012-07-14T13:58:06Z</time>
      </trkpt>
      <trkpt lat="46.11551" lon="6.44748">
        <ele>1292</ele>
        <time>2012-07-14T13:58:07Z</time>
      </trkpt>
      <trkpt lat="46.11554" lon="6.44725">
        <ele>1297</ele>
        <time>2012-07-14T13:58:09Z</time>
      </trkpt>
      <trkpt lat="46.11556" lon="6.44707">
        <ele>1297</ele>
        <time>2012-07-14T13:58:11Z</time>
      </trkpt>
      <trkpt lat="46.11561" lon="6.44695">
        <ele>1302</ele>
        <time>2012-07-14T13:58:13Z</time>
      </trkpt>
      <trkpt lat="46.11568" lon="6.44685">
        <ele>1302</ele>
        <time>2012-07-14T13:58:15Z</time>
      </trkpt>
      <trkpt lat="46.11574" lon="6.44674">
        <ele>1302</ele>
        <time>2012-07-14T13:58:17Z</time>
      </trkpt>
      <trkpt lat="46.11579" lon="6.44663">
        <ele>1302</ele>
        <time>2012-07-14T13:58:19Z</time>
      </trkpt>
      <trkpt lat="46.11586" lon="6.44653">
        <ele>1314</ele>
        <time>2012-07-14T13:58:35Z</time>
      </trkpt>
      <trkpt lat="46.11593" lon="6.44637">
        <ele>1314</ele>
        <time>2012-07-14T13:58:37Z</time>
      </trkpt>
      <trkpt lat="46.11601" lon="6.44616">
        <ele>1314</ele>
        <time>2012-07-14T13:58:39Z</time>
      </trkpt>
      <trkpt lat="46.11605" lon="6.44604">
        <ele>1314</ele>
        <time>2012-07-14T13:58:40Z</time>
      </trkpt>
      <trkpt lat="46.1161" lon="6.44592">
        <ele>1314</ele>
        <time>2012-07-14T13:58:41Z</time>
      </trkpt>
      <trkpt lat="46.11615" lon="6.4458">
        <ele>1314</ele>
        <time>2012-07-14T13:58:42Z</time>
      </trkpt>
      <trkpt lat="46.1162" lon="6.44567">
        <ele>1314</ele>
        <time>2012-07-14T13:58:43Z</time>
      </trkpt>
      <trkpt lat="46.11628" lon="6.44546">
        <ele>1320</ele>
        <time>2012-07-14T13:58:45Z</time>
      </trkpt>
      <trkpt lat="46.11633" lon="6.44527">
        <ele>1320</ele>
        <time>2012-07-14T13:58:47Z</time>
      </trkpt>
      <trkpt lat="46.11639" lon="6.44507">
        <ele>1320</ele>
        <time>2012-07-14T13:58:49Z</time>
      </trkpt>
      <trkpt lat="46.11646" lon="6.44487">
        <ele>1328</ele>
        <time>2012-07-14T13:58:51Z</time>
      </trkpt>
      <trkpt lat="46.11652" lon="6.44469">
        <ele>1328</ele>
        <time>2012-07-14T13:58:53Z</time>
      </trkpt>
      <trkpt lat="46.11663" lon="6.44453">
        <ele>1335</ele>
        <time>2012-07-14T13:58:55Z</time>
      </trkpt>
      <trkpt lat="46.11673" lon="6.44436">
        <ele>1335</ele>
        <time>2012-07-14T13:58:57Z</time>
      </trkpt>
      <trkpt lat="46.11686" lon="6.44424">
        <ele>1346</ele>
        <time>2012-07-14T13:58:59Z</time>
      </trkpt>
      <trkpt lat="46.11694" lon="6.4441">
        <ele>1352</ele>
        <time>2012-07-14T13:59:01Z</time>
      </trkpt>
      <trkpt lat="46.11699" lon="6.44394">
        <ele>1352</ele>
        <time>2012-07-14T13:59:03Z</time>
      </trkpt>
      <trkpt lat="46.11703" lon="6.44375">
        <ele>1362</ele>
        <time>2012-07-14T13:59:05Z</time>
      </trkpt>
      <trkpt lat="46.11704" lon="6.44356">
        <ele>1362</ele>
        <time>2012-07-14T13:59:07Z</time>
      </trkpt>
      <trkpt lat="46.11708" lon="6.44341">
        <ele>1373</ele>
        <time>2012-07-14T13:59:10Z</time>
      </trkpt>
      <trkpt lat="46.11715" lon="6.44328">
        <ele>1378</ele>
        <time>2012-07-14T13:59:14Z</time>
      </trkpt>
      <trkpt lat="46.11721" lon="6.4431">
        <ele>1378</ele>
        <time>2012-07-14T13:59:31Z</time>
      </trkpt>
      <trkpt lat="46.11723" lon="6.44292">
        <ele>1378</ele>
        <time>2012-07-14T13:59:33Z</time>
      </trkpt>
      <trkpt lat="46.11726" lon="6.44278">
        <ele>1378</ele>
        <time>2012-07-14T13:59:36Z</time>
      </trkpt>
      <trkpt lat="46.11724" lon="6.44263">
        <ele>1378</ele>
        <time>2012-07-14T13:59:45Z</time>
      </trkpt>
      <trkpt lat="46.11724" lon="6.44242">
        <ele>1378</ele>
        <time>2012-07-14T13:59:47Z</time>
      </trkpt>
      <trkpt lat="46.11724" lon="6.4422">
        <ele>1378</ele>
        <time>2012-07-14T13:59:49Z</time>
      </trkpt>
      <trkpt lat="46.11722" lon="6.44201">
        <ele>1384</ele>
        <time>2012-07-14T13:59:51Z</time>
      </trkpt>
      <trkpt lat="46.11718" lon="6.44186">
        <ele>1384</ele>
        <time>2012-07-14T13:59:53Z</time>
      </trkpt>
      <trkpt lat="46.11711" lon="6.44172">
        <ele>1390</ele>
        <time>2012-07-14T13:59:56Z</time>
      </trkpt>
      <trkpt lat="46.11699" lon="6.44162">
        <ele>1390</ele>
        <time>2012-07-14T13:59:59Z</time>
      </trkpt>
      <trkpt lat="46.11686" lon="6.44166">
        <ele>1397</ele>
        <time>2012-07-14T14:00:02Z</time>
      </trkpt>
      <trkpt lat="46.11678" lon="6.44169">
        <ele>1397</ele>
        <time>2012-07-14T14:00:04Z</time>
      </trkpt>
      <trkpt lat="46.11669" lon="6.44173">
        <ele>1397</ele>
        <time>2012-07-14T14:00:06Z</time>
      </trkpt>
      <trkpt lat="46.11659" lon="6.44176">
        <ele>1406</ele>
        <time>2012-07-14T14:00:19Z</time>
      </trkpt>
      <trkpt lat="46.11654" lon="6.44157">
        <ele>1406</ele>
        <time>2012-07-14T14:00:22Z</time>
      </trkpt>
      <trkpt lat="46.11651" lon="6.4414">
        <ele>1406</ele>
        <time>2012-07-14T14:00:24Z</time>
      </trkpt>
      <trkpt lat="46.11645" lon="6.4412">
        <ele>1412</ele>
        <time>2012-07-14T14:00:26Z</time>
      </trkpt>
      <trkpt lat="46.1164" lon="6.44106">
        <ele>1412</ele>
        <time>2012-07-14T14:00:28Z</time>
      </trkpt>
      <trkpt lat="46.11631" lon="6.4411">
        <ele>1417</ele>
        <time>2012-07-14T14:00:33Z</time>
      </trkpt>
      <trkpt lat="46.11626" lon="6.4413">
        <ele>1417</ele>
        <time>2012-07-14T14:00:36Z</time>
      </trkpt>
      <trkpt lat="46.11622" lon="6.4415">
        <ele>1417</ele>
        <time>2012-07-14T14:00:38Z</time>
      </trkpt>
      <trkpt lat="46.11618" lon="6.44172">
        <ele>1423</ele>
        <time>2012-07-14T14:00:40Z</time>
      </trkpt>
      <trkpt lat="46.11615" lon="6.44185">
        <ele>1423</ele>
        <time>2012-07-14T14:00:41Z</time>
      </trkpt>
      <trkpt lat="46.11611" lon="6.44207">
        <ele>1423</ele>
        <time>2012-07-14T14:00:43Z</time>
      </trkpt>
      <trkpt lat="46.11605" lon="6.44228">
        <ele>1429</ele>
        <time>2012-07-14T14:00:45Z</time>
      </trkpt>
      <trkpt lat="46.11598" lon="6.44246">
        <ele>1429</ele>
        <time>2012-07-14T14:00:47Z</time>
      </trkpt>
      <trkpt lat="46.11593" lon="6.44264">
        <ele>1435</ele>
        <time>2012-07-14T14:00:49Z</time>
      </trkpt>
      <trkpt lat="46.11587" lon="6.44281">
        <ele>1435</ele>
        <time>2012-07-14T14:00:51Z</time>
      </trkpt>
      <trkpt lat="46.1158" lon="6.44299">
        <ele>1441</ele>
        <time>2012-07-14T14:00:53Z</time>
      </trkpt>
      <trkpt lat="46.11573" lon="6.44314">
        <ele>1441</ele>
        <time>2012-07-14T14:00:55Z</time>
      </trkpt>
      <trkpt lat="46.11564" lon="6.44328">
        <ele>1441</ele>
        <time>2012-07-14T14:00:57Z</time>
      </trkpt>
      <trkpt lat="46.11555" lon="6.4434">
        <ele>1449</ele>
        <time>2012-07-14T14:00:59Z</time>
      </trkpt>
      <trkpt lat="46.11554" lon="6.44327">
        <ele>1455</ele>
        <time>2012-07-14T14:01:07Z</time>
      </trkpt>
      <trkpt lat="46.11554" lon="6.4431">
        <ele>1455</ele>
        <time>2012-07-14T14:01:23Z</time>
      </trkpt>
      <trkpt lat="46.11551" lon="6.44293">
        <ele>1455</ele>
        <time>2012-07-14T14:01:25Z</time>
      </trkpt>
      <trkpt lat="46.11547" lon="6.44273">
        <ele>1455</ele>
        <time>2012-07-14T14:01:27Z</time>
      </trkpt>
      <trkpt lat="46.11544" lon="6.44251">
        <ele>1455</ele>
        <time>2012-07-14T14:01:29Z</time>
      </trkpt>
      <trkpt lat="46.11539" lon="6.44228">
        <ele>1455</ele>
        <time>2012-07-14T14:01:31Z</time>
      </trkpt>
      <trkpt lat="46.11536" lon="6.44205">
        <ele>1455</ele>
        <time>2012-07-14T14:01:33Z</time>
      </trkpt>
      <trkpt lat="46.11533" lon="6.44183">
        <ele>1455</ele>
        <time>2012-07-14T14:01:35Z</time>
      </trkpt>
      <trkpt lat="46.11533" lon="6.44164">
        <ele>1455</ele>
        <time>2012-07-14T14:01:37Z</time>
      </trkpt>
      <trkpt lat="46.11534" lon="6.44149">
        <ele>1455</ele>
        <time>2012-07-14T14:01:39Z</time>
      </trkpt>
      <trkpt lat="46.11532" lon="6.44132">
        <ele>1455</ele>
        <time>2012-07-14T14:01:42Z</time>
      </trkpt>
      <trkpt lat="46.11528" lon="6.44118">
        <ele>1455</ele>
        <time>2012-07-14T14:01:44Z</time>
      </trkpt>
      <trkpt lat="46.11521" lon="6.44098">
        <ele>1455</ele>
        <time>2012-07-14T14:01:46Z</time>
      </trkpt>
      <trkpt lat="46.11516" lon="6.44076">
        <ele>1455</ele>
        <time>2012-07-14T14:01:48Z</time>
      </trkpt>
      <trkpt lat="46.11511" lon="6.44053">
        <ele>1461</ele>
        <time>2012-07-14T14:01:50Z</time>
      </trkpt>
      <trkpt lat="46.11507" lon="6.44036">
        <ele>1461</ele>
        <time>2012-07-14T14:01:52Z</time>
      </trkpt>
      <trkpt lat="46.11504" lon="6.44018">
        <ele>1461</ele>
        <time>2012-07-14T14:01:54Z</time>
      </trkpt>
      <trkpt lat="46.11499" lon="6.44002">
        <ele>1461</ele>
        <time>2012-07-14T14:01:57Z</time>
      </trkpt>
      <trkpt lat="46.1149" lon="6.43994">
        <ele>1467</ele>
        <time>2012-07-14T14:02:00Z</time>
      </trkpt>
      <trkpt lat="46.11483" lon="6.4401">
        <ele>1467</ele>
        <time>2012-07-14T14:02:04Z</time>
      </trkpt>
      <trkpt lat="46.11481" lon="6.44028">
        <ele>1475</ele>
        <time>2012-07-14T14:02:06Z</time>
      </trkpt>
      <trkpt lat="46.11478" lon="6.44051">
        <ele>1475</ele>
        <time>2012-07-14T14:02:08Z</time>
      </trkpt>
      <trkpt lat="46.11473" lon="6.44076">
        <ele>1481</ele>
        <time>2012-07-14T14:02:10Z</time>
      </trkpt>
      <trkpt lat="46.11468" lon="6.44097">
        <ele>1481</ele>
        <time>2012-07-14T14:02:12Z</time>
      </trkpt>
      <trkpt lat="46.11468" lon="6.44116">
        <ele>1489</ele>
        <time>2012-07-14T14:02:14Z</time>
      </trkpt>
      <trkpt lat="46.11469" lon="6.44131">
        <ele>1489</ele>
        <time>2012-07-14T14:02:17Z</time>
      </trkpt>
      <trkpt lat="46.11471" lon="6.44149">
        <ele>1498</ele>
        <time>2012-07-14T14:02:23Z</time>
      </trkpt>
      <trkpt lat="46.11468" lon="6.4417">
        <ele>1498</ele>
        <time>2012-07-14T14:02:25Z</time>
      </trkpt>
      <trkpt lat="46.11465" lon="6.44195">
        <ele>1503</ele>
        <time>2012-07-14T14:02:27Z</time>
      </trkpt>
      <trkpt lat="46.11463" lon="6.44208">
        <ele>1503</ele>
        <time>2012-07-14T14:02:28Z</time>
      </trkpt>
      <trkpt lat="46.11458" lon="6.4423">
        <ele>1503</ele>
        <time>2012-07-14T14:02:30Z</time>
      </trkpt>
      <trkpt lat="46.11449" lon="6.44248">
        <ele>1511</ele>
        <time>2012-07-14T14:02:32Z</time>
      </trkpt>
      <trkpt lat="46.11436" lon="6.44264">
        <ele>1511</ele>
        <time>2012-07-14T14:02:34Z</time>
      </trkpt>
      <trkpt lat="46.11425" lon="6.4428">
        <ele>1511</ele>
        <time>2012-07-14T14:02:36Z</time>
      </trkpt>
      <trkpt lat="46.1142" lon="6.44301">
        <ele>1517</ele>
        <time>2012-07-14T14:02:38Z</time>
      </trkpt>
      <trkpt lat="46.11418" lon="6.44321">
        <ele>1517</ele>
        <time>2012-07-14T14:02:40Z</time>
      </trkpt>
      <trkpt lat="46.11407" lon="6.44338">
        <ele>1517</ele>
        <time>2012-07-14T14:02:42Z</time>
      </trkpt>
      <trkpt lat="46.11396" lon="6.44357">
        <ele>1524</ele>
        <time>2012-07-14T14:02:44Z</time>
      </trkpt>
      <trkpt lat="46.11384" lon="6.44374">
        <ele>1524</ele>
        <time>2012-07-14T14:02:46Z</time>
      </trkpt>
      <trkpt lat="46.11368" lon="6.44389">
        <ele>1524</ele>
        <time>2012-07-14T14:02:48Z</time>
      </trkpt>
      <trkpt lat="46.1136" lon="6.44397">
        <ele>1524</ele>
        <time>2012-07-14T14:02:49Z</time>
      </trkpt>
      <trkpt lat="46.11352" lon="6.44403">
        <ele>1524</ele>
        <time>2012-07-14T14:02:50Z</time>
      </trkpt>
      <trkpt lat="46.11343" lon="6.44409">
        <ele>1530</ele>
        <time>2012-07-14T14:02:51Z</time>
      </trkpt>
      <trkpt lat="46.11326" lon="6.4442">
        <ele>1530</ele>
        <time>2012-07-14T14:02:53Z</time>
      </trkpt>
      <trkpt lat="46.11313" lon="6.44436">
        <ele>1535</ele>
        <time>2012-07-14T14:02:55Z</time>
      </trkpt>
      <trkpt lat="46.11298" lon="6.44451">
        <ele>1535</ele>
        <time>2012-07-14T14:02:57Z</time>
      </trkpt>
      <trkpt lat="46.11283" lon="6.44468">
        <ele>1535</ele>
        <time>2012-07-14T14:02:59Z</time>
      </trkpt>
      <trkpt lat="46.11271" lon="6.44487">
        <ele>1543</ele>
        <time>2012-07-14T14:03:01Z</time>
      </trkpt>
      <trkpt lat="46.11263" lon="6.44494">
        <ele>1543</ele>
        <time>2012-07-14T14:03:02Z</time>
      </trkpt>
      <trkpt lat="46.1125" lon="6.44508">
        <ele>1543</ele>
        <time>2012-07-14T14:03:04Z</time>
      </trkpt>
      <trkpt lat="46.11235" lon="6.44519">
        <ele>1543</ele>
        <time>2012-07-14T14:03:06Z</time>
      </trkpt>
      <trkpt lat="46.1122" lon="6.44526">
        <ele>1543</ele>
        <time>2012-07-14T14:03:08Z</time>
      </trkpt>
      <trkpt lat="46.11205" lon="6.44532">
        <ele>1543</ele>
        <time>2012-07-14T14:03:10Z</time>
      </trkpt>
      <trkpt lat="46.1119" lon="6.44536">
        <ele>1543</ele>
        <time>2012-07-14T14:03:12Z</time>
      </trkpt>
      <trkpt lat="46.11175" lon="6.44539">
        <ele>1543</ele>
        <time>2012-07-14T14:03:14Z</time>
      </trkpt>
      <trkpt lat="46.11157" lon="6.44543">
        <ele>1549</ele>
        <time>2012-07-14T14:03:16Z</time>
      </trkpt>
      <trkpt lat="46.11142" lon="6.44548">
        <ele>1549</ele>
        <time>2012-07-14T14:03:18Z</time>
      </trkpt>
      <trkpt lat="46.11127" lon="6.4455">
        <ele>1549</ele>
        <time>2012-07-14T14:03:20Z</time>
      </trkpt>
      <trkpt lat="46.11111" lon="6.44552">
        <ele>1554</ele>
        <time>2012-07-14T14:03:22Z</time>
      </trkpt>
      <trkpt lat="46.11095" lon="6.44555">
        <ele>1554</ele>
        <time>2012-07-14T14:03:24Z</time>
      </trkpt>
      <trkpt lat="46.1108" lon="6.44557">
        <ele>1554</ele>
        <time>2012-07-14T14:03:26Z</time>
      </trkpt>
      <trkpt lat="46.11067" lon="6.44559">
        <ele>1561</ele>
        <time>2012-07-14T14:03:28Z</time>
      </trkpt>
      <trkpt lat="46.11055" lon="6.44557">
        <ele>1561</ele>
        <time>2012-07-14T14:03:30Z</time>
      </trkpt>
      <trkpt lat="46.11043" lon="6.4455">
        <ele>1561</ele>
        <time>2012-07-14T14:03:32Z</time>
      </trkpt>
      <trkpt lat="46.11035" lon="6.44544">
        <ele>1561</ele>
        <time>2012-07-14T14:03:34Z</time>
      </trkpt>
      <trkpt lat="46.11028" lon="6.44533">
        <ele>1561</ele>
        <time>2012-07-14T14:03:37Z</time>
      </trkpt>
      <trkpt lat="46.11018" lon="6.44526">
        <ele>1561</ele>
        <time>2012-07-14T14:03:41Z</time>
      </trkpt>
      <trkpt lat="46.11008" lon="6.44522">
        <ele>1561</ele>
        <time>2012-07-14T14:03:45Z</time>
      </trkpt>
      <trkpt lat="46.10999" lon="6.44515">
        <ele>1561</ele>
        <time>2012-07-14T14:03:48Z</time>
      </trkpt>
      <trkpt lat="46.10997" lon="6.44503">
        <ele>1561</ele>
        <time>2012-07-14T14:03:58Z</time>
      </trkpt>
      <trkpt lat="46.11002" lon="6.44485">
        <ele>1554</ele>
        <time>2012-07-14T14:04:01Z</time>
      </trkpt>
      <trkpt lat="46.1101" lon="6.44471">
        <ele>1554</ele>
        <time>2012-07-14T14:04:03Z</time>
      </trkpt>
      <trkpt lat="46.1102" lon="6.44456">
        <ele>1554</ele>
        <time>2012-07-14T14:04:05Z</time>
      </trkpt>
      <trkpt lat="46.11033" lon="6.44438">
        <ele>1554</ele>
        <time>2012-07-14T14:04:07Z</time>
      </trkpt>
      <trkpt lat="46.11042" lon="6.44428">
        <ele>1554</ele>
        <time>2012-07-14T14:04:08Z</time>
      </trkpt>
      <trkpt lat="46.1105" lon="6.44417">
        <ele>1560</ele>
        <time>2012-07-14T14:04:09Z</time>
      </trkpt>
      <trkpt lat="46.1106" lon="6.44406">
        <ele>1560</ele>
        <time>2012-07-14T14:04:10Z</time>
      </trkpt>
      <trkpt lat="46.11072" lon="6.44395">
        <ele>1566</ele>
        <time>2012-07-14T14:04:11Z</time>
      </trkpt>
      <trkpt lat="46.11083" lon="6.44383">
        <ele>1566</ele>
        <time>2012-07-14T14:04:12Z</time>
      </trkpt>
      <trkpt lat="46.11094" lon="6.4437">
        <ele>1571</ele>
        <time>2012-07-14T14:04:13Z</time>
      </trkpt>
      <trkpt lat="46.11105" lon="6.44358">
        <ele>1571</ele>
        <time>2012-07-14T14:04:14Z</time>
      </trkpt>
      <trkpt lat="46.1112" lon="6.44352">
        <ele>1585</ele>
        <time>2012-07-14T14:04:15Z</time>
      </trkpt>
      <trkpt lat="46.11133" lon="6.44345">
        <ele>1594</ele>
        <time>2012-07-14T14:04:16Z</time>
      </trkpt>
      <trkpt lat="46.11144" lon="6.44335">
        <ele>1594</ele>
        <time>2012-07-14T14:04:17Z</time>
      </trkpt>
      <trkpt lat="46.11154" lon="6.44325">
        <ele>1603</ele>
        <time>2012-07-14T14:04:18Z</time>
      </trkpt>
      <trkpt lat="46.11164" lon="6.44316">
        <ele>1603</ele>
        <time>2012-07-14T14:04:19Z</time>
      </trkpt>
      <trkpt lat="46.11173" lon="6.44308">
        <ele>1612</ele>
        <time>2012-07-14T14:04:20Z</time>
      </trkpt>
      <trkpt lat="46.11181" lon="6.44301">
        <ele>1612</ele>
        <time>2012-07-14T14:04:21Z</time>
      </trkpt>
      <trkpt lat="46.11193" lon="6.44292">
        <ele>1621</ele>
        <time>2012-07-14T14:04:23Z</time>
      </trkpt>
      <trkpt lat="46.11202" lon="6.44285">
        <ele>1621</ele>
        <time>2012-07-14T14:04:26Z</time>
      </trkpt>
      <trkpt lat="46.11193" lon="6.44289">
        <ele>1628</ele>
        <time>2012-07-14T14:14:35Z</time>
      </trkpt>
      <trkpt lat="46.11187" lon="6.44302">
        <ele>1628</ele>
        <time>2012-07-14T14:14:39Z</time>
      </trkpt>
      <trkpt lat="46.11181" lon="6.44313">
        <ele>1628</ele>
        <time>2012-07-14T14:14:42Z</time>
      </trkpt>
      <trkpt lat="46.11172" lon="6.44324">
        <ele>1628</ele>
        <time>2012-07-14T14:14:46Z</time>
      </trkpt>
      <trkpt lat="46.11164" lon="6.44334">
        <ele>1628</ele>
        <time>2012-07-14T14:14:49Z</time>
      </trkpt>
      <trkpt lat="46.11155" lon="6.44343">
        <ele>1628</ele>
        <time>2012-07-14T14:14:52Z</time>
      </trkpt>
      <trkpt lat="46.11144" lon="6.44354">
        <ele>1620</ele>
        <time>2012-07-14T14:14:55Z</time>
      </trkpt>
      <trkpt lat="46.11133" lon="6.44366">
        <ele>1620</ele>
        <time>2012-07-14T14:14:58Z</time>
      </trkpt>
      <trkpt lat="46.11125" lon="6.44374">
        <ele>1612</ele>
        <time>2012-07-14T14:15:00Z</time>
      </trkpt>
      <trkpt lat="46.11117" lon="6.44381">
        <ele>1612</ele>
        <time>2012-07-14T14:15:02Z</time>
      </trkpt>
      <trkpt lat="46.11107" lon="6.44389">
        <ele>1603</ele>
        <time>2012-07-14T14:15:04Z</time>
      </trkpt>
      <trkpt lat="46.11097" lon="6.44398">
        <ele>1603</ele>
        <time>2012-07-14T14:15:06Z</time>
      </trkpt>
      <trkpt lat="46.11086" lon="6.44407">
        <ele>1594</ele>
        <time>2012-07-14T14:15:08Z</time>
      </trkpt>
      <trkpt lat="46.11075" lon="6.44416">
        <ele>1594</ele>
        <time>2012-07-14T14:15:10Z</time>
      </trkpt>
      <trkpt lat="46.11065" lon="6.44424">
        <ele>1585</ele>
        <time>2012-07-14T14:15:12Z</time>
      </trkpt>
      <trkpt lat="46.11055" lon="6.44432">
        <ele>1585</ele>
        <time>2012-07-14T14:15:14Z</time>
      </trkpt>
      <trkpt lat="46.11045" lon="6.44442">
        <ele>1577</ele>
        <time>2012-07-14T14:15:16Z</time>
      </trkpt>
      <trkpt lat="46.11036" lon="6.44451">
        <ele>1577</ele>
        <time>2012-07-14T14:15:18Z</time>
      </trkpt>
      <trkpt lat="46.11027" lon="6.4446">
        <ele>1569</ele>
        <time>2012-07-14T14:15:20Z</time>
      </trkpt>
      <trkpt lat="46.11017" lon="6.44469">
        <ele>1569</ele>
        <time>2012-07-14T14:15:22Z</time>
      </trkpt>
      <trkpt lat="46.11008" lon="6.44477">
        <ele>1561</ele>
        <time>2012-07-14T14:15:24Z</time>
      </trkpt>
      <trkpt lat="46.11" lon="6.44484">
        <ele>1561</ele>
        <time>2012-07-14T14:15:26Z</time>
      </trkpt>
      <trkpt lat="46.10988" lon="6.44488">
        <ele>1553</ele>
        <time>2012-07-14T14:15:29Z</time>
      </trkpt>
      <trkpt lat="46.10977" lon="6.44488">
        <ele>1553</ele>
        <time>2012-07-14T14:15:32Z</time>
      </trkpt>
      <trkpt lat="46.10966" lon="6.44488">
        <ele>1544</ele>
        <time>2012-07-14T14:15:35Z</time>
      </trkpt>
      <trkpt lat="46.10957" lon="6.4449">
        <ele>1544</ele>
        <time>2012-07-14T14:15:37Z</time>
      </trkpt>
      <trkpt lat="46.10946" lon="6.44493">
        <ele>1539</ele>
        <time>2012-07-14T14:15:39Z</time>
      </trkpt>
      <trkpt lat="46.10935" lon="6.44499">
        <ele>1539</ele>
        <time>2012-07-14T14:15:41Z</time>
      </trkpt>
      <trkpt lat="46.10924" lon="6.44506">
        <ele>1533</ele>
        <time>2012-07-14T14:15:43Z</time>
      </trkpt>
      <trkpt lat="46.10914" lon="6.44513">
        <ele>1533</ele>
        <time>2012-07-14T14:15:45Z</time>
      </trkpt>
      <trkpt lat="46.10904" lon="6.44518">
        <ele>1533</ele>
        <time>2012-07-14T14:15:47Z</time>
      </trkpt>
      <trkpt lat="46.10894" lon="6.44525">
        <ele>1526</ele>
        <time>2012-07-14T14:15:49Z</time>
      </trkpt>
      <trkpt lat="46.10882" lon="6.44532">
        <ele>1526</ele>
        <time>2012-07-14T14:15:51Z</time>
      </trkpt>
      <trkpt lat="46.1087" lon="6.44539">
        <ele>1526</ele>
        <time>2012-07-14T14:15:53Z</time>
      </trkpt>
      <trkpt lat="46.10858" lon="6.44544">
        <ele>1526</ele>
        <time>2012-07-14T14:15:55Z</time>
      </trkpt>
      <trkpt lat="46.10847" lon="6.44546">
        <ele>1526</ele>
        <time>2012-07-14T14:15:57Z</time>
      </trkpt>
      <trkpt lat="46.10837" lon="6.44542">
        <ele>1526</ele>
        <time>2012-07-14T14:15:59Z</time>
      </trkpt>
      <trkpt lat="46.10821" lon="6.44537">
        <ele>1526</ele>
        <time>2012-07-14T14:16:01Z</time>
      </trkpt>
      <trkpt lat="46.10805" lon="6.44534">
        <ele>1532</ele>
        <time>2012-07-14T14:16:03Z</time>
      </trkpt>
      <trkpt lat="46.10793" lon="6.44524">
        <ele>1532</ele>
        <time>2012-07-14T14:16:05Z</time>
      </trkpt>
      <trkpt lat="46.10782" lon="6.44515">
        <ele>1532</ele>
        <time>2012-07-14T14:16:07Z</time>
      </trkpt>
      <trkpt lat="46.10772" lon="6.44508">
        <ele>1532</ele>
        <time>2012-07-14T14:16:09Z</time>
      </trkpt>
      <trkpt lat="46.1076" lon="6.44505">
        <ele>1532</ele>
        <time>2012-07-14T14:16:11Z</time>
      </trkpt>
      <trkpt lat="46.10749" lon="6.445">
        <ele>1532</ele>
        <time>2012-07-14T14:16:13Z</time>
      </trkpt>
      <trkpt lat="46.10737" lon="6.44495">
        <ele>1532</ele>
        <time>2012-07-14T14:16:15Z</time>
      </trkpt>
      <trkpt lat="46.10727" lon="6.44496">
        <ele>1527</ele>
        <time>2012-07-14T14:16:18Z</time>
      </trkpt>
      <trkpt lat="46.10719" lon="6.44508">
        <ele>1520</ele>
        <time>2012-07-14T14:16:21Z</time>
      </trkpt>
      <trkpt lat="46.10708" lon="6.44518">
        <ele>1520</ele>
        <time>2012-07-14T14:16:23Z</time>
      </trkpt>
      <trkpt lat="46.10698" lon="6.44529">
        <ele>1520</ele>
        <time>2012-07-14T14:16:25Z</time>
      </trkpt>
      <trkpt lat="46.10687" lon="6.44544">
        <ele>1514</ele>
        <time>2012-07-14T14:16:27Z</time>
      </trkpt>
      <trkpt lat="46.10675" lon="6.44556">
        <ele>1514</ele>
        <time>2012-07-14T14:16:29Z</time>
      </trkpt>
      <trkpt lat="46.10667" lon="6.44567">
        <ele>1506</ele>
        <time>2012-07-14T14:16:31Z</time>
      </trkpt>
      <trkpt lat="46.10657" lon="6.44574">
        <ele>1506</ele>
        <time>2012-07-14T14:16:34Z</time>
      </trkpt>
      <trkpt lat="46.10662" lon="6.44558">
        <ele>1493</ele>
        <time>2012-07-14T14:16:41Z</time>
      </trkpt>
      <trkpt lat="46.10667" lon="6.44545">
        <ele>1493</ele>
        <time>2012-07-14T14:16:43Z</time>
      </trkpt>
      <trkpt lat="46.10671" lon="6.44526">
        <ele>1487</ele>
        <time>2012-07-14T14:16:45Z</time>
      </trkpt>
      <trkpt lat="46.10672" lon="6.44508">
        <ele>1487</ele>
        <time>2012-07-14T14:16:47Z</time>
      </trkpt>
      <trkpt lat="46.10672" lon="6.44491">
        <ele>1487</ele>
        <time>2012-07-14T14:16:49Z</time>
      </trkpt>
      <trkpt lat="46.1067" lon="6.44472">
        <ele>1487</ele>
        <time>2012-07-14T14:16:51Z</time>
      </trkpt>
      <trkpt lat="46.10667" lon="6.44452">
        <ele>1487</ele>
        <time>2012-07-14T14:16:53Z</time>
      </trkpt>
      <trkpt lat="46.10667" lon="6.44435">
        <ele>1478</ele>
        <time>2012-07-14T14:16:55Z</time>
      </trkpt>
      <trkpt lat="46.10667" lon="6.44418">
        <ele>1478</ele>
        <time>2012-07-14T14:16:57Z</time>
      </trkpt>
      <trkpt lat="46.10669" lon="6.44402">
        <ele>1470</ele>
        <time>2012-07-14T14:16:59Z</time>
      </trkpt>
      <trkpt lat="46.10672" lon="6.44389">
        <ele>1470</ele>
        <time>2012-07-14T14:17:01Z</time>
      </trkpt>
      <trkpt lat="46.10679" lon="6.4438">
        <ele>1463</ele>
        <time>2012-07-14T14:17:03Z</time>
      </trkpt>
      <trkpt lat="46.1069" lon="6.44368">
        <ele>1463</ele>
        <time>2012-07-14T14:17:05Z</time>
      </trkpt>
      <trkpt lat="46.10704" lon="6.44363">
        <ele>1453</ele>
        <time>2012-07-14T14:17:07Z</time>
      </trkpt>
      <trkpt lat="46.10718" lon="6.44355">
        <ele>1447</ele>
        <time>2012-07-14T14:17:09Z</time>
      </trkpt>
      <trkpt lat="46.10735" lon="6.44351">
        <ele>1438</ele>
        <time>2012-07-14T14:17:11Z</time>
      </trkpt>
      <trkpt lat="46.1075" lon="6.44343">
        <ele>1432</ele>
        <time>2012-07-14T14:17:13Z</time>
      </trkpt>
      <trkpt lat="46.10767" lon="6.44337">
        <ele>1423</ele>
        <time>2012-07-14T14:17:15Z</time>
      </trkpt>
      <trkpt lat="46.1078" lon="6.44334">
        <ele>1417</ele>
        <time>2012-07-14T14:17:17Z</time>
      </trkpt>
      <trkpt lat="46.1079" lon="6.44331">
        <ele>1417</ele>
        <time>2012-07-14T14:17:19Z</time>
      </trkpt>
      <trkpt lat="46.10802" lon="6.44324">
        <ele>1428</ele>
        <time>2012-07-14T14:17:45Z</time>
      </trkpt>
      <trkpt lat="46.10813" lon="6.44326">
        <ele>1428</ele>
        <time>2012-07-14T14:17:47Z</time>
      </trkpt>
      <trkpt lat="46.10823" lon="6.44321">
        <ele>1428</ele>
        <time>2012-07-14T14:17:49Z</time>
      </trkpt>
      <trkpt lat="46.1083" lon="6.44311">
        <ele>1428</ele>
        <time>2012-07-14T14:17:51Z</time>
      </trkpt>
      <trkpt lat="46.10837" lon="6.44301">
        <ele>1428</ele>
        <time>2012-07-14T14:17:53Z</time>
      </trkpt>
      <trkpt lat="46.10842" lon="6.44283">
        <ele>1428</ele>
        <time>2012-07-14T14:17:56Z</time>
      </trkpt>
      <trkpt lat="46.10844" lon="6.44266">
        <ele>1428</ele>
        <time>2012-07-14T14:17:58Z</time>
      </trkpt>
      <trkpt lat="46.10846" lon="6.44248">
        <ele>1428</ele>
        <time>2012-07-14T14:18:00Z</time>
      </trkpt>
      <trkpt lat="46.10848" lon="6.4423">
        <ele>1422</ele>
        <time>2012-07-14T14:18:02Z</time>
      </trkpt>
      <trkpt lat="46.10848" lon="6.44212">
        <ele>1422</ele>
        <time>2012-07-14T14:18:04Z</time>
      </trkpt>
      <trkpt lat="46.1085" lon="6.44195">
        <ele>1417</ele>
        <time>2012-07-14T14:18:06Z</time>
      </trkpt>
      <trkpt lat="46.10851" lon="6.44179">
        <ele>1417</ele>
        <time>2012-07-14T14:18:08Z</time>
      </trkpt>
      <trkpt lat="46.10853" lon="6.44162">
        <ele>1410</ele>
        <time>2012-07-14T14:18:10Z</time>
      </trkpt>
      <trkpt lat="46.10855" lon="6.44146">
        <ele>1410</ele>
        <time>2012-07-14T14:18:12Z</time>
      </trkpt>
      <trkpt lat="46.10857" lon="6.4413">
        <ele>1410</ele>
        <time>2012-07-14T14:18:14Z</time>
      </trkpt>
      <trkpt lat="46.10857" lon="6.44115">
        <ele>1403</ele>
        <time>2012-07-14T14:18:16Z</time>
      </trkpt>
      <trkpt lat="46.10857" lon="6.44098">
        <ele>1403</ele>
        <time>2012-07-14T14:18:18Z</time>
      </trkpt>
      <trkpt lat="46.10858" lon="6.4408">
        <ele>1397</ele>
        <time>2012-07-14T14:18:20Z</time>
      </trkpt>
      <trkpt lat="46.1086" lon="6.44062">
        <ele>1397</ele>
        <time>2012-07-14T14:18:22Z</time>
      </trkpt>
      <trkpt lat="46.10863" lon="6.44046">
        <ele>1397</ele>
        <time>2012-07-14T14:18:24Z</time>
      </trkpt>
      <trkpt lat="46.10867" lon="6.4403">
        <ele>1391</ele>
        <time>2012-07-14T14:18:26Z</time>
      </trkpt>
      <trkpt lat="46.1087" lon="6.44015">
        <ele>1391</ele>
        <time>2012-07-14T14:18:28Z</time>
      </trkpt>
      <trkpt lat="46.10871" lon="6.44">
        <ele>1391</ele>
        <time>2012-07-14T14:18:30Z</time>
      </trkpt>
      <trkpt lat="46.1087" lon="6.43986">
        <ele>1385</ele>
        <time>2012-07-14T14:18:32Z</time>
      </trkpt>
      <trkpt lat="46.1087" lon="6.43972">
        <ele>1379</ele>
        <time>2012-07-14T14:18:36Z</time>
      </trkpt>
      <trkpt lat="46.10865" lon="6.43983">
        <ele>1373</ele>
        <time>2012-07-14T14:18:43Z</time>
      </trkpt>
      <trkpt lat="46.10859" lon="6.43996">
        <ele>1373</ele>
        <time>2012-07-14T14:18:50Z</time>
      </trkpt>
      <trkpt lat="46.10854" lon="6.44009">
        <ele>1373</ele>
        <time>2012-07-14T14:18:53Z</time>
      </trkpt>
      <trkpt lat="46.10846" lon="6.44023">
        <ele>1373</ele>
        <time>2012-07-14T14:18:56Z</time>
      </trkpt>
      <trkpt lat="46.10838" lon="6.44032">
        <ele>1373</ele>
        <time>2012-07-14T14:18:58Z</time>
      </trkpt>
      <trkpt lat="46.1083" lon="6.44044">
        <ele>1364</ele>
        <time>2012-07-14T14:19:00Z</time>
      </trkpt>
      <trkpt lat="46.10823" lon="6.44055">
        <ele>1364</ele>
        <time>2012-07-14T14:19:02Z</time>
      </trkpt>
      <trkpt lat="46.10815" lon="6.44069">
        <ele>1359</ele>
        <time>2012-07-14T14:19:05Z</time>
      </trkpt>
      <trkpt lat="46.10809" lon="6.4408">
        <ele>1359</ele>
        <time>2012-07-14T14:19:08Z</time>
      </trkpt>
      <trkpt lat="46.10802" lon="6.4407">
        <ele>1359</ele>
        <time>2012-07-14T14:19:14Z</time>
      </trkpt>
      <trkpt lat="46.10805" lon="6.44055">
        <ele>1349</ele>
        <time>2012-07-14T14:19:17Z</time>
      </trkpt>
      <trkpt lat="46.10803" lon="6.44042">
        <ele>1349</ele>
        <time>2012-07-14T14:19:19Z</time>
      </trkpt>
      <trkpt lat="46.10803" lon="6.44027">
        <ele>1349</ele>
        <time>2012-07-14T14:19:21Z</time>
      </trkpt>
      <trkpt lat="46.10803" lon="6.44009">
        <ele>1349</ele>
        <time>2012-07-14T14:19:23Z</time>
      </trkpt>
      <trkpt lat="46.10805" lon="6.43991">
        <ele>1343</ele>
        <time>2012-07-14T14:19:25Z</time>
      </trkpt>
      <trkpt lat="46.10808" lon="6.43974">
        <ele>1343</ele>
        <time>2012-07-14T14:19:27Z</time>
      </trkpt>
      <trkpt lat="46.10808" lon="6.4396">
        <ele>1343</ele>
        <time>2012-07-14T14:19:29Z</time>
      </trkpt>
      <trkpt lat="46.10806" lon="6.43945">
        <ele>1343</ele>
        <time>2012-07-14T14:19:31Z</time>
      </trkpt>
      <trkpt lat="46.10805" lon="6.4393">
        <ele>1343</ele>
        <time>2012-07-14T14:19:33Z</time>
      </trkpt>
      <trkpt lat="46.10803" lon="6.43915">
        <ele>1343</ele>
        <time>2012-07-14T14:19:36Z</time>
      </trkpt>
      <trkpt lat="46.10797" lon="6.43927">
        <ele>1333</ele>
        <time>2012-07-14T14:19:43Z</time>
      </trkpt>
      <trkpt lat="46.10796" lon="6.43945">
        <ele>1333</ele>
        <time>2012-07-14T14:19:46Z</time>
      </trkpt>
      <trkpt lat="46.10791" lon="6.43962">
        <ele>1326</ele>
        <time>2012-07-14T14:19:49Z</time>
      </trkpt>
      <trkpt lat="46.10787" lon="6.43976">
        <ele>1326</ele>
        <time>2012-07-14T14:19:51Z</time>
      </trkpt>
      <trkpt lat="46.10782" lon="6.43988">
        <ele>1319</ele>
        <time>2012-07-14T14:19:53Z</time>
      </trkpt>
      <trkpt lat="46.10776" lon="6.43999">
        <ele>1319</ele>
        <time>2012-07-14T14:19:55Z</time>
      </trkpt>
      <trkpt lat="46.10769" lon="6.4401">
        <ele>1313</ele>
        <time>2012-07-14T14:19:57Z</time>
      </trkpt>
      <trkpt lat="46.10762" lon="6.44019">
        <ele>1313</ele>
        <time>2012-07-14T14:19:59Z</time>
      </trkpt>
      <trkpt lat="46.10755" lon="6.44033">
        <ele>1305</ele>
        <time>2012-07-14T14:20:02Z</time>
      </trkpt>
      <trkpt lat="46.10747" lon="6.44041">
        <ele>1305</ele>
        <time>2012-07-14T14:20:04Z</time>
      </trkpt>
      <trkpt lat="46.10735" lon="6.44048">
        <ele>1315</ele>
        <time>2012-07-14T14:20:06Z</time>
      </trkpt>
      <trkpt lat="46.10729" lon="6.44063">
        <ele>1315</ele>
        <time>2012-07-14T14:20:09Z</time>
      </trkpt>
      <trkpt lat="46.10721" lon="6.44075">
        <ele>1315</ele>
        <time>2012-07-14T14:20:12Z</time>
      </trkpt>
      <trkpt lat="46.1071" lon="6.44074">
        <ele>1309</ele>
        <time>2012-07-14T14:20:15Z</time>
      </trkpt>
      <trkpt lat="46.10699" lon="6.44066">
        <ele>1309</ele>
        <time>2012-07-14T14:20:18Z</time>
      </trkpt>
      <trkpt lat="46.10689" lon="6.44062">
        <ele>1309</ele>
        <time>2012-07-14T14:20:21Z</time>
      </trkpt>
      <trkpt lat="46.10679" lon="6.4406">
        <ele>1309</ele>
        <time>2012-07-14T14:20:24Z</time>
      </trkpt>
      <trkpt lat="46.10669" lon="6.44055">
        <ele>1309</ele>
        <time>2012-07-14T14:20:27Z</time>
      </trkpt>
      <trkpt lat="46.10657" lon="6.44048">
        <ele>1309</ele>
        <time>2012-07-14T14:20:30Z</time>
      </trkpt>
      <trkpt lat="46.10647" lon="6.44042">
        <ele>1309</ele>
        <time>2012-07-14T14:20:32Z</time>
      </trkpt>
      <trkpt lat="46.10637" lon="6.44036">
        <ele>1309</ele>
        <time>2012-07-14T14:20:34Z</time>
      </trkpt>
      <trkpt lat="46.10627" lon="6.44032">
        <ele>1309</ele>
        <time>2012-07-14T14:20:36Z</time>
      </trkpt>
      <trkpt lat="46.10617" lon="6.44027">
        <ele>1309</ele>
        <time>2012-07-14T14:20:38Z</time>
      </trkpt>
      <trkpt lat="46.10607" lon="6.44025">
        <ele>1309</ele>
        <time>2012-07-14T14:20:40Z</time>
      </trkpt>
      <trkpt lat="46.10597" lon="6.44022">
        <ele>1309</ele>
        <time>2012-07-14T14:20:42Z</time>
      </trkpt>
      <trkpt lat="46.10585" lon="6.44013">
        <ele>1309</ele>
        <time>2012-07-14T14:20:45Z</time>
      </trkpt>
      <trkpt lat="46.10574" lon="6.44004">
        <ele>1302</ele>
        <time>2012-07-14T14:20:48Z</time>
      </trkpt>
      <trkpt lat="46.1056" lon="6.43996">
        <ele>1302</ele>
        <time>2012-07-14T14:20:51Z</time>
      </trkpt>
      <trkpt lat="46.10549" lon="6.43992">
        <ele>1297</ele>
        <time>2012-07-14T14:20:53Z</time>
      </trkpt>
      <trkpt lat="46.10539" lon="6.43988">
        <ele>1297</ele>
        <time>2012-07-14T14:20:55Z</time>
      </trkpt>
      <trkpt lat="46.10529" lon="6.43984">
        <ele>1292</ele>
        <time>2012-07-14T14:20:57Z</time>
      </trkpt>
      <trkpt lat="46.1052" lon="6.43982">
        <ele>1292</ele>
        <time>2012-07-14T14:20:59Z</time>
      </trkpt>
      <trkpt lat="46.1051" lon="6.43979">
        <ele>1283</ele>
        <time>2012-07-14T14:21:01Z</time>
      </trkpt>
      <trkpt lat="46.105" lon="6.43976">
        <ele>1283</ele>
        <time>2012-07-14T14:21:03Z</time>
      </trkpt>
      <trkpt lat="46.1049" lon="6.43976">
        <ele>1283</ele>
        <time>2012-07-14T14:21:05Z</time>
      </trkpt>
      <trkpt lat="46.10477" lon="6.43977">
        <ele>1276</ele>
        <time>2012-07-14T14:21:08Z</time>
      </trkpt>
      <trkpt lat="46.10466" lon="6.43984">
        <ele>1270</ele>
        <time>2012-07-14T14:21:11Z</time>
      </trkpt>
      <trkpt lat="46.10457" lon="6.43991">
        <ele>1270</ele>
        <time>2012-07-14T14:21:13Z</time>
      </trkpt>
      <trkpt lat="46.10447" lon="6.44">
        <ele>1270</ele>
        <time>2012-07-14T14:21:15Z</time>
      </trkpt>
      <trkpt lat="46.10437" lon="6.44009">
        <ele>1270</ele>
        <time>2012-07-14T14:21:17Z</time>
      </trkpt>
      <trkpt lat="46.10429" lon="6.44021">
        <ele>1270</ele>
        <time>2012-07-14T14:21:19Z</time>
      </trkpt>
      <trkpt lat="46.10425" lon="6.44037">
        <ele>1264</ele>
        <time>2012-07-14T14:21:21Z</time>
      </trkpt>
      <trkpt lat="46.10423" lon="6.44052">
        <ele>1264</ele>
        <time>2012-07-14T14:21:23Z</time>
      </trkpt>
      <trkpt lat="46.10418" lon="6.44063">
        <ele>1264</ele>
        <time>2012-07-14T14:21:26Z</time>
      </trkpt>
      <trkpt lat="46.10406" lon="6.44055">
        <ele>1264</ele>
        <time>2012-07-14T14:21:29Z</time>
      </trkpt>
      <trkpt lat="46.10396" lon="6.44043">
        <ele>1264</ele>
        <time>2012-07-14T14:21:31Z</time>
      </trkpt>
      <trkpt lat="46.10388" lon="6.44029">
        <ele>1264</ele>
        <time>2012-07-14T14:21:33Z</time>
      </trkpt>
      <trkpt lat="46.10381" lon="6.4402">
        <ele>1264</ele>
        <time>2012-07-14T14:21:35Z</time>
      </trkpt>
      <trkpt lat="46.1039" lon="6.44025">
        <ele>1270</ele>
        <time>2012-07-14T14:21:44Z</time>
      </trkpt>
      <trkpt lat="46.10399" lon="6.44018">
        <ele>1270</ele>
        <time>2012-07-14T14:21:50Z</time>
      </trkpt>
      <trkpt lat="46.10409" lon="6.44021">
        <ele>1265</ele>
        <time>2012-07-14T14:22:03Z</time>
      </trkpt>
      <trkpt lat="46.1042" lon="6.4402">
        <ele>1250</ele>
        <time>2012-07-14T14:22:17Z</time>
      </trkpt>
      <trkpt lat="46.10428" lon="6.44002">
        <ele>1250</ele>
        <time>2012-07-14T14:22:20Z</time>
      </trkpt>
      <trkpt lat="46.10432" lon="6.43988">
        <ele>1243</ele>
        <time>2012-07-14T14:22:22Z</time>
      </trkpt>
      <trkpt lat="46.10435" lon="6.4397">
        <ele>1243</ele>
        <time>2012-07-14T14:22:24Z</time>
      </trkpt>
      <trkpt lat="46.1044" lon="6.43957">
        <ele>1243</ele>
        <time>2012-07-14T14:22:26Z</time>
      </trkpt>
      <trkpt lat="46.10446" lon="6.43943">
        <ele>1243</ele>
        <time>2012-07-14T14:22:28Z</time>
      </trkpt>
      <trkpt lat="46.10454" lon="6.4393">
        <ele>1243</ele>
        <time>2012-07-14T14:22:30Z</time>
      </trkpt>
      <trkpt lat="46.1046" lon="6.43916">
        <ele>1243</ele>
        <time>2012-07-14T14:22:32Z</time>
      </trkpt>
      <trkpt lat="46.10468" lon="6.43903">
        <ele>1243</ele>
        <time>2012-07-14T14:22:34Z</time>
      </trkpt>
      <trkpt lat="46.10482" lon="6.43901">
        <ele>1243</ele>
        <time>2012-07-14T14:22:37Z</time>
      </trkpt>
      <trkpt lat="46.10494" lon="6.439">
        <ele>1243</ele>
        <time>2012-07-14T14:22:39Z</time>
      </trkpt>
      <trkpt lat="46.10507" lon="6.43897">
        <ele>1243</ele>
        <time>2012-07-14T14:22:41Z</time>
      </trkpt>
      <trkpt lat="46.10521" lon="6.43894">
        <ele>1243</ele>
        <time>2012-07-14T14:22:43Z</time>
      </trkpt>
      <trkpt lat="46.10534" lon="6.43894">
        <ele>1234</ele>
        <time>2012-07-14T14:22:45Z</time>
      </trkpt>
      <trkpt lat="46.10547" lon="6.43892">
        <ele>1228</ele>
        <time>2012-07-14T14:22:47Z</time>
      </trkpt>
      <trkpt lat="46.10562" lon="6.43888">
        <ele>1221</ele>
        <time>2012-07-14T14:22:49Z</time>
      </trkpt>
      <trkpt lat="46.10577" lon="6.43885">
        <ele>1221</ele>
        <time>2012-07-14T14:22:51Z</time>
      </trkpt>
      <trkpt lat="46.10589" lon="6.43882">
        <ele>1221</ele>
        <time>2012-07-14T14:22:53Z</time>
      </trkpt>
      <trkpt lat="46.10602" lon="6.43877">
        <ele>1215</ele>
        <time>2012-07-14T14:22:55Z</time>
      </trkpt>
      <trkpt lat="46.10612" lon="6.43871">
        <ele>1215</ele>
        <time>2012-07-14T14:22:57Z</time>
      </trkpt>
      <trkpt lat="46.10624" lon="6.43869">
        <ele>1215</ele>
        <time>2012-07-14T14:23:00Z</time>
      </trkpt>
      <trkpt lat="46.1063" lon="6.43856">
        <ele>1215</ele>
        <time>2012-07-14T14:23:04Z</time>
      </trkpt>
      <trkpt lat="46.10624" lon="6.43844">
        <ele>1215</ele>
        <time>2012-07-14T14:23:14Z</time>
      </trkpt>
      <trkpt lat="46.10615" lon="6.43837">
        <ele>1224</ele>
        <time>2012-07-14T14:23:17Z</time>
      </trkpt>
      <trkpt lat="46.10605" lon="6.43828">
        <ele>1231</ele>
        <time>2012-07-14T14:23:19Z</time>
      </trkpt>
      <trkpt lat="46.10599" lon="6.43814">
        <ele>1231</ele>
        <time>2012-07-14T14:23:22Z</time>
      </trkpt>
      <trkpt lat="46.10599" lon="6.43797">
        <ele>1225</ele>
        <time>2012-07-14T14:23:26Z</time>
      </trkpt>
      <trkpt lat="46.10596" lon="6.43782">
        <ele>1225</ele>
        <time>2012-07-14T14:23:28Z</time>
      </trkpt>
      <trkpt lat="46.10594" lon="6.43764">
        <ele>1217</ele>
        <time>2012-07-14T14:23:31Z</time>
      </trkpt>
      <trkpt lat="46.10592" lon="6.43747">
        <ele>1206</ele>
        <time>2012-07-14T14:23:35Z</time>
      </trkpt>
      <trkpt lat="46.1059" lon="6.43733">
        <ele>1194</ele>
        <time>2012-07-14T14:23:40Z</time>
      </trkpt>
      <trkpt lat="46.10593" lon="6.43716">
        <ele>1186</ele>
        <time>2012-07-14T14:23:44Z</time>
      </trkpt>
      <trkpt lat="46.10596" lon="6.43698">
        <ele>1180</ele>
        <time>2012-07-14T14:23:47Z</time>
      </trkpt>
      <trkpt lat="46.10597" lon="6.43684">
        <ele>1180</ele>
        <time>2012-07-14T14:23:49Z</time>
      </trkpt>
      <trkpt lat="46.106" lon="6.43668">
        <ele>1180</ele>
        <time>2012-07-14T14:23:52Z</time>
      </trkpt>
      <trkpt lat="46.10603" lon="6.43651">
        <ele>1173</ele>
        <time>2012-07-14T14:23:55Z</time>
      </trkpt>
      <trkpt lat="46.10605" lon="6.43636">
        <ele>1173</ele>
        <time>2012-07-14T14:23:58Z</time>
      </trkpt>
      <trkpt lat="46.10617" lon="6.43638">
        <ele>1162</ele>
        <time>2012-07-14T14:24:07Z</time>
      </trkpt>
      <trkpt lat="46.10627" lon="6.43644">
        <ele>1151</ele>
        <time>2012-07-14T14:24:11Z</time>
      </trkpt>
      <trkpt lat="46.10636" lon="6.43651">
        <ele>1136</ele>
        <time>2012-07-14T14:24:19Z</time>
      </trkpt>
      <trkpt lat="46.10641" lon="6.43664">
        <ele>1116</ele>
        <time>2012-07-14T14:24:27Z</time>
      </trkpt>
      <trkpt lat="46.10648" lon="6.43673">
        <ele>1100</ele>
        <time>2012-07-14T14:24:33Z</time>
      </trkpt>
      <trkpt lat="46.1064" lon="6.43665">
        <ele>1108</ele>
        <time>2012-07-14T14:24:49Z</time>
      </trkpt>
      <trkpt lat="46.10631" lon="6.43658">
        <ele>1119</ele>
        <time>2012-07-14T14:25:01Z</time>
      </trkpt>
      <trkpt lat="46.10624" lon="6.43649">
        <ele>1127</ele>
        <time>2012-07-14T14:25:05Z</time>
      </trkpt>
      <trkpt lat="46.10617" lon="6.4364">
        <ele>1140</ele>
        <time>2012-07-14T14:25:18Z</time>
      </trkpt>
      <trkpt lat="46.10621" lon="6.43627">
        <ele>1146</ele>
        <time>2012-07-14T14:27:26Z</time>
      </trkpt>
      <trkpt lat="46.10624" lon="6.43611">
        <ele>1141</ele>
        <time>2012-07-14T14:27:31Z</time>
      </trkpt>
      <trkpt lat="46.10624" lon="6.43594">
        <ele>1141</ele>
        <time>2012-07-14T14:27:34Z</time>
      </trkpt>
      <trkpt lat="46.10625" lon="6.4358">
        <ele>1141</ele>
        <time>2012-07-14T14:27:36Z</time>
      </trkpt>
      <trkpt lat="46.10627" lon="6.43561">
        <ele>1141</ele>
        <time>2012-07-14T14:27:39Z</time>
      </trkpt>
      <trkpt lat="46.10628" lon="6.43548">
        <ele>1141</ele>
        <time>2012-07-14T14:27:41Z</time>
      </trkpt>
      <trkpt lat="46.1063" lon="6.43532">
        <ele>1141</ele>
        <time>2012-07-14T14:27:45Z</time>
      </trkpt>
      <trkpt lat="46.10622" lon="6.43524">
        <ele>1153</ele>
        <time>2012-07-14T14:27:56Z</time>
      </trkpt>
      <trkpt lat="46.10622" lon="6.43508">
        <ele>1144</ele>
        <time>2012-07-14T14:28:03Z</time>
      </trkpt>
      <trkpt lat="46.1062" lon="6.43494">
        <ele>1138</ele>
        <time>2012-07-14T14:28:06Z</time>
      </trkpt>
      <trkpt lat="46.10621" lon="6.43479">
        <ele>1130</ele>
        <time>2012-07-14T14:28:09Z</time>
      </trkpt>
      <trkpt lat="46.10622" lon="6.43466">
        <ele>1122</ele>
        <time>2012-07-14T14:28:12Z</time>
      </trkpt>
      <trkpt lat="46.10624" lon="6.43453">
        <ele>1116</ele>
        <time>2012-07-14T14:28:15Z</time>
      </trkpt>
      <trkpt lat="46.10627" lon="6.43441">
        <ele>1116</ele>
        <time>2012-07-14T14:28:18Z</time>
      </trkpt>
      <trkpt lat="46.10624" lon="6.43427">
        <ele>1116</ele>
        <time>2012-07-14T14:28:21Z</time>
      </trkpt>
      <trkpt lat="46.10619" lon="6.43415">
        <ele>1105</ele>
        <time>2012-07-14T14:28:24Z</time>
      </trkpt>
      <trkpt lat="46.10613" lon="6.43402">
        <ele>1099</ele>
        <time>2012-07-14T14:28:27Z</time>
      </trkpt>
      <trkpt lat="46.10607" lon="6.43391">
        <ele>1099</ele>
        <time>2012-07-14T14:28:29Z</time>
      </trkpt>
      <trkpt lat="46.106" lon="6.43377">
        <ele>1092</ele>
        <time>2012-07-14T14:28:32Z</time>
      </trkpt>
      <trkpt lat="46.10605" lon="6.43364">
        <ele>1085</ele>
        <time>2012-07-14T14:28:37Z</time>
      </trkpt>
      <trkpt lat="46.10617" lon="6.4336">
        <ele>1085</ele>
        <time>2012-07-14T14:28:39Z</time>
      </trkpt>
      <trkpt lat="46.10634" lon="6.43355">
        <ele>1078</ele>
        <time>2012-07-14T14:28:41Z</time>
      </trkpt>
      <trkpt lat="46.10652" lon="6.43351">
        <ele>1078</ele>
        <time>2012-07-14T14:28:43Z</time>
      </trkpt>
      <trkpt lat="46.10662" lon="6.4335">
        <ele>1078</ele>
        <time>2012-07-14T14:28:44Z</time>
      </trkpt>
      <trkpt lat="46.10672" lon="6.43348">
        <ele>1073</ele>
        <time>2012-07-14T14:28:45Z</time>
      </trkpt>
      <trkpt lat="46.10682" lon="6.43347">
        <ele>1073</ele>
        <time>2012-07-14T14:28:46Z</time>
      </trkpt>
      <trkpt lat="46.10691" lon="6.43346">
        <ele>1073</ele>
        <time>2012-07-14T14:28:47Z</time>
      </trkpt>
      <trkpt lat="46.10707" lon="6.43346">
        <ele>1073</ele>
        <time>2012-07-14T14:28:49Z</time>
      </trkpt>
      <trkpt lat="46.10722" lon="6.43342">
        <ele>1073</ele>
        <time>2012-07-14T14:28:51Z</time>
      </trkpt>
      <trkpt lat="46.10729" lon="6.43329">
        <ele>1073</ele>
        <time>2012-07-14T14:28:53Z</time>
      </trkpt>
      <trkpt lat="46.10725" lon="6.43313">
        <ele>1068</ele>
        <time>2012-07-14T14:28:55Z</time>
      </trkpt>
      <trkpt lat="46.10712" lon="6.43305">
        <ele>1068</ele>
        <time>2012-07-14T14:28:57Z</time>
      </trkpt>
      <trkpt lat="46.10697" lon="6.43304">
        <ele>1068</ele>
        <time>2012-07-14T14:28:59Z</time>
      </trkpt>
      <trkpt lat="46.10683" lon="6.43301">
        <ele>1068</ele>
        <time>2012-07-14T14:29:01Z</time>
      </trkpt>
      <trkpt lat="46.10667" lon="6.43291">
        <ele>1068</ele>
        <time>2012-07-14T14:29:03Z</time>
      </trkpt>
      <trkpt lat="46.10659" lon="6.43284">
        <ele>1068</ele>
        <time>2012-07-14T14:29:04Z</time>
      </trkpt>
      <trkpt lat="46.10651" lon="6.43276">
        <ele>1063</ele>
        <time>2012-07-14T14:29:05Z</time>
      </trkpt>
      <trkpt lat="46.10635" lon="6.4326">
        <ele>1063</ele>
        <time>2012-07-14T14:29:07Z</time>
      </trkpt>
      <trkpt lat="46.10622" lon="6.43242">
        <ele>1063</ele>
        <time>2012-07-14T14:29:09Z</time>
      </trkpt>
      <trkpt lat="46.10614" lon="6.43232">
        <ele>1063</ele>
        <time>2012-07-14T14:29:10Z</time>
      </trkpt>
      <trkpt lat="46.10607" lon="6.43222">
        <ele>1063</ele>
        <time>2012-07-14T14:29:11Z</time>
      </trkpt>
      <trkpt lat="46.10597" lon="6.43204">
        <ele>1063</ele>
        <time>2012-07-14T14:29:13Z</time>
      </trkpt>
      <trkpt lat="46.1059" lon="6.43187">
        <ele>1063</ele>
        <time>2012-07-14T14:29:15Z</time>
      </trkpt>
      <trkpt lat="46.10589" lon="6.43172">
        <ele>1063</ele>
        <time>2012-07-14T14:29:17Z</time>
      </trkpt>
      <trkpt lat="46.10594" lon="6.43161">
        <ele>1063</ele>
        <time>2012-07-14T14:29:19Z</time>
      </trkpt>
      <trkpt lat="46.10607" lon="6.43169">
        <ele>1063</ele>
        <time>2012-07-14T14:29:21Z</time>
      </trkpt>
      <trkpt lat="46.10617" lon="6.43183">
        <ele>1063</ele>
        <time>2012-07-14T14:29:23Z</time>
      </trkpt>
      <trkpt lat="46.10629" lon="6.43196">
        <ele>1063</ele>
        <time>2012-07-14T14:29:25Z</time>
      </trkpt>
      <trkpt lat="46.10642" lon="6.43204">
        <ele>1056</ele>
        <time>2012-07-14T14:29:27Z</time>
      </trkpt>
      <trkpt lat="46.10657" lon="6.43205">
        <ele>1056</ele>
        <time>2012-07-14T14:29:29Z</time>
      </trkpt>
      <trkpt lat="46.10673" lon="6.43199">
        <ele>1056</ele>
        <time>2012-07-14T14:29:31Z</time>
      </trkpt>
      <trkpt lat="46.10682" lon="6.43196">
        <ele>1056</ele>
        <time>2012-07-14T14:29:32Z</time>
      </trkpt>
      <trkpt lat="46.10691" lon="6.43191">
        <ele>1051</ele>
        <time>2012-07-14T14:29:33Z</time>
      </trkpt>
      <trkpt lat="46.10701" lon="6.43188">
        <ele>1051</ele>
        <time>2012-07-14T14:29:34Z</time>
      </trkpt>
      <trkpt lat="46.10711" lon="6.43182">
        <ele>1043</ele>
        <time>2012-07-14T14:29:35Z</time>
      </trkpt>
      <trkpt lat="46.1072" lon="6.43175">
        <ele>1043</ele>
        <time>2012-07-14T14:29:36Z</time>
      </trkpt>
      <trkpt lat="46.1073" lon="6.43168">
        <ele>1043</ele>
        <time>2012-07-14T14:29:37Z</time>
      </trkpt>
      <trkpt lat="46.10739" lon="6.43158">
        <ele>1043</ele>
        <time>2012-07-14T14:29:38Z</time>
      </trkpt>
      <trkpt lat="46.10747" lon="6.43148">
        <ele>1043</ele>
        <time>2012-07-14T14:29:39Z</time>
      </trkpt>
      <trkpt lat="46.10755" lon="6.43135">
        <ele>1043</ele>
        <time>2012-07-14T14:29:40Z</time>
      </trkpt>
      <trkpt lat="46.10763" lon="6.43121">
        <ele>1043</ele>
        <time>2012-07-14T14:29:41Z</time>
      </trkpt>
      <trkpt lat="46.1077" lon="6.43106">
        <ele>1038</ele>
        <time>2012-07-14T14:29:42Z</time>
      </trkpt>
      <trkpt lat="46.10776" lon="6.4309">
        <ele>1038</ele>
        <time>2012-07-14T14:29:43Z</time>
      </trkpt>
      <trkpt lat="46.10782" lon="6.43073">
        <ele>1038</ele>
        <time>2012-07-14T14:29:44Z</time>
      </trkpt>
      <trkpt lat="46.10788" lon="6.43058">
        <ele>1038</ele>
        <time>2012-07-14T14:29:45Z</time>
      </trkpt>
      <trkpt lat="46.10793" lon="6.43043">
        <ele>1038</ele>
        <time>2012-07-14T14:29:46Z</time>
      </trkpt>
      <trkpt lat="46.10799" lon="6.43028">
        <ele>1038</ele>
        <time>2012-07-14T14:29:47Z</time>
      </trkpt>
      <trkpt lat="46.10805" lon="6.43013">
        <ele>1032</ele>
        <time>2012-07-14T14:29:48Z</time>
      </trkpt>
      <trkpt lat="46.10811" lon="6.43">
        <ele>1032</ele>
        <time>2012-07-14T14:29:49Z</time>
      </trkpt>
      <trkpt lat="46.10817" lon="6.42984">
        <ele>1032</ele>
        <time>2012-07-14T14:29:50Z</time>
      </trkpt>
      <trkpt lat="46.10822" lon="6.42971">
        <ele>1027</ele>
        <time>2012-07-14T14:29:51Z</time>
      </trkpt>
      <trkpt lat="46.10828" lon="6.42957">
        <ele>1027</ele>
        <time>2012-07-14T14:29:52Z</time>
      </trkpt>
      <trkpt lat="46.10833" lon="6.42942">
        <ele>1027</ele>
        <time>2012-07-14T14:29:53Z</time>
      </trkpt>
      <trkpt lat="46.10837" lon="6.4293">
        <ele>1027</ele>
        <time>2012-07-14T14:29:54Z</time>
      </trkpt>
      <trkpt lat="46.10842" lon="6.42917">
        <ele>1027</ele>
        <time>2012-07-14T14:29:55Z</time>
      </trkpt>
      <trkpt lat="46.10854" lon="6.42896">
        <ele>1027</ele>
        <time>2012-07-14T14:29:57Z</time>
      </trkpt>
      <trkpt lat="46.10863" lon="6.42885">
        <ele>1027</ele>
        <time>2012-07-14T14:29:58Z</time>
      </trkpt>
      <trkpt lat="46.10872" lon="6.42874">
        <ele>1027</ele>
        <time>2012-07-14T14:29:59Z</time>
      </trkpt>
      <trkpt lat="46.10883" lon="6.42864">
        <ele>1027</ele>
        <time>2012-07-14T14:30:00Z</time>
      </trkpt>
      <trkpt lat="46.10892" lon="6.42854">
        <ele>1027</ele>
        <time>2012-07-14T14:30:01Z</time>
      </trkpt>
      <trkpt lat="46.109" lon="6.42844">
        <ele>1027</ele>
        <time>2012-07-14T14:30:02Z</time>
      </trkpt>
      <trkpt lat="46.10908" lon="6.42836">
        <ele>1027</ele>
        <time>2012-07-14T14:30:03Z</time>
      </trkpt>
      <trkpt lat="46.10916" lon="6.42827">
        <ele>1027</ele>
        <time>2012-07-14T14:30:04Z</time>
      </trkpt>
      <trkpt lat="46.10923" lon="6.42817">
        <ele>1021</ele>
        <time>2012-07-14T14:30:05Z</time>
      </trkpt>
      <trkpt lat="46.1093" lon="6.42808">
        <ele>1021</ele>
        <time>2012-07-14T14:30:06Z</time>
      </trkpt>
      <trkpt lat="46.10935" lon="6.42796">
        <ele>1021</ele>
        <time>2012-07-14T14:30:07Z</time>
      </trkpt>
      <trkpt lat="46.10942" lon="6.42783">
        <ele>1021</ele>
        <time>2012-07-14T14:30:08Z</time>
      </trkpt>
      <trkpt lat="46.10948" lon="6.42771">
        <ele>1021</ele>
        <time>2012-07-14T14:30:09Z</time>
      </trkpt>
      <trkpt lat="46.10956" lon="6.42757">
        <ele>1021</ele>
        <time>2012-07-14T14:30:10Z</time>
      </trkpt>
      <trkpt lat="46.10962" lon="6.42742">
        <ele>1015</ele>
        <time>2012-07-14T14:30:11Z</time>
      </trkpt>
      <trkpt lat="46.10968" lon="6.42726">
        <ele>1015</ele>
        <time>2012-07-14T14:30:12Z</time>
      </trkpt>
      <trkpt lat="46.10973" lon="6.42708">
        <ele>1015</ele>
        <time>2012-07-14T14:30:13Z</time>
      </trkpt>
      <trkpt lat="46.1098" lon="6.42689">
        <ele>1015</ele>
        <time>2012-07-14T14:30:14Z</time>
      </trkpt>
      <trkpt lat="46.10985" lon="6.4267">
        <ele>1015</ele>
        <time>2012-07-14T14:30:15Z</time>
      </trkpt>
      <trkpt lat="46.1099" lon="6.42651">
        <ele>1009</ele>
        <time>2012-07-14T14:30:16Z</time>
      </trkpt>
      <trkpt lat="46.10995" lon="6.42634">
        <ele>1009</ele>
        <time>2012-07-14T14:30:17Z</time>
      </trkpt>
      <trkpt lat="46.11003" lon="6.42617">
        <ele>1009</ele>
        <time>2012-07-14T14:30:18Z</time>
      </trkpt>
      <trkpt lat="46.1101" lon="6.42601">
        <ele>1009</ele>
        <time>2012-07-14T14:30:19Z</time>
      </trkpt>
      <trkpt lat="46.11017" lon="6.42585">
        <ele>1009</ele>
        <time>2012-07-14T14:30:20Z</time>
      </trkpt>
      <trkpt lat="46.11023" lon="6.42567">
        <ele>1009</ele>
        <time>2012-07-14T14:30:21Z</time>
      </trkpt>
      <trkpt lat="46.11028" lon="6.42548">
        <ele>1004</ele>
        <time>2012-07-14T14:30:22Z</time>
      </trkpt>
      <trkpt lat="46.11032" lon="6.42528">
        <ele>1004</ele>
        <time>2012-07-14T14:30:23Z</time>
      </trkpt>
      <trkpt lat="46.11034" lon="6.42507">
        <ele>1004</ele>
        <time>2012-07-14T14:30:24Z</time>
      </trkpt>
      <trkpt lat="46.11035" lon="6.42489">
        <ele>1004</ele>
        <time>2012-07-14T14:30:25Z</time>
      </trkpt>
      <trkpt lat="46.11036" lon="6.42471">
        <ele>1004</ele>
        <time>2012-07-14T14:30:26Z</time>
      </trkpt>
      <trkpt lat="46.11037" lon="6.42454">
        <ele>1004</ele>
        <time>2012-07-14T14:30:27Z</time>
      </trkpt>
      <trkpt lat="46.11037" lon="6.42439">
        <ele>1004</ele>
        <time>2012-07-14T14:30:28Z</time>
      </trkpt>
      <trkpt lat="46.11038" lon="6.42425">
        <ele>998</ele>
        <time>2012-07-14T14:30:29Z</time>
      </trkpt>
      <trkpt lat="46.11042" lon="6.42402">
        <ele>998</ele>
        <time>2012-07-14T14:30:31Z</time>
      </trkpt>
      <trkpt lat="46.11039" lon="6.42386">
        <ele>998</ele>
        <time>2012-07-14T14:30:33Z</time>
      </trkpt>
      <trkpt lat="46.11028" lon="6.42378">
        <ele>998</ele>
        <time>2012-07-14T14:30:35Z</time>
      </trkpt>
      <trkpt lat="46.11015" lon="6.42383">
        <ele>998</ele>
        <time>2012-07-14T14:30:37Z</time>
      </trkpt>
      <trkpt lat="46.11011" lon="6.42404">
        <ele>998</ele>
        <time>2012-07-14T14:30:39Z</time>
      </trkpt>
      <trkpt lat="46.1101" lon="6.42422">
        <ele>993</ele>
        <time>2012-07-14T14:30:40Z</time>
      </trkpt>
      <trkpt lat="46.1101" lon="6.42438">
        <ele>993</ele>
        <time>2012-07-14T14:30:41Z</time>
      </trkpt>
      <trkpt lat="46.11007" lon="6.42455">
        <ele>993</ele>
        <time>2012-07-14T14:30:42Z</time>
      </trkpt>
      <trkpt lat="46.11003" lon="6.42472">
        <ele>993</ele>
        <time>2012-07-14T14:30:43Z</time>
      </trkpt>
      <trkpt lat="46.10997" lon="6.42488">
        <ele>993</ele>
        <time>2012-07-14T14:30:44Z</time>
      </trkpt>
      <trkpt lat="46.10989" lon="6.42499">
        <ele>993</ele>
        <time>2012-07-14T14:30:45Z</time>
      </trkpt>
      <trkpt lat="46.10981" lon="6.42507">
        <ele>993</ele>
        <time>2012-07-14T14:30:46Z</time>
      </trkpt>
      <trkpt lat="46.10973" lon="6.42516">
        <ele>993</ele>
        <time>2012-07-14T14:30:47Z</time>
      </trkpt>
      <trkpt lat="46.10965" lon="6.42525">
        <ele>993</ele>
        <time>2012-07-14T14:30:48Z</time>
      </trkpt>
      <trkpt lat="46.10959" lon="6.42534">
        <ele>993</ele>
        <time>2012-07-14T14:30:49Z</time>
      </trkpt>
      <trkpt lat="46.10951" lon="6.42555">
        <ele>993</ele>
        <time>2012-07-14T14:30:51Z</time>
      </trkpt>
      <trkpt lat="46.10943" lon="6.42566">
        <ele>993</ele>
        <time>2012-07-14T14:30:53Z</time>
      </trkpt>
      <trkpt lat="46.10931" lon="6.42563">
        <ele>987</ele>
        <time>2012-07-14T14:30:55Z</time>
      </trkpt>
      <trkpt lat="46.10922" lon="6.42558">
        <ele>987</ele>
        <time>2012-07-14T14:30:56Z</time>
      </trkpt>
      <trkpt lat="46.10913" lon="6.42551">
        <ele>987</ele>
        <time>2012-07-14T14:30:57Z</time>
      </trkpt>
      <trkpt lat="46.10903" lon="6.42544">
        <ele>987</ele>
        <time>2012-07-14T14:30:58Z</time>
      </trkpt>
      <trkpt lat="46.10895" lon="6.42535">
        <ele>987</ele>
        <time>2012-07-14T14:30:59Z</time>
      </trkpt>
      <trkpt lat="46.10885" lon="6.42526">
        <ele>987</ele>
        <time>2012-07-14T14:31:00Z</time>
      </trkpt>
      <trkpt lat="46.10876" lon="6.42517">
        <ele>982</ele>
        <time>2012-07-14T14:31:01Z</time>
      </trkpt>
      <trkpt lat="46.10866" lon="6.42508">
        <ele>982</ele>
        <time>2012-07-14T14:31:02Z</time>
      </trkpt>
      <trkpt lat="46.10857" lon="6.42499">
        <ele>982</ele>
        <time>2012-07-14T14:31:03Z</time>
      </trkpt>
      <trkpt lat="46.10849" lon="6.42492">
        <ele>982</ele>
        <time>2012-07-14T14:31:04Z</time>
      </trkpt>
      <trkpt lat="46.10833" lon="6.42484">
        <ele>982</ele>
        <time>2012-07-14T14:31:06Z</time>
      </trkpt>
      <trkpt lat="46.10817" lon="6.4249">
        <ele>982</ele>
        <time>2012-07-14T14:31:08Z</time>
      </trkpt>
      <trkpt lat="46.1081" lon="6.42498">
        <ele>982</ele>
        <time>2012-07-14T14:31:09Z</time>
      </trkpt>
      <trkpt lat="46.10803" lon="6.4251">
        <ele>982</ele>
        <time>2012-07-14T14:31:10Z</time>
      </trkpt>
      <trkpt lat="46.10797" lon="6.42523">
        <ele>977</ele>
        <time>2012-07-14T14:31:11Z</time>
      </trkpt>
      <trkpt lat="46.10791" lon="6.42535">
        <ele>977</ele>
        <time>2012-07-14T14:31:12Z</time>
      </trkpt>
      <trkpt lat="46.10784" lon="6.42546">
        <ele>977</ele>
        <time>2012-07-14T14:31:13Z</time>
      </trkpt>
      <trkpt lat="46.10777" lon="6.42557">
        <ele>977</ele>
        <time>2012-07-14T14:31:14Z</time>
      </trkpt>
      <trkpt lat="46.10767" lon="6.42566">
        <ele>977</ele>
        <time>2012-07-14T14:31:15Z</time>
      </trkpt>
      <trkpt lat="46.10757" lon="6.42574">
        <ele>977</ele>
        <time>2012-07-14T14:31:16Z</time>
      </trkpt>
      <trkpt lat="46.10745" lon="6.42582">
        <ele>977</ele>
        <time>2012-07-14T14:31:17Z</time>
      </trkpt>
      <trkpt lat="46.10733" lon="6.42591">
        <ele>977</ele>
        <time>2012-07-14T14:31:18Z</time>
      </trkpt>
      <trkpt lat="46.10721" lon="6.42597">
        <ele>971</ele>
        <time>2012-07-14T14:31:19Z</time>
      </trkpt>
      <trkpt lat="46.10709" lon="6.42602">
        <ele>971</ele>
        <time>2012-07-14T14:31:20Z</time>
      </trkpt>
      <trkpt lat="46.10698" lon="6.42603">
        <ele>971</ele>
        <time>2012-07-14T14:31:21Z</time>
      </trkpt>
      <trkpt lat="46.10687" lon="6.42603">
        <ele>971</ele>
        <time>2012-07-14T14:31:22Z</time>
      </trkpt>
      <trkpt lat="46.10677" lon="6.42604">
        <ele>971</ele>
        <time>2012-07-14T14:31:23Z</time>
      </trkpt>
      <trkpt lat="46.10661" lon="6.42609">
        <ele>971</ele>
        <time>2012-07-14T14:31:25Z</time>
      </trkpt>
      <trkpt lat="46.10647" lon="6.42612">
        <ele>965</ele>
        <time>2012-07-14T14:31:27Z</time>
      </trkpt>
      <trkpt lat="46.1064" lon="6.42602">
        <ele>965</ele>
        <time>2012-07-14T14:31:29Z</time>
      </trkpt>
      <trkpt lat="46.10642" lon="6.42585">
        <ele>965</ele>
        <time>2012-07-14T14:31:31Z</time>
      </trkpt>
      <trkpt lat="46.10655" lon="6.4257">
        <ele>960</ele>
        <time>2012-07-14T14:31:33Z</time>
      </trkpt>
      <trkpt lat="46.10665" lon="6.42564">
        <ele>960</ele>
        <time>2012-07-14T14:31:34Z</time>
      </trkpt>
      <trkpt lat="46.10675" lon="6.42556">
        <ele>960</ele>
        <time>2012-07-14T14:31:35Z</time>
      </trkpt>
      <trkpt lat="46.10684" lon="6.42547">
        <ele>960</ele>
        <time>2012-07-14T14:31:36Z</time>
      </trkpt>
      <trkpt lat="46.10694" lon="6.42536">
        <ele>954</ele>
        <time>2012-07-14T14:31:37Z</time>
      </trkpt>
      <trkpt lat="46.10702" lon="6.42523">
        <ele>954</ele>
        <time>2012-07-14T14:31:38Z</time>
      </trkpt>
      <trkpt lat="46.10709" lon="6.42507">
        <ele>954</ele>
        <time>2012-07-14T14:31:39Z</time>
      </trkpt>
      <trkpt lat="46.10714" lon="6.42489">
        <ele>954</ele>
        <time>2012-07-14T14:31:40Z</time>
      </trkpt>
      <trkpt lat="46.10717" lon="6.42468">
        <ele>954</ele>
        <time>2012-07-14T14:31:41Z</time>
      </trkpt>
      <trkpt lat="46.1072" lon="6.42447">
        <ele>954</ele>
        <time>2012-07-14T14:31:42Z</time>
      </trkpt>
      <trkpt lat="46.10722" lon="6.42427">
        <ele>948</ele>
        <time>2012-07-14T14:31:43Z</time>
      </trkpt>
      <trkpt lat="46.10723" lon="6.42407">
        <ele>948</ele>
        <time>2012-07-14T14:31:44Z</time>
      </trkpt>
      <trkpt lat="46.10725" lon="6.42388">
        <ele>948</ele>
        <time>2012-07-14T14:31:45Z</time>
      </trkpt>
      <trkpt lat="46.10726" lon="6.4237">
        <ele>948</ele>
        <time>2012-07-14T14:31:46Z</time>
      </trkpt>
      <trkpt lat="46.10729" lon="6.4235">
        <ele>943</ele>
        <time>2012-07-14T14:31:47Z</time>
      </trkpt>
      <trkpt lat="46.10731" lon="6.42331">
        <ele>943</ele>
        <time>2012-07-14T14:31:48Z</time>
      </trkpt>
      <trkpt lat="46.10735" lon="6.42313">
        <ele>943</ele>
        <time>2012-07-14T14:31:49Z</time>
      </trkpt>
      <trkpt lat="46.10738" lon="6.42296">
        <ele>943</ele>
        <time>2012-07-14T14:31:50Z</time>
      </trkpt>
      <trkpt lat="46.10741" lon="6.4228">
        <ele>943</ele>
        <time>2012-07-14T14:31:51Z</time>
      </trkpt>
      <trkpt lat="46.10745" lon="6.42265">
        <ele>943</ele>
        <time>2012-07-14T14:31:52Z</time>
      </trkpt>
      <trkpt lat="46.1075" lon="6.42251">
        <ele>943</ele>
        <time>2012-07-14T14:31:53Z</time>
      </trkpt>
      <trkpt lat="46.10756" lon="6.42239">
        <ele>937</ele>
        <time>2012-07-14T14:31:54Z</time>
      </trkpt>
      <trkpt lat="46.10762" lon="6.42227">
        <ele>937</ele>
        <time>2012-07-14T14:31:55Z</time>
      </trkpt>
      <trkpt lat="46.10767" lon="6.42215">
        <ele>937</ele>
        <time>2012-07-14T14:31:56Z</time>
      </trkpt>
      <trkpt lat="46.10771" lon="6.42202">
        <ele>937</ele>
        <time>2012-07-14T14:31:57Z</time>
      </trkpt>
      <trkpt lat="46.10775" lon="6.42188">
        <ele>937</ele>
        <time>2012-07-14T14:31:58Z</time>
      </trkpt>
      <trkpt lat="46.10776" lon="6.42172">
        <ele>931</ele>
        <time>2012-07-14T14:31:59Z</time>
      </trkpt>
      <trkpt lat="46.10776" lon="6.42157">
        <ele>931</ele>
        <time>2012-07-14T14:32:00Z</time>
      </trkpt>
      <trkpt lat="46.10777" lon="6.42142">
        <ele>931</ele>
        <time>2012-07-14T14:32:01Z</time>
      </trkpt>
      <trkpt lat="46.10777" lon="6.42127">
        <ele>931</ele>
        <time>2012-07-14T14:32:02Z</time>
      </trkpt>
      <trkpt lat="46.10778" lon="6.42114">
        <ele>931</ele>
        <time>2012-07-14T14:32:03Z</time>
      </trkpt>
      <trkpt lat="46.10779" lon="6.421">
        <ele>931</ele>
        <time>2012-07-14T14:32:04Z</time>
      </trkpt>
      <trkpt lat="46.10782" lon="6.42085">
        <ele>931</ele>
        <time>2012-07-14T14:32:05Z</time>
      </trkpt>
      <trkpt lat="46.10786" lon="6.4207">
        <ele>931</ele>
        <time>2012-07-14T14:32:06Z</time>
      </trkpt>
      <trkpt lat="46.1079" lon="6.42055">
        <ele>926</ele>
        <time>2012-07-14T14:32:07Z</time>
      </trkpt>
      <trkpt lat="46.10795" lon="6.42039">
        <ele>926</ele>
        <time>2012-07-14T14:32:08Z</time>
      </trkpt>
      <trkpt lat="46.108" lon="6.42023">
        <ele>926</ele>
        <time>2012-07-14T14:32:09Z</time>
      </trkpt>
      <trkpt lat="46.10806" lon="6.42007">
        <ele>926</ele>
        <time>2012-07-14T14:32:10Z</time>
      </trkpt>
      <trkpt lat="46.10813" lon="6.4199">
        <ele>926</ele>
        <time>2012-07-14T14:32:11Z</time>
      </trkpt>
      <trkpt lat="46.10821" lon="6.41973">
        <ele>920</ele>
        <time>2012-07-14T14:32:12Z</time>
      </trkpt>
      <trkpt lat="46.10828" lon="6.41956">
        <ele>920</ele>
        <time>2012-07-14T14:32:13Z</time>
      </trkpt>
      <trkpt lat="46.10835" lon="6.41941">
        <ele>920</ele>
        <time>2012-07-14T14:32:14Z</time>
      </trkpt>
      <trkpt lat="46.10841" lon="6.41924">
        <ele>920</ele>
        <time>2012-07-14T14:32:15Z</time>
      </trkpt>
      <trkpt lat="46.10848" lon="6.41909">
        <ele>915</ele>
        <time>2012-07-14T14:32:16Z</time>
      </trkpt>
      <trkpt lat="46.10856" lon="6.41892">
        <ele>915</ele>
        <time>2012-07-14T14:32:17Z</time>
      </trkpt>
      <trkpt lat="46.10863" lon="6.41876">
        <ele>915</ele>
        <time>2012-07-14T14:32:18Z</time>
      </trkpt>
      <trkpt lat="46.10869" lon="6.41861">
        <ele>915</ele>
        <time>2012-07-14T14:32:19Z</time>
      </trkpt>
      <trkpt lat="46.10876" lon="6.41845">
        <ele>915</ele>
        <time>2012-07-14T14:32:20Z</time>
      </trkpt>
      <trkpt lat="46.10883" lon="6.4183">
        <ele>909</ele>
        <time>2012-07-14T14:32:21Z</time>
      </trkpt>
      <trkpt lat="46.1089" lon="6.41814">
        <ele>909</ele>
        <time>2012-07-14T14:32:22Z</time>
      </trkpt>
      <trkpt lat="46.10898" lon="6.418">
        <ele>909</ele>
        <time>2012-07-14T14:32:23Z</time>
      </trkpt>
      <trkpt lat="46.10905" lon="6.41787">
        <ele>909</ele>
        <time>2012-07-14T14:32:24Z</time>
      </trkpt>
      <trkpt lat="46.10912" lon="6.41775">
        <ele>909</ele>
        <time>2012-07-14T14:32:25Z</time>
      </trkpt>
      <trkpt lat="46.10918" lon="6.41765">
        <ele>909</ele>
        <time>2012-07-14T14:32:26Z</time>
      </trkpt>
      <trkpt lat="46.10925" lon="6.41754">
        <ele>904</ele>
        <time>2012-07-14T14:32:27Z</time>
      </trkpt>
      <trkpt lat="46.10935" lon="6.41731">
        <ele>904</ele>
        <time>2012-07-14T14:32:29Z</time>
      </trkpt>
      <trkpt lat="46.1094" lon="6.4172">
        <ele>904</ele>
        <time>2012-07-14T14:32:30Z</time>
      </trkpt>
      <trkpt lat="46.10942" lon="6.41707">
        <ele>904</ele>
        <time>2012-07-14T14:32:31Z</time>
      </trkpt>
      <trkpt lat="46.10942" lon="6.41694">
        <ele>904</ele>
        <time>2012-07-14T14:32:32Z</time>
      </trkpt>
      <trkpt lat="46.10939" lon="6.41668">
        <ele>904</ele>
        <time>2012-07-14T14:32:34Z</time>
      </trkpt>
      <trkpt lat="46.10935" lon="6.41655">
        <ele>904</ele>
        <time>2012-07-14T14:32:35Z</time>
      </trkpt>
      <trkpt lat="46.10931" lon="6.41643">
        <ele>904</ele>
        <time>2012-07-14T14:32:36Z</time>
      </trkpt>
      <trkpt lat="46.10926" lon="6.41631">
        <ele>904</ele>
        <time>2012-07-14T14:32:37Z</time>
      </trkpt>
      <trkpt lat="46.1092" lon="6.4162">
        <ele>904</ele>
        <time>2012-07-14T14:32:38Z</time>
      </trkpt>
      <trkpt lat="46.10907" lon="6.41606">
        <ele>904</ele>
        <time>2012-07-14T14:32:40Z</time>
      </trkpt>
      <trkpt lat="46.1089" lon="6.41601">
        <ele>904</ele>
        <time>2012-07-14T14:32:42Z</time>
      </trkpt>
      <trkpt lat="46.10873" lon="6.41606">
        <ele>904</ele>
        <time>2012-07-14T14:32:44Z</time>
      </trkpt>
      <trkpt lat="46.10858" lon="6.41619">
        <ele>897</ele>
        <time>2012-07-14T14:32:46Z</time>
      </trkpt>
      <trkpt lat="46.10852" lon="6.4163">
        <ele>897</ele>
        <time>2012-07-14T14:32:47Z</time>
      </trkpt>
      <trkpt lat="46.10848" lon="6.41642">
        <ele>897</ele>
        <time>2012-07-14T14:32:48Z</time>
      </trkpt>
      <trkpt lat="46.10844" lon="6.41659">
        <ele>897</ele>
        <time>2012-07-14T14:32:49Z</time>
      </trkpt>
      <trkpt lat="46.10843" lon="6.41679">
        <ele>897</ele>
        <time>2012-07-14T14:32:50Z</time>
      </trkpt>
      <trkpt lat="46.1084" lon="6.41699">
        <ele>897</ele>
        <time>2012-07-14T14:32:51Z</time>
      </trkpt>
      <trkpt lat="46.10836" lon="6.41718">
        <ele>897</ele>
        <time>2012-07-14T14:32:52Z</time>
      </trkpt>
      <trkpt lat="46.1083" lon="6.41736">
        <ele>897</ele>
        <time>2012-07-14T14:32:53Z</time>
      </trkpt>
      <trkpt lat="46.10825" lon="6.41752">
        <ele>897</ele>
        <time>2012-07-14T14:32:54Z</time>
      </trkpt>
      <trkpt lat="46.10819" lon="6.41765">
        <ele>897</ele>
        <time>2012-07-14T14:32:55Z</time>
      </trkpt>
      <trkpt lat="46.10813" lon="6.41777">
        <ele>897</ele>
        <time>2012-07-14T14:32:56Z</time>
      </trkpt>
      <trkpt lat="46.10807" lon="6.41787">
        <ele>897</ele>
        <time>2012-07-14T14:32:57Z</time>
      </trkpt>
      <trkpt lat="46.10793" lon="6.41795">
        <ele>891</ele>
        <time>2012-07-14T14:32:59Z</time>
      </trkpt>
      <trkpt lat="46.1078" lon="6.41783">
        <ele>891</ele>
        <time>2012-07-14T14:33:01Z</time>
      </trkpt>
      <trkpt lat="46.10772" lon="6.41765">
        <ele>885</ele>
        <time>2012-07-14T14:33:03Z</time>
      </trkpt>
      <trkpt lat="46.10767" lon="6.4174">
        <ele>885</ele>
        <time>2012-07-14T14:33:05Z</time>
      </trkpt>
      <trkpt lat="46.10764" lon="6.41724">
        <ele>878</ele>
        <time>2012-07-14T14:33:06Z</time>
      </trkpt>
      <trkpt lat="46.10757" lon="6.41706">
        <ele>878</ele>
        <time>2012-07-14T14:33:07Z</time>
      </trkpt>
      <trkpt lat="46.10752" lon="6.4169">
        <ele>878</ele>
        <time>2012-07-14T14:33:08Z</time>
      </trkpt>
      <trkpt lat="46.10747" lon="6.41674">
        <ele>878</ele>
        <time>2012-07-14T14:33:09Z</time>
      </trkpt>
      <trkpt lat="46.1074" lon="6.41659">
        <ele>872</ele>
        <time>2012-07-14T14:33:10Z</time>
      </trkpt>
      <trkpt lat="46.10734" lon="6.41647">
        <ele>872</ele>
        <time>2012-07-14T14:33:11Z</time>
      </trkpt>
      <trkpt lat="46.10729" lon="6.41635">
        <ele>872</ele>
        <time>2012-07-14T14:33:12Z</time>
      </trkpt>
      <trkpt lat="46.10719" lon="6.41614">
        <ele>872</ele>
        <time>2012-07-14T14:33:14Z</time>
      </trkpt>
      <trkpt lat="46.10711" lon="6.41592">
        <ele>872</ele>
        <time>2012-07-14T14:33:16Z</time>
      </trkpt>
      <trkpt lat="46.10704" lon="6.41571">
        <ele>872</ele>
        <time>2012-07-14T14:33:18Z</time>
      </trkpt>
      <trkpt lat="46.10699" lon="6.41547">
        <ele>872</ele>
        <time>2012-07-14T14:33:20Z</time>
      </trkpt>
      <trkpt lat="46.10695" lon="6.41521">
        <ele>872</ele>
        <time>2012-07-14T14:33:22Z</time>
      </trkpt>
      <trkpt lat="46.10694" lon="6.41496">
        <ele>872</ele>
        <time>2012-07-14T14:33:24Z</time>
      </trkpt>
      <trkpt lat="46.10694" lon="6.41476">
        <ele>872</ele>
        <time>2012-07-14T14:33:26Z</time>
      </trkpt>
      <trkpt lat="46.10691" lon="6.41464">
        <ele>872</ele>
        <time>2012-07-14T14:33:28Z</time>
      </trkpt>
      <trkpt lat="46.1068" lon="6.41468">
        <ele>872</ele>
        <time>2012-07-14T14:33:31Z</time>
      </trkpt>
      <trkpt lat="46.10669" lon="6.41479">
        <ele>872</ele>
        <time>2012-07-14T14:33:33Z</time>
      </trkpt>
      <trkpt lat="46.10658" lon="6.41493">
        <ele>872</ele>
        <time>2012-07-14T14:33:35Z</time>
      </trkpt>
      <trkpt lat="46.10649" lon="6.41511">
        <ele>878</ele>
        <time>2012-07-14T14:33:37Z</time>
      </trkpt>
      <trkpt lat="46.10643" lon="6.41526">
        <ele>878</ele>
        <time>2012-07-14T14:33:39Z</time>
      </trkpt>
      <trkpt lat="46.10634" lon="6.41542">
        <ele>886</ele>
        <time>2012-07-14T14:34:23Z</time>
      </trkpt>
      <trkpt lat="46.10629" lon="6.41562">
        <ele>886</ele>
        <time>2012-07-14T14:34:25Z</time>
      </trkpt>
      <trkpt lat="46.10624" lon="6.41583">
        <ele>886</ele>
        <time>2012-07-14T14:34:27Z</time>
      </trkpt>
      <trkpt lat="46.10619" lon="6.41603">
        <ele>886</ele>
        <time>2012-07-14T14:34:29Z</time>
      </trkpt>
      <trkpt lat="46.10616" lon="6.41622">
        <ele>892</ele>
        <time>2012-07-14T14:34:31Z</time>
      </trkpt>
      <trkpt lat="46.10614" lon="6.41641">
        <ele>892</ele>
        <time>2012-07-14T14:34:33Z</time>
      </trkpt>
      <trkpt lat="46.10612" lon="6.41659">
        <ele>892</ele>
        <time>2012-07-14T14:34:35Z</time>
      </trkpt>
      <trkpt lat="46.10612" lon="6.41676">
        <ele>892</ele>
        <time>2012-07-14T14:34:37Z</time>
      </trkpt>
      <trkpt lat="46.10614" lon="6.4169">
        <ele>898</ele>
        <time>2012-07-14T14:34:39Z</time>
      </trkpt>
      <trkpt lat="46.10622" lon="6.41701">
        <ele>898</ele>
        <time>2012-07-14T14:34:42Z</time>
      </trkpt>
      <trkpt lat="46.10622" lon="6.41714">
        <ele>898</ele>
        <time>2012-07-14T14:34:47Z</time>
      </trkpt>
      <trkpt lat="46.10613" lon="6.41717">
        <ele>898</ele>
        <time>2012-07-14T14:35:07Z</time>
      </trkpt>
      <trkpt lat="46.10605" lon="6.41728">
        <ele>903</ele>
        <time>2012-07-14T14:35:09Z</time>
      </trkpt>
      <trkpt lat="46.10597" lon="6.41739">
        <ele>903</ele>
        <time>2012-07-14T14:35:11Z</time>
      </trkpt>
      <trkpt lat="46.10589" lon="6.41752">
        <ele>909</ele>
        <time>2012-07-14T14:35:13Z</time>
      </trkpt>
      <trkpt lat="46.1058" lon="6.41766">
        <ele>915</ele>
        <time>2012-07-14T14:35:15Z</time>
      </trkpt>
      <trkpt lat="46.10574" lon="6.41777">
        <ele>920</ele>
        <time>2012-07-14T14:35:17Z</time>
      </trkpt>
      <trkpt lat="46.10566" lon="6.41786">
        <ele>927</ele>
        <time>2012-07-14T14:35:19Z</time>
      </trkpt>
      <trkpt lat="46.10559" lon="6.41802">
        <ele>938</ele>
        <time>2012-07-14T14:35:22Z</time>
      </trkpt>
      <trkpt lat="46.10552" lon="6.41813">
        <ele>948</ele>
        <time>2012-07-14T14:35:25Z</time>
      </trkpt>
      <trkpt lat="46.10543" lon="6.418">
        <ele>955</ele>
        <time>2012-07-14T14:36:25Z</time>
      </trkpt>
      <trkpt lat="46.10535" lon="6.41789">
        <ele>955</ele>
        <time>2012-07-14T14:36:27Z</time>
      </trkpt>
      <trkpt lat="46.10529" lon="6.41779">
        <ele>955</ele>
        <time>2012-07-14T14:36:29Z</time>
      </trkpt>
      <trkpt lat="46.10522" lon="6.41768">
        <ele>955</ele>
        <time>2012-07-14T14:36:31Z</time>
      </trkpt>
      <trkpt lat="46.10513" lon="6.41764">
        <ele>955</ele>
        <time>2012-07-14T14:36:35Z</time>
      </trkpt>
      <trkpt lat="46.1052" lon="6.41755">
        <ele>962</ele>
        <time>2012-07-14T14:37:10Z</time>
      </trkpt>
      <trkpt lat="46.1053" lon="6.41756">
        <ele>962</ele>
        <time>2012-07-14T14:37:28Z</time>
      </trkpt>
      <trkpt lat="46.1052" lon="6.4176">
        <ele>968</ele>
        <time>2012-07-14T14:37:52Z</time>
      </trkpt>
      <trkpt lat="46.10516" lon="6.41748">
        <ele>968</ele>
        <time>2012-07-14T14:38:10Z</time>
      </trkpt>
      <trkpt lat="46.10503" lon="6.41743">
        <ele>968</ele>
        <time>2012-07-14T14:38:13Z</time>
      </trkpt>
      <trkpt lat="46.10495" lon="6.41736">
        <ele>968</ele>
        <time>2012-07-14T14:38:15Z</time>
      </trkpt>
      <trkpt lat="46.10487" lon="6.41728">
        <ele>976</ele>
        <time>2012-07-14T14:38:20Z</time>
      </trkpt>
      <trkpt lat="46.10477" lon="6.41727">
        <ele>976</ele>
        <time>2012-07-14T14:38:33Z</time>
      </trkpt>
      <trkpt lat="46.10482" lon="6.41715">
        <ele>956</ele>
        <time>2012-07-14T14:39:07Z</time>
      </trkpt>
      <trkpt lat="46.10475" lon="6.41706">
        <ele>970</ele>
        <time>2012-07-14T14:39:18Z</time>
      </trkpt>
      <trkpt lat="46.10466" lon="6.41705">
        <ele>970</ele>
        <time>2012-07-14T14:39:41Z</time>
      </trkpt>
      <trkpt lat="46.10474" lon="6.41697">
        <ele>979</ele>
        <time>2012-07-14T14:40:15Z</time>
      </trkpt>
      <trkpt lat="46.10466" lon="6.41685">
        <ele>979</ele>
        <time>2012-07-14T14:41:11Z</time>
      </trkpt>
      <trkpt lat="46.10457" lon="6.41674">
        <ele>979</ele>
        <time>2012-07-14T14:41:13Z</time>
      </trkpt>
      <trkpt lat="46.10448" lon="6.41665">
        <ele>987</ele>
        <time>2012-07-14T14:41:15Z</time>
      </trkpt>
      <trkpt lat="46.1044" lon="6.41655">
        <ele>987</ele>
        <time>2012-07-14T14:41:17Z</time>
      </trkpt>
      <trkpt lat="46.10433" lon="6.41645">
        <ele>993</ele>
        <time>2012-07-14T14:41:19Z</time>
      </trkpt>
      <trkpt lat="46.10425" lon="6.41639">
        <ele>993</ele>
        <time>2012-07-14T14:41:21Z</time>
      </trkpt>
      <trkpt lat="46.10417" lon="6.41631">
        <ele>1011</ele>
        <time>2012-07-14T14:41:32Z</time>
      </trkpt>
      <trkpt lat="46.10407" lon="6.41625">
        <ele>1024</ele>
        <time>2012-07-14T14:41:42Z</time>
      </trkpt>
      <trkpt lat="46.10401" lon="6.41607">
        <ele>1024</ele>
        <time>2012-07-14T14:41:59Z</time>
      </trkpt>
      <trkpt lat="46.10394" lon="6.41597">
        <ele>1016</ele>
        <time>2012-07-14T14:42:01Z</time>
      </trkpt>
      <trkpt lat="46.10384" lon="6.41584">
        <ele>1016</ele>
        <time>2012-07-14T14:42:03Z</time>
      </trkpt>
      <trkpt lat="46.10375" lon="6.41575">
        <ele>1010</ele>
        <time>2012-07-14T14:42:05Z</time>
      </trkpt>
      <trkpt lat="46.10366" lon="6.41565">
        <ele>1010</ele>
        <time>2012-07-14T14:42:07Z</time>
      </trkpt>
      <trkpt lat="46.10354" lon="6.41554">
        <ele>1010</ele>
        <time>2012-07-14T14:42:09Z</time>
      </trkpt>
      <trkpt lat="46.10343" lon="6.41539">
        <ele>1010</ele>
        <time>2012-07-14T14:42:11Z</time>
      </trkpt>
      <trkpt lat="46.10335" lon="6.41525">
        <ele>1010</ele>
        <time>2012-07-14T14:42:13Z</time>
      </trkpt>
      <trkpt lat="46.10325" lon="6.41508">
        <ele>1010</ele>
        <time>2012-07-14T14:42:15Z</time>
      </trkpt>
      <trkpt lat="46.10315" lon="6.41491">
        <ele>1010</ele>
        <time>2012-07-14T14:42:17Z</time>
      </trkpt>
      <trkpt lat="46.10307" lon="6.41477">
        <ele>1010</ele>
        <time>2012-07-14T14:42:19Z</time>
      </trkpt>
      <trkpt lat="46.10298" lon="6.41469">
        <ele>1026</ele>
        <time>2012-07-14T14:48:05Z</time>
      </trkpt>
      <trkpt lat="46.10288" lon="6.41456">
        <ele>1026</ele>
        <time>2012-07-14T14:48:08Z</time>
      </trkpt>
      <trkpt lat="46.10277" lon="6.41451">
        <ele>1026</ele>
        <time>2012-07-14T14:48:10Z</time>
      </trkpt>
      <trkpt lat="46.10267" lon="6.41446">
        <ele>1026</ele>
        <time>2012-07-14T14:48:12Z</time>
      </trkpt>
      <trkpt lat="46.10259" lon="6.41441">
        <ele>1026</ele>
        <time>2012-07-14T14:48:14Z</time>
      </trkpt>
      <trkpt lat="46.10247" lon="6.41433">
        <ele>1033</ele>
        <time>2012-07-14T14:48:17Z</time>
      </trkpt>
      <trkpt lat="46.10239" lon="6.41422">
        <ele>1033</ele>
        <time>2012-07-14T14:48:19Z</time>
      </trkpt>
      <trkpt lat="46.10231" lon="6.41411">
        <ele>1039</ele>
        <time>2012-07-14T14:48:21Z</time>
      </trkpt>
      <trkpt lat="46.10225" lon="6.41399">
        <ele>1039</ele>
        <time>2012-07-14T14:48:23Z</time>
      </trkpt>
      <trkpt lat="46.10219" lon="6.41388">
        <ele>1039</ele>
        <time>2012-07-14T14:48:25Z</time>
      </trkpt>
      <trkpt lat="46.10214" lon="6.41376">
        <ele>1039</ele>
        <time>2012-07-14T14:48:27Z</time>
      </trkpt>
      <trkpt lat="46.10205" lon="6.41362">
        <ele>1039</ele>
        <time>2012-07-14T14:48:30Z</time>
      </trkpt>
      <trkpt lat="46.10195" lon="6.41354">
        <ele>1039</ele>
        <time>2012-07-14T14:48:33Z</time>
      </trkpt>
      <trkpt lat="46.10186" lon="6.41344">
        <ele>1039</ele>
        <time>2012-07-14T14:48:36Z</time>
      </trkpt>
      <trkpt lat="46.10177" lon="6.4133">
        <ele>1034</ele>
        <time>2012-07-14T14:48:39Z</time>
      </trkpt>
      <trkpt lat="46.10167" lon="6.41315">
        <ele>1034</ele>
        <time>2012-07-14T14:48:42Z</time>
      </trkpt>
      <trkpt lat="46.10159" lon="6.41304">
        <ele>1034</ele>
        <time>2012-07-14T14:48:44Z</time>
      </trkpt>
      <trkpt lat="46.10153" lon="6.41294">
        <ele>1034</ele>
        <time>2012-07-14T14:48:46Z</time>
      </trkpt>
      <trkpt lat="46.10152" lon="6.41279">
        <ele>1029</ele>
        <time>2012-07-14T14:48:48Z</time>
      </trkpt>
      <trkpt lat="46.10148" lon="6.41262">
        <ele>1023</ele>
        <time>2012-07-14T14:48:51Z</time>
      </trkpt>
      <trkpt lat="46.10141" lon="6.41248">
        <ele>1013</ele>
        <time>2012-07-14T14:48:54Z</time>
      </trkpt>
      <trkpt lat="46.10136" lon="6.41235">
        <ele>1006</ele>
        <time>2012-07-14T14:48:56Z</time>
      </trkpt>
      <trkpt lat="46.10129" lon="6.41225">
        <ele>1001</ele>
        <time>2012-07-14T14:48:58Z</time>
      </trkpt>
      <trkpt lat="46.10124" lon="6.41208">
        <ele>992</ele>
        <time>2012-07-14T14:49:01Z</time>
      </trkpt>
      <trkpt lat="46.10127" lon="6.41194">
        <ele>992</ele>
        <time>2012-07-14T14:49:03Z</time>
      </trkpt>
      <trkpt lat="46.10133" lon="6.41175">
        <ele>982</ele>
        <time>2012-07-14T14:49:06Z</time>
      </trkpt>
      <trkpt lat="46.10138" lon="6.41163">
        <ele>982</ele>
        <time>2012-07-14T14:49:08Z</time>
      </trkpt>
      <trkpt lat="46.10144" lon="6.4115">
        <ele>982</ele>
        <time>2012-07-14T14:49:10Z</time>
      </trkpt>
      <trkpt lat="46.10143" lon="6.41133">
        <ele>982</ele>
        <time>2012-07-14T14:49:13Z</time>
      </trkpt>
      <trkpt lat="46.10146" lon="6.41115">
        <ele>982</ele>
        <time>2012-07-14T14:49:16Z</time>
      </trkpt>
      <trkpt lat="46.1015" lon="6.41103">
        <ele>976</ele>
        <time>2012-07-14T14:49:18Z</time>
      </trkpt>
      <trkpt lat="46.10159" lon="6.41092">
        <ele>976</ele>
        <time>2012-07-14T14:49:20Z</time>
      </trkpt>
      <trkpt lat="46.10169" lon="6.41081">
        <ele>976</ele>
        <time>2012-07-14T14:49:22Z</time>
      </trkpt>
      <trkpt lat="46.10179" lon="6.41076">
        <ele>976</ele>
        <time>2012-07-14T14:49:24Z</time>
      </trkpt>
      <trkpt lat="46.1019" lon="6.41071">
        <ele>971</ele>
        <time>2012-07-14T14:49:26Z</time>
      </trkpt>
      <trkpt lat="46.10201" lon="6.41067">
        <ele>971</ele>
        <time>2012-07-14T14:49:28Z</time>
      </trkpt>
      <trkpt lat="46.10214" lon="6.41067">
        <ele>971</ele>
        <time>2012-07-14T14:49:30Z</time>
      </trkpt>
      <trkpt lat="46.10224" lon="6.41065">
        <ele>971</ele>
        <time>2012-07-14T14:49:32Z</time>
      </trkpt>
      <trkpt lat="46.10237" lon="6.41065">
        <ele>971</ele>
        <time>2012-07-14T14:49:35Z</time>
      </trkpt>
      <trkpt lat="46.10247" lon="6.41069">
        <ele>971</ele>
        <time>2012-07-14T14:49:38Z</time>
      </trkpt>
      <trkpt lat="46.10257" lon="6.41065">
        <ele>971</ele>
        <time>2012-07-14T14:49:42Z</time>
      </trkpt>
      <trkpt lat="46.10257" lon="6.4105">
        <ele>971</ele>
        <time>2012-07-14T14:49:48Z</time>
      </trkpt>
      <trkpt lat="46.10252" lon="6.41039">
        <ele>971</ele>
        <time>2012-07-14T14:49:52Z</time>
      </trkpt>
      <trkpt lat="46.10242" lon="6.41025">
        <ele>962</ele>
        <time>2012-07-14T14:49:55Z</time>
      </trkpt>
      <trkpt lat="46.10233" lon="6.41017">
        <ele>962</ele>
        <time>2012-07-14T14:49:57Z</time>
      </trkpt>
      <trkpt lat="46.10224" lon="6.41014">
        <ele>962</ele>
        <time>2012-07-14T14:49:59Z</time>
      </trkpt>
      <trkpt lat="46.10214" lon="6.41012">
        <ele>962</ele>
        <time>2012-07-14T14:50:01Z</time>
      </trkpt>
      <trkpt lat="46.10204" lon="6.41005">
        <ele>952</ele>
        <time>2012-07-14T14:50:04Z</time>
      </trkpt>
      <trkpt lat="46.10191" lon="6.40996">
        <ele>945</ele>
        <time>2012-07-14T14:50:07Z</time>
      </trkpt>
      <trkpt lat="46.10179" lon="6.40986">
        <ele>945</ele>
        <time>2012-07-14T14:50:09Z</time>
      </trkpt>
      <trkpt lat="46.1017" lon="6.40977">
        <ele>937</ele>
        <time>2012-07-14T14:50:11Z</time>
      </trkpt>
      <trkpt lat="46.10161" lon="6.40968">
        <ele>931</ele>
        <time>2012-07-14T14:50:13Z</time>
      </trkpt>
      <trkpt lat="46.10151" lon="6.40961">
        <ele>931</ele>
        <time>2012-07-14T14:50:15Z</time>
      </trkpt>
      <trkpt lat="46.10139" lon="6.4096">
        <ele>931</ele>
        <time>2012-07-14T14:50:17Z</time>
      </trkpt>
      <trkpt lat="46.10126" lon="6.40959">
        <ele>931</ele>
        <time>2012-07-14T14:50:19Z</time>
      </trkpt>
      <trkpt lat="46.10112" lon="6.4096">
        <ele>943</ele>
        <time>2012-07-14T14:50:21Z</time>
      </trkpt>
      <trkpt lat="46.101" lon="6.40959">
        <ele>943</ele>
        <time>2012-07-14T14:50:23Z</time>
      </trkpt>
      <trkpt lat="46.10088" lon="6.40964">
        <ele>943</ele>
        <time>2012-07-14T14:50:25Z</time>
      </trkpt>
      <trkpt lat="46.10074" lon="6.40973">
        <ele>943</ele>
        <time>2012-07-14T14:50:27Z</time>
      </trkpt>
      <trkpt lat="46.10064" lon="6.40984">
        <ele>936</ele>
        <time>2012-07-14T14:50:29Z</time>
      </trkpt>
      <trkpt lat="46.10056" lon="6.40992">
        <ele>936</ele>
        <time>2012-07-14T14:50:31Z</time>
      </trkpt>
      <trkpt lat="46.10045" lon="6.40998">
        <ele>936</ele>
        <time>2012-07-14T14:50:33Z</time>
      </trkpt>
      <trkpt lat="46.10032" lon="6.41003">
        <ele>942</ele>
        <time>2012-07-14T14:50:35Z</time>
      </trkpt>
      <trkpt lat="46.10013" lon="6.41003">
        <ele>947</ele>
        <time>2012-07-14T14:50:37Z</time>
      </trkpt>
      <trkpt lat="46.09997" lon="6.41001">
        <ele>947</ele>
        <time>2012-07-14T14:50:39Z</time>
      </trkpt>
      <trkpt lat="46.0998" lon="6.41003">
        <ele>947</ele>
        <time>2012-07-14T14:50:41Z</time>
      </trkpt>
      <trkpt lat="46.09968" lon="6.41005">
        <ele>947</ele>
        <time>2012-07-14T14:50:43Z</time>
      </trkpt>
      <trkpt lat="46.09957" lon="6.41005">
        <ele>947</ele>
        <time>2012-07-14T14:50:47Z</time>
      </trkpt>
      <trkpt lat="46.09947" lon="6.41003">
        <ele>947</ele>
        <time>2012-07-14T14:52:01Z</time>
      </trkpt>
      <trkpt lat="46.09937" lon="6.41005">
        <ele>947</ele>
        <time>2012-07-14T14:52:03Z</time>
      </trkpt>
      <trkpt lat="46.09927" lon="6.41014">
        <ele>947</ele>
        <time>2012-07-14T14:52:06Z</time>
      </trkpt>
      <trkpt lat="46.09922" lon="6.41025">
        <ele>938</ele>
        <time>2012-07-14T14:52:11Z</time>
      </trkpt>
      <trkpt lat="46.09927" lon="6.41037">
        <ele>938</ele>
        <time>2012-07-14T14:52:15Z</time>
      </trkpt>
      <trkpt lat="46.09931" lon="6.4105">
        <ele>930</ele>
        <time>2012-07-14T14:52:23Z</time>
      </trkpt>
      <trkpt lat="46.09937" lon="6.41066">
        <ele>922</ele>
        <time>2012-07-14T14:52:26Z</time>
      </trkpt>
      <trkpt lat="46.09939" lon="6.41082">
        <ele>922</ele>
        <time>2012-07-14T14:52:28Z</time>
      </trkpt>
      <trkpt lat="46.09939" lon="6.41097">
        <ele>916</ele>
        <time>2012-07-14T14:52:31Z</time>
      </trkpt>
      <trkpt lat="46.09934" lon="6.41109">
        <ele>916</ele>
        <time>2012-07-14T14:52:32Z</time>
      </trkpt>
      <trkpt lat="46.09931" lon="6.41127">
        <ele>911</ele>
        <time>2012-07-14T14:52:34Z</time>
      </trkpt>
      <trkpt lat="46.09929" lon="6.41143">
        <ele>911</ele>
        <time>2012-07-14T14:52:36Z</time>
      </trkpt>
      <trkpt lat="46.09929" lon="6.4116">
        <ele>903</ele>
        <time>2012-07-14T14:52:39Z</time>
      </trkpt>
      <trkpt lat="46.09925" lon="6.41175">
        <ele>903</ele>
        <time>2012-07-14T14:52:43Z</time>
      </trkpt>
      <trkpt lat="46.09924" lon="6.41193">
        <ele>903</ele>
        <time>2012-07-14T14:52:46Z</time>
      </trkpt>
      <trkpt lat="46.09925" lon="6.41209">
        <ele>897</ele>
        <time>2012-07-14T14:52:49Z</time>
      </trkpt>
      <trkpt lat="46.09925" lon="6.41223">
        <ele>897</ele>
        <time>2012-07-14T14:52:53Z</time>
      </trkpt>
      <trkpt lat="46.09924" lon="6.41238">
        <ele>892</ele>
        <time>2012-07-14T14:52:57Z</time>
      </trkpt>
      <trkpt lat="46.09926" lon="6.41257">
        <ele>892</ele>
        <time>2012-07-14T14:53:00Z</time>
      </trkpt>
      <trkpt lat="46.09921" lon="6.41273">
        <ele>892</ele>
        <time>2012-07-14T14:53:02Z</time>
      </trkpt>
      <trkpt lat="46.09921" lon="6.4129">
        <ele>897</ele>
        <time>2012-07-14T14:53:05Z</time>
      </trkpt>
      <trkpt lat="46.09928" lon="6.41301">
        <ele>886</ele>
        <time>2012-07-14T14:53:12Z</time>
      </trkpt>
      <trkpt lat="46.09941" lon="6.41301">
        <ele>854</ele>
        <time>2012-07-14T14:53:36Z</time>
      </trkpt>
      <trkpt lat="46.09951" lon="6.413">
        <ele>843</ele>
        <time>2012-07-14T14:53:42Z</time>
      </trkpt>
      <trkpt lat="46.0994" lon="6.41299">
        <ele>858</ele>
        <time>2012-07-14T14:53:57Z</time>
      </trkpt>
      <trkpt lat="46.0993" lon="6.41297">
        <ele>865</ele>
        <time>2012-07-14T14:54:00Z</time>
      </trkpt>
      <trkpt lat="46.09919" lon="6.41289">
        <ele>870</ele>
        <time>2012-07-14T14:54:03Z</time>
      </trkpt>
      <trkpt lat="46.09907" lon="6.41283">
        <ele>870</ele>
        <time>2012-07-14T14:54:07Z</time>
      </trkpt>
      <trkpt lat="46.09897" lon="6.41279">
        <ele>876</ele>
        <time>2012-07-14T14:54:10Z</time>
      </trkpt>
      <trkpt lat="46.09887" lon="6.41269">
        <ele>876</ele>
        <time>2012-07-14T14:54:13Z</time>
      </trkpt>
      <trkpt lat="46.09882" lon="6.41255">
        <ele>876</ele>
        <time>2012-07-14T14:54:16Z</time>
      </trkpt>
      <trkpt lat="46.09874" lon="6.41243">
        <ele>884</ele>
        <time>2012-07-14T14:54:20Z</time>
      </trkpt>
      <trkpt lat="46.09868" lon="6.41232">
        <ele>884</ele>
        <time>2012-07-14T14:54:25Z</time>
      </trkpt>
      <trkpt lat="46.09861" lon="6.41218">
        <ele>884</ele>
        <time>2012-07-14T14:54:30Z</time>
      </trkpt>
      <trkpt lat="46.09851" lon="6.41211">
        <ele>884</ele>
        <time>2012-07-14T14:54:34Z</time>
      </trkpt>
      <trkpt lat="46.09841" lon="6.41207">
        <ele>864</ele>
        <time>2012-07-14T14:54:44Z</time>
      </trkpt>
      <trkpt lat="46.09833" lon="6.41198">
        <ele>864</ele>
        <time>2012-07-14T14:54:48Z</time>
      </trkpt>
      <trkpt lat="46.09829" lon="6.41183">
        <ele>864</ele>
        <time>2012-07-14T14:54:53Z</time>
      </trkpt>
      <trkpt lat="46.0982" lon="6.41177">
        <ele>864</ele>
        <time>2012-07-14T14:54:57Z</time>
      </trkpt>
      <trkpt lat="46.09814" lon="6.41165">
        <ele>850</ele>
        <time>2012-07-14T14:55:41Z</time>
      </trkpt>
      <trkpt lat="46.09804" lon="6.41158">
        <ele>850</ele>
        <time>2012-07-14T14:55:45Z</time>
      </trkpt>
      <trkpt lat="46.09799" lon="6.41147">
        <ele>838</ele>
        <time>2012-07-14T14:55:49Z</time>
      </trkpt>
      <trkpt lat="46.09792" lon="6.41138">
        <ele>838</ele>
        <time>2012-07-14T14:55:53Z</time>
      </trkpt>
      <trkpt lat="46.09782" lon="6.41129">
        <ele>831</ele>
        <time>2012-07-14T14:55:59Z</time>
      </trkpt>
      <trkpt lat="46.09774" lon="6.41119">
        <ele>831</ele>
        <time>2012-07-14T14:56:03Z</time>
      </trkpt>
      <trkpt lat="46.09761" lon="6.41122">
        <ele>820</ele>
        <time>2012-07-14T14:56:07Z</time>
      </trkpt>
      <trkpt lat="46.09751" lon="6.41129">
        <ele>820</ele>
        <time>2012-07-14T14:56:10Z</time>
      </trkpt>
      <trkpt lat="46.09742" lon="6.41125">
        <ele>828</ele>
        <time>2012-07-14T14:56:56Z</time>
      </trkpt>
      <trkpt lat="46.09751" lon="6.41132">
        <ele>817</ele>
        <time>2012-07-14T14:59:35Z</time>
      </trkpt>
      <trkpt lat="46.09741" lon="6.41132">
        <ele>837</ele>
        <time>2012-07-14T14:59:44Z</time>
      </trkpt>
      <trkpt lat="46.09734" lon="6.41141">
        <ele>837</ele>
        <time>2012-07-14T15:00:10Z</time>
      </trkpt>
      <trkpt lat="46.09725" lon="6.4115">
        <ele>828</ele>
        <time>2012-07-14T15:00:14Z</time>
      </trkpt>
      <trkpt lat="46.09717" lon="6.4116">
        <ele>819</ele>
        <time>2012-07-14T15:00:17Z</time>
      </trkpt>
      <trkpt lat="46.09711" lon="6.4117">
        <ele>819</ele>
        <time>2012-07-14T15:00:19Z</time>
      </trkpt>
      <trkpt lat="46.09703" lon="6.41181">
        <ele>813</ele>
        <time>2012-07-14T15:00:21Z</time>
      </trkpt>
      <trkpt lat="46.09697" lon="6.41191">
        <ele>813</ele>
        <time>2012-07-14T15:00:23Z</time>
      </trkpt>
      <trkpt lat="46.09692" lon="6.41202">
        <ele>805</ele>
        <time>2012-07-14T15:00:26Z</time>
      </trkpt>
      <trkpt lat="46.09687" lon="6.41215">
        <ele>800</ele>
        <time>2012-07-14T15:00:30Z</time>
      </trkpt>
      <trkpt lat="46.09683" lon="6.4123">
        <ele>794</ele>
        <time>2012-07-14T15:00:35Z</time>
      </trkpt>
      <trkpt lat="46.09674" lon="6.4123">
        <ele>786</ele>
        <time>2012-07-14T15:00:40Z</time>
      </trkpt>
      <trkpt lat="46.09664" lon="6.41224">
        <ele>786</ele>
        <time>2012-07-14T15:00:43Z</time>
      </trkpt>
      <trkpt lat="46.09653" lon="6.4122">
        <ele>778</ele>
        <time>2012-07-14T15:00:47Z</time>
      </trkpt>
      <trkpt lat="46.09641" lon="6.41218">
        <ele>778</ele>
        <time>2012-07-14T15:00:51Z</time>
      </trkpt>
      <trkpt lat="46.09632" lon="6.41216">
        <ele>770</ele>
        <time>2012-07-14T15:00:54Z</time>
      </trkpt>
      <trkpt lat="46.09623" lon="6.4121">
        <ele>770</ele>
        <time>2012-07-14T15:01:23Z</time>
      </trkpt>
      <trkpt lat="46.09614" lon="6.41211">
        <ele>770</ele>
        <time>2012-07-14T15:01:27Z</time>
      </trkpt>
      <trkpt lat="46.09602" lon="6.41217">
        <ele>765</ele>
        <time>2012-07-14T15:01:30Z</time>
      </trkpt>
      <trkpt lat="46.09589" lon="6.41222">
        <ele>765</ele>
        <time>2012-07-14T15:01:32Z</time>
      </trkpt>
      <trkpt lat="46.09577" lon="6.41224">
        <ele>758</ele>
        <time>2012-07-14T15:01:34Z</time>
      </trkpt>
      <trkpt lat="46.09565" lon="6.41228">
        <ele>758</ele>
        <time>2012-07-14T15:01:36Z</time>
      </trkpt>
      <trkpt lat="46.09554" lon="6.41235">
        <ele>758</ele>
        <time>2012-07-14T15:01:38Z</time>
      </trkpt>
      <trkpt lat="46.09542" lon="6.41237">
        <ele>753</ele>
        <time>2012-07-14T15:01:41Z</time>
      </trkpt>
      <trkpt lat="46.09531" lon="6.41234">
        <ele>748</ele>
        <time>2012-07-14T15:01:45Z</time>
      </trkpt>
      <trkpt lat="46.09522" lon="6.41234">
        <ele>748</ele>
        <time>2012-07-14T15:01:51Z</time>
      </trkpt>
      <trkpt lat="46.09511" lon="6.41241">
        <ele>748</ele>
        <time>2012-07-14T15:02:02Z</time>
      </trkpt>
      <trkpt lat="46.09502" lon="6.41252">
        <ele>748</ele>
        <time>2012-07-14T15:02:05Z</time>
      </trkpt>
      <trkpt lat="46.09493" lon="6.4126">
        <ele>748</ele>
        <time>2012-07-14T15:02:08Z</time>
      </trkpt>
      <trkpt lat="46.09485" lon="6.41268">
        <ele>748</ele>
        <time>2012-07-14T15:02:12Z</time>
      </trkpt>
      <trkpt lat="46.09476" lon="6.41259">
        <ele>739</ele>
        <time>2012-07-14T15:02:16Z</time>
      </trkpt>
      <trkpt lat="46.09473" lon="6.41246">
        <ele>739</ele>
        <time>2012-07-14T15:02:18Z</time>
      </trkpt>
      <trkpt lat="46.09471" lon="6.41233">
        <ele>729</ele>
        <time>2012-07-14T15:02:22Z</time>
      </trkpt>
      <trkpt lat="46.0946" lon="6.41226">
        <ele>729</ele>
        <time>2012-07-14T15:02:25Z</time>
      </trkpt>
      <trkpt lat="46.09451" lon="6.41224">
        <ele>729</ele>
        <time>2012-07-14T15:02:27Z</time>
      </trkpt>
      <trkpt lat="46.0944" lon="6.41226">
        <ele>734</ele>
        <time>2012-07-14T15:02:29Z</time>
      </trkpt>
      <trkpt lat="46.0943" lon="6.41228">
        <ele>734</ele>
        <time>2012-07-14T15:02:31Z</time>
      </trkpt>
      <trkpt lat="46.0942" lon="6.41226">
        <ele>726</ele>
        <time>2012-07-14T15:02:33Z</time>
      </trkpt>
      <trkpt lat="46.09411" lon="6.41217">
        <ele>726</ele>
        <time>2012-07-14T15:02:36Z</time>
      </trkpt>
      <trkpt lat="46.094" lon="6.41214">
        <ele>718</ele>
        <time>2012-07-14T15:02:40Z</time>
      </trkpt>
      <trkpt lat="46.09389" lon="6.41208">
        <ele>711</ele>
        <time>2012-07-14T15:02:43Z</time>
      </trkpt>
      <trkpt lat="46.09382" lon="6.41198">
        <ele>702</ele>
        <time>2012-07-14T15:02:45Z</time>
      </trkpt>
      <trkpt lat="46.09372" lon="6.41187">
        <ele>695</ele>
        <time>2012-07-14T15:02:48Z</time>
      </trkpt>
      <trkpt lat="46.09363" lon="6.41182">
        <ele>695</ele>
        <time>2012-07-14T15:03:18Z</time>
      </trkpt>
      <trkpt lat="46.09354" lon="6.41189">
        <ele>695</ele>
        <time>2012-07-14T15:03:22Z</time>
      </trkpt>
      <trkpt lat="46.09342" lon="6.41183">
        <ele>695</ele>
        <time>2012-07-14T15:03:27Z</time>
      </trkpt>
      <trkpt lat="46.09332" lon="6.41183">
        <ele>687</ele>
        <time>2012-07-14T15:03:31Z</time>
      </trkpt>
      <trkpt lat="46.09322" lon="6.41177">
        <ele>682</ele>
        <time>2012-07-14T15:03:35Z</time>
      </trkpt>
      <trkpt lat="46.09312" lon="6.41173">
        <ele>682</ele>
        <time>2012-07-14T15:03:56Z</time>
      </trkpt>
      <trkpt lat="46.09301" lon="6.41178">
        <ele>682</ele>
        <time>2012-07-14T15:03:59Z</time>
      </trkpt>
      <trkpt lat="46.09292" lon="6.41184">
        <ele>682</ele>
        <time>2012-07-14T15:04:02Z</time>
      </trkpt>
      <trkpt lat="46.09282" lon="6.41178">
        <ele>682</ele>
        <time>2012-07-14T15:04:07Z</time>
      </trkpt>
      <trkpt lat="46.09271" lon="6.4117">
        <ele>682</ele>
        <time>2012-07-14T15:04:10Z</time>
      </trkpt>
      <trkpt lat="46.0926" lon="6.41163">
        <ele>667</ele>
        <time>2012-07-14T15:04:14Z</time>
      </trkpt>
      <trkpt lat="46.09251" lon="6.41152">
        <ele>667</ele>
        <time>2012-07-14T15:04:17Z</time>
      </trkpt>
      <trkpt lat="46.09243" lon="6.41145">
        <ele>667</ele>
        <time>2012-07-14T15:04:19Z</time>
      </trkpt>
      <trkpt lat="46.09234" lon="6.41135">
        <ele>655</ele>
        <time>2012-07-14T15:04:21Z</time>
      </trkpt>
      <trkpt lat="46.09223" lon="6.41125">
        <ele>647</ele>
        <time>2012-07-14T15:04:24Z</time>
      </trkpt>
      <trkpt lat="46.09212" lon="6.41123">
        <ele>647</ele>
        <time>2012-07-14T15:04:28Z</time>
      </trkpt>
      <trkpt lat="46.09204" lon="6.41117">
        <ele>639</ele>
        <time>2012-07-14T15:04:37Z</time>
      </trkpt>
      <trkpt lat="46.09195" lon="6.41123">
        <ele>639</ele>
        <time>2012-07-14T15:04:59Z</time>
      </trkpt>
      <trkpt lat="46.09185" lon="6.41127">
        <ele>644</ele>
        <time>2012-07-14T15:05:02Z</time>
      </trkpt>
      <trkpt lat="46.09174" lon="6.41123">
        <ele>644</ele>
        <time>2012-07-14T15:05:05Z</time>
      </trkpt>
      <trkpt lat="46.09162" lon="6.4112">
        <ele>644</ele>
        <time>2012-07-14T15:05:08Z</time>
      </trkpt>
      <trkpt lat="46.0915" lon="6.41122">
        <ele>637</ele>
        <time>2012-07-14T15:05:11Z</time>
      </trkpt>
      <trkpt lat="46.09139" lon="6.41132">
        <ele>637</ele>
        <time>2012-07-14T15:05:14Z</time>
      </trkpt>
      <trkpt lat="46.09129" lon="6.4114">
        <ele>637</ele>
        <time>2012-07-14T15:05:17Z</time>
      </trkpt>
      <trkpt lat="46.0912" lon="6.41139">
        <ele>637</ele>
        <time>2012-07-14T15:05:20Z</time>
      </trkpt>
      <trkpt lat="46.0911" lon="6.41132">
        <ele>631</ele>
        <time>2012-07-14T15:05:23Z</time>
      </trkpt>
      <trkpt lat="46.09101" lon="6.4113">
        <ele>631</ele>
        <time>2012-07-14T15:05:26Z</time>
      </trkpt>
      <trkpt lat="46.09092" lon="6.41127">
        <ele>619</ele>
        <time>2012-07-14T15:05:30Z</time>
      </trkpt>
      <trkpt lat="46.0908" lon="6.41122">
        <ele>602</ele>
        <time>2012-07-14T15:05:45Z</time>
      </trkpt>
      <trkpt lat="46.09069" lon="6.41122">
        <ele>602</ele>
        <time>2012-07-14T15:05:49Z</time>
      </trkpt>
      <trkpt lat="46.09057" lon="6.41127">
        <ele>602</ele>
        <time>2012-07-14T15:05:52Z</time>
      </trkpt>
      <trkpt lat="46.09047" lon="6.41126">
        <ele>608</ele>
        <time>2012-07-14T15:05:55Z</time>
      </trkpt>
      <trkpt lat="46.09036" lon="6.41129">
        <ele>608</ele>
        <time>2012-07-14T15:05:58Z</time>
      </trkpt>
      <trkpt lat="46.09024" lon="6.41127">
        <ele>608</ele>
        <time>2012-07-14T15:06:01Z</time>
      </trkpt>
      <trkpt lat="46.0902" lon="6.41115">
        <ele>597</ele>
        <time>2012-07-14T15:06:19Z</time>
      </trkpt>
      <trkpt lat="46.09007" lon="6.41114">
        <ele>597</ele>
        <time>2012-07-14T15:06:28Z</time>
      </trkpt>
      <trkpt lat="46.08997" lon="6.41112">
        <ele>597</ele>
        <time>2012-07-14T15:06:31Z</time>
      </trkpt>
      <trkpt lat="46.08987" lon="6.41114">
        <ele>597</ele>
        <time>2012-07-14T15:06:33Z</time>
      </trkpt>
      <trkpt lat="46.08977" lon="6.4112">
        <ele>589</ele>
        <time>2012-07-14T15:06:36Z</time>
      </trkpt>
      <trkpt lat="46.08966" lon="6.41122">
        <ele>578</ele>
        <time>2012-07-14T15:06:41Z</time>
      </trkpt>
      <trkpt lat="46.08956" lon="6.4112">
        <ele>578</ele>
        <time>2012-07-14T15:06:44Z</time>
      </trkpt>
      <trkpt lat="46.08946" lon="6.41109">
        <ele>570</ele>
        <time>2012-07-14T15:06:48Z</time>
      </trkpt>
      <trkpt lat="46.08936" lon="6.41109">
        <ele>563</ele>
        <time>2012-07-14T15:06:52Z</time>
      </trkpt>
      <trkpt lat="46.08926" lon="6.4112">
        <ele>563</ele>
        <time>2012-07-14T15:06:55Z</time>
      </trkpt>
      <trkpt lat="46.08921" lon="6.41133">
        <ele>558</ele>
        <time>2012-07-14T15:06:58Z</time>
      </trkpt>
      <trkpt lat="46.08911" lon="6.41138">
        <ele>558</ele>
        <time>2012-07-14T15:07:02Z</time>
      </trkpt>
      <trkpt lat="46.08901" lon="6.41131">
        <ele>549</ele>
        <time>2012-07-14T15:07:05Z</time>
      </trkpt>
      <trkpt lat="46.0889" lon="6.41128">
        <ele>549</ele>
        <time>2012-07-14T15:07:08Z</time>
      </trkpt>
      <trkpt lat="46.0888" lon="6.41133">
        <ele>549</ele>
        <time>2012-07-14T15:07:11Z</time>
      </trkpt>
      <trkpt lat="46.08871" lon="6.41138">
        <ele>549</ele>
        <time>2012-07-14T15:07:13Z</time>
      </trkpt>
      <trkpt lat="46.08861" lon="6.41142">
        <ele>549</ele>
        <time>2012-07-14T15:07:15Z</time>
      </trkpt>
      <trkpt lat="46.08851" lon="6.41147">
        <ele>543</ele>
        <time>2012-07-14T15:07:17Z</time>
      </trkpt>
      <trkpt lat="46.08841" lon="6.41149">
        <ele>543</ele>
        <time>2012-07-14T15:07:19Z</time>
      </trkpt>
      <trkpt lat="46.08829" lon="6.41153">
        <ele>543</ele>
        <time>2012-07-14T15:07:21Z</time>
      </trkpt>
      <trkpt lat="46.08818" lon="6.41156">
        <ele>536</ele>
        <time>2012-07-14T15:07:23Z</time>
      </trkpt>
      <trkpt lat="46.08806" lon="6.41159">
        <ele>536</ele>
        <time>2012-07-14T15:07:25Z</time>
      </trkpt>
      <trkpt lat="46.08796" lon="6.41158">
        <ele>529</ele>
        <time>2012-07-14T15:07:27Z</time>
      </trkpt>
      <trkpt lat="46.08787" lon="6.41154">
        <ele>529</ele>
        <time>2012-07-14T15:07:29Z</time>
      </trkpt>
      <trkpt lat="46.08778" lon="6.4115">
        <ele>529</ele>
        <time>2012-07-14T15:07:31Z</time>
      </trkpt>
      <trkpt lat="46.08769" lon="6.41145">
        <ele>518</ele>
        <time>2012-07-14T15:07:36Z</time>
      </trkpt>
      <trkpt lat="46.08762" lon="6.41155">
        <ele>518</ele>
        <time>2012-07-14T15:07:59Z</time>
      </trkpt>
      <trkpt lat="46.08759" lon="6.41168">
        <ele>518</ele>
        <time>2012-07-14T15:08:01Z</time>
      </trkpt>
      <trkpt lat="46.08756" lon="6.41188">
        <ele>518</ele>
        <time>2012-07-14T15:08:03Z</time>
      </trkpt>
      <trkpt lat="46.08751" lon="6.41209">
        <ele>518</ele>
        <time>2012-07-14T15:08:05Z</time>
      </trkpt>
      <trkpt lat="46.08742" lon="6.41227">
        <ele>518</ele>
        <time>2012-07-14T15:08:07Z</time>
      </trkpt>
      <trkpt lat="46.08733" lon="6.41243">
        <ele>513</ele>
        <time>2012-07-14T15:08:09Z</time>
      </trkpt>
      <trkpt lat="46.08724" lon="6.41255">
        <ele>513</ele>
        <time>2012-07-14T15:08:11Z</time>
      </trkpt>
      <trkpt lat="46.08719" lon="6.41271">
        <ele>513</ele>
        <time>2012-07-14T15:08:13Z</time>
      </trkpt>
      <trkpt lat="46.08718" lon="6.41288">
        <ele>513</ele>
        <time>2012-07-14T15:08:15Z</time>
      </trkpt>
      <trkpt lat="46.08716" lon="6.41301">
        <ele>513</ele>
        <time>2012-07-14T15:08:18Z</time>
      </trkpt>
      <trkpt lat="46.08704" lon="6.413">
        <ele>513</ele>
        <time>2012-07-14T15:08:21Z</time>
      </trkpt>
      <trkpt lat="46.08694" lon="6.41296">
        <ele>507</ele>
        <time>2012-07-14T15:08:23Z</time>
      </trkpt>
      <trkpt lat="46.08684" lon="6.41291">
        <ele>507</ele>
        <time>2012-07-14T15:08:25Z</time>
      </trkpt>
      <trkpt lat="46.08674" lon="6.41278">
        <ele>507</ele>
        <time>2012-07-14T15:08:28Z</time>
      </trkpt>
      <trkpt lat="46.08672" lon="6.41261">
        <ele>501</ele>
        <time>2012-07-14T15:08:30Z</time>
      </trkpt>
      <trkpt lat="46.0867" lon="6.41239">
        <ele>501</ele>
        <time>2012-07-14T15:08:32Z</time>
      </trkpt>
      <trkpt lat="46.08668" lon="6.41217">
        <ele>501</ele>
        <time>2012-07-14T15:08:34Z</time>
      </trkpt>
      <trkpt lat="46.08667" lon="6.41199">
        <ele>501</ele>
        <time>2012-07-14T15:08:36Z</time>
      </trkpt>
      <trkpt lat="46.08668" lon="6.41182">
        <ele>494</ele>
        <time>2012-07-14T15:08:38Z</time>
      </trkpt>
      <trkpt lat="46.08669" lon="6.41168">
        <ele>494</ele>
        <time>2012-07-14T15:08:41Z</time>
      </trkpt>
      <trkpt lat="46.08659" lon="6.41171">
        <ele>488</ele>
        <time>2012-07-14T15:08:44Z</time>
      </trkpt>
      <trkpt lat="46.0865" lon="6.4118">
        <ele>488</ele>
        <time>2012-07-14T15:08:46Z</time>
      </trkpt>
      <trkpt lat="46.08639" lon="6.41191">
        <ele>488</ele>
        <time>2012-07-14T15:08:48Z</time>
      </trkpt>
      <trkpt lat="46.08626" lon="6.41198">
        <ele>488</ele>
        <time>2012-07-14T15:08:50Z</time>
      </trkpt>
      <trkpt lat="46.08612" lon="6.41204">
        <ele>488</ele>
        <time>2012-07-14T15:08:52Z</time>
      </trkpt>
      <trkpt lat="46.08599" lon="6.4121">
        <ele>488</ele>
        <time>2012-07-14T15:08:54Z</time>
      </trkpt>
      <trkpt lat="46.08586" lon="6.4121">
        <ele>481</ele>
        <time>2012-07-14T15:08:56Z</time>
      </trkpt>
      <trkpt lat="46.08573" lon="6.41202">
        <ele>481</ele>
        <time>2012-07-14T15:08:58Z</time>
      </trkpt>
      <trkpt lat="46.08559" lon="6.4119">
        <ele>475</ele>
        <time>2012-07-14T15:09:00Z</time>
      </trkpt>
      <trkpt lat="46.08544" lon="6.41178">
        <ele>475</ele>
        <time>2012-07-14T15:09:02Z</time>
      </trkpt>
      <trkpt lat="46.0853" lon="6.41167">
        <ele>467</ele>
        <time>2012-07-14T15:09:04Z</time>
      </trkpt>
      <trkpt lat="46.08516" lon="6.41157">
        <ele>467</ele>
        <time>2012-07-14T15:09:06Z</time>
      </trkpt>
      <trkpt lat="46.08504" lon="6.41147">
        <ele>461</ele>
        <time>2012-07-14T15:09:08Z</time>
      </trkpt>
      <trkpt lat="46.08491" lon="6.41137">
        <ele>461</ele>
        <time>2012-07-14T15:09:10Z</time>
      </trkpt>
      <trkpt lat="46.08479" lon="6.41128">
        <ele>453</ele>
        <time>2012-07-14T15:09:12Z</time>
      </trkpt>
      <trkpt lat="46.08467" lon="6.41119">
        <ele>453</ele>
        <time>2012-07-14T15:09:14Z</time>
      </trkpt>
      <trkpt lat="46.08459" lon="6.41111">
        <ele>453</ele>
        <time>2012-07-14T15:09:17Z</time>
      </trkpt>
      <trkpt lat="46.08455" lon="6.41097">
        <ele>447</ele>
        <time>2012-07-14T15:09:20Z</time>
      </trkpt>
      <trkpt lat="46.08456" lon="6.41082">
        <ele>447</ele>
        <time>2012-07-14T15:09:22Z</time>
      </trkpt>
      <trkpt lat="46.08459" lon="6.4106">
        <ele>447</ele>
        <time>2012-07-14T15:09:24Z</time>
      </trkpt>
      <trkpt lat="46.08464" lon="6.41036">
        <ele>447</ele>
        <time>2012-07-14T15:09:26Z</time>
      </trkpt>
      <trkpt lat="46.08467" lon="6.41011">
        <ele>447</ele>
        <time>2012-07-14T15:09:28Z</time>
      </trkpt>
      <trkpt lat="46.08472" lon="6.40988">
        <ele>447</ele>
        <time>2012-07-14T15:09:30Z</time>
      </trkpt>
      <trkpt lat="46.08476" lon="6.40962">
        <ele>447</ele>
        <time>2012-07-14T15:09:32Z</time>
      </trkpt>
      <trkpt lat="46.08477" lon="6.40948">
        <ele>447</ele>
        <time>2012-07-14T15:09:33Z</time>
      </trkpt>
      <trkpt lat="46.08478" lon="6.40933">
        <ele>447</ele>
        <time>2012-07-14T15:09:34Z</time>
      </trkpt>
      <trkpt lat="46.0848" lon="6.40917">
        <ele>447</ele>
        <time>2012-07-14T15:09:35Z</time>
      </trkpt>
      <trkpt lat="46.08482" lon="6.40899">
        <ele>447</ele>
        <time>2012-07-14T15:09:36Z</time>
      </trkpt>
      <trkpt lat="46.08484" lon="6.40882">
        <ele>447</ele>
        <time>2012-07-14T15:09:37Z</time>
      </trkpt>
      <trkpt lat="46.08486" lon="6.40864">
        <ele>447</ele>
        <time>2012-07-14T15:09:38Z</time>
      </trkpt>
      <trkpt lat="46.08488" lon="6.40845">
        <ele>447</ele>
        <time>2012-07-14T15:09:39Z</time>
      </trkpt>
      <trkpt lat="46.0849" lon="6.40826">
        <ele>447</ele>
        <time>2012-07-14T15:09:40Z</time>
      </trkpt>
      <trkpt lat="46.08492" lon="6.40806">
        <ele>447</ele>
        <time>2012-07-14T15:09:41Z</time>
      </trkpt>
      <trkpt lat="46.08495" lon="6.40787">
        <ele>452</ele>
        <time>2012-07-14T15:09:42Z</time>
      </trkpt>
      <trkpt lat="46.08497" lon="6.4077">
        <ele>452</ele>
        <time>2012-07-14T15:09:43Z</time>
      </trkpt>
      <trkpt lat="46.08498" lon="6.40754">
        <ele>452</ele>
        <time>2012-07-14T15:09:44Z</time>
      </trkpt>
      <trkpt lat="46.08499" lon="6.4074">
        <ele>452</ele>
        <time>2012-07-14T15:09:45Z</time>
      </trkpt>
      <trkpt lat="46.08499" lon="6.40719">
        <ele>452</ele>
        <time>2012-07-14T15:09:47Z</time>
      </trkpt>
      <trkpt lat="46.08497" lon="6.40704">
        <ele>452</ele>
        <time>2012-07-14T15:09:49Z</time>
      </trkpt>
      <trkpt lat="46.08498" lon="6.40685">
        <ele>452</ele>
        <time>2012-07-14T15:09:51Z</time>
      </trkpt>
      <trkpt lat="46.085" lon="6.40664">
        <ele>452</ele>
        <time>2012-07-14T15:09:53Z</time>
      </trkpt>
      <trkpt lat="46.08503" lon="6.40643">
        <ele>452</ele>
        <time>2012-07-14T15:09:55Z</time>
      </trkpt>
      <trkpt lat="46.08506" lon="6.40622">
        <ele>452</ele>
        <time>2012-07-14T15:09:57Z</time>
      </trkpt>
      <trkpt lat="46.08508" lon="6.40598">
        <ele>452</ele>
        <time>2012-07-14T15:09:59Z</time>
      </trkpt>
      <trkpt lat="46.08509" lon="6.40584">
        <ele>452</ele>
        <time>2012-07-14T15:10:00Z</time>
      </trkpt>
      <trkpt lat="46.0851" lon="6.40571">
        <ele>452</ele>
        <time>2012-07-14T15:10:01Z</time>
      </trkpt>
      <trkpt lat="46.08511" lon="6.40557">
        <ele>452</ele>
        <time>2012-07-14T15:10:02Z</time>
      </trkpt>
      <trkpt lat="46.08513" lon="6.40543">
        <ele>452</ele>
        <time>2012-07-14T15:10:03Z</time>
      </trkpt>
      <trkpt lat="46.08514" lon="6.40529">
        <ele>452</ele>
        <time>2012-07-14T15:10:04Z</time>
      </trkpt>
      <trkpt lat="46.08516" lon="6.40514">
        <ele>447</ele>
        <time>2012-07-14T15:10:05Z</time>
      </trkpt>
      <trkpt lat="46.08517" lon="6.40499">
        <ele>447</ele>
        <time>2012-07-14T15:10:06Z</time>
      </trkpt>
      <trkpt lat="46.08519" lon="6.40482">
        <ele>447</ele>
        <time>2012-07-14T15:10:07Z</time>
      </trkpt>
      <trkpt lat="46.08521" lon="6.40463">
        <ele>447</ele>
        <time>2012-07-14T15:10:08Z</time>
      </trkpt>
      <trkpt lat="46.08522" lon="6.40445">
        <ele>447</ele>
        <time>2012-07-14T15:10:09Z</time>
      </trkpt>
      <trkpt lat="46.08525" lon="6.40428">
        <ele>447</ele>
        <time>2012-07-14T15:10:10Z</time>
      </trkpt>
      <trkpt lat="46.08527" lon="6.40414">
        <ele>447</ele>
        <time>2012-07-14T15:10:11Z</time>
      </trkpt>
      <trkpt lat="46.08528" lon="6.404">
        <ele>447</ele>
        <time>2012-07-14T15:10:12Z</time>
      </trkpt>
      <trkpt lat="46.08529" lon="6.40376">
        <ele>447</ele>
        <time>2012-07-14T15:10:14Z</time>
      </trkpt>
      <trkpt lat="46.08531" lon="6.40355">
        <ele>447</ele>
        <time>2012-07-14T15:10:16Z</time>
      </trkpt>
      <trkpt lat="46.08537" lon="6.40334">
        <ele>447</ele>
        <time>2012-07-14T15:10:18Z</time>
      </trkpt>
      <trkpt lat="46.08543" lon="6.40323">
        <ele>441</ele>
        <time>2012-07-14T15:10:19Z</time>
      </trkpt>
      <trkpt lat="46.08549" lon="6.40312">
        <ele>441</ele>
        <time>2012-07-14T15:10:20Z</time>
      </trkpt>
      <trkpt lat="46.08554" lon="6.40301">
        <ele>441</ele>
        <time>2012-07-14T15:10:21Z</time>
      </trkpt>
      <trkpt lat="46.0856" lon="6.4029">
        <ele>441</ele>
        <time>2012-07-14T15:10:22Z</time>
      </trkpt>
      <trkpt lat="46.08567" lon="6.4028">
        <ele>441</ele>
        <time>2012-07-14T15:10:23Z</time>
      </trkpt>
      <trkpt lat="46.08574" lon="6.40271">
        <ele>441</ele>
        <time>2012-07-14T15:10:24Z</time>
      </trkpt>
      <trkpt lat="46.08582" lon="6.40262">
        <ele>441</ele>
        <time>2012-07-14T15:10:25Z</time>
      </trkpt>
      <trkpt lat="46.08592" lon="6.40253">
        <ele>441</ele>
        <time>2012-07-14T15:10:26Z</time>
      </trkpt>
      <trkpt lat="46.08601" lon="6.40243">
        <ele>441</ele>
        <time>2012-07-14T15:10:27Z</time>
      </trkpt>
      <trkpt lat="46.0861" lon="6.40233">
        <ele>441</ele>
        <time>2012-07-14T15:10:28Z</time>
      </trkpt>
      <trkpt lat="46.08617" lon="6.40223">
        <ele>441</ele>
        <time>2012-07-14T15:10:29Z</time>
      </trkpt>
      <trkpt lat="46.08625" lon="6.40213">
        <ele>441</ele>
        <time>2012-07-14T15:10:30Z</time>
      </trkpt>
      <trkpt lat="46.08632" lon="6.40202">
        <ele>441</ele>
        <time>2012-07-14T15:10:31Z</time>
      </trkpt>
      <trkpt lat="46.08639" lon="6.40191">
        <ele>441</ele>
        <time>2012-07-14T15:10:32Z</time>
      </trkpt>
      <trkpt lat="46.08645" lon="6.40177">
        <ele>441</ele>
        <time>2012-07-14T15:10:33Z</time>
      </trkpt>
      <trkpt lat="46.08651" lon="6.40164">
        <ele>441</ele>
        <time>2012-07-14T15:10:34Z</time>
      </trkpt>
      <trkpt lat="46.08657" lon="6.40149">
        <ele>441</ele>
        <time>2012-07-14T15:10:35Z</time>
      </trkpt>
      <trkpt lat="46.08664" lon="6.40131">
        <ele>441</ele>
        <time>2012-07-14T15:10:36Z</time>
      </trkpt>
      <trkpt lat="46.08671" lon="6.40113">
        <ele>441</ele>
        <time>2012-07-14T15:10:37Z</time>
      </trkpt>
      <trkpt lat="46.08677" lon="6.40095">
        <ele>441</ele>
        <time>2012-07-14T15:10:38Z</time>
      </trkpt>
      <trkpt lat="46.08682" lon="6.40078">
        <ele>441</ele>
        <time>2012-07-14T15:10:39Z</time>
      </trkpt>
      <trkpt lat="46.08687" lon="6.40063">
        <ele>441</ele>
        <time>2012-07-14T15:10:40Z</time>
      </trkpt>
      <trkpt lat="46.08692" lon="6.4005">
        <ele>441</ele>
        <time>2012-07-14T15:10:41Z</time>
      </trkpt>
      <trkpt lat="46.08695" lon="6.40037">
        <ele>441</ele>
        <time>2012-07-14T15:10:42Z</time>
      </trkpt>
      <trkpt lat="46.087" lon="6.40014">
        <ele>441</ele>
        <time>2012-07-14T15:10:44Z</time>
      </trkpt>
      <trkpt lat="46.08702" lon="6.39991">
        <ele>441</ele>
        <time>2012-07-14T15:10:46Z</time>
      </trkpt>
      <trkpt lat="46.08701" lon="6.39972">
        <ele>441</ele>
        <time>2012-07-14T15:10:48Z</time>
      </trkpt>
      <trkpt lat="46.08695" lon="6.39959">
        <ele>441</ele>
        <time>2012-07-14T15:10:50Z</time>
      </trkpt>
      <trkpt lat="46.08684" lon="6.39954">
        <ele>441</ele>
        <time>2012-07-14T15:10:53Z</time>
      </trkpt>
      <trkpt lat="46.08674" lon="6.39962">
        <ele>441</ele>
        <time>2012-07-14T15:10:58Z</time>
      </trkpt>
      <trkpt lat="46.08667" lon="6.39977">
        <ele>441</ele>
        <time>2012-07-14T15:11:00Z</time>
      </trkpt>
      <trkpt lat="46.08656" lon="6.39994">
        <ele>441</ele>
        <time>2012-07-14T15:11:02Z</time>
      </trkpt>
      <trkpt lat="46.08646" lon="6.40006">
        <ele>441</ele>
        <time>2012-07-14T15:11:04Z</time>
      </trkpt>
      <trkpt lat="46.08638" lon="6.40012">
        <ele>441</ele>
        <time>2012-07-14T15:11:06Z</time>
      </trkpt>
      <trkpt lat="46.08625" lon="6.40019">
        <ele>448</ele>
        <time>2012-07-14T15:11:17Z</time>
      </trkpt>
      <trkpt lat="46.08612" lon="6.40032">
        <ele>448</ele>
        <time>2012-07-14T15:11:19Z</time>
      </trkpt>
      <trkpt lat="46.08604" lon="6.4004">
        <ele>448</ele>
        <time>2012-07-14T15:11:20Z</time>
      </trkpt>
      <trkpt lat="46.08596" lon="6.40048">
        <ele>448</ele>
        <time>2012-07-14T15:11:21Z</time>
      </trkpt>
      <trkpt lat="46.08587" lon="6.40056">
        <ele>448</ele>
        <time>2012-07-14T15:11:22Z</time>
      </trkpt>
      <trkpt lat="46.08579" lon="6.40065">
        <ele>448</ele>
        <time>2012-07-14T15:11:23Z</time>
      </trkpt>
      <trkpt lat="46.08569" lon="6.40074">
        <ele>448</ele>
        <time>2012-07-14T15:11:24Z</time>
      </trkpt>
      <trkpt lat="46.08559" lon="6.40083">
        <ele>448</ele>
        <time>2012-07-14T15:11:25Z</time>
      </trkpt>
      <trkpt lat="46.0855" lon="6.40092">
        <ele>448</ele>
        <time>2012-07-14T15:11:26Z</time>
      </trkpt>
      <trkpt lat="46.0854" lon="6.401">
        <ele>448</ele>
        <time>2012-07-14T15:11:27Z</time>
      </trkpt>
      <trkpt lat="46.08531" lon="6.40109">
        <ele>448</ele>
        <time>2012-07-14T15:11:28Z</time>
      </trkpt>
      <trkpt lat="46.08521" lon="6.40117">
        <ele>448</ele>
        <time>2012-07-14T15:11:29Z</time>
      </trkpt>
      <trkpt lat="46.0851" lon="6.40126">
        <ele>448</ele>
        <time>2012-07-14T15:11:30Z</time>
      </trkpt>
      <trkpt lat="46.08499" lon="6.40136">
        <ele>448</ele>
        <time>2012-07-14T15:11:31Z</time>
      </trkpt>
      <trkpt lat="46.08489" lon="6.40146">
        <ele>448</ele>
        <time>2012-07-14T15:11:32Z</time>
      </trkpt>
      <trkpt lat="46.08478" lon="6.40154">
        <ele>448</ele>
        <time>2012-07-14T15:11:33Z</time>
      </trkpt>
      <trkpt lat="46.08468" lon="6.40163">
        <ele>448</ele>
        <time>2012-07-14T15:11:34Z</time>
      </trkpt>
      <trkpt lat="46.08459" lon="6.4017">
        <ele>448</ele>
        <time>2012-07-14T15:11:35Z</time>
      </trkpt>
      <trkpt lat="46.08451" lon="6.40177">
        <ele>448</ele>
        <time>2012-07-14T15:11:36Z</time>
      </trkpt>
      <trkpt lat="46.08436" lon="6.4019">
        <ele>448</ele>
        <time>2012-07-14T15:11:38Z</time>
      </trkpt>
      <trkpt lat="46.08424" lon="6.40201">
        <ele>448</ele>
        <time>2012-07-14T15:11:40Z</time>
      </trkpt>
      <trkpt lat="46.08414" lon="6.4021">
        <ele>448</ele>
        <time>2012-07-14T15:11:42Z</time>
      </trkpt>
      <trkpt lat="46.08405" lon="6.40219">
        <ele>448</ele>
        <time>2012-07-14T15:11:45Z</time>
      </trkpt>
      <trkpt lat="46.08397" lon="6.40228">
        <ele>448</ele>
        <time>2012-07-14T15:11:55Z</time>
      </trkpt>
      <trkpt lat="46.08386" lon="6.40237">
        <ele>448</ele>
        <time>2012-07-14T15:11:59Z</time>
      </trkpt>
      <trkpt lat="46.08374" lon="6.40247">
        <ele>448</ele>
        <time>2012-07-14T15:12:01Z</time>
      </trkpt>
      <trkpt lat="46.08366" lon="6.40255">
        <ele>448</ele>
        <time>2012-07-14T15:12:02Z</time>
      </trkpt>
      <trkpt lat="46.08356" lon="6.40263">
        <ele>448</ele>
        <time>2012-07-14T15:12:03Z</time>
      </trkpt>
      <trkpt lat="46.08346" lon="6.40273">
        <ele>448</ele>
        <time>2012-07-14T15:12:04Z</time>
      </trkpt>
      <trkpt lat="46.08335" lon="6.40282">
        <ele>448</ele>
        <time>2012-07-14T15:12:05Z</time>
      </trkpt>
      <trkpt lat="46.08324" lon="6.40292">
        <ele>448</ele>
        <time>2012-07-14T15:12:06Z</time>
      </trkpt>
      <trkpt lat="46.08313" lon="6.40302">
        <ele>448</ele>
        <time>2012-07-14T15:12:07Z</time>
      </trkpt>
      <trkpt lat="46.08302" lon="6.40311">
        <ele>448</ele>
        <time>2012-07-14T15:12:08Z</time>
      </trkpt>
      <trkpt lat="46.08292" lon="6.40321">
        <ele>448</ele>
        <time>2012-07-14T15:12:09Z</time>
      </trkpt>
      <trkpt lat="46.08282" lon="6.4033">
        <ele>448</ele>
        <time>2012-07-14T15:12:10Z</time>
      </trkpt>
      <trkpt lat="46.08272" lon="6.40338">
        <ele>448</ele>
        <time>2012-07-14T15:12:11Z</time>
      </trkpt>
      <trkpt lat="46.08262" lon="6.40346">
        <ele>448</ele>
        <time>2012-07-14T15:12:12Z</time>
      </trkpt>
      <trkpt lat="46.08254" lon="6.40354">
        <ele>448</ele>
        <time>2012-07-14T15:12:13Z</time>
      </trkpt>
      <trkpt lat="46.08246" lon="6.40361">
        <ele>448</ele>
        <time>2012-07-14T15:12:14Z</time>
      </trkpt>
      <trkpt lat="46.08234" lon="6.40371">
        <ele>448</ele>
        <time>2012-07-14T15:12:16Z</time>
      </trkpt>
      <trkpt lat="46.08224" lon="6.4038">
        <ele>448</ele>
        <time>2012-07-14T15:12:18Z</time>
      </trkpt>
      <trkpt lat="46.08213" lon="6.40389">
        <ele>448</ele>
        <time>2012-07-14T15:12:20Z</time>
      </trkpt>
      <trkpt lat="46.08202" lon="6.40394">
        <ele>448</ele>
        <time>2012-07-14T15:12:22Z</time>
      </trkpt>
      <trkpt lat="46.08191" lon="6.40387">
        <ele>448</ele>
        <time>2012-07-14T15:12:24Z</time>
      </trkpt>
      <trkpt lat="46.0818" lon="6.40373">
        <ele>448</ele>
        <time>2012-07-14T15:12:26Z</time>
      </trkpt>
      <trkpt lat="46.08169" lon="6.40358">
        <ele>448</ele>
        <time>2012-07-14T15:12:28Z</time>
      </trkpt>
      <trkpt lat="46.08161" lon="6.40346">
        <ele>448</ele>
        <time>2012-07-14T15:12:31Z</time>
      </trkpt>
      <trkpt lat="46.08151" lon="6.40333">
        <ele>448</ele>
        <time>2012-07-14T15:12:34Z</time>
      </trkpt>
      <trkpt lat="46.08142" lon="6.4032">
        <ele>448</ele>
        <time>2012-07-14T15:12:37Z</time>
      </trkpt>
      <trkpt lat="46.08134" lon="6.40309">
        <ele>448</ele>
        <time>2012-07-14T15:12:40Z</time>
      </trkpt>
      <trkpt lat="46.08127" lon="6.40299">
        <ele>448</ele>
        <time>2012-07-14T15:12:42Z</time>
      </trkpt>
      <trkpt lat="46.08117" lon="6.40286">
        <ele>448</ele>
        <time>2012-07-14T15:12:44Z</time>
      </trkpt>
      <trkpt lat="46.08106" lon="6.40272">
        <ele>443</ele>
        <time>2012-07-14T15:12:46Z</time>
      </trkpt>
      <trkpt lat="46.08094" lon="6.40261">
        <ele>443</ele>
        <time>2012-07-14T15:12:48Z</time>
      </trkpt>
      <trkpt lat="46.08081" lon="6.40248">
        <ele>443</ele>
        <time>2012-07-14T15:12:50Z</time>
      </trkpt>
      <trkpt lat="46.08068" lon="6.40236">
        <ele>443</ele>
        <time>2012-07-14T15:12:52Z</time>
      </trkpt>
      <trkpt lat="46.08055" lon="6.40224">
        <ele>443</ele>
        <time>2012-07-14T15:12:54Z</time>
      </trkpt>
      <trkpt lat="46.08044" lon="6.40214">
        <ele>443</ele>
        <time>2012-07-14T15:12:56Z</time>
      </trkpt>
      <trkpt lat="46.08036" lon="6.40205">
        <ele>443</ele>
        <time>2012-07-14T15:12:58Z</time>
      </trkpt>
      <trkpt lat="46.08028" lon="6.4019">
        <ele>443</ele>
        <time>2012-07-14T15:13:01Z</time>
      </trkpt>
      <trkpt lat="46.08017" lon="6.40184">
        <ele>443</ele>
        <time>2012-07-14T15:13:03Z</time>
      </trkpt>
      <trkpt lat="46.08004" lon="6.40183">
        <ele>443</ele>
        <time>2012-07-14T15:13:05Z</time>
      </trkpt>
      <trkpt lat="46.07988" lon="6.4018">
        <ele>443</ele>
        <time>2012-07-14T15:13:07Z</time>
      </trkpt>
      <trkpt lat="46.07972" lon="6.40179">
        <ele>443</ele>
        <time>2012-07-14T15:13:09Z</time>
      </trkpt>
      <trkpt lat="46.07958" lon="6.40179">
        <ele>443</ele>
        <time>2012-07-14T15:13:11Z</time>
      </trkpt>
      <trkpt lat="46.07947" lon="6.40179">
        <ele>443</ele>
        <time>2012-07-14T15:13:13Z</time>
      </trkpt>
      <trkpt lat="46.07935" lon="6.40179">
        <ele>443</ele>
        <time>2012-07-14T15:13:15Z</time>
      </trkpt>
      <trkpt lat="46.07925" lon="6.40179">
        <ele>443</ele>
        <time>2012-07-14T15:13:17Z</time>
      </trkpt>
      <trkpt lat="46.07915" lon="6.40178">
        <ele>443</ele>
        <time>2012-07-14T15:13:19Z</time>
      </trkpt>
      <trkpt lat="46.07908" lon="6.40168">
        <ele>443</ele>
        <time>2012-07-14T15:13:21Z</time>
      </trkpt>
      <trkpt lat="46.07907" lon="6.4015">
        <ele>443</ele>
        <time>2012-07-14T15:13:23Z</time>
      </trkpt>
      <trkpt lat="46.0791" lon="6.40138">
        <ele>443</ele>
        <time>2012-07-14T15:13:24Z</time>
      </trkpt>
      <trkpt lat="46.07912" lon="6.40122">
        <ele>443</ele>
        <time>2012-07-14T15:13:25Z</time>
      </trkpt>
      <trkpt lat="46.07917" lon="6.40103">
        <ele>443</ele>
        <time>2012-07-14T15:13:26Z</time>
      </trkpt>
      <trkpt lat="46.0792" lon="6.4008">
        <ele>443</ele>
        <time>2012-07-14T15:13:27Z</time>
      </trkpt>
      <trkpt lat="46.07924" lon="6.4006">
        <ele>443</ele>
        <time>2012-07-14T15:13:28Z</time>
      </trkpt>
      <trkpt lat="46.07927" lon="6.40042">
        <ele>443</ele>
        <time>2012-07-14T15:13:29Z</time>
      </trkpt>
      <trkpt lat="46.07929" lon="6.40025">
        <ele>443</ele>
        <time>2012-07-14T15:13:30Z</time>
      </trkpt>
      <trkpt lat="46.0793" lon="6.40011">
        <ele>443</ele>
        <time>2012-07-14T15:13:31Z</time>
      </trkpt>
      <trkpt lat="46.07932" lon="6.39988">
        <ele>448</ele>
        <time>2012-07-14T15:13:33Z</time>
      </trkpt>
      <trkpt lat="46.07929" lon="6.39972">
        <ele>448</ele>
        <time>2012-07-14T15:13:36Z</time>
      </trkpt>
      <trkpt lat="46.07918" lon="6.39977">
        <ele>448</ele>
        <time>2012-07-14T15:13:41Z</time>
      </trkpt>
      <trkpt lat="46.07907" lon="6.39978">
        <ele>448</ele>
        <time>2012-07-14T15:13:43Z</time>
      </trkpt>
      <trkpt lat="46.07892" lon="6.39978">
        <ele>448</ele>
        <time>2012-07-14T15:13:45Z</time>
      </trkpt>
      <trkpt lat="46.07879" lon="6.39975">
        <ele>448</ele>
        <time>2012-07-14T15:13:47Z</time>
      </trkpt>
      <trkpt lat="46.07867" lon="6.39972">
        <ele>443</ele>
        <time>2012-07-14T15:13:49Z</time>
      </trkpt>
      <trkpt lat="46.07854" lon="6.39969">
        <ele>443</ele>
        <time>2012-07-14T15:13:51Z</time>
      </trkpt>
      <trkpt lat="46.0784" lon="6.39967">
        <ele>443</ele>
        <time>2012-07-14T15:13:53Z</time>
      </trkpt>
      <trkpt lat="46.07828" lon="6.39964">
        <ele>443</ele>
        <time>2012-07-14T15:13:55Z</time>
      </trkpt>
      <trkpt lat="46.07815" lon="6.39961">
        <ele>443</ele>
        <time>2012-07-14T15:13:57Z</time>
      </trkpt>
      <trkpt lat="46.078" lon="6.39955">
        <ele>443</ele>
        <time>2012-07-14T15:13:59Z</time>
      </trkpt>
      <trkpt lat="46.07785" lon="6.3995">
        <ele>443</ele>
        <time>2012-07-14T15:14:01Z</time>
      </trkpt>
      <trkpt lat="46.0777" lon="6.39944">
        <ele>437</ele>
        <time>2012-07-14T15:14:03Z</time>
      </trkpt>
      <trkpt lat="46.07759" lon="6.39937">
        <ele>437</ele>
        <time>2012-07-14T15:14:05Z</time>
      </trkpt>
      <trkpt lat="46.0775" lon="6.39933">
        <ele>437</ele>
        <time>2012-07-14T15:14:11Z</time>
      </trkpt>
      <trkpt lat="46.07739" lon="6.39928">
        <ele>437</ele>
        <time>2012-07-14T15:14:16Z</time>
      </trkpt>
      <trkpt lat="46.07727" lon="6.39922">
        <ele>437</ele>
        <time>2012-07-14T15:14:19Z</time>
      </trkpt>
      <trkpt lat="46.07717" lon="6.39917">
        <ele>437</ele>
        <time>2012-07-14T15:14:21Z</time>
      </trkpt>
      <trkpt lat="46.07707" lon="6.3991">
        <ele>437</ele>
        <time>2012-07-14T15:14:23Z</time>
      </trkpt>
      <trkpt lat="46.07696" lon="6.39902">
        <ele>437</ele>
        <time>2012-07-14T15:14:25Z</time>
      </trkpt>
      <trkpt lat="46.07687" lon="6.39895">
        <ele>437</ele>
        <time>2012-07-14T15:14:27Z</time>
      </trkpt>
      <trkpt lat="46.07675" lon="6.39887">
        <ele>437</ele>
        <time>2012-07-14T15:14:29Z</time>
      </trkpt>
      <trkpt lat="46.07662" lon="6.39878">
        <ele>443</ele>
        <time>2012-07-14T15:14:31Z</time>
      </trkpt>
      <trkpt lat="46.0765" lon="6.39869">
        <ele>443</ele>
        <time>2012-07-14T15:14:33Z</time>
      </trkpt>
      <trkpt lat="46.07637" lon="6.39859">
        <ele>443</ele>
        <time>2012-07-14T15:14:35Z</time>
      </trkpt>
      <trkpt lat="46.07625" lon="6.39849">
        <ele>443</ele>
        <time>2012-07-14T15:14:37Z</time>
      </trkpt>
      <trkpt lat="46.07613" lon="6.39838">
        <ele>443</ele>
        <time>2012-07-14T15:14:39Z</time>
      </trkpt>
      <trkpt lat="46.07603" lon="6.39825">
        <ele>443</ele>
        <time>2012-07-14T15:14:41Z</time>
      </trkpt>
      <trkpt lat="46.07591" lon="6.39813">
        <ele>443</ele>
        <time>2012-07-14T15:14:43Z</time>
      </trkpt>
      <trkpt lat="46.07578" lon="6.39801">
        <ele>443</ele>
        <time>2012-07-14T15:14:45Z</time>
      </trkpt>
      <trkpt lat="46.07567" lon="6.39791">
        <ele>443</ele>
        <time>2012-07-14T15:14:47Z</time>
      </trkpt>
      <trkpt lat="46.07556" lon="6.39781">
        <ele>443</ele>
        <time>2012-07-14T15:14:49Z</time>
      </trkpt>
      <trkpt lat="46.07544" lon="6.39769">
        <ele>443</ele>
        <time>2012-07-14T15:14:51Z</time>
      </trkpt>
      <trkpt lat="46.07532" lon="6.39758">
        <ele>443</ele>
        <time>2012-07-14T15:14:53Z</time>
      </trkpt>
      <trkpt lat="46.07524" lon="6.3975">
        <ele>449</ele>
        <time>2012-07-14T15:14:55Z</time>
      </trkpt>
      <trkpt lat="46.07524" lon="6.39734">
        <ele>449</ele>
        <time>2012-07-14T15:15:00Z</time>
      </trkpt>
      <trkpt lat="46.07513" lon="6.39724">
        <ele>449</ele>
        <time>2012-07-14T15:15:03Z</time>
      </trkpt>
      <trkpt lat="46.075" lon="6.39715">
        <ele>449</ele>
        <time>2012-07-14T15:15:05Z</time>
      </trkpt>
      <trkpt lat="46.07489" lon="6.39703">
        <ele>449</ele>
        <time>2012-07-14T15:15:07Z</time>
      </trkpt>
      <trkpt lat="46.07478" lon="6.39698">
        <ele>449</ele>
        <time>2012-07-14T15:15:10Z</time>
      </trkpt>
      <trkpt lat="46.07472" lon="6.39689">
        <ele>449</ele>
        <time>2012-07-14T15:15:13Z</time>
      </trkpt>
      <trkpt lat="46.07462" lon="6.3968">
        <ele>449</ele>
        <time>2012-07-14T15:15:15Z</time>
      </trkpt>
      <trkpt lat="46.0745" lon="6.39669">
        <ele>449</ele>
        <time>2012-07-14T15:15:17Z</time>
      </trkpt>
      <trkpt lat="46.07436" lon="6.39654">
        <ele>449</ele>
        <time>2012-07-14T15:15:19Z</time>
      </trkpt>
      <trkpt lat="46.07421" lon="6.39641">
        <ele>449</ele>
        <time>2012-07-14T15:15:21Z</time>
      </trkpt>
      <trkpt lat="46.07413" lon="6.39635">
        <ele>449</ele>
        <time>2012-07-14T15:15:22Z</time>
      </trkpt>
      <trkpt lat="46.07398" lon="6.39621">
        <ele>449</ele>
        <time>2012-07-14T15:15:24Z</time>
      </trkpt>
      <trkpt lat="46.0739" lon="6.39614">
        <ele>449</ele>
        <time>2012-07-14T15:15:25Z</time>
      </trkpt>
      <trkpt lat="46.07382" lon="6.39608">
        <ele>449</ele>
        <time>2012-07-14T15:15:26Z</time>
      </trkpt>
      <trkpt lat="46.07367" lon="6.39594">
        <ele>449</ele>
        <time>2012-07-14T15:15:28Z</time>
      </trkpt>
      <trkpt lat="46.07359" lon="6.39586">
        <ele>449</ele>
        <time>2012-07-14T15:15:29Z</time>
      </trkpt>
      <trkpt lat="46.07343" lon="6.39573">
        <ele>449</ele>
        <time>2012-07-14T15:15:31Z</time>
      </trkpt>
      <trkpt lat="46.0733" lon="6.39559">
        <ele>449</ele>
        <time>2012-07-14T15:15:33Z</time>
      </trkpt>
      <trkpt lat="46.0732" lon="6.39549">
        <ele>449</ele>
        <time>2012-07-14T15:15:35Z</time>
      </trkpt>
      <trkpt lat="46.07312" lon="6.39542">
        <ele>454</ele>
        <time>2012-07-14T15:15:40Z</time>
      </trkpt>
      <trkpt lat="46.073" lon="6.3953">
        <ele>454</ele>
        <time>2012-07-14T15:15:43Z</time>
      </trkpt>
      <trkpt lat="46.07289" lon="6.39519">
        <ele>454</ele>
        <time>2012-07-14T15:15:45Z</time>
      </trkpt>
      <trkpt lat="46.07279" lon="6.39509">
        <ele>454</ele>
        <time>2012-07-14T15:15:47Z</time>
      </trkpt>
      <trkpt lat="46.07269" lon="6.39499">
        <ele>454</ele>
        <time>2012-07-14T15:15:49Z</time>
      </trkpt>
      <trkpt lat="46.07258" lon="6.39488">
        <ele>454</ele>
        <time>2012-07-14T15:15:51Z</time>
      </trkpt>
      <trkpt lat="46.07242" lon="6.39473">
        <ele>454</ele>
        <time>2012-07-14T15:15:53Z</time>
      </trkpt>
      <trkpt lat="46.07233" lon="6.39465">
        <ele>454</ele>
        <time>2012-07-14T15:15:54Z</time>
      </trkpt>
      <trkpt lat="46.07224" lon="6.39455">
        <ele>454</ele>
        <time>2012-07-14T15:15:55Z</time>
      </trkpt>
      <trkpt lat="46.07213" lon="6.39444">
        <ele>449</ele>
        <time>2012-07-14T15:15:56Z</time>
      </trkpt>
      <trkpt lat="46.07201" lon="6.39433">
        <ele>449</ele>
        <time>2012-07-14T15:15:57Z</time>
      </trkpt>
      <trkpt lat="46.07189" lon="6.3942">
        <ele>449</ele>
        <time>2012-07-14T15:15:58Z</time>
      </trkpt>
      <trkpt lat="46.07176" lon="6.39406">
        <ele>449</ele>
        <time>2012-07-14T15:15:59Z</time>
      </trkpt>
      <trkpt lat="46.07163" lon="6.39393">
        <ele>449</ele>
        <time>2012-07-14T15:16:00Z</time>
      </trkpt>
      <trkpt lat="46.0715" lon="6.3938">
        <ele>449</ele>
        <time>2012-07-14T15:16:01Z</time>
      </trkpt>
      <trkpt lat="46.07136" lon="6.39367">
        <ele>449</ele>
        <time>2012-07-14T15:16:02Z</time>
      </trkpt>
      <trkpt lat="46.07124" lon="6.39353">
        <ele>449</ele>
        <time>2012-07-14T15:16:03Z</time>
      </trkpt>
      <trkpt lat="46.07111" lon="6.39341">
        <ele>449</ele>
        <time>2012-07-14T15:16:04Z</time>
      </trkpt>
      <trkpt lat="46.071" lon="6.39329">
        <ele>449</ele>
        <time>2012-07-14T15:16:05Z</time>
      </trkpt>
      <trkpt lat="46.07087" lon="6.39317">
        <ele>449</ele>
        <time>2012-07-14T15:16:06Z</time>
      </trkpt>
      <trkpt lat="46.07074" lon="6.39305">
        <ele>449</ele>
        <time>2012-07-14T15:16:07Z</time>
      </trkpt>
      <trkpt lat="46.07061" lon="6.39292">
        <ele>449</ele>
        <time>2012-07-14T15:16:08Z</time>
      </trkpt>
      <trkpt lat="46.07049" lon="6.39281">
        <ele>449</ele>
        <time>2012-07-14T15:16:09Z</time>
      </trkpt>
      <trkpt lat="46.07036" lon="6.39268">
        <ele>449</ele>
        <time>2012-07-14T15:16:10Z</time>
      </trkpt>
      <trkpt lat="46.07023" lon="6.39255">
        <ele>449</ele>
        <time>2012-07-14T15:16:11Z</time>
      </trkpt>
      <trkpt lat="46.0701" lon="6.39242">
        <ele>449</ele>
        <time>2012-07-14T15:16:12Z</time>
      </trkpt>
      <trkpt lat="46.06996" lon="6.39229">
        <ele>449</ele>
        <time>2012-07-14T15:16:13Z</time>
      </trkpt>
      <trkpt lat="46.06983" lon="6.39216">
        <ele>449</ele>
        <time>2012-07-14T15:16:14Z</time>
      </trkpt>
      <trkpt lat="46.06969" lon="6.39203">
        <ele>449</ele>
        <time>2012-07-14T15:16:15Z</time>
      </trkpt>
      <trkpt lat="46.06956" lon="6.3919">
        <ele>449</ele>
        <time>2012-07-14T15:16:16Z</time>
      </trkpt>
      <trkpt lat="46.06942" lon="6.39177">
        <ele>449</ele>
        <time>2012-07-14T15:16:17Z</time>
      </trkpt>
      <trkpt lat="46.06929" lon="6.39163">
        <ele>449</ele>
        <time>2012-07-14T15:16:18Z</time>
      </trkpt>
      <trkpt lat="46.06915" lon="6.3915">
        <ele>449</ele>
        <time>2012-07-14T15:16:19Z</time>
      </trkpt>
      <trkpt lat="46.06901" lon="6.39136">
        <ele>449</ele>
        <time>2012-07-14T15:16:20Z</time>
      </trkpt>
      <trkpt lat="46.06888" lon="6.39123">
        <ele>449</ele>
        <time>2012-07-14T15:16:21Z</time>
      </trkpt>
      <trkpt lat="46.06874" lon="6.39109">
        <ele>449</ele>
        <time>2012-07-14T15:16:22Z</time>
      </trkpt>
      <trkpt lat="46.0686" lon="6.39095">
        <ele>449</ele>
        <time>2012-07-14T15:16:23Z</time>
      </trkpt>
      <trkpt lat="46.06846" lon="6.39081">
        <ele>449</ele>
        <time>2012-07-14T15:16:24Z</time>
      </trkpt>
      <trkpt lat="46.06832" lon="6.39068">
        <ele>449</ele>
        <time>2012-07-14T15:16:25Z</time>
      </trkpt>
      <trkpt lat="46.06818" lon="6.39054">
        <ele>449</ele>
        <time>2012-07-14T15:16:26Z</time>
      </trkpt>
      <trkpt lat="46.06803" lon="6.3904">
        <ele>449</ele>
        <time>2012-07-14T15:16:27Z</time>
      </trkpt>
      <trkpt lat="46.06789" lon="6.39027">
        <ele>449</ele>
        <time>2012-07-14T15:16:28Z</time>
      </trkpt>
      <trkpt lat="46.06776" lon="6.39014">
        <ele>449</ele>
        <time>2012-07-14T15:16:29Z</time>
      </trkpt>
      <trkpt lat="46.06763" lon="6.39">
        <ele>449</ele>
        <time>2012-07-14T15:16:30Z</time>
      </trkpt>
      <trkpt lat="46.06749" lon="6.38987">
        <ele>449</ele>
        <time>2012-07-14T15:16:31Z</time>
      </trkpt>
      <trkpt lat="46.06736" lon="6.38974">
        <ele>449</ele>
        <time>2012-07-14T15:16:32Z</time>
      </trkpt>
      <trkpt lat="46.06723" lon="6.3896">
        <ele>454</ele>
        <time>2012-07-14T15:16:33Z</time>
      </trkpt>
      <trkpt lat="46.06709" lon="6.38947">
        <ele>454</ele>
        <time>2012-07-14T15:16:34Z</time>
      </trkpt>
      <trkpt lat="46.06695" lon="6.38933">
        <ele>454</ele>
        <time>2012-07-14T15:16:35Z</time>
      </trkpt>
      <trkpt lat="46.06681" lon="6.3892">
        <ele>454</ele>
        <time>2012-07-14T15:16:36Z</time>
      </trkpt>
      <trkpt lat="46.06667" lon="6.38906">
        <ele>454</ele>
        <time>2012-07-14T15:16:37Z</time>
      </trkpt>
      <trkpt lat="46.06654" lon="6.38894">
        <ele>454</ele>
        <time>2012-07-14T15:16:38Z</time>
      </trkpt>
      <trkpt lat="46.0664" lon="6.3888">
        <ele>454</ele>
        <time>2012-07-14T15:16:39Z</time>
      </trkpt>
      <trkpt lat="46.06627" lon="6.38868">
        <ele>454</ele>
        <time>2012-07-14T15:16:40Z</time>
      </trkpt>
      <trkpt lat="46.06613" lon="6.38855">
        <ele>454</ele>
        <time>2012-07-14T15:16:41Z</time>
      </trkpt>
      <trkpt lat="46.06599" lon="6.38841">
        <ele>454</ele>
        <time>2012-07-14T15:16:42Z</time>
      </trkpt>
      <trkpt lat="46.06587" lon="6.38829">
        <ele>454</ele>
        <time>2012-07-14T15:16:43Z</time>
      </trkpt>
      <trkpt lat="46.06574" lon="6.38816">
        <ele>454</ele>
        <time>2012-07-14T15:16:44Z</time>
      </trkpt>
      <trkpt lat="46.06561" lon="6.38804">
        <ele>454</ele>
        <time>2012-07-14T15:16:45Z</time>
      </trkpt>
      <trkpt lat="46.06548" lon="6.38791">
        <ele>454</ele>
        <time>2012-07-14T15:16:46Z</time>
      </trkpt>
      <trkpt lat="46.06535" lon="6.38779">
        <ele>454</ele>
        <time>2012-07-14T15:16:47Z</time>
      </trkpt>
      <trkpt lat="46.06522" lon="6.38766">
        <ele>454</ele>
        <time>2012-07-14T15:16:48Z</time>
      </trkpt>
      <trkpt lat="46.06509" lon="6.38753">
        <ele>454</ele>
        <time>2012-07-14T15:16:49Z</time>
      </trkpt>
      <trkpt lat="46.06497" lon="6.38742">
        <ele>454</ele>
        <time>2012-07-14T15:16:50Z</time>
      </trkpt>
      <trkpt lat="46.06484" lon="6.38729">
        <ele>454</ele>
        <time>2012-07-14T15:16:51Z</time>
      </trkpt>
      <trkpt lat="46.06472" lon="6.38717">
        <ele>454</ele>
        <time>2012-07-14T15:16:52Z</time>
      </trkpt>
      <trkpt lat="46.0646" lon="6.38706">
        <ele>454</ele>
        <time>2012-07-14T15:16:53Z</time>
      </trkpt>
      <trkpt lat="46.06448" lon="6.38694">
        <ele>454</ele>
        <time>2012-07-14T15:16:54Z</time>
      </trkpt>
      <trkpt lat="46.06436" lon="6.38682">
        <ele>459</ele>
        <time>2012-07-14T15:16:55Z</time>
      </trkpt>
      <trkpt lat="46.06424" lon="6.38669">
        <ele>459</ele>
        <time>2012-07-14T15:16:56Z</time>
      </trkpt>
      <trkpt lat="46.06411" lon="6.38657">
        <ele>459</ele>
        <time>2012-07-14T15:16:57Z</time>
      </trkpt>
      <trkpt lat="46.06399" lon="6.38645">
        <ele>459</ele>
        <time>2012-07-14T15:16:58Z</time>
      </trkpt>
      <trkpt lat="46.06386" lon="6.38633">
        <ele>459</ele>
        <time>2012-07-14T15:16:59Z</time>
      </trkpt>
      <trkpt lat="46.06374" lon="6.38621">
        <ele>459</ele>
        <time>2012-07-14T15:17:00Z</time>
      </trkpt>
      <trkpt lat="46.06361" lon="6.3861">
        <ele>459</ele>
        <time>2012-07-14T15:17:01Z</time>
      </trkpt>
      <trkpt lat="46.06349" lon="6.38597">
        <ele>459</ele>
        <time>2012-07-14T15:17:02Z</time>
      </trkpt>
      <trkpt lat="46.06337" lon="6.38585">
        <ele>459</ele>
        <time>2012-07-14T15:17:03Z</time>
      </trkpt>
      <trkpt lat="46.06324" lon="6.38574">
        <ele>459</ele>
        <time>2012-07-14T15:17:04Z</time>
      </trkpt>
      <trkpt lat="46.06311" lon="6.3856">
        <ele>459</ele>
        <time>2012-07-14T15:17:05Z</time>
      </trkpt>
      <trkpt lat="46.06297" lon="6.38547">
        <ele>459</ele>
        <time>2012-07-14T15:17:06Z</time>
      </trkpt>
      <trkpt lat="46.06282" lon="6.38532">
        <ele>459</ele>
        <time>2012-07-14T15:17:07Z</time>
      </trkpt>
      <trkpt lat="46.06267" lon="6.38517">
        <ele>459</ele>
        <time>2012-07-14T15:17:08Z</time>
      </trkpt>
      <trkpt lat="46.06252" lon="6.38502">
        <ele>459</ele>
        <time>2012-07-14T15:17:09Z</time>
      </trkpt>
      <trkpt lat="46.06238" lon="6.38488">
        <ele>459</ele>
        <time>2012-07-14T15:17:10Z</time>
      </trkpt>
      <trkpt lat="46.06225" lon="6.38476">
        <ele>459</ele>
        <time>2012-07-14T15:17:11Z</time>
      </trkpt>
      <trkpt lat="46.06214" lon="6.38464">
        <ele>459</ele>
        <time>2012-07-14T15:17:12Z</time>
      </trkpt>
      <trkpt lat="46.06204" lon="6.38454">
        <ele>465</ele>
        <time>2012-07-14T15:17:13Z</time>
      </trkpt>
      <trkpt lat="46.06195" lon="6.38445">
        <ele>465</ele>
        <time>2012-07-14T15:17:14Z</time>
      </trkpt>
      <trkpt lat="46.06187" lon="6.38437">
        <ele>465</ele>
        <time>2012-07-14T15:17:15Z</time>
      </trkpt>
      <trkpt lat="46.06172" lon="6.38423">
        <ele>465</ele>
        <time>2012-07-14T15:17:17Z</time>
      </trkpt>
      <trkpt lat="46.06161" lon="6.38405">
        <ele>465</ele>
        <time>2012-07-14T15:17:19Z</time>
      </trkpt>
      <trkpt lat="46.06153" lon="6.38382">
        <ele>465</ele>
        <time>2012-07-14T15:17:21Z</time>
      </trkpt>
      <trkpt lat="46.06152" lon="6.38354">
        <ele>465</ele>
        <time>2012-07-14T15:17:23Z</time>
      </trkpt>
      <trkpt lat="46.06152" lon="6.38339">
        <ele>465</ele>
        <time>2012-07-14T15:17:24Z</time>
      </trkpt>
      <trkpt lat="46.06152" lon="6.38314">
        <ele>465</ele>
        <time>2012-07-14T15:17:26Z</time>
      </trkpt>
      <trkpt lat="46.06151" lon="6.38289">
        <ele>465</ele>
        <time>2012-07-14T15:17:28Z</time>
      </trkpt>
      <trkpt lat="46.06151" lon="6.38276">
        <ele>465</ele>
        <time>2012-07-14T15:17:29Z</time>
      </trkpt>
      <trkpt lat="46.0615" lon="6.38261">
        <ele>465</ele>
        <time>2012-07-14T15:17:30Z</time>
      </trkpt>
      <trkpt lat="46.0615" lon="6.38246">
        <ele>465</ele>
        <time>2012-07-14T15:17:31Z</time>
      </trkpt>
      <trkpt lat="46.0615" lon="6.38231">
        <ele>465</ele>
        <time>2012-07-14T15:17:32Z</time>
      </trkpt>
      <trkpt lat="46.06149" lon="6.38214">
        <ele>465</ele>
        <time>2012-07-14T15:17:33Z</time>
      </trkpt>
      <trkpt lat="46.06148" lon="6.38197">
        <ele>465</ele>
        <time>2012-07-14T15:17:34Z</time>
      </trkpt>
      <trkpt lat="46.06148" lon="6.3818">
        <ele>465</ele>
        <time>2012-07-14T15:17:35Z</time>
      </trkpt>
      <trkpt lat="46.06148" lon="6.38162">
        <ele>465</ele>
        <time>2012-07-14T15:17:36Z</time>
      </trkpt>
      <trkpt lat="46.06147" lon="6.38145">
        <ele>465</ele>
        <time>2012-07-14T15:17:37Z</time>
      </trkpt>
      <trkpt lat="46.06145" lon="6.38128">
        <ele>465</ele>
        <time>2012-07-14T15:17:38Z</time>
      </trkpt>
      <trkpt lat="46.06143" lon="6.38111">
        <ele>465</ele>
        <time>2012-07-14T15:17:39Z</time>
      </trkpt>
      <trkpt lat="46.06142" lon="6.38093">
        <ele>465</ele>
        <time>2012-07-14T15:17:40Z</time>
      </trkpt>
      <trkpt lat="46.06139" lon="6.38076">
        <ele>465</ele>
        <time>2012-07-14T15:17:41Z</time>
      </trkpt>
      <trkpt lat="46.06137" lon="6.38057">
        <ele>465</ele>
        <time>2012-07-14T15:17:42Z</time>
      </trkpt>
      <trkpt lat="46.06133" lon="6.38038">
        <ele>465</ele>
        <time>2012-07-14T15:17:43Z</time>
      </trkpt>
      <trkpt lat="46.06129" lon="6.38019">
        <ele>465</ele>
        <time>2012-07-14T15:17:44Z</time>
      </trkpt>
      <trkpt lat="46.06125" lon="6.38">
        <ele>465</ele>
        <time>2012-07-14T15:17:45Z</time>
      </trkpt>
      <trkpt lat="46.0612" lon="6.3798">
        <ele>465</ele>
        <time>2012-07-14T15:17:46Z</time>
      </trkpt>
      <trkpt lat="46.06115" lon="6.37961">
        <ele>470</ele>
        <time>2012-07-14T15:17:47Z</time>
      </trkpt>
      <trkpt lat="46.06109" lon="6.37941">
        <ele>470</ele>
        <time>2012-07-14T15:17:48Z</time>
      </trkpt>
      <trkpt lat="46.06103" lon="6.37921">
        <ele>470</ele>
        <time>2012-07-14T15:17:49Z</time>
      </trkpt>
      <trkpt lat="46.06097" lon="6.37899">
        <ele>470</ele>
        <time>2012-07-14T15:17:50Z</time>
      </trkpt>
      <trkpt lat="46.06091" lon="6.37879">
        <ele>470</ele>
        <time>2012-07-14T15:17:51Z</time>
      </trkpt>
      <trkpt lat="46.06085" lon="6.3786">
        <ele>470</ele>
        <time>2012-07-14T15:17:52Z</time>
      </trkpt>
      <trkpt lat="46.0608" lon="6.37843">
        <ele>470</ele>
        <time>2012-07-14T15:17:53Z</time>
      </trkpt>
      <trkpt lat="46.06075" lon="6.37825">
        <ele>470</ele>
        <time>2012-07-14T15:17:54Z</time>
      </trkpt>
      <trkpt lat="46.06068" lon="6.37807">
        <ele>470</ele>
        <time>2012-07-14T15:17:55Z</time>
      </trkpt>
      <trkpt lat="46.06062" lon="6.37791">
        <ele>470</ele>
        <time>2012-07-14T15:17:56Z</time>
      </trkpt>
      <trkpt lat="46.06057" lon="6.37776">
        <ele>470</ele>
        <time>2012-07-14T15:17:57Z</time>
      </trkpt>
      <trkpt lat="46.06051" lon="6.37761">
        <ele>470</ele>
        <time>2012-07-14T15:17:58Z</time>
      </trkpt>
      <trkpt lat="46.06045" lon="6.37746">
        <ele>470</ele>
        <time>2012-07-14T15:17:59Z</time>
      </trkpt>
      <trkpt lat="46.06038" lon="6.37732">
        <ele>470</ele>
        <time>2012-07-14T15:18:00Z</time>
      </trkpt>
      <trkpt lat="46.06032" lon="6.37719">
        <ele>470</ele>
        <time>2012-07-14T15:18:01Z</time>
      </trkpt>
      <trkpt lat="46.06027" lon="6.37706">
        <ele>470</ele>
        <time>2012-07-14T15:18:02Z</time>
      </trkpt>
      <trkpt lat="46.06021" lon="6.37694">
        <ele>470</ele>
        <time>2012-07-14T15:18:03Z</time>
      </trkpt>
      <trkpt lat="46.06016" lon="6.37683">
        <ele>470</ele>
        <time>2012-07-14T15:18:04Z</time>
      </trkpt>
      <trkpt lat="46.06006" lon="6.37661">
        <ele>470</ele>
        <time>2012-07-14T15:18:06Z</time>
      </trkpt>
      <trkpt lat="46.05997" lon="6.37641">
        <ele>470</ele>
        <time>2012-07-14T15:18:08Z</time>
      </trkpt>
      <trkpt lat="46.0599" lon="6.37625">
        <ele>475</ele>
        <time>2012-07-14T15:18:10Z</time>
      </trkpt>
      <trkpt lat="46.05984" lon="6.37612">
        <ele>475</ele>
        <time>2012-07-14T15:18:12Z</time>
      </trkpt>
      <trkpt lat="46.05989" lon="6.37598">
        <ele>475</ele>
        <time>2012-07-14T15:18:15Z</time>
      </trkpt>
      <trkpt lat="46.05997" lon="6.37584">
        <ele>475</ele>
        <time>2012-07-14T15:18:18Z</time>
      </trkpt>
      <trkpt lat="46.06" lon="6.37567">
        <ele>475</ele>
        <time>2012-07-14T15:18:20Z</time>
      </trkpt>
      <trkpt lat="46.06002" lon="6.3755">
        <ele>475</ele>
        <time>2012-07-14T15:18:22Z</time>
      </trkpt>
      <trkpt lat="46.06004" lon="6.37534">
        <ele>475</ele>
        <time>2012-07-14T15:18:24Z</time>
      </trkpt>
      <trkpt lat="46.06005" lon="6.3752">
        <ele>475</ele>
        <time>2012-07-14T15:18:26Z</time>
      </trkpt>
      <trkpt lat="46.06007" lon="6.37506">
        <ele>475</ele>
        <time>2012-07-14T15:18:28Z</time>
      </trkpt>
      <trkpt lat="46.06009" lon="6.37489">
        <ele>475</ele>
        <time>2012-07-14T15:18:30Z</time>
      </trkpt>
      <trkpt lat="46.06011" lon="6.37469">
        <ele>475</ele>
        <time>2012-07-14T15:18:32Z</time>
      </trkpt>
      <trkpt lat="46.06013" lon="6.37446">
        <ele>475</ele>
        <time>2012-07-14T15:18:34Z</time>
      </trkpt>
      <trkpt lat="46.06017" lon="6.37423">
        <ele>475</ele>
        <time>2012-07-14T15:18:36Z</time>
      </trkpt>
      <trkpt lat="46.0602" lon="6.37402">
        <ele>475</ele>
        <time>2012-07-14T15:18:38Z</time>
      </trkpt>
      <trkpt lat="46.06022" lon="6.37384">
        <ele>475</ele>
        <time>2012-07-14T15:18:40Z</time>
      </trkpt>
      <trkpt lat="46.06023" lon="6.37368">
        <ele>475</ele>
        <time>2012-07-14T15:18:42Z</time>
      </trkpt>
      <trkpt lat="46.06025" lon="6.37355">
        <ele>475</ele>
        <time>2012-07-14T15:18:45Z</time>
      </trkpt>
      <trkpt lat="46.06018" lon="6.37344">
        <ele>475</ele>
        <time>2012-07-14T15:18:52Z</time>
      </trkpt>
      <trkpt lat="46.06001" lon="6.37338">
        <ele>475</ele>
        <time>2012-07-14T15:18:54Z</time>
      </trkpt>
      <trkpt lat="46.05992" lon="6.37335">
        <ele>475</ele>
        <time>2012-07-14T15:18:55Z</time>
      </trkpt>
      <trkpt lat="46.05975" lon="6.3733">
        <ele>475</ele>
        <time>2012-07-14T15:18:57Z</time>
      </trkpt>
      <trkpt lat="46.05964" lon="6.3733">
        <ele>475</ele>
        <time>2012-07-14T15:18:59Z</time>
      </trkpt>
      <trkpt lat="46.05955" lon="6.37342">
        <ele>475</ele>
        <time>2012-07-14T15:19:02Z</time>
      </trkpt>
      <trkpt lat="46.05951" lon="6.37357">
        <ele>475</ele>
        <time>2012-07-14T15:19:05Z</time>
      </trkpt>
    </trkseg>
  </trk>
</gpx>